<?xml version="1.0" encoding="UTF-8" standalone="no" ?>
<gpx xmlns="http://www.topografix.com/GPX/1/1" xmlns:xsi="http://www.w3.org/2001/XMLSchema-instance" xsi:schemaLocation="http://www.topografix.com/GPX/1/1 http://www.topografix.com/GPX/1/1/gpx.xsd" version="1.1" creator="VisuGPX - https://www.visugpx.com">
  <metadata>
    <name>Glaris-Engelberg(tout)</name>
  </metadata>
  <trk>
    <name><![CDATA[Glaris-Engelberg(tout)_11]]></name>
    <extensions>
      <line xmlns="http://www.topografix.com/GPX/gpx_style/0/2">
        <color>880088</color>
        <width>4</width>
      </line>
    </extensions>
    <trkseg>
      <trkpt lat="46.87214" lon="8.46928">
        <ele>2274</ele>
        <time>2021-08-12T08:29:50.391Z</time>
      </trkpt>
      <trkpt lat="46.87214" lon="8.46928">
        <ele>2273</ele>
        <time>2021-08-12T08:29:51.391Z</time>
      </trkpt>
      <trkpt lat="46.87214" lon="8.46927">
        <ele>2272</ele>
        <time>2021-08-12T08:29:52.391Z</time>
      </trkpt>
      <trkpt lat="46.87213" lon="8.46927">
        <ele>2271</ele>
        <time>2021-08-12T08:29:53.391Z</time>
      </trkpt>
      <trkpt lat="46.87213" lon="8.46927">
        <ele>2270</ele>
        <time>2021-08-12T08:29:54.391Z</time>
      </trkpt>
      <trkpt lat="46.87213" lon="8.46926">
        <ele>2269</ele>
        <time>2021-08-12T08:29:55.392Z</time>
      </trkpt>
      <trkpt lat="46.87213" lon="8.46926">
        <ele>2269</ele>
        <time>2021-08-12T08:29:56.391Z</time>
      </trkpt>
      <trkpt lat="46.87212" lon="8.46926">
        <ele>2268</ele>
        <time>2021-08-12T08:29:57.392Z</time>
      </trkpt>
      <trkpt lat="46.87212" lon="8.46926">
        <ele>2267</ele>
        <time>2021-08-12T08:29:58.391Z</time>
      </trkpt>
      <trkpt lat="46.87212" lon="8.46925">
        <ele>2267</ele>
        <time>2021-08-12T08:29:59.391Z</time>
      </trkpt>
      <trkpt lat="46.87211" lon="8.46925">
        <ele>2266</ele>
        <time>2021-08-12T08:30:00.391Z</time>
      </trkpt>
      <trkpt lat="46.8721" lon="8.46924">
        <ele>2266</ele>
        <time>2021-08-12T08:30:01.392Z</time>
      </trkpt>
      <trkpt lat="46.8721" lon="8.46924">
        <ele>2266</ele>
        <time>2021-08-12T08:30:02.391Z</time>
      </trkpt>
      <trkpt lat="46.8721" lon="8.46923">
        <ele>2265</ele>
        <time>2021-08-12T08:30:03.391Z</time>
      </trkpt>
      <trkpt lat="46.87211" lon="8.46923">
        <ele>2265</ele>
        <time>2021-08-12T08:30:04.391Z</time>
      </trkpt>
      <trkpt lat="46.87211" lon="8.46922">
        <ele>2265</ele>
        <time>2021-08-12T08:30:05.391Z</time>
      </trkpt>
      <trkpt lat="46.87211" lon="8.46922">
        <ele>2265</ele>
        <time>2021-08-12T08:30:06.391Z</time>
      </trkpt>
      <trkpt lat="46.87211" lon="8.46922">
        <ele>2265</ele>
        <time>2021-08-12T08:30:07.391Z</time>
      </trkpt>
      <trkpt lat="46.87211" lon="8.46922">
        <ele>2265</ele>
        <time>2021-08-12T08:30:08.391Z</time>
      </trkpt>
      <trkpt lat="46.87211" lon="8.46921">
        <ele>2265</ele>
        <time>2021-08-12T08:30:09.391Z</time>
      </trkpt>
      <trkpt lat="46.87211" lon="8.46921">
        <ele>2265</ele>
        <time>2021-08-12T08:30:10.391Z</time>
      </trkpt>
      <trkpt lat="46.87211" lon="8.46921">
        <ele>2264</ele>
        <time>2021-08-12T08:30:11.392Z</time>
      </trkpt>
      <trkpt lat="46.8721" lon="8.46919">
        <ele>2264</ele>
        <time>2021-08-12T08:30:12.391Z</time>
      </trkpt>
      <trkpt lat="46.87211" lon="8.46918">
        <ele>2264</ele>
        <time>2021-08-12T08:30:13.391Z</time>
      </trkpt>
      <trkpt lat="46.87211" lon="8.46919">
        <ele>2264</ele>
        <time>2021-08-12T08:30:14.392Z</time>
      </trkpt>
      <trkpt lat="46.87212" lon="8.46919">
        <ele>2263</ele>
        <time>2021-08-12T08:30:15.391Z</time>
      </trkpt>
      <trkpt lat="46.87211" lon="8.46919">
        <ele>2263</ele>
        <time>2021-08-12T08:30:16.391Z</time>
      </trkpt>
      <trkpt lat="46.8721" lon="8.46919">
        <ele>2263</ele>
        <time>2021-08-12T08:30:17.391Z</time>
      </trkpt>
      <trkpt lat="46.8721" lon="8.46919">
        <ele>2263</ele>
        <time>2021-08-12T08:30:18.392Z</time>
      </trkpt>
      <trkpt lat="46.8721" lon="8.46919">
        <ele>2263</ele>
        <time>2021-08-12T08:30:19.392Z</time>
      </trkpt>
      <trkpt lat="46.87211" lon="8.4692">
        <ele>2262</ele>
        <time>2021-08-12T08:30:20.391Z</time>
      </trkpt>
      <trkpt lat="46.87207" lon="8.46913">
        <ele>2271</ele>
        <time>2021-08-12T08:30:21.392Z</time>
      </trkpt>
      <trkpt lat="46.87207" lon="8.46914">
        <ele>2271</ele>
        <time>2021-08-12T08:30:22.392Z</time>
      </trkpt>
      <trkpt lat="46.87206" lon="8.46914">
        <ele>2272</ele>
        <time>2021-08-12T08:30:23.391Z</time>
      </trkpt>
      <trkpt lat="46.87206" lon="8.46915">
        <ele>2271</ele>
        <time>2021-08-12T08:30:24.392Z</time>
      </trkpt>
      <trkpt lat="46.87206" lon="8.46916">
        <ele>2271</ele>
        <time>2021-08-12T08:30:25.392Z</time>
      </trkpt>
      <trkpt lat="46.87205" lon="8.46916">
        <ele>2271</ele>
        <time>2021-08-12T08:30:26.392Z</time>
      </trkpt>
      <trkpt lat="46.87205" lon="8.46916">
        <ele>2270</ele>
        <time>2021-08-12T08:30:27.392Z</time>
      </trkpt>
      <trkpt lat="46.87204" lon="8.46917">
        <ele>2270</ele>
        <time>2021-08-12T08:30:28.391Z</time>
      </trkpt>
      <trkpt lat="46.87204" lon="8.46917">
        <ele>2270</ele>
        <time>2021-08-12T08:30:29.392Z</time>
      </trkpt>
      <trkpt lat="46.87203" lon="8.46917">
        <ele>2269</ele>
        <time>2021-08-12T08:30:30.392Z</time>
      </trkpt>
      <trkpt lat="46.87203" lon="8.46917">
        <ele>2269</ele>
        <time>2021-08-12T08:30:31.391Z</time>
      </trkpt>
      <trkpt lat="46.87203" lon="8.46917">
        <ele>2269</ele>
        <time>2021-08-12T08:30:32.391Z</time>
      </trkpt>
      <trkpt lat="46.87202" lon="8.46917">
        <ele>2269</ele>
        <time>2021-08-12T08:30:33.391Z</time>
      </trkpt>
      <trkpt lat="46.87202" lon="8.46917">
        <ele>2269</ele>
        <time>2021-08-12T08:30:34.392Z</time>
      </trkpt>
      <trkpt lat="46.87201" lon="8.46918">
        <ele>2269</ele>
        <time>2021-08-12T08:30:35.392Z</time>
      </trkpt>
      <trkpt lat="46.872" lon="8.46918">
        <ele>2269</ele>
        <time>2021-08-12T08:30:36.392Z</time>
      </trkpt>
      <trkpt lat="46.872" lon="8.46919">
        <ele>2268</ele>
        <time>2021-08-12T08:30:37.392Z</time>
      </trkpt>
      <trkpt lat="46.87199" lon="8.46919">
        <ele>2268</ele>
        <time>2021-08-12T08:30:38.392Z</time>
      </trkpt>
      <trkpt lat="46.87199" lon="8.4692">
        <ele>2268</ele>
        <time>2021-08-12T08:30:39.392Z</time>
      </trkpt>
      <trkpt lat="46.87199" lon="8.4692">
        <ele>2268</ele>
        <time>2021-08-12T08:30:40.391Z</time>
      </trkpt>
      <trkpt lat="46.87199" lon="8.46921">
        <ele>2268</ele>
        <time>2021-08-12T08:30:41.392Z</time>
      </trkpt>
      <trkpt lat="46.87198" lon="8.46921">
        <ele>2267</ele>
        <time>2021-08-12T08:30:42.392Z</time>
      </trkpt>
      <trkpt lat="46.87198" lon="8.46921">
        <ele>2267</ele>
        <time>2021-08-12T08:30:43.392Z</time>
      </trkpt>
      <trkpt lat="46.87198" lon="8.46922">
        <ele>2267</ele>
        <time>2021-08-12T08:30:44.391Z</time>
      </trkpt>
      <trkpt lat="46.87197" lon="8.46923">
        <ele>2267</ele>
        <time>2021-08-12T08:30:45.391Z</time>
      </trkpt>
      <trkpt lat="46.87197" lon="8.46924">
        <ele>2267</ele>
        <time>2021-08-12T08:30:46.391Z</time>
      </trkpt>
      <trkpt lat="46.87196" lon="8.46924">
        <ele>2267</ele>
        <time>2021-08-12T08:30:47.392Z</time>
      </trkpt>
      <trkpt lat="46.87196" lon="8.46925">
        <ele>2267</ele>
        <time>2021-08-12T08:30:48.392Z</time>
      </trkpt>
      <trkpt lat="46.87195" lon="8.46926">
        <ele>2266</ele>
        <time>2021-08-12T08:30:49.392Z</time>
      </trkpt>
      <trkpt lat="46.87194" lon="8.46928">
        <ele>2266</ele>
        <time>2021-08-12T08:30:50.392Z</time>
      </trkpt>
      <trkpt lat="46.87194" lon="8.46929">
        <ele>2266</ele>
        <time>2021-08-12T08:30:51.391Z</time>
      </trkpt>
      <trkpt lat="46.87193" lon="8.46931">
        <ele>2265</ele>
        <time>2021-08-12T08:30:52.391Z</time>
      </trkpt>
      <trkpt lat="46.87192" lon="8.46931">
        <ele>2265</ele>
        <time>2021-08-12T08:30:53.391Z</time>
      </trkpt>
      <trkpt lat="46.87191" lon="8.46932">
        <ele>2265</ele>
        <time>2021-08-12T08:30:54.392Z</time>
      </trkpt>
      <trkpt lat="46.8719" lon="8.46933">
        <ele>2265</ele>
        <time>2021-08-12T08:30:55.392Z</time>
      </trkpt>
      <trkpt lat="46.87189" lon="8.46934">
        <ele>2265</ele>
        <time>2021-08-12T08:30:56.392Z</time>
      </trkpt>
      <trkpt lat="46.87189" lon="8.46935">
        <ele>2265</ele>
        <time>2021-08-12T08:30:57.392Z</time>
      </trkpt>
      <trkpt lat="46.87188" lon="8.46937">
        <ele>2265</ele>
        <time>2021-08-12T08:30:58.392Z</time>
      </trkpt>
      <trkpt lat="46.87187" lon="8.46938">
        <ele>2265</ele>
        <time>2021-08-12T08:30:59.392Z</time>
      </trkpt>
      <trkpt lat="46.87186" lon="8.46939">
        <ele>2265</ele>
        <time>2021-08-12T08:31:00.392Z</time>
      </trkpt>
      <trkpt lat="46.87185" lon="8.4694">
        <ele>2266</ele>
        <time>2021-08-12T08:31:01.392Z</time>
      </trkpt>
      <trkpt lat="46.87184" lon="8.46941">
        <ele>2265</ele>
        <time>2021-08-12T08:31:02.392Z</time>
      </trkpt>
      <trkpt lat="46.87183" lon="8.46941">
        <ele>2265</ele>
        <time>2021-08-12T08:31:03.392Z</time>
      </trkpt>
      <trkpt lat="46.87182" lon="8.46942">
        <ele>2265</ele>
        <time>2021-08-12T08:31:04.392Z</time>
      </trkpt>
      <trkpt lat="46.87181" lon="8.46943">
        <ele>2265</ele>
        <time>2021-08-12T08:31:05.392Z</time>
      </trkpt>
      <trkpt lat="46.87181" lon="8.46944">
        <ele>2265</ele>
        <time>2021-08-12T08:31:06.391Z</time>
      </trkpt>
      <trkpt lat="46.8718" lon="8.46945">
        <ele>2264</ele>
        <time>2021-08-12T08:31:07.392Z</time>
      </trkpt>
      <trkpt lat="46.8718" lon="8.46946">
        <ele>2264</ele>
        <time>2021-08-12T08:31:08.392Z</time>
      </trkpt>
      <trkpt lat="46.87179" lon="8.46947">
        <ele>2264</ele>
        <time>2021-08-12T08:31:09.391Z</time>
      </trkpt>
      <trkpt lat="46.87178" lon="8.46948">
        <ele>2263</ele>
        <time>2021-08-12T08:31:10.392Z</time>
      </trkpt>
      <trkpt lat="46.87177" lon="8.46948">
        <ele>2263</ele>
        <time>2021-08-12T08:31:11.392Z</time>
      </trkpt>
      <trkpt lat="46.87177" lon="8.46949">
        <ele>2263</ele>
        <time>2021-08-12T08:31:12.392Z</time>
      </trkpt>
      <trkpt lat="46.87176" lon="8.46949">
        <ele>2262</ele>
        <time>2021-08-12T08:31:13.391Z</time>
      </trkpt>
      <trkpt lat="46.87175" lon="8.46951">
        <ele>2262</ele>
        <time>2021-08-12T08:31:14.391Z</time>
      </trkpt>
      <trkpt lat="46.87174" lon="8.46952">
        <ele>2262</ele>
        <time>2021-08-12T08:31:15.392Z</time>
      </trkpt>
      <trkpt lat="46.87174" lon="8.46954">
        <ele>2261</ele>
        <time>2021-08-12T08:31:16.391Z</time>
      </trkpt>
      <trkpt lat="46.87173" lon="8.46954">
        <ele>2261</ele>
        <time>2021-08-12T08:31:17.391Z</time>
      </trkpt>
      <trkpt lat="46.87172" lon="8.46955">
        <ele>2260</ele>
        <time>2021-08-12T08:31:18.392Z</time>
      </trkpt>
      <trkpt lat="46.87171" lon="8.46956">
        <ele>2260</ele>
        <time>2021-08-12T08:31:19.392Z</time>
      </trkpt>
      <trkpt lat="46.8717" lon="8.46957">
        <ele>2260</ele>
        <time>2021-08-12T08:31:20.392Z</time>
      </trkpt>
      <trkpt lat="46.87169" lon="8.46959">
        <ele>2260</ele>
        <time>2021-08-12T08:31:21.392Z</time>
      </trkpt>
      <trkpt lat="46.87168" lon="8.4696">
        <ele>2260</ele>
        <time>2021-08-12T08:31:22.392Z</time>
      </trkpt>
      <trkpt lat="46.87167" lon="8.46961">
        <ele>2260</ele>
        <time>2021-08-12T08:31:23.392Z</time>
      </trkpt>
      <trkpt lat="46.87167" lon="8.46963">
        <ele>2261</ele>
        <time>2021-08-12T08:31:24.392Z</time>
      </trkpt>
      <trkpt lat="46.87166" lon="8.46963">
        <ele>2261</ele>
        <time>2021-08-12T08:31:25.391Z</time>
      </trkpt>
      <trkpt lat="46.87166" lon="8.46964">
        <ele>2260</ele>
        <time>2021-08-12T08:31:26.392Z</time>
      </trkpt>
      <trkpt lat="46.87165" lon="8.46965">
        <ele>2260</ele>
        <time>2021-08-12T08:31:27.392Z</time>
      </trkpt>
      <trkpt lat="46.87164" lon="8.46966">
        <ele>2261</ele>
        <time>2021-08-12T08:31:28.391Z</time>
      </trkpt>
      <trkpt lat="46.87163" lon="8.46967">
        <ele>2261</ele>
        <time>2021-08-12T08:31:29.392Z</time>
      </trkpt>
      <trkpt lat="46.87162" lon="8.46968">
        <ele>2262</ele>
        <time>2021-08-12T08:31:30.392Z</time>
      </trkpt>
      <trkpt lat="46.87162" lon="8.46969">
        <ele>2262</ele>
        <time>2021-08-12T08:31:31.391Z</time>
      </trkpt>
      <trkpt lat="46.87161" lon="8.4697">
        <ele>2263</ele>
        <time>2021-08-12T08:31:32.392Z</time>
      </trkpt>
      <trkpt lat="46.8716" lon="8.46971">
        <ele>2263</ele>
        <time>2021-08-12T08:31:33.392Z</time>
      </trkpt>
      <trkpt lat="46.87159" lon="8.46973">
        <ele>2263</ele>
        <time>2021-08-12T08:31:34.392Z</time>
      </trkpt>
      <trkpt lat="46.87158" lon="8.46974">
        <ele>2263</ele>
        <time>2021-08-12T08:31:35.391Z</time>
      </trkpt>
      <trkpt lat="46.87158" lon="8.46974">
        <ele>2263</ele>
        <time>2021-08-12T08:31:36.392Z</time>
      </trkpt>
      <trkpt lat="46.87157" lon="8.46975">
        <ele>2263</ele>
        <time>2021-08-12T08:31:37.391Z</time>
      </trkpt>
      <trkpt lat="46.87156" lon="8.46976">
        <ele>2263</ele>
        <time>2021-08-12T08:31:38.392Z</time>
      </trkpt>
      <trkpt lat="46.87155" lon="8.46976">
        <ele>2263</ele>
        <time>2021-08-12T08:31:39.392Z</time>
      </trkpt>
      <trkpt lat="46.87154" lon="8.46977">
        <ele>2262</ele>
        <time>2021-08-12T08:31:40.391Z</time>
      </trkpt>
      <trkpt lat="46.87154" lon="8.46978">
        <ele>2261</ele>
        <time>2021-08-12T08:31:41.391Z</time>
      </trkpt>
      <trkpt lat="46.87153" lon="8.46979">
        <ele>2261</ele>
        <time>2021-08-12T08:31:42.391Z</time>
      </trkpt>
      <trkpt lat="46.87152" lon="8.4698">
        <ele>2261</ele>
        <time>2021-08-12T08:31:43.392Z</time>
      </trkpt>
      <trkpt lat="46.87152" lon="8.46981">
        <ele>2260</ele>
        <time>2021-08-12T08:31:44.392Z</time>
      </trkpt>
      <trkpt lat="46.87151" lon="8.46982">
        <ele>2259</ele>
        <time>2021-08-12T08:31:45.391Z</time>
      </trkpt>
      <trkpt lat="46.87151" lon="8.46982">
        <ele>2259</ele>
        <time>2021-08-12T08:31:46.391Z</time>
      </trkpt>
      <trkpt lat="46.8715" lon="8.46983">
        <ele>2259</ele>
        <time>2021-08-12T08:31:47.392Z</time>
      </trkpt>
      <trkpt lat="46.87149" lon="8.46984">
        <ele>2259</ele>
        <time>2021-08-12T08:31:48.392Z</time>
      </trkpt>
      <trkpt lat="46.87148" lon="8.46986">
        <ele>2259</ele>
        <time>2021-08-12T08:31:49.392Z</time>
      </trkpt>
      <trkpt lat="46.87147" lon="8.46987">
        <ele>2259</ele>
        <time>2021-08-12T08:31:50.392Z</time>
      </trkpt>
      <trkpt lat="46.87147" lon="8.46987">
        <ele>2259</ele>
        <time>2021-08-12T08:31:51.392Z</time>
      </trkpt>
      <trkpt lat="46.87146" lon="8.46988">
        <ele>2258</ele>
        <time>2021-08-12T08:31:52.391Z</time>
      </trkpt>
      <trkpt lat="46.87145" lon="8.46989">
        <ele>2258</ele>
        <time>2021-08-12T08:31:53.391Z</time>
      </trkpt>
      <trkpt lat="46.87145" lon="8.4699">
        <ele>2258</ele>
        <time>2021-08-12T08:31:54.392Z</time>
      </trkpt>
      <trkpt lat="46.87145" lon="8.4699">
        <ele>2258</ele>
        <time>2021-08-12T08:31:55.392Z</time>
      </trkpt>
      <trkpt lat="46.87144" lon="8.4699">
        <ele>2259</ele>
        <time>2021-08-12T08:31:56.392Z</time>
      </trkpt>
      <trkpt lat="46.87144" lon="8.4699">
        <ele>2259</ele>
        <time>2021-08-12T08:31:57.393Z</time>
      </trkpt>
      <trkpt lat="46.87143" lon="8.4699">
        <ele>2259</ele>
        <time>2021-08-12T08:31:58.393Z</time>
      </trkpt>
      <trkpt lat="46.87141" lon="8.46991">
        <ele>2259</ele>
        <time>2021-08-12T08:31:59.392Z</time>
      </trkpt>
      <trkpt lat="46.8714" lon="8.46991">
        <ele>2259</ele>
        <time>2021-08-12T08:32:00.393Z</time>
      </trkpt>
      <trkpt lat="46.8714" lon="8.46993">
        <ele>2259</ele>
        <time>2021-08-12T08:32:01.393Z</time>
      </trkpt>
      <trkpt lat="46.87139" lon="8.46994">
        <ele>2258</ele>
        <time>2021-08-12T08:32:02.393Z</time>
      </trkpt>
      <trkpt lat="46.87138" lon="8.46996">
        <ele>2258</ele>
        <time>2021-08-12T08:32:03.393Z</time>
      </trkpt>
      <trkpt lat="46.87138" lon="8.46997">
        <ele>2258</ele>
        <time>2021-08-12T08:32:04.393Z</time>
      </trkpt>
      <trkpt lat="46.87138" lon="8.46998">
        <ele>2258</ele>
        <time>2021-08-12T08:32:05.392Z</time>
      </trkpt>
      <trkpt lat="46.87137" lon="8.47">
        <ele>2258</ele>
        <time>2021-08-12T08:32:06.393Z</time>
      </trkpt>
      <trkpt lat="46.87137" lon="8.47">
        <ele>2258</ele>
        <time>2021-08-12T08:32:07.393Z</time>
      </trkpt>
      <trkpt lat="46.87137" lon="8.47001">
        <ele>2257</ele>
        <time>2021-08-12T08:32:08.392Z</time>
      </trkpt>
      <trkpt lat="46.87137" lon="8.47002">
        <ele>2257</ele>
        <time>2021-08-12T08:32:09.392Z</time>
      </trkpt>
      <trkpt lat="46.87137" lon="8.47003">
        <ele>2256</ele>
        <time>2021-08-12T08:32:10.392Z</time>
      </trkpt>
      <trkpt lat="46.87136" lon="8.47004">
        <ele>2255</ele>
        <time>2021-08-12T08:32:11.393Z</time>
      </trkpt>
      <trkpt lat="46.87136" lon="8.47005">
        <ele>2255</ele>
        <time>2021-08-12T08:32:12.392Z</time>
      </trkpt>
      <trkpt lat="46.87136" lon="8.47006">
        <ele>2255</ele>
        <time>2021-08-12T08:32:13.393Z</time>
      </trkpt>
      <trkpt lat="46.87136" lon="8.47007">
        <ele>2255</ele>
        <time>2021-08-12T08:32:14.393Z</time>
      </trkpt>
      <trkpt lat="46.87135" lon="8.47009">
        <ele>2255</ele>
        <time>2021-08-12T08:32:15.393Z</time>
      </trkpt>
      <trkpt lat="46.87135" lon="8.47009">
        <ele>2254</ele>
        <time>2021-08-12T08:32:16.392Z</time>
      </trkpt>
      <trkpt lat="46.87135" lon="8.47009">
        <ele>2254</ele>
        <time>2021-08-12T08:32:17.393Z</time>
      </trkpt>
      <trkpt lat="46.87135" lon="8.47009">
        <ele>2254</ele>
        <time>2021-08-12T08:32:18.393Z</time>
      </trkpt>
      <trkpt lat="46.87134" lon="8.4701">
        <ele>2254</ele>
        <time>2021-08-12T08:32:19.393Z</time>
      </trkpt>
      <trkpt lat="46.87134" lon="8.4701">
        <ele>2253</ele>
        <time>2021-08-12T08:32:20.392Z</time>
      </trkpt>
      <trkpt lat="46.87133" lon="8.4701">
        <ele>2253</ele>
        <time>2021-08-12T08:32:21.393Z</time>
      </trkpt>
      <trkpt lat="46.87133" lon="8.47011">
        <ele>2253</ele>
        <time>2021-08-12T08:32:22.392Z</time>
      </trkpt>
      <trkpt lat="46.87132" lon="8.47011">
        <ele>2253</ele>
        <time>2021-08-12T08:32:23.392Z</time>
      </trkpt>
      <trkpt lat="46.87131" lon="8.47011">
        <ele>2252</ele>
        <time>2021-08-12T08:32:24.392Z</time>
      </trkpt>
      <trkpt lat="46.8713" lon="8.47012">
        <ele>2252</ele>
        <time>2021-08-12T08:32:25.392Z</time>
      </trkpt>
      <trkpt lat="46.87129" lon="8.47012">
        <ele>2251</ele>
        <time>2021-08-12T08:32:26.392Z</time>
      </trkpt>
      <trkpt lat="46.87128" lon="8.47013">
        <ele>2251</ele>
        <time>2021-08-12T08:32:27.393Z</time>
      </trkpt>
      <trkpt lat="46.87127" lon="8.47013">
        <ele>2251</ele>
        <time>2021-08-12T08:32:28.392Z</time>
      </trkpt>
      <trkpt lat="46.87126" lon="8.47013">
        <ele>2251</ele>
        <time>2021-08-12T08:32:29.392Z</time>
      </trkpt>
      <trkpt lat="46.87125" lon="8.47013">
        <ele>2250</ele>
        <time>2021-08-12T08:32:30.392Z</time>
      </trkpt>
      <trkpt lat="46.87124" lon="8.47013">
        <ele>2250</ele>
        <time>2021-08-12T08:32:31.393Z</time>
      </trkpt>
      <trkpt lat="46.87124" lon="8.47012">
        <ele>2250</ele>
        <time>2021-08-12T08:32:32.392Z</time>
      </trkpt>
      <trkpt lat="46.87123" lon="8.47013">
        <ele>2250</ele>
        <time>2021-08-12T08:32:33.392Z</time>
      </trkpt>
      <trkpt lat="46.87123" lon="8.47013">
        <ele>2250</ele>
        <time>2021-08-12T08:32:34.392Z</time>
      </trkpt>
      <trkpt lat="46.87122" lon="8.47013">
        <ele>2250</ele>
        <time>2021-08-12T08:32:35.392Z</time>
      </trkpt>
      <trkpt lat="46.87121" lon="8.47013">
        <ele>2250</ele>
        <time>2021-08-12T08:32:36.392Z</time>
      </trkpt>
      <trkpt lat="46.8712" lon="8.47013">
        <ele>2250</ele>
        <time>2021-08-12T08:32:37.392Z</time>
      </trkpt>
      <trkpt lat="46.87119" lon="8.47013">
        <ele>2250</ele>
        <time>2021-08-12T08:32:38.392Z</time>
      </trkpt>
      <trkpt lat="46.87118" lon="8.47012">
        <ele>2250</ele>
        <time>2021-08-12T08:32:39.392Z</time>
      </trkpt>
      <trkpt lat="46.87116" lon="8.47013">
        <ele>2250</ele>
        <time>2021-08-12T08:32:40.392Z</time>
      </trkpt>
      <trkpt lat="46.87115" lon="8.47014">
        <ele>2249</ele>
        <time>2021-08-12T08:32:41.392Z</time>
      </trkpt>
      <trkpt lat="46.87114" lon="8.47014">
        <ele>2249</ele>
        <time>2021-08-12T08:32:42.393Z</time>
      </trkpt>
      <trkpt lat="46.87113" lon="8.47014">
        <ele>2249</ele>
        <time>2021-08-12T08:32:43.392Z</time>
      </trkpt>
      <trkpt lat="46.87112" lon="8.47015">
        <ele>2248</ele>
        <time>2021-08-12T08:32:44.392Z</time>
      </trkpt>
      <trkpt lat="46.8711" lon="8.47015">
        <ele>2248</ele>
        <time>2021-08-12T08:32:45.392Z</time>
      </trkpt>
      <trkpt lat="46.87109" lon="8.47015">
        <ele>2248</ele>
        <time>2021-08-12T08:32:46.392Z</time>
      </trkpt>
      <trkpt lat="46.87107" lon="8.47014">
        <ele>2249</ele>
        <time>2021-08-12T08:32:47.392Z</time>
      </trkpt>
      <trkpt lat="46.87106" lon="8.47013">
        <ele>2249</ele>
        <time>2021-08-12T08:32:48.392Z</time>
      </trkpt>
      <trkpt lat="46.87105" lon="8.47013">
        <ele>2249</ele>
        <time>2021-08-12T08:32:49.392Z</time>
      </trkpt>
      <trkpt lat="46.87104" lon="8.47014">
        <ele>2250</ele>
        <time>2021-08-12T08:32:50.393Z</time>
      </trkpt>
      <trkpt lat="46.87103" lon="8.47014">
        <ele>2250</ele>
        <time>2021-08-12T08:32:51.392Z</time>
      </trkpt>
      <trkpt lat="46.87102" lon="8.47015">
        <ele>2250</ele>
        <time>2021-08-12T08:32:52.392Z</time>
      </trkpt>
      <trkpt lat="46.871" lon="8.47015">
        <ele>2251</ele>
        <time>2021-08-12T08:32:53.392Z</time>
      </trkpt>
      <trkpt lat="46.871" lon="8.47016">
        <ele>2251</ele>
        <time>2021-08-12T08:32:54.393Z</time>
      </trkpt>
      <trkpt lat="46.87098" lon="8.47016">
        <ele>2251</ele>
        <time>2021-08-12T08:32:55.392Z</time>
      </trkpt>
      <trkpt lat="46.87097" lon="8.47016">
        <ele>2251</ele>
        <time>2021-08-12T08:32:56.392Z</time>
      </trkpt>
      <trkpt lat="46.87096" lon="8.47017">
        <ele>2251</ele>
        <time>2021-08-12T08:32:57.393Z</time>
      </trkpt>
      <trkpt lat="46.87095" lon="8.47017">
        <ele>2251</ele>
        <time>2021-08-12T08:32:58.393Z</time>
      </trkpt>
      <trkpt lat="46.87094" lon="8.47018">
        <ele>2251</ele>
        <time>2021-08-12T08:32:59.393Z</time>
      </trkpt>
      <trkpt lat="46.87093" lon="8.47018">
        <ele>2251</ele>
        <time>2021-08-12T08:33:00.393Z</time>
      </trkpt>
      <trkpt lat="46.87092" lon="8.47018">
        <ele>2251</ele>
        <time>2021-08-12T08:33:01.393Z</time>
      </trkpt>
      <trkpt lat="46.87091" lon="8.47019">
        <ele>2251</ele>
        <time>2021-08-12T08:33:02.393Z</time>
      </trkpt>
      <trkpt lat="46.8709" lon="8.47019">
        <ele>2251</ele>
        <time>2021-08-12T08:33:03.393Z</time>
      </trkpt>
      <trkpt lat="46.87089" lon="8.47019">
        <ele>2251</ele>
        <time>2021-08-12T08:33:04.393Z</time>
      </trkpt>
      <trkpt lat="46.87088" lon="8.47019">
        <ele>2251</ele>
        <time>2021-08-12T08:33:05.392Z</time>
      </trkpt>
      <trkpt lat="46.87087" lon="8.47019">
        <ele>2251</ele>
        <time>2021-08-12T08:33:06.393Z</time>
      </trkpt>
      <trkpt lat="46.87086" lon="8.47019">
        <ele>2251</ele>
        <time>2021-08-12T08:33:07.393Z</time>
      </trkpt>
      <trkpt lat="46.87084" lon="8.47019">
        <ele>2251</ele>
        <time>2021-08-12T08:33:08.392Z</time>
      </trkpt>
      <trkpt lat="46.87084" lon="8.47018">
        <ele>2250</ele>
        <time>2021-08-12T08:33:09.393Z</time>
      </trkpt>
      <trkpt lat="46.87083" lon="8.47019">
        <ele>2250</ele>
        <time>2021-08-12T08:33:10.393Z</time>
      </trkpt>
      <trkpt lat="46.87083" lon="8.47019">
        <ele>2250</ele>
        <time>2021-08-12T08:33:11.392Z</time>
      </trkpt>
      <trkpt lat="46.87081" lon="8.47019">
        <ele>2249</ele>
        <time>2021-08-12T08:33:12.393Z</time>
      </trkpt>
      <trkpt lat="46.87081" lon="8.47019">
        <ele>2249</ele>
        <time>2021-08-12T08:33:13.393Z</time>
      </trkpt>
      <trkpt lat="46.8708" lon="8.4702">
        <ele>2249</ele>
        <time>2021-08-12T08:33:14.393Z</time>
      </trkpt>
      <trkpt lat="46.87079" lon="8.47021">
        <ele>2248</ele>
        <time>2021-08-12T08:33:15.393Z</time>
      </trkpt>
      <trkpt lat="46.87078" lon="8.47021">
        <ele>2248</ele>
        <time>2021-08-12T08:33:16.392Z</time>
      </trkpt>
      <trkpt lat="46.87077" lon="8.47021">
        <ele>2248</ele>
        <time>2021-08-12T08:33:17.393Z</time>
      </trkpt>
      <trkpt lat="46.87076" lon="8.47021">
        <ele>2248</ele>
        <time>2021-08-12T08:33:18.392Z</time>
      </trkpt>
      <trkpt lat="46.87075" lon="8.47021">
        <ele>2248</ele>
        <time>2021-08-12T08:33:19.393Z</time>
      </trkpt>
      <trkpt lat="46.87074" lon="8.47021">
        <ele>2248</ele>
        <time>2021-08-12T08:33:20.393Z</time>
      </trkpt>
      <trkpt lat="46.87073" lon="8.47021">
        <ele>2248</ele>
        <time>2021-08-12T08:33:21.393Z</time>
      </trkpt>
      <trkpt lat="46.87072" lon="8.4702">
        <ele>2248</ele>
        <time>2021-08-12T08:33:22.393Z</time>
      </trkpt>
      <trkpt lat="46.87071" lon="8.4702">
        <ele>2249</ele>
        <time>2021-08-12T08:33:23.393Z</time>
      </trkpt>
      <trkpt lat="46.8707" lon="8.4702">
        <ele>2249</ele>
        <time>2021-08-12T08:33:24.392Z</time>
      </trkpt>
      <trkpt lat="46.87069" lon="8.4702">
        <ele>2249</ele>
        <time>2021-08-12T08:33:25.393Z</time>
      </trkpt>
      <trkpt lat="46.87068" lon="8.4702">
        <ele>2248</ele>
        <time>2021-08-12T08:33:26.393Z</time>
      </trkpt>
      <trkpt lat="46.87067" lon="8.47019">
        <ele>2248</ele>
        <time>2021-08-12T08:33:27.393Z</time>
      </trkpt>
      <trkpt lat="46.87066" lon="8.47019">
        <ele>2248</ele>
        <time>2021-08-12T08:33:28.393Z</time>
      </trkpt>
      <trkpt lat="46.87065" lon="8.47018">
        <ele>2248</ele>
        <time>2021-08-12T08:33:29.393Z</time>
      </trkpt>
      <trkpt lat="46.87065" lon="8.47017">
        <ele>2249</ele>
        <time>2021-08-12T08:33:30.393Z</time>
      </trkpt>
      <trkpt lat="46.87064" lon="8.47017">
        <ele>2249</ele>
        <time>2021-08-12T08:33:31.393Z</time>
      </trkpt>
      <trkpt lat="46.87064" lon="8.47017">
        <ele>2250</ele>
        <time>2021-08-12T08:33:32.393Z</time>
      </trkpt>
      <trkpt lat="46.87063" lon="8.47017">
        <ele>2250</ele>
        <time>2021-08-12T08:33:33.392Z</time>
      </trkpt>
      <trkpt lat="46.87062" lon="8.47018">
        <ele>2250</ele>
        <time>2021-08-12T08:33:34.392Z</time>
      </trkpt>
      <trkpt lat="46.87061" lon="8.47017">
        <ele>2251</ele>
        <time>2021-08-12T08:33:35.392Z</time>
      </trkpt>
      <trkpt lat="46.87061" lon="8.47017">
        <ele>2251</ele>
        <time>2021-08-12T08:33:36.393Z</time>
      </trkpt>
      <trkpt lat="46.8706" lon="8.47016">
        <ele>2250</ele>
        <time>2021-08-12T08:33:37.393Z</time>
      </trkpt>
      <trkpt lat="46.87059" lon="8.47016">
        <ele>2251</ele>
        <time>2021-08-12T08:33:38.392Z</time>
      </trkpt>
      <trkpt lat="46.87058" lon="8.47016">
        <ele>2251</ele>
        <time>2021-08-12T08:33:39.393Z</time>
      </trkpt>
      <trkpt lat="46.87057" lon="8.47016">
        <ele>2251</ele>
        <time>2021-08-12T08:33:40.392Z</time>
      </trkpt>
      <trkpt lat="46.87056" lon="8.47015">
        <ele>2251</ele>
        <time>2021-08-12T08:33:41.392Z</time>
      </trkpt>
      <trkpt lat="46.87055" lon="8.47015">
        <ele>2252</ele>
        <time>2021-08-12T08:33:42.393Z</time>
      </trkpt>
      <trkpt lat="46.87054" lon="8.47015">
        <ele>2252</ele>
        <time>2021-08-12T08:33:43.393Z</time>
      </trkpt>
      <trkpt lat="46.87053" lon="8.47015">
        <ele>2252</ele>
        <time>2021-08-12T08:33:44.393Z</time>
      </trkpt>
      <trkpt lat="46.87053" lon="8.47016">
        <ele>2252</ele>
        <time>2021-08-12T08:33:45.392Z</time>
      </trkpt>
      <trkpt lat="46.87052" lon="8.47016">
        <ele>2251</ele>
        <time>2021-08-12T08:33:46.393Z</time>
      </trkpt>
      <trkpt lat="46.87051" lon="8.47016">
        <ele>2250</ele>
        <time>2021-08-12T08:33:47.393Z</time>
      </trkpt>
      <trkpt lat="46.8705" lon="8.47016">
        <ele>2250</ele>
        <time>2021-08-12T08:33:48.392Z</time>
      </trkpt>
      <trkpt lat="46.8705" lon="8.47016">
        <ele>2250</ele>
        <time>2021-08-12T08:33:49.393Z</time>
      </trkpt>
      <trkpt lat="46.87049" lon="8.47016">
        <ele>2249</ele>
        <time>2021-08-12T08:33:50.392Z</time>
      </trkpt>
      <trkpt lat="46.87048" lon="8.47017">
        <ele>2249</ele>
        <time>2021-08-12T08:33:51.393Z</time>
      </trkpt>
      <trkpt lat="46.87047" lon="8.47016">
        <ele>2249</ele>
        <time>2021-08-12T08:33:52.393Z</time>
      </trkpt>
      <trkpt lat="46.87047" lon="8.47016">
        <ele>2249</ele>
        <time>2021-08-12T08:33:53.393Z</time>
      </trkpt>
      <trkpt lat="46.87046" lon="8.47016">
        <ele>2249</ele>
        <time>2021-08-12T08:33:54.393Z</time>
      </trkpt>
      <trkpt lat="46.87046" lon="8.47016">
        <ele>2249</ele>
        <time>2021-08-12T08:33:55.392Z</time>
      </trkpt>
      <trkpt lat="46.87046" lon="8.47016">
        <ele>2249</ele>
        <time>2021-08-12T08:33:56.392Z</time>
      </trkpt>
      <trkpt lat="46.87046" lon="8.47017">
        <ele>2250</ele>
        <time>2021-08-12T08:33:57.393Z</time>
      </trkpt>
      <trkpt lat="46.87046" lon="8.47018">
        <ele>2250</ele>
        <time>2021-08-12T08:33:58.393Z</time>
      </trkpt>
      <trkpt lat="46.87045" lon="8.47018">
        <ele>2251</ele>
        <time>2021-08-12T08:33:59.393Z</time>
      </trkpt>
      <trkpt lat="46.87044" lon="8.47018">
        <ele>2251</ele>
        <time>2021-08-12T08:34:00.393Z</time>
      </trkpt>
      <trkpt lat="46.87044" lon="8.47019">
        <ele>2251</ele>
        <time>2021-08-12T08:34:01.392Z</time>
      </trkpt>
      <trkpt lat="46.87044" lon="8.4702">
        <ele>2251</ele>
        <time>2021-08-12T08:34:02.393Z</time>
      </trkpt>
      <trkpt lat="46.87043" lon="8.47019">
        <ele>2251</ele>
        <time>2021-08-12T08:34:03.393Z</time>
      </trkpt>
      <trkpt lat="46.87042" lon="8.47019">
        <ele>2251</ele>
        <time>2021-08-12T08:34:04.393Z</time>
      </trkpt>
      <trkpt lat="46.8704" lon="8.4702">
        <ele>2250</ele>
        <time>2021-08-12T08:34:05.394Z</time>
      </trkpt>
      <trkpt lat="46.87039" lon="8.4702">
        <ele>2249</ele>
        <time>2021-08-12T08:34:06.394Z</time>
      </trkpt>
      <trkpt lat="46.87039" lon="8.4702">
        <ele>2249</ele>
        <time>2021-08-12T08:34:07.394Z</time>
      </trkpt>
      <trkpt lat="46.87039" lon="8.47019">
        <ele>2250</ele>
        <time>2021-08-12T08:34:08.394Z</time>
      </trkpt>
      <trkpt lat="46.87039" lon="8.47019">
        <ele>2250</ele>
        <time>2021-08-12T08:34:09.394Z</time>
      </trkpt>
      <trkpt lat="46.8704" lon="8.47021">
        <ele>2249</ele>
        <time>2021-08-12T08:34:10.394Z</time>
      </trkpt>
      <trkpt lat="46.87039" lon="8.47021">
        <ele>2249</ele>
        <time>2021-08-12T08:34:11.394Z</time>
      </trkpt>
      <trkpt lat="46.87038" lon="8.47021">
        <ele>2249</ele>
        <time>2021-08-12T08:34:12.395Z</time>
      </trkpt>
      <trkpt lat="46.87037" lon="8.47021">
        <ele>2249</ele>
        <time>2021-08-12T08:34:13.394Z</time>
      </trkpt>
      <trkpt lat="46.87036" lon="8.47021">
        <ele>2249</ele>
        <time>2021-08-12T08:34:14.394Z</time>
      </trkpt>
      <trkpt lat="46.87035" lon="8.4702">
        <ele>2249</ele>
        <time>2021-08-12T08:34:15.394Z</time>
      </trkpt>
      <trkpt lat="46.87034" lon="8.4702">
        <ele>2249</ele>
        <time>2021-08-12T08:34:16.395Z</time>
      </trkpt>
      <trkpt lat="46.87033" lon="8.47019">
        <ele>2250</ele>
        <time>2021-08-12T08:34:17.394Z</time>
      </trkpt>
      <trkpt lat="46.87033" lon="8.47019">
        <ele>2250</ele>
        <time>2021-08-12T08:34:18.395Z</time>
      </trkpt>
      <trkpt lat="46.87032" lon="8.47019">
        <ele>2250</ele>
        <time>2021-08-12T08:34:19.394Z</time>
      </trkpt>
      <trkpt lat="46.87032" lon="8.47019">
        <ele>2250</ele>
        <time>2021-08-12T08:34:20.394Z</time>
      </trkpt>
      <trkpt lat="46.87031" lon="8.4702">
        <ele>2250</ele>
        <time>2021-08-12T08:34:21.394Z</time>
      </trkpt>
      <trkpt lat="46.87031" lon="8.4702">
        <ele>2250</ele>
        <time>2021-08-12T08:34:22.394Z</time>
      </trkpt>
      <trkpt lat="46.8703" lon="8.4702">
        <ele>2250</ele>
        <time>2021-08-12T08:34:23.394Z</time>
      </trkpt>
      <trkpt lat="46.87029" lon="8.47019">
        <ele>2250</ele>
        <time>2021-08-12T08:34:24.395Z</time>
      </trkpt>
      <trkpt lat="46.87029" lon="8.47018">
        <ele>2250</ele>
        <time>2021-08-12T08:34:25.395Z</time>
      </trkpt>
      <trkpt lat="46.87028" lon="8.47019">
        <ele>2251</ele>
        <time>2021-08-12T08:34:26.394Z</time>
      </trkpt>
      <trkpt lat="46.87028" lon="8.47018">
        <ele>2251</ele>
        <time>2021-08-12T08:34:27.395Z</time>
      </trkpt>
      <trkpt lat="46.87027" lon="8.47018">
        <ele>2251</ele>
        <time>2021-08-12T08:34:28.395Z</time>
      </trkpt>
      <trkpt lat="46.87027" lon="8.47018">
        <ele>2251</ele>
        <time>2021-08-12T08:34:29.395Z</time>
      </trkpt>
      <trkpt lat="46.87026" lon="8.47018">
        <ele>2251</ele>
        <time>2021-08-12T08:34:30.394Z</time>
      </trkpt>
      <trkpt lat="46.87025" lon="8.47018">
        <ele>2252</ele>
        <time>2021-08-12T08:34:31.395Z</time>
      </trkpt>
      <trkpt lat="46.87024" lon="8.47018">
        <ele>2252</ele>
        <time>2021-08-12T08:34:32.395Z</time>
      </trkpt>
      <trkpt lat="46.87023" lon="8.47018">
        <ele>2252</ele>
        <time>2021-08-12T08:34:33.394Z</time>
      </trkpt>
      <trkpt lat="46.87023" lon="8.47018">
        <ele>2252</ele>
        <time>2021-08-12T08:34:34.395Z</time>
      </trkpt>
      <trkpt lat="46.87023" lon="8.47018">
        <ele>2252</ele>
        <time>2021-08-12T08:34:35.394Z</time>
      </trkpt>
      <trkpt lat="46.87022" lon="8.47018">
        <ele>2253</ele>
        <time>2021-08-12T08:34:36.395Z</time>
      </trkpt>
      <trkpt lat="46.87022" lon="8.47018">
        <ele>2252</ele>
        <time>2021-08-12T08:34:37.394Z</time>
      </trkpt>
      <trkpt lat="46.87021" lon="8.47018">
        <ele>2253</ele>
        <time>2021-08-12T08:34:38.395Z</time>
      </trkpt>
      <trkpt lat="46.8702" lon="8.47018">
        <ele>2253</ele>
        <time>2021-08-12T08:34:39.395Z</time>
      </trkpt>
      <trkpt lat="46.87019" lon="8.47017">
        <ele>2253</ele>
        <time>2021-08-12T08:34:40.395Z</time>
      </trkpt>
      <trkpt lat="46.87018" lon="8.47017">
        <ele>2253</ele>
        <time>2021-08-12T08:34:41.395Z</time>
      </trkpt>
      <trkpt lat="46.87018" lon="8.47017">
        <ele>2253</ele>
        <time>2021-08-12T08:34:42.395Z</time>
      </trkpt>
      <trkpt lat="46.87017" lon="8.47017">
        <ele>2252</ele>
        <time>2021-08-12T08:34:43.395Z</time>
      </trkpt>
      <trkpt lat="46.87016" lon="8.47017">
        <ele>2252</ele>
        <time>2021-08-12T08:34:44.394Z</time>
      </trkpt>
      <trkpt lat="46.87016" lon="8.47017">
        <ele>2252</ele>
        <time>2021-08-12T08:34:45.394Z</time>
      </trkpt>
      <trkpt lat="46.87015" lon="8.47017">
        <ele>2253</ele>
        <time>2021-08-12T08:34:46.394Z</time>
      </trkpt>
      <trkpt lat="46.87015" lon="8.47017">
        <ele>2253</ele>
        <time>2021-08-12T08:34:47.395Z</time>
      </trkpt>
      <trkpt lat="46.87014" lon="8.47017">
        <ele>2253</ele>
        <time>2021-08-12T08:34:48.394Z</time>
      </trkpt>
      <trkpt lat="46.87014" lon="8.47016">
        <ele>2253</ele>
        <time>2021-08-12T08:34:49.395Z</time>
      </trkpt>
      <trkpt lat="46.87013" lon="8.47016">
        <ele>2253</ele>
        <time>2021-08-12T08:34:50.394Z</time>
      </trkpt>
      <trkpt lat="46.87013" lon="8.47015">
        <ele>2254</ele>
        <time>2021-08-12T08:34:51.395Z</time>
      </trkpt>
      <trkpt lat="46.87012" lon="8.47015">
        <ele>2254</ele>
        <time>2021-08-12T08:34:52.395Z</time>
      </trkpt>
      <trkpt lat="46.87012" lon="8.47015">
        <ele>2254</ele>
        <time>2021-08-12T08:34:53.395Z</time>
      </trkpt>
      <trkpt lat="46.87011" lon="8.47015">
        <ele>2259</ele>
        <time>2021-08-12T08:34:54.395Z</time>
      </trkpt>
      <trkpt lat="46.8701" lon="8.47015">
        <ele>2259</ele>
        <time>2021-08-12T08:34:55.395Z</time>
      </trkpt>
      <trkpt lat="46.87009" lon="8.47015">
        <ele>2259</ele>
        <time>2021-08-12T08:34:56.395Z</time>
      </trkpt>
      <trkpt lat="46.87009" lon="8.47015">
        <ele>2259</ele>
        <time>2021-08-12T08:34:57.395Z</time>
      </trkpt>
      <trkpt lat="46.87008" lon="8.47014">
        <ele>2259</ele>
        <time>2021-08-12T08:34:58.395Z</time>
      </trkpt>
      <trkpt lat="46.87008" lon="8.47014">
        <ele>2259</ele>
        <time>2021-08-12T08:34:59.395Z</time>
      </trkpt>
      <trkpt lat="46.87007" lon="8.47014">
        <ele>2259</ele>
        <time>2021-08-12T08:35:00.395Z</time>
      </trkpt>
      <trkpt lat="46.87007" lon="8.47015">
        <ele>2259</ele>
        <time>2021-08-12T08:35:01.395Z</time>
      </trkpt>
      <trkpt lat="46.87007" lon="8.47015">
        <ele>2259</ele>
        <time>2021-08-12T08:35:02.395Z</time>
      </trkpt>
      <trkpt lat="46.87006" lon="8.47016">
        <ele>2258</ele>
        <time>2021-08-12T08:35:03.395Z</time>
      </trkpt>
      <trkpt lat="46.87006" lon="8.47016">
        <ele>2258</ele>
        <time>2021-08-12T08:35:04.395Z</time>
      </trkpt>
      <trkpt lat="46.87005" lon="8.47017">
        <ele>2254</ele>
        <time>2021-08-12T08:35:05.396Z</time>
      </trkpt>
      <trkpt lat="46.87005" lon="8.47016">
        <ele>2254</ele>
        <time>2021-08-12T08:35:06.396Z</time>
      </trkpt>
      <trkpt lat="46.87004" lon="8.47017">
        <ele>2253</ele>
        <time>2021-08-12T08:35:07.395Z</time>
      </trkpt>
      <trkpt lat="46.87004" lon="8.47017">
        <ele>2253</ele>
        <time>2021-08-12T08:35:08.395Z</time>
      </trkpt>
      <trkpt lat="46.87004" lon="8.47017">
        <ele>2253</ele>
        <time>2021-08-12T08:35:09.396Z</time>
      </trkpt>
      <trkpt lat="46.87004" lon="8.47017">
        <ele>2253</ele>
        <time>2021-08-12T08:35:10.396Z</time>
      </trkpt>
      <trkpt lat="46.87003" lon="8.47016">
        <ele>2253</ele>
        <time>2021-08-12T08:35:11.395Z</time>
      </trkpt>
      <trkpt lat="46.87003" lon="8.47016">
        <ele>2252</ele>
        <time>2021-08-12T08:35:12.396Z</time>
      </trkpt>
      <trkpt lat="46.87003" lon="8.47016">
        <ele>2252</ele>
        <time>2021-08-12T08:35:13.396Z</time>
      </trkpt>
      <trkpt lat="46.87003" lon="8.47017">
        <ele>2253</ele>
        <time>2021-08-12T08:35:14.396Z</time>
      </trkpt>
      <trkpt lat="46.87007" lon="8.47024">
        <ele>2253</ele>
        <time>2021-08-12T08:35:15.397Z</time>
      </trkpt>
      <trkpt lat="46.87006" lon="8.47027">
        <ele>2250</ele>
        <time>2021-08-12T08:35:16.396Z</time>
      </trkpt>
      <trkpt lat="46.87007" lon="8.47026">
        <ele>2250</ele>
        <time>2021-08-12T08:35:17.397Z</time>
      </trkpt>
      <trkpt lat="46.87007" lon="8.47026">
        <ele>2250</ele>
        <time>2021-08-12T08:35:18.396Z</time>
      </trkpt>
      <trkpt lat="46.87007" lon="8.47024">
        <ele>2251</ele>
        <time>2021-08-12T08:35:19.398Z</time>
      </trkpt>
      <trkpt lat="46.87008" lon="8.47024">
        <ele>2252</ele>
        <time>2021-08-12T08:35:20.398Z</time>
      </trkpt>
      <trkpt lat="46.87008" lon="8.47024">
        <ele>2252</ele>
        <time>2021-08-12T08:35:21.397Z</time>
      </trkpt>
      <trkpt lat="46.87008" lon="8.47024">
        <ele>2253</ele>
        <time>2021-08-12T08:35:22.397Z</time>
      </trkpt>
      <trkpt lat="46.87008" lon="8.47024">
        <ele>2253</ele>
        <time>2021-08-12T08:35:23.398Z</time>
      </trkpt>
      <trkpt lat="46.87008" lon="8.47024">
        <ele>2253</ele>
        <time>2021-08-12T08:35:24.398Z</time>
      </trkpt>
      <trkpt lat="46.87009" lon="8.47024">
        <ele>2252</ele>
        <time>2021-08-12T08:35:25.398Z</time>
      </trkpt>
      <trkpt lat="46.8701" lon="8.47024">
        <ele>2252</ele>
        <time>2021-08-12T08:35:26.397Z</time>
      </trkpt>
      <trkpt lat="46.8701" lon="8.47025">
        <ele>2252</ele>
        <time>2021-08-12T08:35:27.397Z</time>
      </trkpt>
      <trkpt lat="46.87011" lon="8.47025">
        <ele>2252</ele>
        <time>2021-08-12T08:35:28.397Z</time>
      </trkpt>
      <trkpt lat="46.87011" lon="8.47023">
        <ele>2252</ele>
        <time>2021-08-12T08:35:29.398Z</time>
      </trkpt>
      <trkpt lat="46.87012" lon="8.47022">
        <ele>2253</ele>
        <time>2021-08-12T08:35:30.398Z</time>
      </trkpt>
      <trkpt lat="46.87011" lon="8.47021">
        <ele>2251</ele>
        <time>2021-08-12T08:35:31.398Z</time>
      </trkpt>
      <trkpt lat="46.87011" lon="8.47022">
        <ele>2249</ele>
        <time>2021-08-12T08:35:32.398Z</time>
      </trkpt>
      <trkpt lat="46.87012" lon="8.47022">
        <ele>2247</ele>
        <time>2021-08-12T08:35:33.398Z</time>
      </trkpt>
      <trkpt lat="46.87012" lon="8.47022">
        <ele>2243</ele>
        <time>2021-08-12T08:35:34.399Z</time>
      </trkpt>
      <trkpt lat="46.87012" lon="8.47022">
        <ele>2243</ele>
        <time>2021-08-12T08:35:35.400Z</time>
      </trkpt>
      <trkpt lat="46.87013" lon="8.47022">
        <ele>2243</ele>
        <time>2021-08-12T08:35:36.399Z</time>
      </trkpt>
      <trkpt lat="46.87013" lon="8.47022">
        <ele>2244</ele>
        <time>2021-08-12T08:35:37.400Z</time>
      </trkpt>
      <trkpt lat="46.87013" lon="8.47023">
        <ele>2244</ele>
        <time>2021-08-12T08:35:38.400Z</time>
      </trkpt>
      <trkpt lat="46.87013" lon="8.47023">
        <ele>2245</ele>
        <time>2021-08-12T08:35:39.399Z</time>
      </trkpt>
      <trkpt lat="46.87013" lon="8.47023">
        <ele>2245</ele>
        <time>2021-08-12T08:35:40.400Z</time>
      </trkpt>
      <trkpt lat="46.87014" lon="8.47023">
        <ele>2246</ele>
        <time>2021-08-12T08:35:41.400Z</time>
      </trkpt>
      <trkpt lat="46.87014" lon="8.47023">
        <ele>2246</ele>
        <time>2021-08-12T08:35:42.400Z</time>
      </trkpt>
      <trkpt lat="46.87015" lon="8.47023">
        <ele>2246</ele>
        <time>2021-08-12T08:35:43.400Z</time>
      </trkpt>
      <trkpt lat="46.87014" lon="8.47024">
        <ele>2247</ele>
        <time>2021-08-12T08:35:44.400Z</time>
      </trkpt>
      <trkpt lat="46.87014" lon="8.47024">
        <ele>2247</ele>
        <time>2021-08-12T08:35:45.399Z</time>
      </trkpt>
      <trkpt lat="46.87014" lon="8.47025">
        <ele>2248</ele>
        <time>2021-08-12T08:35:46.400Z</time>
      </trkpt>
      <trkpt lat="46.87014" lon="8.47025">
        <ele>2248</ele>
        <time>2021-08-12T08:35:47.399Z</time>
      </trkpt>
      <trkpt lat="46.87014" lon="8.47026">
        <ele>2249</ele>
        <time>2021-08-12T08:35:48.400Z</time>
      </trkpt>
      <trkpt lat="46.87015" lon="8.47026">
        <ele>2250</ele>
        <time>2021-08-12T08:35:49.400Z</time>
      </trkpt>
      <trkpt lat="46.87015" lon="8.47027">
        <ele>2251</ele>
        <time>2021-08-12T08:35:50.400Z</time>
      </trkpt>
      <trkpt lat="46.87015" lon="8.47028">
        <ele>2251</ele>
        <time>2021-08-12T08:35:51.400Z</time>
      </trkpt>
      <trkpt lat="46.87015" lon="8.47028">
        <ele>2252</ele>
        <time>2021-08-12T08:35:52.400Z</time>
      </trkpt>
      <trkpt lat="46.87015" lon="8.47029">
        <ele>2252</ele>
        <time>2021-08-12T08:35:53.400Z</time>
      </trkpt>
      <trkpt lat="46.87015" lon="8.4703">
        <ele>2253</ele>
        <time>2021-08-12T08:35:54.400Z</time>
      </trkpt>
      <trkpt lat="46.87015" lon="8.47031">
        <ele>2253</ele>
        <time>2021-08-12T08:35:55.400Z</time>
      </trkpt>
      <trkpt lat="46.87016" lon="8.47028">
        <ele>2250</ele>
        <time>2021-08-12T08:35:56.400Z</time>
      </trkpt>
      <trkpt lat="46.87016" lon="8.47027">
        <ele>2251</ele>
        <time>2021-08-12T08:35:57.400Z</time>
      </trkpt>
      <trkpt lat="46.87017" lon="8.47027">
        <ele>2251</ele>
        <time>2021-08-12T08:35:58.400Z</time>
      </trkpt>
      <trkpt lat="46.87017" lon="8.47028">
        <ele>2252</ele>
        <time>2021-08-12T08:35:59.400Z</time>
      </trkpt>
      <trkpt lat="46.87017" lon="8.47028">
        <ele>2254</ele>
        <time>2021-08-12T08:36:00.399Z</time>
      </trkpt>
      <trkpt lat="46.87018" lon="8.47031">
        <ele>2250</ele>
        <time>2021-08-12T08:36:01.400Z</time>
      </trkpt>
      <trkpt lat="46.87018" lon="8.47031">
        <ele>2250</ele>
        <time>2021-08-12T08:36:02.400Z</time>
      </trkpt>
      <trkpt lat="46.87019" lon="8.47031">
        <ele>2249</ele>
        <time>2021-08-12T08:36:03.401Z</time>
      </trkpt>
      <trkpt lat="46.87019" lon="8.47032">
        <ele>2249</ele>
        <time>2021-08-12T08:36:04.401Z</time>
      </trkpt>
      <trkpt lat="46.87019" lon="8.47032">
        <ele>2249</ele>
        <time>2021-08-12T08:36:05.400Z</time>
      </trkpt>
      <trkpt lat="46.87019" lon="8.47032">
        <ele>2248</ele>
        <time>2021-08-12T08:36:06.400Z</time>
      </trkpt>
      <trkpt lat="46.87019" lon="8.47033">
        <ele>2248</ele>
        <time>2021-08-12T08:36:07.400Z</time>
      </trkpt>
      <trkpt lat="46.87019" lon="8.47033">
        <ele>2248</ele>
        <time>2021-08-12T08:36:08.400Z</time>
      </trkpt>
      <trkpt lat="46.8702" lon="8.47034">
        <ele>2247</ele>
        <time>2021-08-12T08:36:09.400Z</time>
      </trkpt>
      <trkpt lat="46.8702" lon="8.47034">
        <ele>2247</ele>
        <time>2021-08-12T08:36:10.400Z</time>
      </trkpt>
      <trkpt lat="46.87019" lon="8.4703">
        <ele>2248</ele>
        <time>2021-08-12T08:36:11.401Z</time>
      </trkpt>
      <trkpt lat="46.87019" lon="8.47026">
        <ele>2250</ele>
        <time>2021-08-12T08:36:12.401Z</time>
      </trkpt>
      <trkpt lat="46.87017" lon="8.47026">
        <ele>2250</ele>
        <time>2021-08-12T08:36:13.401Z</time>
      </trkpt>
      <trkpt lat="46.87016" lon="8.47026">
        <ele>2250</ele>
        <time>2021-08-12T08:36:14.401Z</time>
      </trkpt>
      <trkpt lat="46.87016" lon="8.47025">
        <ele>2250</ele>
        <time>2021-08-12T08:36:15.400Z</time>
      </trkpt>
      <trkpt lat="46.87016" lon="8.47026">
        <ele>2250</ele>
        <time>2021-08-12T08:36:16.401Z</time>
      </trkpt>
      <trkpt lat="46.87015" lon="8.47025">
        <ele>2250</ele>
        <time>2021-08-12T08:36:17.401Z</time>
      </trkpt>
      <trkpt lat="46.87016" lon="8.47026">
        <ele>2250</ele>
        <time>2021-08-12T08:36:18.400Z</time>
      </trkpt>
      <trkpt lat="46.87015" lon="8.47026">
        <ele>2249</ele>
        <time>2021-08-12T08:36:19.401Z</time>
      </trkpt>
      <trkpt lat="46.87015" lon="8.47026">
        <ele>2249</ele>
        <time>2021-08-12T08:36:20.401Z</time>
      </trkpt>
      <trkpt lat="46.87014" lon="8.47025">
        <ele>2248</ele>
        <time>2021-08-12T08:36:21.401Z</time>
      </trkpt>
      <trkpt lat="46.87013" lon="8.47026">
        <ele>2248</ele>
        <time>2021-08-12T08:36:22.401Z</time>
      </trkpt>
      <trkpt lat="46.87013" lon="8.47025">
        <ele>2248</ele>
        <time>2021-08-12T08:36:23.401Z</time>
      </trkpt>
      <trkpt lat="46.87012" lon="8.47026">
        <ele>2247</ele>
        <time>2021-08-12T08:36:24.401Z</time>
      </trkpt>
      <trkpt lat="46.87011" lon="8.47026">
        <ele>2247</ele>
        <time>2021-08-12T08:36:25.400Z</time>
      </trkpt>
      <trkpt lat="46.87011" lon="8.47026">
        <ele>2248</ele>
        <time>2021-08-12T08:36:26.400Z</time>
      </trkpt>
      <trkpt lat="46.8701" lon="8.47026">
        <ele>2248</ele>
        <time>2021-08-12T08:36:27.401Z</time>
      </trkpt>
      <trkpt lat="46.8701" lon="8.47026">
        <ele>2248</ele>
        <time>2021-08-12T08:36:28.401Z</time>
      </trkpt>
      <trkpt lat="46.87009" lon="8.47026">
        <ele>2248</ele>
        <time>2021-08-12T08:36:29.401Z</time>
      </trkpt>
      <trkpt lat="46.87008" lon="8.47027">
        <ele>2248</ele>
        <time>2021-08-12T08:36:30.400Z</time>
      </trkpt>
      <trkpt lat="46.87008" lon="8.47027">
        <ele>2248</ele>
        <time>2021-08-12T08:36:31.400Z</time>
      </trkpt>
      <trkpt lat="46.87007" lon="8.47027">
        <ele>2247</ele>
        <time>2021-08-12T08:36:32.400Z</time>
      </trkpt>
      <trkpt lat="46.87006" lon="8.47026">
        <ele>2247</ele>
        <time>2021-08-12T08:36:33.401Z</time>
      </trkpt>
      <trkpt lat="46.87006" lon="8.47026">
        <ele>2247</ele>
        <time>2021-08-12T08:36:34.401Z</time>
      </trkpt>
      <trkpt lat="46.87005" lon="8.47026">
        <ele>2247</ele>
        <time>2021-08-12T08:36:35.401Z</time>
      </trkpt>
      <trkpt lat="46.87005" lon="8.47026">
        <ele>2248</ele>
        <time>2021-08-12T08:36:36.401Z</time>
      </trkpt>
      <trkpt lat="46.87004" lon="8.47026">
        <ele>2248</ele>
        <time>2021-08-12T08:36:37.401Z</time>
      </trkpt>
      <trkpt lat="46.87003" lon="8.47026">
        <ele>2248</ele>
        <time>2021-08-12T08:36:38.401Z</time>
      </trkpt>
      <trkpt lat="46.87003" lon="8.47026">
        <ele>2248</ele>
        <time>2021-08-12T08:36:39.401Z</time>
      </trkpt>
      <trkpt lat="46.87002" lon="8.47026">
        <ele>2248</ele>
        <time>2021-08-12T08:36:40.400Z</time>
      </trkpt>
      <trkpt lat="46.87002" lon="8.47026">
        <ele>2248</ele>
        <time>2021-08-12T08:36:41.401Z</time>
      </trkpt>
      <trkpt lat="46.87001" lon="8.47027">
        <ele>2248</ele>
        <time>2021-08-12T08:36:42.400Z</time>
      </trkpt>
      <trkpt lat="46.87001" lon="8.47027">
        <ele>2248</ele>
        <time>2021-08-12T08:36:43.401Z</time>
      </trkpt>
      <trkpt lat="46.87001" lon="8.47027">
        <ele>2249</ele>
        <time>2021-08-12T08:36:44.401Z</time>
      </trkpt>
      <trkpt lat="46.87" lon="8.47027">
        <ele>2249</ele>
        <time>2021-08-12T08:36:45.401Z</time>
      </trkpt>
      <trkpt lat="46.87" lon="8.47027">
        <ele>2249</ele>
        <time>2021-08-12T08:36:46.400Z</time>
      </trkpt>
      <trkpt lat="46.86999" lon="8.47028">
        <ele>2254</ele>
        <time>2021-08-12T08:36:47.402Z</time>
      </trkpt>
      <trkpt lat="46.86999" lon="8.47028">
        <ele>2254</ele>
        <time>2021-08-12T08:36:48.402Z</time>
      </trkpt>
      <trkpt lat="46.86998" lon="8.47028">
        <ele>2254</ele>
        <time>2021-08-12T08:36:49.401Z</time>
      </trkpt>
      <trkpt lat="46.86998" lon="8.47029">
        <ele>2254</ele>
        <time>2021-08-12T08:36:50.401Z</time>
      </trkpt>
      <trkpt lat="46.86998" lon="8.47029">
        <ele>2254</ele>
        <time>2021-08-12T08:36:51.402Z</time>
      </trkpt>
      <trkpt lat="46.86998" lon="8.4703">
        <ele>2253</ele>
        <time>2021-08-12T08:36:52.401Z</time>
      </trkpt>
      <trkpt lat="46.86997" lon="8.47031">
        <ele>2254</ele>
        <time>2021-08-12T08:36:53.402Z</time>
      </trkpt>
      <trkpt lat="46.86996" lon="8.47032">
        <ele>2254</ele>
        <time>2021-08-12T08:36:54.402Z</time>
      </trkpt>
      <trkpt lat="46.86996" lon="8.47032">
        <ele>2254</ele>
        <time>2021-08-12T08:36:55.401Z</time>
      </trkpt>
      <trkpt lat="46.86998" lon="8.47031">
        <ele>2249</ele>
        <time>2021-08-12T08:36:56.402Z</time>
      </trkpt>
      <trkpt lat="46.86998" lon="8.47032">
        <ele>2248</ele>
        <time>2021-08-12T08:36:57.401Z</time>
      </trkpt>
      <trkpt lat="46.86999" lon="8.47032">
        <ele>2248</ele>
        <time>2021-08-12T08:36:58.402Z</time>
      </trkpt>
      <trkpt lat="46.86999" lon="8.47032">
        <ele>2248</ele>
        <time>2021-08-12T08:36:59.401Z</time>
      </trkpt>
      <trkpt lat="46.86999" lon="8.47031">
        <ele>2248</ele>
        <time>2021-08-12T08:37:00.401Z</time>
      </trkpt>
      <trkpt lat="46.87" lon="8.47031">
        <ele>2248</ele>
        <time>2021-08-12T08:37:01.401Z</time>
      </trkpt>
      <trkpt lat="46.87" lon="8.47036">
        <ele>2246</ele>
        <time>2021-08-12T08:37:02.403Z</time>
      </trkpt>
      <trkpt lat="46.87" lon="8.47036">
        <ele>2246</ele>
        <time>2021-08-12T08:37:03.402Z</time>
      </trkpt>
      <trkpt lat="46.87" lon="8.47037">
        <ele>2246</ele>
        <time>2021-08-12T08:37:04.402Z</time>
      </trkpt>
      <trkpt lat="46.87" lon="8.47038">
        <ele>2246</ele>
        <time>2021-08-12T08:37:05.403Z</time>
      </trkpt>
      <trkpt lat="46.86999" lon="8.47039">
        <ele>2246</ele>
        <time>2021-08-12T08:37:06.403Z</time>
      </trkpt>
      <trkpt lat="46.87" lon="8.47039">
        <ele>2246</ele>
        <time>2021-08-12T08:37:07.403Z</time>
      </trkpt>
      <trkpt lat="46.87" lon="8.47039">
        <ele>2246</ele>
        <time>2021-08-12T08:37:08.403Z</time>
      </trkpt>
      <trkpt lat="46.87001" lon="8.47039">
        <ele>2246</ele>
        <time>2021-08-12T08:37:09.402Z</time>
      </trkpt>
      <trkpt lat="46.87001" lon="8.47039">
        <ele>2245</ele>
        <time>2021-08-12T08:37:10.404Z</time>
      </trkpt>
      <trkpt lat="46.87001" lon="8.47038">
        <ele>2245</ele>
        <time>2021-08-12T08:37:11.404Z</time>
      </trkpt>
      <trkpt lat="46.87001" lon="8.47038">
        <ele>2245</ele>
        <time>2021-08-12T08:37:12.403Z</time>
      </trkpt>
      <trkpt lat="46.87001" lon="8.47038">
        <ele>2245</ele>
        <time>2021-08-12T08:37:13.404Z</time>
      </trkpt>
      <trkpt lat="46.87" lon="8.47038">
        <ele>2245</ele>
        <time>2021-08-12T08:37:14.403Z</time>
      </trkpt>
      <trkpt lat="46.87" lon="8.47038">
        <ele>2245</ele>
        <time>2021-08-12T08:37:15.403Z</time>
      </trkpt>
      <trkpt lat="46.87003" lon="8.4704">
        <ele>2246</ele>
        <time>2021-08-12T08:37:16.405Z</time>
      </trkpt>
      <trkpt lat="46.87003" lon="8.4704">
        <ele>2246</ele>
        <time>2021-08-12T08:37:17.405Z</time>
      </trkpt>
      <trkpt lat="46.87003" lon="8.47041">
        <ele>2246</ele>
        <time>2021-08-12T08:37:18.404Z</time>
      </trkpt>
      <trkpt lat="46.87003" lon="8.47041">
        <ele>2246</ele>
        <time>2021-08-12T08:37:19.405Z</time>
      </trkpt>
      <trkpt lat="46.87004" lon="8.47042">
        <ele>2246</ele>
        <time>2021-08-12T08:37:20.405Z</time>
      </trkpt>
      <trkpt lat="46.87004" lon="8.47042">
        <ele>2246</ele>
        <time>2021-08-12T08:37:21.404Z</time>
      </trkpt>
      <trkpt lat="46.87005" lon="8.47043">
        <ele>2246</ele>
        <time>2021-08-12T08:37:22.404Z</time>
      </trkpt>
      <trkpt lat="46.87005" lon="8.47043">
        <ele>2246</ele>
        <time>2021-08-12T08:37:23.404Z</time>
      </trkpt>
      <trkpt lat="46.87006" lon="8.47043">
        <ele>2246</ele>
        <time>2021-08-12T08:37:24.404Z</time>
      </trkpt>
      <trkpt lat="46.87006" lon="8.47043">
        <ele>2246</ele>
        <time>2021-08-12T08:37:25.404Z</time>
      </trkpt>
      <trkpt lat="46.87006" lon="8.47043">
        <ele>2245</ele>
        <time>2021-08-12T08:37:26.404Z</time>
      </trkpt>
      <trkpt lat="46.87006" lon="8.47044">
        <ele>2245</ele>
        <time>2021-08-12T08:37:27.404Z</time>
      </trkpt>
      <trkpt lat="46.87006" lon="8.47044">
        <ele>2245</ele>
        <time>2021-08-12T08:37:28.404Z</time>
      </trkpt>
      <trkpt lat="46.87007" lon="8.47041">
        <ele>2244</ele>
        <time>2021-08-12T08:37:29.405Z</time>
      </trkpt>
      <trkpt lat="46.87007" lon="8.4704">
        <ele>2245</ele>
        <time>2021-08-12T08:37:30.405Z</time>
      </trkpt>
      <trkpt lat="46.87008" lon="8.47037">
        <ele>2246</ele>
        <time>2021-08-12T08:37:31.404Z</time>
      </trkpt>
      <trkpt lat="46.87008" lon="8.47037">
        <ele>2246</ele>
        <time>2021-08-12T08:37:32.404Z</time>
      </trkpt>
      <trkpt lat="46.87008" lon="8.47039">
        <ele>2249</ele>
        <time>2021-08-12T08:37:33.405Z</time>
      </trkpt>
      <trkpt lat="46.87008" lon="8.4704">
        <ele>2245</ele>
        <time>2021-08-12T08:37:34.406Z</time>
      </trkpt>
      <trkpt lat="46.87008" lon="8.47041">
        <ele>2244</ele>
        <time>2021-08-12T08:37:35.406Z</time>
      </trkpt>
      <trkpt lat="46.87008" lon="8.4704">
        <ele>2244</ele>
        <time>2021-08-12T08:37:36.405Z</time>
      </trkpt>
      <trkpt lat="46.87007" lon="8.4704">
        <ele>2242</ele>
        <time>2021-08-12T08:37:37.405Z</time>
      </trkpt>
      <trkpt lat="46.87007" lon="8.4704">
        <ele>2242</ele>
        <time>2021-08-12T08:37:38.405Z</time>
      </trkpt>
      <trkpt lat="46.87007" lon="8.4704">
        <ele>2243</ele>
        <time>2021-08-12T08:37:39.405Z</time>
      </trkpt>
      <trkpt lat="46.87006" lon="8.4704">
        <ele>2243</ele>
        <time>2021-08-12T08:37:40.405Z</time>
      </trkpt>
      <trkpt lat="46.87006" lon="8.47041">
        <ele>2244</ele>
        <time>2021-08-12T08:37:41.406Z</time>
      </trkpt>
      <trkpt lat="46.87005" lon="8.47041">
        <ele>2244</ele>
        <time>2021-08-12T08:37:42.405Z</time>
      </trkpt>
      <trkpt lat="46.87004" lon="8.47042">
        <ele>2245</ele>
        <time>2021-08-12T08:37:43.405Z</time>
      </trkpt>
      <trkpt lat="46.87004" lon="8.47042">
        <ele>2245</ele>
        <time>2021-08-12T08:37:44.405Z</time>
      </trkpt>
      <trkpt lat="46.87003" lon="8.47043">
        <ele>2246</ele>
        <time>2021-08-12T08:37:45.405Z</time>
      </trkpt>
      <trkpt lat="46.87002" lon="8.47043">
        <ele>2246</ele>
        <time>2021-08-12T08:37:46.405Z</time>
      </trkpt>
      <trkpt lat="46.87002" lon="8.47044">
        <ele>2246</ele>
        <time>2021-08-12T08:37:47.405Z</time>
      </trkpt>
      <trkpt lat="46.87001" lon="8.47045">
        <ele>2246</ele>
        <time>2021-08-12T08:37:48.405Z</time>
      </trkpt>
      <trkpt lat="46.87" lon="8.47046">
        <ele>2246</ele>
        <time>2021-08-12T08:37:49.406Z</time>
      </trkpt>
      <trkpt lat="46.86999" lon="8.47047">
        <ele>2246</ele>
        <time>2021-08-12T08:37:50.406Z</time>
      </trkpt>
      <trkpt lat="46.86999" lon="8.47048">
        <ele>2246</ele>
        <time>2021-08-12T08:37:51.406Z</time>
      </trkpt>
      <trkpt lat="46.86998" lon="8.47049">
        <ele>2245</ele>
        <time>2021-08-12T08:37:52.406Z</time>
      </trkpt>
      <trkpt lat="46.86998" lon="8.4705">
        <ele>2245</ele>
        <time>2021-08-12T08:37:53.406Z</time>
      </trkpt>
      <trkpt lat="46.86997" lon="8.4705">
        <ele>2244</ele>
        <time>2021-08-12T08:37:54.405Z</time>
      </trkpt>
      <trkpt lat="46.86997" lon="8.47051">
        <ele>2244</ele>
        <time>2021-08-12T08:37:55.405Z</time>
      </trkpt>
      <trkpt lat="46.86996" lon="8.47051">
        <ele>2244</ele>
        <time>2021-08-12T08:37:56.406Z</time>
      </trkpt>
      <trkpt lat="46.86996" lon="8.47052">
        <ele>2244</ele>
        <time>2021-08-12T08:37:57.406Z</time>
      </trkpt>
      <trkpt lat="46.86995" lon="8.47052">
        <ele>2244</ele>
        <time>2021-08-12T08:37:58.406Z</time>
      </trkpt>
      <trkpt lat="46.86995" lon="8.47053">
        <ele>2245</ele>
        <time>2021-08-12T08:37:59.405Z</time>
      </trkpt>
      <trkpt lat="46.86994" lon="8.47054">
        <ele>2245</ele>
        <time>2021-08-12T08:38:00.406Z</time>
      </trkpt>
      <trkpt lat="46.86994" lon="8.47055">
        <ele>2244</ele>
        <time>2021-08-12T08:38:01.406Z</time>
      </trkpt>
      <trkpt lat="46.86993" lon="8.47056">
        <ele>2244</ele>
        <time>2021-08-12T08:38:02.406Z</time>
      </trkpt>
      <trkpt lat="46.86993" lon="8.47056">
        <ele>2244</ele>
        <time>2021-08-12T08:38:03.406Z</time>
      </trkpt>
      <trkpt lat="46.86993" lon="8.47057">
        <ele>2244</ele>
        <time>2021-08-12T08:38:04.406Z</time>
      </trkpt>
      <trkpt lat="46.86992" lon="8.47057">
        <ele>2244</ele>
        <time>2021-08-12T08:38:05.406Z</time>
      </trkpt>
      <trkpt lat="46.86992" lon="8.47058">
        <ele>2244</ele>
        <time>2021-08-12T08:38:06.406Z</time>
      </trkpt>
      <trkpt lat="46.86991" lon="8.47058">
        <ele>2243</ele>
        <time>2021-08-12T08:38:07.405Z</time>
      </trkpt>
      <trkpt lat="46.8699" lon="8.47058">
        <ele>2243</ele>
        <time>2021-08-12T08:38:08.405Z</time>
      </trkpt>
      <trkpt lat="46.86989" lon="8.47059">
        <ele>2242</ele>
        <time>2021-08-12T08:38:09.406Z</time>
      </trkpt>
      <trkpt lat="46.86989" lon="8.47059">
        <ele>2242</ele>
        <time>2021-08-12T08:38:10.405Z</time>
      </trkpt>
      <trkpt lat="46.86988" lon="8.4706">
        <ele>2242</ele>
        <time>2021-08-12T08:38:11.406Z</time>
      </trkpt>
      <trkpt lat="46.86987" lon="8.47061">
        <ele>2241</ele>
        <time>2021-08-12T08:38:12.406Z</time>
      </trkpt>
      <trkpt lat="46.86987" lon="8.47061">
        <ele>2241</ele>
        <time>2021-08-12T08:38:13.405Z</time>
      </trkpt>
      <trkpt lat="46.86987" lon="8.47063">
        <ele>2241</ele>
        <time>2021-08-12T08:38:14.406Z</time>
      </trkpt>
      <trkpt lat="46.86986" lon="8.47063">
        <ele>2240</ele>
        <time>2021-08-12T08:38:15.406Z</time>
      </trkpt>
      <trkpt lat="46.86986" lon="8.47064">
        <ele>2241</ele>
        <time>2021-08-12T08:38:16.406Z</time>
      </trkpt>
      <trkpt lat="46.86985" lon="8.47064">
        <ele>2241</ele>
        <time>2021-08-12T08:38:17.406Z</time>
      </trkpt>
      <trkpt lat="46.86985" lon="8.47065">
        <ele>2241</ele>
        <time>2021-08-12T08:38:18.406Z</time>
      </trkpt>
      <trkpt lat="46.86984" lon="8.47066">
        <ele>2242</ele>
        <time>2021-08-12T08:38:19.406Z</time>
      </trkpt>
      <trkpt lat="46.86984" lon="8.47067">
        <ele>2242</ele>
        <time>2021-08-12T08:38:20.406Z</time>
      </trkpt>
      <trkpt lat="46.86984" lon="8.47068">
        <ele>2243</ele>
        <time>2021-08-12T08:38:21.405Z</time>
      </trkpt>
      <trkpt lat="46.86984" lon="8.47069">
        <ele>2243</ele>
        <time>2021-08-12T08:38:22.405Z</time>
      </trkpt>
      <trkpt lat="46.86983" lon="8.47072">
        <ele>2244</ele>
        <time>2021-08-12T08:38:23.405Z</time>
      </trkpt>
      <trkpt lat="46.86982" lon="8.47073">
        <ele>2244</ele>
        <time>2021-08-12T08:38:24.406Z</time>
      </trkpt>
      <trkpt lat="46.86982" lon="8.47074">
        <ele>2244</ele>
        <time>2021-08-12T08:38:25.406Z</time>
      </trkpt>
      <trkpt lat="46.86982" lon="8.47074">
        <ele>2244</ele>
        <time>2021-08-12T08:38:26.406Z</time>
      </trkpt>
      <trkpt lat="46.86982" lon="8.47075">
        <ele>2244</ele>
        <time>2021-08-12T08:38:27.405Z</time>
      </trkpt>
      <trkpt lat="46.86981" lon="8.47076">
        <ele>2243</ele>
        <time>2021-08-12T08:38:28.406Z</time>
      </trkpt>
      <trkpt lat="46.86981" lon="8.47076">
        <ele>2243</ele>
        <time>2021-08-12T08:38:29.405Z</time>
      </trkpt>
      <trkpt lat="46.86981" lon="8.47077">
        <ele>2243</ele>
        <time>2021-08-12T08:38:30.405Z</time>
      </trkpt>
      <trkpt lat="46.86981" lon="8.47078">
        <ele>2243</ele>
        <time>2021-08-12T08:38:31.405Z</time>
      </trkpt>
      <trkpt lat="46.86981" lon="8.47079">
        <ele>2243</ele>
        <time>2021-08-12T08:38:32.406Z</time>
      </trkpt>
      <trkpt lat="46.8698" lon="8.47079">
        <ele>2243</ele>
        <time>2021-08-12T08:38:33.406Z</time>
      </trkpt>
      <trkpt lat="46.8698" lon="8.4708">
        <ele>2242</ele>
        <time>2021-08-12T08:38:34.406Z</time>
      </trkpt>
      <trkpt lat="46.8698" lon="8.4708">
        <ele>2242</ele>
        <time>2021-08-12T08:38:35.406Z</time>
      </trkpt>
      <trkpt lat="46.86979" lon="8.4708">
        <ele>2241</ele>
        <time>2021-08-12T08:38:36.406Z</time>
      </trkpt>
      <trkpt lat="46.86978" lon="8.47082">
        <ele>2241</ele>
        <time>2021-08-12T08:38:37.405Z</time>
      </trkpt>
      <trkpt lat="46.86978" lon="8.47084">
        <ele>2241</ele>
        <time>2021-08-12T08:38:38.406Z</time>
      </trkpt>
      <trkpt lat="46.86977" lon="8.47085">
        <ele>2241</ele>
        <time>2021-08-12T08:38:39.406Z</time>
      </trkpt>
      <trkpt lat="46.86977" lon="8.47086">
        <ele>2241</ele>
        <time>2021-08-12T08:38:40.406Z</time>
      </trkpt>
      <trkpt lat="46.86977" lon="8.47087">
        <ele>2241</ele>
        <time>2021-08-12T08:38:41.406Z</time>
      </trkpt>
      <trkpt lat="46.86977" lon="8.47088">
        <ele>2240</ele>
        <time>2021-08-12T08:38:42.405Z</time>
      </trkpt>
      <trkpt lat="46.86976" lon="8.47089">
        <ele>2240</ele>
        <time>2021-08-12T08:38:43.406Z</time>
      </trkpt>
      <trkpt lat="46.86976" lon="8.47091">
        <ele>2240</ele>
        <time>2021-08-12T08:38:44.406Z</time>
      </trkpt>
      <trkpt lat="46.86976" lon="8.47092">
        <ele>2239</ele>
        <time>2021-08-12T08:38:45.406Z</time>
      </trkpt>
      <trkpt lat="46.86975" lon="8.47093">
        <ele>2239</ele>
        <time>2021-08-12T08:38:46.406Z</time>
      </trkpt>
      <trkpt lat="46.86975" lon="8.47094">
        <ele>2239</ele>
        <time>2021-08-12T08:38:47.406Z</time>
      </trkpt>
      <trkpt lat="46.86975" lon="8.47095">
        <ele>2239</ele>
        <time>2021-08-12T08:38:48.406Z</time>
      </trkpt>
      <trkpt lat="46.86974" lon="8.47097">
        <ele>2239</ele>
        <time>2021-08-12T08:38:49.406Z</time>
      </trkpt>
      <trkpt lat="46.86974" lon="8.47098">
        <ele>2238</ele>
        <time>2021-08-12T08:38:50.406Z</time>
      </trkpt>
      <trkpt lat="46.86973" lon="8.47098">
        <ele>2237</ele>
        <time>2021-08-12T08:38:51.406Z</time>
      </trkpt>
      <trkpt lat="46.86973" lon="8.47099">
        <ele>2235</ele>
        <time>2021-08-12T08:38:52.405Z</time>
      </trkpt>
      <trkpt lat="46.86973" lon="8.471">
        <ele>2234</ele>
        <time>2021-08-12T08:38:53.405Z</time>
      </trkpt>
      <trkpt lat="46.86972" lon="8.47102">
        <ele>2233</ele>
        <time>2021-08-12T08:38:54.406Z</time>
      </trkpt>
      <trkpt lat="46.86972" lon="8.47103">
        <ele>2233</ele>
        <time>2021-08-12T08:38:55.405Z</time>
      </trkpt>
      <trkpt lat="46.86972" lon="8.47104">
        <ele>2232</ele>
        <time>2021-08-12T08:38:56.406Z</time>
      </trkpt>
      <trkpt lat="46.86971" lon="8.47106">
        <ele>2232</ele>
        <time>2021-08-12T08:38:57.406Z</time>
      </trkpt>
      <trkpt lat="46.86971" lon="8.47107">
        <ele>2232</ele>
        <time>2021-08-12T08:38:58.405Z</time>
      </trkpt>
      <trkpt lat="46.86971" lon="8.47108">
        <ele>2231</ele>
        <time>2021-08-12T08:38:59.406Z</time>
      </trkpt>
      <trkpt lat="46.86971" lon="8.47109">
        <ele>2231</ele>
        <time>2021-08-12T08:39:00.406Z</time>
      </trkpt>
      <trkpt lat="46.86971" lon="8.47111">
        <ele>2230</ele>
        <time>2021-08-12T08:39:01.406Z</time>
      </trkpt>
      <trkpt lat="46.86971" lon="8.47112">
        <ele>2230</ele>
        <time>2021-08-12T08:39:02.405Z</time>
      </trkpt>
      <trkpt lat="46.86971" lon="8.47113">
        <ele>2230</ele>
        <time>2021-08-12T08:39:03.406Z</time>
      </trkpt>
      <trkpt lat="46.86971" lon="8.47115">
        <ele>2230</ele>
        <time>2021-08-12T08:39:04.405Z</time>
      </trkpt>
      <trkpt lat="46.86971" lon="8.47115">
        <ele>2230</ele>
        <time>2021-08-12T08:39:05.406Z</time>
      </trkpt>
      <trkpt lat="46.86971" lon="8.47115">
        <ele>2230</ele>
        <time>2021-08-12T08:39:06.405Z</time>
      </trkpt>
      <trkpt lat="46.8697" lon="8.47115">
        <ele>2230</ele>
        <time>2021-08-12T08:39:07.406Z</time>
      </trkpt>
      <trkpt lat="46.8697" lon="8.47116">
        <ele>2231</ele>
        <time>2021-08-12T08:39:08.406Z</time>
      </trkpt>
      <trkpt lat="46.86969" lon="8.47116">
        <ele>2232</ele>
        <time>2021-08-12T08:39:09.405Z</time>
      </trkpt>
      <trkpt lat="46.86969" lon="8.47117">
        <ele>2232</ele>
        <time>2021-08-12T08:39:10.405Z</time>
      </trkpt>
      <trkpt lat="46.86968" lon="8.47119">
        <ele>2233</ele>
        <time>2021-08-12T08:39:11.405Z</time>
      </trkpt>
      <trkpt lat="46.86968" lon="8.4712">
        <ele>2233</ele>
        <time>2021-08-12T08:39:12.406Z</time>
      </trkpt>
      <trkpt lat="46.86968" lon="8.4712">
        <ele>2233</ele>
        <time>2021-08-12T08:39:13.406Z</time>
      </trkpt>
      <trkpt lat="46.86968" lon="8.4712">
        <ele>2232</ele>
        <time>2021-08-12T08:39:14.405Z</time>
      </trkpt>
      <trkpt lat="46.86968" lon="8.47121">
        <ele>2232</ele>
        <time>2021-08-12T08:39:15.406Z</time>
      </trkpt>
      <trkpt lat="46.86967" lon="8.47122">
        <ele>2232</ele>
        <time>2021-08-12T08:39:16.406Z</time>
      </trkpt>
      <trkpt lat="46.86967" lon="8.47123">
        <ele>2233</ele>
        <time>2021-08-12T08:39:17.407Z</time>
      </trkpt>
      <trkpt lat="46.86966" lon="8.47124">
        <ele>2233</ele>
        <time>2021-08-12T08:39:18.406Z</time>
      </trkpt>
      <trkpt lat="46.86966" lon="8.47124">
        <ele>2233</ele>
        <time>2021-08-12T08:39:19.406Z</time>
      </trkpt>
      <trkpt lat="46.86965" lon="8.47125">
        <ele>2233</ele>
        <time>2021-08-12T08:39:20.407Z</time>
      </trkpt>
      <trkpt lat="46.86965" lon="8.47126">
        <ele>2234</ele>
        <time>2021-08-12T08:39:21.407Z</time>
      </trkpt>
      <trkpt lat="46.86965" lon="8.47127">
        <ele>2234</ele>
        <time>2021-08-12T08:39:22.406Z</time>
      </trkpt>
      <trkpt lat="46.86964" lon="8.47128">
        <ele>2234</ele>
        <time>2021-08-12T08:39:23.406Z</time>
      </trkpt>
      <trkpt lat="46.86963" lon="8.47129">
        <ele>2234</ele>
        <time>2021-08-12T08:39:24.406Z</time>
      </trkpt>
      <trkpt lat="46.86962" lon="8.4713">
        <ele>2234</ele>
        <time>2021-08-12T08:39:25.407Z</time>
      </trkpt>
      <trkpt lat="46.86962" lon="8.47131">
        <ele>2234</ele>
        <time>2021-08-12T08:39:26.406Z</time>
      </trkpt>
      <trkpt lat="46.86961" lon="8.47131">
        <ele>2233</ele>
        <time>2021-08-12T08:39:27.406Z</time>
      </trkpt>
      <trkpt lat="46.86961" lon="8.47133">
        <ele>2232</ele>
        <time>2021-08-12T08:39:28.406Z</time>
      </trkpt>
      <trkpt lat="46.8696" lon="8.47134">
        <ele>2232</ele>
        <time>2021-08-12T08:39:29.407Z</time>
      </trkpt>
      <trkpt lat="46.8696" lon="8.47134">
        <ele>2231</ele>
        <time>2021-08-12T08:39:30.407Z</time>
      </trkpt>
      <trkpt lat="46.8696" lon="8.47135">
        <ele>2231</ele>
        <time>2021-08-12T08:39:31.406Z</time>
      </trkpt>
      <trkpt lat="46.86959" lon="8.47135">
        <ele>2231</ele>
        <time>2021-08-12T08:39:32.406Z</time>
      </trkpt>
      <trkpt lat="46.86958" lon="8.47136">
        <ele>2230</ele>
        <time>2021-08-12T08:39:33.406Z</time>
      </trkpt>
      <trkpt lat="46.86958" lon="8.47136">
        <ele>2230</ele>
        <time>2021-08-12T08:39:34.407Z</time>
      </trkpt>
      <trkpt lat="46.86958" lon="8.47137">
        <ele>2233</ele>
        <time>2021-08-12T08:39:35.408Z</time>
      </trkpt>
      <trkpt lat="46.86958" lon="8.47138">
        <ele>2233</ele>
        <time>2021-08-12T08:39:36.407Z</time>
      </trkpt>
      <trkpt lat="46.86957" lon="8.47138">
        <ele>2233</ele>
        <time>2021-08-12T08:39:37.407Z</time>
      </trkpt>
      <trkpt lat="46.86957" lon="8.47139">
        <ele>2233</ele>
        <time>2021-08-12T08:39:38.407Z</time>
      </trkpt>
      <trkpt lat="46.86957" lon="8.4714">
        <ele>2233</ele>
        <time>2021-08-12T08:39:39.407Z</time>
      </trkpt>
      <trkpt lat="46.86956" lon="8.4714">
        <ele>2233</ele>
        <time>2021-08-12T08:39:40.407Z</time>
      </trkpt>
      <trkpt lat="46.86956" lon="8.47141">
        <ele>2232</ele>
        <time>2021-08-12T08:39:41.407Z</time>
      </trkpt>
      <trkpt lat="46.86956" lon="8.47142">
        <ele>2231</ele>
        <time>2021-08-12T08:39:42.407Z</time>
      </trkpt>
      <trkpt lat="46.86956" lon="8.47142">
        <ele>2230</ele>
        <time>2021-08-12T08:39:43.407Z</time>
      </trkpt>
      <trkpt lat="46.86958" lon="8.47142">
        <ele>2226</ele>
        <time>2021-08-12T08:39:44.409Z</time>
      </trkpt>
      <trkpt lat="46.86958" lon="8.47141">
        <ele>2226</ele>
        <time>2021-08-12T08:39:45.409Z</time>
      </trkpt>
      <trkpt lat="46.86957" lon="8.47141">
        <ele>2227</ele>
        <time>2021-08-12T08:39:46.408Z</time>
      </trkpt>
      <trkpt lat="46.86957" lon="8.47141">
        <ele>2227</ele>
        <time>2021-08-12T08:39:47.408Z</time>
      </trkpt>
      <trkpt lat="46.86956" lon="8.47142">
        <ele>2227</ele>
        <time>2021-08-12T08:39:48.409Z</time>
      </trkpt>
      <trkpt lat="46.86955" lon="8.47142">
        <ele>2228</ele>
        <time>2021-08-12T08:39:49.408Z</time>
      </trkpt>
      <trkpt lat="46.86954" lon="8.47142">
        <ele>2228</ele>
        <time>2021-08-12T08:39:50.409Z</time>
      </trkpt>
      <trkpt lat="46.86952" lon="8.47142">
        <ele>2228</ele>
        <time>2021-08-12T08:39:51.409Z</time>
      </trkpt>
      <trkpt lat="46.86952" lon="8.47142">
        <ele>2228</ele>
        <time>2021-08-12T08:39:52.408Z</time>
      </trkpt>
      <trkpt lat="46.86951" lon="8.47143">
        <ele>2228</ele>
        <time>2021-08-12T08:39:53.409Z</time>
      </trkpt>
      <trkpt lat="46.8695" lon="8.47143">
        <ele>2229</ele>
        <time>2021-08-12T08:39:54.409Z</time>
      </trkpt>
      <trkpt lat="46.8695" lon="8.47144">
        <ele>2229</ele>
        <time>2021-08-12T08:39:55.409Z</time>
      </trkpt>
      <trkpt lat="46.86949" lon="8.47144">
        <ele>2228</ele>
        <time>2021-08-12T08:39:56.408Z</time>
      </trkpt>
      <trkpt lat="46.86949" lon="8.47144">
        <ele>2228</ele>
        <time>2021-08-12T08:39:57.409Z</time>
      </trkpt>
      <trkpt lat="46.86949" lon="8.47144">
        <ele>2228</ele>
        <time>2021-08-12T08:39:58.408Z</time>
      </trkpt>
      <trkpt lat="46.86949" lon="8.47145">
        <ele>2227</ele>
        <time>2021-08-12T08:39:59.409Z</time>
      </trkpt>
      <trkpt lat="46.86949" lon="8.47145">
        <ele>2227</ele>
        <time>2021-08-12T08:40:00.409Z</time>
      </trkpt>
      <trkpt lat="46.86948" lon="8.47145">
        <ele>2227</ele>
        <time>2021-08-12T08:40:01.408Z</time>
      </trkpt>
      <trkpt lat="46.86948" lon="8.47145">
        <ele>2227</ele>
        <time>2021-08-12T08:40:02.408Z</time>
      </trkpt>
      <trkpt lat="46.86948" lon="8.47145">
        <ele>2227</ele>
        <time>2021-08-12T08:40:03.408Z</time>
      </trkpt>
      <trkpt lat="46.86948" lon="8.47146">
        <ele>2226</ele>
        <time>2021-08-12T08:40:04.408Z</time>
      </trkpt>
      <trkpt lat="46.86948" lon="8.47147">
        <ele>2226</ele>
        <time>2021-08-12T08:40:05.409Z</time>
      </trkpt>
      <trkpt lat="46.86948" lon="8.47147">
        <ele>2226</ele>
        <time>2021-08-12T08:40:06.409Z</time>
      </trkpt>
      <trkpt lat="46.86947" lon="8.47149">
        <ele>2224</ele>
        <time>2021-08-12T08:40:07.410Z</time>
      </trkpt>
      <trkpt lat="46.86947" lon="8.47149">
        <ele>2224</ele>
        <time>2021-08-12T08:40:08.410Z</time>
      </trkpt>
      <trkpt lat="46.86947" lon="8.47151">
        <ele>2224</ele>
        <time>2021-08-12T08:40:09.409Z</time>
      </trkpt>
      <trkpt lat="46.86947" lon="8.47151">
        <ele>2224</ele>
        <time>2021-08-12T08:40:10.410Z</time>
      </trkpt>
      <trkpt lat="46.86947" lon="8.47152">
        <ele>2224</ele>
        <time>2021-08-12T08:40:11.410Z</time>
      </trkpt>
      <trkpt lat="46.86946" lon="8.47153">
        <ele>2224</ele>
        <time>2021-08-12T08:40:12.410Z</time>
      </trkpt>
      <trkpt lat="46.86946" lon="8.47153">
        <ele>2224</ele>
        <time>2021-08-12T08:40:13.410Z</time>
      </trkpt>
      <trkpt lat="46.86946" lon="8.47154">
        <ele>2224</ele>
        <time>2021-08-12T08:40:14.410Z</time>
      </trkpt>
      <trkpt lat="46.86946" lon="8.47155">
        <ele>2224</ele>
        <time>2021-08-12T08:40:15.410Z</time>
      </trkpt>
      <trkpt lat="46.86946" lon="8.47155">
        <ele>2225</ele>
        <time>2021-08-12T08:40:16.410Z</time>
      </trkpt>
      <trkpt lat="46.86946" lon="8.47156">
        <ele>2225</ele>
        <time>2021-08-12T08:40:17.409Z</time>
      </trkpt>
      <trkpt lat="46.86945" lon="8.47156">
        <ele>2225</ele>
        <time>2021-08-12T08:40:18.410Z</time>
      </trkpt>
      <trkpt lat="46.86945" lon="8.47157">
        <ele>2226</ele>
        <time>2021-08-12T08:40:19.410Z</time>
      </trkpt>
      <trkpt lat="46.86945" lon="8.47157">
        <ele>2226</ele>
        <time>2021-08-12T08:40:20.410Z</time>
      </trkpt>
      <trkpt lat="46.86945" lon="8.47158">
        <ele>2227</ele>
        <time>2021-08-12T08:40:21.409Z</time>
      </trkpt>
      <trkpt lat="46.86945" lon="8.47159">
        <ele>2228</ele>
        <time>2021-08-12T08:40:22.409Z</time>
      </trkpt>
      <trkpt lat="46.86944" lon="8.4716">
        <ele>2229</ele>
        <time>2021-08-12T08:40:23.410Z</time>
      </trkpt>
      <trkpt lat="46.86944" lon="8.4716">
        <ele>2229</ele>
        <time>2021-08-12T08:40:24.410Z</time>
      </trkpt>
      <trkpt lat="46.86944" lon="8.47161">
        <ele>2229</ele>
        <time>2021-08-12T08:40:25.410Z</time>
      </trkpt>
      <trkpt lat="46.86944" lon="8.47161">
        <ele>2229</ele>
        <time>2021-08-12T08:40:26.410Z</time>
      </trkpt>
      <trkpt lat="46.86945" lon="8.47162">
        <ele>2229</ele>
        <time>2021-08-12T08:40:27.410Z</time>
      </trkpt>
      <trkpt lat="46.86944" lon="8.47163">
        <ele>2229</ele>
        <time>2021-08-12T08:40:28.410Z</time>
      </trkpt>
      <trkpt lat="46.86944" lon="8.47163">
        <ele>2229</ele>
        <time>2021-08-12T08:40:29.409Z</time>
      </trkpt>
      <trkpt lat="46.86944" lon="8.47163">
        <ele>2228</ele>
        <time>2021-08-12T08:40:30.410Z</time>
      </trkpt>
      <trkpt lat="46.86944" lon="8.47164">
        <ele>2228</ele>
        <time>2021-08-12T08:40:31.409Z</time>
      </trkpt>
      <trkpt lat="46.86945" lon="8.47164">
        <ele>2224</ele>
        <time>2021-08-12T08:40:32.409Z</time>
      </trkpt>
      <trkpt lat="46.86945" lon="8.47163">
        <ele>2224</ele>
        <time>2021-08-12T08:40:33.409Z</time>
      </trkpt>
      <trkpt lat="46.86943" lon="8.47165">
        <ele>2222</ele>
        <time>2021-08-12T08:40:34.410Z</time>
      </trkpt>
      <trkpt lat="46.86943" lon="8.47166">
        <ele>2221</ele>
        <time>2021-08-12T08:40:35.410Z</time>
      </trkpt>
      <trkpt lat="46.86942" lon="8.47166">
        <ele>2221</ele>
        <time>2021-08-12T08:40:36.409Z</time>
      </trkpt>
      <trkpt lat="46.86942" lon="8.47167">
        <ele>2221</ele>
        <time>2021-08-12T08:40:37.410Z</time>
      </trkpt>
      <trkpt lat="46.86942" lon="8.47167">
        <ele>2220</ele>
        <time>2021-08-12T08:40:38.409Z</time>
      </trkpt>
      <trkpt lat="46.86941" lon="8.47167">
        <ele>2220</ele>
        <time>2021-08-12T08:40:39.410Z</time>
      </trkpt>
      <trkpt lat="46.86941" lon="8.47167">
        <ele>2220</ele>
        <time>2021-08-12T08:40:40.409Z</time>
      </trkpt>
      <trkpt lat="46.86939" lon="8.47171">
        <ele>2227</ele>
        <time>2021-08-12T08:40:41.411Z</time>
      </trkpt>
      <trkpt lat="46.86939" lon="8.47171">
        <ele>2228</ele>
        <time>2021-08-12T08:40:42.411Z</time>
      </trkpt>
      <trkpt lat="46.86937" lon="8.47173">
        <ele>2232</ele>
        <time>2021-08-12T08:40:43.412Z</time>
      </trkpt>
      <trkpt lat="46.86936" lon="8.47172">
        <ele>2232</ele>
        <time>2021-08-12T08:40:44.412Z</time>
      </trkpt>
      <trkpt lat="46.86936" lon="8.47172">
        <ele>2232</ele>
        <time>2021-08-12T08:40:45.411Z</time>
      </trkpt>
      <trkpt lat="46.86935" lon="8.47172">
        <ele>2231</ele>
        <time>2021-08-12T08:40:46.411Z</time>
      </trkpt>
      <trkpt lat="46.86935" lon="8.47173">
        <ele>2230</ele>
        <time>2021-08-12T08:40:47.411Z</time>
      </trkpt>
      <trkpt lat="46.86935" lon="8.47174">
        <ele>2230</ele>
        <time>2021-08-12T08:40:48.411Z</time>
      </trkpt>
      <trkpt lat="46.86935" lon="8.47174">
        <ele>2229</ele>
        <time>2021-08-12T08:40:49.412Z</time>
      </trkpt>
      <trkpt lat="46.86935" lon="8.47175">
        <ele>2229</ele>
        <time>2021-08-12T08:40:50.412Z</time>
      </trkpt>
      <trkpt lat="46.86934" lon="8.47176">
        <ele>2229</ele>
        <time>2021-08-12T08:40:51.411Z</time>
      </trkpt>
      <trkpt lat="46.86934" lon="8.47176">
        <ele>2229</ele>
        <time>2021-08-12T08:40:52.412Z</time>
      </trkpt>
      <trkpt lat="46.86934" lon="8.47177">
        <ele>2228</ele>
        <time>2021-08-12T08:40:53.412Z</time>
      </trkpt>
      <trkpt lat="46.86934" lon="8.47178">
        <ele>2228</ele>
        <time>2021-08-12T08:40:54.411Z</time>
      </trkpt>
      <trkpt lat="46.86933" lon="8.47179">
        <ele>2229</ele>
        <time>2021-08-12T08:40:55.412Z</time>
      </trkpt>
      <trkpt lat="46.86933" lon="8.47178">
        <ele>2230</ele>
        <time>2021-08-12T08:40:56.411Z</time>
      </trkpt>
      <trkpt lat="46.86933" lon="8.47179">
        <ele>2232</ele>
        <time>2021-08-12T08:40:57.413Z</time>
      </trkpt>
      <trkpt lat="46.86933" lon="8.4718">
        <ele>2232</ele>
        <time>2021-08-12T08:40:58.413Z</time>
      </trkpt>
      <trkpt lat="46.86933" lon="8.47181">
        <ele>2233</ele>
        <time>2021-08-12T08:40:59.413Z</time>
      </trkpt>
      <trkpt lat="46.86933" lon="8.47182">
        <ele>2233</ele>
        <time>2021-08-12T08:41:00.414Z</time>
      </trkpt>
      <trkpt lat="46.86933" lon="8.47182">
        <ele>2233</ele>
        <time>2021-08-12T08:41:01.414Z</time>
      </trkpt>
      <trkpt lat="46.86932" lon="8.47184">
        <ele>2232</ele>
        <time>2021-08-12T08:41:02.413Z</time>
      </trkpt>
      <trkpt lat="46.86932" lon="8.47185">
        <ele>2232</ele>
        <time>2021-08-12T08:41:03.413Z</time>
      </trkpt>
      <trkpt lat="46.86932" lon="8.47186">
        <ele>2231</ele>
        <time>2021-08-12T08:41:04.413Z</time>
      </trkpt>
      <trkpt lat="46.86931" lon="8.47188">
        <ele>2231</ele>
        <time>2021-08-12T08:41:05.413Z</time>
      </trkpt>
      <trkpt lat="46.86931" lon="8.47189">
        <ele>2231</ele>
        <time>2021-08-12T08:41:06.414Z</time>
      </trkpt>
      <trkpt lat="46.86931" lon="8.4719">
        <ele>2231</ele>
        <time>2021-08-12T08:41:07.413Z</time>
      </trkpt>
      <trkpt lat="46.8693" lon="8.47191">
        <ele>2230</ele>
        <time>2021-08-12T08:41:08.413Z</time>
      </trkpt>
      <trkpt lat="46.8693" lon="8.47192">
        <ele>2230</ele>
        <time>2021-08-12T08:41:09.413Z</time>
      </trkpt>
      <trkpt lat="46.8693" lon="8.47193">
        <ele>2230</ele>
        <time>2021-08-12T08:41:10.414Z</time>
      </trkpt>
      <trkpt lat="46.86929" lon="8.47194">
        <ele>2231</ele>
        <time>2021-08-12T08:41:11.413Z</time>
      </trkpt>
      <trkpt lat="46.86929" lon="8.47194">
        <ele>2231</ele>
        <time>2021-08-12T08:41:12.413Z</time>
      </trkpt>
      <trkpt lat="46.86928" lon="8.47195">
        <ele>2231</ele>
        <time>2021-08-12T08:41:13.414Z</time>
      </trkpt>
      <trkpt lat="46.86928" lon="8.47195">
        <ele>2231</ele>
        <time>2021-08-12T08:41:14.414Z</time>
      </trkpt>
      <trkpt lat="46.86928" lon="8.47195">
        <ele>2231</ele>
        <time>2021-08-12T08:41:15.414Z</time>
      </trkpt>
      <trkpt lat="46.86928" lon="8.47196">
        <ele>2231</ele>
        <time>2021-08-12T08:41:16.414Z</time>
      </trkpt>
      <trkpt lat="46.86927" lon="8.47197">
        <ele>2231</ele>
        <time>2021-08-12T08:41:17.414Z</time>
      </trkpt>
      <trkpt lat="46.86927" lon="8.47197">
        <ele>2232</ele>
        <time>2021-08-12T08:41:18.413Z</time>
      </trkpt>
      <trkpt lat="46.86927" lon="8.47198">
        <ele>2232</ele>
        <time>2021-08-12T08:41:19.414Z</time>
      </trkpt>
      <trkpt lat="46.86927" lon="8.47198">
        <ele>2232</ele>
        <time>2021-08-12T08:41:20.414Z</time>
      </trkpt>
      <trkpt lat="46.86926" lon="8.47198">
        <ele>2233</ele>
        <time>2021-08-12T08:41:21.413Z</time>
      </trkpt>
      <trkpt lat="46.86926" lon="8.47199">
        <ele>2233</ele>
        <time>2021-08-12T08:41:22.413Z</time>
      </trkpt>
      <trkpt lat="46.86926" lon="8.47199">
        <ele>2233</ele>
        <time>2021-08-12T08:41:23.414Z</time>
      </trkpt>
      <trkpt lat="46.86925" lon="8.472">
        <ele>2233</ele>
        <time>2021-08-12T08:41:24.414Z</time>
      </trkpt>
      <trkpt lat="46.86925" lon="8.47201">
        <ele>2232</ele>
        <time>2021-08-12T08:41:25.414Z</time>
      </trkpt>
      <trkpt lat="46.86925" lon="8.47202">
        <ele>2232</ele>
        <time>2021-08-12T08:41:26.413Z</time>
      </trkpt>
      <trkpt lat="46.86924" lon="8.47203">
        <ele>2231</ele>
        <time>2021-08-12T08:41:27.414Z</time>
      </trkpt>
      <trkpt lat="46.86924" lon="8.47204">
        <ele>2231</ele>
        <time>2021-08-12T08:41:28.414Z</time>
      </trkpt>
      <trkpt lat="46.86924" lon="8.47205">
        <ele>2231</ele>
        <time>2021-08-12T08:41:29.414Z</time>
      </trkpt>
      <trkpt lat="46.86924" lon="8.47206">
        <ele>2230</ele>
        <time>2021-08-12T08:41:30.414Z</time>
      </trkpt>
      <trkpt lat="46.86923" lon="8.47207">
        <ele>2230</ele>
        <time>2021-08-12T08:41:31.414Z</time>
      </trkpt>
      <trkpt lat="46.86923" lon="8.47208">
        <ele>2230</ele>
        <time>2021-08-12T08:41:32.413Z</time>
      </trkpt>
      <trkpt lat="46.86923" lon="8.47209">
        <ele>2230</ele>
        <time>2021-08-12T08:41:33.414Z</time>
      </trkpt>
      <trkpt lat="46.86922" lon="8.4721">
        <ele>2230</ele>
        <time>2021-08-12T08:41:34.413Z</time>
      </trkpt>
      <trkpt lat="46.86922" lon="8.47211">
        <ele>2230</ele>
        <time>2021-08-12T08:41:35.413Z</time>
      </trkpt>
      <trkpt lat="46.86922" lon="8.47211">
        <ele>2229</ele>
        <time>2021-08-12T08:41:36.414Z</time>
      </trkpt>
      <trkpt lat="46.86922" lon="8.47212">
        <ele>2229</ele>
        <time>2021-08-12T08:41:37.414Z</time>
      </trkpt>
      <trkpt lat="46.86921" lon="8.47213">
        <ele>2228</ele>
        <time>2021-08-12T08:41:38.414Z</time>
      </trkpt>
      <trkpt lat="46.86921" lon="8.47214">
        <ele>2228</ele>
        <time>2021-08-12T08:41:39.413Z</time>
      </trkpt>
      <trkpt lat="46.86921" lon="8.47216">
        <ele>2227</ele>
        <time>2021-08-12T08:41:40.413Z</time>
      </trkpt>
      <trkpt lat="46.8692" lon="8.47217">
        <ele>2227</ele>
        <time>2021-08-12T08:41:41.414Z</time>
      </trkpt>
      <trkpt lat="46.8692" lon="8.47219">
        <ele>2227</ele>
        <time>2021-08-12T08:41:42.414Z</time>
      </trkpt>
      <trkpt lat="46.8692" lon="8.4722">
        <ele>2226</ele>
        <time>2021-08-12T08:41:43.413Z</time>
      </trkpt>
      <trkpt lat="46.8692" lon="8.47222">
        <ele>2226</ele>
        <time>2021-08-12T08:41:44.414Z</time>
      </trkpt>
      <trkpt lat="46.86919" lon="8.47223">
        <ele>2226</ele>
        <time>2021-08-12T08:41:45.414Z</time>
      </trkpt>
      <trkpt lat="46.86919" lon="8.47224">
        <ele>2226</ele>
        <time>2021-08-12T08:41:46.413Z</time>
      </trkpt>
      <trkpt lat="46.86918" lon="8.47224">
        <ele>2225</ele>
        <time>2021-08-12T08:41:47.413Z</time>
      </trkpt>
      <trkpt lat="46.86918" lon="8.47225">
        <ele>2225</ele>
        <time>2021-08-12T08:41:48.414Z</time>
      </trkpt>
      <trkpt lat="46.86918" lon="8.47226">
        <ele>2225</ele>
        <time>2021-08-12T08:41:49.413Z</time>
      </trkpt>
      <trkpt lat="46.86917" lon="8.47228">
        <ele>2225</ele>
        <time>2021-08-12T08:41:50.414Z</time>
      </trkpt>
      <trkpt lat="46.86916" lon="8.4723">
        <ele>2226</ele>
        <time>2021-08-12T08:41:51.413Z</time>
      </trkpt>
      <trkpt lat="46.86916" lon="8.4723">
        <ele>2226</ele>
        <time>2021-08-12T08:41:52.414Z</time>
      </trkpt>
      <trkpt lat="46.86916" lon="8.47231">
        <ele>2226</ele>
        <time>2021-08-12T08:41:53.414Z</time>
      </trkpt>
      <trkpt lat="46.86915" lon="8.47232">
        <ele>2226</ele>
        <time>2021-08-12T08:41:54.413Z</time>
      </trkpt>
      <trkpt lat="46.86915" lon="8.47233">
        <ele>2226</ele>
        <time>2021-08-12T08:41:55.413Z</time>
      </trkpt>
      <trkpt lat="46.86914" lon="8.47234">
        <ele>2227</ele>
        <time>2021-08-12T08:41:56.413Z</time>
      </trkpt>
      <trkpt lat="46.86914" lon="8.47235">
        <ele>2227</ele>
        <time>2021-08-12T08:41:57.414Z</time>
      </trkpt>
      <trkpt lat="46.86914" lon="8.47237">
        <ele>2227</ele>
        <time>2021-08-12T08:41:58.413Z</time>
      </trkpt>
      <trkpt lat="46.86913" lon="8.47237">
        <ele>2228</ele>
        <time>2021-08-12T08:41:59.414Z</time>
      </trkpt>
      <trkpt lat="46.86913" lon="8.47238">
        <ele>2228</ele>
        <time>2021-08-12T08:42:00.414Z</time>
      </trkpt>
      <trkpt lat="46.86912" lon="8.47239">
        <ele>2229</ele>
        <time>2021-08-12T08:42:01.414Z</time>
      </trkpt>
      <trkpt lat="46.86911" lon="8.47241">
        <ele>2229</ele>
        <time>2021-08-12T08:42:02.414Z</time>
      </trkpt>
      <trkpt lat="46.86911" lon="8.47242">
        <ele>2229</ele>
        <time>2021-08-12T08:42:03.414Z</time>
      </trkpt>
      <trkpt lat="46.86911" lon="8.47242">
        <ele>2230</ele>
        <time>2021-08-12T08:42:04.414Z</time>
      </trkpt>
      <trkpt lat="46.8691" lon="8.47243">
        <ele>2230</ele>
        <time>2021-08-12T08:42:05.413Z</time>
      </trkpt>
      <trkpt lat="46.8691" lon="8.47244">
        <ele>2230</ele>
        <time>2021-08-12T08:42:06.413Z</time>
      </trkpt>
      <trkpt lat="46.8691" lon="8.47244">
        <ele>2230</ele>
        <time>2021-08-12T08:42:07.414Z</time>
      </trkpt>
      <trkpt lat="46.8691" lon="8.47244">
        <ele>2231</ele>
        <time>2021-08-12T08:42:08.414Z</time>
      </trkpt>
      <trkpt lat="46.8691" lon="8.47245">
        <ele>2231</ele>
        <time>2021-08-12T08:42:09.414Z</time>
      </trkpt>
      <trkpt lat="46.8691" lon="8.47246">
        <ele>2232</ele>
        <time>2021-08-12T08:42:10.414Z</time>
      </trkpt>
      <trkpt lat="46.86909" lon="8.47247">
        <ele>2233</ele>
        <time>2021-08-12T08:42:11.413Z</time>
      </trkpt>
      <trkpt lat="46.86909" lon="8.47248">
        <ele>2233</ele>
        <time>2021-08-12T08:42:12.414Z</time>
      </trkpt>
      <trkpt lat="46.86909" lon="8.47249">
        <ele>2233</ele>
        <time>2021-08-12T08:42:13.414Z</time>
      </trkpt>
      <trkpt lat="46.86908" lon="8.4725">
        <ele>2233</ele>
        <time>2021-08-12T08:42:14.414Z</time>
      </trkpt>
      <trkpt lat="46.86908" lon="8.47251">
        <ele>2232</ele>
        <time>2021-08-12T08:42:15.414Z</time>
      </trkpt>
      <trkpt lat="46.86908" lon="8.47251">
        <ele>2231</ele>
        <time>2021-08-12T08:42:16.414Z</time>
      </trkpt>
      <trkpt lat="46.86908" lon="8.47252">
        <ele>2231</ele>
        <time>2021-08-12T08:42:17.414Z</time>
      </trkpt>
      <trkpt lat="46.86908" lon="8.47253">
        <ele>2230</ele>
        <time>2021-08-12T08:42:18.414Z</time>
      </trkpt>
      <trkpt lat="46.86908" lon="8.47253">
        <ele>2229</ele>
        <time>2021-08-12T08:42:19.414Z</time>
      </trkpt>
      <trkpt lat="46.86908" lon="8.47254">
        <ele>2229</ele>
        <time>2021-08-12T08:42:20.413Z</time>
      </trkpt>
      <trkpt lat="46.86908" lon="8.47255">
        <ele>2228</ele>
        <time>2021-08-12T08:42:21.413Z</time>
      </trkpt>
      <trkpt lat="46.86906" lon="8.47255">
        <ele>2228</ele>
        <time>2021-08-12T08:42:22.414Z</time>
      </trkpt>
      <trkpt lat="46.86906" lon="8.47256">
        <ele>2228</ele>
        <time>2021-08-12T08:42:23.413Z</time>
      </trkpt>
      <trkpt lat="46.86906" lon="8.47255">
        <ele>2228</ele>
        <time>2021-08-12T08:42:24.413Z</time>
      </trkpt>
      <trkpt lat="46.86905" lon="8.47256">
        <ele>2228</ele>
        <time>2021-08-12T08:42:25.414Z</time>
      </trkpt>
      <trkpt lat="46.86904" lon="8.47257">
        <ele>2228</ele>
        <time>2021-08-12T08:42:26.414Z</time>
      </trkpt>
      <trkpt lat="46.86903" lon="8.47257">
        <ele>2229</ele>
        <time>2021-08-12T08:42:27.413Z</time>
      </trkpt>
      <trkpt lat="46.86903" lon="8.47258">
        <ele>2229</ele>
        <time>2021-08-12T08:42:28.413Z</time>
      </trkpt>
      <trkpt lat="46.86902" lon="8.47258">
        <ele>2229</ele>
        <time>2021-08-12T08:42:29.414Z</time>
      </trkpt>
      <trkpt lat="46.86902" lon="8.47259">
        <ele>2230</ele>
        <time>2021-08-12T08:42:30.414Z</time>
      </trkpt>
      <trkpt lat="46.86901" lon="8.47259">
        <ele>2230</ele>
        <time>2021-08-12T08:42:31.413Z</time>
      </trkpt>
      <trkpt lat="46.86901" lon="8.4726">
        <ele>2230</ele>
        <time>2021-08-12T08:42:32.414Z</time>
      </trkpt>
      <trkpt lat="46.869" lon="8.4726">
        <ele>2231</ele>
        <time>2021-08-12T08:42:33.413Z</time>
      </trkpt>
      <trkpt lat="46.86899" lon="8.47261">
        <ele>2230</ele>
        <time>2021-08-12T08:42:34.414Z</time>
      </trkpt>
      <trkpt lat="46.86899" lon="8.47262">
        <ele>2230</ele>
        <time>2021-08-12T08:42:35.413Z</time>
      </trkpt>
      <trkpt lat="46.86899" lon="8.47263">
        <ele>2230</ele>
        <time>2021-08-12T08:42:36.414Z</time>
      </trkpt>
      <trkpt lat="46.86898" lon="8.47264">
        <ele>2230</ele>
        <time>2021-08-12T08:42:37.414Z</time>
      </trkpt>
      <trkpt lat="46.86898" lon="8.47265">
        <ele>2230</ele>
        <time>2021-08-12T08:42:38.413Z</time>
      </trkpt>
      <trkpt lat="46.86898" lon="8.47266">
        <ele>2230</ele>
        <time>2021-08-12T08:42:39.414Z</time>
      </trkpt>
      <trkpt lat="46.86898" lon="8.47267">
        <ele>2230</ele>
        <time>2021-08-12T08:42:40.414Z</time>
      </trkpt>
      <trkpt lat="46.86898" lon="8.47268">
        <ele>2230</ele>
        <time>2021-08-12T08:42:41.413Z</time>
      </trkpt>
      <trkpt lat="46.86898" lon="8.47269">
        <ele>2230</ele>
        <time>2021-08-12T08:42:42.413Z</time>
      </trkpt>
      <trkpt lat="46.86898" lon="8.47269">
        <ele>2229</ele>
        <time>2021-08-12T08:42:43.414Z</time>
      </trkpt>
      <trkpt lat="46.86897" lon="8.4727">
        <ele>2229</ele>
        <time>2021-08-12T08:42:44.414Z</time>
      </trkpt>
      <trkpt lat="46.86897" lon="8.47271">
        <ele>2229</ele>
        <time>2021-08-12T08:42:45.414Z</time>
      </trkpt>
      <trkpt lat="46.86898" lon="8.47272">
        <ele>2229</ele>
        <time>2021-08-12T08:42:46.414Z</time>
      </trkpt>
      <trkpt lat="46.86898" lon="8.47272">
        <ele>2229</ele>
        <time>2021-08-12T08:42:47.413Z</time>
      </trkpt>
      <trkpt lat="46.86897" lon="8.47273">
        <ele>2229</ele>
        <time>2021-08-12T08:42:48.413Z</time>
      </trkpt>
      <trkpt lat="46.86897" lon="8.47274">
        <ele>2229</ele>
        <time>2021-08-12T08:42:49.414Z</time>
      </trkpt>
      <trkpt lat="46.86896" lon="8.47275">
        <ele>2227</ele>
        <time>2021-08-12T08:42:50.414Z</time>
      </trkpt>
      <trkpt lat="46.86897" lon="8.47275">
        <ele>2227</ele>
        <time>2021-08-12T08:42:51.415Z</time>
      </trkpt>
      <trkpt lat="46.86897" lon="8.47276">
        <ele>2227</ele>
        <time>2021-08-12T08:42:52.415Z</time>
      </trkpt>
      <trkpt lat="46.86897" lon="8.47277">
        <ele>2228</ele>
        <time>2021-08-12T08:42:53.414Z</time>
      </trkpt>
      <trkpt lat="46.86896" lon="8.47278">
        <ele>2228</ele>
        <time>2021-08-12T08:42:54.415Z</time>
      </trkpt>
      <trkpt lat="46.86896" lon="8.47279">
        <ele>2228</ele>
        <time>2021-08-12T08:42:55.415Z</time>
      </trkpt>
      <trkpt lat="46.86896" lon="8.47281">
        <ele>2229</ele>
        <time>2021-08-12T08:42:56.415Z</time>
      </trkpt>
      <trkpt lat="46.86896" lon="8.47281">
        <ele>2229</ele>
        <time>2021-08-12T08:42:57.415Z</time>
      </trkpt>
      <trkpt lat="46.86896" lon="8.47282">
        <ele>2229</ele>
        <time>2021-08-12T08:42:58.414Z</time>
      </trkpt>
      <trkpt lat="46.86896" lon="8.47283">
        <ele>2229</ele>
        <time>2021-08-12T08:42:59.415Z</time>
      </trkpt>
      <trkpt lat="46.86896" lon="8.47284">
        <ele>2230</ele>
        <time>2021-08-12T08:43:00.415Z</time>
      </trkpt>
      <trkpt lat="46.86896" lon="8.47285">
        <ele>2230</ele>
        <time>2021-08-12T08:43:01.414Z</time>
      </trkpt>
      <trkpt lat="46.86896" lon="8.47286">
        <ele>2230</ele>
        <time>2021-08-12T08:43:02.415Z</time>
      </trkpt>
      <trkpt lat="46.86895" lon="8.47287">
        <ele>2230</ele>
        <time>2021-08-12T08:43:03.414Z</time>
      </trkpt>
      <trkpt lat="46.86895" lon="8.47288">
        <ele>2230</ele>
        <time>2021-08-12T08:43:04.415Z</time>
      </trkpt>
      <trkpt lat="46.86895" lon="8.47289">
        <ele>2230</ele>
        <time>2021-08-12T08:43:05.415Z</time>
      </trkpt>
      <trkpt lat="46.86895" lon="8.4729">
        <ele>2230</ele>
        <time>2021-08-12T08:43:06.415Z</time>
      </trkpt>
      <trkpt lat="46.86894" lon="8.47291">
        <ele>2230</ele>
        <time>2021-08-12T08:43:07.414Z</time>
      </trkpt>
      <trkpt lat="46.86894" lon="8.47291">
        <ele>2229</ele>
        <time>2021-08-12T08:43:08.415Z</time>
      </trkpt>
      <trkpt lat="46.86894" lon="8.47292">
        <ele>2229</ele>
        <time>2021-08-12T08:43:09.415Z</time>
      </trkpt>
      <trkpt lat="46.86894" lon="8.47293">
        <ele>2229</ele>
        <time>2021-08-12T08:43:10.415Z</time>
      </trkpt>
      <trkpt lat="46.86893" lon="8.47294">
        <ele>2229</ele>
        <time>2021-08-12T08:43:11.415Z</time>
      </trkpt>
      <trkpt lat="46.86893" lon="8.47294">
        <ele>2230</ele>
        <time>2021-08-12T08:43:12.414Z</time>
      </trkpt>
      <trkpt lat="46.86893" lon="8.47294">
        <ele>2231</ele>
        <time>2021-08-12T08:43:13.415Z</time>
      </trkpt>
      <trkpt lat="46.86893" lon="8.47294">
        <ele>2231</ele>
        <time>2021-08-12T08:43:14.414Z</time>
      </trkpt>
      <trkpt lat="46.86892" lon="8.47294">
        <ele>2232</ele>
        <time>2021-08-12T08:43:15.415Z</time>
      </trkpt>
      <trkpt lat="46.86892" lon="8.47295">
        <ele>2232</ele>
        <time>2021-08-12T08:43:16.415Z</time>
      </trkpt>
      <trkpt lat="46.86891" lon="8.47295">
        <ele>2232</ele>
        <time>2021-08-12T08:43:17.415Z</time>
      </trkpt>
      <trkpt lat="46.86891" lon="8.47295">
        <ele>2232</ele>
        <time>2021-08-12T08:43:18.414Z</time>
      </trkpt>
      <trkpt lat="46.86891" lon="8.47296">
        <ele>2232</ele>
        <time>2021-08-12T08:43:19.415Z</time>
      </trkpt>
      <trkpt lat="46.8689" lon="8.47296">
        <ele>2232</ele>
        <time>2021-08-12T08:43:20.414Z</time>
      </trkpt>
      <trkpt lat="46.8689" lon="8.47297">
        <ele>2233</ele>
        <time>2021-08-12T08:43:21.415Z</time>
      </trkpt>
      <trkpt lat="46.8689" lon="8.47297">
        <ele>2233</ele>
        <time>2021-08-12T08:43:22.415Z</time>
      </trkpt>
      <trkpt lat="46.8689" lon="8.47298">
        <ele>2233</ele>
        <time>2021-08-12T08:43:23.415Z</time>
      </trkpt>
      <trkpt lat="46.86889" lon="8.47299">
        <ele>2233</ele>
        <time>2021-08-12T08:43:24.415Z</time>
      </trkpt>
      <trkpt lat="46.86889" lon="8.473">
        <ele>2233</ele>
        <time>2021-08-12T08:43:25.414Z</time>
      </trkpt>
      <trkpt lat="46.86889" lon="8.47301">
        <ele>2233</ele>
        <time>2021-08-12T08:43:26.414Z</time>
      </trkpt>
      <trkpt lat="46.86888" lon="8.47303">
        <ele>2233</ele>
        <time>2021-08-12T08:43:27.414Z</time>
      </trkpt>
      <trkpt lat="46.86888" lon="8.47304">
        <ele>2233</ele>
        <time>2021-08-12T08:43:28.414Z</time>
      </trkpt>
      <trkpt lat="46.86888" lon="8.47305">
        <ele>2233</ele>
        <time>2021-08-12T08:43:29.415Z</time>
      </trkpt>
      <trkpt lat="46.86888" lon="8.47306">
        <ele>2233</ele>
        <time>2021-08-12T08:43:30.415Z</time>
      </trkpt>
      <trkpt lat="46.86887" lon="8.47307">
        <ele>2234</ele>
        <time>2021-08-12T08:43:31.414Z</time>
      </trkpt>
      <trkpt lat="46.86888" lon="8.47308">
        <ele>2234</ele>
        <time>2021-08-12T08:43:32.414Z</time>
      </trkpt>
      <trkpt lat="46.86889" lon="8.47308">
        <ele>2234</ele>
        <time>2021-08-12T08:43:33.415Z</time>
      </trkpt>
      <trkpt lat="46.86888" lon="8.47308">
        <ele>2234</ele>
        <time>2021-08-12T08:43:34.414Z</time>
      </trkpt>
      <trkpt lat="46.86887" lon="8.47308">
        <ele>2235</ele>
        <time>2021-08-12T08:43:35.414Z</time>
      </trkpt>
      <trkpt lat="46.86887" lon="8.47308">
        <ele>2234</ele>
        <time>2021-08-12T08:43:36.414Z</time>
      </trkpt>
      <trkpt lat="46.86886" lon="8.47309">
        <ele>2234</ele>
        <time>2021-08-12T08:43:37.414Z</time>
      </trkpt>
      <trkpt lat="46.86886" lon="8.47308">
        <ele>2233</ele>
        <time>2021-08-12T08:43:38.415Z</time>
      </trkpt>
      <trkpt lat="46.86885" lon="8.47308">
        <ele>2233</ele>
        <time>2021-08-12T08:43:39.414Z</time>
      </trkpt>
      <trkpt lat="46.86885" lon="8.47309">
        <ele>2232</ele>
        <time>2021-08-12T08:43:40.414Z</time>
      </trkpt>
      <trkpt lat="46.86885" lon="8.4731">
        <ele>2232</ele>
        <time>2021-08-12T08:43:41.415Z</time>
      </trkpt>
      <trkpt lat="46.86885" lon="8.47311">
        <ele>2231</ele>
        <time>2021-08-12T08:43:42.415Z</time>
      </trkpt>
      <trkpt lat="46.86885" lon="8.47311">
        <ele>2231</ele>
        <time>2021-08-12T08:43:43.415Z</time>
      </trkpt>
      <trkpt lat="46.86885" lon="8.47312">
        <ele>2231</ele>
        <time>2021-08-12T08:43:44.414Z</time>
      </trkpt>
      <trkpt lat="46.86885" lon="8.47312">
        <ele>2230</ele>
        <time>2021-08-12T08:43:45.415Z</time>
      </trkpt>
      <trkpt lat="46.86884" lon="8.47312">
        <ele>2230</ele>
        <time>2021-08-12T08:43:46.415Z</time>
      </trkpt>
      <trkpt lat="46.86884" lon="8.47312">
        <ele>2230</ele>
        <time>2021-08-12T08:43:47.415Z</time>
      </trkpt>
      <trkpt lat="46.86884" lon="8.47312">
        <ele>2230</ele>
        <time>2021-08-12T08:43:48.414Z</time>
      </trkpt>
      <trkpt lat="46.86884" lon="8.47312">
        <ele>2230</ele>
        <time>2021-08-12T08:43:49.414Z</time>
      </trkpt>
      <trkpt lat="46.86883" lon="8.47313">
        <ele>2229</ele>
        <time>2021-08-12T08:43:50.415Z</time>
      </trkpt>
      <trkpt lat="46.86883" lon="8.47313">
        <ele>2229</ele>
        <time>2021-08-12T08:43:51.415Z</time>
      </trkpt>
      <trkpt lat="46.86883" lon="8.47314">
        <ele>2228</ele>
        <time>2021-08-12T08:43:52.415Z</time>
      </trkpt>
      <trkpt lat="46.86882" lon="8.47314">
        <ele>2228</ele>
        <time>2021-08-12T08:43:53.415Z</time>
      </trkpt>
      <trkpt lat="46.86882" lon="8.47315">
        <ele>2228</ele>
        <time>2021-08-12T08:43:54.414Z</time>
      </trkpt>
      <trkpt lat="46.86881" lon="8.47316">
        <ele>2228</ele>
        <time>2021-08-12T08:43:55.415Z</time>
      </trkpt>
      <trkpt lat="46.86881" lon="8.47317">
        <ele>2228</ele>
        <time>2021-08-12T08:43:56.414Z</time>
      </trkpt>
      <trkpt lat="46.86881" lon="8.47319">
        <ele>2229</ele>
        <time>2021-08-12T08:43:57.415Z</time>
      </trkpt>
      <trkpt lat="46.86881" lon="8.47319">
        <ele>2229</ele>
        <time>2021-08-12T08:43:58.414Z</time>
      </trkpt>
      <trkpt lat="46.86881" lon="8.4732">
        <ele>2229</ele>
        <time>2021-08-12T08:43:59.415Z</time>
      </trkpt>
      <trkpt lat="46.8688" lon="8.47321">
        <ele>2230</ele>
        <time>2021-08-12T08:44:00.415Z</time>
      </trkpt>
      <trkpt lat="46.8688" lon="8.47322">
        <ele>2230</ele>
        <time>2021-08-12T08:44:01.416Z</time>
      </trkpt>
      <trkpt lat="46.8688" lon="8.47322">
        <ele>2230</ele>
        <time>2021-08-12T08:44:02.415Z</time>
      </trkpt>
      <trkpt lat="46.8688" lon="8.47322">
        <ele>2231</ele>
        <time>2021-08-12T08:44:03.416Z</time>
      </trkpt>
      <trkpt lat="46.8688" lon="8.47323">
        <ele>2231</ele>
        <time>2021-08-12T08:44:04.415Z</time>
      </trkpt>
      <trkpt lat="46.8688" lon="8.47324">
        <ele>2231</ele>
        <time>2021-08-12T08:44:05.415Z</time>
      </trkpt>
      <trkpt lat="46.86879" lon="8.47325">
        <ele>2231</ele>
        <time>2021-08-12T08:44:06.416Z</time>
      </trkpt>
      <trkpt lat="46.86879" lon="8.47325">
        <ele>2231</ele>
        <time>2021-08-12T08:44:07.415Z</time>
      </trkpt>
      <trkpt lat="46.86879" lon="8.47325">
        <ele>2231</ele>
        <time>2021-08-12T08:44:08.416Z</time>
      </trkpt>
      <trkpt lat="46.86879" lon="8.47325">
        <ele>2231</ele>
        <time>2021-08-12T08:44:09.416Z</time>
      </trkpt>
      <trkpt lat="46.86879" lon="8.47325">
        <ele>2231</ele>
        <time>2021-08-12T08:44:10.415Z</time>
      </trkpt>
      <trkpt lat="46.86878" lon="8.47327">
        <ele>2233</ele>
        <time>2021-08-12T08:44:11.416Z</time>
      </trkpt>
      <trkpt lat="46.86878" lon="8.47326">
        <ele>2233</ele>
        <time>2021-08-12T08:44:12.415Z</time>
      </trkpt>
      <trkpt lat="46.86878" lon="8.47333">
        <ele>2234</ele>
        <time>2021-08-12T08:44:13.416Z</time>
      </trkpt>
      <trkpt lat="46.86877" lon="8.47334">
        <ele>2234</ele>
        <time>2021-08-12T08:44:14.415Z</time>
      </trkpt>
      <trkpt lat="46.86876" lon="8.47335">
        <ele>2233</ele>
        <time>2021-08-12T08:44:15.415Z</time>
      </trkpt>
      <trkpt lat="46.86876" lon="8.47336">
        <ele>2233</ele>
        <time>2021-08-12T08:44:16.416Z</time>
      </trkpt>
      <trkpt lat="46.86875" lon="8.47337">
        <ele>2232</ele>
        <time>2021-08-12T08:44:17.416Z</time>
      </trkpt>
      <trkpt lat="46.86875" lon="8.47337">
        <ele>2232</ele>
        <time>2021-08-12T08:44:18.416Z</time>
      </trkpt>
      <trkpt lat="46.86875" lon="8.47338">
        <ele>2232</ele>
        <time>2021-08-12T08:44:19.415Z</time>
      </trkpt>
      <trkpt lat="46.86874" lon="8.47339">
        <ele>2232</ele>
        <time>2021-08-12T08:44:20.415Z</time>
      </trkpt>
      <trkpt lat="46.86874" lon="8.4734">
        <ele>2232</ele>
        <time>2021-08-12T08:44:21.415Z</time>
      </trkpt>
      <trkpt lat="46.86874" lon="8.47341">
        <ele>2232</ele>
        <time>2021-08-12T08:44:22.415Z</time>
      </trkpt>
      <trkpt lat="46.86873" lon="8.47341">
        <ele>2232</ele>
        <time>2021-08-12T08:44:23.415Z</time>
      </trkpt>
      <trkpt lat="46.86873" lon="8.47342">
        <ele>2232</ele>
        <time>2021-08-12T08:44:24.416Z</time>
      </trkpt>
      <trkpt lat="46.86873" lon="8.47342">
        <ele>2231</ele>
        <time>2021-08-12T08:44:25.415Z</time>
      </trkpt>
      <trkpt lat="46.86872" lon="8.47342">
        <ele>2231</ele>
        <time>2021-08-12T08:44:26.415Z</time>
      </trkpt>
      <trkpt lat="46.86872" lon="8.47342">
        <ele>2232</ele>
        <time>2021-08-12T08:44:27.415Z</time>
      </trkpt>
      <trkpt lat="46.86871" lon="8.47344">
        <ele>2232</ele>
        <time>2021-08-12T08:44:28.416Z</time>
      </trkpt>
      <trkpt lat="46.8687" lon="8.47344">
        <ele>2231</ele>
        <time>2021-08-12T08:44:29.415Z</time>
      </trkpt>
      <trkpt lat="46.86869" lon="8.47344">
        <ele>2231</ele>
        <time>2021-08-12T08:44:30.415Z</time>
      </trkpt>
      <trkpt lat="46.86868" lon="8.47345">
        <ele>2231</ele>
        <time>2021-08-12T08:44:31.415Z</time>
      </trkpt>
      <trkpt lat="46.86867" lon="8.47346">
        <ele>2230</ele>
        <time>2021-08-12T08:44:32.416Z</time>
      </trkpt>
      <trkpt lat="46.86867" lon="8.47346">
        <ele>2230</ele>
        <time>2021-08-12T08:44:33.416Z</time>
      </trkpt>
      <trkpt lat="46.86866" lon="8.47347">
        <ele>2230</ele>
        <time>2021-08-12T08:44:34.416Z</time>
      </trkpt>
      <trkpt lat="46.86866" lon="8.47347">
        <ele>2230</ele>
        <time>2021-08-12T08:44:35.416Z</time>
      </trkpt>
      <trkpt lat="46.86865" lon="8.47348">
        <ele>2230</ele>
        <time>2021-08-12T08:44:36.416Z</time>
      </trkpt>
      <trkpt lat="46.86865" lon="8.47349">
        <ele>2230</ele>
        <time>2021-08-12T08:44:37.416Z</time>
      </trkpt>
      <trkpt lat="46.86864" lon="8.4735">
        <ele>2230</ele>
        <time>2021-08-12T08:44:38.416Z</time>
      </trkpt>
      <trkpt lat="46.86864" lon="8.47351">
        <ele>2230</ele>
        <time>2021-08-12T08:44:39.416Z</time>
      </trkpt>
      <trkpt lat="46.86864" lon="8.47352">
        <ele>2230</ele>
        <time>2021-08-12T08:44:40.416Z</time>
      </trkpt>
      <trkpt lat="46.86864" lon="8.47352">
        <ele>2230</ele>
        <time>2021-08-12T08:44:41.415Z</time>
      </trkpt>
      <trkpt lat="46.86864" lon="8.47352">
        <ele>2230</ele>
        <time>2021-08-12T08:44:42.415Z</time>
      </trkpt>
      <trkpt lat="46.86864" lon="8.47353">
        <ele>2230</ele>
        <time>2021-08-12T08:44:43.416Z</time>
      </trkpt>
      <trkpt lat="46.86863" lon="8.47353">
        <ele>2233</ele>
        <time>2021-08-12T08:44:44.417Z</time>
      </trkpt>
      <trkpt lat="46.86863" lon="8.47353">
        <ele>2233</ele>
        <time>2021-08-12T08:44:45.417Z</time>
      </trkpt>
      <trkpt lat="46.86863" lon="8.47354">
        <ele>2233</ele>
        <time>2021-08-12T08:44:46.416Z</time>
      </trkpt>
      <trkpt lat="46.86862" lon="8.47355">
        <ele>2233</ele>
        <time>2021-08-12T08:44:47.416Z</time>
      </trkpt>
      <trkpt lat="46.86862" lon="8.47355">
        <ele>2233</ele>
        <time>2021-08-12T08:44:48.417Z</time>
      </trkpt>
      <trkpt lat="46.86862" lon="8.47356">
        <ele>2234</ele>
        <time>2021-08-12T08:44:49.417Z</time>
      </trkpt>
      <trkpt lat="46.86862" lon="8.47357">
        <ele>2235</ele>
        <time>2021-08-12T08:44:50.417Z</time>
      </trkpt>
      <trkpt lat="46.86862" lon="8.47357">
        <ele>2236</ele>
        <time>2021-08-12T08:44:51.417Z</time>
      </trkpt>
      <trkpt lat="46.86861" lon="8.47357">
        <ele>2236</ele>
        <time>2021-08-12T08:44:52.418Z</time>
      </trkpt>
      <trkpt lat="46.86861" lon="8.47358">
        <ele>2237</ele>
        <time>2021-08-12T08:44:53.417Z</time>
      </trkpt>
      <trkpt lat="46.86861" lon="8.47359">
        <ele>2238</ele>
        <time>2021-08-12T08:44:54.418Z</time>
      </trkpt>
      <trkpt lat="46.8686" lon="8.4736">
        <ele>2239</ele>
        <time>2021-08-12T08:44:55.417Z</time>
      </trkpt>
      <trkpt lat="46.8686" lon="8.4736">
        <ele>2239</ele>
        <time>2021-08-12T08:44:56.418Z</time>
      </trkpt>
      <trkpt lat="46.8686" lon="8.47361">
        <ele>2240</ele>
        <time>2021-08-12T08:44:57.418Z</time>
      </trkpt>
      <trkpt lat="46.86861" lon="8.47361">
        <ele>2240</ele>
        <time>2021-08-12T08:44:58.418Z</time>
      </trkpt>
      <trkpt lat="46.86859" lon="8.47363">
        <ele>2241</ele>
        <time>2021-08-12T08:44:59.419Z</time>
      </trkpt>
      <trkpt lat="46.86859" lon="8.47363">
        <ele>2240</ele>
        <time>2021-08-12T08:45:00.419Z</time>
      </trkpt>
      <trkpt lat="46.86859" lon="8.47364">
        <ele>2240</ele>
        <time>2021-08-12T08:45:01.418Z</time>
      </trkpt>
      <trkpt lat="46.86859" lon="8.47366">
        <ele>2240</ele>
        <time>2021-08-12T08:45:02.420Z</time>
      </trkpt>
      <trkpt lat="46.86859" lon="8.47366">
        <ele>2240</ele>
        <time>2021-08-12T08:45:03.419Z</time>
      </trkpt>
      <trkpt lat="46.86859" lon="8.47366">
        <ele>2240</ele>
        <time>2021-08-12T08:45:04.420Z</time>
      </trkpt>
      <trkpt lat="46.86859" lon="8.47367">
        <ele>2240</ele>
        <time>2021-08-12T08:45:05.420Z</time>
      </trkpt>
      <trkpt lat="46.86859" lon="8.47367">
        <ele>2240</ele>
        <time>2021-08-12T08:45:06.420Z</time>
      </trkpt>
      <trkpt lat="46.86858" lon="8.47369">
        <ele>2240</ele>
        <time>2021-08-12T08:45:07.420Z</time>
      </trkpt>
      <trkpt lat="46.86858" lon="8.47369">
        <ele>2240</ele>
        <time>2021-08-12T08:45:08.419Z</time>
      </trkpt>
      <trkpt lat="46.86858" lon="8.47369">
        <ele>2239</ele>
        <time>2021-08-12T08:45:09.419Z</time>
      </trkpt>
      <trkpt lat="46.86856" lon="8.47371">
        <ele>2239</ele>
        <time>2021-08-12T08:45:10.421Z</time>
      </trkpt>
      <trkpt lat="46.86856" lon="8.47371">
        <ele>2239</ele>
        <time>2021-08-12T08:45:11.420Z</time>
      </trkpt>
      <trkpt lat="46.86856" lon="8.4737">
        <ele>2239</ele>
        <time>2021-08-12T08:45:12.420Z</time>
      </trkpt>
      <trkpt lat="46.86856" lon="8.47371">
        <ele>2239</ele>
        <time>2021-08-12T08:45:13.421Z</time>
      </trkpt>
      <trkpt lat="46.86855" lon="8.47372">
        <ele>2240</ele>
        <time>2021-08-12T08:45:14.420Z</time>
      </trkpt>
      <trkpt lat="46.86854" lon="8.47373">
        <ele>2240</ele>
        <time>2021-08-12T08:45:15.421Z</time>
      </trkpt>
      <trkpt lat="46.86854" lon="8.47374">
        <ele>2240</ele>
        <time>2021-08-12T08:45:16.421Z</time>
      </trkpt>
      <trkpt lat="46.86853" lon="8.47376">
        <ele>2240</ele>
        <time>2021-08-12T08:45:17.420Z</time>
      </trkpt>
      <trkpt lat="46.86852" lon="8.47377">
        <ele>2240</ele>
        <time>2021-08-12T08:45:18.420Z</time>
      </trkpt>
      <trkpt lat="46.86852" lon="8.47379">
        <ele>2240</ele>
        <time>2021-08-12T08:45:19.421Z</time>
      </trkpt>
      <trkpt lat="46.86851" lon="8.4738">
        <ele>2239</ele>
        <time>2021-08-12T08:45:20.421Z</time>
      </trkpt>
      <trkpt lat="46.8685" lon="8.4738">
        <ele>2239</ele>
        <time>2021-08-12T08:45:21.421Z</time>
      </trkpt>
      <trkpt lat="46.86849" lon="8.4738">
        <ele>2239</ele>
        <time>2021-08-12T08:45:22.421Z</time>
      </trkpt>
      <trkpt lat="46.86848" lon="8.4738">
        <ele>2239</ele>
        <time>2021-08-12T08:45:23.421Z</time>
      </trkpt>
      <trkpt lat="46.86847" lon="8.47381">
        <ele>2239</ele>
        <time>2021-08-12T08:45:24.421Z</time>
      </trkpt>
      <trkpt lat="46.86846" lon="8.47382">
        <ele>2238</ele>
        <time>2021-08-12T08:45:25.421Z</time>
      </trkpt>
      <trkpt lat="46.86845" lon="8.47383">
        <ele>2238</ele>
        <time>2021-08-12T08:45:26.420Z</time>
      </trkpt>
      <trkpt lat="46.86845" lon="8.47383">
        <ele>2237</ele>
        <time>2021-08-12T08:45:27.421Z</time>
      </trkpt>
      <trkpt lat="46.86844" lon="8.47384">
        <ele>2236</ele>
        <time>2021-08-12T08:45:28.421Z</time>
      </trkpt>
      <trkpt lat="46.86843" lon="8.47385">
        <ele>2236</ele>
        <time>2021-08-12T08:45:29.421Z</time>
      </trkpt>
      <trkpt lat="46.86842" lon="8.47385">
        <ele>2236</ele>
        <time>2021-08-12T08:45:30.420Z</time>
      </trkpt>
      <trkpt lat="46.86841" lon="8.47386">
        <ele>2236</ele>
        <time>2021-08-12T08:45:31.421Z</time>
      </trkpt>
      <trkpt lat="46.8684" lon="8.47386">
        <ele>2235</ele>
        <time>2021-08-12T08:45:32.420Z</time>
      </trkpt>
      <trkpt lat="46.86839" lon="8.47386">
        <ele>2235</ele>
        <time>2021-08-12T08:45:33.421Z</time>
      </trkpt>
      <trkpt lat="46.86838" lon="8.47386">
        <ele>2234</ele>
        <time>2021-08-12T08:45:34.421Z</time>
      </trkpt>
      <trkpt lat="46.86837" lon="8.47386">
        <ele>2234</ele>
        <time>2021-08-12T08:45:35.420Z</time>
      </trkpt>
      <trkpt lat="46.86836" lon="8.47386">
        <ele>2234</ele>
        <time>2021-08-12T08:45:36.420Z</time>
      </trkpt>
      <trkpt lat="46.86836" lon="8.47386">
        <ele>2234</ele>
        <time>2021-08-12T08:45:37.421Z</time>
      </trkpt>
      <trkpt lat="46.86836" lon="8.47386">
        <ele>2234</ele>
        <time>2021-08-12T08:45:38.420Z</time>
      </trkpt>
      <trkpt lat="46.86835" lon="8.47386">
        <ele>2234</ele>
        <time>2021-08-12T08:45:39.421Z</time>
      </trkpt>
      <trkpt lat="46.86835" lon="8.47386">
        <ele>2234</ele>
        <time>2021-08-12T08:45:40.421Z</time>
      </trkpt>
      <trkpt lat="46.86836" lon="8.47386">
        <ele>2231</ele>
        <time>2021-08-12T08:45:41.420Z</time>
      </trkpt>
      <trkpt lat="46.86836" lon="8.47386">
        <ele>2231</ele>
        <time>2021-08-12T08:45:42.421Z</time>
      </trkpt>
      <trkpt lat="46.86836" lon="8.47386">
        <ele>2231</ele>
        <time>2021-08-12T08:45:43.420Z</time>
      </trkpt>
      <trkpt lat="46.8683" lon="8.47383">
        <ele>2233</ele>
        <time>2021-08-12T08:45:44.422Z</time>
      </trkpt>
      <trkpt lat="46.8683" lon="8.47383">
        <ele>2233</ele>
        <time>2021-08-12T08:45:45.422Z</time>
      </trkpt>
      <trkpt lat="46.86829" lon="8.47383">
        <ele>2233</ele>
        <time>2021-08-12T08:45:46.422Z</time>
      </trkpt>
      <trkpt lat="46.86829" lon="8.47383">
        <ele>2233</ele>
        <time>2021-08-12T08:45:47.422Z</time>
      </trkpt>
      <trkpt lat="46.86829" lon="8.47383">
        <ele>2233</ele>
        <time>2021-08-12T08:45:48.422Z</time>
      </trkpt>
      <trkpt lat="46.86828" lon="8.47383">
        <ele>2233</ele>
        <time>2021-08-12T08:45:49.422Z</time>
      </trkpt>
      <trkpt lat="46.86827" lon="8.47383">
        <ele>2232</ele>
        <time>2021-08-12T08:45:50.422Z</time>
      </trkpt>
      <trkpt lat="46.86826" lon="8.47384">
        <ele>2232</ele>
        <time>2021-08-12T08:45:51.421Z</time>
      </trkpt>
      <trkpt lat="46.86826" lon="8.47384">
        <ele>2232</ele>
        <time>2021-08-12T08:45:52.421Z</time>
      </trkpt>
      <trkpt lat="46.86826" lon="8.47385">
        <ele>2232</ele>
        <time>2021-08-12T08:45:53.422Z</time>
      </trkpt>
      <trkpt lat="46.86825" lon="8.47385">
        <ele>2232</ele>
        <time>2021-08-12T08:45:54.421Z</time>
      </trkpt>
      <trkpt lat="46.86824" lon="8.47386">
        <ele>2231</ele>
        <time>2021-08-12T08:45:55.421Z</time>
      </trkpt>
      <trkpt lat="46.86824" lon="8.47386">
        <ele>2231</ele>
        <time>2021-08-12T08:45:56.422Z</time>
      </trkpt>
      <trkpt lat="46.86823" lon="8.47386">
        <ele>2230</ele>
        <time>2021-08-12T08:45:57.422Z</time>
      </trkpt>
      <trkpt lat="46.86823" lon="8.47387">
        <ele>2230</ele>
        <time>2021-08-12T08:45:58.421Z</time>
      </trkpt>
      <trkpt lat="46.86823" lon="8.47386">
        <ele>2229</ele>
        <time>2021-08-12T08:45:59.421Z</time>
      </trkpt>
      <trkpt lat="46.86823" lon="8.47383">
        <ele>2227</ele>
        <time>2021-08-12T08:46:00.422Z</time>
      </trkpt>
      <trkpt lat="46.86823" lon="8.47383">
        <ele>2222</ele>
        <time>2021-08-12T08:46:01.423Z</time>
      </trkpt>
      <trkpt lat="46.86823" lon="8.47383">
        <ele>2222</ele>
        <time>2021-08-12T08:46:02.423Z</time>
      </trkpt>
      <trkpt lat="46.86823" lon="8.47384">
        <ele>2222</ele>
        <time>2021-08-12T08:46:03.423Z</time>
      </trkpt>
      <trkpt lat="46.86822" lon="8.47384">
        <ele>2222</ele>
        <time>2021-08-12T08:46:04.422Z</time>
      </trkpt>
      <trkpt lat="46.86822" lon="8.47383">
        <ele>2223</ele>
        <time>2021-08-12T08:46:05.423Z</time>
      </trkpt>
      <trkpt lat="46.86821" lon="8.47383">
        <ele>2223</ele>
        <time>2021-08-12T08:46:06.423Z</time>
      </trkpt>
      <trkpt lat="46.8682" lon="8.47383">
        <ele>2223</ele>
        <time>2021-08-12T08:46:07.423Z</time>
      </trkpt>
      <trkpt lat="46.8682" lon="8.47384">
        <ele>2224</ele>
        <time>2021-08-12T08:46:08.422Z</time>
      </trkpt>
      <trkpt lat="46.86819" lon="8.47384">
        <ele>2224</ele>
        <time>2021-08-12T08:46:09.422Z</time>
      </trkpt>
      <trkpt lat="46.86819" lon="8.47385">
        <ele>2225</ele>
        <time>2021-08-12T08:46:10.423Z</time>
      </trkpt>
      <trkpt lat="46.86818" lon="8.47385">
        <ele>2225</ele>
        <time>2021-08-12T08:46:11.422Z</time>
      </trkpt>
      <trkpt lat="46.86817" lon="8.47385">
        <ele>2226</ele>
        <time>2021-08-12T08:46:12.422Z</time>
      </trkpt>
      <trkpt lat="46.86816" lon="8.47385">
        <ele>2226</ele>
        <time>2021-08-12T08:46:13.423Z</time>
      </trkpt>
      <trkpt lat="46.86815" lon="8.47386">
        <ele>2227</ele>
        <time>2021-08-12T08:46:14.423Z</time>
      </trkpt>
      <trkpt lat="46.86814" lon="8.47386">
        <ele>2227</ele>
        <time>2021-08-12T08:46:15.423Z</time>
      </trkpt>
      <trkpt lat="46.86813" lon="8.47386">
        <ele>2227</ele>
        <time>2021-08-12T08:46:16.423Z</time>
      </trkpt>
      <trkpt lat="46.86812" lon="8.47386">
        <ele>2228</ele>
        <time>2021-08-12T08:46:17.423Z</time>
      </trkpt>
      <trkpt lat="46.8681" lon="8.47385">
        <ele>2228</ele>
        <time>2021-08-12T08:46:18.422Z</time>
      </trkpt>
      <trkpt lat="46.86809" lon="8.47385">
        <ele>2228</ele>
        <time>2021-08-12T08:46:19.423Z</time>
      </trkpt>
      <trkpt lat="46.86808" lon="8.47384">
        <ele>2229</ele>
        <time>2021-08-12T08:46:20.423Z</time>
      </trkpt>
      <trkpt lat="46.86808" lon="8.47384">
        <ele>2229</ele>
        <time>2021-08-12T08:46:21.422Z</time>
      </trkpt>
      <trkpt lat="46.86808" lon="8.47384">
        <ele>2229</ele>
        <time>2021-08-12T08:46:22.422Z</time>
      </trkpt>
      <trkpt lat="46.86807" lon="8.47384">
        <ele>2229</ele>
        <time>2021-08-12T08:46:23.422Z</time>
      </trkpt>
      <trkpt lat="46.86806" lon="8.47384">
        <ele>2230</ele>
        <time>2021-08-12T08:46:24.423Z</time>
      </trkpt>
      <trkpt lat="46.86806" lon="8.47384">
        <ele>2230</ele>
        <time>2021-08-12T08:46:25.423Z</time>
      </trkpt>
      <trkpt lat="46.86805" lon="8.47384">
        <ele>2230</ele>
        <time>2021-08-12T08:46:26.422Z</time>
      </trkpt>
      <trkpt lat="46.86804" lon="8.47384">
        <ele>2230</ele>
        <time>2021-08-12T08:46:27.423Z</time>
      </trkpt>
      <trkpt lat="46.86803" lon="8.47384">
        <ele>2230</ele>
        <time>2021-08-12T08:46:28.423Z</time>
      </trkpt>
      <trkpt lat="46.86803" lon="8.47384">
        <ele>2229</ele>
        <time>2021-08-12T08:46:29.422Z</time>
      </trkpt>
      <trkpt lat="46.86803" lon="8.47384">
        <ele>2229</ele>
        <time>2021-08-12T08:46:30.423Z</time>
      </trkpt>
      <trkpt lat="46.86802" lon="8.47383">
        <ele>2230</ele>
        <time>2021-08-12T08:46:31.423Z</time>
      </trkpt>
      <trkpt lat="46.86802" lon="8.47383">
        <ele>2230</ele>
        <time>2021-08-12T08:46:32.423Z</time>
      </trkpt>
      <trkpt lat="46.86801" lon="8.47383">
        <ele>2231</ele>
        <time>2021-08-12T08:46:33.423Z</time>
      </trkpt>
      <trkpt lat="46.868" lon="8.47384">
        <ele>2231</ele>
        <time>2021-08-12T08:46:34.422Z</time>
      </trkpt>
      <trkpt lat="46.868" lon="8.47385">
        <ele>2232</ele>
        <time>2021-08-12T08:46:35.423Z</time>
      </trkpt>
      <trkpt lat="46.86799" lon="8.47386">
        <ele>2232</ele>
        <time>2021-08-12T08:46:36.422Z</time>
      </trkpt>
      <trkpt lat="46.86799" lon="8.47386">
        <ele>2232</ele>
        <time>2021-08-12T08:46:37.423Z</time>
      </trkpt>
      <trkpt lat="46.86798" lon="8.47386">
        <ele>2232</ele>
        <time>2021-08-12T08:46:38.422Z</time>
      </trkpt>
      <trkpt lat="46.86796" lon="8.47384">
        <ele>2232</ele>
        <time>2021-08-12T08:46:39.423Z</time>
      </trkpt>
      <trkpt lat="46.86796" lon="8.47383">
        <ele>2232</ele>
        <time>2021-08-12T08:46:40.423Z</time>
      </trkpt>
      <trkpt lat="46.86796" lon="8.47382">
        <ele>2232</ele>
        <time>2021-08-12T08:46:41.422Z</time>
      </trkpt>
      <trkpt lat="46.86795" lon="8.47382">
        <ele>2232</ele>
        <time>2021-08-12T08:46:42.422Z</time>
      </trkpt>
      <trkpt lat="46.86794" lon="8.47381">
        <ele>2232</ele>
        <time>2021-08-12T08:46:43.422Z</time>
      </trkpt>
      <trkpt lat="46.86794" lon="8.47381">
        <ele>2232</ele>
        <time>2021-08-12T08:46:44.423Z</time>
      </trkpt>
      <trkpt lat="46.86794" lon="8.4738">
        <ele>2232</ele>
        <time>2021-08-12T08:46:45.423Z</time>
      </trkpt>
      <trkpt lat="46.86794" lon="8.4738">
        <ele>2231</ele>
        <time>2021-08-12T08:46:46.422Z</time>
      </trkpt>
      <trkpt lat="46.86793" lon="8.4738">
        <ele>2231</ele>
        <time>2021-08-12T08:46:47.422Z</time>
      </trkpt>
      <trkpt lat="46.86792" lon="8.4738">
        <ele>2231</ele>
        <time>2021-08-12T08:46:48.423Z</time>
      </trkpt>
      <trkpt lat="46.8679" lon="8.4738">
        <ele>2230</ele>
        <time>2021-08-12T08:46:49.422Z</time>
      </trkpt>
      <trkpt lat="46.8679" lon="8.47381">
        <ele>2230</ele>
        <time>2021-08-12T08:46:50.423Z</time>
      </trkpt>
      <trkpt lat="46.86788" lon="8.47381">
        <ele>2229</ele>
        <time>2021-08-12T08:46:51.423Z</time>
      </trkpt>
      <trkpt lat="46.86788" lon="8.47382">
        <ele>2229</ele>
        <time>2021-08-12T08:46:52.423Z</time>
      </trkpt>
      <trkpt lat="46.86788" lon="8.47382">
        <ele>2229</ele>
        <time>2021-08-12T08:46:53.423Z</time>
      </trkpt>
      <trkpt lat="46.86787" lon="8.47382">
        <ele>2228</ele>
        <time>2021-08-12T08:46:54.422Z</time>
      </trkpt>
      <trkpt lat="46.86787" lon="8.47383">
        <ele>2228</ele>
        <time>2021-08-12T08:46:55.423Z</time>
      </trkpt>
      <trkpt lat="46.86786" lon="8.47384">
        <ele>2228</ele>
        <time>2021-08-12T08:46:56.423Z</time>
      </trkpt>
      <trkpt lat="46.86785" lon="8.47385">
        <ele>2227</ele>
        <time>2021-08-12T08:46:57.422Z</time>
      </trkpt>
      <trkpt lat="46.86784" lon="8.47386">
        <ele>2226</ele>
        <time>2021-08-12T08:46:58.422Z</time>
      </trkpt>
      <trkpt lat="46.86783" lon="8.47386">
        <ele>2225</ele>
        <time>2021-08-12T08:46:59.422Z</time>
      </trkpt>
      <trkpt lat="46.86783" lon="8.47386">
        <ele>2225</ele>
        <time>2021-08-12T08:47:00.422Z</time>
      </trkpt>
      <trkpt lat="46.86781" lon="8.47386">
        <ele>2224</ele>
        <time>2021-08-12T08:47:01.423Z</time>
      </trkpt>
      <trkpt lat="46.8678" lon="8.47386">
        <ele>2224</ele>
        <time>2021-08-12T08:47:02.422Z</time>
      </trkpt>
      <trkpt lat="46.86779" lon="8.47386">
        <ele>2223</ele>
        <time>2021-08-12T08:47:03.422Z</time>
      </trkpt>
      <trkpt lat="46.86778" lon="8.47387">
        <ele>2223</ele>
        <time>2021-08-12T08:47:04.423Z</time>
      </trkpt>
      <trkpt lat="46.86777" lon="8.47387">
        <ele>2222</ele>
        <time>2021-08-12T08:47:05.422Z</time>
      </trkpt>
      <trkpt lat="46.86776" lon="8.47387">
        <ele>2222</ele>
        <time>2021-08-12T08:47:06.422Z</time>
      </trkpt>
      <trkpt lat="46.86775" lon="8.47387">
        <ele>2222</ele>
        <time>2021-08-12T08:47:07.423Z</time>
      </trkpt>
      <trkpt lat="46.86774" lon="8.47387">
        <ele>2221</ele>
        <time>2021-08-12T08:47:08.422Z</time>
      </trkpt>
      <trkpt lat="46.86773" lon="8.47387">
        <ele>2222</ele>
        <time>2021-08-12T08:47:09.422Z</time>
      </trkpt>
      <trkpt lat="46.86771" lon="8.47387">
        <ele>2222</ele>
        <time>2021-08-12T08:47:10.422Z</time>
      </trkpt>
      <trkpt lat="46.8677" lon="8.47387">
        <ele>2222</ele>
        <time>2021-08-12T08:47:11.423Z</time>
      </trkpt>
      <trkpt lat="46.86769" lon="8.47388">
        <ele>2222</ele>
        <time>2021-08-12T08:47:12.423Z</time>
      </trkpt>
      <trkpt lat="46.86768" lon="8.47388">
        <ele>2222</ele>
        <time>2021-08-12T08:47:13.422Z</time>
      </trkpt>
      <trkpt lat="46.86767" lon="8.47389">
        <ele>2222</ele>
        <time>2021-08-12T08:47:14.423Z</time>
      </trkpt>
      <trkpt lat="46.86767" lon="8.47389">
        <ele>2222</ele>
        <time>2021-08-12T08:47:15.422Z</time>
      </trkpt>
      <trkpt lat="46.86766" lon="8.47389">
        <ele>2222</ele>
        <time>2021-08-12T08:47:16.422Z</time>
      </trkpt>
      <trkpt lat="46.86765" lon="8.4739">
        <ele>2222</ele>
        <time>2021-08-12T08:47:17.422Z</time>
      </trkpt>
      <trkpt lat="46.86764" lon="8.4739">
        <ele>2222</ele>
        <time>2021-08-12T08:47:18.422Z</time>
      </trkpt>
      <trkpt lat="46.86763" lon="8.47391">
        <ele>2222</ele>
        <time>2021-08-12T08:47:19.422Z</time>
      </trkpt>
      <trkpt lat="46.86763" lon="8.47392">
        <ele>2222</ele>
        <time>2021-08-12T08:47:20.422Z</time>
      </trkpt>
      <trkpt lat="46.86762" lon="8.47393">
        <ele>2222</ele>
        <time>2021-08-12T08:47:21.422Z</time>
      </trkpt>
      <trkpt lat="46.86762" lon="8.47393">
        <ele>2222</ele>
        <time>2021-08-12T08:47:22.422Z</time>
      </trkpt>
      <trkpt lat="46.86761" lon="8.47393">
        <ele>2222</ele>
        <time>2021-08-12T08:47:23.422Z</time>
      </trkpt>
      <trkpt lat="46.8676" lon="8.47393">
        <ele>2222</ele>
        <time>2021-08-12T08:47:24.422Z</time>
      </trkpt>
      <trkpt lat="46.86759" lon="8.47392">
        <ele>2222</ele>
        <time>2021-08-12T08:47:25.422Z</time>
      </trkpt>
      <trkpt lat="46.86758" lon="8.47391">
        <ele>2222</ele>
        <time>2021-08-12T08:47:26.422Z</time>
      </trkpt>
      <trkpt lat="46.86757" lon="8.47391">
        <ele>2222</ele>
        <time>2021-08-12T08:47:27.422Z</time>
      </trkpt>
      <trkpt lat="46.86756" lon="8.47391">
        <ele>2222</ele>
        <time>2021-08-12T08:47:28.422Z</time>
      </trkpt>
      <trkpt lat="46.86755" lon="8.47391">
        <ele>2222</ele>
        <time>2021-08-12T08:47:29.422Z</time>
      </trkpt>
      <trkpt lat="46.86754" lon="8.47391">
        <ele>2222</ele>
        <time>2021-08-12T08:47:30.422Z</time>
      </trkpt>
      <trkpt lat="46.86754" lon="8.47391">
        <ele>2222</ele>
        <time>2021-08-12T08:47:31.422Z</time>
      </trkpt>
      <trkpt lat="46.86753" lon="8.4739">
        <ele>2221</ele>
        <time>2021-08-12T08:47:32.422Z</time>
      </trkpt>
      <trkpt lat="46.8675" lon="8.47389">
        <ele>2221</ele>
        <time>2021-08-12T08:47:33.422Z</time>
      </trkpt>
      <trkpt lat="46.86749" lon="8.47388">
        <ele>2221</ele>
        <time>2021-08-12T08:47:34.422Z</time>
      </trkpt>
      <trkpt lat="46.86749" lon="8.47387">
        <ele>2220</ele>
        <time>2021-08-12T08:47:35.423Z</time>
      </trkpt>
      <trkpt lat="46.86748" lon="8.47386">
        <ele>2220</ele>
        <time>2021-08-12T08:47:36.423Z</time>
      </trkpt>
      <trkpt lat="46.86747" lon="8.47384">
        <ele>2219</ele>
        <time>2021-08-12T08:47:37.423Z</time>
      </trkpt>
      <trkpt lat="46.86746" lon="8.47384">
        <ele>2219</ele>
        <time>2021-08-12T08:47:38.423Z</time>
      </trkpt>
      <trkpt lat="46.86746" lon="8.47384">
        <ele>2219</ele>
        <time>2021-08-12T08:47:39.423Z</time>
      </trkpt>
      <trkpt lat="46.86745" lon="8.47384">
        <ele>2219</ele>
        <time>2021-08-12T08:47:40.423Z</time>
      </trkpt>
      <trkpt lat="46.86745" lon="8.47385">
        <ele>2219</ele>
        <time>2021-08-12T08:47:41.423Z</time>
      </trkpt>
      <trkpt lat="46.86745" lon="8.47385">
        <ele>2218</ele>
        <time>2021-08-12T08:47:42.423Z</time>
      </trkpt>
      <trkpt lat="46.86745" lon="8.47385">
        <ele>2218</ele>
        <time>2021-08-12T08:47:43.423Z</time>
      </trkpt>
      <trkpt lat="46.86744" lon="8.47386">
        <ele>2219</ele>
        <time>2021-08-12T08:47:44.423Z</time>
      </trkpt>
      <trkpt lat="46.86742" lon="8.47387">
        <ele>2219</ele>
        <time>2021-08-12T08:47:45.423Z</time>
      </trkpt>
      <trkpt lat="46.86741" lon="8.47387">
        <ele>2219</ele>
        <time>2021-08-12T08:47:46.422Z</time>
      </trkpt>
      <trkpt lat="46.86741" lon="8.47387">
        <ele>2220</ele>
        <time>2021-08-12T08:47:47.423Z</time>
      </trkpt>
      <trkpt lat="46.8674" lon="8.47387">
        <ele>2220</ele>
        <time>2021-08-12T08:47:48.423Z</time>
      </trkpt>
      <trkpt lat="46.8674" lon="8.47387">
        <ele>2220</ele>
        <time>2021-08-12T08:47:49.423Z</time>
      </trkpt>
      <trkpt lat="46.86739" lon="8.47387">
        <ele>2220</ele>
        <time>2021-08-12T08:47:50.423Z</time>
      </trkpt>
      <trkpt lat="46.86738" lon="8.47387">
        <ele>2220</ele>
        <time>2021-08-12T08:47:51.422Z</time>
      </trkpt>
      <trkpt lat="46.86738" lon="8.47387">
        <ele>2220</ele>
        <time>2021-08-12T08:47:52.423Z</time>
      </trkpt>
      <trkpt lat="46.86738" lon="8.47387">
        <ele>2220</ele>
        <time>2021-08-12T08:47:53.423Z</time>
      </trkpt>
      <trkpt lat="46.86738" lon="8.47386">
        <ele>2220</ele>
        <time>2021-08-12T08:47:54.422Z</time>
      </trkpt>
      <trkpt lat="46.86737" lon="8.47386">
        <ele>2220</ele>
        <time>2021-08-12T08:47:55.422Z</time>
      </trkpt>
      <trkpt lat="46.86738" lon="8.47385">
        <ele>2219</ele>
        <time>2021-08-12T08:47:56.422Z</time>
      </trkpt>
      <trkpt lat="46.86738" lon="8.47384">
        <ele>2219</ele>
        <time>2021-08-12T08:47:57.423Z</time>
      </trkpt>
      <trkpt lat="46.86735" lon="8.47382">
        <ele>2218</ele>
        <time>2021-08-12T08:47:58.423Z</time>
      </trkpt>
      <trkpt lat="46.86735" lon="8.47381">
        <ele>2218</ele>
        <time>2021-08-12T08:47:59.422Z</time>
      </trkpt>
      <trkpt lat="46.86734" lon="8.47381">
        <ele>2219</ele>
        <time>2021-08-12T08:48:00.423Z</time>
      </trkpt>
      <trkpt lat="46.86734" lon="8.4738">
        <ele>2219</ele>
        <time>2021-08-12T08:48:01.422Z</time>
      </trkpt>
      <trkpt lat="46.86733" lon="8.4738">
        <ele>2219</ele>
        <time>2021-08-12T08:48:02.423Z</time>
      </trkpt>
      <trkpt lat="46.86733" lon="8.4738">
        <ele>2219</ele>
        <time>2021-08-12T08:48:03.422Z</time>
      </trkpt>
      <trkpt lat="46.86732" lon="8.47379">
        <ele>2219</ele>
        <time>2021-08-12T08:48:04.423Z</time>
      </trkpt>
      <trkpt lat="46.86731" lon="8.47378">
        <ele>2219</ele>
        <time>2021-08-12T08:48:05.422Z</time>
      </trkpt>
      <trkpt lat="46.8673" lon="8.47377">
        <ele>2220</ele>
        <time>2021-08-12T08:48:06.423Z</time>
      </trkpt>
      <trkpt lat="46.8673" lon="8.47376">
        <ele>2220</ele>
        <time>2021-08-12T08:48:07.423Z</time>
      </trkpt>
      <trkpt lat="46.8673" lon="8.47376">
        <ele>2220</ele>
        <time>2021-08-12T08:48:08.422Z</time>
      </trkpt>
      <trkpt lat="46.86729" lon="8.47375">
        <ele>2220</ele>
        <time>2021-08-12T08:48:09.423Z</time>
      </trkpt>
      <trkpt lat="46.86728" lon="8.47375">
        <ele>2220</ele>
        <time>2021-08-12T08:48:10.422Z</time>
      </trkpt>
      <trkpt lat="46.86728" lon="8.47375">
        <ele>2221</ele>
        <time>2021-08-12T08:48:11.423Z</time>
      </trkpt>
      <trkpt lat="46.86727" lon="8.47374">
        <ele>2221</ele>
        <time>2021-08-12T08:48:12.422Z</time>
      </trkpt>
      <trkpt lat="46.86727" lon="8.47373">
        <ele>2221</ele>
        <time>2021-08-12T08:48:13.423Z</time>
      </trkpt>
      <trkpt lat="46.86727" lon="8.47372">
        <ele>2222</ele>
        <time>2021-08-12T08:48:14.423Z</time>
      </trkpt>
      <trkpt lat="46.86726" lon="8.47371">
        <ele>2222</ele>
        <time>2021-08-12T08:48:15.423Z</time>
      </trkpt>
      <trkpt lat="46.86725" lon="8.4737">
        <ele>2222</ele>
        <time>2021-08-12T08:48:16.423Z</time>
      </trkpt>
      <trkpt lat="46.86724" lon="8.4737">
        <ele>2222</ele>
        <time>2021-08-12T08:48:17.423Z</time>
      </trkpt>
      <trkpt lat="46.86724" lon="8.47369">
        <ele>2222</ele>
        <time>2021-08-12T08:48:18.423Z</time>
      </trkpt>
      <trkpt lat="46.86723" lon="8.47369">
        <ele>2221</ele>
        <time>2021-08-12T08:48:19.422Z</time>
      </trkpt>
      <trkpt lat="46.86722" lon="8.47369">
        <ele>2221</ele>
        <time>2021-08-12T08:48:20.422Z</time>
      </trkpt>
      <trkpt lat="46.86721" lon="8.47368">
        <ele>2220</ele>
        <time>2021-08-12T08:48:21.423Z</time>
      </trkpt>
      <trkpt lat="46.8672" lon="8.47368">
        <ele>2220</ele>
        <time>2021-08-12T08:48:22.423Z</time>
      </trkpt>
      <trkpt lat="46.8672" lon="8.47367">
        <ele>2219</ele>
        <time>2021-08-12T08:48:23.423Z</time>
      </trkpt>
      <trkpt lat="46.86719" lon="8.47367">
        <ele>2219</ele>
        <time>2021-08-12T08:48:24.422Z</time>
      </trkpt>
      <trkpt lat="46.86719" lon="8.47366">
        <ele>2218</ele>
        <time>2021-08-12T08:48:25.423Z</time>
      </trkpt>
      <trkpt lat="46.86718" lon="8.47366">
        <ele>2218</ele>
        <time>2021-08-12T08:48:26.423Z</time>
      </trkpt>
      <trkpt lat="46.86717" lon="8.47365">
        <ele>2218</ele>
        <time>2021-08-12T08:48:27.422Z</time>
      </trkpt>
      <trkpt lat="46.86716" lon="8.47364">
        <ele>2218</ele>
        <time>2021-08-12T08:48:28.422Z</time>
      </trkpt>
      <trkpt lat="46.86715" lon="8.47363">
        <ele>2217</ele>
        <time>2021-08-12T08:48:29.423Z</time>
      </trkpt>
      <trkpt lat="46.86714" lon="8.47363">
        <ele>2217</ele>
        <time>2021-08-12T08:48:30.422Z</time>
      </trkpt>
      <trkpt lat="46.86714" lon="8.47362">
        <ele>2217</ele>
        <time>2021-08-12T08:48:31.423Z</time>
      </trkpt>
      <trkpt lat="46.86713" lon="8.47361">
        <ele>2217</ele>
        <time>2021-08-12T08:48:32.423Z</time>
      </trkpt>
      <trkpt lat="46.86713" lon="8.47361">
        <ele>2217</ele>
        <time>2021-08-12T08:48:33.422Z</time>
      </trkpt>
      <trkpt lat="46.86713" lon="8.47361">
        <ele>2217</ele>
        <time>2021-08-12T08:48:34.422Z</time>
      </trkpt>
      <trkpt lat="46.86714" lon="8.4736">
        <ele>2217</ele>
        <time>2021-08-12T08:48:35.422Z</time>
      </trkpt>
      <trkpt lat="46.86713" lon="8.4736">
        <ele>2217</ele>
        <time>2021-08-12T08:48:36.423Z</time>
      </trkpt>
      <trkpt lat="46.86712" lon="8.4736">
        <ele>2216</ele>
        <time>2021-08-12T08:48:37.422Z</time>
      </trkpt>
      <trkpt lat="46.86711" lon="8.4736">
        <ele>2216</ele>
        <time>2021-08-12T08:48:38.422Z</time>
      </trkpt>
      <trkpt lat="46.8671" lon="8.4736">
        <ele>2216</ele>
        <time>2021-08-12T08:48:39.423Z</time>
      </trkpt>
      <trkpt lat="46.8671" lon="8.47359">
        <ele>2215</ele>
        <time>2021-08-12T08:48:40.423Z</time>
      </trkpt>
      <trkpt lat="46.86708" lon="8.47358">
        <ele>2216</ele>
        <time>2021-08-12T08:48:41.422Z</time>
      </trkpt>
      <trkpt lat="46.86708" lon="8.47358">
        <ele>2216</ele>
        <time>2021-08-12T08:48:42.422Z</time>
      </trkpt>
      <trkpt lat="46.86707" lon="8.47357">
        <ele>2217</ele>
        <time>2021-08-12T08:48:43.422Z</time>
      </trkpt>
      <trkpt lat="46.86705" lon="8.47356">
        <ele>2217</ele>
        <time>2021-08-12T08:48:44.423Z</time>
      </trkpt>
      <trkpt lat="46.86705" lon="8.47356">
        <ele>2218</ele>
        <time>2021-08-12T08:48:45.423Z</time>
      </trkpt>
      <trkpt lat="46.86704" lon="8.47356">
        <ele>2219</ele>
        <time>2021-08-12T08:48:46.423Z</time>
      </trkpt>
      <trkpt lat="46.86703" lon="8.47355">
        <ele>2220</ele>
        <time>2021-08-12T08:48:47.423Z</time>
      </trkpt>
      <trkpt lat="46.86702" lon="8.47355">
        <ele>2220</ele>
        <time>2021-08-12T08:48:48.423Z</time>
      </trkpt>
      <trkpt lat="46.86701" lon="8.47354">
        <ele>2220</ele>
        <time>2021-08-12T08:48:49.422Z</time>
      </trkpt>
      <trkpt lat="46.867" lon="8.47354">
        <ele>2221</ele>
        <time>2021-08-12T08:48:50.423Z</time>
      </trkpt>
      <trkpt lat="46.86698" lon="8.47353">
        <ele>2222</ele>
        <time>2021-08-12T08:48:51.423Z</time>
      </trkpt>
      <trkpt lat="46.86698" lon="8.47353">
        <ele>2222</ele>
        <time>2021-08-12T08:48:52.422Z</time>
      </trkpt>
      <trkpt lat="46.86697" lon="8.47353">
        <ele>2222</ele>
        <time>2021-08-12T08:48:53.422Z</time>
      </trkpt>
      <trkpt lat="46.86696" lon="8.47353">
        <ele>2223</ele>
        <time>2021-08-12T08:48:54.422Z</time>
      </trkpt>
      <trkpt lat="46.86696" lon="8.47352">
        <ele>2223</ele>
        <time>2021-08-12T08:48:55.423Z</time>
      </trkpt>
      <trkpt lat="46.86696" lon="8.47353">
        <ele>2223</ele>
        <time>2021-08-12T08:48:56.422Z</time>
      </trkpt>
      <trkpt lat="46.86696" lon="8.47353">
        <ele>2223</ele>
        <time>2021-08-12T08:48:57.423Z</time>
      </trkpt>
      <trkpt lat="46.86696" lon="8.47353">
        <ele>2223</ele>
        <time>2021-08-12T08:48:58.422Z</time>
      </trkpt>
      <trkpt lat="46.86696" lon="8.47352">
        <ele>2223</ele>
        <time>2021-08-12T08:48:59.422Z</time>
      </trkpt>
      <trkpt lat="46.86695" lon="8.47352">
        <ele>2223</ele>
        <time>2021-08-12T08:49:00.423Z</time>
      </trkpt>
      <trkpt lat="46.86695" lon="8.47351">
        <ele>2223</ele>
        <time>2021-08-12T08:49:01.422Z</time>
      </trkpt>
      <trkpt lat="46.86692" lon="8.4735">
        <ele>2220</ele>
        <time>2021-08-12T08:49:02.423Z</time>
      </trkpt>
      <trkpt lat="46.86692" lon="8.4735">
        <ele>2221</ele>
        <time>2021-08-12T08:49:03.423Z</time>
      </trkpt>
      <trkpt lat="46.86691" lon="8.47349">
        <ele>2221</ele>
        <time>2021-08-12T08:49:04.423Z</time>
      </trkpt>
      <trkpt lat="46.8669" lon="8.47349">
        <ele>2221</ele>
        <time>2021-08-12T08:49:05.423Z</time>
      </trkpt>
      <trkpt lat="46.86689" lon="8.47349">
        <ele>2221</ele>
        <time>2021-08-12T08:49:06.422Z</time>
      </trkpt>
      <trkpt lat="46.86688" lon="8.47348">
        <ele>2221</ele>
        <time>2021-08-12T08:49:07.423Z</time>
      </trkpt>
      <trkpt lat="46.86688" lon="8.47348">
        <ele>2221</ele>
        <time>2021-08-12T08:49:08.423Z</time>
      </trkpt>
      <trkpt lat="46.86687" lon="8.47347">
        <ele>2220</ele>
        <time>2021-08-12T08:49:09.423Z</time>
      </trkpt>
      <trkpt lat="46.86687" lon="8.47346">
        <ele>2219</ele>
        <time>2021-08-12T08:49:10.423Z</time>
      </trkpt>
      <trkpt lat="46.86686" lon="8.47346">
        <ele>2219</ele>
        <time>2021-08-12T08:49:11.423Z</time>
      </trkpt>
      <trkpt lat="46.86686" lon="8.47346">
        <ele>2218</ele>
        <time>2021-08-12T08:49:12.423Z</time>
      </trkpt>
      <trkpt lat="46.86685" lon="8.47345">
        <ele>2218</ele>
        <time>2021-08-12T08:49:13.423Z</time>
      </trkpt>
      <trkpt lat="46.86685" lon="8.47344">
        <ele>2218</ele>
        <time>2021-08-12T08:49:14.422Z</time>
      </trkpt>
      <trkpt lat="46.86684" lon="8.47343">
        <ele>2217</ele>
        <time>2021-08-12T08:49:15.423Z</time>
      </trkpt>
      <trkpt lat="46.86684" lon="8.47342">
        <ele>2217</ele>
        <time>2021-08-12T08:49:16.423Z</time>
      </trkpt>
      <trkpt lat="46.86683" lon="8.47342">
        <ele>2216</ele>
        <time>2021-08-12T08:49:17.423Z</time>
      </trkpt>
      <trkpt lat="46.86683" lon="8.47341">
        <ele>2215</ele>
        <time>2021-08-12T08:49:18.423Z</time>
      </trkpt>
      <trkpt lat="46.86682" lon="8.47341">
        <ele>2215</ele>
        <time>2021-08-12T08:49:19.423Z</time>
      </trkpt>
      <trkpt lat="46.86682" lon="8.4734">
        <ele>2214</ele>
        <time>2021-08-12T08:49:20.422Z</time>
      </trkpt>
      <trkpt lat="46.86681" lon="8.4734">
        <ele>2214</ele>
        <time>2021-08-12T08:49:21.422Z</time>
      </trkpt>
      <trkpt lat="46.8668" lon="8.4734">
        <ele>2213</ele>
        <time>2021-08-12T08:49:22.422Z</time>
      </trkpt>
      <trkpt lat="46.86679" lon="8.4734">
        <ele>2213</ele>
        <time>2021-08-12T08:49:23.423Z</time>
      </trkpt>
      <trkpt lat="46.86679" lon="8.4734">
        <ele>2213</ele>
        <time>2021-08-12T08:49:24.423Z</time>
      </trkpt>
      <trkpt lat="46.86677" lon="8.4734">
        <ele>2213</ele>
        <time>2021-08-12T08:49:25.423Z</time>
      </trkpt>
      <trkpt lat="46.86676" lon="8.4734">
        <ele>2212</ele>
        <time>2021-08-12T08:49:26.423Z</time>
      </trkpt>
      <trkpt lat="46.86675" lon="8.4734">
        <ele>2212</ele>
        <time>2021-08-12T08:49:27.422Z</time>
      </trkpt>
      <trkpt lat="46.86674" lon="8.4734">
        <ele>2212</ele>
        <time>2021-08-12T08:49:28.423Z</time>
      </trkpt>
      <trkpt lat="46.86673" lon="8.47341">
        <ele>2212</ele>
        <time>2021-08-12T08:49:29.423Z</time>
      </trkpt>
      <trkpt lat="46.86672" lon="8.47341">
        <ele>2211</ele>
        <time>2021-08-12T08:49:30.422Z</time>
      </trkpt>
      <trkpt lat="46.86671" lon="8.47341">
        <ele>2211</ele>
        <time>2021-08-12T08:49:31.423Z</time>
      </trkpt>
      <trkpt lat="46.86671" lon="8.47341">
        <ele>2211</ele>
        <time>2021-08-12T08:49:32.422Z</time>
      </trkpt>
      <trkpt lat="46.8667" lon="8.4734">
        <ele>2211</ele>
        <time>2021-08-12T08:49:33.422Z</time>
      </trkpt>
      <trkpt lat="46.8667" lon="8.4734">
        <ele>2211</ele>
        <time>2021-08-12T08:49:34.423Z</time>
      </trkpt>
      <trkpt lat="46.8667" lon="8.4734">
        <ele>2211</ele>
        <time>2021-08-12T08:49:35.423Z</time>
      </trkpt>
      <trkpt lat="46.86669" lon="8.4734">
        <ele>2211</ele>
        <time>2021-08-12T08:49:36.423Z</time>
      </trkpt>
      <trkpt lat="46.86668" lon="8.4734">
        <ele>2210</ele>
        <time>2021-08-12T08:49:37.422Z</time>
      </trkpt>
      <trkpt lat="46.86667" lon="8.4734">
        <ele>2210</ele>
        <time>2021-08-12T08:49:38.423Z</time>
      </trkpt>
      <trkpt lat="46.86665" lon="8.4734">
        <ele>2210</ele>
        <time>2021-08-12T08:49:39.423Z</time>
      </trkpt>
      <trkpt lat="46.86663" lon="8.47341">
        <ele>2209</ele>
        <time>2021-08-12T08:49:40.422Z</time>
      </trkpt>
      <trkpt lat="46.86663" lon="8.47341">
        <ele>2209</ele>
        <time>2021-08-12T08:49:41.422Z</time>
      </trkpt>
      <trkpt lat="46.86662" lon="8.47342">
        <ele>2209</ele>
        <time>2021-08-12T08:49:42.423Z</time>
      </trkpt>
      <trkpt lat="46.86661" lon="8.47343">
        <ele>2209</ele>
        <time>2021-08-12T08:49:43.422Z</time>
      </trkpt>
      <trkpt lat="46.8666" lon="8.47343">
        <ele>2209</ele>
        <time>2021-08-12T08:49:44.422Z</time>
      </trkpt>
      <trkpt lat="46.8666" lon="8.47343">
        <ele>2209</ele>
        <time>2021-08-12T08:49:45.422Z</time>
      </trkpt>
      <trkpt lat="46.86659" lon="8.47344">
        <ele>2209</ele>
        <time>2021-08-12T08:49:46.423Z</time>
      </trkpt>
      <trkpt lat="46.86658" lon="8.47344">
        <ele>2209</ele>
        <time>2021-08-12T08:49:47.422Z</time>
      </trkpt>
      <trkpt lat="46.86658" lon="8.47345">
        <ele>2209</ele>
        <time>2021-08-12T08:49:48.423Z</time>
      </trkpt>
      <trkpt lat="46.86657" lon="8.47345">
        <ele>2208</ele>
        <time>2021-08-12T08:49:49.423Z</time>
      </trkpt>
      <trkpt lat="46.86657" lon="8.47346">
        <ele>2208</ele>
        <time>2021-08-12T08:49:50.423Z</time>
      </trkpt>
      <trkpt lat="46.86656" lon="8.47347">
        <ele>2208</ele>
        <time>2021-08-12T08:49:51.423Z</time>
      </trkpt>
      <trkpt lat="46.86656" lon="8.47348">
        <ele>2208</ele>
        <time>2021-08-12T08:49:52.423Z</time>
      </trkpt>
      <trkpt lat="46.86655" lon="8.47348">
        <ele>2207</ele>
        <time>2021-08-12T08:49:53.422Z</time>
      </trkpt>
      <trkpt lat="46.86655" lon="8.47349">
        <ele>2207</ele>
        <time>2021-08-12T08:49:54.423Z</time>
      </trkpt>
      <trkpt lat="46.86655" lon="8.4735">
        <ele>2207</ele>
        <time>2021-08-12T08:49:55.422Z</time>
      </trkpt>
      <trkpt lat="46.86655" lon="8.47351">
        <ele>2206</ele>
        <time>2021-08-12T08:49:56.422Z</time>
      </trkpt>
      <trkpt lat="46.86654" lon="8.47352">
        <ele>2206</ele>
        <time>2021-08-12T08:49:57.423Z</time>
      </trkpt>
      <trkpt lat="46.86653" lon="8.47353">
        <ele>2206</ele>
        <time>2021-08-12T08:49:58.423Z</time>
      </trkpt>
      <trkpt lat="46.86652" lon="8.47353">
        <ele>2206</ele>
        <time>2021-08-12T08:49:59.422Z</time>
      </trkpt>
      <trkpt lat="46.86651" lon="8.47354">
        <ele>2206</ele>
        <time>2021-08-12T08:50:00.422Z</time>
      </trkpt>
      <trkpt lat="46.8665" lon="8.47354">
        <ele>2206</ele>
        <time>2021-08-12T08:50:01.423Z</time>
      </trkpt>
      <trkpt lat="46.86649" lon="8.47353">
        <ele>2207</ele>
        <time>2021-08-12T08:50:02.423Z</time>
      </trkpt>
      <trkpt lat="46.86648" lon="8.47354">
        <ele>2207</ele>
        <time>2021-08-12T08:50:03.423Z</time>
      </trkpt>
      <trkpt lat="46.86648" lon="8.47353">
        <ele>2208</ele>
        <time>2021-08-12T08:50:04.422Z</time>
      </trkpt>
      <trkpt lat="46.86646" lon="8.47353">
        <ele>2209</ele>
        <time>2021-08-12T08:50:05.422Z</time>
      </trkpt>
      <trkpt lat="46.86645" lon="8.47353">
        <ele>2210</ele>
        <time>2021-08-12T08:50:06.423Z</time>
      </trkpt>
      <trkpt lat="46.86644" lon="8.47354">
        <ele>2210</ele>
        <time>2021-08-12T08:50:07.422Z</time>
      </trkpt>
      <trkpt lat="46.86643" lon="8.47355">
        <ele>2211</ele>
        <time>2021-08-12T08:50:08.422Z</time>
      </trkpt>
      <trkpt lat="46.86643" lon="8.47357">
        <ele>2211</ele>
        <time>2021-08-12T08:50:09.423Z</time>
      </trkpt>
      <trkpt lat="46.86642" lon="8.47358">
        <ele>2211</ele>
        <time>2021-08-12T08:50:10.423Z</time>
      </trkpt>
      <trkpt lat="46.86642" lon="8.47359">
        <ele>2212</ele>
        <time>2021-08-12T08:50:11.422Z</time>
      </trkpt>
      <trkpt lat="46.86641" lon="8.4736">
        <ele>2212</ele>
        <time>2021-08-12T08:50:12.422Z</time>
      </trkpt>
      <trkpt lat="46.8664" lon="8.4736">
        <ele>2213</ele>
        <time>2021-08-12T08:50:13.422Z</time>
      </trkpt>
      <trkpt lat="46.8664" lon="8.4736">
        <ele>2213</ele>
        <time>2021-08-12T08:50:14.423Z</time>
      </trkpt>
      <trkpt lat="46.86639" lon="8.47361">
        <ele>2214</ele>
        <time>2021-08-12T08:50:15.422Z</time>
      </trkpt>
      <trkpt lat="46.86639" lon="8.4736">
        <ele>2214</ele>
        <time>2021-08-12T08:50:16.422Z</time>
      </trkpt>
      <trkpt lat="46.86639" lon="8.47359">
        <ele>2215</ele>
        <time>2021-08-12T08:50:17.422Z</time>
      </trkpt>
      <trkpt lat="46.86639" lon="8.47359">
        <ele>2216</ele>
        <time>2021-08-12T08:50:18.422Z</time>
      </trkpt>
      <trkpt lat="46.86639" lon="8.47358">
        <ele>2216</ele>
        <time>2021-08-12T08:50:19.422Z</time>
      </trkpt>
      <trkpt lat="46.86638" lon="8.47357">
        <ele>2217</ele>
        <time>2021-08-12T08:50:20.422Z</time>
      </trkpt>
      <trkpt lat="46.86636" lon="8.47356">
        <ele>2217</ele>
        <time>2021-08-12T08:50:21.422Z</time>
      </trkpt>
      <trkpt lat="46.86635" lon="8.47355">
        <ele>2217</ele>
        <time>2021-08-12T08:50:22.422Z</time>
      </trkpt>
      <trkpt lat="46.86634" lon="8.47354">
        <ele>2217</ele>
        <time>2021-08-12T08:50:23.422Z</time>
      </trkpt>
      <trkpt lat="46.86633" lon="8.47355">
        <ele>2218</ele>
        <time>2021-08-12T08:50:24.422Z</time>
      </trkpt>
      <trkpt lat="46.86632" lon="8.47356">
        <ele>2218</ele>
        <time>2021-08-12T08:50:25.422Z</time>
      </trkpt>
      <trkpt lat="46.86631" lon="8.47357">
        <ele>2218</ele>
        <time>2021-08-12T08:50:26.422Z</time>
      </trkpt>
      <trkpt lat="46.8663" lon="8.47358">
        <ele>2218</ele>
        <time>2021-08-12T08:50:27.422Z</time>
      </trkpt>
      <trkpt lat="46.8663" lon="8.47359">
        <ele>2218</ele>
        <time>2021-08-12T08:50:28.422Z</time>
      </trkpt>
      <trkpt lat="46.86629" lon="8.4736">
        <ele>2218</ele>
        <time>2021-08-12T08:50:29.422Z</time>
      </trkpt>
      <trkpt lat="46.86628" lon="8.47361">
        <ele>2218</ele>
        <time>2021-08-12T08:50:30.423Z</time>
      </trkpt>
      <trkpt lat="46.86627" lon="8.47362">
        <ele>2219</ele>
        <time>2021-08-12T08:50:31.422Z</time>
      </trkpt>
      <trkpt lat="46.86627" lon="8.47363">
        <ele>2219</ele>
        <time>2021-08-12T08:50:32.422Z</time>
      </trkpt>
      <trkpt lat="46.86626" lon="8.47365">
        <ele>2219</ele>
        <time>2021-08-12T08:50:33.422Z</time>
      </trkpt>
      <trkpt lat="46.86626" lon="8.47366">
        <ele>2219</ele>
        <time>2021-08-12T08:50:34.422Z</time>
      </trkpt>
      <trkpt lat="46.86625" lon="8.47368">
        <ele>2218</ele>
        <time>2021-08-12T08:50:35.422Z</time>
      </trkpt>
      <trkpt lat="46.86623" lon="8.4737">
        <ele>2218</ele>
        <time>2021-08-12T08:50:36.422Z</time>
      </trkpt>
      <trkpt lat="46.86622" lon="8.47371">
        <ele>2218</ele>
        <time>2021-08-12T08:50:37.422Z</time>
      </trkpt>
      <trkpt lat="46.86622" lon="8.47373">
        <ele>2217</ele>
        <time>2021-08-12T08:50:38.423Z</time>
      </trkpt>
      <trkpt lat="46.86621" lon="8.47374">
        <ele>2217</ele>
        <time>2021-08-12T08:50:39.422Z</time>
      </trkpt>
      <trkpt lat="46.8662" lon="8.47375">
        <ele>2217</ele>
        <time>2021-08-12T08:50:40.422Z</time>
      </trkpt>
      <trkpt lat="46.86619" lon="8.47376">
        <ele>2216</ele>
        <time>2021-08-12T08:50:41.422Z</time>
      </trkpt>
      <trkpt lat="46.86618" lon="8.47378">
        <ele>2216</ele>
        <time>2021-08-12T08:50:42.423Z</time>
      </trkpt>
      <trkpt lat="46.86617" lon="8.4738">
        <ele>2216</ele>
        <time>2021-08-12T08:50:43.423Z</time>
      </trkpt>
      <trkpt lat="46.86617" lon="8.47382">
        <ele>2216</ele>
        <time>2021-08-12T08:50:44.423Z</time>
      </trkpt>
      <trkpt lat="46.86616" lon="8.47383">
        <ele>2215</ele>
        <time>2021-08-12T08:50:45.423Z</time>
      </trkpt>
      <trkpt lat="46.86616" lon="8.47385">
        <ele>2215</ele>
        <time>2021-08-12T08:50:46.423Z</time>
      </trkpt>
      <trkpt lat="46.86615" lon="8.47386">
        <ele>2215</ele>
        <time>2021-08-12T08:50:47.423Z</time>
      </trkpt>
      <trkpt lat="46.86615" lon="8.47387">
        <ele>2215</ele>
        <time>2021-08-12T08:50:48.423Z</time>
      </trkpt>
      <trkpt lat="46.86614" lon="8.47388">
        <ele>2215</ele>
        <time>2021-08-12T08:50:49.423Z</time>
      </trkpt>
      <trkpt lat="46.86614" lon="8.47389">
        <ele>2215</ele>
        <time>2021-08-12T08:50:50.422Z</time>
      </trkpt>
      <trkpt lat="46.86614" lon="8.4739">
        <ele>2215</ele>
        <time>2021-08-12T08:50:51.423Z</time>
      </trkpt>
      <trkpt lat="46.86613" lon="8.47391">
        <ele>2215</ele>
        <time>2021-08-12T08:50:52.422Z</time>
      </trkpt>
      <trkpt lat="46.86613" lon="8.47393">
        <ele>2215</ele>
        <time>2021-08-12T08:50:53.422Z</time>
      </trkpt>
      <trkpt lat="46.86612" lon="8.47395">
        <ele>2216</ele>
        <time>2021-08-12T08:50:54.423Z</time>
      </trkpt>
      <trkpt lat="46.86613" lon="8.47396">
        <ele>2216</ele>
        <time>2021-08-12T08:50:55.423Z</time>
      </trkpt>
      <trkpt lat="46.86612" lon="8.47398">
        <ele>2217</ele>
        <time>2021-08-12T08:50:56.423Z</time>
      </trkpt>
      <trkpt lat="46.86612" lon="8.47399">
        <ele>2218</ele>
        <time>2021-08-12T08:50:57.423Z</time>
      </trkpt>
      <trkpt lat="46.86611" lon="8.47401">
        <ele>2218</ele>
        <time>2021-08-12T08:50:58.423Z</time>
      </trkpt>
      <trkpt lat="46.86611" lon="8.47402">
        <ele>2218</ele>
        <time>2021-08-12T08:50:59.422Z</time>
      </trkpt>
      <trkpt lat="46.8661" lon="8.47403">
        <ele>2218</ele>
        <time>2021-08-12T08:51:00.423Z</time>
      </trkpt>
      <trkpt lat="46.8661" lon="8.47404">
        <ele>2219</ele>
        <time>2021-08-12T08:51:01.422Z</time>
      </trkpt>
      <trkpt lat="46.8661" lon="8.47404">
        <ele>2219</ele>
        <time>2021-08-12T08:51:02.422Z</time>
      </trkpt>
      <trkpt lat="46.86609" lon="8.47404">
        <ele>2219</ele>
        <time>2021-08-12T08:51:03.423Z</time>
      </trkpt>
      <trkpt lat="46.86609" lon="8.47403">
        <ele>2218</ele>
        <time>2021-08-12T08:51:04.422Z</time>
      </trkpt>
      <trkpt lat="46.86609" lon="8.47403">
        <ele>2218</ele>
        <time>2021-08-12T08:51:05.423Z</time>
      </trkpt>
      <trkpt lat="46.86608" lon="8.47403">
        <ele>2218</ele>
        <time>2021-08-12T08:51:06.422Z</time>
      </trkpt>
      <trkpt lat="46.86608" lon="8.47404">
        <ele>2218</ele>
        <time>2021-08-12T08:51:07.422Z</time>
      </trkpt>
      <trkpt lat="46.86607" lon="8.47404">
        <ele>2218</ele>
        <time>2021-08-12T08:51:08.422Z</time>
      </trkpt>
      <trkpt lat="46.86606" lon="8.47405">
        <ele>2217</ele>
        <time>2021-08-12T08:51:09.422Z</time>
      </trkpt>
      <trkpt lat="46.86604" lon="8.47406">
        <ele>2217</ele>
        <time>2021-08-12T08:51:10.423Z</time>
      </trkpt>
      <trkpt lat="46.86604" lon="8.47407">
        <ele>2216</ele>
        <time>2021-08-12T08:51:11.423Z</time>
      </trkpt>
      <trkpt lat="46.86603" lon="8.47407">
        <ele>2216</ele>
        <time>2021-08-12T08:51:12.423Z</time>
      </trkpt>
      <trkpt lat="46.86602" lon="8.47408">
        <ele>2215</ele>
        <time>2021-08-12T08:51:13.423Z</time>
      </trkpt>
      <trkpt lat="46.86601" lon="8.47408">
        <ele>2215</ele>
        <time>2021-08-12T08:51:14.422Z</time>
      </trkpt>
      <trkpt lat="46.866" lon="8.47408">
        <ele>2214</ele>
        <time>2021-08-12T08:51:15.422Z</time>
      </trkpt>
      <trkpt lat="46.86599" lon="8.47409">
        <ele>2213</ele>
        <time>2021-08-12T08:51:16.423Z</time>
      </trkpt>
      <trkpt lat="46.86599" lon="8.4741">
        <ele>2213</ele>
        <time>2021-08-12T08:51:17.423Z</time>
      </trkpt>
      <trkpt lat="46.86598" lon="8.47411">
        <ele>2212</ele>
        <time>2021-08-12T08:51:18.423Z</time>
      </trkpt>
      <trkpt lat="46.86597" lon="8.47412">
        <ele>2211</ele>
        <time>2021-08-12T08:51:19.422Z</time>
      </trkpt>
      <trkpt lat="46.86596" lon="8.47413">
        <ele>2211</ele>
        <time>2021-08-12T08:51:20.422Z</time>
      </trkpt>
      <trkpt lat="46.86595" lon="8.47414">
        <ele>2210</ele>
        <time>2021-08-12T08:51:21.423Z</time>
      </trkpt>
      <trkpt lat="46.86595" lon="8.47414">
        <ele>2209</ele>
        <time>2021-08-12T08:51:22.423Z</time>
      </trkpt>
      <trkpt lat="46.86595" lon="8.47414">
        <ele>2209</ele>
        <time>2021-08-12T08:51:23.423Z</time>
      </trkpt>
      <trkpt lat="46.86595" lon="8.47414">
        <ele>2209</ele>
        <time>2021-08-12T08:51:24.423Z</time>
      </trkpt>
      <trkpt lat="46.86595" lon="8.47414">
        <ele>2209</ele>
        <time>2021-08-12T08:51:25.423Z</time>
      </trkpt>
      <trkpt lat="46.86595" lon="8.47416">
        <ele>2209</ele>
        <time>2021-08-12T08:51:26.423Z</time>
      </trkpt>
      <trkpt lat="46.86594" lon="8.47417">
        <ele>2210</ele>
        <time>2021-08-12T08:51:27.422Z</time>
      </trkpt>
      <trkpt lat="46.86594" lon="8.47417">
        <ele>2210</ele>
        <time>2021-08-12T08:51:28.423Z</time>
      </trkpt>
      <trkpt lat="46.86593" lon="8.47418">
        <ele>2211</ele>
        <time>2021-08-12T08:51:29.423Z</time>
      </trkpt>
      <trkpt lat="46.86592" lon="8.47418">
        <ele>2211</ele>
        <time>2021-08-12T08:51:30.423Z</time>
      </trkpt>
      <trkpt lat="46.86591" lon="8.47418">
        <ele>2211</ele>
        <time>2021-08-12T08:51:31.423Z</time>
      </trkpt>
      <trkpt lat="46.86591" lon="8.47418">
        <ele>2210</ele>
        <time>2021-08-12T08:51:32.422Z</time>
      </trkpt>
      <trkpt lat="46.8659" lon="8.47418">
        <ele>2210</ele>
        <time>2021-08-12T08:51:33.423Z</time>
      </trkpt>
      <trkpt lat="46.8659" lon="8.47419">
        <ele>2210</ele>
        <time>2021-08-12T08:51:34.423Z</time>
      </trkpt>
      <trkpt lat="46.86589" lon="8.47419">
        <ele>2210</ele>
        <time>2021-08-12T08:51:35.422Z</time>
      </trkpt>
      <trkpt lat="46.86588" lon="8.47419">
        <ele>2211</ele>
        <time>2021-08-12T08:51:36.423Z</time>
      </trkpt>
      <trkpt lat="46.86587" lon="8.4742">
        <ele>2211</ele>
        <time>2021-08-12T08:51:37.423Z</time>
      </trkpt>
      <trkpt lat="46.86587" lon="8.47422">
        <ele>2211</ele>
        <time>2021-08-12T08:51:38.422Z</time>
      </trkpt>
      <trkpt lat="46.86586" lon="8.47423">
        <ele>2211</ele>
        <time>2021-08-12T08:51:39.423Z</time>
      </trkpt>
      <trkpt lat="46.86585" lon="8.47424">
        <ele>2211</ele>
        <time>2021-08-12T08:51:40.423Z</time>
      </trkpt>
      <trkpt lat="46.86585" lon="8.47425">
        <ele>2211</ele>
        <time>2021-08-12T08:51:41.423Z</time>
      </trkpt>
      <trkpt lat="46.86584" lon="8.47425">
        <ele>2211</ele>
        <time>2021-08-12T08:51:42.422Z</time>
      </trkpt>
      <trkpt lat="46.86584" lon="8.47425">
        <ele>2212</ele>
        <time>2021-08-12T08:51:43.423Z</time>
      </trkpt>
      <trkpt lat="46.86583" lon="8.47425">
        <ele>2212</ele>
        <time>2021-08-12T08:51:44.422Z</time>
      </trkpt>
      <trkpt lat="46.86583" lon="8.47426">
        <ele>2212</ele>
        <time>2021-08-12T08:51:45.423Z</time>
      </trkpt>
      <trkpt lat="46.86582" lon="8.47427">
        <ele>2212</ele>
        <time>2021-08-12T08:51:46.422Z</time>
      </trkpt>
      <trkpt lat="46.86581" lon="8.47429">
        <ele>2212</ele>
        <time>2021-08-12T08:51:47.423Z</time>
      </trkpt>
      <trkpt lat="46.86581" lon="8.47431">
        <ele>2212</ele>
        <time>2021-08-12T08:51:48.422Z</time>
      </trkpt>
      <trkpt lat="46.8658" lon="8.47432">
        <ele>2212</ele>
        <time>2021-08-12T08:51:49.422Z</time>
      </trkpt>
      <trkpt lat="46.86579" lon="8.47432">
        <ele>2213</ele>
        <time>2021-08-12T08:51:50.423Z</time>
      </trkpt>
      <trkpt lat="46.86579" lon="8.47432">
        <ele>2213</ele>
        <time>2021-08-12T08:51:51.423Z</time>
      </trkpt>
      <trkpt lat="46.86578" lon="8.47433">
        <ele>2213</ele>
        <time>2021-08-12T08:51:52.423Z</time>
      </trkpt>
      <trkpt lat="46.86578" lon="8.47433">
        <ele>2213</ele>
        <time>2021-08-12T08:51:53.423Z</time>
      </trkpt>
      <trkpt lat="46.86578" lon="8.47434">
        <ele>2214</ele>
        <time>2021-08-12T08:51:54.422Z</time>
      </trkpt>
      <trkpt lat="46.86578" lon="8.47433">
        <ele>2214</ele>
        <time>2021-08-12T08:51:55.422Z</time>
      </trkpt>
      <trkpt lat="46.86578" lon="8.47433">
        <ele>2214</ele>
        <time>2021-08-12T08:51:56.422Z</time>
      </trkpt>
      <trkpt lat="46.86577" lon="8.47433">
        <ele>2213</ele>
        <time>2021-08-12T08:51:57.423Z</time>
      </trkpt>
      <trkpt lat="46.86576" lon="8.47433">
        <ele>2213</ele>
        <time>2021-08-12T08:51:58.422Z</time>
      </trkpt>
      <trkpt lat="46.86576" lon="8.47433">
        <ele>2213</ele>
        <time>2021-08-12T08:51:59.423Z</time>
      </trkpt>
      <trkpt lat="46.86575" lon="8.47433">
        <ele>2214</ele>
        <time>2021-08-12T08:52:00.423Z</time>
      </trkpt>
      <trkpt lat="46.86574" lon="8.47432">
        <ele>2214</ele>
        <time>2021-08-12T08:52:01.423Z</time>
      </trkpt>
      <trkpt lat="46.86573" lon="8.47432">
        <ele>2214</ele>
        <time>2021-08-12T08:52:02.422Z</time>
      </trkpt>
      <trkpt lat="46.86573" lon="8.47432">
        <ele>2215</ele>
        <time>2021-08-12T08:52:03.423Z</time>
      </trkpt>
      <trkpt lat="46.86572" lon="8.47432">
        <ele>2216</ele>
        <time>2021-08-12T08:52:04.423Z</time>
      </trkpt>
      <trkpt lat="46.86572" lon="8.47432">
        <ele>2216</ele>
        <time>2021-08-12T08:52:05.423Z</time>
      </trkpt>
      <trkpt lat="46.86572" lon="8.47431">
        <ele>2216</ele>
        <time>2021-08-12T08:52:06.422Z</time>
      </trkpt>
      <trkpt lat="46.86571" lon="8.47431">
        <ele>2217</ele>
        <time>2021-08-12T08:52:07.423Z</time>
      </trkpt>
      <trkpt lat="46.86571" lon="8.47431">
        <ele>2217</ele>
        <time>2021-08-12T08:52:08.423Z</time>
      </trkpt>
      <trkpt lat="46.8657" lon="8.47432">
        <ele>2217</ele>
        <time>2021-08-12T08:52:09.423Z</time>
      </trkpt>
      <trkpt lat="46.8657" lon="8.47432">
        <ele>2217</ele>
        <time>2021-08-12T08:52:10.422Z</time>
      </trkpt>
      <trkpt lat="46.8657" lon="8.47432">
        <ele>2217</ele>
        <time>2021-08-12T08:52:11.423Z</time>
      </trkpt>
      <trkpt lat="46.86569" lon="8.47432">
        <ele>2218</ele>
        <time>2021-08-12T08:52:12.422Z</time>
      </trkpt>
      <trkpt lat="46.86568" lon="8.47433">
        <ele>2218</ele>
        <time>2021-08-12T08:52:13.423Z</time>
      </trkpt>
      <trkpt lat="46.86568" lon="8.47433">
        <ele>2218</ele>
        <time>2021-08-12T08:52:14.423Z</time>
      </trkpt>
      <trkpt lat="46.86567" lon="8.47434">
        <ele>2218</ele>
        <time>2021-08-12T08:52:15.423Z</time>
      </trkpt>
      <trkpt lat="46.86566" lon="8.47435">
        <ele>2219</ele>
        <time>2021-08-12T08:52:16.422Z</time>
      </trkpt>
      <trkpt lat="46.86566" lon="8.47436">
        <ele>2219</ele>
        <time>2021-08-12T08:52:17.423Z</time>
      </trkpt>
      <trkpt lat="46.86566" lon="8.47437">
        <ele>2219</ele>
        <time>2021-08-12T08:52:18.422Z</time>
      </trkpt>
      <trkpt lat="46.86566" lon="8.47437">
        <ele>2219</ele>
        <time>2021-08-12T08:52:19.423Z</time>
      </trkpt>
      <trkpt lat="46.86566" lon="8.47438">
        <ele>2219</ele>
        <time>2021-08-12T08:52:20.423Z</time>
      </trkpt>
      <trkpt lat="46.86566" lon="8.47439">
        <ele>2219</ele>
        <time>2021-08-12T08:52:21.423Z</time>
      </trkpt>
      <trkpt lat="46.86565" lon="8.4744">
        <ele>2219</ele>
        <time>2021-08-12T08:52:22.423Z</time>
      </trkpt>
      <trkpt lat="46.86563" lon="8.47441">
        <ele>2219</ele>
        <time>2021-08-12T08:52:23.423Z</time>
      </trkpt>
      <trkpt lat="46.86562" lon="8.47441">
        <ele>2219</ele>
        <time>2021-08-12T08:52:24.423Z</time>
      </trkpt>
      <trkpt lat="46.86562" lon="8.47441">
        <ele>2219</ele>
        <time>2021-08-12T08:52:25.423Z</time>
      </trkpt>
      <trkpt lat="46.86562" lon="8.47441">
        <ele>2219</ele>
        <time>2021-08-12T08:52:26.422Z</time>
      </trkpt>
      <trkpt lat="46.86563" lon="8.47442">
        <ele>2219</ele>
        <time>2021-08-12T08:52:27.422Z</time>
      </trkpt>
      <trkpt lat="46.86562" lon="8.47441">
        <ele>2221</ele>
        <time>2021-08-12T08:52:28.423Z</time>
      </trkpt>
      <trkpt lat="46.86561" lon="8.47442">
        <ele>2221</ele>
        <time>2021-08-12T08:52:29.424Z</time>
      </trkpt>
      <trkpt lat="46.8656" lon="8.47442">
        <ele>2221</ele>
        <time>2021-08-12T08:52:30.423Z</time>
      </trkpt>
      <trkpt lat="46.8656" lon="8.47443">
        <ele>2221</ele>
        <time>2021-08-12T08:52:31.424Z</time>
      </trkpt>
      <trkpt lat="46.86559" lon="8.47444">
        <ele>2221</ele>
        <time>2021-08-12T08:52:32.424Z</time>
      </trkpt>
      <trkpt lat="46.86559" lon="8.47445">
        <ele>2222</ele>
        <time>2021-08-12T08:52:33.423Z</time>
      </trkpt>
      <trkpt lat="46.86558" lon="8.47446">
        <ele>2222</ele>
        <time>2021-08-12T08:52:34.424Z</time>
      </trkpt>
      <trkpt lat="46.86558" lon="8.47446">
        <ele>2222</ele>
        <time>2021-08-12T08:52:35.423Z</time>
      </trkpt>
      <trkpt lat="46.86557" lon="8.47446">
        <ele>2222</ele>
        <time>2021-08-12T08:52:36.424Z</time>
      </trkpt>
      <trkpt lat="46.86557" lon="8.47446">
        <ele>2222</ele>
        <time>2021-08-12T08:52:37.424Z</time>
      </trkpt>
      <trkpt lat="46.86556" lon="8.47446">
        <ele>2222</ele>
        <time>2021-08-12T08:52:38.424Z</time>
      </trkpt>
      <trkpt lat="46.86555" lon="8.47446">
        <ele>2222</ele>
        <time>2021-08-12T08:52:39.423Z</time>
      </trkpt>
      <trkpt lat="46.86554" lon="8.47447">
        <ele>2222</ele>
        <time>2021-08-12T08:52:40.424Z</time>
      </trkpt>
      <trkpt lat="46.86553" lon="8.47448">
        <ele>2222</ele>
        <time>2021-08-12T08:52:41.423Z</time>
      </trkpt>
      <trkpt lat="46.86552" lon="8.47449">
        <ele>2222</ele>
        <time>2021-08-12T08:52:42.423Z</time>
      </trkpt>
      <trkpt lat="46.86551" lon="8.47449">
        <ele>2223</ele>
        <time>2021-08-12T08:52:43.423Z</time>
      </trkpt>
      <trkpt lat="46.8655" lon="8.47449">
        <ele>2223</ele>
        <time>2021-08-12T08:52:44.423Z</time>
      </trkpt>
      <trkpt lat="46.8655" lon="8.47448">
        <ele>2224</ele>
        <time>2021-08-12T08:52:45.424Z</time>
      </trkpt>
      <trkpt lat="46.8655" lon="8.47448">
        <ele>2224</ele>
        <time>2021-08-12T08:52:46.424Z</time>
      </trkpt>
      <trkpt lat="46.8655" lon="8.47447">
        <ele>2225</ele>
        <time>2021-08-12T08:52:47.424Z</time>
      </trkpt>
      <trkpt lat="46.8655" lon="8.47447">
        <ele>2225</ele>
        <time>2021-08-12T08:52:48.424Z</time>
      </trkpt>
      <trkpt lat="46.8655" lon="8.47448">
        <ele>2225</ele>
        <time>2021-08-12T08:52:49.424Z</time>
      </trkpt>
      <trkpt lat="46.86549" lon="8.4745">
        <ele>2225</ele>
        <time>2021-08-12T08:52:50.424Z</time>
      </trkpt>
      <trkpt lat="46.86548" lon="8.47452">
        <ele>2225</ele>
        <time>2021-08-12T08:52:51.424Z</time>
      </trkpt>
      <trkpt lat="46.86547" lon="8.47453">
        <ele>2225</ele>
        <time>2021-08-12T08:52:52.424Z</time>
      </trkpt>
      <trkpt lat="46.86547" lon="8.47454">
        <ele>2225</ele>
        <time>2021-08-12T08:52:53.424Z</time>
      </trkpt>
      <trkpt lat="46.86546" lon="8.47455">
        <ele>2224</ele>
        <time>2021-08-12T08:52:54.424Z</time>
      </trkpt>
      <trkpt lat="46.86546" lon="8.47455">
        <ele>2224</ele>
        <time>2021-08-12T08:52:55.424Z</time>
      </trkpt>
      <trkpt lat="46.86546" lon="8.47455">
        <ele>2223</ele>
        <time>2021-08-12T08:52:56.424Z</time>
      </trkpt>
      <trkpt lat="46.86546" lon="8.47455">
        <ele>2223</ele>
        <time>2021-08-12T08:52:57.423Z</time>
      </trkpt>
      <trkpt lat="46.86546" lon="8.47455">
        <ele>2222</ele>
        <time>2021-08-12T08:52:58.423Z</time>
      </trkpt>
      <trkpt lat="46.86546" lon="8.47456">
        <ele>2222</ele>
        <time>2021-08-12T08:52:59.424Z</time>
      </trkpt>
      <trkpt lat="46.86546" lon="8.47457">
        <ele>2221</ele>
        <time>2021-08-12T08:53:00.423Z</time>
      </trkpt>
      <trkpt lat="46.86546" lon="8.47459">
        <ele>2221</ele>
        <time>2021-08-12T08:53:01.423Z</time>
      </trkpt>
      <trkpt lat="46.86546" lon="8.4746">
        <ele>2220</ele>
        <time>2021-08-12T08:53:02.423Z</time>
      </trkpt>
      <trkpt lat="46.86546" lon="8.47461">
        <ele>2220</ele>
        <time>2021-08-12T08:53:03.424Z</time>
      </trkpt>
      <trkpt lat="46.86546" lon="8.47461">
        <ele>2220</ele>
        <time>2021-08-12T08:53:04.423Z</time>
      </trkpt>
      <trkpt lat="46.86546" lon="8.47462">
        <ele>2219</ele>
        <time>2021-08-12T08:53:05.424Z</time>
      </trkpt>
      <trkpt lat="46.86546" lon="8.47464">
        <ele>2219</ele>
        <time>2021-08-12T08:53:06.425Z</time>
      </trkpt>
      <trkpt lat="46.86546" lon="8.47464">
        <ele>2219</ele>
        <time>2021-08-12T08:53:07.425Z</time>
      </trkpt>
      <trkpt lat="46.86544" lon="8.47465">
        <ele>2219</ele>
        <time>2021-08-12T08:53:08.426Z</time>
      </trkpt>
      <trkpt lat="46.86544" lon="8.47465">
        <ele>2219</ele>
        <time>2021-08-12T08:53:09.425Z</time>
      </trkpt>
      <trkpt lat="46.86545" lon="8.47466">
        <ele>2219</ele>
        <time>2021-08-12T08:53:10.426Z</time>
      </trkpt>
      <trkpt lat="46.86545" lon="8.47467">
        <ele>2220</ele>
        <time>2021-08-12T08:53:11.425Z</time>
      </trkpt>
      <trkpt lat="46.86546" lon="8.47467">
        <ele>2220</ele>
        <time>2021-08-12T08:53:12.426Z</time>
      </trkpt>
      <trkpt lat="46.86547" lon="8.47467">
        <ele>2220</ele>
        <time>2021-08-12T08:53:13.427Z</time>
      </trkpt>
      <trkpt lat="46.86547" lon="8.47466">
        <ele>2220</ele>
        <time>2021-08-12T08:53:14.426Z</time>
      </trkpt>
      <trkpt lat="46.86546" lon="8.4747">
        <ele>2216</ele>
        <time>2021-08-12T08:53:15.426Z</time>
      </trkpt>
      <trkpt lat="46.86546" lon="8.4747">
        <ele>2215</ele>
        <time>2021-08-12T08:53:16.427Z</time>
      </trkpt>
      <trkpt lat="46.86546" lon="8.47471">
        <ele>2215</ele>
        <time>2021-08-12T08:53:17.426Z</time>
      </trkpt>
      <trkpt lat="46.86546" lon="8.47471">
        <ele>2215</ele>
        <time>2021-08-12T08:53:18.427Z</time>
      </trkpt>
      <trkpt lat="46.86546" lon="8.4747">
        <ele>2215</ele>
        <time>2021-08-12T08:53:19.426Z</time>
      </trkpt>
      <trkpt lat="46.86547" lon="8.47472">
        <ele>2217</ele>
        <time>2021-08-12T08:53:20.427Z</time>
      </trkpt>
      <trkpt lat="46.86547" lon="8.47472">
        <ele>2217</ele>
        <time>2021-08-12T08:53:21.426Z</time>
      </trkpt>
      <trkpt lat="46.86545" lon="8.47473">
        <ele>2219</ele>
        <time>2021-08-12T08:53:22.426Z</time>
      </trkpt>
      <trkpt lat="46.86544" lon="8.47473">
        <ele>2219</ele>
        <time>2021-08-12T08:53:23.426Z</time>
      </trkpt>
      <trkpt lat="46.86544" lon="8.47473">
        <ele>2219</ele>
        <time>2021-08-12T08:53:24.427Z</time>
      </trkpt>
      <trkpt lat="46.86543" lon="8.47473">
        <ele>2219</ele>
        <time>2021-08-12T08:53:25.427Z</time>
      </trkpt>
      <trkpt lat="46.86543" lon="8.47474">
        <ele>2219</ele>
        <time>2021-08-12T08:53:26.427Z</time>
      </trkpt>
      <trkpt lat="46.86542" lon="8.47474">
        <ele>2219</ele>
        <time>2021-08-12T08:53:27.426Z</time>
      </trkpt>
      <trkpt lat="46.86542" lon="8.47475">
        <ele>2219</ele>
        <time>2021-08-12T08:53:28.426Z</time>
      </trkpt>
      <trkpt lat="46.86541" lon="8.47476">
        <ele>2219</ele>
        <time>2021-08-12T08:53:29.427Z</time>
      </trkpt>
      <trkpt lat="46.86541" lon="8.47478">
        <ele>2218</ele>
        <time>2021-08-12T08:53:30.427Z</time>
      </trkpt>
      <trkpt lat="46.8654" lon="8.47479">
        <ele>2218</ele>
        <time>2021-08-12T08:53:31.426Z</time>
      </trkpt>
      <trkpt lat="46.86539" lon="8.4748">
        <ele>2218</ele>
        <time>2021-08-12T08:53:32.427Z</time>
      </trkpt>
      <trkpt lat="46.86538" lon="8.47481">
        <ele>2219</ele>
        <time>2021-08-12T08:53:33.426Z</time>
      </trkpt>
      <trkpt lat="46.86537" lon="8.47482">
        <ele>2219</ele>
        <time>2021-08-12T08:53:34.427Z</time>
      </trkpt>
      <trkpt lat="46.86536" lon="8.47484">
        <ele>2219</ele>
        <time>2021-08-12T08:53:35.427Z</time>
      </trkpt>
      <trkpt lat="46.86536" lon="8.47485">
        <ele>2219</ele>
        <time>2021-08-12T08:53:36.427Z</time>
      </trkpt>
      <trkpt lat="46.86536" lon="8.47487">
        <ele>2219</ele>
        <time>2021-08-12T08:53:37.427Z</time>
      </trkpt>
      <trkpt lat="46.86536" lon="8.47488">
        <ele>2219</ele>
        <time>2021-08-12T08:53:38.427Z</time>
      </trkpt>
      <trkpt lat="46.86536" lon="8.47488">
        <ele>2219</ele>
        <time>2021-08-12T08:53:39.426Z</time>
      </trkpt>
      <trkpt lat="46.86536" lon="8.47488">
        <ele>2220</ele>
        <time>2021-08-12T08:53:40.426Z</time>
      </trkpt>
      <trkpt lat="46.86535" lon="8.47489">
        <ele>2220</ele>
        <time>2021-08-12T08:53:41.427Z</time>
      </trkpt>
      <trkpt lat="46.86534" lon="8.4749">
        <ele>2220</ele>
        <time>2021-08-12T08:53:42.426Z</time>
      </trkpt>
      <trkpt lat="46.86534" lon="8.47491">
        <ele>2221</ele>
        <time>2021-08-12T08:53:43.427Z</time>
      </trkpt>
      <trkpt lat="46.86533" lon="8.47491">
        <ele>2221</ele>
        <time>2021-08-12T08:53:44.427Z</time>
      </trkpt>
      <trkpt lat="46.86533" lon="8.47492">
        <ele>2221</ele>
        <time>2021-08-12T08:53:45.427Z</time>
      </trkpt>
      <trkpt lat="46.86532" lon="8.47493">
        <ele>2221</ele>
        <time>2021-08-12T08:53:46.427Z</time>
      </trkpt>
      <trkpt lat="46.86531" lon="8.47494">
        <ele>2220</ele>
        <time>2021-08-12T08:53:47.427Z</time>
      </trkpt>
      <trkpt lat="46.8653" lon="8.47494">
        <ele>2220</ele>
        <time>2021-08-12T08:53:48.426Z</time>
      </trkpt>
      <trkpt lat="46.86529" lon="8.47494">
        <ele>2220</ele>
        <time>2021-08-12T08:53:49.427Z</time>
      </trkpt>
      <trkpt lat="46.86528" lon="8.47493">
        <ele>2220</ele>
        <time>2021-08-12T08:53:50.427Z</time>
      </trkpt>
      <trkpt lat="46.86527" lon="8.47494">
        <ele>2220</ele>
        <time>2021-08-12T08:53:51.427Z</time>
      </trkpt>
      <trkpt lat="46.86527" lon="8.47494">
        <ele>2220</ele>
        <time>2021-08-12T08:53:52.426Z</time>
      </trkpt>
      <trkpt lat="46.86526" lon="8.47494">
        <ele>2220</ele>
        <time>2021-08-12T08:53:53.427Z</time>
      </trkpt>
      <trkpt lat="46.86525" lon="8.47495">
        <ele>2220</ele>
        <time>2021-08-12T08:53:54.426Z</time>
      </trkpt>
      <trkpt lat="46.86524" lon="8.47496">
        <ele>2220</ele>
        <time>2021-08-12T08:53:55.427Z</time>
      </trkpt>
      <trkpt lat="46.86523" lon="8.47497">
        <ele>2221</ele>
        <time>2021-08-12T08:53:56.426Z</time>
      </trkpt>
      <trkpt lat="46.86522" lon="8.47498">
        <ele>2221</ele>
        <time>2021-08-12T08:53:57.426Z</time>
      </trkpt>
      <trkpt lat="46.86521" lon="8.47499">
        <ele>2222</ele>
        <time>2021-08-12T08:53:58.427Z</time>
      </trkpt>
      <trkpt lat="46.8652" lon="8.475">
        <ele>2222</ele>
        <time>2021-08-12T08:53:59.427Z</time>
      </trkpt>
      <trkpt lat="46.86519" lon="8.47501">
        <ele>2222</ele>
        <time>2021-08-12T08:54:00.426Z</time>
      </trkpt>
      <trkpt lat="46.86519" lon="8.47502">
        <ele>2222</ele>
        <time>2021-08-12T08:54:01.426Z</time>
      </trkpt>
      <trkpt lat="46.86518" lon="8.47502">
        <ele>2222</ele>
        <time>2021-08-12T08:54:02.426Z</time>
      </trkpt>
      <trkpt lat="46.86517" lon="8.47503">
        <ele>2222</ele>
        <time>2021-08-12T08:54:03.427Z</time>
      </trkpt>
      <trkpt lat="46.86516" lon="8.47505">
        <ele>2222</ele>
        <time>2021-08-12T08:54:04.427Z</time>
      </trkpt>
      <trkpt lat="46.86515" lon="8.47506">
        <ele>2222</ele>
        <time>2021-08-12T08:54:05.427Z</time>
      </trkpt>
      <trkpt lat="46.86514" lon="8.47506">
        <ele>2222</ele>
        <time>2021-08-12T08:54:06.427Z</time>
      </trkpt>
      <trkpt lat="46.86513" lon="8.47507">
        <ele>2221</ele>
        <time>2021-08-12T08:54:07.426Z</time>
      </trkpt>
      <trkpt lat="46.86513" lon="8.47508">
        <ele>2221</ele>
        <time>2021-08-12T08:54:08.426Z</time>
      </trkpt>
      <trkpt lat="46.86512" lon="8.47509">
        <ele>2222</ele>
        <time>2021-08-12T08:54:09.427Z</time>
      </trkpt>
      <trkpt lat="46.86512" lon="8.47511">
        <ele>2222</ele>
        <time>2021-08-12T08:54:10.427Z</time>
      </trkpt>
      <trkpt lat="46.86512" lon="8.47512">
        <ele>2221</ele>
        <time>2021-08-12T08:54:11.427Z</time>
      </trkpt>
      <trkpt lat="46.86512" lon="8.47514">
        <ele>2221</ele>
        <time>2021-08-12T08:54:12.426Z</time>
      </trkpt>
      <trkpt lat="46.86512" lon="8.47515">
        <ele>2220</ele>
        <time>2021-08-12T08:54:13.427Z</time>
      </trkpt>
      <trkpt lat="46.86512" lon="8.47517">
        <ele>2220</ele>
        <time>2021-08-12T08:54:14.427Z</time>
      </trkpt>
      <trkpt lat="46.86512" lon="8.47518">
        <ele>2219</ele>
        <time>2021-08-12T08:54:15.427Z</time>
      </trkpt>
      <trkpt lat="46.86512" lon="8.4752">
        <ele>2219</ele>
        <time>2021-08-12T08:54:16.427Z</time>
      </trkpt>
      <trkpt lat="46.86512" lon="8.47523">
        <ele>2219</ele>
        <time>2021-08-12T08:54:17.427Z</time>
      </trkpt>
      <trkpt lat="46.86512" lon="8.47525">
        <ele>2219</ele>
        <time>2021-08-12T08:54:18.426Z</time>
      </trkpt>
      <trkpt lat="46.86511" lon="8.47526">
        <ele>2219</ele>
        <time>2021-08-12T08:54:19.427Z</time>
      </trkpt>
      <trkpt lat="46.8651" lon="8.47528">
        <ele>2219</ele>
        <time>2021-08-12T08:54:20.427Z</time>
      </trkpt>
      <trkpt lat="46.86509" lon="8.47531">
        <ele>2219</ele>
        <time>2021-08-12T08:54:21.427Z</time>
      </trkpt>
      <trkpt lat="46.86508" lon="8.47534">
        <ele>2219</ele>
        <time>2021-08-12T08:54:22.427Z</time>
      </trkpt>
      <trkpt lat="46.86507" lon="8.47536">
        <ele>2219</ele>
        <time>2021-08-12T08:54:23.426Z</time>
      </trkpt>
      <trkpt lat="46.86506" lon="8.47537">
        <ele>2218</ele>
        <time>2021-08-12T08:54:24.426Z</time>
      </trkpt>
      <trkpt lat="46.86506" lon="8.47537">
        <ele>2218</ele>
        <time>2021-08-12T08:54:25.426Z</time>
      </trkpt>
      <trkpt lat="46.86505" lon="8.47537">
        <ele>2218</ele>
        <time>2021-08-12T08:54:26.426Z</time>
      </trkpt>
      <trkpt lat="46.86504" lon="8.47536">
        <ele>2218</ele>
        <time>2021-08-12T08:54:27.426Z</time>
      </trkpt>
      <trkpt lat="46.86503" lon="8.47535">
        <ele>2218</ele>
        <time>2021-08-12T08:54:28.426Z</time>
      </trkpt>
      <trkpt lat="46.86502" lon="8.47535">
        <ele>2218</ele>
        <time>2021-08-12T08:54:29.426Z</time>
      </trkpt>
      <trkpt lat="46.86502" lon="8.47536">
        <ele>2218</ele>
        <time>2021-08-12T08:54:30.427Z</time>
      </trkpt>
      <trkpt lat="46.86501" lon="8.47536">
        <ele>2218</ele>
        <time>2021-08-12T08:54:31.427Z</time>
      </trkpt>
      <trkpt lat="46.865" lon="8.47537">
        <ele>2218</ele>
        <time>2021-08-12T08:54:32.427Z</time>
      </trkpt>
      <trkpt lat="46.86499" lon="8.47537">
        <ele>2218</ele>
        <time>2021-08-12T08:54:33.427Z</time>
      </trkpt>
      <trkpt lat="46.86499" lon="8.47538">
        <ele>2217</ele>
        <time>2021-08-12T08:54:34.426Z</time>
      </trkpt>
      <trkpt lat="46.86498" lon="8.47538">
        <ele>2217</ele>
        <time>2021-08-12T08:54:35.427Z</time>
      </trkpt>
      <trkpt lat="46.86498" lon="8.47539">
        <ele>2216</ele>
        <time>2021-08-12T08:54:36.427Z</time>
      </trkpt>
      <trkpt lat="46.86497" lon="8.4754">
        <ele>2215</ele>
        <time>2021-08-12T08:54:37.427Z</time>
      </trkpt>
      <trkpt lat="46.86497" lon="8.47542">
        <ele>2214</ele>
        <time>2021-08-12T08:54:38.426Z</time>
      </trkpt>
      <trkpt lat="46.86496" lon="8.47542">
        <ele>2213</ele>
        <time>2021-08-12T08:54:39.427Z</time>
      </trkpt>
      <trkpt lat="46.86495" lon="8.47543">
        <ele>2212</ele>
        <time>2021-08-12T08:54:40.426Z</time>
      </trkpt>
      <trkpt lat="46.86494" lon="8.47545">
        <ele>2212</ele>
        <time>2021-08-12T08:54:41.427Z</time>
      </trkpt>
      <trkpt lat="46.86493" lon="8.47545">
        <ele>2211</ele>
        <time>2021-08-12T08:54:42.427Z</time>
      </trkpt>
      <trkpt lat="46.86493" lon="8.47544">
        <ele>2210</ele>
        <time>2021-08-12T08:54:43.427Z</time>
      </trkpt>
      <trkpt lat="46.86494" lon="8.47541">
        <ele>2210</ele>
        <time>2021-08-12T08:54:44.427Z</time>
      </trkpt>
      <trkpt lat="46.86494" lon="8.4754">
        <ele>2209</ele>
        <time>2021-08-12T08:54:45.427Z</time>
      </trkpt>
      <trkpt lat="46.86493" lon="8.47541">
        <ele>2208</ele>
        <time>2021-08-12T08:54:46.427Z</time>
      </trkpt>
      <trkpt lat="46.86493" lon="8.47543">
        <ele>2208</ele>
        <time>2021-08-12T08:54:47.426Z</time>
      </trkpt>
      <trkpt lat="46.86492" lon="8.47545">
        <ele>2207</ele>
        <time>2021-08-12T08:54:48.426Z</time>
      </trkpt>
      <trkpt lat="46.86491" lon="8.47546">
        <ele>2207</ele>
        <time>2021-08-12T08:54:49.426Z</time>
      </trkpt>
      <trkpt lat="46.86491" lon="8.47547">
        <ele>2207</ele>
        <time>2021-08-12T08:54:50.426Z</time>
      </trkpt>
      <trkpt lat="46.86491" lon="8.47548">
        <ele>2207</ele>
        <time>2021-08-12T08:54:51.426Z</time>
      </trkpt>
      <trkpt lat="46.86491" lon="8.47549">
        <ele>2208</ele>
        <time>2021-08-12T08:54:52.426Z</time>
      </trkpt>
      <trkpt lat="46.8649" lon="8.47549">
        <ele>2208</ele>
        <time>2021-08-12T08:54:53.427Z</time>
      </trkpt>
      <trkpt lat="46.8649" lon="8.4755">
        <ele>2209</ele>
        <time>2021-08-12T08:54:54.427Z</time>
      </trkpt>
      <trkpt lat="46.86489" lon="8.47551">
        <ele>2209</ele>
        <time>2021-08-12T08:54:55.427Z</time>
      </trkpt>
      <trkpt lat="46.86489" lon="8.47552">
        <ele>2209</ele>
        <time>2021-08-12T08:54:56.426Z</time>
      </trkpt>
      <trkpt lat="46.86489" lon="8.47553">
        <ele>2209</ele>
        <time>2021-08-12T08:54:57.426Z</time>
      </trkpt>
      <trkpt lat="46.86489" lon="8.47553">
        <ele>2209</ele>
        <time>2021-08-12T08:54:58.427Z</time>
      </trkpt>
      <trkpt lat="46.86488" lon="8.47554">
        <ele>2209</ele>
        <time>2021-08-12T08:54:59.427Z</time>
      </trkpt>
      <trkpt lat="46.86488" lon="8.47554">
        <ele>2209</ele>
        <time>2021-08-12T08:55:00.427Z</time>
      </trkpt>
      <trkpt lat="46.86487" lon="8.47556">
        <ele>2209</ele>
        <time>2021-08-12T08:55:01.427Z</time>
      </trkpt>
      <trkpt lat="46.86486" lon="8.47557">
        <ele>2209</ele>
        <time>2021-08-12T08:55:02.426Z</time>
      </trkpt>
      <trkpt lat="46.86486" lon="8.47558">
        <ele>2209</ele>
        <time>2021-08-12T08:55:03.427Z</time>
      </trkpt>
      <trkpt lat="46.86485" lon="8.47559">
        <ele>2209</ele>
        <time>2021-08-12T08:55:04.427Z</time>
      </trkpt>
      <trkpt lat="46.86485" lon="8.47561">
        <ele>2209</ele>
        <time>2021-08-12T08:55:05.426Z</time>
      </trkpt>
      <trkpt lat="46.86485" lon="8.47563">
        <ele>2209</ele>
        <time>2021-08-12T08:55:06.426Z</time>
      </trkpt>
      <trkpt lat="46.86484" lon="8.47567">
        <ele>2210</ele>
        <time>2021-08-12T08:55:07.427Z</time>
      </trkpt>
      <trkpt lat="46.86484" lon="8.47569">
        <ele>2210</ele>
        <time>2021-08-12T08:55:08.426Z</time>
      </trkpt>
      <trkpt lat="46.86483" lon="8.47569">
        <ele>2210</ele>
        <time>2021-08-12T08:55:09.427Z</time>
      </trkpt>
      <trkpt lat="46.86483" lon="8.4757">
        <ele>2209</ele>
        <time>2021-08-12T08:55:10.427Z</time>
      </trkpt>
      <trkpt lat="46.86483" lon="8.4757">
        <ele>2209</ele>
        <time>2021-08-12T08:55:11.427Z</time>
      </trkpt>
      <trkpt lat="46.86483" lon="8.47571">
        <ele>2209</ele>
        <time>2021-08-12T08:55:12.426Z</time>
      </trkpt>
      <trkpt lat="46.86482" lon="8.47571">
        <ele>2209</ele>
        <time>2021-08-12T08:55:13.426Z</time>
      </trkpt>
      <trkpt lat="46.86482" lon="8.47571">
        <ele>2209</ele>
        <time>2021-08-12T08:55:14.427Z</time>
      </trkpt>
      <trkpt lat="46.86481" lon="8.47572">
        <ele>2210</ele>
        <time>2021-08-12T08:55:15.427Z</time>
      </trkpt>
      <trkpt lat="46.86481" lon="8.47573">
        <ele>2210</ele>
        <time>2021-08-12T08:55:16.427Z</time>
      </trkpt>
      <trkpt lat="46.86481" lon="8.47573">
        <ele>2210</ele>
        <time>2021-08-12T08:55:17.427Z</time>
      </trkpt>
      <trkpt lat="46.86482" lon="8.47574">
        <ele>2210</ele>
        <time>2021-08-12T08:55:18.427Z</time>
      </trkpt>
      <trkpt lat="46.86482" lon="8.47575">
        <ele>2209</ele>
        <time>2021-08-12T08:55:19.427Z</time>
      </trkpt>
      <trkpt lat="46.86481" lon="8.47576">
        <ele>2209</ele>
        <time>2021-08-12T08:55:20.426Z</time>
      </trkpt>
      <trkpt lat="46.86481" lon="8.47576">
        <ele>2209</ele>
        <time>2021-08-12T08:55:21.426Z</time>
      </trkpt>
      <trkpt lat="46.86481" lon="8.47576">
        <ele>2209</ele>
        <time>2021-08-12T08:55:22.427Z</time>
      </trkpt>
      <trkpt lat="46.86481" lon="8.47577">
        <ele>2212</ele>
        <time>2021-08-12T08:55:23.426Z</time>
      </trkpt>
      <trkpt lat="46.8648" lon="8.47578">
        <ele>2212</ele>
        <time>2021-08-12T08:55:24.427Z</time>
      </trkpt>
      <trkpt lat="46.8648" lon="8.47578">
        <ele>2212</ele>
        <time>2021-08-12T08:55:25.427Z</time>
      </trkpt>
      <trkpt lat="46.8648" lon="8.47578">
        <ele>2212</ele>
        <time>2021-08-12T08:55:26.427Z</time>
      </trkpt>
      <trkpt lat="46.8648" lon="8.47578">
        <ele>2212</ele>
        <time>2021-08-12T08:55:27.427Z</time>
      </trkpt>
      <trkpt lat="46.86478" lon="8.47579">
        <ele>2212</ele>
        <time>2021-08-12T08:55:28.427Z</time>
      </trkpt>
      <trkpt lat="46.86478" lon="8.4758">
        <ele>2213</ele>
        <time>2021-08-12T08:55:29.427Z</time>
      </trkpt>
      <trkpt lat="46.86478" lon="8.47581">
        <ele>2213</ele>
        <time>2021-08-12T08:55:30.427Z</time>
      </trkpt>
      <trkpt lat="46.86477" lon="8.47582">
        <ele>2213</ele>
        <time>2021-08-12T08:55:31.427Z</time>
      </trkpt>
      <trkpt lat="46.86477" lon="8.47583">
        <ele>2213</ele>
        <time>2021-08-12T08:55:32.427Z</time>
      </trkpt>
      <trkpt lat="46.86477" lon="8.47584">
        <ele>2213</ele>
        <time>2021-08-12T08:55:33.427Z</time>
      </trkpt>
      <trkpt lat="46.86476" lon="8.47585">
        <ele>2213</ele>
        <time>2021-08-12T08:55:34.427Z</time>
      </trkpt>
      <trkpt lat="46.86476" lon="8.47586">
        <ele>2213</ele>
        <time>2021-08-12T08:55:35.427Z</time>
      </trkpt>
      <trkpt lat="46.86476" lon="8.47586">
        <ele>2213</ele>
        <time>2021-08-12T08:55:36.427Z</time>
      </trkpt>
      <trkpt lat="46.86476" lon="8.47587">
        <ele>2213</ele>
        <time>2021-08-12T08:55:37.427Z</time>
      </trkpt>
      <trkpt lat="46.86476" lon="8.47588">
        <ele>2214</ele>
        <time>2021-08-12T08:55:38.426Z</time>
      </trkpt>
      <trkpt lat="46.86475" lon="8.47589">
        <ele>2214</ele>
        <time>2021-08-12T08:55:39.426Z</time>
      </trkpt>
      <trkpt lat="46.86475" lon="8.47589">
        <ele>2214</ele>
        <time>2021-08-12T08:55:40.426Z</time>
      </trkpt>
      <trkpt lat="46.86475" lon="8.4759">
        <ele>2214</ele>
        <time>2021-08-12T08:55:41.426Z</time>
      </trkpt>
      <trkpt lat="46.86474" lon="8.4759">
        <ele>2214</ele>
        <time>2021-08-12T08:55:42.426Z</time>
      </trkpt>
      <trkpt lat="46.86474" lon="8.47592">
        <ele>2214</ele>
        <time>2021-08-12T08:55:43.427Z</time>
      </trkpt>
      <trkpt lat="46.86474" lon="8.47592">
        <ele>2213</ele>
        <time>2021-08-12T08:55:44.427Z</time>
      </trkpt>
      <trkpt lat="46.86476" lon="8.4759">
        <ele>2211</ele>
        <time>2021-08-12T08:55:45.427Z</time>
      </trkpt>
      <trkpt lat="46.86476" lon="8.4759">
        <ele>2211</ele>
        <time>2021-08-12T08:55:46.426Z</time>
      </trkpt>
      <trkpt lat="46.86475" lon="8.47592">
        <ele>2216</ele>
        <time>2021-08-12T08:55:47.426Z</time>
      </trkpt>
      <trkpt lat="46.86474" lon="8.47593">
        <ele>2217</ele>
        <time>2021-08-12T08:55:48.426Z</time>
      </trkpt>
      <trkpt lat="46.86473" lon="8.47594">
        <ele>2218</ele>
        <time>2021-08-12T08:55:49.426Z</time>
      </trkpt>
      <trkpt lat="46.86473" lon="8.47594">
        <ele>2218</ele>
        <time>2021-08-12T08:55:50.426Z</time>
      </trkpt>
      <trkpt lat="46.86473" lon="8.47594">
        <ele>2219</ele>
        <time>2021-08-12T08:55:51.426Z</time>
      </trkpt>
      <trkpt lat="46.86472" lon="8.47594">
        <ele>2219</ele>
        <time>2021-08-12T08:55:52.426Z</time>
      </trkpt>
      <trkpt lat="46.86471" lon="8.47593">
        <ele>2220</ele>
        <time>2021-08-12T08:55:53.427Z</time>
      </trkpt>
      <trkpt lat="46.86471" lon="8.47593">
        <ele>2220</ele>
        <time>2021-08-12T08:55:54.427Z</time>
      </trkpt>
      <trkpt lat="46.8647" lon="8.47593">
        <ele>2220</ele>
        <time>2021-08-12T08:55:55.426Z</time>
      </trkpt>
      <trkpt lat="46.86468" lon="8.47593">
        <ele>2225</ele>
        <time>2021-08-12T08:55:56.426Z</time>
      </trkpt>
      <trkpt lat="46.86468" lon="8.47594">
        <ele>2225</ele>
        <time>2021-08-12T08:55:57.426Z</time>
      </trkpt>
      <trkpt lat="46.86469" lon="8.47595">
        <ele>2225</ele>
        <time>2021-08-12T08:55:58.427Z</time>
      </trkpt>
      <trkpt lat="46.8647" lon="8.47595">
        <ele>2224</ele>
        <time>2021-08-12T08:55:59.427Z</time>
      </trkpt>
      <trkpt lat="46.8647" lon="8.47596">
        <ele>2225</ele>
        <time>2021-08-12T08:56:00.427Z</time>
      </trkpt>
      <trkpt lat="46.86471" lon="8.47595">
        <ele>2225</ele>
        <time>2021-08-12T08:56:01.427Z</time>
      </trkpt>
      <trkpt lat="46.86471" lon="8.47595">
        <ele>2226</ele>
        <time>2021-08-12T08:56:02.427Z</time>
      </trkpt>
      <trkpt lat="46.8647" lon="8.47595">
        <ele>2226</ele>
        <time>2021-08-12T08:56:03.426Z</time>
      </trkpt>
      <trkpt lat="46.86469" lon="8.47597">
        <ele>2226</ele>
        <time>2021-08-12T08:56:04.426Z</time>
      </trkpt>
      <trkpt lat="46.86468" lon="8.47598">
        <ele>2226</ele>
        <time>2021-08-12T08:56:05.427Z</time>
      </trkpt>
      <trkpt lat="46.86467" lon="8.47599">
        <ele>2226</ele>
        <time>2021-08-12T08:56:06.426Z</time>
      </trkpt>
      <trkpt lat="46.86467" lon="8.476">
        <ele>2225</ele>
        <time>2021-08-12T08:56:07.427Z</time>
      </trkpt>
      <trkpt lat="46.86467" lon="8.476">
        <ele>2225</ele>
        <time>2021-08-12T08:56:08.427Z</time>
      </trkpt>
      <trkpt lat="46.86467" lon="8.476">
        <ele>2225</ele>
        <time>2021-08-12T08:56:09.427Z</time>
      </trkpt>
      <trkpt lat="46.86467" lon="8.47601">
        <ele>2225</ele>
        <time>2021-08-12T08:56:10.427Z</time>
      </trkpt>
      <trkpt lat="46.86467" lon="8.47602">
        <ele>2225</ele>
        <time>2021-08-12T08:56:11.427Z</time>
      </trkpt>
      <trkpt lat="46.86467" lon="8.47603">
        <ele>2225</ele>
        <time>2021-08-12T08:56:12.427Z</time>
      </trkpt>
      <trkpt lat="46.86467" lon="8.47604">
        <ele>2225</ele>
        <time>2021-08-12T08:56:13.427Z</time>
      </trkpt>
      <trkpt lat="46.86467" lon="8.47604">
        <ele>2225</ele>
        <time>2021-08-12T08:56:14.427Z</time>
      </trkpt>
      <trkpt lat="46.86467" lon="8.47605">
        <ele>2225</ele>
        <time>2021-08-12T08:56:15.427Z</time>
      </trkpt>
      <trkpt lat="46.86466" lon="8.47605">
        <ele>2225</ele>
        <time>2021-08-12T08:56:16.427Z</time>
      </trkpt>
      <trkpt lat="46.86466" lon="8.47606">
        <ele>2225</ele>
        <time>2021-08-12T08:56:17.427Z</time>
      </trkpt>
      <trkpt lat="46.86466" lon="8.47606">
        <ele>2225</ele>
        <time>2021-08-12T08:56:18.427Z</time>
      </trkpt>
      <trkpt lat="46.86466" lon="8.47606">
        <ele>2224</ele>
        <time>2021-08-12T08:56:19.427Z</time>
      </trkpt>
      <trkpt lat="46.86465" lon="8.47607">
        <ele>2224</ele>
        <time>2021-08-12T08:56:20.426Z</time>
      </trkpt>
      <trkpt lat="46.86465" lon="8.47609">
        <ele>2225</ele>
        <time>2021-08-12T08:56:21.427Z</time>
      </trkpt>
      <trkpt lat="46.86465" lon="8.4761">
        <ele>2225</ele>
        <time>2021-08-12T08:56:22.427Z</time>
      </trkpt>
      <trkpt lat="46.86464" lon="8.4761">
        <ele>2225</ele>
        <time>2021-08-12T08:56:23.427Z</time>
      </trkpt>
      <trkpt lat="46.86464" lon="8.47611">
        <ele>2225</ele>
        <time>2021-08-12T08:56:24.427Z</time>
      </trkpt>
      <trkpt lat="46.86464" lon="8.47612">
        <ele>2225</ele>
        <time>2021-08-12T08:56:25.427Z</time>
      </trkpt>
      <trkpt lat="46.86462" lon="8.47613">
        <ele>2225</ele>
        <time>2021-08-12T08:56:26.427Z</time>
      </trkpt>
      <trkpt lat="46.86461" lon="8.47614">
        <ele>2225</ele>
        <time>2021-08-12T08:56:27.427Z</time>
      </trkpt>
      <trkpt lat="46.86461" lon="8.47615">
        <ele>2225</ele>
        <time>2021-08-12T08:56:28.427Z</time>
      </trkpt>
      <trkpt lat="46.8646" lon="8.47616">
        <ele>2225</ele>
        <time>2021-08-12T08:56:29.426Z</time>
      </trkpt>
      <trkpt lat="46.8646" lon="8.47617">
        <ele>2224</ele>
        <time>2021-08-12T08:56:30.427Z</time>
      </trkpt>
      <trkpt lat="46.86461" lon="8.47617">
        <ele>2224</ele>
        <time>2021-08-12T08:56:31.427Z</time>
      </trkpt>
      <trkpt lat="46.8646" lon="8.47618">
        <ele>2224</ele>
        <time>2021-08-12T08:56:32.427Z</time>
      </trkpt>
      <trkpt lat="46.8646" lon="8.47619">
        <ele>2224</ele>
        <time>2021-08-12T08:56:33.426Z</time>
      </trkpt>
      <trkpt lat="46.8646" lon="8.47621">
        <ele>2224</ele>
        <time>2021-08-12T08:56:34.427Z</time>
      </trkpt>
      <trkpt lat="46.86459" lon="8.47621">
        <ele>2224</ele>
        <time>2021-08-12T08:56:35.426Z</time>
      </trkpt>
      <trkpt lat="46.86458" lon="8.47622">
        <ele>2224</ele>
        <time>2021-08-12T08:56:36.426Z</time>
      </trkpt>
      <trkpt lat="46.86458" lon="8.47622">
        <ele>2225</ele>
        <time>2021-08-12T08:56:37.426Z</time>
      </trkpt>
      <trkpt lat="46.86458" lon="8.47622">
        <ele>2225</ele>
        <time>2021-08-12T08:56:38.427Z</time>
      </trkpt>
      <trkpt lat="46.86458" lon="8.47622">
        <ele>2225</ele>
        <time>2021-08-12T08:56:39.426Z</time>
      </trkpt>
      <trkpt lat="46.86457" lon="8.47623">
        <ele>2225</ele>
        <time>2021-08-12T08:56:40.427Z</time>
      </trkpt>
      <trkpt lat="46.86457" lon="8.47624">
        <ele>2225</ele>
        <time>2021-08-12T08:56:41.427Z</time>
      </trkpt>
      <trkpt lat="46.86456" lon="8.47625">
        <ele>2225</ele>
        <time>2021-08-12T08:56:42.427Z</time>
      </trkpt>
      <trkpt lat="46.86456" lon="8.47625">
        <ele>2226</ele>
        <time>2021-08-12T08:56:43.427Z</time>
      </trkpt>
      <trkpt lat="46.86456" lon="8.47626">
        <ele>2226</ele>
        <time>2021-08-12T08:56:44.426Z</time>
      </trkpt>
      <trkpt lat="46.86456" lon="8.47627">
        <ele>2226</ele>
        <time>2021-08-12T08:56:45.426Z</time>
      </trkpt>
      <trkpt lat="46.86456" lon="8.47628">
        <ele>2227</ele>
        <time>2021-08-12T08:56:46.427Z</time>
      </trkpt>
      <trkpt lat="46.86456" lon="8.47629">
        <ele>2227</ele>
        <time>2021-08-12T08:56:47.427Z</time>
      </trkpt>
      <trkpt lat="46.86456" lon="8.47629">
        <ele>2228</ele>
        <time>2021-08-12T08:56:48.427Z</time>
      </trkpt>
      <trkpt lat="46.86456" lon="8.4763">
        <ele>2228</ele>
        <time>2021-08-12T08:56:49.426Z</time>
      </trkpt>
      <trkpt lat="46.86456" lon="8.47631">
        <ele>2228</ele>
        <time>2021-08-12T08:56:50.427Z</time>
      </trkpt>
      <trkpt lat="46.86456" lon="8.47631">
        <ele>2229</ele>
        <time>2021-08-12T08:56:51.427Z</time>
      </trkpt>
      <trkpt lat="46.86456" lon="8.47631">
        <ele>2229</ele>
        <time>2021-08-12T08:56:52.428Z</time>
      </trkpt>
      <trkpt lat="46.86457" lon="8.47632">
        <ele>2230</ele>
        <time>2021-08-12T08:56:53.427Z</time>
      </trkpt>
      <trkpt lat="46.86456" lon="8.47633">
        <ele>2231</ele>
        <time>2021-08-12T08:56:54.428Z</time>
      </trkpt>
      <trkpt lat="46.86456" lon="8.47634">
        <ele>2232</ele>
        <time>2021-08-12T08:56:55.427Z</time>
      </trkpt>
      <trkpt lat="46.86456" lon="8.47634">
        <ele>2233</ele>
        <time>2021-08-12T08:56:56.427Z</time>
      </trkpt>
      <trkpt lat="46.86457" lon="8.47635">
        <ele>2233</ele>
        <time>2021-08-12T08:56:57.427Z</time>
      </trkpt>
      <trkpt lat="46.86457" lon="8.47636">
        <ele>2234</ele>
        <time>2021-08-12T08:56:58.427Z</time>
      </trkpt>
      <trkpt lat="46.86458" lon="8.47636">
        <ele>2234</ele>
        <time>2021-08-12T08:56:59.427Z</time>
      </trkpt>
      <trkpt lat="46.86457" lon="8.47637">
        <ele>2234</ele>
        <time>2021-08-12T08:57:00.428Z</time>
      </trkpt>
      <trkpt lat="46.86456" lon="8.47638">
        <ele>2234</ele>
        <time>2021-08-12T08:57:01.428Z</time>
      </trkpt>
      <trkpt lat="46.86455" lon="8.47639">
        <ele>2234</ele>
        <time>2021-08-12T08:57:02.427Z</time>
      </trkpt>
      <trkpt lat="46.86455" lon="8.47639">
        <ele>2233</ele>
        <time>2021-08-12T08:57:03.428Z</time>
      </trkpt>
      <trkpt lat="46.86454" lon="8.47639">
        <ele>2233</ele>
        <time>2021-08-12T08:57:04.427Z</time>
      </trkpt>
      <trkpt lat="46.86454" lon="8.47638">
        <ele>2233</ele>
        <time>2021-08-12T08:57:05.427Z</time>
      </trkpt>
      <trkpt lat="46.86454" lon="8.47638">
        <ele>2234</ele>
        <time>2021-08-12T08:57:06.427Z</time>
      </trkpt>
      <trkpt lat="46.86454" lon="8.47637">
        <ele>2234</ele>
        <time>2021-08-12T08:57:07.428Z</time>
      </trkpt>
      <trkpt lat="46.86453" lon="8.47636">
        <ele>2235</ele>
        <time>2021-08-12T08:57:08.427Z</time>
      </trkpt>
      <trkpt lat="46.86453" lon="8.47635">
        <ele>2235</ele>
        <time>2021-08-12T08:57:09.427Z</time>
      </trkpt>
      <trkpt lat="46.86452" lon="8.47635">
        <ele>2236</ele>
        <time>2021-08-12T08:57:10.428Z</time>
      </trkpt>
      <trkpt lat="46.86451" lon="8.47635">
        <ele>2236</ele>
        <time>2021-08-12T08:57:11.427Z</time>
      </trkpt>
      <trkpt lat="46.86449" lon="8.47635">
        <ele>2237</ele>
        <time>2021-08-12T08:57:12.427Z</time>
      </trkpt>
      <trkpt lat="46.86449" lon="8.47636">
        <ele>2237</ele>
        <time>2021-08-12T08:57:13.428Z</time>
      </trkpt>
      <trkpt lat="46.86449" lon="8.47636">
        <ele>2237</ele>
        <time>2021-08-12T08:57:14.427Z</time>
      </trkpt>
      <trkpt lat="46.86449" lon="8.47637">
        <ele>2238</ele>
        <time>2021-08-12T08:57:15.428Z</time>
      </trkpt>
      <trkpt lat="46.86449" lon="8.47637">
        <ele>2238</ele>
        <time>2021-08-12T08:57:16.428Z</time>
      </trkpt>
      <trkpt lat="46.86448" lon="8.47635">
        <ele>2240</ele>
        <time>2021-08-12T08:57:17.428Z</time>
      </trkpt>
      <trkpt lat="46.86448" lon="8.47634">
        <ele>2240</ele>
        <time>2021-08-12T08:57:18.428Z</time>
      </trkpt>
      <trkpt lat="46.86448" lon="8.47633">
        <ele>2240</ele>
        <time>2021-08-12T08:57:19.427Z</time>
      </trkpt>
      <trkpt lat="46.86447" lon="8.47632">
        <ele>2240</ele>
        <time>2021-08-12T08:57:20.428Z</time>
      </trkpt>
      <trkpt lat="46.86447" lon="8.47632">
        <ele>2240</ele>
        <time>2021-08-12T08:57:21.427Z</time>
      </trkpt>
      <trkpt lat="46.86447" lon="8.47633">
        <ele>2240</ele>
        <time>2021-08-12T08:57:22.428Z</time>
      </trkpt>
      <trkpt lat="46.86447" lon="8.47633">
        <ele>2240</ele>
        <time>2021-08-12T08:57:23.428Z</time>
      </trkpt>
      <trkpt lat="46.86447" lon="8.47633">
        <ele>2240</ele>
        <time>2021-08-12T08:57:24.428Z</time>
      </trkpt>
      <trkpt lat="46.86447" lon="8.47634">
        <ele>2240</ele>
        <time>2021-08-12T08:57:25.427Z</time>
      </trkpt>
      <trkpt lat="46.86447" lon="8.47635">
        <ele>2240</ele>
        <time>2021-08-12T08:57:26.428Z</time>
      </trkpt>
      <trkpt lat="46.86447" lon="8.47636">
        <ele>2240</ele>
        <time>2021-08-12T08:57:27.428Z</time>
      </trkpt>
      <trkpt lat="46.86447" lon="8.47637">
        <ele>2239</ele>
        <time>2021-08-12T08:57:28.427Z</time>
      </trkpt>
      <trkpt lat="46.86447" lon="8.47638">
        <ele>2239</ele>
        <time>2021-08-12T08:57:29.428Z</time>
      </trkpt>
      <trkpt lat="46.86448" lon="8.47639">
        <ele>2239</ele>
        <time>2021-08-12T08:57:30.427Z</time>
      </trkpt>
      <trkpt lat="46.86448" lon="8.4764">
        <ele>2238</ele>
        <time>2021-08-12T08:57:31.428Z</time>
      </trkpt>
      <trkpt lat="46.86449" lon="8.47641">
        <ele>2238</ele>
        <time>2021-08-12T08:57:32.427Z</time>
      </trkpt>
      <trkpt lat="46.86449" lon="8.47642">
        <ele>2238</ele>
        <time>2021-08-12T08:57:33.427Z</time>
      </trkpt>
      <trkpt lat="46.86448" lon="8.47642">
        <ele>2238</ele>
        <time>2021-08-12T08:57:34.428Z</time>
      </trkpt>
      <trkpt lat="46.86446" lon="8.47643">
        <ele>2238</ele>
        <time>2021-08-12T08:57:35.428Z</time>
      </trkpt>
      <trkpt lat="46.86444" lon="8.47644">
        <ele>2238</ele>
        <time>2021-08-12T08:57:36.427Z</time>
      </trkpt>
      <trkpt lat="46.86443" lon="8.47644">
        <ele>2237</ele>
        <time>2021-08-12T08:57:37.427Z</time>
      </trkpt>
      <trkpt lat="46.86443" lon="8.47645">
        <ele>2236</ele>
        <time>2021-08-12T08:57:38.427Z</time>
      </trkpt>
      <trkpt lat="46.86443" lon="8.47646">
        <ele>2236</ele>
        <time>2021-08-12T08:57:39.427Z</time>
      </trkpt>
      <trkpt lat="46.86444" lon="8.47646">
        <ele>2236</ele>
        <time>2021-08-12T08:57:40.427Z</time>
      </trkpt>
      <trkpt lat="46.86444" lon="8.47647">
        <ele>2236</ele>
        <time>2021-08-12T08:57:41.428Z</time>
      </trkpt>
      <trkpt lat="46.86443" lon="8.47648">
        <ele>2235</ele>
        <time>2021-08-12T08:57:42.428Z</time>
      </trkpt>
      <trkpt lat="46.86443" lon="8.47648">
        <ele>2235</ele>
        <time>2021-08-12T08:57:43.427Z</time>
      </trkpt>
      <trkpt lat="46.86443" lon="8.47648">
        <ele>2235</ele>
        <time>2021-08-12T08:57:44.427Z</time>
      </trkpt>
      <trkpt lat="46.86442" lon="8.47648">
        <ele>2235</ele>
        <time>2021-08-12T08:57:45.428Z</time>
      </trkpt>
      <trkpt lat="46.86442" lon="8.47648">
        <ele>2235</ele>
        <time>2021-08-12T08:57:46.428Z</time>
      </trkpt>
      <trkpt lat="46.86441" lon="8.47648">
        <ele>2235</ele>
        <time>2021-08-12T08:57:47.427Z</time>
      </trkpt>
      <trkpt lat="46.86441" lon="8.47649">
        <ele>2236</ele>
        <time>2021-08-12T08:57:48.428Z</time>
      </trkpt>
      <trkpt lat="46.86441" lon="8.4765">
        <ele>2236</ele>
        <time>2021-08-12T08:57:49.428Z</time>
      </trkpt>
      <trkpt lat="46.86441" lon="8.47652">
        <ele>2237</ele>
        <time>2021-08-12T08:57:50.428Z</time>
      </trkpt>
      <trkpt lat="46.86441" lon="8.47654">
        <ele>2238</ele>
        <time>2021-08-12T08:57:51.427Z</time>
      </trkpt>
      <trkpt lat="46.8644" lon="8.47654">
        <ele>2238</ele>
        <time>2021-08-12T08:57:52.427Z</time>
      </trkpt>
      <trkpt lat="46.8644" lon="8.47655">
        <ele>2239</ele>
        <time>2021-08-12T08:57:53.428Z</time>
      </trkpt>
      <trkpt lat="46.8644" lon="8.47655">
        <ele>2240</ele>
        <time>2021-08-12T08:57:54.428Z</time>
      </trkpt>
      <trkpt lat="46.8644" lon="8.47655">
        <ele>2241</ele>
        <time>2021-08-12T08:57:55.428Z</time>
      </trkpt>
      <trkpt lat="46.8644" lon="8.47656">
        <ele>2242</ele>
        <time>2021-08-12T08:57:56.428Z</time>
      </trkpt>
      <trkpt lat="46.8644" lon="8.47657">
        <ele>2243</ele>
        <time>2021-08-12T08:57:57.428Z</time>
      </trkpt>
      <trkpt lat="46.8644" lon="8.47658">
        <ele>2243</ele>
        <time>2021-08-12T08:57:58.428Z</time>
      </trkpt>
      <trkpt lat="46.86439" lon="8.4766">
        <ele>2244</ele>
        <time>2021-08-12T08:57:59.428Z</time>
      </trkpt>
      <trkpt lat="46.86438" lon="8.47662">
        <ele>2244</ele>
        <time>2021-08-12T08:58:00.429Z</time>
      </trkpt>
      <trkpt lat="46.86437" lon="8.47663">
        <ele>2244</ele>
        <time>2021-08-12T08:58:01.429Z</time>
      </trkpt>
      <trkpt lat="46.86438" lon="8.47663">
        <ele>2244</ele>
        <time>2021-08-12T08:58:02.429Z</time>
      </trkpt>
      <trkpt lat="46.86438" lon="8.47664">
        <ele>2245</ele>
        <time>2021-08-12T08:58:03.428Z</time>
      </trkpt>
      <trkpt lat="46.86438" lon="8.47664">
        <ele>2245</ele>
        <time>2021-08-12T08:58:04.429Z</time>
      </trkpt>
      <trkpt lat="46.86438" lon="8.47665">
        <ele>2245</ele>
        <time>2021-08-12T08:58:05.429Z</time>
      </trkpt>
      <trkpt lat="46.86438" lon="8.47665">
        <ele>2246</ele>
        <time>2021-08-12T08:58:06.428Z</time>
      </trkpt>
      <trkpt lat="46.86437" lon="8.47666">
        <ele>2246</ele>
        <time>2021-08-12T08:58:07.428Z</time>
      </trkpt>
      <trkpt lat="46.86437" lon="8.47666">
        <ele>2246</ele>
        <time>2021-08-12T08:58:08.429Z</time>
      </trkpt>
      <trkpt lat="46.86436" lon="8.47666">
        <ele>2246</ele>
        <time>2021-08-12T08:58:09.429Z</time>
      </trkpt>
      <trkpt lat="46.86436" lon="8.47667">
        <ele>2247</ele>
        <time>2021-08-12T08:58:10.428Z</time>
      </trkpt>
      <trkpt lat="46.86435" lon="8.47667">
        <ele>2247</ele>
        <time>2021-08-12T08:58:11.428Z</time>
      </trkpt>
      <trkpt lat="46.86435" lon="8.47668">
        <ele>2247</ele>
        <time>2021-08-12T08:58:12.428Z</time>
      </trkpt>
      <trkpt lat="46.86434" lon="8.4767">
        <ele>2247</ele>
        <time>2021-08-12T08:58:13.429Z</time>
      </trkpt>
      <trkpt lat="46.86434" lon="8.47671">
        <ele>2247</ele>
        <time>2021-08-12T08:58:14.428Z</time>
      </trkpt>
      <trkpt lat="46.86434" lon="8.47672">
        <ele>2247</ele>
        <time>2021-08-12T08:58:15.429Z</time>
      </trkpt>
      <trkpt lat="46.86434" lon="8.47673">
        <ele>2247</ele>
        <time>2021-08-12T08:58:16.429Z</time>
      </trkpt>
      <trkpt lat="46.86434" lon="8.47674">
        <ele>2247</ele>
        <time>2021-08-12T08:58:17.428Z</time>
      </trkpt>
      <trkpt lat="46.86434" lon="8.47674">
        <ele>2247</ele>
        <time>2021-08-12T08:58:18.428Z</time>
      </trkpt>
      <trkpt lat="46.86434" lon="8.47674">
        <ele>2248</ele>
        <time>2021-08-12T08:58:19.428Z</time>
      </trkpt>
      <trkpt lat="46.86433" lon="8.47675">
        <ele>2248</ele>
        <time>2021-08-12T08:58:20.428Z</time>
      </trkpt>
      <trkpt lat="46.86432" lon="8.47676">
        <ele>2249</ele>
        <time>2021-08-12T08:58:21.428Z</time>
      </trkpt>
      <trkpt lat="46.86433" lon="8.47676">
        <ele>2250</ele>
        <time>2021-08-12T08:58:22.428Z</time>
      </trkpt>
      <trkpt lat="46.86433" lon="8.47677">
        <ele>2250</ele>
        <time>2021-08-12T08:58:23.428Z</time>
      </trkpt>
      <trkpt lat="46.86433" lon="8.47677">
        <ele>2250</ele>
        <time>2021-08-12T08:58:24.429Z</time>
      </trkpt>
      <trkpt lat="46.86433" lon="8.47677">
        <ele>2250</ele>
        <time>2021-08-12T08:58:25.429Z</time>
      </trkpt>
      <trkpt lat="46.86436" lon="8.47676">
        <ele>2249</ele>
        <time>2021-08-12T08:58:26.430Z</time>
      </trkpt>
      <trkpt lat="46.86435" lon="8.47675">
        <ele>2243</ele>
        <time>2021-08-12T08:58:27.430Z</time>
      </trkpt>
      <trkpt lat="46.86434" lon="8.47676">
        <ele>2243</ele>
        <time>2021-08-12T08:58:28.429Z</time>
      </trkpt>
      <trkpt lat="46.86434" lon="8.47678">
        <ele>2242</ele>
        <time>2021-08-12T08:58:29.429Z</time>
      </trkpt>
      <trkpt lat="46.86434" lon="8.47677">
        <ele>2242</ele>
        <time>2021-08-12T08:58:30.430Z</time>
      </trkpt>
      <trkpt lat="46.86434" lon="8.47677">
        <ele>2242</ele>
        <time>2021-08-12T08:58:31.430Z</time>
      </trkpt>
      <trkpt lat="46.86433" lon="8.47677">
        <ele>2242</ele>
        <time>2021-08-12T08:58:32.429Z</time>
      </trkpt>
      <trkpt lat="46.86433" lon="8.47677">
        <ele>2242</ele>
        <time>2021-08-12T08:58:33.430Z</time>
      </trkpt>
      <trkpt lat="46.86432" lon="8.47678">
        <ele>2243</ele>
        <time>2021-08-12T08:58:34.430Z</time>
      </trkpt>
      <trkpt lat="46.86431" lon="8.47679">
        <ele>2243</ele>
        <time>2021-08-12T08:58:35.429Z</time>
      </trkpt>
      <trkpt lat="46.8643" lon="8.47679">
        <ele>2243</ele>
        <time>2021-08-12T08:58:36.429Z</time>
      </trkpt>
      <trkpt lat="46.8643" lon="8.47678">
        <ele>2243</ele>
        <time>2021-08-12T08:58:37.429Z</time>
      </trkpt>
      <trkpt lat="46.8643" lon="8.47678">
        <ele>2243</ele>
        <time>2021-08-12T08:58:38.430Z</time>
      </trkpt>
      <trkpt lat="46.8643" lon="8.47677">
        <ele>2244</ele>
        <time>2021-08-12T08:58:39.430Z</time>
      </trkpt>
      <trkpt lat="46.8643" lon="8.47677">
        <ele>2244</ele>
        <time>2021-08-12T08:58:40.430Z</time>
      </trkpt>
      <trkpt lat="46.8643" lon="8.47677">
        <ele>2243</ele>
        <time>2021-08-12T08:58:41.429Z</time>
      </trkpt>
      <trkpt lat="46.8643" lon="8.47677">
        <ele>2243</ele>
        <time>2021-08-12T08:58:42.429Z</time>
      </trkpt>
      <trkpt lat="46.8643" lon="8.47677">
        <ele>2239</ele>
        <time>2021-08-12T08:58:43.431Z</time>
      </trkpt>
      <trkpt lat="46.8643" lon="8.47677">
        <ele>2239</ele>
        <time>2021-08-12T08:58:44.431Z</time>
      </trkpt>
      <trkpt lat="46.86431" lon="8.47677">
        <ele>2240</ele>
        <time>2021-08-12T08:58:45.430Z</time>
      </trkpt>
      <trkpt lat="46.86433" lon="8.47677">
        <ele>2245</ele>
        <time>2021-08-12T08:58:46.431Z</time>
      </trkpt>
      <trkpt lat="46.86433" lon="8.47677">
        <ele>2246</ele>
        <time>2021-08-12T08:58:47.431Z</time>
      </trkpt>
      <trkpt lat="46.86434" lon="8.47677">
        <ele>2249</ele>
        <time>2021-08-12T08:58:48.433Z</time>
      </trkpt>
      <trkpt lat="46.86434" lon="8.47676">
        <ele>2249</ele>
        <time>2021-08-12T08:58:49.432Z</time>
      </trkpt>
      <trkpt lat="46.86435" lon="8.47676">
        <ele>2249</ele>
        <time>2021-08-12T08:58:50.432Z</time>
      </trkpt>
      <trkpt lat="46.86435" lon="8.47676">
        <ele>2249</ele>
        <time>2021-08-12T08:58:51.433Z</time>
      </trkpt>
      <trkpt lat="46.86435" lon="8.47676">
        <ele>2249</ele>
        <time>2021-08-12T08:58:52.433Z</time>
      </trkpt>
      <trkpt lat="46.86434" lon="8.4768">
        <ele>2245</ele>
        <time>2021-08-12T08:58:53.434Z</time>
      </trkpt>
      <trkpt lat="46.86433" lon="8.4768">
        <ele>2246</ele>
        <time>2021-08-12T08:58:54.434Z</time>
      </trkpt>
      <trkpt lat="46.86433" lon="8.47681">
        <ele>2247</ele>
        <time>2021-08-12T08:58:55.433Z</time>
      </trkpt>
      <trkpt lat="46.86433" lon="8.47682">
        <ele>2247</ele>
        <time>2021-08-12T08:58:56.434Z</time>
      </trkpt>
      <trkpt lat="46.86433" lon="8.47683">
        <ele>2247</ele>
        <time>2021-08-12T08:58:57.433Z</time>
      </trkpt>
      <trkpt lat="46.86433" lon="8.47685">
        <ele>2247</ele>
        <time>2021-08-12T08:58:58.433Z</time>
      </trkpt>
      <trkpt lat="46.86432" lon="8.47686">
        <ele>2247</ele>
        <time>2021-08-12T08:58:59.434Z</time>
      </trkpt>
      <trkpt lat="46.86431" lon="8.47688">
        <ele>2247</ele>
        <time>2021-08-12T08:59:00.433Z</time>
      </trkpt>
      <trkpt lat="46.8643" lon="8.47689">
        <ele>2248</ele>
        <time>2021-08-12T08:59:01.433Z</time>
      </trkpt>
      <trkpt lat="46.86429" lon="8.47691">
        <ele>2248</ele>
        <time>2021-08-12T08:59:02.434Z</time>
      </trkpt>
      <trkpt lat="46.86429" lon="8.47691">
        <ele>2248</ele>
        <time>2021-08-12T08:59:03.433Z</time>
      </trkpt>
      <trkpt lat="46.86428" lon="8.47692">
        <ele>2249</ele>
        <time>2021-08-12T08:59:04.434Z</time>
      </trkpt>
      <trkpt lat="46.86428" lon="8.47692">
        <ele>2249</ele>
        <time>2021-08-12T08:59:05.433Z</time>
      </trkpt>
      <trkpt lat="46.86428" lon="8.47693">
        <ele>2249</ele>
        <time>2021-08-12T08:59:06.433Z</time>
      </trkpt>
      <trkpt lat="46.86428" lon="8.47694">
        <ele>2249</ele>
        <time>2021-08-12T08:59:07.434Z</time>
      </trkpt>
      <trkpt lat="46.86427" lon="8.47695">
        <ele>2249</ele>
        <time>2021-08-12T08:59:08.433Z</time>
      </trkpt>
      <trkpt lat="46.86427" lon="8.47696">
        <ele>2248</ele>
        <time>2021-08-12T08:59:09.433Z</time>
      </trkpt>
      <trkpt lat="46.86427" lon="8.47698">
        <ele>2248</ele>
        <time>2021-08-12T08:59:10.433Z</time>
      </trkpt>
      <trkpt lat="46.86427" lon="8.47698">
        <ele>2247</ele>
        <time>2021-08-12T08:59:11.433Z</time>
      </trkpt>
      <trkpt lat="46.86427" lon="8.47699">
        <ele>2247</ele>
        <time>2021-08-12T08:59:12.433Z</time>
      </trkpt>
      <trkpt lat="46.86427" lon="8.477">
        <ele>2247</ele>
        <time>2021-08-12T08:59:13.434Z</time>
      </trkpt>
      <trkpt lat="46.86427" lon="8.47701">
        <ele>2247</ele>
        <time>2021-08-12T08:59:14.433Z</time>
      </trkpt>
      <trkpt lat="46.86427" lon="8.47702">
        <ele>2247</ele>
        <time>2021-08-12T08:59:15.433Z</time>
      </trkpt>
      <trkpt lat="46.86427" lon="8.47702">
        <ele>2247</ele>
        <time>2021-08-12T08:59:16.433Z</time>
      </trkpt>
      <trkpt lat="46.86425" lon="8.47699">
        <ele>2253</ele>
        <time>2021-08-12T08:59:17.434Z</time>
      </trkpt>
      <trkpt lat="46.86425" lon="8.477">
        <ele>2252</ele>
        <time>2021-08-12T08:59:18.434Z</time>
      </trkpt>
      <trkpt lat="46.86425" lon="8.47701">
        <ele>2251</ele>
        <time>2021-08-12T08:59:19.435Z</time>
      </trkpt>
      <trkpt lat="46.86425" lon="8.47702">
        <ele>2250</ele>
        <time>2021-08-12T08:59:20.435Z</time>
      </trkpt>
      <trkpt lat="46.86425" lon="8.47703">
        <ele>2250</ele>
        <time>2021-08-12T08:59:21.434Z</time>
      </trkpt>
      <trkpt lat="46.86424" lon="8.47704">
        <ele>2250</ele>
        <time>2021-08-12T08:59:22.435Z</time>
      </trkpt>
      <trkpt lat="46.86424" lon="8.47705">
        <ele>2250</ele>
        <time>2021-08-12T08:59:23.435Z</time>
      </trkpt>
      <trkpt lat="46.86425" lon="8.47706">
        <ele>2249</ele>
        <time>2021-08-12T08:59:24.434Z</time>
      </trkpt>
      <trkpt lat="46.86425" lon="8.47707">
        <ele>2250</ele>
        <time>2021-08-12T08:59:25.435Z</time>
      </trkpt>
      <trkpt lat="46.86424" lon="8.47708">
        <ele>2250</ele>
        <time>2021-08-12T08:59:26.435Z</time>
      </trkpt>
      <trkpt lat="46.86424" lon="8.47709">
        <ele>2250</ele>
        <time>2021-08-12T08:59:27.435Z</time>
      </trkpt>
      <trkpt lat="46.86425" lon="8.4771">
        <ele>2249</ele>
        <time>2021-08-12T08:59:28.434Z</time>
      </trkpt>
      <trkpt lat="46.86425" lon="8.47711">
        <ele>2249</ele>
        <time>2021-08-12T08:59:29.434Z</time>
      </trkpt>
      <trkpt lat="46.86425" lon="8.47711">
        <ele>2249</ele>
        <time>2021-08-12T08:59:30.435Z</time>
      </trkpt>
      <trkpt lat="46.86425" lon="8.47713">
        <ele>2249</ele>
        <time>2021-08-12T08:59:31.435Z</time>
      </trkpt>
      <trkpt lat="46.86425" lon="8.47714">
        <ele>2248</ele>
        <time>2021-08-12T08:59:32.435Z</time>
      </trkpt>
      <trkpt lat="46.86425" lon="8.47715">
        <ele>2247</ele>
        <time>2021-08-12T08:59:33.434Z</time>
      </trkpt>
      <trkpt lat="46.86425" lon="8.47716">
        <ele>2247</ele>
        <time>2021-08-12T08:59:34.435Z</time>
      </trkpt>
      <trkpt lat="46.86425" lon="8.47717">
        <ele>2246</ele>
        <time>2021-08-12T08:59:35.435Z</time>
      </trkpt>
      <trkpt lat="46.86425" lon="8.47717">
        <ele>2246</ele>
        <time>2021-08-12T08:59:36.435Z</time>
      </trkpt>
      <trkpt lat="46.86425" lon="8.47718">
        <ele>2246</ele>
        <time>2021-08-12T08:59:37.435Z</time>
      </trkpt>
      <trkpt lat="46.86425" lon="8.4772">
        <ele>2246</ele>
        <time>2021-08-12T08:59:38.435Z</time>
      </trkpt>
      <trkpt lat="46.86425" lon="8.47721">
        <ele>2246</ele>
        <time>2021-08-12T08:59:39.434Z</time>
      </trkpt>
      <trkpt lat="46.86425" lon="8.47722">
        <ele>2245</ele>
        <time>2021-08-12T08:59:40.435Z</time>
      </trkpt>
      <trkpt lat="46.86425" lon="8.47724">
        <ele>2245</ele>
        <time>2021-08-12T08:59:41.434Z</time>
      </trkpt>
      <trkpt lat="46.86425" lon="8.47725">
        <ele>2245</ele>
        <time>2021-08-12T08:59:42.434Z</time>
      </trkpt>
      <trkpt lat="46.86424" lon="8.47727">
        <ele>2245</ele>
        <time>2021-08-12T08:59:43.435Z</time>
      </trkpt>
      <trkpt lat="46.86424" lon="8.47728">
        <ele>2245</ele>
        <time>2021-08-12T08:59:44.434Z</time>
      </trkpt>
      <trkpt lat="46.86424" lon="8.47729">
        <ele>2246</ele>
        <time>2021-08-12T08:59:45.435Z</time>
      </trkpt>
      <trkpt lat="46.86424" lon="8.4773">
        <ele>2247</ele>
        <time>2021-08-12T08:59:46.434Z</time>
      </trkpt>
      <trkpt lat="46.86424" lon="8.47731">
        <ele>2247</ele>
        <time>2021-08-12T08:59:47.434Z</time>
      </trkpt>
      <trkpt lat="46.86424" lon="8.47732">
        <ele>2248</ele>
        <time>2021-08-12T08:59:48.435Z</time>
      </trkpt>
      <trkpt lat="46.86423" lon="8.47733">
        <ele>2248</ele>
        <time>2021-08-12T08:59:49.434Z</time>
      </trkpt>
      <trkpt lat="46.86423" lon="8.47734">
        <ele>2247</ele>
        <time>2021-08-12T08:59:50.435Z</time>
      </trkpt>
      <trkpt lat="46.86423" lon="8.47735">
        <ele>2247</ele>
        <time>2021-08-12T08:59:51.435Z</time>
      </trkpt>
      <trkpt lat="46.86423" lon="8.47735">
        <ele>2248</ele>
        <time>2021-08-12T08:59:52.434Z</time>
      </trkpt>
      <trkpt lat="46.86423" lon="8.47737">
        <ele>2248</ele>
        <time>2021-08-12T08:59:53.435Z</time>
      </trkpt>
      <trkpt lat="46.86423" lon="8.47738">
        <ele>2248</ele>
        <time>2021-08-12T08:59:54.434Z</time>
      </trkpt>
      <trkpt lat="46.86423" lon="8.47739">
        <ele>2248</ele>
        <time>2021-08-12T08:59:55.435Z</time>
      </trkpt>
      <trkpt lat="46.86423" lon="8.47741">
        <ele>2248</ele>
        <time>2021-08-12T08:59:56.434Z</time>
      </trkpt>
      <trkpt lat="46.86424" lon="8.47742">
        <ele>2248</ele>
        <time>2021-08-12T08:59:57.435Z</time>
      </trkpt>
      <trkpt lat="46.86424" lon="8.47744">
        <ele>2248</ele>
        <time>2021-08-12T08:59:58.434Z</time>
      </trkpt>
      <trkpt lat="46.86424" lon="8.47745">
        <ele>2247</ele>
        <time>2021-08-12T08:59:59.435Z</time>
      </trkpt>
      <trkpt lat="46.86423" lon="8.47746">
        <ele>2247</ele>
        <time>2021-08-12T09:00:00.434Z</time>
      </trkpt>
      <trkpt lat="46.86423" lon="8.47747">
        <ele>2247</ele>
        <time>2021-08-12T09:00:01.435Z</time>
      </trkpt>
      <trkpt lat="46.86423" lon="8.47748">
        <ele>2247</ele>
        <time>2021-08-12T09:00:02.435Z</time>
      </trkpt>
      <trkpt lat="46.86423" lon="8.47749">
        <ele>2248</ele>
        <time>2021-08-12T09:00:03.434Z</time>
      </trkpt>
      <trkpt lat="46.86423" lon="8.4775">
        <ele>2247</ele>
        <time>2021-08-12T09:00:04.435Z</time>
      </trkpt>
      <trkpt lat="46.86423" lon="8.47752">
        <ele>2247</ele>
        <time>2021-08-12T09:00:05.434Z</time>
      </trkpt>
      <trkpt lat="46.86423" lon="8.47753">
        <ele>2247</ele>
        <time>2021-08-12T09:00:06.434Z</time>
      </trkpt>
      <trkpt lat="46.86422" lon="8.47754">
        <ele>2247</ele>
        <time>2021-08-12T09:00:07.434Z</time>
      </trkpt>
      <trkpt lat="46.86423" lon="8.47755">
        <ele>2247</ele>
        <time>2021-08-12T09:00:08.434Z</time>
      </trkpt>
      <trkpt lat="46.86423" lon="8.47756">
        <ele>2247</ele>
        <time>2021-08-12T09:00:09.435Z</time>
      </trkpt>
      <trkpt lat="46.86423" lon="8.47757">
        <ele>2247</ele>
        <time>2021-08-12T09:00:10.435Z</time>
      </trkpt>
      <trkpt lat="46.86424" lon="8.47758">
        <ele>2247</ele>
        <time>2021-08-12T09:00:11.434Z</time>
      </trkpt>
      <trkpt lat="46.86424" lon="8.47759">
        <ele>2247</ele>
        <time>2021-08-12T09:00:12.434Z</time>
      </trkpt>
      <trkpt lat="46.86425" lon="8.4776">
        <ele>2247</ele>
        <time>2021-08-12T09:00:13.434Z</time>
      </trkpt>
      <trkpt lat="46.86425" lon="8.47762">
        <ele>2247</ele>
        <time>2021-08-12T09:00:14.435Z</time>
      </trkpt>
      <trkpt lat="46.86425" lon="8.47764">
        <ele>2246</ele>
        <time>2021-08-12T09:00:15.435Z</time>
      </trkpt>
      <trkpt lat="46.86426" lon="8.47765">
        <ele>2246</ele>
        <time>2021-08-12T09:00:16.434Z</time>
      </trkpt>
      <trkpt lat="46.86426" lon="8.47767">
        <ele>2246</ele>
        <time>2021-08-12T09:00:17.434Z</time>
      </trkpt>
      <trkpt lat="46.86426" lon="8.47768">
        <ele>2247</ele>
        <time>2021-08-12T09:00:18.434Z</time>
      </trkpt>
      <trkpt lat="46.86426" lon="8.47769">
        <ele>2247</ele>
        <time>2021-08-12T09:00:19.435Z</time>
      </trkpt>
      <trkpt lat="46.86426" lon="8.47771">
        <ele>2248</ele>
        <time>2021-08-12T09:00:20.434Z</time>
      </trkpt>
      <trkpt lat="46.86426" lon="8.47772">
        <ele>2248</ele>
        <time>2021-08-12T09:00:21.434Z</time>
      </trkpt>
      <trkpt lat="46.86425" lon="8.47773">
        <ele>2248</ele>
        <time>2021-08-12T09:00:22.434Z</time>
      </trkpt>
      <trkpt lat="46.86425" lon="8.47773">
        <ele>2248</ele>
        <time>2021-08-12T09:00:23.434Z</time>
      </trkpt>
      <trkpt lat="46.86425" lon="8.47774">
        <ele>2247</ele>
        <time>2021-08-12T09:00:24.434Z</time>
      </trkpt>
      <trkpt lat="46.86425" lon="8.47775">
        <ele>2248</ele>
        <time>2021-08-12T09:00:25.434Z</time>
      </trkpt>
      <trkpt lat="46.86424" lon="8.47776">
        <ele>2247</ele>
        <time>2021-08-12T09:00:26.434Z</time>
      </trkpt>
      <trkpt lat="46.86424" lon="8.47777">
        <ele>2247</ele>
        <time>2021-08-12T09:00:27.434Z</time>
      </trkpt>
      <trkpt lat="46.86424" lon="8.47778">
        <ele>2247</ele>
        <time>2021-08-12T09:00:28.434Z</time>
      </trkpt>
      <trkpt lat="46.86424" lon="8.47779">
        <ele>2246</ele>
        <time>2021-08-12T09:00:29.434Z</time>
      </trkpt>
      <trkpt lat="46.86423" lon="8.4778">
        <ele>2246</ele>
        <time>2021-08-12T09:00:30.434Z</time>
      </trkpt>
      <trkpt lat="46.86423" lon="8.47781">
        <ele>2246</ele>
        <time>2021-08-12T09:00:31.434Z</time>
      </trkpt>
      <trkpt lat="46.86422" lon="8.47782">
        <ele>2247</ele>
        <time>2021-08-12T09:00:32.434Z</time>
      </trkpt>
      <trkpt lat="46.86422" lon="8.47783">
        <ele>2247</ele>
        <time>2021-08-12T09:00:33.435Z</time>
      </trkpt>
      <trkpt lat="46.86422" lon="8.47784">
        <ele>2247</ele>
        <time>2021-08-12T09:00:34.435Z</time>
      </trkpt>
      <trkpt lat="46.86422" lon="8.47785">
        <ele>2248</ele>
        <time>2021-08-12T09:00:35.434Z</time>
      </trkpt>
      <trkpt lat="46.86421" lon="8.47787">
        <ele>2248</ele>
        <time>2021-08-12T09:00:36.435Z</time>
      </trkpt>
      <trkpt lat="46.86421" lon="8.47788">
        <ele>2249</ele>
        <time>2021-08-12T09:00:37.435Z</time>
      </trkpt>
      <trkpt lat="46.86421" lon="8.4779">
        <ele>2249</ele>
        <time>2021-08-12T09:00:38.435Z</time>
      </trkpt>
      <trkpt lat="46.86421" lon="8.47792">
        <ele>2249</ele>
        <time>2021-08-12T09:00:39.434Z</time>
      </trkpt>
      <trkpt lat="46.8642" lon="8.47793">
        <ele>2249</ele>
        <time>2021-08-12T09:00:40.435Z</time>
      </trkpt>
      <trkpt lat="46.8642" lon="8.47795">
        <ele>2249</ele>
        <time>2021-08-12T09:00:41.435Z</time>
      </trkpt>
      <trkpt lat="46.8642" lon="8.47796">
        <ele>2249</ele>
        <time>2021-08-12T09:00:42.435Z</time>
      </trkpt>
      <trkpt lat="46.8642" lon="8.47797">
        <ele>2249</ele>
        <time>2021-08-12T09:00:43.435Z</time>
      </trkpt>
      <trkpt lat="46.86419" lon="8.47799">
        <ele>2249</ele>
        <time>2021-08-12T09:00:44.435Z</time>
      </trkpt>
      <trkpt lat="46.86419" lon="8.478">
        <ele>2249</ele>
        <time>2021-08-12T09:00:45.435Z</time>
      </trkpt>
      <trkpt lat="46.86419" lon="8.47802">
        <ele>2249</ele>
        <time>2021-08-12T09:00:46.435Z</time>
      </trkpt>
      <trkpt lat="46.86419" lon="8.47803">
        <ele>2249</ele>
        <time>2021-08-12T09:00:47.435Z</time>
      </trkpt>
      <trkpt lat="46.86419" lon="8.47804">
        <ele>2249</ele>
        <time>2021-08-12T09:00:48.435Z</time>
      </trkpt>
      <trkpt lat="46.8642" lon="8.47806">
        <ele>2249</ele>
        <time>2021-08-12T09:00:49.434Z</time>
      </trkpt>
      <trkpt lat="46.8642" lon="8.47807">
        <ele>2248</ele>
        <time>2021-08-12T09:00:50.435Z</time>
      </trkpt>
      <trkpt lat="46.8642" lon="8.47808">
        <ele>2248</ele>
        <time>2021-08-12T09:00:51.434Z</time>
      </trkpt>
      <trkpt lat="46.8642" lon="8.47809">
        <ele>2248</ele>
        <time>2021-08-12T09:00:52.435Z</time>
      </trkpt>
      <trkpt lat="46.8642" lon="8.4781">
        <ele>2248</ele>
        <time>2021-08-12T09:00:53.435Z</time>
      </trkpt>
      <trkpt lat="46.8642" lon="8.47811">
        <ele>2248</ele>
        <time>2021-08-12T09:00:54.435Z</time>
      </trkpt>
      <trkpt lat="46.8642" lon="8.47813">
        <ele>2248</ele>
        <time>2021-08-12T09:00:55.435Z</time>
      </trkpt>
      <trkpt lat="46.8642" lon="8.47815">
        <ele>2248</ele>
        <time>2021-08-12T09:00:56.435Z</time>
      </trkpt>
      <trkpt lat="46.86419" lon="8.47816">
        <ele>2248</ele>
        <time>2021-08-12T09:00:57.434Z</time>
      </trkpt>
      <trkpt lat="46.86419" lon="8.47818">
        <ele>2248</ele>
        <time>2021-08-12T09:00:58.434Z</time>
      </trkpt>
      <trkpt lat="46.86418" lon="8.47819">
        <ele>2248</ele>
        <time>2021-08-12T09:00:59.434Z</time>
      </trkpt>
      <trkpt lat="46.86417" lon="8.47819">
        <ele>2248</ele>
        <time>2021-08-12T09:01:00.434Z</time>
      </trkpt>
      <trkpt lat="46.86416" lon="8.4782">
        <ele>2249</ele>
        <time>2021-08-12T09:01:01.435Z</time>
      </trkpt>
      <trkpt lat="46.86414" lon="8.47819">
        <ele>2250</ele>
        <time>2021-08-12T09:01:02.435Z</time>
      </trkpt>
      <trkpt lat="46.86414" lon="8.47819">
        <ele>2251</ele>
        <time>2021-08-12T09:01:03.435Z</time>
      </trkpt>
      <trkpt lat="46.86413" lon="8.4782">
        <ele>2252</ele>
        <time>2021-08-12T09:01:04.435Z</time>
      </trkpt>
      <trkpt lat="46.86413" lon="8.47821">
        <ele>2253</ele>
        <time>2021-08-12T09:01:05.434Z</time>
      </trkpt>
      <trkpt lat="46.86412" lon="8.47822">
        <ele>2254</ele>
        <time>2021-08-12T09:01:06.435Z</time>
      </trkpt>
      <trkpt lat="46.86412" lon="8.47822">
        <ele>2254</ele>
        <time>2021-08-12T09:01:07.434Z</time>
      </trkpt>
      <trkpt lat="46.86412" lon="8.47823">
        <ele>2254</ele>
        <time>2021-08-12T09:01:08.434Z</time>
      </trkpt>
      <trkpt lat="46.86412" lon="8.47823">
        <ele>2255</ele>
        <time>2021-08-12T09:01:09.435Z</time>
      </trkpt>
      <trkpt lat="46.86411" lon="8.47824">
        <ele>2255</ele>
        <time>2021-08-12T09:01:10.435Z</time>
      </trkpt>
      <trkpt lat="46.86411" lon="8.47825">
        <ele>2255</ele>
        <time>2021-08-12T09:01:11.435Z</time>
      </trkpt>
      <trkpt lat="46.86411" lon="8.47826">
        <ele>2254</ele>
        <time>2021-08-12T09:01:12.434Z</time>
      </trkpt>
      <trkpt lat="46.8641" lon="8.47826">
        <ele>2254</ele>
        <time>2021-08-12T09:01:13.434Z</time>
      </trkpt>
      <trkpt lat="46.8641" lon="8.47827">
        <ele>2253</ele>
        <time>2021-08-12T09:01:14.434Z</time>
      </trkpt>
      <trkpt lat="46.8641" lon="8.47828">
        <ele>2253</ele>
        <time>2021-08-12T09:01:15.434Z</time>
      </trkpt>
      <trkpt lat="46.8641" lon="8.47829">
        <ele>2252</ele>
        <time>2021-08-12T09:01:16.434Z</time>
      </trkpt>
      <trkpt lat="46.86409" lon="8.4783">
        <ele>2252</ele>
        <time>2021-08-12T09:01:17.434Z</time>
      </trkpt>
      <trkpt lat="46.86409" lon="8.4783">
        <ele>2251</ele>
        <time>2021-08-12T09:01:18.435Z</time>
      </trkpt>
      <trkpt lat="46.86409" lon="8.47831">
        <ele>2251</ele>
        <time>2021-08-12T09:01:19.434Z</time>
      </trkpt>
      <trkpt lat="46.86408" lon="8.47832">
        <ele>2251</ele>
        <time>2021-08-12T09:01:20.435Z</time>
      </trkpt>
      <trkpt lat="46.86408" lon="8.47833">
        <ele>2251</ele>
        <time>2021-08-12T09:01:21.435Z</time>
      </trkpt>
      <trkpt lat="46.86408" lon="8.47834">
        <ele>2251</ele>
        <time>2021-08-12T09:01:22.434Z</time>
      </trkpt>
      <trkpt lat="46.86407" lon="8.47834">
        <ele>2251</ele>
        <time>2021-08-12T09:01:23.435Z</time>
      </trkpt>
      <trkpt lat="46.86406" lon="8.47835">
        <ele>2252</ele>
        <time>2021-08-12T09:01:24.435Z</time>
      </trkpt>
      <trkpt lat="46.86406" lon="8.47836">
        <ele>2252</ele>
        <time>2021-08-12T09:01:25.435Z</time>
      </trkpt>
      <trkpt lat="46.86406" lon="8.47837">
        <ele>2252</ele>
        <time>2021-08-12T09:01:26.435Z</time>
      </trkpt>
      <trkpt lat="46.86405" lon="8.47838">
        <ele>2252</ele>
        <time>2021-08-12T09:01:27.435Z</time>
      </trkpt>
      <trkpt lat="46.86405" lon="8.47839">
        <ele>2252</ele>
        <time>2021-08-12T09:01:28.435Z</time>
      </trkpt>
      <trkpt lat="46.86405" lon="8.47839">
        <ele>2252</ele>
        <time>2021-08-12T09:01:29.435Z</time>
      </trkpt>
      <trkpt lat="46.86405" lon="8.4784">
        <ele>2252</ele>
        <time>2021-08-12T09:01:30.435Z</time>
      </trkpt>
      <trkpt lat="46.86404" lon="8.47841">
        <ele>2253</ele>
        <time>2021-08-12T09:01:31.435Z</time>
      </trkpt>
      <trkpt lat="46.86404" lon="8.47842">
        <ele>2252</ele>
        <time>2021-08-12T09:01:32.435Z</time>
      </trkpt>
      <trkpt lat="46.86403" lon="8.47842">
        <ele>2252</ele>
        <time>2021-08-12T09:01:33.435Z</time>
      </trkpt>
      <trkpt lat="46.86403" lon="8.47843">
        <ele>2252</ele>
        <time>2021-08-12T09:01:34.434Z</time>
      </trkpt>
      <trkpt lat="46.86402" lon="8.47844">
        <ele>2252</ele>
        <time>2021-08-12T09:01:35.434Z</time>
      </trkpt>
      <trkpt lat="46.86401" lon="8.47845">
        <ele>2252</ele>
        <time>2021-08-12T09:01:36.434Z</time>
      </trkpt>
      <trkpt lat="46.86401" lon="8.47846">
        <ele>2252</ele>
        <time>2021-08-12T09:01:37.435Z</time>
      </trkpt>
      <trkpt lat="46.864" lon="8.47847">
        <ele>2252</ele>
        <time>2021-08-12T09:01:38.434Z</time>
      </trkpt>
      <trkpt lat="46.864" lon="8.47848">
        <ele>2252</ele>
        <time>2021-08-12T09:01:39.435Z</time>
      </trkpt>
      <trkpt lat="46.86399" lon="8.47849">
        <ele>2251</ele>
        <time>2021-08-12T09:01:40.434Z</time>
      </trkpt>
      <trkpt lat="46.86399" lon="8.47849">
        <ele>2250</ele>
        <time>2021-08-12T09:01:41.434Z</time>
      </trkpt>
      <trkpt lat="46.86399" lon="8.4785">
        <ele>2250</ele>
        <time>2021-08-12T09:01:42.435Z</time>
      </trkpt>
      <trkpt lat="46.86399" lon="8.47851">
        <ele>2249</ele>
        <time>2021-08-12T09:01:43.435Z</time>
      </trkpt>
      <trkpt lat="46.86399" lon="8.47851">
        <ele>2249</ele>
        <time>2021-08-12T09:01:44.435Z</time>
      </trkpt>
      <trkpt lat="46.86399" lon="8.47852">
        <ele>2250</ele>
        <time>2021-08-12T09:01:45.435Z</time>
      </trkpt>
      <trkpt lat="46.86398" lon="8.47852">
        <ele>2250</ele>
        <time>2021-08-12T09:01:46.435Z</time>
      </trkpt>
      <trkpt lat="46.86398" lon="8.47853">
        <ele>2251</ele>
        <time>2021-08-12T09:01:47.434Z</time>
      </trkpt>
      <trkpt lat="46.86397" lon="8.47853">
        <ele>2251</ele>
        <time>2021-08-12T09:01:48.434Z</time>
      </trkpt>
      <trkpt lat="46.86397" lon="8.47853">
        <ele>2252</ele>
        <time>2021-08-12T09:01:49.435Z</time>
      </trkpt>
      <trkpt lat="46.86396" lon="8.47853">
        <ele>2253</ele>
        <time>2021-08-12T09:01:50.435Z</time>
      </trkpt>
      <trkpt lat="46.86396" lon="8.47854">
        <ele>2253</ele>
        <time>2021-08-12T09:01:51.435Z</time>
      </trkpt>
      <trkpt lat="46.86395" lon="8.47854">
        <ele>2254</ele>
        <time>2021-08-12T09:01:52.434Z</time>
      </trkpt>
      <trkpt lat="46.86394" lon="8.47855">
        <ele>2254</ele>
        <time>2021-08-12T09:01:53.435Z</time>
      </trkpt>
      <trkpt lat="46.86394" lon="8.47855">
        <ele>2255</ele>
        <time>2021-08-12T09:01:54.434Z</time>
      </trkpt>
      <trkpt lat="46.86394" lon="8.47856">
        <ele>2255</ele>
        <time>2021-08-12T09:01:55.434Z</time>
      </trkpt>
      <trkpt lat="46.86393" lon="8.47857">
        <ele>2256</ele>
        <time>2021-08-12T09:01:56.435Z</time>
      </trkpt>
      <trkpt lat="46.86393" lon="8.47857">
        <ele>2256</ele>
        <time>2021-08-12T09:01:57.435Z</time>
      </trkpt>
      <trkpt lat="46.86393" lon="8.47858">
        <ele>2256</ele>
        <time>2021-08-12T09:01:58.434Z</time>
      </trkpt>
      <trkpt lat="46.86392" lon="8.47859">
        <ele>2256</ele>
        <time>2021-08-12T09:01:59.435Z</time>
      </trkpt>
      <trkpt lat="46.86392" lon="8.4786">
        <ele>2255</ele>
        <time>2021-08-12T09:02:00.435Z</time>
      </trkpt>
      <trkpt lat="46.86392" lon="8.47861">
        <ele>2255</ele>
        <time>2021-08-12T09:02:01.435Z</time>
      </trkpt>
      <trkpt lat="46.86391" lon="8.47862">
        <ele>2255</ele>
        <time>2021-08-12T09:02:02.434Z</time>
      </trkpt>
      <trkpt lat="46.86391" lon="8.47863">
        <ele>2254</ele>
        <time>2021-08-12T09:02:03.434Z</time>
      </trkpt>
      <trkpt lat="46.86391" lon="8.47864">
        <ele>2254</ele>
        <time>2021-08-12T09:02:04.434Z</time>
      </trkpt>
      <trkpt lat="46.86391" lon="8.47866">
        <ele>2253</ele>
        <time>2021-08-12T09:02:05.434Z</time>
      </trkpt>
      <trkpt lat="46.8639" lon="8.47867">
        <ele>2253</ele>
        <time>2021-08-12T09:02:06.435Z</time>
      </trkpt>
      <trkpt lat="46.8639" lon="8.47868">
        <ele>2253</ele>
        <time>2021-08-12T09:02:07.434Z</time>
      </trkpt>
      <trkpt lat="46.8639" lon="8.4787">
        <ele>2253</ele>
        <time>2021-08-12T09:02:08.434Z</time>
      </trkpt>
      <trkpt lat="46.8639" lon="8.47871">
        <ele>2253</ele>
        <time>2021-08-12T09:02:09.434Z</time>
      </trkpt>
      <trkpt lat="46.86389" lon="8.47873">
        <ele>2252</ele>
        <time>2021-08-12T09:02:10.435Z</time>
      </trkpt>
      <trkpt lat="46.86389" lon="8.47874">
        <ele>2252</ele>
        <time>2021-08-12T09:02:11.435Z</time>
      </trkpt>
      <trkpt lat="46.86389" lon="8.47875">
        <ele>2253</ele>
        <time>2021-08-12T09:02:12.434Z</time>
      </trkpt>
      <trkpt lat="46.86389" lon="8.47877">
        <ele>2253</ele>
        <time>2021-08-12T09:02:13.434Z</time>
      </trkpt>
      <trkpt lat="46.86388" lon="8.47878">
        <ele>2253</ele>
        <time>2021-08-12T09:02:14.434Z</time>
      </trkpt>
      <trkpt lat="46.86388" lon="8.47879">
        <ele>2253</ele>
        <time>2021-08-12T09:02:15.434Z</time>
      </trkpt>
      <trkpt lat="46.86388" lon="8.4788">
        <ele>2254</ele>
        <time>2021-08-12T09:02:16.434Z</time>
      </trkpt>
      <trkpt lat="46.86387" lon="8.47882">
        <ele>2254</ele>
        <time>2021-08-12T09:02:17.434Z</time>
      </trkpt>
      <trkpt lat="46.86387" lon="8.47883">
        <ele>2254</ele>
        <time>2021-08-12T09:02:18.434Z</time>
      </trkpt>
      <trkpt lat="46.86387" lon="8.47885">
        <ele>2254</ele>
        <time>2021-08-12T09:02:19.434Z</time>
      </trkpt>
      <trkpt lat="46.86387" lon="8.47886">
        <ele>2255</ele>
        <time>2021-08-12T09:02:20.434Z</time>
      </trkpt>
      <trkpt lat="46.86387" lon="8.47887">
        <ele>2255</ele>
        <time>2021-08-12T09:02:21.434Z</time>
      </trkpt>
      <trkpt lat="46.86386" lon="8.47888">
        <ele>2256</ele>
        <time>2021-08-12T09:02:22.434Z</time>
      </trkpt>
      <trkpt lat="46.86386" lon="8.4789">
        <ele>2257</ele>
        <time>2021-08-12T09:02:23.434Z</time>
      </trkpt>
      <trkpt lat="46.86386" lon="8.47891">
        <ele>2258</ele>
        <time>2021-08-12T09:02:24.434Z</time>
      </trkpt>
      <trkpt lat="46.86386" lon="8.47892">
        <ele>2259</ele>
        <time>2021-08-12T09:02:25.434Z</time>
      </trkpt>
      <trkpt lat="46.86386" lon="8.47893">
        <ele>2259</ele>
        <time>2021-08-12T09:02:26.434Z</time>
      </trkpt>
      <trkpt lat="46.86386" lon="8.47894">
        <ele>2259</ele>
        <time>2021-08-12T09:02:27.434Z</time>
      </trkpt>
      <trkpt lat="46.86386" lon="8.47895">
        <ele>2260</ele>
        <time>2021-08-12T09:02:28.434Z</time>
      </trkpt>
      <trkpt lat="46.86386" lon="8.47895">
        <ele>2260</ele>
        <time>2021-08-12T09:02:29.435Z</time>
      </trkpt>
      <trkpt lat="46.86386" lon="8.47896">
        <ele>2260</ele>
        <time>2021-08-12T09:02:30.434Z</time>
      </trkpt>
      <trkpt lat="46.86386" lon="8.47896">
        <ele>2259</ele>
        <time>2021-08-12T09:02:31.434Z</time>
      </trkpt>
      <trkpt lat="46.86386" lon="8.47897">
        <ele>2259</ele>
        <time>2021-08-12T09:02:32.434Z</time>
      </trkpt>
      <trkpt lat="46.86386" lon="8.47897">
        <ele>2259</ele>
        <time>2021-08-12T09:02:33.434Z</time>
      </trkpt>
      <trkpt lat="46.86386" lon="8.47898">
        <ele>2259</ele>
        <time>2021-08-12T09:02:34.434Z</time>
      </trkpt>
      <trkpt lat="46.86387" lon="8.47899">
        <ele>2259</ele>
        <time>2021-08-12T09:02:35.434Z</time>
      </trkpt>
      <trkpt lat="46.86387" lon="8.47899">
        <ele>2259</ele>
        <time>2021-08-12T09:02:36.435Z</time>
      </trkpt>
      <trkpt lat="46.86387" lon="8.479">
        <ele>2259</ele>
        <time>2021-08-12T09:02:37.435Z</time>
      </trkpt>
      <trkpt lat="46.86385" lon="8.47901">
        <ele>2261</ele>
        <time>2021-08-12T09:02:38.435Z</time>
      </trkpt>
      <trkpt lat="46.86385" lon="8.47902">
        <ele>2262</ele>
        <time>2021-08-12T09:02:39.435Z</time>
      </trkpt>
      <trkpt lat="46.86385" lon="8.47903">
        <ele>2262</ele>
        <time>2021-08-12T09:02:40.436Z</time>
      </trkpt>
      <trkpt lat="46.86385" lon="8.47904">
        <ele>2262</ele>
        <time>2021-08-12T09:02:41.436Z</time>
      </trkpt>
      <trkpt lat="46.86385" lon="8.47904">
        <ele>2262</ele>
        <time>2021-08-12T09:02:42.435Z</time>
      </trkpt>
      <trkpt lat="46.86385" lon="8.47904">
        <ele>2263</ele>
        <time>2021-08-12T09:02:43.436Z</time>
      </trkpt>
      <trkpt lat="46.86385" lon="8.47904">
        <ele>2263</ele>
        <time>2021-08-12T09:02:44.435Z</time>
      </trkpt>
      <trkpt lat="46.86386" lon="8.47905">
        <ele>2263</ele>
        <time>2021-08-12T09:02:45.436Z</time>
      </trkpt>
      <trkpt lat="46.86386" lon="8.47906">
        <ele>2263</ele>
        <time>2021-08-12T09:02:46.436Z</time>
      </trkpt>
      <trkpt lat="46.86386" lon="8.47907">
        <ele>2262</ele>
        <time>2021-08-12T09:02:47.435Z</time>
      </trkpt>
      <trkpt lat="46.86386" lon="8.47907">
        <ele>2262</ele>
        <time>2021-08-12T09:02:48.435Z</time>
      </trkpt>
      <trkpt lat="46.86386" lon="8.47908">
        <ele>2262</ele>
        <time>2021-08-12T09:02:49.436Z</time>
      </trkpt>
      <trkpt lat="46.86386" lon="8.47909">
        <ele>2261</ele>
        <time>2021-08-12T09:02:50.435Z</time>
      </trkpt>
      <trkpt lat="46.86385" lon="8.4791">
        <ele>2261</ele>
        <time>2021-08-12T09:02:51.436Z</time>
      </trkpt>
      <trkpt lat="46.86384" lon="8.47911">
        <ele>2261</ele>
        <time>2021-08-12T09:02:52.436Z</time>
      </trkpt>
      <trkpt lat="46.86384" lon="8.47912">
        <ele>2261</ele>
        <time>2021-08-12T09:02:53.435Z</time>
      </trkpt>
      <trkpt lat="46.86384" lon="8.47913">
        <ele>2261</ele>
        <time>2021-08-12T09:02:54.435Z</time>
      </trkpt>
      <trkpt lat="46.86384" lon="8.47914">
        <ele>2261</ele>
        <time>2021-08-12T09:02:55.435Z</time>
      </trkpt>
      <trkpt lat="46.86384" lon="8.47915">
        <ele>2262</ele>
        <time>2021-08-12T09:02:56.436Z</time>
      </trkpt>
      <trkpt lat="46.86383" lon="8.47916">
        <ele>2263</ele>
        <time>2021-08-12T09:02:57.436Z</time>
      </trkpt>
      <trkpt lat="46.86383" lon="8.47917">
        <ele>2263</ele>
        <time>2021-08-12T09:02:58.436Z</time>
      </trkpt>
      <trkpt lat="46.86383" lon="8.47918">
        <ele>2264</ele>
        <time>2021-08-12T09:02:59.436Z</time>
      </trkpt>
      <trkpt lat="46.86383" lon="8.47919">
        <ele>2264</ele>
        <time>2021-08-12T09:03:00.435Z</time>
      </trkpt>
      <trkpt lat="46.86383" lon="8.4792">
        <ele>2265</ele>
        <time>2021-08-12T09:03:01.436Z</time>
      </trkpt>
      <trkpt lat="46.86384" lon="8.47921">
        <ele>2264</ele>
        <time>2021-08-12T09:03:02.435Z</time>
      </trkpt>
      <trkpt lat="46.86384" lon="8.47922">
        <ele>2264</ele>
        <time>2021-08-12T09:03:03.435Z</time>
      </trkpt>
      <trkpt lat="46.86384" lon="8.47922">
        <ele>2264</ele>
        <time>2021-08-12T09:03:04.436Z</time>
      </trkpt>
      <trkpt lat="46.86384" lon="8.47923">
        <ele>2263</ele>
        <time>2021-08-12T09:03:05.435Z</time>
      </trkpt>
      <trkpt lat="46.86384" lon="8.47925">
        <ele>2263</ele>
        <time>2021-08-12T09:03:06.436Z</time>
      </trkpt>
      <trkpt lat="46.86384" lon="8.47926">
        <ele>2262</ele>
        <time>2021-08-12T09:03:07.436Z</time>
      </trkpt>
      <trkpt lat="46.86384" lon="8.47927">
        <ele>2262</ele>
        <time>2021-08-12T09:03:08.436Z</time>
      </trkpt>
      <trkpt lat="46.86383" lon="8.47926">
        <ele>2263</ele>
        <time>2021-08-12T09:03:09.436Z</time>
      </trkpt>
      <trkpt lat="46.86383" lon="8.47927">
        <ele>2263</ele>
        <time>2021-08-12T09:03:10.436Z</time>
      </trkpt>
      <trkpt lat="46.86382" lon="8.47927">
        <ele>2263</ele>
        <time>2021-08-12T09:03:11.436Z</time>
      </trkpt>
      <trkpt lat="46.86382" lon="8.47929">
        <ele>2264</ele>
        <time>2021-08-12T09:03:12.435Z</time>
      </trkpt>
      <trkpt lat="46.86382" lon="8.4793">
        <ele>2264</ele>
        <time>2021-08-12T09:03:13.436Z</time>
      </trkpt>
      <trkpt lat="46.86382" lon="8.47931">
        <ele>2264</ele>
        <time>2021-08-12T09:03:14.436Z</time>
      </trkpt>
      <trkpt lat="46.86382" lon="8.47932">
        <ele>2264</ele>
        <time>2021-08-12T09:03:15.436Z</time>
      </trkpt>
      <trkpt lat="46.86382" lon="8.47933">
        <ele>2264</ele>
        <time>2021-08-12T09:03:16.436Z</time>
      </trkpt>
      <trkpt lat="46.86382" lon="8.47933">
        <ele>2264</ele>
        <time>2021-08-12T09:03:17.436Z</time>
      </trkpt>
      <trkpt lat="46.86382" lon="8.47934">
        <ele>2264</ele>
        <time>2021-08-12T09:03:18.435Z</time>
      </trkpt>
      <trkpt lat="46.86382" lon="8.47935">
        <ele>2264</ele>
        <time>2021-08-12T09:03:19.436Z</time>
      </trkpt>
      <trkpt lat="46.86382" lon="8.47936">
        <ele>2264</ele>
        <time>2021-08-12T09:03:20.436Z</time>
      </trkpt>
      <trkpt lat="46.86382" lon="8.47937">
        <ele>2264</ele>
        <time>2021-08-12T09:03:21.436Z</time>
      </trkpt>
      <trkpt lat="46.86382" lon="8.47938">
        <ele>2264</ele>
        <time>2021-08-12T09:03:22.435Z</time>
      </trkpt>
      <trkpt lat="46.86382" lon="8.47939">
        <ele>2265</ele>
        <time>2021-08-12T09:03:23.435Z</time>
      </trkpt>
      <trkpt lat="46.86382" lon="8.4794">
        <ele>2265</ele>
        <time>2021-08-12T09:03:24.436Z</time>
      </trkpt>
      <trkpt lat="46.86382" lon="8.4794">
        <ele>2265</ele>
        <time>2021-08-12T09:03:25.435Z</time>
      </trkpt>
      <trkpt lat="46.86382" lon="8.47941">
        <ele>2265</ele>
        <time>2021-08-12T09:03:26.436Z</time>
      </trkpt>
      <trkpt lat="46.86381" lon="8.47942">
        <ele>2265</ele>
        <time>2021-08-12T09:03:27.436Z</time>
      </trkpt>
      <trkpt lat="46.86381" lon="8.47943">
        <ele>2265</ele>
        <time>2021-08-12T09:03:28.436Z</time>
      </trkpt>
      <trkpt lat="46.86381" lon="8.47943">
        <ele>2265</ele>
        <time>2021-08-12T09:03:29.436Z</time>
      </trkpt>
      <trkpt lat="46.8638" lon="8.47943">
        <ele>2265</ele>
        <time>2021-08-12T09:03:30.436Z</time>
      </trkpt>
      <trkpt lat="46.86379" lon="8.47943">
        <ele>2266</ele>
        <time>2021-08-12T09:03:31.435Z</time>
      </trkpt>
      <trkpt lat="46.86378" lon="8.47942">
        <ele>2266</ele>
        <time>2021-08-12T09:03:32.436Z</time>
      </trkpt>
      <trkpt lat="46.86378" lon="8.47942">
        <ele>2266</ele>
        <time>2021-08-12T09:03:33.436Z</time>
      </trkpt>
      <trkpt lat="46.86377" lon="8.47943">
        <ele>2266</ele>
        <time>2021-08-12T09:03:34.436Z</time>
      </trkpt>
      <trkpt lat="46.86377" lon="8.47943">
        <ele>2267</ele>
        <time>2021-08-12T09:03:35.435Z</time>
      </trkpt>
      <trkpt lat="46.86376" lon="8.47943">
        <ele>2267</ele>
        <time>2021-08-12T09:03:36.436Z</time>
      </trkpt>
      <trkpt lat="46.86376" lon="8.47944">
        <ele>2268</ele>
        <time>2021-08-12T09:03:37.435Z</time>
      </trkpt>
      <trkpt lat="46.86376" lon="8.47945">
        <ele>2268</ele>
        <time>2021-08-12T09:03:38.436Z</time>
      </trkpt>
      <trkpt lat="46.86376" lon="8.47946">
        <ele>2269</ele>
        <time>2021-08-12T09:03:39.436Z</time>
      </trkpt>
      <trkpt lat="46.86376" lon="8.47946">
        <ele>2269</ele>
        <time>2021-08-12T09:03:40.435Z</time>
      </trkpt>
      <trkpt lat="46.86377" lon="8.47947">
        <ele>2270</ele>
        <time>2021-08-12T09:03:41.436Z</time>
      </trkpt>
      <trkpt lat="46.86377" lon="8.47948">
        <ele>2270</ele>
        <time>2021-08-12T09:03:42.435Z</time>
      </trkpt>
      <trkpt lat="46.86378" lon="8.47948">
        <ele>2270</ele>
        <time>2021-08-12T09:03:43.436Z</time>
      </trkpt>
      <trkpt lat="46.86378" lon="8.47949">
        <ele>2270</ele>
        <time>2021-08-12T09:03:44.435Z</time>
      </trkpt>
      <trkpt lat="46.86377" lon="8.47949">
        <ele>2270</ele>
        <time>2021-08-12T09:03:45.435Z</time>
      </trkpt>
      <trkpt lat="46.86377" lon="8.4795">
        <ele>2271</ele>
        <time>2021-08-12T09:03:46.436Z</time>
      </trkpt>
      <trkpt lat="46.86376" lon="8.4795">
        <ele>2271</ele>
        <time>2021-08-12T09:03:47.435Z</time>
      </trkpt>
      <trkpt lat="46.86375" lon="8.4795">
        <ele>2272</ele>
        <time>2021-08-12T09:03:48.436Z</time>
      </trkpt>
      <trkpt lat="46.86374" lon="8.47949">
        <ele>2273</ele>
        <time>2021-08-12T09:03:49.436Z</time>
      </trkpt>
      <trkpt lat="46.86373" lon="8.47949">
        <ele>2274</ele>
        <time>2021-08-12T09:03:50.435Z</time>
      </trkpt>
      <trkpt lat="46.86373" lon="8.4795">
        <ele>2275</ele>
        <time>2021-08-12T09:03:51.436Z</time>
      </trkpt>
      <trkpt lat="46.86372" lon="8.47951">
        <ele>2276</ele>
        <time>2021-08-12T09:03:52.436Z</time>
      </trkpt>
      <trkpt lat="46.86372" lon="8.47952">
        <ele>2276</ele>
        <time>2021-08-12T09:03:53.436Z</time>
      </trkpt>
      <trkpt lat="46.86371" lon="8.47954">
        <ele>2276</ele>
        <time>2021-08-12T09:03:54.436Z</time>
      </trkpt>
      <trkpt lat="46.86371" lon="8.47955">
        <ele>2276</ele>
        <time>2021-08-12T09:03:55.435Z</time>
      </trkpt>
      <trkpt lat="46.86372" lon="8.47956">
        <ele>2276</ele>
        <time>2021-08-12T09:03:56.436Z</time>
      </trkpt>
      <trkpt lat="46.86372" lon="8.47957">
        <ele>2276</ele>
        <time>2021-08-12T09:03:57.436Z</time>
      </trkpt>
      <trkpt lat="46.86372" lon="8.47957">
        <ele>2275</ele>
        <time>2021-08-12T09:03:58.436Z</time>
      </trkpt>
      <trkpt lat="46.86371" lon="8.47959">
        <ele>2274</ele>
        <time>2021-08-12T09:03:59.436Z</time>
      </trkpt>
      <trkpt lat="46.86371" lon="8.4796">
        <ele>2274</ele>
        <time>2021-08-12T09:04:00.436Z</time>
      </trkpt>
      <trkpt lat="46.86371" lon="8.47961">
        <ele>2274</ele>
        <time>2021-08-12T09:04:01.435Z</time>
      </trkpt>
      <trkpt lat="46.8637" lon="8.47962">
        <ele>2273</ele>
        <time>2021-08-12T09:04:02.436Z</time>
      </trkpt>
      <trkpt lat="46.8637" lon="8.47963">
        <ele>2274</ele>
        <time>2021-08-12T09:04:03.436Z</time>
      </trkpt>
      <trkpt lat="46.8637" lon="8.47964">
        <ele>2274</ele>
        <time>2021-08-12T09:04:04.435Z</time>
      </trkpt>
      <trkpt lat="46.8637" lon="8.47965">
        <ele>2274</ele>
        <time>2021-08-12T09:04:05.436Z</time>
      </trkpt>
      <trkpt lat="46.8637" lon="8.47966">
        <ele>2274</ele>
        <time>2021-08-12T09:04:06.436Z</time>
      </trkpt>
      <trkpt lat="46.86369" lon="8.47966">
        <ele>2275</ele>
        <time>2021-08-12T09:04:07.435Z</time>
      </trkpt>
      <trkpt lat="46.86369" lon="8.47967">
        <ele>2275</ele>
        <time>2021-08-12T09:04:08.436Z</time>
      </trkpt>
      <trkpt lat="46.86369" lon="8.47968">
        <ele>2275</ele>
        <time>2021-08-12T09:04:09.436Z</time>
      </trkpt>
      <trkpt lat="46.86368" lon="8.47968">
        <ele>2275</ele>
        <time>2021-08-12T09:04:10.435Z</time>
      </trkpt>
      <trkpt lat="46.86368" lon="8.47968">
        <ele>2275</ele>
        <time>2021-08-12T09:04:11.436Z</time>
      </trkpt>
      <trkpt lat="46.86367" lon="8.47969">
        <ele>2276</ele>
        <time>2021-08-12T09:04:12.435Z</time>
      </trkpt>
      <trkpt lat="46.86367" lon="8.47969">
        <ele>2276</ele>
        <time>2021-08-12T09:04:13.435Z</time>
      </trkpt>
      <trkpt lat="46.86367" lon="8.47969">
        <ele>2276</ele>
        <time>2021-08-12T09:04:14.436Z</time>
      </trkpt>
      <trkpt lat="46.86366" lon="8.4797">
        <ele>2276</ele>
        <time>2021-08-12T09:04:15.436Z</time>
      </trkpt>
      <trkpt lat="46.86365" lon="8.4797">
        <ele>2277</ele>
        <time>2021-08-12T09:04:16.436Z</time>
      </trkpt>
      <trkpt lat="46.86365" lon="8.47971">
        <ele>2277</ele>
        <time>2021-08-12T09:04:17.436Z</time>
      </trkpt>
      <trkpt lat="46.86364" lon="8.47971">
        <ele>2277</ele>
        <time>2021-08-12T09:04:18.436Z</time>
      </trkpt>
      <trkpt lat="46.86363" lon="8.47972">
        <ele>2277</ele>
        <time>2021-08-12T09:04:19.435Z</time>
      </trkpt>
      <trkpt lat="46.86363" lon="8.47972">
        <ele>2276</ele>
        <time>2021-08-12T09:04:20.435Z</time>
      </trkpt>
      <trkpt lat="46.86363" lon="8.47973">
        <ele>2276</ele>
        <time>2021-08-12T09:04:21.436Z</time>
      </trkpt>
      <trkpt lat="46.86363" lon="8.47974">
        <ele>2276</ele>
        <time>2021-08-12T09:04:22.436Z</time>
      </trkpt>
      <trkpt lat="46.86364" lon="8.47974">
        <ele>2276</ele>
        <time>2021-08-12T09:04:23.435Z</time>
      </trkpt>
      <trkpt lat="46.86364" lon="8.47975">
        <ele>2276</ele>
        <time>2021-08-12T09:04:24.436Z</time>
      </trkpt>
      <trkpt lat="46.86364" lon="8.47976">
        <ele>2276</ele>
        <time>2021-08-12T09:04:25.436Z</time>
      </trkpt>
      <trkpt lat="46.86364" lon="8.47977">
        <ele>2276</ele>
        <time>2021-08-12T09:04:26.436Z</time>
      </trkpt>
      <trkpt lat="46.86364" lon="8.47977">
        <ele>2276</ele>
        <time>2021-08-12T09:04:27.436Z</time>
      </trkpt>
      <trkpt lat="46.86363" lon="8.47978">
        <ele>2277</ele>
        <time>2021-08-12T09:04:28.436Z</time>
      </trkpt>
      <trkpt lat="46.86363" lon="8.47978">
        <ele>2277</ele>
        <time>2021-08-12T09:04:29.436Z</time>
      </trkpt>
      <trkpt lat="46.86363" lon="8.47978">
        <ele>2277</ele>
        <time>2021-08-12T09:04:30.436Z</time>
      </trkpt>
      <trkpt lat="46.86362" lon="8.47978">
        <ele>2277</ele>
        <time>2021-08-12T09:04:31.436Z</time>
      </trkpt>
      <trkpt lat="46.86361" lon="8.47978">
        <ele>2278</ele>
        <time>2021-08-12T09:04:32.435Z</time>
      </trkpt>
      <trkpt lat="46.8636" lon="8.47978">
        <ele>2279</ele>
        <time>2021-08-12T09:04:33.435Z</time>
      </trkpt>
      <trkpt lat="46.8636" lon="8.47978">
        <ele>2280</ele>
        <time>2021-08-12T09:04:34.435Z</time>
      </trkpt>
      <trkpt lat="46.86359" lon="8.47978">
        <ele>2280</ele>
        <time>2021-08-12T09:04:35.436Z</time>
      </trkpt>
      <trkpt lat="46.86358" lon="8.47979">
        <ele>2281</ele>
        <time>2021-08-12T09:04:36.435Z</time>
      </trkpt>
      <trkpt lat="46.86358" lon="8.47979">
        <ele>2281</ele>
        <time>2021-08-12T09:04:37.436Z</time>
      </trkpt>
      <trkpt lat="46.86358" lon="8.47979">
        <ele>2282</ele>
        <time>2021-08-12T09:04:38.435Z</time>
      </trkpt>
      <trkpt lat="46.86357" lon="8.47985">
        <ele>2282</ele>
        <time>2021-08-12T09:04:39.435Z</time>
      </trkpt>
      <trkpt lat="46.86358" lon="8.47986">
        <ele>2282</ele>
        <time>2021-08-12T09:04:40.436Z</time>
      </trkpt>
      <trkpt lat="46.86358" lon="8.47986">
        <ele>2281</ele>
        <time>2021-08-12T09:04:41.435Z</time>
      </trkpt>
      <trkpt lat="46.86361" lon="8.47985">
        <ele>2283</ele>
        <time>2021-08-12T09:04:42.436Z</time>
      </trkpt>
      <trkpt lat="46.86361" lon="8.47985">
        <ele>2283</ele>
        <time>2021-08-12T09:04:43.436Z</time>
      </trkpt>
      <trkpt lat="46.86362" lon="8.47985">
        <ele>2283</ele>
        <time>2021-08-12T09:04:44.435Z</time>
      </trkpt>
      <trkpt lat="46.86362" lon="8.47986">
        <ele>2282</ele>
        <time>2021-08-12T09:04:45.437Z</time>
      </trkpt>
      <trkpt lat="46.86362" lon="8.47986">
        <ele>2282</ele>
        <time>2021-08-12T09:04:46.437Z</time>
      </trkpt>
      <trkpt lat="46.86362" lon="8.47986">
        <ele>2282</ele>
        <time>2021-08-12T09:04:47.436Z</time>
      </trkpt>
      <trkpt lat="46.86362" lon="8.47988">
        <ele>2280</ele>
        <time>2021-08-12T09:04:48.436Z</time>
      </trkpt>
      <trkpt lat="46.86361" lon="8.47989">
        <ele>2279</ele>
        <time>2021-08-12T09:04:49.437Z</time>
      </trkpt>
      <trkpt lat="46.86361" lon="8.4799">
        <ele>2279</ele>
        <time>2021-08-12T09:04:50.436Z</time>
      </trkpt>
      <trkpt lat="46.86361" lon="8.4799">
        <ele>2278</ele>
        <time>2021-08-12T09:04:51.436Z</time>
      </trkpt>
      <trkpt lat="46.86361" lon="8.47991">
        <ele>2278</ele>
        <time>2021-08-12T09:04:52.436Z</time>
      </trkpt>
      <trkpt lat="46.86361" lon="8.47993">
        <ele>2277</ele>
        <time>2021-08-12T09:04:53.437Z</time>
      </trkpt>
      <trkpt lat="46.86361" lon="8.47994">
        <ele>2276</ele>
        <time>2021-08-12T09:04:54.436Z</time>
      </trkpt>
      <trkpt lat="46.86361" lon="8.47995">
        <ele>2276</ele>
        <time>2021-08-12T09:04:55.437Z</time>
      </trkpt>
      <trkpt lat="46.86361" lon="8.47996">
        <ele>2275</ele>
        <time>2021-08-12T09:04:56.437Z</time>
      </trkpt>
      <trkpt lat="46.8636" lon="8.47997">
        <ele>2275</ele>
        <time>2021-08-12T09:04:57.437Z</time>
      </trkpt>
      <trkpt lat="46.8636" lon="8.47998">
        <ele>2274</ele>
        <time>2021-08-12T09:04:58.437Z</time>
      </trkpt>
      <trkpt lat="46.86359" lon="8.47998">
        <ele>2274</ele>
        <time>2021-08-12T09:04:59.437Z</time>
      </trkpt>
      <trkpt lat="46.86359" lon="8.47998">
        <ele>2274</ele>
        <time>2021-08-12T09:05:00.436Z</time>
      </trkpt>
      <trkpt lat="46.86359" lon="8.47998">
        <ele>2274</ele>
        <time>2021-08-12T09:05:01.436Z</time>
      </trkpt>
      <trkpt lat="46.86359" lon="8.47999">
        <ele>2273</ele>
        <time>2021-08-12T09:05:02.437Z</time>
      </trkpt>
      <trkpt lat="46.86358" lon="8.48001">
        <ele>2273</ele>
        <time>2021-08-12T09:05:03.437Z</time>
      </trkpt>
      <trkpt lat="46.86358" lon="8.48001">
        <ele>2273</ele>
        <time>2021-08-12T09:05:04.436Z</time>
      </trkpt>
      <trkpt lat="46.86358" lon="8.48002">
        <ele>2273</ele>
        <time>2021-08-12T09:05:05.436Z</time>
      </trkpt>
      <trkpt lat="46.86358" lon="8.48002">
        <ele>2273</ele>
        <time>2021-08-12T09:05:06.437Z</time>
      </trkpt>
      <trkpt lat="46.86358" lon="8.48003">
        <ele>2273</ele>
        <time>2021-08-12T09:05:07.437Z</time>
      </trkpt>
      <trkpt lat="46.86358" lon="8.48003">
        <ele>2273</ele>
        <time>2021-08-12T09:05:08.437Z</time>
      </trkpt>
      <trkpt lat="46.86357" lon="8.48003">
        <ele>2273</ele>
        <time>2021-08-12T09:05:09.436Z</time>
      </trkpt>
      <trkpt lat="46.86357" lon="8.48003">
        <ele>2274</ele>
        <time>2021-08-12T09:05:10.437Z</time>
      </trkpt>
      <trkpt lat="46.86356" lon="8.48003">
        <ele>2274</ele>
        <time>2021-08-12T09:05:11.437Z</time>
      </trkpt>
      <trkpt lat="46.86355" lon="8.48003">
        <ele>2274</ele>
        <time>2021-08-12T09:05:12.437Z</time>
      </trkpt>
      <trkpt lat="46.86354" lon="8.48003">
        <ele>2275</ele>
        <time>2021-08-12T09:05:13.436Z</time>
      </trkpt>
      <trkpt lat="46.86353" lon="8.48004">
        <ele>2275</ele>
        <time>2021-08-12T09:05:14.437Z</time>
      </trkpt>
      <trkpt lat="46.86352" lon="8.48005">
        <ele>2275</ele>
        <time>2021-08-12T09:05:15.437Z</time>
      </trkpt>
      <trkpt lat="46.86351" lon="8.48006">
        <ele>2275</ele>
        <time>2021-08-12T09:05:16.437Z</time>
      </trkpt>
      <trkpt lat="46.8635" lon="8.48006">
        <ele>2275</ele>
        <time>2021-08-12T09:05:17.437Z</time>
      </trkpt>
      <trkpt lat="46.8635" lon="8.48006">
        <ele>2276</ele>
        <time>2021-08-12T09:05:18.437Z</time>
      </trkpt>
      <trkpt lat="46.8635" lon="8.48005">
        <ele>2276</ele>
        <time>2021-08-12T09:05:19.436Z</time>
      </trkpt>
      <trkpt lat="46.8635" lon="8.48004">
        <ele>2276</ele>
        <time>2021-08-12T09:05:20.437Z</time>
      </trkpt>
      <trkpt lat="46.86351" lon="8.48004">
        <ele>2276</ele>
        <time>2021-08-12T09:05:21.437Z</time>
      </trkpt>
      <trkpt lat="46.8635" lon="8.48004">
        <ele>2276</ele>
        <time>2021-08-12T09:05:22.436Z</time>
      </trkpt>
      <trkpt lat="46.8635" lon="8.48005">
        <ele>2276</ele>
        <time>2021-08-12T09:05:23.436Z</time>
      </trkpt>
      <trkpt lat="46.8635" lon="8.48006">
        <ele>2277</ele>
        <time>2021-08-12T09:05:24.437Z</time>
      </trkpt>
      <trkpt lat="46.8635" lon="8.48007">
        <ele>2277</ele>
        <time>2021-08-12T09:05:25.436Z</time>
      </trkpt>
      <trkpt lat="46.86349" lon="8.48007">
        <ele>2278</ele>
        <time>2021-08-12T09:05:26.437Z</time>
      </trkpt>
      <trkpt lat="46.86349" lon="8.48008">
        <ele>2278</ele>
        <time>2021-08-12T09:05:27.437Z</time>
      </trkpt>
      <trkpt lat="46.86349" lon="8.48008">
        <ele>2279</ele>
        <time>2021-08-12T09:05:28.437Z</time>
      </trkpt>
      <trkpt lat="46.86348" lon="8.48008">
        <ele>2280</ele>
        <time>2021-08-12T09:05:29.436Z</time>
      </trkpt>
      <trkpt lat="46.86348" lon="8.48008">
        <ele>2280</ele>
        <time>2021-08-12T09:05:30.437Z</time>
      </trkpt>
      <trkpt lat="46.86348" lon="8.48009">
        <ele>2281</ele>
        <time>2021-08-12T09:05:31.437Z</time>
      </trkpt>
      <trkpt lat="46.86348" lon="8.48009">
        <ele>2281</ele>
        <time>2021-08-12T09:05:32.437Z</time>
      </trkpt>
      <trkpt lat="46.86348" lon="8.4801">
        <ele>2281</ele>
        <time>2021-08-12T09:05:33.437Z</time>
      </trkpt>
      <trkpt lat="46.86348" lon="8.4801">
        <ele>2281</ele>
        <time>2021-08-12T09:05:34.436Z</time>
      </trkpt>
      <trkpt lat="46.86348" lon="8.48011">
        <ele>2282</ele>
        <time>2021-08-12T09:05:35.437Z</time>
      </trkpt>
      <trkpt lat="46.86348" lon="8.48012">
        <ele>2282</ele>
        <time>2021-08-12T09:05:36.437Z</time>
      </trkpt>
      <trkpt lat="46.86348" lon="8.48012">
        <ele>2282</ele>
        <time>2021-08-12T09:05:37.437Z</time>
      </trkpt>
      <trkpt lat="46.86349" lon="8.48013">
        <ele>2282</ele>
        <time>2021-08-12T09:05:38.437Z</time>
      </trkpt>
      <trkpt lat="46.86348" lon="8.48013">
        <ele>2283</ele>
        <time>2021-08-12T09:05:39.437Z</time>
      </trkpt>
      <trkpt lat="46.86349" lon="8.48016">
        <ele>2281</ele>
        <time>2021-08-12T09:05:40.436Z</time>
      </trkpt>
      <trkpt lat="46.86348" lon="8.48015">
        <ele>2292</ele>
        <time>2021-08-12T09:05:41.437Z</time>
      </trkpt>
      <trkpt lat="46.86348" lon="8.48016">
        <ele>2293</ele>
        <time>2021-08-12T09:05:42.436Z</time>
      </trkpt>
      <trkpt lat="46.86348" lon="8.48016">
        <ele>2294</ele>
        <time>2021-08-12T09:05:43.436Z</time>
      </trkpt>
      <trkpt lat="46.86349" lon="8.4802">
        <ele>2289</ele>
        <time>2021-08-12T09:05:44.437Z</time>
      </trkpt>
      <trkpt lat="46.86348" lon="8.48022">
        <ele>2287</ele>
        <time>2021-08-12T09:05:45.437Z</time>
      </trkpt>
      <trkpt lat="46.86348" lon="8.48022">
        <ele>2285</ele>
        <time>2021-08-12T09:05:46.437Z</time>
      </trkpt>
      <trkpt lat="46.86349" lon="8.48021">
        <ele>2284</ele>
        <time>2021-08-12T09:05:47.437Z</time>
      </trkpt>
      <trkpt lat="46.86349" lon="8.48022">
        <ele>2283</ele>
        <time>2021-08-12T09:05:48.437Z</time>
      </trkpt>
      <trkpt lat="46.86349" lon="8.48022">
        <ele>2282</ele>
        <time>2021-08-12T09:05:49.437Z</time>
      </trkpt>
      <trkpt lat="46.86349" lon="8.48022">
        <ele>2282</ele>
        <time>2021-08-12T09:05:50.438Z</time>
      </trkpt>
      <trkpt lat="46.86348" lon="8.4802">
        <ele>2279</ele>
        <time>2021-08-12T09:05:51.438Z</time>
      </trkpt>
      <trkpt lat="46.86348" lon="8.48019">
        <ele>2279</ele>
        <time>2021-08-12T09:05:52.439Z</time>
      </trkpt>
      <trkpt lat="46.86348" lon="8.48018">
        <ele>2279</ele>
        <time>2021-08-12T09:05:53.439Z</time>
      </trkpt>
      <trkpt lat="46.86351" lon="8.48007">
        <ele>2283</ele>
        <time>2021-08-12T09:05:54.439Z</time>
      </trkpt>
      <trkpt lat="46.86351" lon="8.48007">
        <ele>2284</ele>
        <time>2021-08-12T09:05:55.439Z</time>
      </trkpt>
      <trkpt lat="46.86351" lon="8.48007">
        <ele>2284</ele>
        <time>2021-08-12T09:05:56.438Z</time>
      </trkpt>
      <trkpt lat="46.86351" lon="8.48007">
        <ele>2284</ele>
        <time>2021-08-12T09:05:57.439Z</time>
      </trkpt>
      <trkpt lat="46.86351" lon="8.48007">
        <ele>2284</ele>
        <time>2021-08-12T09:05:58.438Z</time>
      </trkpt>
      <trkpt lat="46.8635" lon="8.48008">
        <ele>2285</ele>
        <time>2021-08-12T09:05:59.439Z</time>
      </trkpt>
      <trkpt lat="46.8635" lon="8.48009">
        <ele>2285</ele>
        <time>2021-08-12T09:06:00.439Z</time>
      </trkpt>
      <trkpt lat="46.8635" lon="8.48009">
        <ele>2285</ele>
        <time>2021-08-12T09:06:01.439Z</time>
      </trkpt>
      <trkpt lat="46.8635" lon="8.48009">
        <ele>2285</ele>
        <time>2021-08-12T09:06:02.439Z</time>
      </trkpt>
      <trkpt lat="46.8635" lon="8.48015">
        <ele>2294</ele>
        <time>2021-08-12T09:06:03.440Z</time>
      </trkpt>
      <trkpt lat="46.8635" lon="8.48016">
        <ele>2294</ele>
        <time>2021-08-12T09:06:04.440Z</time>
      </trkpt>
      <trkpt lat="46.8635" lon="8.48016">
        <ele>2295</ele>
        <time>2021-08-12T09:06:05.440Z</time>
      </trkpt>
      <trkpt lat="46.86348" lon="8.48016">
        <ele>2289</ele>
        <time>2021-08-12T09:06:06.440Z</time>
      </trkpt>
      <trkpt lat="46.86347" lon="8.48019">
        <ele>2290</ele>
        <time>2021-08-12T09:06:07.440Z</time>
      </trkpt>
      <trkpt lat="46.86346" lon="8.4802">
        <ele>2290</ele>
        <time>2021-08-12T09:06:08.440Z</time>
      </trkpt>
      <trkpt lat="46.86346" lon="8.4802">
        <ele>2290</ele>
        <time>2021-08-12T09:06:09.441Z</time>
      </trkpt>
      <trkpt lat="46.86346" lon="8.4802">
        <ele>2290</ele>
        <time>2021-08-12T09:06:10.440Z</time>
      </trkpt>
      <trkpt lat="46.86345" lon="8.48021">
        <ele>2290</ele>
        <time>2021-08-12T09:06:11.440Z</time>
      </trkpt>
      <trkpt lat="46.86344" lon="8.48021">
        <ele>2290</ele>
        <time>2021-08-12T09:06:12.440Z</time>
      </trkpt>
      <trkpt lat="46.86344" lon="8.48021">
        <ele>2291</ele>
        <time>2021-08-12T09:06:13.440Z</time>
      </trkpt>
      <trkpt lat="46.86344" lon="8.48022">
        <ele>2291</ele>
        <time>2021-08-12T09:06:14.440Z</time>
      </trkpt>
      <trkpt lat="46.86344" lon="8.48023">
        <ele>2291</ele>
        <time>2021-08-12T09:06:15.440Z</time>
      </trkpt>
      <trkpt lat="46.86344" lon="8.48023">
        <ele>2291</ele>
        <time>2021-08-12T09:06:16.440Z</time>
      </trkpt>
      <trkpt lat="46.86343" lon="8.48024">
        <ele>2291</ele>
        <time>2021-08-12T09:06:17.440Z</time>
      </trkpt>
      <trkpt lat="46.86343" lon="8.48024">
        <ele>2290</ele>
        <time>2021-08-12T09:06:18.440Z</time>
      </trkpt>
      <trkpt lat="46.86343" lon="8.48025">
        <ele>2290</ele>
        <time>2021-08-12T09:06:19.441Z</time>
      </trkpt>
      <trkpt lat="46.86342" lon="8.48026">
        <ele>2290</ele>
        <time>2021-08-12T09:06:20.440Z</time>
      </trkpt>
      <trkpt lat="46.86342" lon="8.48026">
        <ele>2290</ele>
        <time>2021-08-12T09:06:21.440Z</time>
      </trkpt>
      <trkpt lat="46.86341" lon="8.48027">
        <ele>2290</ele>
        <time>2021-08-12T09:06:22.440Z</time>
      </trkpt>
      <trkpt lat="46.8634" lon="8.48028">
        <ele>2290</ele>
        <time>2021-08-12T09:06:23.441Z</time>
      </trkpt>
      <trkpt lat="46.8634" lon="8.48029">
        <ele>2289</ele>
        <time>2021-08-12T09:06:24.441Z</time>
      </trkpt>
      <trkpt lat="46.8634" lon="8.4803">
        <ele>2289</ele>
        <time>2021-08-12T09:06:25.440Z</time>
      </trkpt>
      <trkpt lat="46.86339" lon="8.48031">
        <ele>2289</ele>
        <time>2021-08-12T09:06:26.440Z</time>
      </trkpt>
      <trkpt lat="46.86339" lon="8.48032">
        <ele>2289</ele>
        <time>2021-08-12T09:06:27.440Z</time>
      </trkpt>
      <trkpt lat="46.86339" lon="8.48034">
        <ele>2288</ele>
        <time>2021-08-12T09:06:28.441Z</time>
      </trkpt>
      <trkpt lat="46.86339" lon="8.48034">
        <ele>2288</ele>
        <time>2021-08-12T09:06:29.440Z</time>
      </trkpt>
      <trkpt lat="46.86339" lon="8.48036">
        <ele>2288</ele>
        <time>2021-08-12T09:06:30.440Z</time>
      </trkpt>
      <trkpt lat="46.86338" lon="8.48037">
        <ele>2287</ele>
        <time>2021-08-12T09:06:31.440Z</time>
      </trkpt>
      <trkpt lat="46.86338" lon="8.48037">
        <ele>2287</ele>
        <time>2021-08-12T09:06:32.440Z</time>
      </trkpt>
      <trkpt lat="46.86338" lon="8.48038">
        <ele>2287</ele>
        <time>2021-08-12T09:06:33.441Z</time>
      </trkpt>
      <trkpt lat="46.86337" lon="8.48039">
        <ele>2287</ele>
        <time>2021-08-12T09:06:34.440Z</time>
      </trkpt>
      <trkpt lat="46.86337" lon="8.48039">
        <ele>2286</ele>
        <time>2021-08-12T09:06:35.440Z</time>
      </trkpt>
      <trkpt lat="46.86337" lon="8.4804">
        <ele>2286</ele>
        <time>2021-08-12T09:06:36.441Z</time>
      </trkpt>
      <trkpt lat="46.86337" lon="8.48041">
        <ele>2286</ele>
        <time>2021-08-12T09:06:37.440Z</time>
      </trkpt>
      <trkpt lat="46.86337" lon="8.48042">
        <ele>2286</ele>
        <time>2021-08-12T09:06:38.441Z</time>
      </trkpt>
      <trkpt lat="46.86337" lon="8.48043">
        <ele>2286</ele>
        <time>2021-08-12T09:06:39.440Z</time>
      </trkpt>
      <trkpt lat="46.86337" lon="8.48043">
        <ele>2286</ele>
        <time>2021-08-12T09:06:40.440Z</time>
      </trkpt>
      <trkpt lat="46.86337" lon="8.48044">
        <ele>2286</ele>
        <time>2021-08-12T09:06:41.440Z</time>
      </trkpt>
      <trkpt lat="46.86337" lon="8.48045">
        <ele>2286</ele>
        <time>2021-08-12T09:06:42.440Z</time>
      </trkpt>
      <trkpt lat="46.86337" lon="8.48046">
        <ele>2287</ele>
        <time>2021-08-12T09:06:43.440Z</time>
      </trkpt>
      <trkpt lat="46.86338" lon="8.48048">
        <ele>2287</ele>
        <time>2021-08-12T09:06:44.441Z</time>
      </trkpt>
      <trkpt lat="46.86339" lon="8.48048">
        <ele>2288</ele>
        <time>2021-08-12T09:06:45.441Z</time>
      </trkpt>
      <trkpt lat="46.86339" lon="8.48049">
        <ele>2288</ele>
        <time>2021-08-12T09:06:46.441Z</time>
      </trkpt>
      <trkpt lat="46.86339" lon="8.48051">
        <ele>2288</ele>
        <time>2021-08-12T09:06:47.441Z</time>
      </trkpt>
      <trkpt lat="46.8634" lon="8.48051">
        <ele>2288</ele>
        <time>2021-08-12T09:06:48.440Z</time>
      </trkpt>
      <trkpt lat="46.8634" lon="8.48051">
        <ele>2289</ele>
        <time>2021-08-12T09:06:49.441Z</time>
      </trkpt>
      <trkpt lat="46.8634" lon="8.48052">
        <ele>2289</ele>
        <time>2021-08-12T09:06:50.441Z</time>
      </trkpt>
      <trkpt lat="46.86341" lon="8.48052">
        <ele>2289</ele>
        <time>2021-08-12T09:06:51.440Z</time>
      </trkpt>
      <trkpt lat="46.86341" lon="8.48053">
        <ele>2289</ele>
        <time>2021-08-12T09:06:52.440Z</time>
      </trkpt>
      <trkpt lat="46.86341" lon="8.48054">
        <ele>2290</ele>
        <time>2021-08-12T09:06:53.441Z</time>
      </trkpt>
      <trkpt lat="46.86341" lon="8.48055">
        <ele>2290</ele>
        <time>2021-08-12T09:06:54.440Z</time>
      </trkpt>
      <trkpt lat="46.8634" lon="8.48056">
        <ele>2290</ele>
        <time>2021-08-12T09:06:55.441Z</time>
      </trkpt>
      <trkpt lat="46.8634" lon="8.48057">
        <ele>2291</ele>
        <time>2021-08-12T09:06:56.440Z</time>
      </trkpt>
      <trkpt lat="46.8634" lon="8.48058">
        <ele>2291</ele>
        <time>2021-08-12T09:06:57.441Z</time>
      </trkpt>
      <trkpt lat="46.8634" lon="8.48059">
        <ele>2292</ele>
        <time>2021-08-12T09:06:58.441Z</time>
      </trkpt>
      <trkpt lat="46.8634" lon="8.4806">
        <ele>2292</ele>
        <time>2021-08-12T09:06:59.441Z</time>
      </trkpt>
      <trkpt lat="46.8634" lon="8.48062">
        <ele>2293</ele>
        <time>2021-08-12T09:07:00.440Z</time>
      </trkpt>
      <trkpt lat="46.86339" lon="8.48064">
        <ele>2293</ele>
        <time>2021-08-12T09:07:01.441Z</time>
      </trkpt>
      <trkpt lat="46.86339" lon="8.48065">
        <ele>2294</ele>
        <time>2021-08-12T09:07:02.441Z</time>
      </trkpt>
      <trkpt lat="46.86339" lon="8.48066">
        <ele>2294</ele>
        <time>2021-08-12T09:07:03.441Z</time>
      </trkpt>
      <trkpt lat="46.86339" lon="8.48068">
        <ele>2295</ele>
        <time>2021-08-12T09:07:04.440Z</time>
      </trkpt>
      <trkpt lat="46.86339" lon="8.48069">
        <ele>2295</ele>
        <time>2021-08-12T09:07:05.441Z</time>
      </trkpt>
      <trkpt lat="46.86339" lon="8.48071">
        <ele>2295</ele>
        <time>2021-08-12T09:07:06.441Z</time>
      </trkpt>
      <trkpt lat="46.86339" lon="8.48072">
        <ele>2295</ele>
        <time>2021-08-12T09:07:07.441Z</time>
      </trkpt>
      <trkpt lat="46.86339" lon="8.48074">
        <ele>2295</ele>
        <time>2021-08-12T09:07:08.441Z</time>
      </trkpt>
      <trkpt lat="46.86339" lon="8.48075">
        <ele>2295</ele>
        <time>2021-08-12T09:07:09.441Z</time>
      </trkpt>
      <trkpt lat="46.86339" lon="8.48076">
        <ele>2295</ele>
        <time>2021-08-12T09:07:10.441Z</time>
      </trkpt>
      <trkpt lat="46.86339" lon="8.48076">
        <ele>2295</ele>
        <time>2021-08-12T09:07:11.441Z</time>
      </trkpt>
      <trkpt lat="46.86339" lon="8.48077">
        <ele>2295</ele>
        <time>2021-08-12T09:07:12.440Z</time>
      </trkpt>
      <trkpt lat="46.86339" lon="8.48078">
        <ele>2295</ele>
        <time>2021-08-12T09:07:13.441Z</time>
      </trkpt>
      <trkpt lat="46.86339" lon="8.48079">
        <ele>2294</ele>
        <time>2021-08-12T09:07:14.441Z</time>
      </trkpt>
      <trkpt lat="46.86339" lon="8.48081">
        <ele>2294</ele>
        <time>2021-08-12T09:07:15.441Z</time>
      </trkpt>
      <trkpt lat="46.86339" lon="8.48082">
        <ele>2294</ele>
        <time>2021-08-12T09:07:16.441Z</time>
      </trkpt>
      <trkpt lat="46.86339" lon="8.48084">
        <ele>2294</ele>
        <time>2021-08-12T09:07:17.440Z</time>
      </trkpt>
      <trkpt lat="46.86339" lon="8.48086">
        <ele>2294</ele>
        <time>2021-08-12T09:07:18.440Z</time>
      </trkpt>
      <trkpt lat="46.86338" lon="8.48089">
        <ele>2294</ele>
        <time>2021-08-12T09:07:19.441Z</time>
      </trkpt>
      <trkpt lat="46.86338" lon="8.48093">
        <ele>2294</ele>
        <time>2021-08-12T09:07:20.441Z</time>
      </trkpt>
      <trkpt lat="46.86337" lon="8.48095">
        <ele>2294</ele>
        <time>2021-08-12T09:07:21.440Z</time>
      </trkpt>
      <trkpt lat="46.86337" lon="8.48096">
        <ele>2294</ele>
        <time>2021-08-12T09:07:22.441Z</time>
      </trkpt>
      <trkpt lat="46.86338" lon="8.48099">
        <ele>2294</ele>
        <time>2021-08-12T09:07:23.441Z</time>
      </trkpt>
      <trkpt lat="46.86337" lon="8.48101">
        <ele>2294</ele>
        <time>2021-08-12T09:07:24.440Z</time>
      </trkpt>
      <trkpt lat="46.86338" lon="8.48101">
        <ele>2293</ele>
        <time>2021-08-12T09:07:25.441Z</time>
      </trkpt>
      <trkpt lat="46.86338" lon="8.48103">
        <ele>2292</ele>
        <time>2021-08-12T09:07:26.440Z</time>
      </trkpt>
      <trkpt lat="46.86337" lon="8.48103">
        <ele>2292</ele>
        <time>2021-08-12T09:07:27.441Z</time>
      </trkpt>
      <trkpt lat="46.86336" lon="8.48104">
        <ele>2292</ele>
        <time>2021-08-12T09:07:28.440Z</time>
      </trkpt>
      <trkpt lat="46.86336" lon="8.48105">
        <ele>2292</ele>
        <time>2021-08-12T09:07:29.441Z</time>
      </trkpt>
      <trkpt lat="46.86336" lon="8.48106">
        <ele>2292</ele>
        <time>2021-08-12T09:07:30.441Z</time>
      </trkpt>
      <trkpt lat="46.86336" lon="8.48107">
        <ele>2292</ele>
        <time>2021-08-12T09:07:31.440Z</time>
      </trkpt>
      <trkpt lat="46.86336" lon="8.48108">
        <ele>2292</ele>
        <time>2021-08-12T09:07:32.441Z</time>
      </trkpt>
      <trkpt lat="46.86336" lon="8.48109">
        <ele>2292</ele>
        <time>2021-08-12T09:07:33.441Z</time>
      </trkpt>
      <trkpt lat="46.86337" lon="8.4811">
        <ele>2292</ele>
        <time>2021-08-12T09:07:34.441Z</time>
      </trkpt>
      <trkpt lat="46.86337" lon="8.48111">
        <ele>2293</ele>
        <time>2021-08-12T09:07:35.441Z</time>
      </trkpt>
      <trkpt lat="46.86337" lon="8.48112">
        <ele>2293</ele>
        <time>2021-08-12T09:07:36.440Z</time>
      </trkpt>
      <trkpt lat="46.86337" lon="8.48113">
        <ele>2293</ele>
        <time>2021-08-12T09:07:37.441Z</time>
      </trkpt>
      <trkpt lat="46.86337" lon="8.48115">
        <ele>2293</ele>
        <time>2021-08-12T09:07:38.441Z</time>
      </trkpt>
      <trkpt lat="46.86337" lon="8.48115">
        <ele>2293</ele>
        <time>2021-08-12T09:07:39.440Z</time>
      </trkpt>
      <trkpt lat="46.86337" lon="8.48116">
        <ele>2292</ele>
        <time>2021-08-12T09:07:40.440Z</time>
      </trkpt>
      <trkpt lat="46.86337" lon="8.48117">
        <ele>2292</ele>
        <time>2021-08-12T09:07:41.441Z</time>
      </trkpt>
      <trkpt lat="46.86337" lon="8.48118">
        <ele>2292</ele>
        <time>2021-08-12T09:07:42.440Z</time>
      </trkpt>
      <trkpt lat="46.86338" lon="8.48119">
        <ele>2292</ele>
        <time>2021-08-12T09:07:43.440Z</time>
      </trkpt>
      <trkpt lat="46.86338" lon="8.4812">
        <ele>2293</ele>
        <time>2021-08-12T09:07:44.441Z</time>
      </trkpt>
      <trkpt lat="46.86338" lon="8.48121">
        <ele>2293</ele>
        <time>2021-08-12T09:07:45.441Z</time>
      </trkpt>
      <trkpt lat="46.86338" lon="8.48122">
        <ele>2293</ele>
        <time>2021-08-12T09:07:46.441Z</time>
      </trkpt>
      <trkpt lat="46.86339" lon="8.48122">
        <ele>2293</ele>
        <time>2021-08-12T09:07:47.441Z</time>
      </trkpt>
      <trkpt lat="46.86339" lon="8.48123">
        <ele>2293</ele>
        <time>2021-08-12T09:07:48.441Z</time>
      </trkpt>
      <trkpt lat="46.86339" lon="8.48124">
        <ele>2293</ele>
        <time>2021-08-12T09:07:49.441Z</time>
      </trkpt>
      <trkpt lat="46.8634" lon="8.48124">
        <ele>2293</ele>
        <time>2021-08-12T09:07:50.441Z</time>
      </trkpt>
      <trkpt lat="46.8634" lon="8.48123">
        <ele>2293</ele>
        <time>2021-08-12T09:07:51.440Z</time>
      </trkpt>
      <trkpt lat="46.86341" lon="8.48122">
        <ele>2293</ele>
        <time>2021-08-12T09:07:52.441Z</time>
      </trkpt>
      <trkpt lat="46.86341" lon="8.48121">
        <ele>2293</ele>
        <time>2021-08-12T09:07:53.441Z</time>
      </trkpt>
      <trkpt lat="46.86342" lon="8.48123">
        <ele>2294</ele>
        <time>2021-08-12T09:07:54.441Z</time>
      </trkpt>
      <trkpt lat="46.86342" lon="8.48123">
        <ele>2294</ele>
        <time>2021-08-12T09:07:55.441Z</time>
      </trkpt>
      <trkpt lat="46.86342" lon="8.48123">
        <ele>2294</ele>
        <time>2021-08-12T09:07:56.441Z</time>
      </trkpt>
      <trkpt lat="46.86342" lon="8.48123">
        <ele>2294</ele>
        <time>2021-08-12T09:07:57.441Z</time>
      </trkpt>
      <trkpt lat="46.86341" lon="8.48121">
        <ele>2294</ele>
        <time>2021-08-12T09:07:58.442Z</time>
      </trkpt>
      <trkpt lat="46.8634" lon="8.4812">
        <ele>2294</ele>
        <time>2021-08-12T09:07:59.442Z</time>
      </trkpt>
      <trkpt lat="46.8634" lon="8.4812">
        <ele>2294</ele>
        <time>2021-08-12T09:08:00.443Z</time>
      </trkpt>
      <trkpt lat="46.8634" lon="8.4812">
        <ele>2294</ele>
        <time>2021-08-12T09:08:01.442Z</time>
      </trkpt>
      <trkpt lat="46.8634" lon="8.48119">
        <ele>2294</ele>
        <time>2021-08-12T09:08:02.442Z</time>
      </trkpt>
      <trkpt lat="46.8634" lon="8.48119">
        <ele>2294</ele>
        <time>2021-08-12T09:08:03.442Z</time>
      </trkpt>
      <trkpt lat="46.8634" lon="8.48119">
        <ele>2294</ele>
        <time>2021-08-12T09:08:04.443Z</time>
      </trkpt>
      <trkpt lat="46.8634" lon="8.48123">
        <ele>2294</ele>
        <time>2021-08-12T09:08:05.444Z</time>
      </trkpt>
      <trkpt lat="46.8634" lon="8.48124">
        <ele>2294</ele>
        <time>2021-08-12T09:08:06.444Z</time>
      </trkpt>
      <trkpt lat="46.8634" lon="8.48125">
        <ele>2293</ele>
        <time>2021-08-12T09:08:07.443Z</time>
      </trkpt>
      <trkpt lat="46.86341" lon="8.48127">
        <ele>2293</ele>
        <time>2021-08-12T09:08:08.443Z</time>
      </trkpt>
      <trkpt lat="46.86341" lon="8.48128">
        <ele>2293</ele>
        <time>2021-08-12T09:08:09.444Z</time>
      </trkpt>
      <trkpt lat="46.86342" lon="8.48128">
        <ele>2293</ele>
        <time>2021-08-12T09:08:10.444Z</time>
      </trkpt>
      <trkpt lat="46.86342" lon="8.48128">
        <ele>2293</ele>
        <time>2021-08-12T09:08:11.443Z</time>
      </trkpt>
      <trkpt lat="46.86343" lon="8.48128">
        <ele>2293</ele>
        <time>2021-08-12T09:08:12.444Z</time>
      </trkpt>
      <trkpt lat="46.86343" lon="8.48129">
        <ele>2293</ele>
        <time>2021-08-12T09:08:13.443Z</time>
      </trkpt>
      <trkpt lat="46.86343" lon="8.48131">
        <ele>2294</ele>
        <time>2021-08-12T09:08:14.444Z</time>
      </trkpt>
      <trkpt lat="46.86344" lon="8.48132">
        <ele>2294</ele>
        <time>2021-08-12T09:08:15.444Z</time>
      </trkpt>
      <trkpt lat="46.86344" lon="8.48132">
        <ele>2294</ele>
        <time>2021-08-12T09:08:16.443Z</time>
      </trkpt>
      <trkpt lat="46.86344" lon="8.48133">
        <ele>2294</ele>
        <time>2021-08-12T09:08:17.443Z</time>
      </trkpt>
      <trkpt lat="46.86344" lon="8.48134">
        <ele>2295</ele>
        <time>2021-08-12T09:08:18.443Z</time>
      </trkpt>
      <trkpt lat="46.86344" lon="8.48134">
        <ele>2295</ele>
        <time>2021-08-12T09:08:19.443Z</time>
      </trkpt>
      <trkpt lat="46.86344" lon="8.48135">
        <ele>2295</ele>
        <time>2021-08-12T09:08:20.443Z</time>
      </trkpt>
      <trkpt lat="46.86344" lon="8.48136">
        <ele>2296</ele>
        <time>2021-08-12T09:08:21.443Z</time>
      </trkpt>
      <trkpt lat="46.86344" lon="8.48136">
        <ele>2296</ele>
        <time>2021-08-12T09:08:22.443Z</time>
      </trkpt>
      <trkpt lat="46.86344" lon="8.48137">
        <ele>2296</ele>
        <time>2021-08-12T09:08:23.443Z</time>
      </trkpt>
      <trkpt lat="46.86343" lon="8.48138">
        <ele>2296</ele>
        <time>2021-08-12T09:08:24.443Z</time>
      </trkpt>
      <trkpt lat="46.86343" lon="8.48139">
        <ele>2296</ele>
        <time>2021-08-12T09:08:25.444Z</time>
      </trkpt>
      <trkpt lat="46.86343" lon="8.4814">
        <ele>2296</ele>
        <time>2021-08-12T09:08:26.444Z</time>
      </trkpt>
      <trkpt lat="46.86343" lon="8.4814">
        <ele>2296</ele>
        <time>2021-08-12T09:08:27.444Z</time>
      </trkpt>
      <trkpt lat="46.86343" lon="8.48141">
        <ele>2296</ele>
        <time>2021-08-12T09:08:28.444Z</time>
      </trkpt>
      <trkpt lat="46.86343" lon="8.48142">
        <ele>2296</ele>
        <time>2021-08-12T09:08:29.444Z</time>
      </trkpt>
      <trkpt lat="46.86343" lon="8.48143">
        <ele>2296</ele>
        <time>2021-08-12T09:08:30.444Z</time>
      </trkpt>
      <trkpt lat="46.86343" lon="8.48143">
        <ele>2297</ele>
        <time>2021-08-12T09:08:31.444Z</time>
      </trkpt>
      <trkpt lat="46.86342" lon="8.48144">
        <ele>2297</ele>
        <time>2021-08-12T09:08:32.443Z</time>
      </trkpt>
      <trkpt lat="46.86342" lon="8.48144">
        <ele>2297</ele>
        <time>2021-08-12T09:08:33.444Z</time>
      </trkpt>
      <trkpt lat="46.86342" lon="8.48144">
        <ele>2297</ele>
        <time>2021-08-12T09:08:34.444Z</time>
      </trkpt>
      <trkpt lat="46.86342" lon="8.48145">
        <ele>2298</ele>
        <time>2021-08-12T09:08:35.443Z</time>
      </trkpt>
      <trkpt lat="46.86341" lon="8.48146">
        <ele>2299</ele>
        <time>2021-08-12T09:08:36.444Z</time>
      </trkpt>
      <trkpt lat="46.86341" lon="8.48147">
        <ele>2299</ele>
        <time>2021-08-12T09:08:37.444Z</time>
      </trkpt>
      <trkpt lat="46.86341" lon="8.48147">
        <ele>2300</ele>
        <time>2021-08-12T09:08:38.443Z</time>
      </trkpt>
      <trkpt lat="46.86341" lon="8.48148">
        <ele>2301</ele>
        <time>2021-08-12T09:08:39.443Z</time>
      </trkpt>
      <trkpt lat="46.8634" lon="8.48149">
        <ele>2301</ele>
        <time>2021-08-12T09:08:40.444Z</time>
      </trkpt>
      <trkpt lat="46.8634" lon="8.48149">
        <ele>2302</ele>
        <time>2021-08-12T09:08:41.444Z</time>
      </trkpt>
      <trkpt lat="46.8634" lon="8.48149">
        <ele>2302</ele>
        <time>2021-08-12T09:08:42.443Z</time>
      </trkpt>
      <trkpt lat="46.8634" lon="8.48149">
        <ele>2302</ele>
        <time>2021-08-12T09:08:43.444Z</time>
      </trkpt>
      <trkpt lat="46.8634" lon="8.4815">
        <ele>2303</ele>
        <time>2021-08-12T09:08:44.443Z</time>
      </trkpt>
      <trkpt lat="46.8634" lon="8.48151">
        <ele>2303</ele>
        <time>2021-08-12T09:08:45.443Z</time>
      </trkpt>
      <trkpt lat="46.8634" lon="8.48152">
        <ele>2302</ele>
        <time>2021-08-12T09:08:46.443Z</time>
      </trkpt>
      <trkpt lat="46.86341" lon="8.48153">
        <ele>2302</ele>
        <time>2021-08-12T09:08:47.444Z</time>
      </trkpt>
      <trkpt lat="46.86342" lon="8.48153">
        <ele>2302</ele>
        <time>2021-08-12T09:08:48.443Z</time>
      </trkpt>
      <trkpt lat="46.86343" lon="8.48153">
        <ele>2302</ele>
        <time>2021-08-12T09:08:49.443Z</time>
      </trkpt>
      <trkpt lat="46.86343" lon="8.48154">
        <ele>2303</ele>
        <time>2021-08-12T09:08:50.444Z</time>
      </trkpt>
      <trkpt lat="46.86343" lon="8.48155">
        <ele>2303</ele>
        <time>2021-08-12T09:08:51.443Z</time>
      </trkpt>
      <trkpt lat="46.86343" lon="8.48156">
        <ele>2304</ele>
        <time>2021-08-12T09:08:52.443Z</time>
      </trkpt>
      <trkpt lat="46.86342" lon="8.48156">
        <ele>2304</ele>
        <time>2021-08-12T09:08:53.444Z</time>
      </trkpt>
      <trkpt lat="46.86342" lon="8.48157">
        <ele>2304</ele>
        <time>2021-08-12T09:08:54.444Z</time>
      </trkpt>
      <trkpt lat="46.86341" lon="8.48157">
        <ele>2305</ele>
        <time>2021-08-12T09:08:55.444Z</time>
      </trkpt>
      <trkpt lat="46.8634" lon="8.48158">
        <ele>2305</ele>
        <time>2021-08-12T09:08:56.443Z</time>
      </trkpt>
      <trkpt lat="46.8634" lon="8.48159">
        <ele>2305</ele>
        <time>2021-08-12T09:08:57.444Z</time>
      </trkpt>
      <trkpt lat="46.8634" lon="8.4816">
        <ele>2305</ele>
        <time>2021-08-12T09:08:58.443Z</time>
      </trkpt>
      <trkpt lat="46.86341" lon="8.48161">
        <ele>2305</ele>
        <time>2021-08-12T09:08:59.443Z</time>
      </trkpt>
      <trkpt lat="46.86341" lon="8.48161">
        <ele>2305</ele>
        <time>2021-08-12T09:09:00.444Z</time>
      </trkpt>
      <trkpt lat="46.86341" lon="8.48162">
        <ele>2306</ele>
        <time>2021-08-12T09:09:01.443Z</time>
      </trkpt>
      <trkpt lat="46.86341" lon="8.48163">
        <ele>2306</ele>
        <time>2021-08-12T09:09:02.444Z</time>
      </trkpt>
      <trkpt lat="46.8634" lon="8.48164">
        <ele>2306</ele>
        <time>2021-08-12T09:09:03.444Z</time>
      </trkpt>
      <trkpt lat="46.86339" lon="8.48165">
        <ele>2307</ele>
        <time>2021-08-12T09:09:04.443Z</time>
      </trkpt>
      <trkpt lat="46.86338" lon="8.48165">
        <ele>2307</ele>
        <time>2021-08-12T09:09:05.443Z</time>
      </trkpt>
      <trkpt lat="46.86338" lon="8.48166">
        <ele>2308</ele>
        <time>2021-08-12T09:09:06.443Z</time>
      </trkpt>
      <trkpt lat="46.86338" lon="8.48166">
        <ele>2308</ele>
        <time>2021-08-12T09:09:07.443Z</time>
      </trkpt>
      <trkpt lat="46.86338" lon="8.48167">
        <ele>2309</ele>
        <time>2021-08-12T09:09:08.443Z</time>
      </trkpt>
      <trkpt lat="46.86339" lon="8.48167">
        <ele>2309</ele>
        <time>2021-08-12T09:09:09.443Z</time>
      </trkpt>
      <trkpt lat="46.86339" lon="8.48168">
        <ele>2309</ele>
        <time>2021-08-12T09:09:10.444Z</time>
      </trkpt>
      <trkpt lat="46.86339" lon="8.48169">
        <ele>2309</ele>
        <time>2021-08-12T09:09:11.443Z</time>
      </trkpt>
      <trkpt lat="46.86339" lon="8.48169">
        <ele>2309</ele>
        <time>2021-08-12T09:09:12.444Z</time>
      </trkpt>
      <trkpt lat="46.86338" lon="8.48169">
        <ele>2309</ele>
        <time>2021-08-12T09:09:13.444Z</time>
      </trkpt>
      <trkpt lat="46.86338" lon="8.4817">
        <ele>2309</ele>
        <time>2021-08-12T09:09:14.443Z</time>
      </trkpt>
      <trkpt lat="46.86337" lon="8.48171">
        <ele>2309</ele>
        <time>2021-08-12T09:09:15.443Z</time>
      </trkpt>
      <trkpt lat="46.86337" lon="8.48172">
        <ele>2309</ele>
        <time>2021-08-12T09:09:16.444Z</time>
      </trkpt>
      <trkpt lat="46.86337" lon="8.48173">
        <ele>2309</ele>
        <time>2021-08-12T09:09:17.444Z</time>
      </trkpt>
      <trkpt lat="46.86337" lon="8.48174">
        <ele>2309</ele>
        <time>2021-08-12T09:09:18.444Z</time>
      </trkpt>
      <trkpt lat="46.86337" lon="8.48174">
        <ele>2310</ele>
        <time>2021-08-12T09:09:19.443Z</time>
      </trkpt>
      <trkpt lat="46.86337" lon="8.48174">
        <ele>2310</ele>
        <time>2021-08-12T09:09:20.444Z</time>
      </trkpt>
      <trkpt lat="46.86337" lon="8.48175">
        <ele>2311</ele>
        <time>2021-08-12T09:09:21.444Z</time>
      </trkpt>
      <trkpt lat="46.86338" lon="8.48175">
        <ele>2312</ele>
        <time>2021-08-12T09:09:22.444Z</time>
      </trkpt>
      <trkpt lat="46.86338" lon="8.48175">
        <ele>2312</ele>
        <time>2021-08-12T09:09:23.444Z</time>
      </trkpt>
      <trkpt lat="46.86338" lon="8.48176">
        <ele>2313</ele>
        <time>2021-08-12T09:09:24.443Z</time>
      </trkpt>
      <trkpt lat="46.86338" lon="8.48177">
        <ele>2313</ele>
        <time>2021-08-12T09:09:25.444Z</time>
      </trkpt>
      <trkpt lat="46.86338" lon="8.48178">
        <ele>2312</ele>
        <time>2021-08-12T09:09:26.443Z</time>
      </trkpt>
      <trkpt lat="46.86337" lon="8.48178">
        <ele>2312</ele>
        <time>2021-08-12T09:09:27.444Z</time>
      </trkpt>
      <trkpt lat="46.86337" lon="8.48179">
        <ele>2312</ele>
        <time>2021-08-12T09:09:28.444Z</time>
      </trkpt>
      <trkpt lat="46.86337" lon="8.4818">
        <ele>2312</ele>
        <time>2021-08-12T09:09:29.443Z</time>
      </trkpt>
      <trkpt lat="46.86337" lon="8.48181">
        <ele>2311</ele>
        <time>2021-08-12T09:09:30.444Z</time>
      </trkpt>
      <trkpt lat="46.86336" lon="8.48181">
        <ele>2311</ele>
        <time>2021-08-12T09:09:31.444Z</time>
      </trkpt>
      <trkpt lat="46.86335" lon="8.48182">
        <ele>2311</ele>
        <time>2021-08-12T09:09:32.443Z</time>
      </trkpt>
      <trkpt lat="46.86334" lon="8.48183">
        <ele>2311</ele>
        <time>2021-08-12T09:09:33.443Z</time>
      </trkpt>
      <trkpt lat="46.86334" lon="8.48183">
        <ele>2311</ele>
        <time>2021-08-12T09:09:34.444Z</time>
      </trkpt>
      <trkpt lat="46.86334" lon="8.48183">
        <ele>2311</ele>
        <time>2021-08-12T09:09:35.444Z</time>
      </trkpt>
      <trkpt lat="46.86334" lon="8.48184">
        <ele>2311</ele>
        <time>2021-08-12T09:09:36.444Z</time>
      </trkpt>
      <trkpt lat="46.86334" lon="8.48183">
        <ele>2311</ele>
        <time>2021-08-12T09:09:37.443Z</time>
      </trkpt>
      <trkpt lat="46.86334" lon="8.48184">
        <ele>2312</ele>
        <time>2021-08-12T09:09:38.444Z</time>
      </trkpt>
      <trkpt lat="46.86334" lon="8.48184">
        <ele>2312</ele>
        <time>2021-08-12T09:09:39.444Z</time>
      </trkpt>
      <trkpt lat="46.86334" lon="8.48185">
        <ele>2312</ele>
        <time>2021-08-12T09:09:40.445Z</time>
      </trkpt>
      <trkpt lat="46.86335" lon="8.48185">
        <ele>2312</ele>
        <time>2021-08-12T09:09:41.445Z</time>
      </trkpt>
      <trkpt lat="46.86335" lon="8.48186">
        <ele>2312</ele>
        <time>2021-08-12T09:09:42.444Z</time>
      </trkpt>
      <trkpt lat="46.86335" lon="8.48186">
        <ele>2312</ele>
        <time>2021-08-12T09:09:43.444Z</time>
      </trkpt>
      <trkpt lat="46.86334" lon="8.48187">
        <ele>2312</ele>
        <time>2021-08-12T09:09:44.445Z</time>
      </trkpt>
      <trkpt lat="46.86334" lon="8.48187">
        <ele>2312</ele>
        <time>2021-08-12T09:09:45.445Z</time>
      </trkpt>
      <trkpt lat="46.86333" lon="8.48188">
        <ele>2312</ele>
        <time>2021-08-12T09:09:46.445Z</time>
      </trkpt>
      <trkpt lat="46.86332" lon="8.48189">
        <ele>2312</ele>
        <time>2021-08-12T09:09:47.445Z</time>
      </trkpt>
      <trkpt lat="46.86331" lon="8.4819">
        <ele>2312</ele>
        <time>2021-08-12T09:09:48.445Z</time>
      </trkpt>
      <trkpt lat="46.86331" lon="8.4819">
        <ele>2312</ele>
        <time>2021-08-12T09:09:49.445Z</time>
      </trkpt>
      <trkpt lat="46.86331" lon="8.4819">
        <ele>2313</ele>
        <time>2021-08-12T09:09:50.445Z</time>
      </trkpt>
      <trkpt lat="46.86332" lon="8.4819">
        <ele>2313</ele>
        <time>2021-08-12T09:09:51.444Z</time>
      </trkpt>
      <trkpt lat="46.86332" lon="8.48191">
        <ele>2313</ele>
        <time>2021-08-12T09:09:52.445Z</time>
      </trkpt>
      <trkpt lat="46.86331" lon="8.48191">
        <ele>2314</ele>
        <time>2021-08-12T09:09:53.444Z</time>
      </trkpt>
      <trkpt lat="46.86331" lon="8.48192">
        <ele>2314</ele>
        <time>2021-08-12T09:09:54.445Z</time>
      </trkpt>
      <trkpt lat="46.86331" lon="8.48192">
        <ele>2314</ele>
        <time>2021-08-12T09:09:55.444Z</time>
      </trkpt>
      <trkpt lat="46.86331" lon="8.48193">
        <ele>2315</ele>
        <time>2021-08-12T09:09:56.444Z</time>
      </trkpt>
      <trkpt lat="46.8633" lon="8.48194">
        <ele>2315</ele>
        <time>2021-08-12T09:09:57.445Z</time>
      </trkpt>
      <trkpt lat="46.8633" lon="8.48195">
        <ele>2315</ele>
        <time>2021-08-12T09:09:58.445Z</time>
      </trkpt>
      <trkpt lat="46.8633" lon="8.48196">
        <ele>2315</ele>
        <time>2021-08-12T09:09:59.444Z</time>
      </trkpt>
      <trkpt lat="46.8633" lon="8.48197">
        <ele>2315</ele>
        <time>2021-08-12T09:10:00.445Z</time>
      </trkpt>
      <trkpt lat="46.8633" lon="8.48197">
        <ele>2315</ele>
        <time>2021-08-12T09:10:01.445Z</time>
      </trkpt>
      <trkpt lat="46.86329" lon="8.48198">
        <ele>2316</ele>
        <time>2021-08-12T09:10:02.444Z</time>
      </trkpt>
      <trkpt lat="46.86328" lon="8.48199">
        <ele>2316</ele>
        <time>2021-08-12T09:10:03.445Z</time>
      </trkpt>
      <trkpt lat="46.86328" lon="8.48199">
        <ele>2316</ele>
        <time>2021-08-12T09:10:04.445Z</time>
      </trkpt>
      <trkpt lat="46.86328" lon="8.482">
        <ele>2316</ele>
        <time>2021-08-12T09:10:05.444Z</time>
      </trkpt>
      <trkpt lat="46.86328" lon="8.482">
        <ele>2316</ele>
        <time>2021-08-12T09:10:06.445Z</time>
      </trkpt>
      <trkpt lat="46.86328" lon="8.48201">
        <ele>2316</ele>
        <time>2021-08-12T09:10:07.445Z</time>
      </trkpt>
      <trkpt lat="46.86329" lon="8.482">
        <ele>2316</ele>
        <time>2021-08-12T09:10:08.444Z</time>
      </trkpt>
      <trkpt lat="46.86329" lon="8.482">
        <ele>2317</ele>
        <time>2021-08-12T09:10:09.445Z</time>
      </trkpt>
      <trkpt lat="46.8633" lon="8.482">
        <ele>2317</ele>
        <time>2021-08-12T09:10:10.445Z</time>
      </trkpt>
      <trkpt lat="46.8633" lon="8.48201">
        <ele>2317</ele>
        <time>2021-08-12T09:10:11.444Z</time>
      </trkpt>
      <trkpt lat="46.8633" lon="8.48201">
        <ele>2318</ele>
        <time>2021-08-12T09:10:12.444Z</time>
      </trkpt>
      <trkpt lat="46.86329" lon="8.48202">
        <ele>2318</ele>
        <time>2021-08-12T09:10:13.444Z</time>
      </trkpt>
      <trkpt lat="46.86328" lon="8.48203">
        <ele>2318</ele>
        <time>2021-08-12T09:10:14.444Z</time>
      </trkpt>
      <trkpt lat="46.86329" lon="8.48206">
        <ele>2318</ele>
        <time>2021-08-12T09:10:15.445Z</time>
      </trkpt>
      <trkpt lat="46.86329" lon="8.48207">
        <ele>2318</ele>
        <time>2021-08-12T09:10:16.444Z</time>
      </trkpt>
      <trkpt lat="46.86329" lon="8.48208">
        <ele>2318</ele>
        <time>2021-08-12T09:10:17.444Z</time>
      </trkpt>
      <trkpt lat="46.86329" lon="8.48209">
        <ele>2318</ele>
        <time>2021-08-12T09:10:18.445Z</time>
      </trkpt>
      <trkpt lat="46.86329" lon="8.4821">
        <ele>2319</ele>
        <time>2021-08-12T09:10:19.444Z</time>
      </trkpt>
      <trkpt lat="46.86329" lon="8.4821">
        <ele>2319</ele>
        <time>2021-08-12T09:10:20.444Z</time>
      </trkpt>
      <trkpt lat="46.86329" lon="8.48211">
        <ele>2319</ele>
        <time>2021-08-12T09:10:21.445Z</time>
      </trkpt>
      <trkpt lat="46.86329" lon="8.48211">
        <ele>2318</ele>
        <time>2021-08-12T09:10:22.445Z</time>
      </trkpt>
      <trkpt lat="46.86329" lon="8.48212">
        <ele>2318</ele>
        <time>2021-08-12T09:10:23.444Z</time>
      </trkpt>
      <trkpt lat="46.86328" lon="8.48213">
        <ele>2318</ele>
        <time>2021-08-12T09:10:24.444Z</time>
      </trkpt>
      <trkpt lat="46.86327" lon="8.48214">
        <ele>2318</ele>
        <time>2021-08-12T09:10:25.444Z</time>
      </trkpt>
      <trkpt lat="46.86327" lon="8.48215">
        <ele>2318</ele>
        <time>2021-08-12T09:10:26.444Z</time>
      </trkpt>
      <trkpt lat="46.86326" lon="8.48216">
        <ele>2318</ele>
        <time>2021-08-12T09:10:27.445Z</time>
      </trkpt>
      <trkpt lat="46.86327" lon="8.48217">
        <ele>2318</ele>
        <time>2021-08-12T09:10:28.444Z</time>
      </trkpt>
      <trkpt lat="46.86327" lon="8.48217">
        <ele>2318</ele>
        <time>2021-08-12T09:10:29.444Z</time>
      </trkpt>
      <trkpt lat="46.86328" lon="8.48216">
        <ele>2319</ele>
        <time>2021-08-12T09:10:30.445Z</time>
      </trkpt>
      <trkpt lat="46.86329" lon="8.48216">
        <ele>2319</ele>
        <time>2021-08-12T09:10:31.445Z</time>
      </trkpt>
      <trkpt lat="46.86328" lon="8.48217">
        <ele>2321</ele>
        <time>2021-08-12T09:10:32.445Z</time>
      </trkpt>
      <trkpt lat="46.86327" lon="8.48217">
        <ele>2321</ele>
        <time>2021-08-12T09:10:33.446Z</time>
      </trkpt>
      <trkpt lat="46.86327" lon="8.48218">
        <ele>2321</ele>
        <time>2021-08-12T09:10:34.445Z</time>
      </trkpt>
      <trkpt lat="46.86328" lon="8.4822">
        <ele>2325</ele>
        <time>2021-08-12T09:10:35.445Z</time>
      </trkpt>
      <trkpt lat="46.86328" lon="8.4822">
        <ele>2325</ele>
        <time>2021-08-12T09:10:36.445Z</time>
      </trkpt>
      <trkpt lat="46.86328" lon="8.48221">
        <ele>2325</ele>
        <time>2021-08-12T09:10:37.446Z</time>
      </trkpt>
      <trkpt lat="46.86327" lon="8.48222">
        <ele>2326</ele>
        <time>2021-08-12T09:10:38.445Z</time>
      </trkpt>
      <trkpt lat="46.86327" lon="8.48222">
        <ele>2326</ele>
        <time>2021-08-12T09:10:39.445Z</time>
      </trkpt>
      <trkpt lat="46.86327" lon="8.48222">
        <ele>2326</ele>
        <time>2021-08-12T09:10:40.446Z</time>
      </trkpt>
      <trkpt lat="46.86327" lon="8.48223">
        <ele>2327</ele>
        <time>2021-08-12T09:10:41.447Z</time>
      </trkpt>
      <trkpt lat="46.86327" lon="8.48224">
        <ele>2328</ele>
        <time>2021-08-12T09:10:42.447Z</time>
      </trkpt>
      <trkpt lat="46.86326" lon="8.48225">
        <ele>2328</ele>
        <time>2021-08-12T09:10:43.447Z</time>
      </trkpt>
      <trkpt lat="46.86326" lon="8.48225">
        <ele>2327</ele>
        <time>2021-08-12T09:10:44.446Z</time>
      </trkpt>
      <trkpt lat="46.86327" lon="8.48226">
        <ele>2327</ele>
        <time>2021-08-12T09:10:45.447Z</time>
      </trkpt>
      <trkpt lat="46.86327" lon="8.48226">
        <ele>2327</ele>
        <time>2021-08-12T09:10:46.447Z</time>
      </trkpt>
      <trkpt lat="46.86328" lon="8.48226">
        <ele>2327</ele>
        <time>2021-08-12T09:10:47.446Z</time>
      </trkpt>
      <trkpt lat="46.86328" lon="8.48227">
        <ele>2326</ele>
        <time>2021-08-12T09:10:48.446Z</time>
      </trkpt>
      <trkpt lat="46.86328" lon="8.48227">
        <ele>2326</ele>
        <time>2021-08-12T09:10:49.447Z</time>
      </trkpt>
      <trkpt lat="46.86328" lon="8.48228">
        <ele>2326</ele>
        <time>2021-08-12T09:10:50.447Z</time>
      </trkpt>
      <trkpt lat="46.86327" lon="8.48229">
        <ele>2326</ele>
        <time>2021-08-12T09:10:51.446Z</time>
      </trkpt>
      <trkpt lat="46.86326" lon="8.48229">
        <ele>2326</ele>
        <time>2021-08-12T09:10:52.447Z</time>
      </trkpt>
      <trkpt lat="46.86325" lon="8.48231">
        <ele>2325</ele>
        <time>2021-08-12T09:10:53.446Z</time>
      </trkpt>
      <trkpt lat="46.86325" lon="8.48232">
        <ele>2325</ele>
        <time>2021-08-12T09:10:54.447Z</time>
      </trkpt>
      <trkpt lat="46.86324" lon="8.48233">
        <ele>2324</ele>
        <time>2021-08-12T09:10:55.446Z</time>
      </trkpt>
      <trkpt lat="46.86324" lon="8.48234">
        <ele>2324</ele>
        <time>2021-08-12T09:10:56.447Z</time>
      </trkpt>
      <trkpt lat="46.86325" lon="8.48235">
        <ele>2323</ele>
        <time>2021-08-12T09:10:57.447Z</time>
      </trkpt>
      <trkpt lat="46.86325" lon="8.48236">
        <ele>2323</ele>
        <time>2021-08-12T09:10:58.447Z</time>
      </trkpt>
      <trkpt lat="46.86325" lon="8.48236">
        <ele>2322</ele>
        <time>2021-08-12T09:10:59.446Z</time>
      </trkpt>
      <trkpt lat="46.86325" lon="8.48237">
        <ele>2321</ele>
        <time>2021-08-12T09:11:00.447Z</time>
      </trkpt>
      <trkpt lat="46.86324" lon="8.48238">
        <ele>2321</ele>
        <time>2021-08-12T09:11:01.447Z</time>
      </trkpt>
      <trkpt lat="46.86324" lon="8.48238">
        <ele>2321</ele>
        <time>2021-08-12T09:11:02.446Z</time>
      </trkpt>
      <trkpt lat="46.86324" lon="8.48239">
        <ele>2321</ele>
        <time>2021-08-12T09:11:03.446Z</time>
      </trkpt>
      <trkpt lat="46.86323" lon="8.48239">
        <ele>2321</ele>
        <time>2021-08-12T09:11:04.446Z</time>
      </trkpt>
      <trkpt lat="46.86323" lon="8.48239">
        <ele>2322</ele>
        <time>2021-08-12T09:11:05.446Z</time>
      </trkpt>
      <trkpt lat="46.86322" lon="8.4824">
        <ele>2323</ele>
        <time>2021-08-12T09:11:06.447Z</time>
      </trkpt>
      <trkpt lat="46.86321" lon="8.4824">
        <ele>2324</ele>
        <time>2021-08-12T09:11:07.447Z</time>
      </trkpt>
      <trkpt lat="46.8632" lon="8.48241">
        <ele>2324</ele>
        <time>2021-08-12T09:11:08.447Z</time>
      </trkpt>
      <trkpt lat="46.8632" lon="8.48242">
        <ele>2325</ele>
        <time>2021-08-12T09:11:09.447Z</time>
      </trkpt>
      <trkpt lat="46.86318" lon="8.48243">
        <ele>2325</ele>
        <time>2021-08-12T09:11:10.447Z</time>
      </trkpt>
      <trkpt lat="46.86318" lon="8.48244">
        <ele>2326</ele>
        <time>2021-08-12T09:11:11.447Z</time>
      </trkpt>
      <trkpt lat="46.86317" lon="8.48245">
        <ele>2326</ele>
        <time>2021-08-12T09:11:12.447Z</time>
      </trkpt>
      <trkpt lat="46.86317" lon="8.48246">
        <ele>2326</ele>
        <time>2021-08-12T09:11:13.447Z</time>
      </trkpt>
      <trkpt lat="46.86317" lon="8.48246">
        <ele>2326</ele>
        <time>2021-08-12T09:11:14.446Z</time>
      </trkpt>
      <trkpt lat="46.86316" lon="8.48246">
        <ele>2326</ele>
        <time>2021-08-12T09:11:15.447Z</time>
      </trkpt>
      <trkpt lat="46.86316" lon="8.48247">
        <ele>2327</ele>
        <time>2021-08-12T09:11:16.447Z</time>
      </trkpt>
      <trkpt lat="46.86315" lon="8.48248">
        <ele>2327</ele>
        <time>2021-08-12T09:11:17.446Z</time>
      </trkpt>
      <trkpt lat="46.86316" lon="8.48248">
        <ele>2328</ele>
        <time>2021-08-12T09:11:18.447Z</time>
      </trkpt>
      <trkpt lat="46.86315" lon="8.48248">
        <ele>2328</ele>
        <time>2021-08-12T09:11:19.447Z</time>
      </trkpt>
      <trkpt lat="46.86315" lon="8.48249">
        <ele>2329</ele>
        <time>2021-08-12T09:11:20.447Z</time>
      </trkpt>
      <trkpt lat="46.86314" lon="8.48251">
        <ele>2329</ele>
        <time>2021-08-12T09:11:21.447Z</time>
      </trkpt>
      <trkpt lat="46.86313" lon="8.48252">
        <ele>2329</ele>
        <time>2021-08-12T09:11:22.447Z</time>
      </trkpt>
      <trkpt lat="46.86312" lon="8.48253">
        <ele>2329</ele>
        <time>2021-08-12T09:11:23.446Z</time>
      </trkpt>
      <trkpt lat="46.86311" lon="8.48254">
        <ele>2329</ele>
        <time>2021-08-12T09:11:24.446Z</time>
      </trkpt>
      <trkpt lat="46.86311" lon="8.48255">
        <ele>2329</ele>
        <time>2021-08-12T09:11:25.446Z</time>
      </trkpt>
      <trkpt lat="46.86311" lon="8.48255">
        <ele>2329</ele>
        <time>2021-08-12T09:11:26.447Z</time>
      </trkpt>
      <trkpt lat="46.86311" lon="8.48256">
        <ele>2329</ele>
        <time>2021-08-12T09:11:27.447Z</time>
      </trkpt>
      <trkpt lat="46.86311" lon="8.48256">
        <ele>2329</ele>
        <time>2021-08-12T09:11:28.446Z</time>
      </trkpt>
      <trkpt lat="46.86311" lon="8.48256">
        <ele>2329</ele>
        <time>2021-08-12T09:11:29.447Z</time>
      </trkpt>
      <trkpt lat="46.8631" lon="8.48257">
        <ele>2330</ele>
        <time>2021-08-12T09:11:30.446Z</time>
      </trkpt>
      <trkpt lat="46.86311" lon="8.48256">
        <ele>2330</ele>
        <time>2021-08-12T09:11:31.446Z</time>
      </trkpt>
      <trkpt lat="46.8631" lon="8.48257">
        <ele>2330</ele>
        <time>2021-08-12T09:11:32.446Z</time>
      </trkpt>
      <trkpt lat="46.8631" lon="8.48257">
        <ele>2331</ele>
        <time>2021-08-12T09:11:33.447Z</time>
      </trkpt>
      <trkpt lat="46.8631" lon="8.48257">
        <ele>2330</ele>
        <time>2021-08-12T09:11:34.446Z</time>
      </trkpt>
      <trkpt lat="46.8631" lon="8.48258">
        <ele>2330</ele>
        <time>2021-08-12T09:11:35.447Z</time>
      </trkpt>
      <trkpt lat="46.8631" lon="8.48258">
        <ele>2330</ele>
        <time>2021-08-12T09:11:36.447Z</time>
      </trkpt>
      <trkpt lat="46.8631" lon="8.48259">
        <ele>2330</ele>
        <time>2021-08-12T09:11:37.446Z</time>
      </trkpt>
      <trkpt lat="46.86309" lon="8.48259">
        <ele>2331</ele>
        <time>2021-08-12T09:11:38.447Z</time>
      </trkpt>
      <trkpt lat="46.86308" lon="8.4826">
        <ele>2331</ele>
        <time>2021-08-12T09:11:39.446Z</time>
      </trkpt>
      <trkpt lat="46.86308" lon="8.4826">
        <ele>2332</ele>
        <time>2021-08-12T09:11:40.446Z</time>
      </trkpt>
      <trkpt lat="46.86308" lon="8.4826">
        <ele>2333</ele>
        <time>2021-08-12T09:11:41.446Z</time>
      </trkpt>
      <trkpt lat="46.86307" lon="8.4826">
        <ele>2333</ele>
        <time>2021-08-12T09:11:42.446Z</time>
      </trkpt>
      <trkpt lat="46.86307" lon="8.4826">
        <ele>2334</ele>
        <time>2021-08-12T09:11:43.446Z</time>
      </trkpt>
      <trkpt lat="46.86307" lon="8.48261">
        <ele>2335</ele>
        <time>2021-08-12T09:11:44.447Z</time>
      </trkpt>
      <trkpt lat="46.86307" lon="8.48262">
        <ele>2335</ele>
        <time>2021-08-12T09:11:45.446Z</time>
      </trkpt>
      <trkpt lat="46.86307" lon="8.48263">
        <ele>2335</ele>
        <time>2021-08-12T09:11:46.447Z</time>
      </trkpt>
      <trkpt lat="46.86306" lon="8.48263">
        <ele>2335</ele>
        <time>2021-08-12T09:11:47.446Z</time>
      </trkpt>
      <trkpt lat="46.86307" lon="8.48263">
        <ele>2335</ele>
        <time>2021-08-12T09:11:48.446Z</time>
      </trkpt>
      <trkpt lat="46.86307" lon="8.48264">
        <ele>2335</ele>
        <time>2021-08-12T09:11:49.447Z</time>
      </trkpt>
      <trkpt lat="46.86307" lon="8.48264">
        <ele>2336</ele>
        <time>2021-08-12T09:11:50.447Z</time>
      </trkpt>
      <trkpt lat="46.86307" lon="8.48265">
        <ele>2336</ele>
        <time>2021-08-12T09:11:51.446Z</time>
      </trkpt>
      <trkpt lat="46.86308" lon="8.48265">
        <ele>2336</ele>
        <time>2021-08-12T09:11:52.446Z</time>
      </trkpt>
      <trkpt lat="46.86308" lon="8.48266">
        <ele>2336</ele>
        <time>2021-08-12T09:11:53.447Z</time>
      </trkpt>
      <trkpt lat="46.86309" lon="8.48267">
        <ele>2336</ele>
        <time>2021-08-12T09:11:54.446Z</time>
      </trkpt>
      <trkpt lat="46.8631" lon="8.48267">
        <ele>2335</ele>
        <time>2021-08-12T09:11:55.446Z</time>
      </trkpt>
      <trkpt lat="46.8631" lon="8.48268">
        <ele>2335</ele>
        <time>2021-08-12T09:11:56.447Z</time>
      </trkpt>
      <trkpt lat="46.8631" lon="8.48268">
        <ele>2335</ele>
        <time>2021-08-12T09:11:57.447Z</time>
      </trkpt>
      <trkpt lat="46.8631" lon="8.48269">
        <ele>2335</ele>
        <time>2021-08-12T09:11:58.447Z</time>
      </trkpt>
      <trkpt lat="46.8631" lon="8.48269">
        <ele>2335</ele>
        <time>2021-08-12T09:11:59.446Z</time>
      </trkpt>
      <trkpt lat="46.8631" lon="8.4827">
        <ele>2336</ele>
        <time>2021-08-12T09:12:00.447Z</time>
      </trkpt>
      <trkpt lat="46.86309" lon="8.4827">
        <ele>2336</ele>
        <time>2021-08-12T09:12:01.447Z</time>
      </trkpt>
      <trkpt lat="46.86309" lon="8.4827">
        <ele>2336</ele>
        <time>2021-08-12T09:12:02.446Z</time>
      </trkpt>
      <trkpt lat="46.86309" lon="8.48271">
        <ele>2337</ele>
        <time>2021-08-12T09:12:03.447Z</time>
      </trkpt>
      <trkpt lat="46.8631" lon="8.48271">
        <ele>2337</ele>
        <time>2021-08-12T09:12:04.447Z</time>
      </trkpt>
      <trkpt lat="46.8631" lon="8.48272">
        <ele>2338</ele>
        <time>2021-08-12T09:12:05.446Z</time>
      </trkpt>
      <trkpt lat="46.8631" lon="8.48273">
        <ele>2338</ele>
        <time>2021-08-12T09:12:06.447Z</time>
      </trkpt>
      <trkpt lat="46.8631" lon="8.48274">
        <ele>2339</ele>
        <time>2021-08-12T09:12:07.447Z</time>
      </trkpt>
      <trkpt lat="46.8631" lon="8.48274">
        <ele>2339</ele>
        <time>2021-08-12T09:12:08.447Z</time>
      </trkpt>
      <trkpt lat="46.8631" lon="8.48275">
        <ele>2338</ele>
        <time>2021-08-12T09:12:09.447Z</time>
      </trkpt>
      <trkpt lat="46.8631" lon="8.48276">
        <ele>2338</ele>
        <time>2021-08-12T09:12:10.447Z</time>
      </trkpt>
      <trkpt lat="46.8631" lon="8.48277">
        <ele>2338</ele>
        <time>2021-08-12T09:12:11.447Z</time>
      </trkpt>
      <trkpt lat="46.8631" lon="8.48277">
        <ele>2338</ele>
        <time>2021-08-12T09:12:12.447Z</time>
      </trkpt>
      <trkpt lat="46.86309" lon="8.48278">
        <ele>2338</ele>
        <time>2021-08-12T09:12:13.447Z</time>
      </trkpt>
      <trkpt lat="46.8631" lon="8.48278">
        <ele>2338</ele>
        <time>2021-08-12T09:12:14.446Z</time>
      </trkpt>
      <trkpt lat="46.86308" lon="8.4828">
        <ele>2338</ele>
        <time>2021-08-12T09:12:15.447Z</time>
      </trkpt>
      <trkpt lat="46.86307" lon="8.4828">
        <ele>2339</ele>
        <time>2021-08-12T09:12:16.446Z</time>
      </trkpt>
      <trkpt lat="46.86308" lon="8.4828">
        <ele>2339</ele>
        <time>2021-08-12T09:12:17.447Z</time>
      </trkpt>
      <trkpt lat="46.86308" lon="8.48281">
        <ele>2339</ele>
        <time>2021-08-12T09:12:18.446Z</time>
      </trkpt>
      <trkpt lat="46.86308" lon="8.48282">
        <ele>2340</ele>
        <time>2021-08-12T09:12:19.446Z</time>
      </trkpt>
      <trkpt lat="46.86308" lon="8.48283">
        <ele>2340</ele>
        <time>2021-08-12T09:12:20.446Z</time>
      </trkpt>
      <trkpt lat="46.86308" lon="8.48284">
        <ele>2340</ele>
        <time>2021-08-12T09:12:21.446Z</time>
      </trkpt>
      <trkpt lat="46.86308" lon="8.48285">
        <ele>2340</ele>
        <time>2021-08-12T09:12:22.447Z</time>
      </trkpt>
      <trkpt lat="46.86308" lon="8.48286">
        <ele>2340</ele>
        <time>2021-08-12T09:12:23.446Z</time>
      </trkpt>
      <trkpt lat="46.86307" lon="8.48287">
        <ele>2341</ele>
        <time>2021-08-12T09:12:24.447Z</time>
      </trkpt>
      <trkpt lat="46.86307" lon="8.48287">
        <ele>2341</ele>
        <time>2021-08-12T09:12:25.447Z</time>
      </trkpt>
      <trkpt lat="46.86308" lon="8.48288">
        <ele>2341</ele>
        <time>2021-08-12T09:12:26.447Z</time>
      </trkpt>
      <trkpt lat="46.86307" lon="8.48288">
        <ele>2341</ele>
        <time>2021-08-12T09:12:27.447Z</time>
      </trkpt>
      <trkpt lat="46.86307" lon="8.48289">
        <ele>2341</ele>
        <time>2021-08-12T09:12:28.446Z</time>
      </trkpt>
      <trkpt lat="46.86306" lon="8.4829">
        <ele>2341</ele>
        <time>2021-08-12T09:12:29.446Z</time>
      </trkpt>
      <trkpt lat="46.86305" lon="8.48292">
        <ele>2340</ele>
        <time>2021-08-12T09:12:30.447Z</time>
      </trkpt>
      <trkpt lat="46.86306" lon="8.48292">
        <ele>2340</ele>
        <time>2021-08-12T09:12:31.446Z</time>
      </trkpt>
      <trkpt lat="46.86305" lon="8.48293">
        <ele>2340</ele>
        <time>2021-08-12T09:12:32.446Z</time>
      </trkpt>
      <trkpt lat="46.86304" lon="8.48294">
        <ele>2339</ele>
        <time>2021-08-12T09:12:33.446Z</time>
      </trkpt>
      <trkpt lat="46.86304" lon="8.48294">
        <ele>2339</ele>
        <time>2021-08-12T09:12:34.446Z</time>
      </trkpt>
      <trkpt lat="46.86304" lon="8.48295">
        <ele>2339</ele>
        <time>2021-08-12T09:12:35.446Z</time>
      </trkpt>
      <trkpt lat="46.86303" lon="8.48295">
        <ele>2338</ele>
        <time>2021-08-12T09:12:36.446Z</time>
      </trkpt>
      <trkpt lat="46.86303" lon="8.48296">
        <ele>2338</ele>
        <time>2021-08-12T09:12:37.446Z</time>
      </trkpt>
      <trkpt lat="46.86303" lon="8.48297">
        <ele>2338</ele>
        <time>2021-08-12T09:12:38.446Z</time>
      </trkpt>
      <trkpt lat="46.86302" lon="8.48297">
        <ele>2338</ele>
        <time>2021-08-12T09:12:39.447Z</time>
      </trkpt>
      <trkpt lat="46.86302" lon="8.48298">
        <ele>2338</ele>
        <time>2021-08-12T09:12:40.446Z</time>
      </trkpt>
      <trkpt lat="46.86302" lon="8.48298">
        <ele>2338</ele>
        <time>2021-08-12T09:12:41.446Z</time>
      </trkpt>
      <trkpt lat="46.863" lon="8.48299">
        <ele>2338</ele>
        <time>2021-08-12T09:12:42.447Z</time>
      </trkpt>
      <trkpt lat="46.863" lon="8.48298">
        <ele>2338</ele>
        <time>2021-08-12T09:12:43.446Z</time>
      </trkpt>
      <trkpt lat="46.86299" lon="8.48299">
        <ele>2338</ele>
        <time>2021-08-12T09:12:44.446Z</time>
      </trkpt>
      <trkpt lat="46.863" lon="8.483">
        <ele>2338</ele>
        <time>2021-08-12T09:12:45.447Z</time>
      </trkpt>
      <trkpt lat="46.863" lon="8.48301">
        <ele>2338</ele>
        <time>2021-08-12T09:12:46.446Z</time>
      </trkpt>
      <trkpt lat="46.863" lon="8.48302">
        <ele>2338</ele>
        <time>2021-08-12T09:12:47.446Z</time>
      </trkpt>
      <trkpt lat="46.863" lon="8.48302">
        <ele>2338</ele>
        <time>2021-08-12T09:12:48.447Z</time>
      </trkpt>
      <trkpt lat="46.863" lon="8.48303">
        <ele>2338</ele>
        <time>2021-08-12T09:12:49.446Z</time>
      </trkpt>
      <trkpt lat="46.863" lon="8.48303">
        <ele>2339</ele>
        <time>2021-08-12T09:12:50.446Z</time>
      </trkpt>
      <trkpt lat="46.86301" lon="8.48304">
        <ele>2339</ele>
        <time>2021-08-12T09:12:51.446Z</time>
      </trkpt>
      <trkpt lat="46.863" lon="8.48304">
        <ele>2340</ele>
        <time>2021-08-12T09:12:52.446Z</time>
      </trkpt>
      <trkpt lat="46.863" lon="8.48305">
        <ele>2340</ele>
        <time>2021-08-12T09:12:53.446Z</time>
      </trkpt>
      <trkpt lat="46.86299" lon="8.48306">
        <ele>2340</ele>
        <time>2021-08-12T09:12:54.446Z</time>
      </trkpt>
      <trkpt lat="46.86299" lon="8.48307">
        <ele>2340</ele>
        <time>2021-08-12T09:12:55.446Z</time>
      </trkpt>
      <trkpt lat="46.86299" lon="8.48308">
        <ele>2340</ele>
        <time>2021-08-12T09:12:56.446Z</time>
      </trkpt>
      <trkpt lat="46.86299" lon="8.48309">
        <ele>2341</ele>
        <time>2021-08-12T09:12:57.446Z</time>
      </trkpt>
      <trkpt lat="46.86298" lon="8.4831">
        <ele>2341</ele>
        <time>2021-08-12T09:12:58.447Z</time>
      </trkpt>
      <trkpt lat="46.86297" lon="8.48311">
        <ele>2341</ele>
        <time>2021-08-12T09:12:59.446Z</time>
      </trkpt>
      <trkpt lat="46.86297" lon="8.48311">
        <ele>2342</ele>
        <time>2021-08-12T09:13:00.446Z</time>
      </trkpt>
      <trkpt lat="46.86297" lon="8.48312">
        <ele>2342</ele>
        <time>2021-08-12T09:13:01.446Z</time>
      </trkpt>
      <trkpt lat="46.86298" lon="8.48312">
        <ele>2342</ele>
        <time>2021-08-12T09:13:02.447Z</time>
      </trkpt>
      <trkpt lat="46.86298" lon="8.48313">
        <ele>2342</ele>
        <time>2021-08-12T09:13:03.447Z</time>
      </trkpt>
      <trkpt lat="46.86297" lon="8.48313">
        <ele>2342</ele>
        <time>2021-08-12T09:13:04.447Z</time>
      </trkpt>
      <trkpt lat="46.86297" lon="8.48313">
        <ele>2342</ele>
        <time>2021-08-12T09:13:05.446Z</time>
      </trkpt>
      <trkpt lat="46.86296" lon="8.48313">
        <ele>2342</ele>
        <time>2021-08-12T09:13:06.446Z</time>
      </trkpt>
      <trkpt lat="46.86296" lon="8.48313">
        <ele>2342</ele>
        <time>2021-08-12T09:13:07.446Z</time>
      </trkpt>
      <trkpt lat="46.86296" lon="8.48313">
        <ele>2342</ele>
        <time>2021-08-12T09:13:08.447Z</time>
      </trkpt>
      <trkpt lat="46.86297" lon="8.48314">
        <ele>2343</ele>
        <time>2021-08-12T09:13:09.446Z</time>
      </trkpt>
      <trkpt lat="46.86296" lon="8.48314">
        <ele>2342</ele>
        <time>2021-08-12T09:13:10.446Z</time>
      </trkpt>
      <trkpt lat="46.86296" lon="8.48313">
        <ele>2342</ele>
        <time>2021-08-12T09:13:11.446Z</time>
      </trkpt>
      <trkpt lat="46.86295" lon="8.48314">
        <ele>2343</ele>
        <time>2021-08-12T09:13:12.447Z</time>
      </trkpt>
      <trkpt lat="46.86294" lon="8.48315">
        <ele>2343</ele>
        <time>2021-08-12T09:13:13.447Z</time>
      </trkpt>
      <trkpt lat="46.86295" lon="8.48316">
        <ele>2343</ele>
        <time>2021-08-12T09:13:14.446Z</time>
      </trkpt>
      <trkpt lat="46.86295" lon="8.48316">
        <ele>2344</ele>
        <time>2021-08-12T09:13:15.447Z</time>
      </trkpt>
      <trkpt lat="46.86296" lon="8.48316">
        <ele>2344</ele>
        <time>2021-08-12T09:13:16.446Z</time>
      </trkpt>
      <trkpt lat="46.86296" lon="8.48316">
        <ele>2345</ele>
        <time>2021-08-12T09:13:17.446Z</time>
      </trkpt>
      <trkpt lat="46.86297" lon="8.48317">
        <ele>2348</ele>
        <time>2021-08-12T09:13:18.448Z</time>
      </trkpt>
      <trkpt lat="46.86298" lon="8.48318">
        <ele>2349</ele>
        <time>2021-08-12T09:13:19.448Z</time>
      </trkpt>
      <trkpt lat="46.86298" lon="8.48318">
        <ele>2349</ele>
        <time>2021-08-12T09:13:20.448Z</time>
      </trkpt>
      <trkpt lat="46.86299" lon="8.48318">
        <ele>2350</ele>
        <time>2021-08-12T09:13:21.448Z</time>
      </trkpt>
      <trkpt lat="46.86299" lon="8.48318">
        <ele>2350</ele>
        <time>2021-08-12T09:13:22.447Z</time>
      </trkpt>
      <trkpt lat="46.863" lon="8.48319">
        <ele>2351</ele>
        <time>2021-08-12T09:13:23.448Z</time>
      </trkpt>
      <trkpt lat="46.863" lon="8.48319">
        <ele>2352</ele>
        <time>2021-08-12T09:13:24.448Z</time>
      </trkpt>
      <trkpt lat="46.86299" lon="8.4832">
        <ele>2352</ele>
        <time>2021-08-12T09:13:25.447Z</time>
      </trkpt>
      <trkpt lat="46.86299" lon="8.4832">
        <ele>2352</ele>
        <time>2021-08-12T09:13:26.448Z</time>
      </trkpt>
      <trkpt lat="46.86299" lon="8.48321">
        <ele>2352</ele>
        <time>2021-08-12T09:13:27.448Z</time>
      </trkpt>
      <trkpt lat="46.86298" lon="8.48322">
        <ele>2353</ele>
        <time>2021-08-12T09:13:28.448Z</time>
      </trkpt>
      <trkpt lat="46.86297" lon="8.48323">
        <ele>2353</ele>
        <time>2021-08-12T09:13:29.448Z</time>
      </trkpt>
      <trkpt lat="46.86297" lon="8.48324">
        <ele>2353</ele>
        <time>2021-08-12T09:13:30.448Z</time>
      </trkpt>
      <trkpt lat="46.86297" lon="8.48325">
        <ele>2353</ele>
        <time>2021-08-12T09:13:31.448Z</time>
      </trkpt>
      <trkpt lat="46.86297" lon="8.48326">
        <ele>2353</ele>
        <time>2021-08-12T09:13:32.448Z</time>
      </trkpt>
      <trkpt lat="46.86298" lon="8.48327">
        <ele>2353</ele>
        <time>2021-08-12T09:13:33.447Z</time>
      </trkpt>
      <trkpt lat="46.863" lon="8.48327">
        <ele>2353</ele>
        <time>2021-08-12T09:13:34.448Z</time>
      </trkpt>
      <trkpt lat="46.863" lon="8.48328">
        <ele>2353</ele>
        <time>2021-08-12T09:13:35.448Z</time>
      </trkpt>
      <trkpt lat="46.86301" lon="8.48328">
        <ele>2352</ele>
        <time>2021-08-12T09:13:36.448Z</time>
      </trkpt>
      <trkpt lat="46.86301" lon="8.48328">
        <ele>2352</ele>
        <time>2021-08-12T09:13:37.448Z</time>
      </trkpt>
      <trkpt lat="46.86302" lon="8.48329">
        <ele>2352</ele>
        <time>2021-08-12T09:13:38.448Z</time>
      </trkpt>
      <trkpt lat="46.86303" lon="8.48329">
        <ele>2352</ele>
        <time>2021-08-12T09:13:39.448Z</time>
      </trkpt>
      <trkpt lat="46.86303" lon="8.48329">
        <ele>2352</ele>
        <time>2021-08-12T09:13:40.447Z</time>
      </trkpt>
      <trkpt lat="46.86304" lon="8.48329">
        <ele>2352</ele>
        <time>2021-08-12T09:13:41.448Z</time>
      </trkpt>
      <trkpt lat="46.86304" lon="8.48329">
        <ele>2353</ele>
        <time>2021-08-12T09:13:42.448Z</time>
      </trkpt>
      <trkpt lat="46.86303" lon="8.48331">
        <ele>2353</ele>
        <time>2021-08-12T09:13:43.448Z</time>
      </trkpt>
      <trkpt lat="46.86302" lon="8.48333">
        <ele>2353</ele>
        <time>2021-08-12T09:13:44.447Z</time>
      </trkpt>
      <trkpt lat="46.86302" lon="8.48335">
        <ele>2354</ele>
        <time>2021-08-12T09:13:45.448Z</time>
      </trkpt>
      <trkpt lat="46.86301" lon="8.48336">
        <ele>2354</ele>
        <time>2021-08-12T09:13:46.447Z</time>
      </trkpt>
      <trkpt lat="46.86301" lon="8.48336">
        <ele>2354</ele>
        <time>2021-08-12T09:13:47.448Z</time>
      </trkpt>
      <trkpt lat="46.863" lon="8.48337">
        <ele>2354</ele>
        <time>2021-08-12T09:13:48.447Z</time>
      </trkpt>
      <trkpt lat="46.863" lon="8.48337">
        <ele>2354</ele>
        <time>2021-08-12T09:13:49.448Z</time>
      </trkpt>
      <trkpt lat="46.863" lon="8.48338">
        <ele>2353</ele>
        <time>2021-08-12T09:13:50.448Z</time>
      </trkpt>
      <trkpt lat="46.863" lon="8.48339">
        <ele>2353</ele>
        <time>2021-08-12T09:13:51.447Z</time>
      </trkpt>
      <trkpt lat="46.863" lon="8.4834">
        <ele>2352</ele>
        <time>2021-08-12T09:13:52.447Z</time>
      </trkpt>
      <trkpt lat="46.86299" lon="8.48341">
        <ele>2352</ele>
        <time>2021-08-12T09:13:53.447Z</time>
      </trkpt>
      <trkpt lat="46.86299" lon="8.48341">
        <ele>2353</ele>
        <time>2021-08-12T09:13:54.447Z</time>
      </trkpt>
      <trkpt lat="46.86298" lon="8.48341">
        <ele>2353</ele>
        <time>2021-08-12T09:13:55.448Z</time>
      </trkpt>
      <trkpt lat="46.86297" lon="8.48341">
        <ele>2354</ele>
        <time>2021-08-12T09:13:56.447Z</time>
      </trkpt>
      <trkpt lat="46.86298" lon="8.48343">
        <ele>2354</ele>
        <time>2021-08-12T09:13:57.447Z</time>
      </trkpt>
      <trkpt lat="46.86297" lon="8.48344">
        <ele>2354</ele>
        <time>2021-08-12T09:13:58.448Z</time>
      </trkpt>
      <trkpt lat="46.86297" lon="8.48345">
        <ele>2354</ele>
        <time>2021-08-12T09:13:59.448Z</time>
      </trkpt>
      <trkpt lat="46.86298" lon="8.48344">
        <ele>2354</ele>
        <time>2021-08-12T09:14:00.448Z</time>
      </trkpt>
      <trkpt lat="46.86297" lon="8.48344">
        <ele>2354</ele>
        <time>2021-08-12T09:14:01.448Z</time>
      </trkpt>
      <trkpt lat="46.86296" lon="8.48345">
        <ele>2355</ele>
        <time>2021-08-12T09:14:02.447Z</time>
      </trkpt>
      <trkpt lat="46.86296" lon="8.48346">
        <ele>2355</ele>
        <time>2021-08-12T09:14:03.448Z</time>
      </trkpt>
      <trkpt lat="46.86296" lon="8.48347">
        <ele>2355</ele>
        <time>2021-08-12T09:14:04.447Z</time>
      </trkpt>
      <trkpt lat="46.86295" lon="8.48348">
        <ele>2355</ele>
        <time>2021-08-12T09:14:05.448Z</time>
      </trkpt>
      <trkpt lat="46.86294" lon="8.4835">
        <ele>2354</ele>
        <time>2021-08-12T09:14:06.448Z</time>
      </trkpt>
      <trkpt lat="46.86293" lon="8.48352">
        <ele>2355</ele>
        <time>2021-08-12T09:14:07.447Z</time>
      </trkpt>
      <trkpt lat="46.86293" lon="8.48353">
        <ele>2355</ele>
        <time>2021-08-12T09:14:08.447Z</time>
      </trkpt>
      <trkpt lat="46.86293" lon="8.48353">
        <ele>2355</ele>
        <time>2021-08-12T09:14:09.448Z</time>
      </trkpt>
      <trkpt lat="46.86293" lon="8.48354">
        <ele>2354</ele>
        <time>2021-08-12T09:14:10.447Z</time>
      </trkpt>
      <trkpt lat="46.86293" lon="8.48354">
        <ele>2354</ele>
        <time>2021-08-12T09:14:11.448Z</time>
      </trkpt>
      <trkpt lat="46.86293" lon="8.48354">
        <ele>2354</ele>
        <time>2021-08-12T09:14:12.448Z</time>
      </trkpt>
      <trkpt lat="46.86294" lon="8.48355">
        <ele>2355</ele>
        <time>2021-08-12T09:14:13.447Z</time>
      </trkpt>
      <trkpt lat="46.86293" lon="8.48356">
        <ele>2355</ele>
        <time>2021-08-12T09:14:14.447Z</time>
      </trkpt>
      <trkpt lat="46.86293" lon="8.48356">
        <ele>2354</ele>
        <time>2021-08-12T09:14:15.448Z</time>
      </trkpt>
      <trkpt lat="46.86292" lon="8.48357">
        <ele>2355</ele>
        <time>2021-08-12T09:14:16.448Z</time>
      </trkpt>
      <trkpt lat="46.86291" lon="8.48357">
        <ele>2356</ele>
        <time>2021-08-12T09:14:17.448Z</time>
      </trkpt>
      <trkpt lat="46.86291" lon="8.48358">
        <ele>2358</ele>
        <time>2021-08-12T09:14:18.447Z</time>
      </trkpt>
      <trkpt lat="46.8629" lon="8.48359">
        <ele>2359</ele>
        <time>2021-08-12T09:14:19.448Z</time>
      </trkpt>
      <trkpt lat="46.86289" lon="8.4836">
        <ele>2360</ele>
        <time>2021-08-12T09:14:20.448Z</time>
      </trkpt>
      <trkpt lat="46.86289" lon="8.48361">
        <ele>2360</ele>
        <time>2021-08-12T09:14:21.448Z</time>
      </trkpt>
      <trkpt lat="46.86288" lon="8.48362">
        <ele>2360</ele>
        <time>2021-08-12T09:14:22.448Z</time>
      </trkpt>
      <trkpt lat="46.86288" lon="8.48363">
        <ele>2360</ele>
        <time>2021-08-12T09:14:23.448Z</time>
      </trkpt>
      <trkpt lat="46.86287" lon="8.48364">
        <ele>2360</ele>
        <time>2021-08-12T09:14:24.448Z</time>
      </trkpt>
      <trkpt lat="46.86287" lon="8.48364">
        <ele>2359</ele>
        <time>2021-08-12T09:14:25.448Z</time>
      </trkpt>
      <trkpt lat="46.86287" lon="8.48365">
        <ele>2359</ele>
        <time>2021-08-12T09:14:26.448Z</time>
      </trkpt>
      <trkpt lat="46.86285" lon="8.48367">
        <ele>2351</ele>
        <time>2021-08-12T09:14:27.447Z</time>
      </trkpt>
      <trkpt lat="46.86284" lon="8.48366">
        <ele>2351</ele>
        <time>2021-08-12T09:14:28.447Z</time>
      </trkpt>
      <trkpt lat="46.86284" lon="8.48366">
        <ele>2351</ele>
        <time>2021-08-12T09:14:29.447Z</time>
      </trkpt>
      <trkpt lat="46.86284" lon="8.48366">
        <ele>2348</ele>
        <time>2021-08-12T09:14:30.448Z</time>
      </trkpt>
      <trkpt lat="46.86283" lon="8.48367">
        <ele>2348</ele>
        <time>2021-08-12T09:14:31.448Z</time>
      </trkpt>
      <trkpt lat="46.86283" lon="8.48368">
        <ele>2348</ele>
        <time>2021-08-12T09:14:32.447Z</time>
      </trkpt>
      <trkpt lat="46.86282" lon="8.48367">
        <ele>2352</ele>
        <time>2021-08-12T09:14:33.448Z</time>
      </trkpt>
      <trkpt lat="46.86282" lon="8.48368">
        <ele>2352</ele>
        <time>2021-08-12T09:14:34.448Z</time>
      </trkpt>
      <trkpt lat="46.86284" lon="8.48364">
        <ele>2349</ele>
        <time>2021-08-12T09:14:35.449Z</time>
      </trkpt>
      <trkpt lat="46.86284" lon="8.48364">
        <ele>2349</ele>
        <time>2021-08-12T09:14:36.449Z</time>
      </trkpt>
      <trkpt lat="46.86284" lon="8.48363">
        <ele>2349</ele>
        <time>2021-08-12T09:14:37.448Z</time>
      </trkpt>
      <trkpt lat="46.86287" lon="8.48365">
        <ele>2359</ele>
        <time>2021-08-12T09:14:38.449Z</time>
      </trkpt>
      <trkpt lat="46.86287" lon="8.48364">
        <ele>2359</ele>
        <time>2021-08-12T09:14:39.449Z</time>
      </trkpt>
      <trkpt lat="46.86287" lon="8.48364">
        <ele>2360</ele>
        <time>2021-08-12T09:14:40.449Z</time>
      </trkpt>
      <trkpt lat="46.86285" lon="8.48366">
        <ele>2357</ele>
        <time>2021-08-12T09:14:41.450Z</time>
      </trkpt>
      <trkpt lat="46.86285" lon="8.48367">
        <ele>2356</ele>
        <time>2021-08-12T09:14:42.450Z</time>
      </trkpt>
      <trkpt lat="46.86285" lon="8.48369">
        <ele>2351</ele>
        <time>2021-08-12T09:14:43.450Z</time>
      </trkpt>
      <trkpt lat="46.86285" lon="8.48369">
        <ele>2351</ele>
        <time>2021-08-12T09:14:44.451Z</time>
      </trkpt>
      <trkpt lat="46.86286" lon="8.48369">
        <ele>2350</ele>
        <time>2021-08-12T09:14:45.451Z</time>
      </trkpt>
      <trkpt lat="46.86285" lon="8.4837">
        <ele>2350</ele>
        <time>2021-08-12T09:14:46.451Z</time>
      </trkpt>
      <trkpt lat="46.86285" lon="8.48371">
        <ele>2350</ele>
        <time>2021-08-12T09:14:47.452Z</time>
      </trkpt>
      <trkpt lat="46.86285" lon="8.48369">
        <ele>2357</ele>
        <time>2021-08-12T09:14:48.453Z</time>
      </trkpt>
      <trkpt lat="46.86285" lon="8.48368">
        <ele>2358</ele>
        <time>2021-08-12T09:14:49.453Z</time>
      </trkpt>
      <trkpt lat="46.86285" lon="8.48367">
        <ele>2359</ele>
        <time>2021-08-12T09:14:50.452Z</time>
      </trkpt>
      <trkpt lat="46.86285" lon="8.48366">
        <ele>2359</ele>
        <time>2021-08-12T09:14:51.452Z</time>
      </trkpt>
      <trkpt lat="46.86286" lon="8.48366">
        <ele>2360</ele>
        <time>2021-08-12T09:14:52.453Z</time>
      </trkpt>
      <trkpt lat="46.86288" lon="8.48363">
        <ele>2361</ele>
        <time>2021-08-12T09:14:53.453Z</time>
      </trkpt>
      <trkpt lat="46.86289" lon="8.48364">
        <ele>2361</ele>
        <time>2021-08-12T09:14:54.453Z</time>
      </trkpt>
      <trkpt lat="46.86289" lon="8.48365">
        <ele>2361</ele>
        <time>2021-08-12T09:14:55.452Z</time>
      </trkpt>
      <trkpt lat="46.86289" lon="8.48365">
        <ele>2361</ele>
        <time>2021-08-12T09:14:56.453Z</time>
      </trkpt>
      <trkpt lat="46.86286" lon="8.48369">
        <ele>2356</ele>
        <time>2021-08-12T09:14:57.452Z</time>
      </trkpt>
      <trkpt lat="46.86286" lon="8.48369">
        <ele>2355</ele>
        <time>2021-08-12T09:14:58.452Z</time>
      </trkpt>
      <trkpt lat="46.86286" lon="8.48368">
        <ele>2355</ele>
        <time>2021-08-12T09:14:59.453Z</time>
      </trkpt>
      <trkpt lat="46.86285" lon="8.4837">
        <ele>2356</ele>
        <time>2021-08-12T09:15:00.455Z</time>
      </trkpt>
      <trkpt lat="46.86285" lon="8.4837">
        <ele>2356</ele>
        <time>2021-08-12T09:15:01.455Z</time>
      </trkpt>
      <trkpt lat="46.86284" lon="8.48371">
        <ele>2357</ele>
        <time>2021-08-12T09:15:02.454Z</time>
      </trkpt>
      <trkpt lat="46.86283" lon="8.48372">
        <ele>2357</ele>
        <time>2021-08-12T09:15:03.455Z</time>
      </trkpt>
      <trkpt lat="46.86283" lon="8.48373">
        <ele>2357</ele>
        <time>2021-08-12T09:15:04.454Z</time>
      </trkpt>
      <trkpt lat="46.86282" lon="8.48373">
        <ele>2358</ele>
        <time>2021-08-12T09:15:05.455Z</time>
      </trkpt>
      <trkpt lat="46.86282" lon="8.48373">
        <ele>2359</ele>
        <time>2021-08-12T09:15:06.454Z</time>
      </trkpt>
      <trkpt lat="46.86281" lon="8.48374">
        <ele>2359</ele>
        <time>2021-08-12T09:15:07.455Z</time>
      </trkpt>
      <trkpt lat="46.86281" lon="8.48374">
        <ele>2360</ele>
        <time>2021-08-12T09:15:08.455Z</time>
      </trkpt>
      <trkpt lat="46.8628" lon="8.48375">
        <ele>2360</ele>
        <time>2021-08-12T09:15:09.455Z</time>
      </trkpt>
      <trkpt lat="46.8628" lon="8.48375">
        <ele>2361</ele>
        <time>2021-08-12T09:15:10.455Z</time>
      </trkpt>
      <trkpt lat="46.86279" lon="8.48376">
        <ele>2360</ele>
        <time>2021-08-12T09:15:11.455Z</time>
      </trkpt>
      <trkpt lat="46.86279" lon="8.48376">
        <ele>2360</ele>
        <time>2021-08-12T09:15:12.455Z</time>
      </trkpt>
      <trkpt lat="46.86278" lon="8.48376">
        <ele>2360</ele>
        <time>2021-08-12T09:15:13.454Z</time>
      </trkpt>
      <trkpt lat="46.86277" lon="8.48377">
        <ele>2360</ele>
        <time>2021-08-12T09:15:14.455Z</time>
      </trkpt>
      <trkpt lat="46.86277" lon="8.48377">
        <ele>2360</ele>
        <time>2021-08-12T09:15:15.455Z</time>
      </trkpt>
      <trkpt lat="46.86276" lon="8.48377">
        <ele>2360</ele>
        <time>2021-08-12T09:15:16.455Z</time>
      </trkpt>
      <trkpt lat="46.86276" lon="8.48377">
        <ele>2360</ele>
        <time>2021-08-12T09:15:17.454Z</time>
      </trkpt>
      <trkpt lat="46.86275" lon="8.48377">
        <ele>2360</ele>
        <time>2021-08-12T09:15:18.455Z</time>
      </trkpt>
      <trkpt lat="46.86274" lon="8.48377">
        <ele>2360</ele>
        <time>2021-08-12T09:15:19.455Z</time>
      </trkpt>
      <trkpt lat="46.86274" lon="8.48377">
        <ele>2360</ele>
        <time>2021-08-12T09:15:20.455Z</time>
      </trkpt>
      <trkpt lat="46.86273" lon="8.48377">
        <ele>2361</ele>
        <time>2021-08-12T09:15:21.454Z</time>
      </trkpt>
      <trkpt lat="46.86273" lon="8.48377">
        <ele>2361</ele>
        <time>2021-08-12T09:15:22.455Z</time>
      </trkpt>
      <trkpt lat="46.86272" lon="8.48377">
        <ele>2361</ele>
        <time>2021-08-12T09:15:23.454Z</time>
      </trkpt>
      <trkpt lat="46.86271" lon="8.48378">
        <ele>2361</ele>
        <time>2021-08-12T09:15:24.455Z</time>
      </trkpt>
      <trkpt lat="46.86271" lon="8.48378">
        <ele>2361</ele>
        <time>2021-08-12T09:15:25.454Z</time>
      </trkpt>
      <trkpt lat="46.8627" lon="8.48379">
        <ele>2360</ele>
        <time>2021-08-12T09:15:26.455Z</time>
      </trkpt>
      <trkpt lat="46.86269" lon="8.4838">
        <ele>2360</ele>
        <time>2021-08-12T09:15:27.454Z</time>
      </trkpt>
      <trkpt lat="46.86269" lon="8.48381">
        <ele>2360</ele>
        <time>2021-08-12T09:15:28.454Z</time>
      </trkpt>
      <trkpt lat="46.86268" lon="8.48382">
        <ele>2359</ele>
        <time>2021-08-12T09:15:29.455Z</time>
      </trkpt>
      <trkpt lat="46.86268" lon="8.48382">
        <ele>2359</ele>
        <time>2021-08-12T09:15:30.455Z</time>
      </trkpt>
      <trkpt lat="46.86267" lon="8.48383">
        <ele>2359</ele>
        <time>2021-08-12T09:15:31.455Z</time>
      </trkpt>
      <trkpt lat="46.86267" lon="8.48383">
        <ele>2359</ele>
        <time>2021-08-12T09:15:32.455Z</time>
      </trkpt>
      <trkpt lat="46.86266" lon="8.48384">
        <ele>2359</ele>
        <time>2021-08-12T09:15:33.454Z</time>
      </trkpt>
      <trkpt lat="46.86265" lon="8.48384">
        <ele>2359</ele>
        <time>2021-08-12T09:15:34.455Z</time>
      </trkpt>
      <trkpt lat="46.86265" lon="8.48385">
        <ele>2360</ele>
        <time>2021-08-12T09:15:35.455Z</time>
      </trkpt>
      <trkpt lat="46.86264" lon="8.48385">
        <ele>2360</ele>
        <time>2021-08-12T09:15:36.455Z</time>
      </trkpt>
      <trkpt lat="46.86264" lon="8.48386">
        <ele>2361</ele>
        <time>2021-08-12T09:15:37.455Z</time>
      </trkpt>
      <trkpt lat="46.86263" lon="8.48387">
        <ele>2361</ele>
        <time>2021-08-12T09:15:38.454Z</time>
      </trkpt>
      <trkpt lat="46.86263" lon="8.48387">
        <ele>2361</ele>
        <time>2021-08-12T09:15:39.455Z</time>
      </trkpt>
      <trkpt lat="46.86262" lon="8.48388">
        <ele>2362</ele>
        <time>2021-08-12T09:15:40.454Z</time>
      </trkpt>
      <trkpt lat="46.86261" lon="8.48388">
        <ele>2362</ele>
        <time>2021-08-12T09:15:41.455Z</time>
      </trkpt>
      <trkpt lat="46.86261" lon="8.48389">
        <ele>2363</ele>
        <time>2021-08-12T09:15:42.455Z</time>
      </trkpt>
      <trkpt lat="46.8626" lon="8.48389">
        <ele>2363</ele>
        <time>2021-08-12T09:15:43.455Z</time>
      </trkpt>
      <trkpt lat="46.8626" lon="8.48389">
        <ele>2363</ele>
        <time>2021-08-12T09:15:44.454Z</time>
      </trkpt>
      <trkpt lat="46.86259" lon="8.48389">
        <ele>2363</ele>
        <time>2021-08-12T09:15:45.455Z</time>
      </trkpt>
      <trkpt lat="46.86259" lon="8.4839">
        <ele>2363</ele>
        <time>2021-08-12T09:15:46.455Z</time>
      </trkpt>
      <trkpt lat="46.86258" lon="8.48391">
        <ele>2363</ele>
        <time>2021-08-12T09:15:47.455Z</time>
      </trkpt>
      <trkpt lat="46.86257" lon="8.48391">
        <ele>2364</ele>
        <time>2021-08-12T09:15:48.454Z</time>
      </trkpt>
      <trkpt lat="46.86257" lon="8.48392">
        <ele>2364</ele>
        <time>2021-08-12T09:15:49.455Z</time>
      </trkpt>
      <trkpt lat="46.86256" lon="8.48393">
        <ele>2364</ele>
        <time>2021-08-12T09:15:50.455Z</time>
      </trkpt>
      <trkpt lat="46.86256" lon="8.48393">
        <ele>2364</ele>
        <time>2021-08-12T09:15:51.454Z</time>
      </trkpt>
      <trkpt lat="46.86255" lon="8.48394">
        <ele>2364</ele>
        <time>2021-08-12T09:15:52.455Z</time>
      </trkpt>
      <trkpt lat="46.86254" lon="8.48395">
        <ele>2365</ele>
        <time>2021-08-12T09:15:53.454Z</time>
      </trkpt>
      <trkpt lat="46.86254" lon="8.48395">
        <ele>2365</ele>
        <time>2021-08-12T09:15:54.455Z</time>
      </trkpt>
      <trkpt lat="46.86253" lon="8.48396">
        <ele>2366</ele>
        <time>2021-08-12T09:15:55.455Z</time>
      </trkpt>
      <trkpt lat="46.86253" lon="8.48396">
        <ele>2366</ele>
        <time>2021-08-12T09:15:56.454Z</time>
      </trkpt>
      <trkpt lat="46.86252" lon="8.48397">
        <ele>2366</ele>
        <time>2021-08-12T09:15:57.455Z</time>
      </trkpt>
      <trkpt lat="46.86251" lon="8.48397">
        <ele>2367</ele>
        <time>2021-08-12T09:15:58.454Z</time>
      </trkpt>
      <trkpt lat="46.86251" lon="8.48397">
        <ele>2367</ele>
        <time>2021-08-12T09:15:59.455Z</time>
      </trkpt>
      <trkpt lat="46.8625" lon="8.48397">
        <ele>2367</ele>
        <time>2021-08-12T09:16:00.455Z</time>
      </trkpt>
      <trkpt lat="46.8625" lon="8.48397">
        <ele>2367</ele>
        <time>2021-08-12T09:16:01.455Z</time>
      </trkpt>
      <trkpt lat="46.86249" lon="8.48398">
        <ele>2367</ele>
        <time>2021-08-12T09:16:02.455Z</time>
      </trkpt>
      <trkpt lat="46.86249" lon="8.48398">
        <ele>2366</ele>
        <time>2021-08-12T09:16:03.455Z</time>
      </trkpt>
      <trkpt lat="46.86249" lon="8.48398">
        <ele>2366</ele>
        <time>2021-08-12T09:16:04.454Z</time>
      </trkpt>
      <trkpt lat="46.86248" lon="8.48399">
        <ele>2365</ele>
        <time>2021-08-12T09:16:05.455Z</time>
      </trkpt>
      <trkpt lat="46.86248" lon="8.48398">
        <ele>2365</ele>
        <time>2021-08-12T09:16:06.454Z</time>
      </trkpt>
      <trkpt lat="46.86247" lon="8.48399">
        <ele>2365</ele>
        <time>2021-08-12T09:16:07.454Z</time>
      </trkpt>
      <trkpt lat="46.86247" lon="8.48398">
        <ele>2365</ele>
        <time>2021-08-12T09:16:08.454Z</time>
      </trkpt>
      <trkpt lat="46.86247" lon="8.48399">
        <ele>2365</ele>
        <time>2021-08-12T09:16:09.455Z</time>
      </trkpt>
      <trkpt lat="46.86247" lon="8.48399">
        <ele>2365</ele>
        <time>2021-08-12T09:16:10.455Z</time>
      </trkpt>
      <trkpt lat="46.86247" lon="8.48399">
        <ele>2364</ele>
        <time>2021-08-12T09:16:11.455Z</time>
      </trkpt>
      <trkpt lat="46.86247" lon="8.48399">
        <ele>2364</ele>
        <time>2021-08-12T09:16:12.455Z</time>
      </trkpt>
      <trkpt lat="46.86247" lon="8.48398">
        <ele>2363</ele>
        <time>2021-08-12T09:16:13.455Z</time>
      </trkpt>
      <trkpt lat="46.86247" lon="8.48398">
        <ele>2363</ele>
        <time>2021-08-12T09:16:14.455Z</time>
      </trkpt>
      <trkpt lat="46.86245" lon="8.48395">
        <ele>2363</ele>
        <time>2021-08-12T09:16:15.455Z</time>
      </trkpt>
      <trkpt lat="46.86245" lon="8.48396">
        <ele>2363</ele>
        <time>2021-08-12T09:16:16.455Z</time>
      </trkpt>
      <trkpt lat="46.86245" lon="8.48396">
        <ele>2362</ele>
        <time>2021-08-12T09:16:17.454Z</time>
      </trkpt>
      <trkpt lat="46.86245" lon="8.48395">
        <ele>2362</ele>
        <time>2021-08-12T09:16:18.454Z</time>
      </trkpt>
      <trkpt lat="46.86245" lon="8.48394">
        <ele>2361</ele>
        <time>2021-08-12T09:16:19.455Z</time>
      </trkpt>
      <trkpt lat="46.86245" lon="8.48395">
        <ele>2360</ele>
        <time>2021-08-12T09:16:20.454Z</time>
      </trkpt>
      <trkpt lat="46.86244" lon="8.48395">
        <ele>2359</ele>
        <time>2021-08-12T09:16:21.454Z</time>
      </trkpt>
      <trkpt lat="46.86244" lon="8.48395">
        <ele>2359</ele>
        <time>2021-08-12T09:16:22.454Z</time>
      </trkpt>
      <trkpt lat="46.86243" lon="8.48396">
        <ele>2358</ele>
        <time>2021-08-12T09:16:23.454Z</time>
      </trkpt>
      <trkpt lat="46.86243" lon="8.48396">
        <ele>2358</ele>
        <time>2021-08-12T09:16:24.455Z</time>
      </trkpt>
      <trkpt lat="46.86242" lon="8.48396">
        <ele>2358</ele>
        <time>2021-08-12T09:16:25.454Z</time>
      </trkpt>
      <trkpt lat="46.86241" lon="8.48398">
        <ele>2358</ele>
        <time>2021-08-12T09:16:26.454Z</time>
      </trkpt>
      <trkpt lat="46.86241" lon="8.48399">
        <ele>2358</ele>
        <time>2021-08-12T09:16:27.454Z</time>
      </trkpt>
      <trkpt lat="46.8624" lon="8.48399">
        <ele>2358</ele>
        <time>2021-08-12T09:16:28.454Z</time>
      </trkpt>
      <trkpt lat="46.86239" lon="8.48399">
        <ele>2358</ele>
        <time>2021-08-12T09:16:29.454Z</time>
      </trkpt>
      <trkpt lat="46.86238" lon="8.48399">
        <ele>2358</ele>
        <time>2021-08-12T09:16:30.454Z</time>
      </trkpt>
      <trkpt lat="46.86238" lon="8.48399">
        <ele>2359</ele>
        <time>2021-08-12T09:16:31.454Z</time>
      </trkpt>
      <trkpt lat="46.86237" lon="8.48398">
        <ele>2359</ele>
        <time>2021-08-12T09:16:32.454Z</time>
      </trkpt>
      <trkpt lat="46.86237" lon="8.48398">
        <ele>2359</ele>
        <time>2021-08-12T09:16:33.455Z</time>
      </trkpt>
      <trkpt lat="46.86236" lon="8.48399">
        <ele>2359</ele>
        <time>2021-08-12T09:16:34.455Z</time>
      </trkpt>
      <trkpt lat="46.86236" lon="8.48399">
        <ele>2359</ele>
        <time>2021-08-12T09:16:35.455Z</time>
      </trkpt>
      <trkpt lat="46.86235" lon="8.484">
        <ele>2359</ele>
        <time>2021-08-12T09:16:36.454Z</time>
      </trkpt>
      <trkpt lat="46.86234" lon="8.484">
        <ele>2359</ele>
        <time>2021-08-12T09:16:37.454Z</time>
      </trkpt>
      <trkpt lat="46.86234" lon="8.48401">
        <ele>2359</ele>
        <time>2021-08-12T09:16:38.454Z</time>
      </trkpt>
      <trkpt lat="46.86233" lon="8.48402">
        <ele>2360</ele>
        <time>2021-08-12T09:16:39.454Z</time>
      </trkpt>
      <trkpt lat="46.86232" lon="8.48403">
        <ele>2360</ele>
        <time>2021-08-12T09:16:40.454Z</time>
      </trkpt>
      <trkpt lat="46.86232" lon="8.48404">
        <ele>2360</ele>
        <time>2021-08-12T09:16:41.454Z</time>
      </trkpt>
      <trkpt lat="46.86231" lon="8.48405">
        <ele>2361</ele>
        <time>2021-08-12T09:16:42.454Z</time>
      </trkpt>
      <trkpt lat="46.8623" lon="8.48406">
        <ele>2362</ele>
        <time>2021-08-12T09:16:43.455Z</time>
      </trkpt>
      <trkpt lat="46.86229" lon="8.48408">
        <ele>2363</ele>
        <time>2021-08-12T09:16:44.455Z</time>
      </trkpt>
      <trkpt lat="46.86228" lon="8.48409">
        <ele>2363</ele>
        <time>2021-08-12T09:16:45.454Z</time>
      </trkpt>
      <trkpt lat="46.86228" lon="8.48409">
        <ele>2364</ele>
        <time>2021-08-12T09:16:46.455Z</time>
      </trkpt>
      <trkpt lat="46.86227" lon="8.48409">
        <ele>2365</ele>
        <time>2021-08-12T09:16:47.455Z</time>
      </trkpt>
      <trkpt lat="46.86226" lon="8.4841">
        <ele>2365</ele>
        <time>2021-08-12T09:16:48.454Z</time>
      </trkpt>
      <trkpt lat="46.86226" lon="8.4841">
        <ele>2366</ele>
        <time>2021-08-12T09:16:49.454Z</time>
      </trkpt>
      <trkpt lat="46.86225" lon="8.48411">
        <ele>2366</ele>
        <time>2021-08-12T09:16:50.454Z</time>
      </trkpt>
      <trkpt lat="46.86225" lon="8.48411">
        <ele>2366</ele>
        <time>2021-08-12T09:16:51.454Z</time>
      </trkpt>
      <trkpt lat="46.86224" lon="8.48411">
        <ele>2366</ele>
        <time>2021-08-12T09:16:52.455Z</time>
      </trkpt>
      <trkpt lat="46.86224" lon="8.48411">
        <ele>2366</ele>
        <time>2021-08-12T09:16:53.454Z</time>
      </trkpt>
      <trkpt lat="46.86223" lon="8.48412">
        <ele>2367</ele>
        <time>2021-08-12T09:16:54.454Z</time>
      </trkpt>
      <trkpt lat="46.86222" lon="8.48412">
        <ele>2367</ele>
        <time>2021-08-12T09:16:55.454Z</time>
      </trkpt>
      <trkpt lat="46.86221" lon="8.48413">
        <ele>2368</ele>
        <time>2021-08-12T09:16:56.454Z</time>
      </trkpt>
      <trkpt lat="46.86219" lon="8.48415">
        <ele>2368</ele>
        <time>2021-08-12T09:16:57.454Z</time>
      </trkpt>
      <trkpt lat="46.86218" lon="8.48416">
        <ele>2369</ele>
        <time>2021-08-12T09:16:58.454Z</time>
      </trkpt>
      <trkpt lat="46.86217" lon="8.48415">
        <ele>2369</ele>
        <time>2021-08-12T09:16:59.454Z</time>
      </trkpt>
      <trkpt lat="46.86216" lon="8.48414">
        <ele>2370</ele>
        <time>2021-08-12T09:17:00.454Z</time>
      </trkpt>
      <trkpt lat="46.86215" lon="8.48414">
        <ele>2371</ele>
        <time>2021-08-12T09:17:01.454Z</time>
      </trkpt>
      <trkpt lat="46.86214" lon="8.48413">
        <ele>2371</ele>
        <time>2021-08-12T09:17:02.455Z</time>
      </trkpt>
      <trkpt lat="46.86213" lon="8.48413">
        <ele>2371</ele>
        <time>2021-08-12T09:17:03.454Z</time>
      </trkpt>
      <trkpt lat="46.86212" lon="8.48414">
        <ele>2371</ele>
        <time>2021-08-12T09:17:04.455Z</time>
      </trkpt>
      <trkpt lat="46.86212" lon="8.48414">
        <ele>2371</ele>
        <time>2021-08-12T09:17:05.455Z</time>
      </trkpt>
      <trkpt lat="46.86211" lon="8.48414">
        <ele>2371</ele>
        <time>2021-08-12T09:17:06.455Z</time>
      </trkpt>
      <trkpt lat="46.8621" lon="8.48415">
        <ele>2371</ele>
        <time>2021-08-12T09:17:07.455Z</time>
      </trkpt>
      <trkpt lat="46.86209" lon="8.48415">
        <ele>2371</ele>
        <time>2021-08-12T09:17:08.455Z</time>
      </trkpt>
      <trkpt lat="46.86208" lon="8.48416">
        <ele>2371</ele>
        <time>2021-08-12T09:17:09.455Z</time>
      </trkpt>
      <trkpt lat="46.86207" lon="8.48417">
        <ele>2371</ele>
        <time>2021-08-12T09:17:10.455Z</time>
      </trkpt>
      <trkpt lat="46.86206" lon="8.48417">
        <ele>2372</ele>
        <time>2021-08-12T09:17:11.454Z</time>
      </trkpt>
      <trkpt lat="46.86206" lon="8.48418">
        <ele>2372</ele>
        <time>2021-08-12T09:17:12.455Z</time>
      </trkpt>
      <trkpt lat="46.86205" lon="8.48418">
        <ele>2372</ele>
        <time>2021-08-12T09:17:13.455Z</time>
      </trkpt>
      <trkpt lat="46.86204" lon="8.48419">
        <ele>2372</ele>
        <time>2021-08-12T09:17:14.455Z</time>
      </trkpt>
      <trkpt lat="46.86204" lon="8.4842">
        <ele>2372</ele>
        <time>2021-08-12T09:17:15.455Z</time>
      </trkpt>
      <trkpt lat="46.86203" lon="8.48422">
        <ele>2371</ele>
        <time>2021-08-12T09:17:16.455Z</time>
      </trkpt>
      <trkpt lat="46.86203" lon="8.48423">
        <ele>2371</ele>
        <time>2021-08-12T09:17:17.455Z</time>
      </trkpt>
      <trkpt lat="46.86202" lon="8.48424">
        <ele>2371</ele>
        <time>2021-08-12T09:17:18.455Z</time>
      </trkpt>
      <trkpt lat="46.86201" lon="8.48425">
        <ele>2370</ele>
        <time>2021-08-12T09:17:19.455Z</time>
      </trkpt>
      <trkpt lat="46.862" lon="8.48425">
        <ele>2370</ele>
        <time>2021-08-12T09:17:20.454Z</time>
      </trkpt>
      <trkpt lat="46.862" lon="8.48425">
        <ele>2370</ele>
        <time>2021-08-12T09:17:21.455Z</time>
      </trkpt>
      <trkpt lat="46.86199" lon="8.48425">
        <ele>2370</ele>
        <time>2021-08-12T09:17:22.455Z</time>
      </trkpt>
      <trkpt lat="46.86198" lon="8.48425">
        <ele>2371</ele>
        <time>2021-08-12T09:17:23.454Z</time>
      </trkpt>
      <trkpt lat="46.86197" lon="8.48425">
        <ele>2371</ele>
        <time>2021-08-12T09:17:24.454Z</time>
      </trkpt>
      <trkpt lat="46.86197" lon="8.48426">
        <ele>2370</ele>
        <time>2021-08-12T09:17:25.454Z</time>
      </trkpt>
      <trkpt lat="46.86196" lon="8.48427">
        <ele>2370</ele>
        <time>2021-08-12T09:17:26.455Z</time>
      </trkpt>
      <trkpt lat="46.86196" lon="8.48428">
        <ele>2369</ele>
        <time>2021-08-12T09:17:27.454Z</time>
      </trkpt>
      <trkpt lat="46.86195" lon="8.48428">
        <ele>2368</ele>
        <time>2021-08-12T09:17:28.454Z</time>
      </trkpt>
      <trkpt lat="46.86195" lon="8.48429">
        <ele>2368</ele>
        <time>2021-08-12T09:17:29.455Z</time>
      </trkpt>
      <trkpt lat="46.86195" lon="8.48429">
        <ele>2368</ele>
        <time>2021-08-12T09:17:30.454Z</time>
      </trkpt>
      <trkpt lat="46.86195" lon="8.48429">
        <ele>2367</ele>
        <time>2021-08-12T09:17:31.455Z</time>
      </trkpt>
      <trkpt lat="46.86195" lon="8.48429">
        <ele>2366</ele>
        <time>2021-08-12T09:17:32.455Z</time>
      </trkpt>
      <trkpt lat="46.86194" lon="8.48429">
        <ele>2365</ele>
        <time>2021-08-12T09:17:33.454Z</time>
      </trkpt>
      <trkpt lat="46.86193" lon="8.48429">
        <ele>2365</ele>
        <time>2021-08-12T09:17:34.455Z</time>
      </trkpt>
      <trkpt lat="46.86193" lon="8.48428">
        <ele>2364</ele>
        <time>2021-08-12T09:17:35.455Z</time>
      </trkpt>
      <trkpt lat="46.86192" lon="8.48428">
        <ele>2364</ele>
        <time>2021-08-12T09:17:36.455Z</time>
      </trkpt>
      <trkpt lat="46.86191" lon="8.48428">
        <ele>2363</ele>
        <time>2021-08-12T09:17:37.455Z</time>
      </trkpt>
      <trkpt lat="46.8619" lon="8.48427">
        <ele>2363</ele>
        <time>2021-08-12T09:17:38.455Z</time>
      </trkpt>
      <trkpt lat="46.86188" lon="8.48426">
        <ele>2363</ele>
        <time>2021-08-12T09:17:39.455Z</time>
      </trkpt>
      <trkpt lat="46.86187" lon="8.48425">
        <ele>2364</ele>
        <time>2021-08-12T09:17:40.455Z</time>
      </trkpt>
      <trkpt lat="46.86186" lon="8.48425">
        <ele>2364</ele>
        <time>2021-08-12T09:17:41.455Z</time>
      </trkpt>
      <trkpt lat="46.86185" lon="8.48424">
        <ele>2365</ele>
        <time>2021-08-12T09:17:42.454Z</time>
      </trkpt>
      <trkpt lat="46.86184" lon="8.48423">
        <ele>2366</ele>
        <time>2021-08-12T09:17:43.454Z</time>
      </trkpt>
      <trkpt lat="46.86183" lon="8.48423">
        <ele>2367</ele>
        <time>2021-08-12T09:17:44.454Z</time>
      </trkpt>
      <trkpt lat="46.86182" lon="8.48422">
        <ele>2367</ele>
        <time>2021-08-12T09:17:45.455Z</time>
      </trkpt>
      <trkpt lat="46.86181" lon="8.48422">
        <ele>2368</ele>
        <time>2021-08-12T09:17:46.455Z</time>
      </trkpt>
      <trkpt lat="46.8618" lon="8.48422">
        <ele>2368</ele>
        <time>2021-08-12T09:17:47.455Z</time>
      </trkpt>
      <trkpt lat="46.86179" lon="8.48422">
        <ele>2369</ele>
        <time>2021-08-12T09:17:48.454Z</time>
      </trkpt>
      <trkpt lat="46.86179" lon="8.48422">
        <ele>2369</ele>
        <time>2021-08-12T09:17:49.455Z</time>
      </trkpt>
      <trkpt lat="46.86178" lon="8.48422">
        <ele>2369</ele>
        <time>2021-08-12T09:17:50.455Z</time>
      </trkpt>
      <trkpt lat="46.86177" lon="8.48423">
        <ele>2368</ele>
        <time>2021-08-12T09:17:51.455Z</time>
      </trkpt>
      <trkpt lat="46.86176" lon="8.48423">
        <ele>2368</ele>
        <time>2021-08-12T09:17:52.455Z</time>
      </trkpt>
      <trkpt lat="46.86175" lon="8.48424">
        <ele>2368</ele>
        <time>2021-08-12T09:17:53.455Z</time>
      </trkpt>
      <trkpt lat="46.86174" lon="8.48424">
        <ele>2368</ele>
        <time>2021-08-12T09:17:54.455Z</time>
      </trkpt>
      <trkpt lat="46.86173" lon="8.48424">
        <ele>2368</ele>
        <time>2021-08-12T09:17:55.455Z</time>
      </trkpt>
      <trkpt lat="46.86171" lon="8.48423">
        <ele>2368</ele>
        <time>2021-08-12T09:17:56.454Z</time>
      </trkpt>
      <trkpt lat="46.8617" lon="8.48423">
        <ele>2368</ele>
        <time>2021-08-12T09:17:57.454Z</time>
      </trkpt>
      <trkpt lat="46.86168" lon="8.48421">
        <ele>2368</ele>
        <time>2021-08-12T09:17:58.454Z</time>
      </trkpt>
      <trkpt lat="46.86167" lon="8.4842">
        <ele>2368</ele>
        <time>2021-08-12T09:17:59.454Z</time>
      </trkpt>
      <trkpt lat="46.86166" lon="8.4842">
        <ele>2369</ele>
        <time>2021-08-12T09:18:00.455Z</time>
      </trkpt>
      <trkpt lat="46.86165" lon="8.48419">
        <ele>2370</ele>
        <time>2021-08-12T09:18:01.455Z</time>
      </trkpt>
      <trkpt lat="46.86164" lon="8.48418">
        <ele>2370</ele>
        <time>2021-08-12T09:18:02.454Z</time>
      </trkpt>
      <trkpt lat="46.86163" lon="8.48417">
        <ele>2371</ele>
        <time>2021-08-12T09:18:03.455Z</time>
      </trkpt>
      <trkpt lat="46.86162" lon="8.48415">
        <ele>2371</ele>
        <time>2021-08-12T09:18:04.455Z</time>
      </trkpt>
      <trkpt lat="46.86161" lon="8.48415">
        <ele>2372</ele>
        <time>2021-08-12T09:18:05.455Z</time>
      </trkpt>
      <trkpt lat="46.86161" lon="8.48416">
        <ele>2372</ele>
        <time>2021-08-12T09:18:06.455Z</time>
      </trkpt>
      <trkpt lat="46.8616" lon="8.48416">
        <ele>2372</ele>
        <time>2021-08-12T09:18:07.455Z</time>
      </trkpt>
      <trkpt lat="46.86159" lon="8.48416">
        <ele>2372</ele>
        <time>2021-08-12T09:18:08.455Z</time>
      </trkpt>
      <trkpt lat="46.86159" lon="8.48416">
        <ele>2371</ele>
        <time>2021-08-12T09:18:09.454Z</time>
      </trkpt>
      <trkpt lat="46.86158" lon="8.48417">
        <ele>2370</ele>
        <time>2021-08-12T09:18:10.455Z</time>
      </trkpt>
      <trkpt lat="46.86158" lon="8.48417">
        <ele>2369</ele>
        <time>2021-08-12T09:18:11.455Z</time>
      </trkpt>
      <trkpt lat="46.86157" lon="8.48417">
        <ele>2368</ele>
        <time>2021-08-12T09:18:12.454Z</time>
      </trkpt>
      <trkpt lat="46.86156" lon="8.48417">
        <ele>2367</ele>
        <time>2021-08-12T09:18:13.454Z</time>
      </trkpt>
      <trkpt lat="46.86155" lon="8.48416">
        <ele>2367</ele>
        <time>2021-08-12T09:18:14.455Z</time>
      </trkpt>
      <trkpt lat="46.86154" lon="8.48416">
        <ele>2366</ele>
        <time>2021-08-12T09:18:15.454Z</time>
      </trkpt>
      <trkpt lat="46.86154" lon="8.48416">
        <ele>2366</ele>
        <time>2021-08-12T09:18:16.454Z</time>
      </trkpt>
      <trkpt lat="46.86153" lon="8.48415">
        <ele>2365</ele>
        <time>2021-08-12T09:18:17.454Z</time>
      </trkpt>
      <trkpt lat="46.86152" lon="8.48415">
        <ele>2365</ele>
        <time>2021-08-12T09:18:18.455Z</time>
      </trkpt>
      <trkpt lat="46.86151" lon="8.48414">
        <ele>2365</ele>
        <time>2021-08-12T09:18:19.455Z</time>
      </trkpt>
      <trkpt lat="46.8615" lon="8.48413">
        <ele>2365</ele>
        <time>2021-08-12T09:18:20.455Z</time>
      </trkpt>
      <trkpt lat="46.86149" lon="8.48412">
        <ele>2364</ele>
        <time>2021-08-12T09:18:21.455Z</time>
      </trkpt>
      <trkpt lat="46.86148" lon="8.48413">
        <ele>2364</ele>
        <time>2021-08-12T09:18:22.455Z</time>
      </trkpt>
      <trkpt lat="46.86148" lon="8.48413">
        <ele>2363</ele>
        <time>2021-08-12T09:18:23.455Z</time>
      </trkpt>
      <trkpt lat="46.86147" lon="8.48413">
        <ele>2363</ele>
        <time>2021-08-12T09:18:24.455Z</time>
      </trkpt>
      <trkpt lat="46.86146" lon="8.48414">
        <ele>2363</ele>
        <time>2021-08-12T09:18:25.454Z</time>
      </trkpt>
      <trkpt lat="46.86145" lon="8.48415">
        <ele>2362</ele>
        <time>2021-08-12T09:18:26.455Z</time>
      </trkpt>
      <trkpt lat="46.86144" lon="8.48416">
        <ele>2362</ele>
        <time>2021-08-12T09:18:27.455Z</time>
      </trkpt>
      <trkpt lat="46.86143" lon="8.48416">
        <ele>2362</ele>
        <time>2021-08-12T09:18:28.455Z</time>
      </trkpt>
      <trkpt lat="46.86142" lon="8.48416">
        <ele>2363</ele>
        <time>2021-08-12T09:18:29.454Z</time>
      </trkpt>
      <trkpt lat="46.86141" lon="8.48416">
        <ele>2363</ele>
        <time>2021-08-12T09:18:30.455Z</time>
      </trkpt>
      <trkpt lat="46.8614" lon="8.48416">
        <ele>2363</ele>
        <time>2021-08-12T09:18:31.455Z</time>
      </trkpt>
      <trkpt lat="46.8614" lon="8.48415">
        <ele>2364</ele>
        <time>2021-08-12T09:18:32.455Z</time>
      </trkpt>
      <trkpt lat="46.86139" lon="8.48415">
        <ele>2364</ele>
        <time>2021-08-12T09:18:33.454Z</time>
      </trkpt>
      <trkpt lat="46.86138" lon="8.48415">
        <ele>2365</ele>
        <time>2021-08-12T09:18:34.454Z</time>
      </trkpt>
      <trkpt lat="46.86137" lon="8.48415">
        <ele>2365</ele>
        <time>2021-08-12T09:18:35.454Z</time>
      </trkpt>
      <trkpt lat="46.86136" lon="8.48415">
        <ele>2366</ele>
        <time>2021-08-12T09:18:36.454Z</time>
      </trkpt>
      <trkpt lat="46.86135" lon="8.48415">
        <ele>2367</ele>
        <time>2021-08-12T09:18:37.455Z</time>
      </trkpt>
      <trkpt lat="46.86134" lon="8.48416">
        <ele>2367</ele>
        <time>2021-08-12T09:18:38.455Z</time>
      </trkpt>
      <trkpt lat="46.86134" lon="8.48417">
        <ele>2368</ele>
        <time>2021-08-12T09:18:39.454Z</time>
      </trkpt>
      <trkpt lat="46.86133" lon="8.48417">
        <ele>2368</ele>
        <time>2021-08-12T09:18:40.455Z</time>
      </trkpt>
      <trkpt lat="46.86133" lon="8.48417">
        <ele>2368</ele>
        <time>2021-08-12T09:18:41.455Z</time>
      </trkpt>
      <trkpt lat="46.86132" lon="8.48417">
        <ele>2368</ele>
        <time>2021-08-12T09:18:42.455Z</time>
      </trkpt>
      <trkpt lat="46.86132" lon="8.48418">
        <ele>2368</ele>
        <time>2021-08-12T09:18:43.455Z</time>
      </trkpt>
      <trkpt lat="46.8613" lon="8.48418">
        <ele>2369</ele>
        <time>2021-08-12T09:18:44.454Z</time>
      </trkpt>
      <trkpt lat="46.8613" lon="8.48419">
        <ele>2369</ele>
        <time>2021-08-12T09:18:45.455Z</time>
      </trkpt>
      <trkpt lat="46.86129" lon="8.4842">
        <ele>2369</ele>
        <time>2021-08-12T09:18:46.455Z</time>
      </trkpt>
      <trkpt lat="46.86128" lon="8.48421">
        <ele>2369</ele>
        <time>2021-08-12T09:18:47.454Z</time>
      </trkpt>
      <trkpt lat="46.86127" lon="8.4842">
        <ele>2370</ele>
        <time>2021-08-12T09:18:48.455Z</time>
      </trkpt>
      <trkpt lat="46.86125" lon="8.4842">
        <ele>2370</ele>
        <time>2021-08-12T09:18:49.454Z</time>
      </trkpt>
      <trkpt lat="46.86124" lon="8.48418">
        <ele>2370</ele>
        <time>2021-08-12T09:18:50.455Z</time>
      </trkpt>
      <trkpt lat="46.86123" lon="8.48418">
        <ele>2371</ele>
        <time>2021-08-12T09:18:51.454Z</time>
      </trkpt>
      <trkpt lat="46.86121" lon="8.48421">
        <ele>2371</ele>
        <time>2021-08-12T09:18:52.455Z</time>
      </trkpt>
      <trkpt lat="46.8612" lon="8.48421">
        <ele>2372</ele>
        <time>2021-08-12T09:18:53.455Z</time>
      </trkpt>
      <trkpt lat="46.86118" lon="8.48421">
        <ele>2372</ele>
        <time>2021-08-12T09:18:54.455Z</time>
      </trkpt>
      <trkpt lat="46.86117" lon="8.48421">
        <ele>2372</ele>
        <time>2021-08-12T09:18:55.454Z</time>
      </trkpt>
      <trkpt lat="46.86116" lon="8.48422">
        <ele>2372</ele>
        <time>2021-08-12T09:18:56.455Z</time>
      </trkpt>
      <trkpt lat="46.86115" lon="8.48423">
        <ele>2372</ele>
        <time>2021-08-12T09:18:57.454Z</time>
      </trkpt>
      <trkpt lat="46.86115" lon="8.48424">
        <ele>2373</ele>
        <time>2021-08-12T09:18:58.455Z</time>
      </trkpt>
      <trkpt lat="46.86114" lon="8.48425">
        <ele>2373</ele>
        <time>2021-08-12T09:18:59.455Z</time>
      </trkpt>
      <trkpt lat="46.86113" lon="8.48426">
        <ele>2373</ele>
        <time>2021-08-12T09:19:00.454Z</time>
      </trkpt>
      <trkpt lat="46.86112" lon="8.48427">
        <ele>2373</ele>
        <time>2021-08-12T09:19:01.455Z</time>
      </trkpt>
      <trkpt lat="46.86112" lon="8.48427">
        <ele>2373</ele>
        <time>2021-08-12T09:19:02.455Z</time>
      </trkpt>
      <trkpt lat="46.86111" lon="8.48427">
        <ele>2373</ele>
        <time>2021-08-12T09:19:03.455Z</time>
      </trkpt>
      <trkpt lat="46.8611" lon="8.48428">
        <ele>2373</ele>
        <time>2021-08-12T09:19:04.454Z</time>
      </trkpt>
      <trkpt lat="46.86109" lon="8.48427">
        <ele>2374</ele>
        <time>2021-08-12T09:19:05.455Z</time>
      </trkpt>
      <trkpt lat="46.86108" lon="8.48427">
        <ele>2374</ele>
        <time>2021-08-12T09:19:06.455Z</time>
      </trkpt>
      <trkpt lat="46.86107" lon="8.48427">
        <ele>2374</ele>
        <time>2021-08-12T09:19:07.455Z</time>
      </trkpt>
      <trkpt lat="46.86107" lon="8.48427">
        <ele>2374</ele>
        <time>2021-08-12T09:19:08.454Z</time>
      </trkpt>
      <trkpt lat="46.86106" lon="8.48427">
        <ele>2374</ele>
        <time>2021-08-12T09:19:09.454Z</time>
      </trkpt>
      <trkpt lat="46.86105" lon="8.48428">
        <ele>2374</ele>
        <time>2021-08-12T09:19:10.455Z</time>
      </trkpt>
      <trkpt lat="46.86104" lon="8.48428">
        <ele>2373</ele>
        <time>2021-08-12T09:19:11.454Z</time>
      </trkpt>
      <trkpt lat="46.86103" lon="8.48429">
        <ele>2373</ele>
        <time>2021-08-12T09:19:12.455Z</time>
      </trkpt>
      <trkpt lat="46.86102" lon="8.4843">
        <ele>2374</ele>
        <time>2021-08-12T09:19:13.455Z</time>
      </trkpt>
      <trkpt lat="46.86101" lon="8.48429">
        <ele>2374</ele>
        <time>2021-08-12T09:19:14.455Z</time>
      </trkpt>
      <trkpt lat="46.861" lon="8.48429">
        <ele>2374</ele>
        <time>2021-08-12T09:19:15.454Z</time>
      </trkpt>
      <trkpt lat="46.86099" lon="8.48428">
        <ele>2374</ele>
        <time>2021-08-12T09:19:16.455Z</time>
      </trkpt>
      <trkpt lat="46.86098" lon="8.48427">
        <ele>2375</ele>
        <time>2021-08-12T09:19:17.454Z</time>
      </trkpt>
      <trkpt lat="46.86098" lon="8.48426">
        <ele>2375</ele>
        <time>2021-08-12T09:19:18.454Z</time>
      </trkpt>
      <trkpt lat="46.86097" lon="8.48425">
        <ele>2375</ele>
        <time>2021-08-12T09:19:19.455Z</time>
      </trkpt>
      <trkpt lat="46.86096" lon="8.48425">
        <ele>2375</ele>
        <time>2021-08-12T09:19:20.455Z</time>
      </trkpt>
      <trkpt lat="46.86095" lon="8.48424">
        <ele>2375</ele>
        <time>2021-08-12T09:19:21.455Z</time>
      </trkpt>
      <trkpt lat="46.86095" lon="8.48424">
        <ele>2376</ele>
        <time>2021-08-12T09:19:22.455Z</time>
      </trkpt>
      <trkpt lat="46.86094" lon="8.48424">
        <ele>2376</ele>
        <time>2021-08-12T09:19:23.454Z</time>
      </trkpt>
      <trkpt lat="46.86093" lon="8.48424">
        <ele>2377</ele>
        <time>2021-08-12T09:19:24.455Z</time>
      </trkpt>
      <trkpt lat="46.86093" lon="8.48423">
        <ele>2377</ele>
        <time>2021-08-12T09:19:25.455Z</time>
      </trkpt>
      <trkpt lat="46.86092" lon="8.48423">
        <ele>2377</ele>
        <time>2021-08-12T09:19:26.454Z</time>
      </trkpt>
      <trkpt lat="46.86091" lon="8.48422">
        <ele>2377</ele>
        <time>2021-08-12T09:19:27.455Z</time>
      </trkpt>
      <trkpt lat="46.86091" lon="8.48422">
        <ele>2377</ele>
        <time>2021-08-12T09:19:28.455Z</time>
      </trkpt>
      <trkpt lat="46.8609" lon="8.48423">
        <ele>2377</ele>
        <time>2021-08-12T09:19:29.454Z</time>
      </trkpt>
      <trkpt lat="46.8609" lon="8.48423">
        <ele>2376</ele>
        <time>2021-08-12T09:19:30.455Z</time>
      </trkpt>
      <trkpt lat="46.8609" lon="8.48424">
        <ele>2375</ele>
        <time>2021-08-12T09:19:31.454Z</time>
      </trkpt>
      <trkpt lat="46.86089" lon="8.48425">
        <ele>2375</ele>
        <time>2021-08-12T09:19:32.455Z</time>
      </trkpt>
      <trkpt lat="46.86089" lon="8.48426">
        <ele>2374</ele>
        <time>2021-08-12T09:19:33.455Z</time>
      </trkpt>
      <trkpt lat="46.86088" lon="8.48427">
        <ele>2374</ele>
        <time>2021-08-12T09:19:34.455Z</time>
      </trkpt>
      <trkpt lat="46.86087" lon="8.48428">
        <ele>2374</ele>
        <time>2021-08-12T09:19:35.454Z</time>
      </trkpt>
      <trkpt lat="46.86087" lon="8.48428">
        <ele>2373</ele>
        <time>2021-08-12T09:19:36.455Z</time>
      </trkpt>
      <trkpt lat="46.86086" lon="8.48428">
        <ele>2373</ele>
        <time>2021-08-12T09:19:37.455Z</time>
      </trkpt>
      <trkpt lat="46.86085" lon="8.48428">
        <ele>2373</ele>
        <time>2021-08-12T09:19:38.455Z</time>
      </trkpt>
      <trkpt lat="46.86084" lon="8.48429">
        <ele>2373</ele>
        <time>2021-08-12T09:19:39.454Z</time>
      </trkpt>
      <trkpt lat="46.86083" lon="8.48429">
        <ele>2373</ele>
        <time>2021-08-12T09:19:40.455Z</time>
      </trkpt>
      <trkpt lat="46.86083" lon="8.48429">
        <ele>2373</ele>
        <time>2021-08-12T09:19:41.454Z</time>
      </trkpt>
      <trkpt lat="46.86082" lon="8.4843">
        <ele>2373</ele>
        <time>2021-08-12T09:19:42.454Z</time>
      </trkpt>
      <trkpt lat="46.86082" lon="8.4843">
        <ele>2373</ele>
        <time>2021-08-12T09:19:43.455Z</time>
      </trkpt>
      <trkpt lat="46.86082" lon="8.4843">
        <ele>2373</ele>
        <time>2021-08-12T09:19:44.454Z</time>
      </trkpt>
      <trkpt lat="46.86082" lon="8.48431">
        <ele>2373</ele>
        <time>2021-08-12T09:19:45.455Z</time>
      </trkpt>
      <trkpt lat="46.86082" lon="8.48431">
        <ele>2373</ele>
        <time>2021-08-12T09:19:46.455Z</time>
      </trkpt>
      <trkpt lat="46.86081" lon="8.48432">
        <ele>2372</ele>
        <time>2021-08-12T09:19:47.455Z</time>
      </trkpt>
      <trkpt lat="46.86081" lon="8.48432">
        <ele>2372</ele>
        <time>2021-08-12T09:19:48.455Z</time>
      </trkpt>
      <trkpt lat="46.8608" lon="8.48432">
        <ele>2372</ele>
        <time>2021-08-12T09:19:49.455Z</time>
      </trkpt>
      <trkpt lat="46.8608" lon="8.48431">
        <ele>2372</ele>
        <time>2021-08-12T09:19:50.455Z</time>
      </trkpt>
      <trkpt lat="46.86078" lon="8.48433">
        <ele>2372</ele>
        <time>2021-08-12T09:19:51.454Z</time>
      </trkpt>
      <trkpt lat="46.86077" lon="8.48434">
        <ele>2372</ele>
        <time>2021-08-12T09:19:52.455Z</time>
      </trkpt>
      <trkpt lat="46.86077" lon="8.48434">
        <ele>2372</ele>
        <time>2021-08-12T09:19:53.455Z</time>
      </trkpt>
      <trkpt lat="46.86077" lon="8.48434">
        <ele>2372</ele>
        <time>2021-08-12T09:19:54.455Z</time>
      </trkpt>
      <trkpt lat="46.86077" lon="8.48434">
        <ele>2372</ele>
        <time>2021-08-12T09:19:55.455Z</time>
      </trkpt>
      <trkpt lat="46.86077" lon="8.48435">
        <ele>2371</ele>
        <time>2021-08-12T09:19:56.455Z</time>
      </trkpt>
      <trkpt lat="46.86077" lon="8.48435">
        <ele>2370</ele>
        <time>2021-08-12T09:19:57.455Z</time>
      </trkpt>
      <trkpt lat="46.86076" lon="8.48436">
        <ele>2370</ele>
        <time>2021-08-12T09:19:58.454Z</time>
      </trkpt>
      <trkpt lat="46.86075" lon="8.48436">
        <ele>2369</ele>
        <time>2021-08-12T09:19:59.455Z</time>
      </trkpt>
      <trkpt lat="46.86074" lon="8.48436">
        <ele>2368</ele>
        <time>2021-08-12T09:20:00.455Z</time>
      </trkpt>
      <trkpt lat="46.86074" lon="8.48436">
        <ele>2368</ele>
        <time>2021-08-12T09:20:01.455Z</time>
      </trkpt>
      <trkpt lat="46.86073" lon="8.48435">
        <ele>2368</ele>
        <time>2021-08-12T09:20:02.455Z</time>
      </trkpt>
      <trkpt lat="46.86072" lon="8.48435">
        <ele>2368</ele>
        <time>2021-08-12T09:20:03.455Z</time>
      </trkpt>
      <trkpt lat="46.86071" lon="8.48435">
        <ele>2368</ele>
        <time>2021-08-12T09:20:04.455Z</time>
      </trkpt>
      <trkpt lat="46.86071" lon="8.48435">
        <ele>2367</ele>
        <time>2021-08-12T09:20:05.455Z</time>
      </trkpt>
      <trkpt lat="46.8607" lon="8.48435">
        <ele>2367</ele>
        <time>2021-08-12T09:20:06.455Z</time>
      </trkpt>
      <trkpt lat="46.86069" lon="8.48434">
        <ele>2367</ele>
        <time>2021-08-12T09:20:07.454Z</time>
      </trkpt>
      <trkpt lat="46.86069" lon="8.48434">
        <ele>2366</ele>
        <time>2021-08-12T09:20:08.455Z</time>
      </trkpt>
      <trkpt lat="46.86068" lon="8.48434">
        <ele>2366</ele>
        <time>2021-08-12T09:20:09.455Z</time>
      </trkpt>
      <trkpt lat="46.86067" lon="8.48434">
        <ele>2366</ele>
        <time>2021-08-12T09:20:10.455Z</time>
      </trkpt>
      <trkpt lat="46.86066" lon="8.48435">
        <ele>2366</ele>
        <time>2021-08-12T09:20:11.455Z</time>
      </trkpt>
      <trkpt lat="46.86065" lon="8.48435">
        <ele>2367</ele>
        <time>2021-08-12T09:20:12.455Z</time>
      </trkpt>
      <trkpt lat="46.86065" lon="8.48436">
        <ele>2367</ele>
        <time>2021-08-12T09:20:13.454Z</time>
      </trkpt>
      <trkpt lat="46.86064" lon="8.48436">
        <ele>2368</ele>
        <time>2021-08-12T09:20:14.455Z</time>
      </trkpt>
      <trkpt lat="46.86063" lon="8.48436">
        <ele>2369</ele>
        <time>2021-08-12T09:20:15.454Z</time>
      </trkpt>
      <trkpt lat="46.86063" lon="8.48437">
        <ele>2370</ele>
        <time>2021-08-12T09:20:16.454Z</time>
      </trkpt>
      <trkpt lat="46.86062" lon="8.48437">
        <ele>2371</ele>
        <time>2021-08-12T09:20:17.455Z</time>
      </trkpt>
      <trkpt lat="46.86061" lon="8.48438">
        <ele>2372</ele>
        <time>2021-08-12T09:20:18.455Z</time>
      </trkpt>
      <trkpt lat="46.8606" lon="8.48438">
        <ele>2373</ele>
        <time>2021-08-12T09:20:19.454Z</time>
      </trkpt>
      <trkpt lat="46.86059" lon="8.48438">
        <ele>2374</ele>
        <time>2021-08-12T09:20:20.454Z</time>
      </trkpt>
      <trkpt lat="46.86058" lon="8.48437">
        <ele>2375</ele>
        <time>2021-08-12T09:20:21.454Z</time>
      </trkpt>
      <trkpt lat="46.86057" lon="8.48436">
        <ele>2375</ele>
        <time>2021-08-12T09:20:22.455Z</time>
      </trkpt>
      <trkpt lat="46.86056" lon="8.48436">
        <ele>2376</ele>
        <time>2021-08-12T09:20:23.455Z</time>
      </trkpt>
      <trkpt lat="46.86056" lon="8.48437">
        <ele>2376</ele>
        <time>2021-08-12T09:20:24.455Z</time>
      </trkpt>
      <trkpt lat="46.86055" lon="8.48437">
        <ele>2376</ele>
        <time>2021-08-12T09:20:25.455Z</time>
      </trkpt>
      <trkpt lat="46.86054" lon="8.48438">
        <ele>2376</ele>
        <time>2021-08-12T09:20:26.455Z</time>
      </trkpt>
      <trkpt lat="46.86054" lon="8.48438">
        <ele>2376</ele>
        <time>2021-08-12T09:20:27.455Z</time>
      </trkpt>
      <trkpt lat="46.86053" lon="8.48439">
        <ele>2376</ele>
        <time>2021-08-12T09:20:28.454Z</time>
      </trkpt>
      <trkpt lat="46.86052" lon="8.48438">
        <ele>2376</ele>
        <time>2021-08-12T09:20:29.455Z</time>
      </trkpt>
      <trkpt lat="46.86052" lon="8.48438">
        <ele>2376</ele>
        <time>2021-08-12T09:20:30.454Z</time>
      </trkpt>
      <trkpt lat="46.86051" lon="8.48439">
        <ele>2377</ele>
        <time>2021-08-12T09:20:31.455Z</time>
      </trkpt>
      <trkpt lat="46.8605" lon="8.48439">
        <ele>2377</ele>
        <time>2021-08-12T09:20:32.454Z</time>
      </trkpt>
      <trkpt lat="46.8605" lon="8.48439">
        <ele>2377</ele>
        <time>2021-08-12T09:20:33.455Z</time>
      </trkpt>
      <trkpt lat="46.86049" lon="8.48441">
        <ele>2377</ele>
        <time>2021-08-12T09:20:34.455Z</time>
      </trkpt>
      <trkpt lat="46.86049" lon="8.48442">
        <ele>2378</ele>
        <time>2021-08-12T09:20:35.454Z</time>
      </trkpt>
      <trkpt lat="46.86049" lon="8.48443">
        <ele>2378</ele>
        <time>2021-08-12T09:20:36.455Z</time>
      </trkpt>
      <trkpt lat="46.86049" lon="8.48443">
        <ele>2379</ele>
        <time>2021-08-12T09:20:37.454Z</time>
      </trkpt>
      <trkpt lat="46.86047" lon="8.48444">
        <ele>2379</ele>
        <time>2021-08-12T09:20:38.455Z</time>
      </trkpt>
      <trkpt lat="46.86047" lon="8.48443">
        <ele>2380</ele>
        <time>2021-08-12T09:20:39.455Z</time>
      </trkpt>
      <trkpt lat="46.86047" lon="8.48444">
        <ele>2380</ele>
        <time>2021-08-12T09:20:40.455Z</time>
      </trkpt>
      <trkpt lat="46.86046" lon="8.48444">
        <ele>2381</ele>
        <time>2021-08-12T09:20:41.455Z</time>
      </trkpt>
      <trkpt lat="46.86047" lon="8.48444">
        <ele>2381</ele>
        <time>2021-08-12T09:20:42.454Z</time>
      </trkpt>
      <trkpt lat="46.86047" lon="8.48449">
        <ele>2383</ele>
        <time>2021-08-12T09:20:43.456Z</time>
      </trkpt>
      <trkpt lat="46.86046" lon="8.48449">
        <ele>2383</ele>
        <time>2021-08-12T09:20:44.456Z</time>
      </trkpt>
      <trkpt lat="46.86046" lon="8.48449">
        <ele>2384</ele>
        <time>2021-08-12T09:20:45.455Z</time>
      </trkpt>
      <trkpt lat="46.86046" lon="8.48448">
        <ele>2385</ele>
        <time>2021-08-12T09:20:46.455Z</time>
      </trkpt>
      <trkpt lat="46.86045" lon="8.48449">
        <ele>2385</ele>
        <time>2021-08-12T09:20:47.456Z</time>
      </trkpt>
      <trkpt lat="46.86044" lon="8.48449">
        <ele>2386</ele>
        <time>2021-08-12T09:20:48.456Z</time>
      </trkpt>
      <trkpt lat="46.86044" lon="8.4845">
        <ele>2386</ele>
        <time>2021-08-12T09:20:49.456Z</time>
      </trkpt>
      <trkpt lat="46.86043" lon="8.4845">
        <ele>2387</ele>
        <time>2021-08-12T09:20:50.455Z</time>
      </trkpt>
      <trkpt lat="46.86043" lon="8.48451">
        <ele>2387</ele>
        <time>2021-08-12T09:20:51.455Z</time>
      </trkpt>
      <trkpt lat="46.86042" lon="8.48451">
        <ele>2387</ele>
        <time>2021-08-12T09:20:52.455Z</time>
      </trkpt>
      <trkpt lat="46.86042" lon="8.48451">
        <ele>2387</ele>
        <time>2021-08-12T09:20:53.456Z</time>
      </trkpt>
      <trkpt lat="46.86041" lon="8.48451">
        <ele>2387</ele>
        <time>2021-08-12T09:20:54.455Z</time>
      </trkpt>
      <trkpt lat="46.86041" lon="8.48451">
        <ele>2387</ele>
        <time>2021-08-12T09:20:55.456Z</time>
      </trkpt>
      <trkpt lat="46.86041" lon="8.48451">
        <ele>2387</ele>
        <time>2021-08-12T09:20:56.456Z</time>
      </trkpt>
      <trkpt lat="46.8604" lon="8.48451">
        <ele>2387</ele>
        <time>2021-08-12T09:20:57.456Z</time>
      </trkpt>
      <trkpt lat="46.8604" lon="8.48451">
        <ele>2387</ele>
        <time>2021-08-12T09:20:58.456Z</time>
      </trkpt>
      <trkpt lat="46.86039" lon="8.48452">
        <ele>2387</ele>
        <time>2021-08-12T09:20:59.456Z</time>
      </trkpt>
      <trkpt lat="46.86039" lon="8.48453">
        <ele>2387</ele>
        <time>2021-08-12T09:21:00.456Z</time>
      </trkpt>
      <trkpt lat="46.86038" lon="8.48454">
        <ele>2387</ele>
        <time>2021-08-12T09:21:01.456Z</time>
      </trkpt>
      <trkpt lat="46.86038" lon="8.48453">
        <ele>2387</ele>
        <time>2021-08-12T09:21:02.455Z</time>
      </trkpt>
      <trkpt lat="46.86036" lon="8.48452">
        <ele>2386</ele>
        <time>2021-08-12T09:21:03.456Z</time>
      </trkpt>
      <trkpt lat="46.86035" lon="8.48452">
        <ele>2386</ele>
        <time>2021-08-12T09:21:04.455Z</time>
      </trkpt>
      <trkpt lat="46.86035" lon="8.48452">
        <ele>2385</ele>
        <time>2021-08-12T09:21:05.456Z</time>
      </trkpt>
      <trkpt lat="46.86035" lon="8.48451">
        <ele>2385</ele>
        <time>2021-08-12T09:21:06.456Z</time>
      </trkpt>
      <trkpt lat="46.86035" lon="8.48451">
        <ele>2384</ele>
        <time>2021-08-12T09:21:07.455Z</time>
      </trkpt>
      <trkpt lat="46.86035" lon="8.48451">
        <ele>2384</ele>
        <time>2021-08-12T09:21:08.455Z</time>
      </trkpt>
      <trkpt lat="46.86035" lon="8.48451">
        <ele>2384</ele>
        <time>2021-08-12T09:21:09.455Z</time>
      </trkpt>
      <trkpt lat="46.86035" lon="8.48451">
        <ele>2383</ele>
        <time>2021-08-12T09:21:10.456Z</time>
      </trkpt>
      <trkpt lat="46.86034" lon="8.48451">
        <ele>2383</ele>
        <time>2021-08-12T09:21:11.455Z</time>
      </trkpt>
      <trkpt lat="46.86034" lon="8.48451">
        <ele>2382</ele>
        <time>2021-08-12T09:21:12.455Z</time>
      </trkpt>
      <trkpt lat="46.86033" lon="8.48451">
        <ele>2382</ele>
        <time>2021-08-12T09:21:13.455Z</time>
      </trkpt>
      <trkpt lat="46.86032" lon="8.48452">
        <ele>2381</ele>
        <time>2021-08-12T09:21:14.455Z</time>
      </trkpt>
      <trkpt lat="46.86032" lon="8.48452">
        <ele>2381</ele>
        <time>2021-08-12T09:21:15.455Z</time>
      </trkpt>
      <trkpt lat="46.86031" lon="8.48452">
        <ele>2381</ele>
        <time>2021-08-12T09:21:16.455Z</time>
      </trkpt>
      <trkpt lat="46.8603" lon="8.48452">
        <ele>2380</ele>
        <time>2021-08-12T09:21:17.455Z</time>
      </trkpt>
      <trkpt lat="46.8603" lon="8.48453">
        <ele>2380</ele>
        <time>2021-08-12T09:21:18.455Z</time>
      </trkpt>
      <trkpt lat="46.86029" lon="8.48453">
        <ele>2380</ele>
        <time>2021-08-12T09:21:19.456Z</time>
      </trkpt>
      <trkpt lat="46.86029" lon="8.48453">
        <ele>2380</ele>
        <time>2021-08-12T09:21:20.455Z</time>
      </trkpt>
      <trkpt lat="46.86029" lon="8.48452">
        <ele>2380</ele>
        <time>2021-08-12T09:21:21.455Z</time>
      </trkpt>
      <trkpt lat="46.8603" lon="8.4845">
        <ele>2380</ele>
        <time>2021-08-12T09:21:22.455Z</time>
      </trkpt>
      <trkpt lat="46.86031" lon="8.48449">
        <ele>2380</ele>
        <time>2021-08-12T09:21:23.455Z</time>
      </trkpt>
      <trkpt lat="46.86031" lon="8.48449">
        <ele>2379</ele>
        <time>2021-08-12T09:21:24.455Z</time>
      </trkpt>
      <trkpt lat="46.86031" lon="8.48449">
        <ele>2380</ele>
        <time>2021-08-12T09:21:25.456Z</time>
      </trkpt>
      <trkpt lat="46.86031" lon="8.48448">
        <ele>2379</ele>
        <time>2021-08-12T09:21:26.455Z</time>
      </trkpt>
      <trkpt lat="46.8603" lon="8.48448">
        <ele>2379</ele>
        <time>2021-08-12T09:21:27.455Z</time>
      </trkpt>
      <trkpt lat="46.8603" lon="8.48447">
        <ele>2378</ele>
        <time>2021-08-12T09:21:28.456Z</time>
      </trkpt>
      <trkpt lat="46.86029" lon="8.48447">
        <ele>2378</ele>
        <time>2021-08-12T09:21:29.455Z</time>
      </trkpt>
      <trkpt lat="46.86028" lon="8.48446">
        <ele>2377</ele>
        <time>2021-08-12T09:21:30.456Z</time>
      </trkpt>
      <trkpt lat="46.86027" lon="8.48446">
        <ele>2376</ele>
        <time>2021-08-12T09:21:31.456Z</time>
      </trkpt>
      <trkpt lat="46.86027" lon="8.48446">
        <ele>2376</ele>
        <time>2021-08-12T09:21:32.455Z</time>
      </trkpt>
      <trkpt lat="46.86026" lon="8.48446">
        <ele>2376</ele>
        <time>2021-08-12T09:21:33.456Z</time>
      </trkpt>
      <trkpt lat="46.86025" lon="8.48447">
        <ele>2376</ele>
        <time>2021-08-12T09:21:34.456Z</time>
      </trkpt>
      <trkpt lat="46.86025" lon="8.48448">
        <ele>2376</ele>
        <time>2021-08-12T09:21:35.456Z</time>
      </trkpt>
      <trkpt lat="46.86024" lon="8.48449">
        <ele>2376</ele>
        <time>2021-08-12T09:21:36.456Z</time>
      </trkpt>
      <trkpt lat="46.86025" lon="8.48449">
        <ele>2376</ele>
        <time>2021-08-12T09:21:37.456Z</time>
      </trkpt>
      <trkpt lat="46.86024" lon="8.48449">
        <ele>2376</ele>
        <time>2021-08-12T09:21:38.455Z</time>
      </trkpt>
      <trkpt lat="46.86024" lon="8.48448">
        <ele>2376</ele>
        <time>2021-08-12T09:21:39.455Z</time>
      </trkpt>
      <trkpt lat="46.86024" lon="8.48448">
        <ele>2376</ele>
        <time>2021-08-12T09:21:40.456Z</time>
      </trkpt>
      <trkpt lat="46.86023" lon="8.48449">
        <ele>2376</ele>
        <time>2021-08-12T09:21:41.457Z</time>
      </trkpt>
      <trkpt lat="46.86023" lon="8.4845">
        <ele>2376</ele>
        <time>2021-08-12T09:21:42.457Z</time>
      </trkpt>
      <trkpt lat="46.86023" lon="8.48449">
        <ele>2376</ele>
        <time>2021-08-12T09:21:43.457Z</time>
      </trkpt>
      <trkpt lat="46.86023" lon="8.4845">
        <ele>2376</ele>
        <time>2021-08-12T09:21:44.457Z</time>
      </trkpt>
      <trkpt lat="46.86023" lon="8.48452">
        <ele>2379</ele>
        <time>2021-08-12T09:21:45.457Z</time>
      </trkpt>
      <trkpt lat="46.86022" lon="8.48453">
        <ele>2381</ele>
        <time>2021-08-12T09:21:46.456Z</time>
      </trkpt>
      <trkpt lat="46.86021" lon="8.48453">
        <ele>2382</ele>
        <time>2021-08-12T09:21:47.456Z</time>
      </trkpt>
      <trkpt lat="46.8602" lon="8.48452">
        <ele>2382</ele>
        <time>2021-08-12T09:21:48.456Z</time>
      </trkpt>
      <trkpt lat="46.86019" lon="8.48452">
        <ele>2383</ele>
        <time>2021-08-12T09:21:49.456Z</time>
      </trkpt>
      <trkpt lat="46.86018" lon="8.48452">
        <ele>2384</ele>
        <time>2021-08-12T09:21:50.456Z</time>
      </trkpt>
      <trkpt lat="46.86018" lon="8.48453">
        <ele>2385</ele>
        <time>2021-08-12T09:21:51.457Z</time>
      </trkpt>
      <trkpt lat="46.86018" lon="8.48454">
        <ele>2386</ele>
        <time>2021-08-12T09:21:52.456Z</time>
      </trkpt>
      <trkpt lat="46.86018" lon="8.48453">
        <ele>2386</ele>
        <time>2021-08-12T09:21:53.456Z</time>
      </trkpt>
      <trkpt lat="46.86018" lon="8.48452">
        <ele>2387</ele>
        <time>2021-08-12T09:21:54.456Z</time>
      </trkpt>
      <trkpt lat="46.86018" lon="8.48451">
        <ele>2388</ele>
        <time>2021-08-12T09:21:55.457Z</time>
      </trkpt>
      <trkpt lat="46.86018" lon="8.48451">
        <ele>2388</ele>
        <time>2021-08-12T09:21:56.456Z</time>
      </trkpt>
      <trkpt lat="46.86018" lon="8.48451">
        <ele>2389</ele>
        <time>2021-08-12T09:21:57.456Z</time>
      </trkpt>
      <trkpt lat="46.86018" lon="8.48451">
        <ele>2389</ele>
        <time>2021-08-12T09:21:58.457Z</time>
      </trkpt>
      <trkpt lat="46.86019" lon="8.4845">
        <ele>2389</ele>
        <time>2021-08-12T09:21:59.456Z</time>
      </trkpt>
      <trkpt lat="46.86019" lon="8.48449">
        <ele>2390</ele>
        <time>2021-08-12T09:22:00.456Z</time>
      </trkpt>
      <trkpt lat="46.8602" lon="8.48448">
        <ele>2390</ele>
        <time>2021-08-12T09:22:01.457Z</time>
      </trkpt>
      <trkpt lat="46.8602" lon="8.48448">
        <ele>2389</ele>
        <time>2021-08-12T09:22:02.456Z</time>
      </trkpt>
      <trkpt lat="46.86019" lon="8.48449">
        <ele>2390</ele>
        <time>2021-08-12T09:22:03.457Z</time>
      </trkpt>
      <trkpt lat="46.86017" lon="8.48451">
        <ele>2390</ele>
        <time>2021-08-12T09:22:04.456Z</time>
      </trkpt>
      <trkpt lat="46.86016" lon="8.48452">
        <ele>2390</ele>
        <time>2021-08-12T09:22:05.456Z</time>
      </trkpt>
      <trkpt lat="46.86016" lon="8.48452">
        <ele>2390</ele>
        <time>2021-08-12T09:22:06.456Z</time>
      </trkpt>
      <trkpt lat="46.86015" lon="8.48453">
        <ele>2390</ele>
        <time>2021-08-12T09:22:07.456Z</time>
      </trkpt>
      <trkpt lat="46.86014" lon="8.48453">
        <ele>2390</ele>
        <time>2021-08-12T09:22:08.456Z</time>
      </trkpt>
      <trkpt lat="46.86014" lon="8.48454">
        <ele>2390</ele>
        <time>2021-08-12T09:22:09.457Z</time>
      </trkpt>
      <trkpt lat="46.86014" lon="8.48454">
        <ele>2390</ele>
        <time>2021-08-12T09:22:10.457Z</time>
      </trkpt>
      <trkpt lat="46.86013" lon="8.48454">
        <ele>2391</ele>
        <time>2021-08-12T09:22:11.457Z</time>
      </trkpt>
      <trkpt lat="46.86013" lon="8.48453">
        <ele>2391</ele>
        <time>2021-08-12T09:22:12.457Z</time>
      </trkpt>
      <trkpt lat="46.86012" lon="8.48453">
        <ele>2391</ele>
        <time>2021-08-12T09:22:13.456Z</time>
      </trkpt>
      <trkpt lat="46.86011" lon="8.48454">
        <ele>2391</ele>
        <time>2021-08-12T09:22:14.456Z</time>
      </trkpt>
      <trkpt lat="46.8601" lon="8.48455">
        <ele>2392</ele>
        <time>2021-08-12T09:22:15.456Z</time>
      </trkpt>
      <trkpt lat="46.8601" lon="8.48456">
        <ele>2392</ele>
        <time>2021-08-12T09:22:16.456Z</time>
      </trkpt>
      <trkpt lat="46.86009" lon="8.48457">
        <ele>2393</ele>
        <time>2021-08-12T09:22:17.456Z</time>
      </trkpt>
      <trkpt lat="46.86007" lon="8.48459">
        <ele>2393</ele>
        <time>2021-08-12T09:22:18.457Z</time>
      </trkpt>
      <trkpt lat="46.86006" lon="8.48461">
        <ele>2394</ele>
        <time>2021-08-12T09:22:19.456Z</time>
      </trkpt>
      <trkpt lat="46.86005" lon="8.48462">
        <ele>2395</ele>
        <time>2021-08-12T09:22:20.456Z</time>
      </trkpt>
      <trkpt lat="46.86005" lon="8.48462">
        <ele>2395</ele>
        <time>2021-08-12T09:22:21.456Z</time>
      </trkpt>
      <trkpt lat="46.86004" lon="8.48463">
        <ele>2395</ele>
        <time>2021-08-12T09:22:22.456Z</time>
      </trkpt>
      <trkpt lat="46.86003" lon="8.48463">
        <ele>2394</ele>
        <time>2021-08-12T09:22:23.457Z</time>
      </trkpt>
      <trkpt lat="46.86002" lon="8.48463">
        <ele>2394</ele>
        <time>2021-08-12T09:22:24.457Z</time>
      </trkpt>
      <trkpt lat="46.86001" lon="8.48463">
        <ele>2393</ele>
        <time>2021-08-12T09:22:25.456Z</time>
      </trkpt>
      <trkpt lat="46.86" lon="8.48462">
        <ele>2392</ele>
        <time>2021-08-12T09:22:26.457Z</time>
      </trkpt>
      <trkpt lat="46.85999" lon="8.48463">
        <ele>2392</ele>
        <time>2021-08-12T09:22:27.456Z</time>
      </trkpt>
      <trkpt lat="46.85998" lon="8.48464">
        <ele>2391</ele>
        <time>2021-08-12T09:22:28.457Z</time>
      </trkpt>
      <trkpt lat="46.85998" lon="8.48465">
        <ele>2391</ele>
        <time>2021-08-12T09:22:29.457Z</time>
      </trkpt>
      <trkpt lat="46.85998" lon="8.48465">
        <ele>2390</ele>
        <time>2021-08-12T09:22:30.457Z</time>
      </trkpt>
      <trkpt lat="46.85998" lon="8.48465">
        <ele>2389</ele>
        <time>2021-08-12T09:22:31.456Z</time>
      </trkpt>
      <trkpt lat="46.85998" lon="8.48465">
        <ele>2389</ele>
        <time>2021-08-12T09:22:32.456Z</time>
      </trkpt>
      <trkpt lat="46.85998" lon="8.48465">
        <ele>2388</ele>
        <time>2021-08-12T09:22:33.456Z</time>
      </trkpt>
      <trkpt lat="46.85998" lon="8.48464">
        <ele>2388</ele>
        <time>2021-08-12T09:22:34.457Z</time>
      </trkpt>
      <trkpt lat="46.85997" lon="8.48464">
        <ele>2388</ele>
        <time>2021-08-12T09:22:35.457Z</time>
      </trkpt>
      <trkpt lat="46.85996" lon="8.48464">
        <ele>2388</ele>
        <time>2021-08-12T09:22:36.456Z</time>
      </trkpt>
      <trkpt lat="46.85996" lon="8.48463">
        <ele>2388</ele>
        <time>2021-08-12T09:22:37.456Z</time>
      </trkpt>
      <trkpt lat="46.85995" lon="8.48462">
        <ele>2388</ele>
        <time>2021-08-12T09:22:38.456Z</time>
      </trkpt>
      <trkpt lat="46.85995" lon="8.48462">
        <ele>2388</ele>
        <time>2021-08-12T09:22:39.456Z</time>
      </trkpt>
      <trkpt lat="46.85995" lon="8.48461">
        <ele>2388</ele>
        <time>2021-08-12T09:22:40.457Z</time>
      </trkpt>
      <trkpt lat="46.85995" lon="8.48461">
        <ele>2388</ele>
        <time>2021-08-12T09:22:41.456Z</time>
      </trkpt>
      <trkpt lat="46.85995" lon="8.4846">
        <ele>2388</ele>
        <time>2021-08-12T09:22:42.456Z</time>
      </trkpt>
      <trkpt lat="46.85995" lon="8.4846">
        <ele>2388</ele>
        <time>2021-08-12T09:22:43.456Z</time>
      </trkpt>
      <trkpt lat="46.85995" lon="8.48459">
        <ele>2389</ele>
        <time>2021-08-12T09:22:44.456Z</time>
      </trkpt>
      <trkpt lat="46.85995" lon="8.48459">
        <ele>2389</ele>
        <time>2021-08-12T09:22:45.456Z</time>
      </trkpt>
      <trkpt lat="46.85994" lon="8.48458">
        <ele>2389</ele>
        <time>2021-08-12T09:22:46.457Z</time>
      </trkpt>
      <trkpt lat="46.85994" lon="8.48459">
        <ele>2389</ele>
        <time>2021-08-12T09:22:47.457Z</time>
      </trkpt>
      <trkpt lat="46.85994" lon="8.48459">
        <ele>2390</ele>
        <time>2021-08-12T09:22:48.456Z</time>
      </trkpt>
      <trkpt lat="46.85994" lon="8.4846">
        <ele>2390</ele>
        <time>2021-08-12T09:22:49.456Z</time>
      </trkpt>
      <trkpt lat="46.85993" lon="8.48459">
        <ele>2389</ele>
        <time>2021-08-12T09:22:50.457Z</time>
      </trkpt>
      <trkpt lat="46.85993" lon="8.48459">
        <ele>2389</ele>
        <time>2021-08-12T09:22:51.457Z</time>
      </trkpt>
      <trkpt lat="46.85992" lon="8.48459">
        <ele>2389</ele>
        <time>2021-08-12T09:22:52.457Z</time>
      </trkpt>
      <trkpt lat="46.85992" lon="8.48459">
        <ele>2389</ele>
        <time>2021-08-12T09:22:53.457Z</time>
      </trkpt>
      <trkpt lat="46.85992" lon="8.48459">
        <ele>2389</ele>
        <time>2021-08-12T09:22:54.457Z</time>
      </trkpt>
      <trkpt lat="46.85991" lon="8.48459">
        <ele>2389</ele>
        <time>2021-08-12T09:22:55.456Z</time>
      </trkpt>
      <trkpt lat="46.85991" lon="8.48458">
        <ele>2389</ele>
        <time>2021-08-12T09:22:56.456Z</time>
      </trkpt>
      <trkpt lat="46.85987" lon="8.48465">
        <ele>2388</ele>
        <time>2021-08-12T09:22:57.456Z</time>
      </trkpt>
      <trkpt lat="46.85987" lon="8.48466">
        <ele>2388</ele>
        <time>2021-08-12T09:22:58.456Z</time>
      </trkpt>
      <trkpt lat="46.85986" lon="8.48467">
        <ele>2388</ele>
        <time>2021-08-12T09:22:59.456Z</time>
      </trkpt>
      <trkpt lat="46.85986" lon="8.48468">
        <ele>2389</ele>
        <time>2021-08-12T09:23:00.457Z</time>
      </trkpt>
      <trkpt lat="46.85986" lon="8.48468">
        <ele>2389</ele>
        <time>2021-08-12T09:23:01.457Z</time>
      </trkpt>
      <trkpt lat="46.85986" lon="8.48468">
        <ele>2389</ele>
        <time>2021-08-12T09:23:02.456Z</time>
      </trkpt>
      <trkpt lat="46.85988" lon="8.48465">
        <ele>2389</ele>
        <time>2021-08-12T09:23:03.456Z</time>
      </trkpt>
      <trkpt lat="46.85989" lon="8.48461">
        <ele>2389</ele>
        <time>2021-08-12T09:23:04.457Z</time>
      </trkpt>
      <trkpt lat="46.85989" lon="8.48456">
        <ele>2389</ele>
        <time>2021-08-12T09:23:05.456Z</time>
      </trkpt>
      <trkpt lat="46.85991" lon="8.48452">
        <ele>2389</ele>
        <time>2021-08-12T09:23:06.456Z</time>
      </trkpt>
      <trkpt lat="46.85993" lon="8.48448">
        <ele>2389</ele>
        <time>2021-08-12T09:23:07.457Z</time>
      </trkpt>
      <trkpt lat="46.85994" lon="8.48444">
        <ele>2389</ele>
        <time>2021-08-12T09:23:08.456Z</time>
      </trkpt>
      <trkpt lat="46.85996" lon="8.4844">
        <ele>2389</ele>
        <time>2021-08-12T09:23:09.457Z</time>
      </trkpt>
      <trkpt lat="46.85996" lon="8.48439">
        <ele>2389</ele>
        <time>2021-08-12T09:23:10.456Z</time>
      </trkpt>
      <trkpt lat="46.85997" lon="8.48438">
        <ele>2389</ele>
        <time>2021-08-12T09:23:11.456Z</time>
      </trkpt>
      <trkpt lat="46.85997" lon="8.48437">
        <ele>2389</ele>
        <time>2021-08-12T09:23:12.456Z</time>
      </trkpt>
      <trkpt lat="46.85997" lon="8.48437">
        <ele>2390</ele>
        <time>2021-08-12T09:23:13.457Z</time>
      </trkpt>
      <trkpt lat="46.85996" lon="8.48438">
        <ele>2390</ele>
        <time>2021-08-12T09:23:14.457Z</time>
      </trkpt>
      <trkpt lat="46.85995" lon="8.48441">
        <ele>2390</ele>
        <time>2021-08-12T09:23:15.456Z</time>
      </trkpt>
      <trkpt lat="46.85994" lon="8.48443">
        <ele>2390</ele>
        <time>2021-08-12T09:23:16.457Z</time>
      </trkpt>
      <trkpt lat="46.85993" lon="8.48445">
        <ele>2390</ele>
        <time>2021-08-12T09:23:17.457Z</time>
      </trkpt>
      <trkpt lat="46.85991" lon="8.48445">
        <ele>2390</ele>
        <time>2021-08-12T09:23:18.456Z</time>
      </trkpt>
      <trkpt lat="46.8599" lon="8.48446">
        <ele>2390</ele>
        <time>2021-08-12T09:23:19.456Z</time>
      </trkpt>
      <trkpt lat="46.8599" lon="8.48446">
        <ele>2390</ele>
        <time>2021-08-12T09:23:20.457Z</time>
      </trkpt>
      <trkpt lat="46.85989" lon="8.48446">
        <ele>2390</ele>
        <time>2021-08-12T09:23:21.457Z</time>
      </trkpt>
      <trkpt lat="46.85988" lon="8.48446">
        <ele>2390</ele>
        <time>2021-08-12T09:23:22.457Z</time>
      </trkpt>
      <trkpt lat="46.85987" lon="8.48446">
        <ele>2390</ele>
        <time>2021-08-12T09:23:23.457Z</time>
      </trkpt>
      <trkpt lat="46.85986" lon="8.48445">
        <ele>2390</ele>
        <time>2021-08-12T09:23:24.457Z</time>
      </trkpt>
      <trkpt lat="46.85985" lon="8.48445">
        <ele>2390</ele>
        <time>2021-08-12T09:23:25.456Z</time>
      </trkpt>
      <trkpt lat="46.85985" lon="8.48445">
        <ele>2390</ele>
        <time>2021-08-12T09:23:26.456Z</time>
      </trkpt>
      <trkpt lat="46.85984" lon="8.48445">
        <ele>2390</ele>
        <time>2021-08-12T09:23:27.456Z</time>
      </trkpt>
      <trkpt lat="46.85984" lon="8.48445">
        <ele>2390</ele>
        <time>2021-08-12T09:23:28.457Z</time>
      </trkpt>
      <trkpt lat="46.85984" lon="8.48444">
        <ele>2390</ele>
        <time>2021-08-12T09:23:29.457Z</time>
      </trkpt>
      <trkpt lat="46.85984" lon="8.48443">
        <ele>2390</ele>
        <time>2021-08-12T09:23:30.457Z</time>
      </trkpt>
      <trkpt lat="46.85983" lon="8.48443">
        <ele>2390</ele>
        <time>2021-08-12T09:23:31.457Z</time>
      </trkpt>
      <trkpt lat="46.85983" lon="8.48444">
        <ele>2390</ele>
        <time>2021-08-12T09:23:32.456Z</time>
      </trkpt>
      <trkpt lat="46.85982" lon="8.48446">
        <ele>2390</ele>
        <time>2021-08-12T09:23:33.456Z</time>
      </trkpt>
      <trkpt lat="46.85982" lon="8.48449">
        <ele>2390</ele>
        <time>2021-08-12T09:23:34.457Z</time>
      </trkpt>
      <trkpt lat="46.85982" lon="8.48452">
        <ele>2390</ele>
        <time>2021-08-12T09:23:35.456Z</time>
      </trkpt>
      <trkpt lat="46.85983" lon="8.48457">
        <ele>2390</ele>
        <time>2021-08-12T09:23:36.457Z</time>
      </trkpt>
      <trkpt lat="46.85983" lon="8.48457">
        <ele>2390</ele>
        <time>2021-08-12T09:23:37.457Z</time>
      </trkpt>
      <trkpt lat="46.85983" lon="8.48458">
        <ele>2390</ele>
        <time>2021-08-12T09:23:38.456Z</time>
      </trkpt>
      <trkpt lat="46.85983" lon="8.48459">
        <ele>2390</ele>
        <time>2021-08-12T09:23:39.457Z</time>
      </trkpt>
      <trkpt lat="46.85983" lon="8.48459">
        <ele>2390</ele>
        <time>2021-08-12T09:23:40.457Z</time>
      </trkpt>
      <trkpt lat="46.85982" lon="8.48461">
        <ele>2390</ele>
        <time>2021-08-12T09:23:41.457Z</time>
      </trkpt>
      <trkpt lat="46.85982" lon="8.48459">
        <ele>2391</ele>
        <time>2021-08-12T09:23:42.457Z</time>
      </trkpt>
      <trkpt lat="46.85982" lon="8.48456">
        <ele>2392</ele>
        <time>2021-08-12T09:23:43.457Z</time>
      </trkpt>
      <trkpt lat="46.8598" lon="8.48456">
        <ele>2392</ele>
        <time>2021-08-12T09:23:44.456Z</time>
      </trkpt>
      <trkpt lat="46.85979" lon="8.48454">
        <ele>2393</ele>
        <time>2021-08-12T09:23:45.457Z</time>
      </trkpt>
      <trkpt lat="46.8598" lon="8.48452">
        <ele>2393</ele>
        <time>2021-08-12T09:23:46.456Z</time>
      </trkpt>
      <trkpt lat="46.85981" lon="8.4845">
        <ele>2393</ele>
        <time>2021-08-12T09:23:47.457Z</time>
      </trkpt>
      <trkpt lat="46.8598" lon="8.48449">
        <ele>2393</ele>
        <time>2021-08-12T09:23:48.457Z</time>
      </trkpt>
      <trkpt lat="46.8598" lon="8.48449">
        <ele>2393</ele>
        <time>2021-08-12T09:23:49.457Z</time>
      </trkpt>
      <trkpt lat="46.85981" lon="8.48448">
        <ele>2393</ele>
        <time>2021-08-12T09:23:50.457Z</time>
      </trkpt>
      <trkpt lat="46.85981" lon="8.48448">
        <ele>2393</ele>
        <time>2021-08-12T09:23:51.456Z</time>
      </trkpt>
      <trkpt lat="46.8598" lon="8.48449">
        <ele>2393</ele>
        <time>2021-08-12T09:23:52.456Z</time>
      </trkpt>
      <trkpt lat="46.85971" lon="8.48466">
        <ele>2404</ele>
        <time>2021-08-12T09:23:53.458Z</time>
      </trkpt>
      <trkpt lat="46.85973" lon="8.48464">
        <ele>2405</ele>
        <time>2021-08-12T09:23:54.457Z</time>
      </trkpt>
      <trkpt lat="46.85974" lon="8.48464">
        <ele>2406</ele>
        <time>2021-08-12T09:23:55.457Z</time>
      </trkpt>
      <trkpt lat="46.85974" lon="8.48462">
        <ele>2414</ele>
        <time>2021-08-12T09:23:56.458Z</time>
      </trkpt>
      <trkpt lat="46.85975" lon="8.48462">
        <ele>2414</ele>
        <time>2021-08-12T09:23:57.458Z</time>
      </trkpt>
      <trkpt lat="46.85975" lon="8.48462">
        <ele>2415</ele>
        <time>2021-08-12T09:23:58.457Z</time>
      </trkpt>
      <trkpt lat="46.85976" lon="8.48465">
        <ele>2417</ele>
        <time>2021-08-12T09:23:59.459Z</time>
      </trkpt>
      <trkpt lat="46.85976" lon="8.48466">
        <ele>2416</ele>
        <time>2021-08-12T09:24:00.458Z</time>
      </trkpt>
      <trkpt lat="46.85976" lon="8.48466">
        <ele>2416</ele>
        <time>2021-08-12T09:24:01.458Z</time>
      </trkpt>
      <trkpt lat="46.85975" lon="8.48466">
        <ele>2415</ele>
        <time>2021-08-12T09:24:02.458Z</time>
      </trkpt>
      <trkpt lat="46.85975" lon="8.48467">
        <ele>2414</ele>
        <time>2021-08-12T09:24:03.459Z</time>
      </trkpt>
      <trkpt lat="46.85974" lon="8.48467">
        <ele>2414</ele>
        <time>2021-08-12T09:24:04.458Z</time>
      </trkpt>
      <trkpt lat="46.85974" lon="8.48468">
        <ele>2413</ele>
        <time>2021-08-12T09:24:05.458Z</time>
      </trkpt>
      <trkpt lat="46.85974" lon="8.48468">
        <ele>2413</ele>
        <time>2021-08-12T09:24:06.459Z</time>
      </trkpt>
      <trkpt lat="46.85974" lon="8.48469">
        <ele>2412</ele>
        <time>2021-08-12T09:24:07.459Z</time>
      </trkpt>
      <trkpt lat="46.85973" lon="8.48469">
        <ele>2412</ele>
        <time>2021-08-12T09:24:08.459Z</time>
      </trkpt>
      <trkpt lat="46.85973" lon="8.48469">
        <ele>2411</ele>
        <time>2021-08-12T09:24:09.459Z</time>
      </trkpt>
      <trkpt lat="46.85973" lon="8.48468">
        <ele>2411</ele>
        <time>2021-08-12T09:24:10.459Z</time>
      </trkpt>
      <trkpt lat="46.85973" lon="8.48468">
        <ele>2410</ele>
        <time>2021-08-12T09:24:11.459Z</time>
      </trkpt>
      <trkpt lat="46.85973" lon="8.48467">
        <ele>2410</ele>
        <time>2021-08-12T09:24:12.459Z</time>
      </trkpt>
      <trkpt lat="46.85973" lon="8.48466">
        <ele>2410</ele>
        <time>2021-08-12T09:24:13.459Z</time>
      </trkpt>
      <trkpt lat="46.85971" lon="8.48464">
        <ele>2410</ele>
        <time>2021-08-12T09:24:14.459Z</time>
      </trkpt>
      <trkpt lat="46.85972" lon="8.48462">
        <ele>2410</ele>
        <time>2021-08-12T09:24:15.459Z</time>
      </trkpt>
      <trkpt lat="46.85972" lon="8.4846">
        <ele>2410</ele>
        <time>2021-08-12T09:24:16.459Z</time>
      </trkpt>
      <trkpt lat="46.85971" lon="8.48458">
        <ele>2410</ele>
        <time>2021-08-12T09:24:17.459Z</time>
      </trkpt>
      <trkpt lat="46.85971" lon="8.48457">
        <ele>2411</ele>
        <time>2021-08-12T09:24:18.459Z</time>
      </trkpt>
      <trkpt lat="46.8597" lon="8.48456">
        <ele>2411</ele>
        <time>2021-08-12T09:24:19.458Z</time>
      </trkpt>
      <trkpt lat="46.8597" lon="8.48456">
        <ele>2411</ele>
        <time>2021-08-12T09:24:20.459Z</time>
      </trkpt>
      <trkpt lat="46.8597" lon="8.48456">
        <ele>2411</ele>
        <time>2021-08-12T09:24:21.459Z</time>
      </trkpt>
      <trkpt lat="46.85969" lon="8.48456">
        <ele>2411</ele>
        <time>2021-08-12T09:24:22.459Z</time>
      </trkpt>
      <trkpt lat="46.85969" lon="8.48455">
        <ele>2411</ele>
        <time>2021-08-12T09:24:23.459Z</time>
      </trkpt>
      <trkpt lat="46.85969" lon="8.48455">
        <ele>2411</ele>
        <time>2021-08-12T09:24:24.459Z</time>
      </trkpt>
      <trkpt lat="46.85969" lon="8.48455">
        <ele>2411</ele>
        <time>2021-08-12T09:24:25.459Z</time>
      </trkpt>
      <trkpt lat="46.85968" lon="8.48455">
        <ele>2410</ele>
        <time>2021-08-12T09:24:26.459Z</time>
      </trkpt>
      <trkpt lat="46.85967" lon="8.48456">
        <ele>2410</ele>
        <time>2021-08-12T09:24:27.459Z</time>
      </trkpt>
      <trkpt lat="46.85966" lon="8.48457">
        <ele>2410</ele>
        <time>2021-08-12T09:24:28.459Z</time>
      </trkpt>
      <trkpt lat="46.85966" lon="8.48457">
        <ele>2410</ele>
        <time>2021-08-12T09:24:29.459Z</time>
      </trkpt>
      <trkpt lat="46.85964" lon="8.48458">
        <ele>2410</ele>
        <time>2021-08-12T09:24:30.459Z</time>
      </trkpt>
      <trkpt lat="46.85963" lon="8.48458">
        <ele>2409</ele>
        <time>2021-08-12T09:24:31.459Z</time>
      </trkpt>
      <trkpt lat="46.85962" lon="8.48459">
        <ele>2409</ele>
        <time>2021-08-12T09:24:32.458Z</time>
      </trkpt>
      <trkpt lat="46.85962" lon="8.48459">
        <ele>2408</ele>
        <time>2021-08-12T09:24:33.459Z</time>
      </trkpt>
      <trkpt lat="46.85961" lon="8.4846">
        <ele>2408</ele>
        <time>2021-08-12T09:24:34.459Z</time>
      </trkpt>
      <trkpt lat="46.8596" lon="8.48461">
        <ele>2407</ele>
        <time>2021-08-12T09:24:35.459Z</time>
      </trkpt>
      <trkpt lat="46.8596" lon="8.48461">
        <ele>2407</ele>
        <time>2021-08-12T09:24:36.458Z</time>
      </trkpt>
      <trkpt lat="46.85959" lon="8.48462">
        <ele>2407</ele>
        <time>2021-08-12T09:24:37.459Z</time>
      </trkpt>
      <trkpt lat="46.85958" lon="8.48462">
        <ele>2406</ele>
        <time>2021-08-12T09:24:38.459Z</time>
      </trkpt>
      <trkpt lat="46.85958" lon="8.48463">
        <ele>2406</ele>
        <time>2021-08-12T09:24:39.459Z</time>
      </trkpt>
      <trkpt lat="46.85958" lon="8.48463">
        <ele>2407</ele>
        <time>2021-08-12T09:24:40.459Z</time>
      </trkpt>
      <trkpt lat="46.85957" lon="8.48463">
        <ele>2407</ele>
        <time>2021-08-12T09:24:41.458Z</time>
      </trkpt>
      <trkpt lat="46.85957" lon="8.48463">
        <ele>2407</ele>
        <time>2021-08-12T09:24:42.459Z</time>
      </trkpt>
      <trkpt lat="46.85957" lon="8.48463">
        <ele>2407</ele>
        <time>2021-08-12T09:24:43.458Z</time>
      </trkpt>
      <trkpt lat="46.85957" lon="8.48464">
        <ele>2407</ele>
        <time>2021-08-12T09:24:44.459Z</time>
      </trkpt>
      <trkpt lat="46.85957" lon="8.48464">
        <ele>2406</ele>
        <time>2021-08-12T09:24:45.459Z</time>
      </trkpt>
      <trkpt lat="46.85957" lon="8.48464">
        <ele>2406</ele>
        <time>2021-08-12T09:24:46.459Z</time>
      </trkpt>
      <trkpt lat="46.85956" lon="8.48464">
        <ele>2405</ele>
        <time>2021-08-12T09:24:47.459Z</time>
      </trkpt>
      <trkpt lat="46.85956" lon="8.48464">
        <ele>2405</ele>
        <time>2021-08-12T09:24:48.459Z</time>
      </trkpt>
      <trkpt lat="46.85955" lon="8.48464">
        <ele>2404</ele>
        <time>2021-08-12T09:24:49.458Z</time>
      </trkpt>
      <trkpt lat="46.85954" lon="8.48464">
        <ele>2404</ele>
        <time>2021-08-12T09:24:50.459Z</time>
      </trkpt>
      <trkpt lat="46.85953" lon="8.48464">
        <ele>2404</ele>
        <time>2021-08-12T09:24:51.458Z</time>
      </trkpt>
      <trkpt lat="46.85952" lon="8.48464">
        <ele>2403</ele>
        <time>2021-08-12T09:24:52.459Z</time>
      </trkpt>
      <trkpt lat="46.85952" lon="8.48464">
        <ele>2403</ele>
        <time>2021-08-12T09:24:53.459Z</time>
      </trkpt>
      <trkpt lat="46.85951" lon="8.48465">
        <ele>2403</ele>
        <time>2021-08-12T09:24:54.458Z</time>
      </trkpt>
      <trkpt lat="46.8595" lon="8.48465">
        <ele>2403</ele>
        <time>2021-08-12T09:24:55.459Z</time>
      </trkpt>
      <trkpt lat="46.8595" lon="8.48465">
        <ele>2402</ele>
        <time>2021-08-12T09:24:56.459Z</time>
      </trkpt>
      <trkpt lat="46.8595" lon="8.48466">
        <ele>2402</ele>
        <time>2021-08-12T09:24:57.459Z</time>
      </trkpt>
      <trkpt lat="46.85949" lon="8.48467">
        <ele>2403</ele>
        <time>2021-08-12T09:24:58.459Z</time>
      </trkpt>
      <trkpt lat="46.85947" lon="8.48468">
        <ele>2403</ele>
        <time>2021-08-12T09:24:59.458Z</time>
      </trkpt>
      <trkpt lat="46.85946" lon="8.48467">
        <ele>2403</ele>
        <time>2021-08-12T09:25:00.459Z</time>
      </trkpt>
      <trkpt lat="46.85945" lon="8.48467">
        <ele>2403</ele>
        <time>2021-08-12T09:25:01.458Z</time>
      </trkpt>
      <trkpt lat="46.85944" lon="8.48467">
        <ele>2403</ele>
        <time>2021-08-12T09:25:02.459Z</time>
      </trkpt>
      <trkpt lat="46.85943" lon="8.48467">
        <ele>2404</ele>
        <time>2021-08-12T09:25:03.459Z</time>
      </trkpt>
      <trkpt lat="46.85943" lon="8.48468">
        <ele>2404</ele>
        <time>2021-08-12T09:25:04.459Z</time>
      </trkpt>
      <trkpt lat="46.85942" lon="8.48468">
        <ele>2405</ele>
        <time>2021-08-12T09:25:05.459Z</time>
      </trkpt>
      <trkpt lat="46.85942" lon="8.48468">
        <ele>2405</ele>
        <time>2021-08-12T09:25:06.459Z</time>
      </trkpt>
      <trkpt lat="46.85941" lon="8.48469">
        <ele>2405</ele>
        <time>2021-08-12T09:25:07.459Z</time>
      </trkpt>
      <trkpt lat="46.8594" lon="8.48469">
        <ele>2404</ele>
        <time>2021-08-12T09:25:08.459Z</time>
      </trkpt>
      <trkpt lat="46.8594" lon="8.4847">
        <ele>2404</ele>
        <time>2021-08-12T09:25:09.458Z</time>
      </trkpt>
      <trkpt lat="46.8594" lon="8.4847">
        <ele>2404</ele>
        <time>2021-08-12T09:25:10.458Z</time>
      </trkpt>
      <trkpt lat="46.85939" lon="8.4847">
        <ele>2403</ele>
        <time>2021-08-12T09:25:11.459Z</time>
      </trkpt>
      <trkpt lat="46.85939" lon="8.4847">
        <ele>2403</ele>
        <time>2021-08-12T09:25:12.459Z</time>
      </trkpt>
      <trkpt lat="46.85937" lon="8.4847">
        <ele>2403</ele>
        <time>2021-08-12T09:25:13.458Z</time>
      </trkpt>
      <trkpt lat="46.85937" lon="8.48471">
        <ele>2403</ele>
        <time>2021-08-12T09:25:14.459Z</time>
      </trkpt>
      <trkpt lat="46.85937" lon="8.48471">
        <ele>2402</ele>
        <time>2021-08-12T09:25:15.459Z</time>
      </trkpt>
      <trkpt lat="46.85936" lon="8.48471">
        <ele>2402</ele>
        <time>2021-08-12T09:25:16.459Z</time>
      </trkpt>
      <trkpt lat="46.85935" lon="8.48471">
        <ele>2401</ele>
        <time>2021-08-12T09:25:17.459Z</time>
      </trkpt>
      <trkpt lat="46.85934" lon="8.48471">
        <ele>2401</ele>
        <time>2021-08-12T09:25:18.458Z</time>
      </trkpt>
      <trkpt lat="46.85932" lon="8.48471">
        <ele>2401</ele>
        <time>2021-08-12T09:25:19.459Z</time>
      </trkpt>
      <trkpt lat="46.85931" lon="8.48471">
        <ele>2401</ele>
        <time>2021-08-12T09:25:20.458Z</time>
      </trkpt>
      <trkpt lat="46.85929" lon="8.48473">
        <ele>2400</ele>
        <time>2021-08-12T09:25:21.459Z</time>
      </trkpt>
      <trkpt lat="46.85927" lon="8.48475">
        <ele>2400</ele>
        <time>2021-08-12T09:25:22.458Z</time>
      </trkpt>
      <trkpt lat="46.85926" lon="8.48476">
        <ele>2400</ele>
        <time>2021-08-12T09:25:23.458Z</time>
      </trkpt>
      <trkpt lat="46.85924" lon="8.48477">
        <ele>2400</ele>
        <time>2021-08-12T09:25:24.458Z</time>
      </trkpt>
      <trkpt lat="46.85923" lon="8.48477">
        <ele>2400</ele>
        <time>2021-08-12T09:25:25.459Z</time>
      </trkpt>
      <trkpt lat="46.85923" lon="8.48477">
        <ele>2400</ele>
        <time>2021-08-12T09:25:26.458Z</time>
      </trkpt>
      <trkpt lat="46.85924" lon="8.48475">
        <ele>2401</ele>
        <time>2021-08-12T09:25:27.459Z</time>
      </trkpt>
      <trkpt lat="46.85924" lon="8.48474">
        <ele>2401</ele>
        <time>2021-08-12T09:25:28.459Z</time>
      </trkpt>
      <trkpt lat="46.85924" lon="8.48474">
        <ele>2401</ele>
        <time>2021-08-12T09:25:29.458Z</time>
      </trkpt>
      <trkpt lat="46.85923" lon="8.48474">
        <ele>2401</ele>
        <time>2021-08-12T09:25:30.459Z</time>
      </trkpt>
      <trkpt lat="46.85922" lon="8.48474">
        <ele>2401</ele>
        <time>2021-08-12T09:25:31.459Z</time>
      </trkpt>
      <trkpt lat="46.85921" lon="8.48474">
        <ele>2401</ele>
        <time>2021-08-12T09:25:32.459Z</time>
      </trkpt>
      <trkpt lat="46.8592" lon="8.48474">
        <ele>2401</ele>
        <time>2021-08-12T09:25:33.459Z</time>
      </trkpt>
      <trkpt lat="46.85919" lon="8.48475">
        <ele>2401</ele>
        <time>2021-08-12T09:25:34.458Z</time>
      </trkpt>
      <trkpt lat="46.85919" lon="8.48475">
        <ele>2401</ele>
        <time>2021-08-12T09:25:35.459Z</time>
      </trkpt>
      <trkpt lat="46.85918" lon="8.48476">
        <ele>2402</ele>
        <time>2021-08-12T09:25:36.459Z</time>
      </trkpt>
      <trkpt lat="46.85918" lon="8.48477">
        <ele>2401</ele>
        <time>2021-08-12T09:25:37.459Z</time>
      </trkpt>
      <trkpt lat="46.85917" lon="8.48478">
        <ele>2401</ele>
        <time>2021-08-12T09:25:38.459Z</time>
      </trkpt>
      <trkpt lat="46.85916" lon="8.48478">
        <ele>2401</ele>
        <time>2021-08-12T09:25:39.459Z</time>
      </trkpt>
      <trkpt lat="46.85916" lon="8.48479">
        <ele>2400</ele>
        <time>2021-08-12T09:25:40.458Z</time>
      </trkpt>
      <trkpt lat="46.85915" lon="8.4848">
        <ele>2400</ele>
        <time>2021-08-12T09:25:41.459Z</time>
      </trkpt>
      <trkpt lat="46.85914" lon="8.48481">
        <ele>2400</ele>
        <time>2021-08-12T09:25:42.458Z</time>
      </trkpt>
      <trkpt lat="46.85914" lon="8.48482">
        <ele>2399</ele>
        <time>2021-08-12T09:25:43.459Z</time>
      </trkpt>
      <trkpt lat="46.85913" lon="8.48483">
        <ele>2399</ele>
        <time>2021-08-12T09:25:44.458Z</time>
      </trkpt>
      <trkpt lat="46.85912" lon="8.48484">
        <ele>2398</ele>
        <time>2021-08-12T09:25:45.459Z</time>
      </trkpt>
      <trkpt lat="46.85911" lon="8.48485">
        <ele>2398</ele>
        <time>2021-08-12T09:25:46.458Z</time>
      </trkpt>
      <trkpt lat="46.8591" lon="8.48486">
        <ele>2397</ele>
        <time>2021-08-12T09:25:47.459Z</time>
      </trkpt>
      <trkpt lat="46.85909" lon="8.48486">
        <ele>2397</ele>
        <time>2021-08-12T09:25:48.458Z</time>
      </trkpt>
      <trkpt lat="46.85907" lon="8.48486">
        <ele>2396</ele>
        <time>2021-08-12T09:25:49.458Z</time>
      </trkpt>
      <trkpt lat="46.85904" lon="8.48486">
        <ele>2396</ele>
        <time>2021-08-12T09:25:50.459Z</time>
      </trkpt>
      <trkpt lat="46.85902" lon="8.48488">
        <ele>2396</ele>
        <time>2021-08-12T09:25:51.459Z</time>
      </trkpt>
      <trkpt lat="46.85901" lon="8.4849">
        <ele>2396</ele>
        <time>2021-08-12T09:25:52.459Z</time>
      </trkpt>
      <trkpt lat="46.85898" lon="8.48492">
        <ele>2396</ele>
        <time>2021-08-12T09:25:53.459Z</time>
      </trkpt>
      <trkpt lat="46.85897" lon="8.48493">
        <ele>2395</ele>
        <time>2021-08-12T09:25:54.459Z</time>
      </trkpt>
      <trkpt lat="46.85896" lon="8.48493">
        <ele>2395</ele>
        <time>2021-08-12T09:25:55.459Z</time>
      </trkpt>
      <trkpt lat="46.85896" lon="8.48493">
        <ele>2395</ele>
        <time>2021-08-12T09:25:56.459Z</time>
      </trkpt>
      <trkpt lat="46.85894" lon="8.48494">
        <ele>2395</ele>
        <time>2021-08-12T09:25:57.459Z</time>
      </trkpt>
      <trkpt lat="46.85892" lon="8.48494">
        <ele>2395</ele>
        <time>2021-08-12T09:25:58.459Z</time>
      </trkpt>
      <trkpt lat="46.85891" lon="8.48495">
        <ele>2395</ele>
        <time>2021-08-12T09:25:59.458Z</time>
      </trkpt>
      <trkpt lat="46.8589" lon="8.48495">
        <ele>2395</ele>
        <time>2021-08-12T09:26:00.459Z</time>
      </trkpt>
      <trkpt lat="46.85888" lon="8.48496">
        <ele>2396</ele>
        <time>2021-08-12T09:26:01.459Z</time>
      </trkpt>
      <trkpt lat="46.85887" lon="8.48497">
        <ele>2396</ele>
        <time>2021-08-12T09:26:02.458Z</time>
      </trkpt>
      <trkpt lat="46.85887" lon="8.48498">
        <ele>2396</ele>
        <time>2021-08-12T09:26:03.458Z</time>
      </trkpt>
      <trkpt lat="46.85886" lon="8.48499">
        <ele>2396</ele>
        <time>2021-08-12T09:26:04.458Z</time>
      </trkpt>
      <trkpt lat="46.85886" lon="8.48499">
        <ele>2396</ele>
        <time>2021-08-12T09:26:05.458Z</time>
      </trkpt>
      <trkpt lat="46.85884" lon="8.485">
        <ele>2396</ele>
        <time>2021-08-12T09:26:06.458Z</time>
      </trkpt>
      <trkpt lat="46.85884" lon="8.485">
        <ele>2396</ele>
        <time>2021-08-12T09:26:07.459Z</time>
      </trkpt>
      <trkpt lat="46.85883" lon="8.48501">
        <ele>2396</ele>
        <time>2021-08-12T09:26:08.458Z</time>
      </trkpt>
      <trkpt lat="46.85883" lon="8.48502">
        <ele>2395</ele>
        <time>2021-08-12T09:26:09.459Z</time>
      </trkpt>
      <trkpt lat="46.85882" lon="8.48503">
        <ele>2394</ele>
        <time>2021-08-12T09:26:10.459Z</time>
      </trkpt>
      <trkpt lat="46.85881" lon="8.48503">
        <ele>2393</ele>
        <time>2021-08-12T09:26:11.459Z</time>
      </trkpt>
      <trkpt lat="46.85881" lon="8.48504">
        <ele>2393</ele>
        <time>2021-08-12T09:26:12.459Z</time>
      </trkpt>
      <trkpt lat="46.85881" lon="8.48504">
        <ele>2392</ele>
        <time>2021-08-12T09:26:13.458Z</time>
      </trkpt>
      <trkpt lat="46.8588" lon="8.48504">
        <ele>2391</ele>
        <time>2021-08-12T09:26:14.458Z</time>
      </trkpt>
      <trkpt lat="46.85879" lon="8.48504">
        <ele>2389</ele>
        <time>2021-08-12T09:26:15.458Z</time>
      </trkpt>
      <trkpt lat="46.85879" lon="8.48505">
        <ele>2388</ele>
        <time>2021-08-12T09:26:16.459Z</time>
      </trkpt>
      <trkpt lat="46.85881" lon="8.48507">
        <ele>2388</ele>
        <time>2021-08-12T09:26:17.459Z</time>
      </trkpt>
      <trkpt lat="46.85881" lon="8.48508">
        <ele>2387</ele>
        <time>2021-08-12T09:26:18.460Z</time>
      </trkpt>
      <trkpt lat="46.85881" lon="8.48508">
        <ele>2387</ele>
        <time>2021-08-12T09:26:19.459Z</time>
      </trkpt>
      <trkpt lat="46.8588" lon="8.48509">
        <ele>2386</ele>
        <time>2021-08-12T09:26:20.460Z</time>
      </trkpt>
      <trkpt lat="46.8588" lon="8.48509">
        <ele>2386</ele>
        <time>2021-08-12T09:26:21.460Z</time>
      </trkpt>
      <trkpt lat="46.85879" lon="8.48509">
        <ele>2385</ele>
        <time>2021-08-12T09:26:22.460Z</time>
      </trkpt>
      <trkpt lat="46.85878" lon="8.48509">
        <ele>2384</ele>
        <time>2021-08-12T09:26:23.459Z</time>
      </trkpt>
      <trkpt lat="46.85878" lon="8.48509">
        <ele>2383</ele>
        <time>2021-08-12T09:26:24.459Z</time>
      </trkpt>
      <trkpt lat="46.85877" lon="8.48509">
        <ele>2382</ele>
        <time>2021-08-12T09:26:25.460Z</time>
      </trkpt>
      <trkpt lat="46.85877" lon="8.4851">
        <ele>2381</ele>
        <time>2021-08-12T09:26:26.459Z</time>
      </trkpt>
      <trkpt lat="46.85877" lon="8.4851">
        <ele>2381</ele>
        <time>2021-08-12T09:26:27.460Z</time>
      </trkpt>
      <trkpt lat="46.85877" lon="8.4851">
        <ele>2380</ele>
        <time>2021-08-12T09:26:28.460Z</time>
      </trkpt>
      <trkpt lat="46.85876" lon="8.48509">
        <ele>2377</ele>
        <time>2021-08-12T09:26:29.461Z</time>
      </trkpt>
      <trkpt lat="46.85875" lon="8.48509">
        <ele>2376</ele>
        <time>2021-08-12T09:26:30.461Z</time>
      </trkpt>
      <trkpt lat="46.85875" lon="8.48509">
        <ele>2375</ele>
        <time>2021-08-12T09:26:31.461Z</time>
      </trkpt>
      <trkpt lat="46.85874" lon="8.48509">
        <ele>2375</ele>
        <time>2021-08-12T09:26:32.460Z</time>
      </trkpt>
      <trkpt lat="46.85873" lon="8.48509">
        <ele>2374</ele>
        <time>2021-08-12T09:26:33.461Z</time>
      </trkpt>
      <trkpt lat="46.85872" lon="8.48509">
        <ele>2374</ele>
        <time>2021-08-12T09:26:34.461Z</time>
      </trkpt>
      <trkpt lat="46.85871" lon="8.48509">
        <ele>2374</ele>
        <time>2021-08-12T09:26:35.460Z</time>
      </trkpt>
      <trkpt lat="46.8587" lon="8.48509">
        <ele>2374</ele>
        <time>2021-08-12T09:26:36.460Z</time>
      </trkpt>
      <trkpt lat="46.85869" lon="8.4851">
        <ele>2375</ele>
        <time>2021-08-12T09:26:37.460Z</time>
      </trkpt>
      <trkpt lat="46.85869" lon="8.48511">
        <ele>2375</ele>
        <time>2021-08-12T09:26:38.460Z</time>
      </trkpt>
      <trkpt lat="46.85869" lon="8.48511">
        <ele>2375</ele>
        <time>2021-08-12T09:26:39.461Z</time>
      </trkpt>
      <trkpt lat="46.85868" lon="8.48512">
        <ele>2375</ele>
        <time>2021-08-12T09:26:40.461Z</time>
      </trkpt>
      <trkpt lat="46.85868" lon="8.48512">
        <ele>2375</ele>
        <time>2021-08-12T09:26:41.460Z</time>
      </trkpt>
      <trkpt lat="46.85867" lon="8.48513">
        <ele>2376</ele>
        <time>2021-08-12T09:26:42.460Z</time>
      </trkpt>
      <trkpt lat="46.85867" lon="8.48513">
        <ele>2375</ele>
        <time>2021-08-12T09:26:43.461Z</time>
      </trkpt>
      <trkpt lat="46.85867" lon="8.48513">
        <ele>2375</ele>
        <time>2021-08-12T09:26:44.461Z</time>
      </trkpt>
      <trkpt lat="46.85867" lon="8.48514">
        <ele>2374</ele>
        <time>2021-08-12T09:26:45.460Z</time>
      </trkpt>
      <trkpt lat="46.85866" lon="8.48514">
        <ele>2373</ele>
        <time>2021-08-12T09:26:46.460Z</time>
      </trkpt>
      <trkpt lat="46.85866" lon="8.48515">
        <ele>2372</ele>
        <time>2021-08-12T09:26:47.460Z</time>
      </trkpt>
      <trkpt lat="46.85866" lon="8.48516">
        <ele>2371</ele>
        <time>2021-08-12T09:26:48.460Z</time>
      </trkpt>
      <trkpt lat="46.85865" lon="8.48516">
        <ele>2370</ele>
        <time>2021-08-12T09:26:49.461Z</time>
      </trkpt>
      <trkpt lat="46.85865" lon="8.48517">
        <ele>2370</ele>
        <time>2021-08-12T09:26:50.460Z</time>
      </trkpt>
      <trkpt lat="46.85864" lon="8.48518">
        <ele>2369</ele>
        <time>2021-08-12T09:26:51.460Z</time>
      </trkpt>
      <trkpt lat="46.85864" lon="8.48519">
        <ele>2369</ele>
        <time>2021-08-12T09:26:52.460Z</time>
      </trkpt>
      <trkpt lat="46.85863" lon="8.48519">
        <ele>2369</ele>
        <time>2021-08-12T09:26:53.460Z</time>
      </trkpt>
      <trkpt lat="46.85862" lon="8.48519">
        <ele>2368</ele>
        <time>2021-08-12T09:26:54.460Z</time>
      </trkpt>
      <trkpt lat="46.85863" lon="8.48519">
        <ele>2369</ele>
        <time>2021-08-12T09:26:55.460Z</time>
      </trkpt>
      <trkpt lat="46.85862" lon="8.4852">
        <ele>2371</ele>
        <time>2021-08-12T09:26:56.461Z</time>
      </trkpt>
      <trkpt lat="46.85862" lon="8.48521">
        <ele>2371</ele>
        <time>2021-08-12T09:26:57.460Z</time>
      </trkpt>
      <trkpt lat="46.85861" lon="8.48522">
        <ele>2372</ele>
        <time>2021-08-12T09:26:58.461Z</time>
      </trkpt>
      <trkpt lat="46.85861" lon="8.48522">
        <ele>2372</ele>
        <time>2021-08-12T09:26:59.460Z</time>
      </trkpt>
      <trkpt lat="46.85861" lon="8.48523">
        <ele>2371</ele>
        <time>2021-08-12T09:27:00.461Z</time>
      </trkpt>
      <trkpt lat="46.8586" lon="8.48524">
        <ele>2371</ele>
        <time>2021-08-12T09:27:01.460Z</time>
      </trkpt>
      <trkpt lat="46.8586" lon="8.48525">
        <ele>2371</ele>
        <time>2021-08-12T09:27:02.461Z</time>
      </trkpt>
      <trkpt lat="46.8586" lon="8.48526">
        <ele>2372</ele>
        <time>2021-08-12T09:27:03.461Z</time>
      </trkpt>
      <trkpt lat="46.85859" lon="8.48527">
        <ele>2372</ele>
        <time>2021-08-12T09:27:04.461Z</time>
      </trkpt>
      <trkpt lat="46.85859" lon="8.48527">
        <ele>2372</ele>
        <time>2021-08-12T09:27:05.461Z</time>
      </trkpt>
      <trkpt lat="46.85859" lon="8.48528">
        <ele>2373</ele>
        <time>2021-08-12T09:27:06.461Z</time>
      </trkpt>
      <trkpt lat="46.85858" lon="8.48528">
        <ele>2373</ele>
        <time>2021-08-12T09:27:07.461Z</time>
      </trkpt>
      <trkpt lat="46.85858" lon="8.48528">
        <ele>2373</ele>
        <time>2021-08-12T09:27:08.461Z</time>
      </trkpt>
      <trkpt lat="46.85858" lon="8.48529">
        <ele>2373</ele>
        <time>2021-08-12T09:27:09.461Z</time>
      </trkpt>
      <trkpt lat="46.85857" lon="8.48529">
        <ele>2373</ele>
        <time>2021-08-12T09:27:10.461Z</time>
      </trkpt>
      <trkpt lat="46.85857" lon="8.48529">
        <ele>2373</ele>
        <time>2021-08-12T09:27:11.460Z</time>
      </trkpt>
      <trkpt lat="46.85855" lon="8.4853">
        <ele>2373</ele>
        <time>2021-08-12T09:27:12.461Z</time>
      </trkpt>
      <trkpt lat="46.85855" lon="8.4853">
        <ele>2373</ele>
        <time>2021-08-12T09:27:13.460Z</time>
      </trkpt>
      <trkpt lat="46.85854" lon="8.48531">
        <ele>2373</ele>
        <time>2021-08-12T09:27:14.460Z</time>
      </trkpt>
      <trkpt lat="46.85854" lon="8.48532">
        <ele>2373</ele>
        <time>2021-08-12T09:27:15.461Z</time>
      </trkpt>
      <trkpt lat="46.85854" lon="8.48532">
        <ele>2372</ele>
        <time>2021-08-12T09:27:16.461Z</time>
      </trkpt>
      <trkpt lat="46.85853" lon="8.48533">
        <ele>2372</ele>
        <time>2021-08-12T09:27:17.461Z</time>
      </trkpt>
      <trkpt lat="46.85853" lon="8.48533">
        <ele>2372</ele>
        <time>2021-08-12T09:27:18.460Z</time>
      </trkpt>
      <trkpt lat="46.85853" lon="8.48533">
        <ele>2372</ele>
        <time>2021-08-12T09:27:19.461Z</time>
      </trkpt>
      <trkpt lat="46.85852" lon="8.48534">
        <ele>2372</ele>
        <time>2021-08-12T09:27:20.461Z</time>
      </trkpt>
      <trkpt lat="46.85852" lon="8.48534">
        <ele>2374</ele>
        <time>2021-08-12T09:27:21.461Z</time>
      </trkpt>
      <trkpt lat="46.85851" lon="8.48534">
        <ele>2375</ele>
        <time>2021-08-12T09:27:22.460Z</time>
      </trkpt>
      <trkpt lat="46.85851" lon="8.48534">
        <ele>2377</ele>
        <time>2021-08-12T09:27:23.461Z</time>
      </trkpt>
      <trkpt lat="46.8585" lon="8.48534">
        <ele>2378</ele>
        <time>2021-08-12T09:27:24.461Z</time>
      </trkpt>
      <trkpt lat="46.8585" lon="8.48534">
        <ele>2380</ele>
        <time>2021-08-12T09:27:25.461Z</time>
      </trkpt>
      <trkpt lat="46.85848" lon="8.48534">
        <ele>2381</ele>
        <time>2021-08-12T09:27:26.461Z</time>
      </trkpt>
      <trkpt lat="46.85848" lon="8.48534">
        <ele>2383</ele>
        <time>2021-08-12T09:27:27.461Z</time>
      </trkpt>
      <trkpt lat="46.85847" lon="8.48534">
        <ele>2384</ele>
        <time>2021-08-12T09:27:28.461Z</time>
      </trkpt>
      <trkpt lat="46.85847" lon="8.48533">
        <ele>2386</ele>
        <time>2021-08-12T09:27:29.460Z</time>
      </trkpt>
      <trkpt lat="46.85848" lon="8.48533">
        <ele>2387</ele>
        <time>2021-08-12T09:27:30.461Z</time>
      </trkpt>
      <trkpt lat="46.85848" lon="8.48533">
        <ele>2388</ele>
        <time>2021-08-12T09:27:31.461Z</time>
      </trkpt>
      <trkpt lat="46.85848" lon="8.48532">
        <ele>2389</ele>
        <time>2021-08-12T09:27:32.461Z</time>
      </trkpt>
      <trkpt lat="46.85847" lon="8.48532">
        <ele>2390</ele>
        <time>2021-08-12T09:27:33.461Z</time>
      </trkpt>
      <trkpt lat="46.85847" lon="8.48532">
        <ele>2391</ele>
        <time>2021-08-12T09:27:34.461Z</time>
      </trkpt>
      <trkpt lat="46.85846" lon="8.48533">
        <ele>2392</ele>
        <time>2021-08-12T09:27:35.461Z</time>
      </trkpt>
      <trkpt lat="46.85844" lon="8.48534">
        <ele>2393</ele>
        <time>2021-08-12T09:27:36.460Z</time>
      </trkpt>
      <trkpt lat="46.85842" lon="8.48534">
        <ele>2393</ele>
        <time>2021-08-12T09:27:37.461Z</time>
      </trkpt>
      <trkpt lat="46.85842" lon="8.48535">
        <ele>2394</ele>
        <time>2021-08-12T09:27:38.461Z</time>
      </trkpt>
      <trkpt lat="46.85841" lon="8.48535">
        <ele>2395</ele>
        <time>2021-08-12T09:27:39.461Z</time>
      </trkpt>
      <trkpt lat="46.85841" lon="8.48536">
        <ele>2396</ele>
        <time>2021-08-12T09:27:40.461Z</time>
      </trkpt>
      <trkpt lat="46.8584" lon="8.48537">
        <ele>2396</ele>
        <time>2021-08-12T09:27:41.461Z</time>
      </trkpt>
      <trkpt lat="46.85839" lon="8.48537">
        <ele>2397</ele>
        <time>2021-08-12T09:27:42.461Z</time>
      </trkpt>
      <trkpt lat="46.85838" lon="8.48538">
        <ele>2397</ele>
        <time>2021-08-12T09:27:43.461Z</time>
      </trkpt>
      <trkpt lat="46.85837" lon="8.48539">
        <ele>2397</ele>
        <time>2021-08-12T09:27:44.460Z</time>
      </trkpt>
      <trkpt lat="46.85836" lon="8.4854">
        <ele>2397</ele>
        <time>2021-08-12T09:27:45.460Z</time>
      </trkpt>
      <trkpt lat="46.85836" lon="8.48541">
        <ele>2397</ele>
        <time>2021-08-12T09:27:46.460Z</time>
      </trkpt>
      <trkpt lat="46.85835" lon="8.48541">
        <ele>2398</ele>
        <time>2021-08-12T09:27:47.461Z</time>
      </trkpt>
      <trkpt lat="46.85833" lon="8.48541">
        <ele>2398</ele>
        <time>2021-08-12T09:27:48.460Z</time>
      </trkpt>
      <trkpt lat="46.85831" lon="8.4854">
        <ele>2398</ele>
        <time>2021-08-12T09:27:49.461Z</time>
      </trkpt>
      <trkpt lat="46.85831" lon="8.48539">
        <ele>2398</ele>
        <time>2021-08-12T09:27:50.461Z</time>
      </trkpt>
      <trkpt lat="46.85831" lon="8.48538">
        <ele>2398</ele>
        <time>2021-08-12T09:27:51.461Z</time>
      </trkpt>
      <trkpt lat="46.85831" lon="8.48537">
        <ele>2399</ele>
        <time>2021-08-12T09:27:52.460Z</time>
      </trkpt>
      <trkpt lat="46.85832" lon="8.48537">
        <ele>2401</ele>
        <time>2021-08-12T09:27:53.460Z</time>
      </trkpt>
      <trkpt lat="46.85832" lon="8.48538">
        <ele>2402</ele>
        <time>2021-08-12T09:27:54.460Z</time>
      </trkpt>
      <trkpt lat="46.85831" lon="8.48538">
        <ele>2403</ele>
        <time>2021-08-12T09:27:55.461Z</time>
      </trkpt>
      <trkpt lat="46.8583" lon="8.48539">
        <ele>2404</ele>
        <time>2021-08-12T09:27:56.460Z</time>
      </trkpt>
      <trkpt lat="46.85829" lon="8.48539">
        <ele>2404</ele>
        <time>2021-08-12T09:27:57.461Z</time>
      </trkpt>
      <trkpt lat="46.85829" lon="8.4854">
        <ele>2405</ele>
        <time>2021-08-12T09:27:58.460Z</time>
      </trkpt>
      <trkpt lat="46.85828" lon="8.48541">
        <ele>2405</ele>
        <time>2021-08-12T09:27:59.460Z</time>
      </trkpt>
      <trkpt lat="46.85827" lon="8.48542">
        <ele>2405</ele>
        <time>2021-08-12T09:28:00.460Z</time>
      </trkpt>
      <trkpt lat="46.85826" lon="8.48542">
        <ele>2405</ele>
        <time>2021-08-12T09:28:01.461Z</time>
      </trkpt>
      <trkpt lat="46.85826" lon="8.48543">
        <ele>2405</ele>
        <time>2021-08-12T09:28:02.460Z</time>
      </trkpt>
      <trkpt lat="46.85825" lon="8.48543">
        <ele>2405</ele>
        <time>2021-08-12T09:28:03.461Z</time>
      </trkpt>
      <trkpt lat="46.85825" lon="8.48543">
        <ele>2405</ele>
        <time>2021-08-12T09:28:04.460Z</time>
      </trkpt>
      <trkpt lat="46.85823" lon="8.48544">
        <ele>2405</ele>
        <time>2021-08-12T09:28:05.460Z</time>
      </trkpt>
      <trkpt lat="46.85822" lon="8.48544">
        <ele>2405</ele>
        <time>2021-08-12T09:28:06.460Z</time>
      </trkpt>
      <trkpt lat="46.85821" lon="8.48545">
        <ele>2405</ele>
        <time>2021-08-12T09:28:07.460Z</time>
      </trkpt>
      <trkpt lat="46.8582" lon="8.48546">
        <ele>2406</ele>
        <time>2021-08-12T09:28:08.460Z</time>
      </trkpt>
      <trkpt lat="46.85819" lon="8.48546">
        <ele>2406</ele>
        <time>2021-08-12T09:28:09.461Z</time>
      </trkpt>
      <trkpt lat="46.85818" lon="8.48546">
        <ele>2406</ele>
        <time>2021-08-12T09:28:10.460Z</time>
      </trkpt>
      <trkpt lat="46.85816" lon="8.48545">
        <ele>2407</ele>
        <time>2021-08-12T09:28:11.460Z</time>
      </trkpt>
      <trkpt lat="46.85816" lon="8.48545">
        <ele>2407</ele>
        <time>2021-08-12T09:28:12.460Z</time>
      </trkpt>
      <trkpt lat="46.85814" lon="8.48545">
        <ele>2408</ele>
        <time>2021-08-12T09:28:13.460Z</time>
      </trkpt>
      <trkpt lat="46.85813" lon="8.48545">
        <ele>2408</ele>
        <time>2021-08-12T09:28:14.460Z</time>
      </trkpt>
      <trkpt lat="46.85813" lon="8.48545">
        <ele>2408</ele>
        <time>2021-08-12T09:28:15.460Z</time>
      </trkpt>
      <trkpt lat="46.85812" lon="8.48546">
        <ele>2409</ele>
        <time>2021-08-12T09:28:16.460Z</time>
      </trkpt>
      <trkpt lat="46.85811" lon="8.48547">
        <ele>2410</ele>
        <time>2021-08-12T09:28:17.461Z</time>
      </trkpt>
      <trkpt lat="46.85811" lon="8.48548">
        <ele>2410</ele>
        <time>2021-08-12T09:28:18.460Z</time>
      </trkpt>
      <trkpt lat="46.85811" lon="8.48548">
        <ele>2410</ele>
        <time>2021-08-12T09:28:19.460Z</time>
      </trkpt>
      <trkpt lat="46.8581" lon="8.48549">
        <ele>2411</ele>
        <time>2021-08-12T09:28:20.460Z</time>
      </trkpt>
      <trkpt lat="46.85809" lon="8.48549">
        <ele>2411</ele>
        <time>2021-08-12T09:28:21.461Z</time>
      </trkpt>
      <trkpt lat="46.85808" lon="8.4855">
        <ele>2411</ele>
        <time>2021-08-12T09:28:22.461Z</time>
      </trkpt>
      <trkpt lat="46.85807" lon="8.4855">
        <ele>2412</ele>
        <time>2021-08-12T09:28:23.460Z</time>
      </trkpt>
      <trkpt lat="46.85806" lon="8.48551">
        <ele>2412</ele>
        <time>2021-08-12T09:28:24.460Z</time>
      </trkpt>
      <trkpt lat="46.85805" lon="8.48552">
        <ele>2412</ele>
        <time>2021-08-12T09:28:25.460Z</time>
      </trkpt>
      <trkpt lat="46.85804" lon="8.48554">
        <ele>2412</ele>
        <time>2021-08-12T09:28:26.460Z</time>
      </trkpt>
      <trkpt lat="46.85803" lon="8.48555">
        <ele>2412</ele>
        <time>2021-08-12T09:28:27.460Z</time>
      </trkpt>
      <trkpt lat="46.85803" lon="8.48556">
        <ele>2412</ele>
        <time>2021-08-12T09:28:28.461Z</time>
      </trkpt>
      <trkpt lat="46.85802" lon="8.48557">
        <ele>2412</ele>
        <time>2021-08-12T09:28:29.461Z</time>
      </trkpt>
      <trkpt lat="46.85802" lon="8.48557">
        <ele>2412</ele>
        <time>2021-08-12T09:28:30.460Z</time>
      </trkpt>
      <trkpt lat="46.85801" lon="8.48557">
        <ele>2411</ele>
        <time>2021-08-12T09:28:31.461Z</time>
      </trkpt>
      <trkpt lat="46.858" lon="8.48557">
        <ele>2411</ele>
        <time>2021-08-12T09:28:32.460Z</time>
      </trkpt>
      <trkpt lat="46.85799" lon="8.48557">
        <ele>2410</ele>
        <time>2021-08-12T09:28:33.460Z</time>
      </trkpt>
      <trkpt lat="46.85798" lon="8.48557">
        <ele>2408</ele>
        <time>2021-08-12T09:28:34.461Z</time>
      </trkpt>
      <trkpt lat="46.85796" lon="8.48557">
        <ele>2407</ele>
        <time>2021-08-12T09:28:35.461Z</time>
      </trkpt>
      <trkpt lat="46.85796" lon="8.48557">
        <ele>2406</ele>
        <time>2021-08-12T09:28:36.461Z</time>
      </trkpt>
      <trkpt lat="46.85794" lon="8.48557">
        <ele>2406</ele>
        <time>2021-08-12T09:28:37.460Z</time>
      </trkpt>
      <trkpt lat="46.85793" lon="8.48558">
        <ele>2405</ele>
        <time>2021-08-12T09:28:38.461Z</time>
      </trkpt>
      <trkpt lat="46.85792" lon="8.48558">
        <ele>2405</ele>
        <time>2021-08-12T09:28:39.460Z</time>
      </trkpt>
      <trkpt lat="46.85791" lon="8.48558">
        <ele>2405</ele>
        <time>2021-08-12T09:28:40.460Z</time>
      </trkpt>
      <trkpt lat="46.8579" lon="8.48558">
        <ele>2405</ele>
        <time>2021-08-12T09:28:41.461Z</time>
      </trkpt>
      <trkpt lat="46.85789" lon="8.48558">
        <ele>2405</ele>
        <time>2021-08-12T09:28:42.461Z</time>
      </trkpt>
      <trkpt lat="46.85787" lon="8.48558">
        <ele>2406</ele>
        <time>2021-08-12T09:28:43.461Z</time>
      </trkpt>
      <trkpt lat="46.85786" lon="8.48559">
        <ele>2406</ele>
        <time>2021-08-12T09:28:44.460Z</time>
      </trkpt>
      <trkpt lat="46.85785" lon="8.48562">
        <ele>2406</ele>
        <time>2021-08-12T09:28:45.461Z</time>
      </trkpt>
      <trkpt lat="46.85785" lon="8.48563">
        <ele>2406</ele>
        <time>2021-08-12T09:28:46.461Z</time>
      </trkpt>
      <trkpt lat="46.85784" lon="8.48564">
        <ele>2406</ele>
        <time>2021-08-12T09:28:47.460Z</time>
      </trkpt>
      <trkpt lat="46.85784" lon="8.48564">
        <ele>2406</ele>
        <time>2021-08-12T09:28:48.460Z</time>
      </trkpt>
      <trkpt lat="46.85784" lon="8.48564">
        <ele>2406</ele>
        <time>2021-08-12T09:28:49.461Z</time>
      </trkpt>
      <trkpt lat="46.85783" lon="8.48565">
        <ele>2406</ele>
        <time>2021-08-12T09:28:50.461Z</time>
      </trkpt>
      <trkpt lat="46.85783" lon="8.48566">
        <ele>2406</ele>
        <time>2021-08-12T09:28:51.461Z</time>
      </trkpt>
      <trkpt lat="46.85782" lon="8.48567">
        <ele>2405</ele>
        <time>2021-08-12T09:28:52.461Z</time>
      </trkpt>
      <trkpt lat="46.85782" lon="8.48568">
        <ele>2404</ele>
        <time>2021-08-12T09:28:53.461Z</time>
      </trkpt>
      <trkpt lat="46.85781" lon="8.48569">
        <ele>2403</ele>
        <time>2021-08-12T09:28:54.461Z</time>
      </trkpt>
      <trkpt lat="46.8578" lon="8.48569">
        <ele>2402</ele>
        <time>2021-08-12T09:28:55.461Z</time>
      </trkpt>
      <trkpt lat="46.85779" lon="8.4857">
        <ele>2401</ele>
        <time>2021-08-12T09:28:56.461Z</time>
      </trkpt>
      <trkpt lat="46.85779" lon="8.48571">
        <ele>2400</ele>
        <time>2021-08-12T09:28:57.461Z</time>
      </trkpt>
      <trkpt lat="46.85778" lon="8.48571">
        <ele>2400</ele>
        <time>2021-08-12T09:28:58.460Z</time>
      </trkpt>
      <trkpt lat="46.85778" lon="8.48572">
        <ele>2399</ele>
        <time>2021-08-12T09:28:59.461Z</time>
      </trkpt>
      <trkpt lat="46.85777" lon="8.48574">
        <ele>2399</ele>
        <time>2021-08-12T09:29:00.460Z</time>
      </trkpt>
      <trkpt lat="46.85777" lon="8.48576">
        <ele>2399</ele>
        <time>2021-08-12T09:29:01.460Z</time>
      </trkpt>
      <trkpt lat="46.85777" lon="8.48577">
        <ele>2399</ele>
        <time>2021-08-12T09:29:02.461Z</time>
      </trkpt>
      <trkpt lat="46.85777" lon="8.48579">
        <ele>2399</ele>
        <time>2021-08-12T09:29:03.461Z</time>
      </trkpt>
      <trkpt lat="46.85776" lon="8.4858">
        <ele>2398</ele>
        <time>2021-08-12T09:29:04.461Z</time>
      </trkpt>
      <trkpt lat="46.85775" lon="8.48581">
        <ele>2398</ele>
        <time>2021-08-12T09:29:05.460Z</time>
      </trkpt>
      <trkpt lat="46.85775" lon="8.48582">
        <ele>2398</ele>
        <time>2021-08-12T09:29:06.461Z</time>
      </trkpt>
      <trkpt lat="46.85774" lon="8.48582">
        <ele>2398</ele>
        <time>2021-08-12T09:29:07.460Z</time>
      </trkpt>
      <trkpt lat="46.85773" lon="8.48583">
        <ele>2398</ele>
        <time>2021-08-12T09:29:08.460Z</time>
      </trkpt>
      <trkpt lat="46.85773" lon="8.48584">
        <ele>2397</ele>
        <time>2021-08-12T09:29:09.461Z</time>
      </trkpt>
      <trkpt lat="46.85772" lon="8.48585">
        <ele>2397</ele>
        <time>2021-08-12T09:29:10.461Z</time>
      </trkpt>
      <trkpt lat="46.85771" lon="8.48586">
        <ele>2397</ele>
        <time>2021-08-12T09:29:11.461Z</time>
      </trkpt>
      <trkpt lat="46.8577" lon="8.48587">
        <ele>2397</ele>
        <time>2021-08-12T09:29:12.461Z</time>
      </trkpt>
      <trkpt lat="46.85769" lon="8.48588">
        <ele>2397</ele>
        <time>2021-08-12T09:29:13.461Z</time>
      </trkpt>
      <trkpt lat="46.85769" lon="8.48589">
        <ele>2397</ele>
        <time>2021-08-12T09:29:14.461Z</time>
      </trkpt>
      <trkpt lat="46.85768" lon="8.4859">
        <ele>2396</ele>
        <time>2021-08-12T09:29:15.461Z</time>
      </trkpt>
      <trkpt lat="46.85767" lon="8.4859">
        <ele>2396</ele>
        <time>2021-08-12T09:29:16.460Z</time>
      </trkpt>
      <trkpt lat="46.85766" lon="8.48591">
        <ele>2395</ele>
        <time>2021-08-12T09:29:17.461Z</time>
      </trkpt>
      <trkpt lat="46.85765" lon="8.48592">
        <ele>2395</ele>
        <time>2021-08-12T09:29:18.461Z</time>
      </trkpt>
      <trkpt lat="46.85764" lon="8.48592">
        <ele>2394</ele>
        <time>2021-08-12T09:29:19.461Z</time>
      </trkpt>
      <trkpt lat="46.85762" lon="8.48593">
        <ele>2394</ele>
        <time>2021-08-12T09:29:20.461Z</time>
      </trkpt>
      <trkpt lat="46.85761" lon="8.48592">
        <ele>2394</ele>
        <time>2021-08-12T09:29:21.461Z</time>
      </trkpt>
      <trkpt lat="46.8576" lon="8.48592">
        <ele>2394</ele>
        <time>2021-08-12T09:29:22.461Z</time>
      </trkpt>
      <trkpt lat="46.85759" lon="8.48591">
        <ele>2394</ele>
        <time>2021-08-12T09:29:23.461Z</time>
      </trkpt>
      <trkpt lat="46.85758" lon="8.48592">
        <ele>2393</ele>
        <time>2021-08-12T09:29:24.461Z</time>
      </trkpt>
      <trkpt lat="46.85756" lon="8.48592">
        <ele>2393</ele>
        <time>2021-08-12T09:29:25.460Z</time>
      </trkpt>
      <trkpt lat="46.85757" lon="8.48591">
        <ele>2393</ele>
        <time>2021-08-12T09:29:26.461Z</time>
      </trkpt>
      <trkpt lat="46.85758" lon="8.48592">
        <ele>2392</ele>
        <time>2021-08-12T09:29:27.461Z</time>
      </trkpt>
      <trkpt lat="46.85758" lon="8.48592">
        <ele>2391</ele>
        <time>2021-08-12T09:29:28.461Z</time>
      </trkpt>
      <trkpt lat="46.85758" lon="8.48592">
        <ele>2391</ele>
        <time>2021-08-12T09:29:29.460Z</time>
      </trkpt>
      <trkpt lat="46.85758" lon="8.48593">
        <ele>2390</ele>
        <time>2021-08-12T09:29:30.460Z</time>
      </trkpt>
      <trkpt lat="46.85757" lon="8.48594">
        <ele>2390</ele>
        <time>2021-08-12T09:29:31.460Z</time>
      </trkpt>
      <trkpt lat="46.85757" lon="8.48595">
        <ele>2389</ele>
        <time>2021-08-12T09:29:32.461Z</time>
      </trkpt>
      <trkpt lat="46.85756" lon="8.48596">
        <ele>2389</ele>
        <time>2021-08-12T09:29:33.461Z</time>
      </trkpt>
      <trkpt lat="46.85756" lon="8.48596">
        <ele>2389</ele>
        <time>2021-08-12T09:29:34.461Z</time>
      </trkpt>
      <trkpt lat="46.85755" lon="8.48597">
        <ele>2389</ele>
        <time>2021-08-12T09:29:35.460Z</time>
      </trkpt>
      <trkpt lat="46.85755" lon="8.48597">
        <ele>2388</ele>
        <time>2021-08-12T09:29:36.460Z</time>
      </trkpt>
      <trkpt lat="46.85754" lon="8.48598">
        <ele>2388</ele>
        <time>2021-08-12T09:29:37.460Z</time>
      </trkpt>
      <trkpt lat="46.85754" lon="8.48598">
        <ele>2388</ele>
        <time>2021-08-12T09:29:38.461Z</time>
      </trkpt>
      <trkpt lat="46.85753" lon="8.48599">
        <ele>2387</ele>
        <time>2021-08-12T09:29:39.460Z</time>
      </trkpt>
      <trkpt lat="46.85752" lon="8.48599">
        <ele>2387</ele>
        <time>2021-08-12T09:29:40.460Z</time>
      </trkpt>
      <trkpt lat="46.85752" lon="8.486">
        <ele>2387</ele>
        <time>2021-08-12T09:29:41.460Z</time>
      </trkpt>
      <trkpt lat="46.85751" lon="8.48599">
        <ele>2386</ele>
        <time>2021-08-12T09:29:42.460Z</time>
      </trkpt>
      <trkpt lat="46.85751" lon="8.48599">
        <ele>2386</ele>
        <time>2021-08-12T09:29:43.461Z</time>
      </trkpt>
      <trkpt lat="46.85751" lon="8.48599">
        <ele>2386</ele>
        <time>2021-08-12T09:29:44.460Z</time>
      </trkpt>
      <trkpt lat="46.85751" lon="8.48598">
        <ele>2386</ele>
        <time>2021-08-12T09:29:45.460Z</time>
      </trkpt>
      <trkpt lat="46.85752" lon="8.48598">
        <ele>2386</ele>
        <time>2021-08-12T09:29:46.461Z</time>
      </trkpt>
      <trkpt lat="46.85752" lon="8.48599">
        <ele>2385</ele>
        <time>2021-08-12T09:29:47.460Z</time>
      </trkpt>
      <trkpt lat="46.85752" lon="8.48599">
        <ele>2385</ele>
        <time>2021-08-12T09:29:48.461Z</time>
      </trkpt>
      <trkpt lat="46.85751" lon="8.48599">
        <ele>2385</ele>
        <time>2021-08-12T09:29:49.461Z</time>
      </trkpt>
      <trkpt lat="46.85751" lon="8.48599">
        <ele>2385</ele>
        <time>2021-08-12T09:29:50.461Z</time>
      </trkpt>
      <trkpt lat="46.8575" lon="8.48599">
        <ele>2385</ele>
        <time>2021-08-12T09:29:51.461Z</time>
      </trkpt>
      <trkpt lat="46.8575" lon="8.48599">
        <ele>2385</ele>
        <time>2021-08-12T09:29:52.460Z</time>
      </trkpt>
      <trkpt lat="46.8575" lon="8.48599">
        <ele>2384</ele>
        <time>2021-08-12T09:29:53.460Z</time>
      </trkpt>
      <trkpt lat="46.85749" lon="8.48598">
        <ele>2382</ele>
        <time>2021-08-12T09:29:54.462Z</time>
      </trkpt>
      <trkpt lat="46.85749" lon="8.48598">
        <ele>2382</ele>
        <time>2021-08-12T09:29:55.462Z</time>
      </trkpt>
      <trkpt lat="46.85749" lon="8.48598">
        <ele>2381</ele>
        <time>2021-08-12T09:29:56.462Z</time>
      </trkpt>
      <trkpt lat="46.85749" lon="8.48599">
        <ele>2381</ele>
        <time>2021-08-12T09:29:57.461Z</time>
      </trkpt>
      <trkpt lat="46.85749" lon="8.48599">
        <ele>2381</ele>
        <time>2021-08-12T09:29:58.462Z</time>
      </trkpt>
      <trkpt lat="46.85749" lon="8.48599">
        <ele>2380</ele>
        <time>2021-08-12T09:29:59.462Z</time>
      </trkpt>
      <trkpt lat="46.85749" lon="8.48598">
        <ele>2380</ele>
        <time>2021-08-12T09:30:00.462Z</time>
      </trkpt>
      <trkpt lat="46.85749" lon="8.48598">
        <ele>2380</ele>
        <time>2021-08-12T09:30:01.461Z</time>
      </trkpt>
      <trkpt lat="46.85749" lon="8.48599">
        <ele>2380</ele>
        <time>2021-08-12T09:30:02.462Z</time>
      </trkpt>
      <trkpt lat="46.85748" lon="8.48599">
        <ele>2380</ele>
        <time>2021-08-12T09:30:03.461Z</time>
      </trkpt>
      <trkpt lat="46.85747" lon="8.486">
        <ele>2380</ele>
        <time>2021-08-12T09:30:04.461Z</time>
      </trkpt>
      <trkpt lat="46.85747" lon="8.486">
        <ele>2380</ele>
        <time>2021-08-12T09:30:05.462Z</time>
      </trkpt>
      <trkpt lat="46.85747" lon="8.486">
        <ele>2380</ele>
        <time>2021-08-12T09:30:06.462Z</time>
      </trkpt>
      <trkpt lat="46.85747" lon="8.486">
        <ele>2380</ele>
        <time>2021-08-12T09:30:07.461Z</time>
      </trkpt>
      <trkpt lat="46.85746" lon="8.48599">
        <ele>2380</ele>
        <time>2021-08-12T09:30:08.462Z</time>
      </trkpt>
      <trkpt lat="46.85746" lon="8.48599">
        <ele>2380</ele>
        <time>2021-08-12T09:30:09.462Z</time>
      </trkpt>
      <trkpt lat="46.85746" lon="8.48599">
        <ele>2381</ele>
        <time>2021-08-12T09:30:10.462Z</time>
      </trkpt>
      <trkpt lat="46.85746" lon="8.48599">
        <ele>2381</ele>
        <time>2021-08-12T09:30:11.462Z</time>
      </trkpt>
      <trkpt lat="46.85747" lon="8.48599">
        <ele>2382</ele>
        <time>2021-08-12T09:30:12.463Z</time>
      </trkpt>
      <trkpt lat="46.85748" lon="8.48599">
        <ele>2383</ele>
        <time>2021-08-12T09:30:13.462Z</time>
      </trkpt>
      <trkpt lat="46.85748" lon="8.48599">
        <ele>2383</ele>
        <time>2021-08-12T09:30:14.463Z</time>
      </trkpt>
      <trkpt lat="46.85748" lon="8.48598">
        <ele>2384</ele>
        <time>2021-08-12T09:30:15.463Z</time>
      </trkpt>
      <trkpt lat="46.85749" lon="8.48598">
        <ele>2385</ele>
        <time>2021-08-12T09:30:16.462Z</time>
      </trkpt>
      <trkpt lat="46.85748" lon="8.48599">
        <ele>2385</ele>
        <time>2021-08-12T09:30:17.463Z</time>
      </trkpt>
      <trkpt lat="46.85746" lon="8.48597">
        <ele>2389</ele>
        <time>2021-08-12T09:30:18.462Z</time>
      </trkpt>
      <trkpt lat="46.85745" lon="8.48597">
        <ele>2389</ele>
        <time>2021-08-12T09:30:19.462Z</time>
      </trkpt>
      <trkpt lat="46.85745" lon="8.48597">
        <ele>2389</ele>
        <time>2021-08-12T09:30:20.462Z</time>
      </trkpt>
      <trkpt lat="46.85745" lon="8.48597">
        <ele>2390</ele>
        <time>2021-08-12T09:30:21.462Z</time>
      </trkpt>
      <trkpt lat="46.85744" lon="8.48596">
        <ele>2390</ele>
        <time>2021-08-12T09:30:22.463Z</time>
      </trkpt>
      <trkpt lat="46.85744" lon="8.48595">
        <ele>2390</ele>
        <time>2021-08-12T09:30:23.463Z</time>
      </trkpt>
      <trkpt lat="46.85743" lon="8.48595">
        <ele>2390</ele>
        <time>2021-08-12T09:30:24.462Z</time>
      </trkpt>
      <trkpt lat="46.85743" lon="8.48595">
        <ele>2390</ele>
        <time>2021-08-12T09:30:25.463Z</time>
      </trkpt>
      <trkpt lat="46.85742" lon="8.48595">
        <ele>2390</ele>
        <time>2021-08-12T09:30:26.463Z</time>
      </trkpt>
      <trkpt lat="46.85741" lon="8.48594">
        <ele>2389</ele>
        <time>2021-08-12T09:30:27.463Z</time>
      </trkpt>
      <trkpt lat="46.85741" lon="8.48594">
        <ele>2389</ele>
        <time>2021-08-12T09:30:28.463Z</time>
      </trkpt>
      <trkpt lat="46.85741" lon="8.48594">
        <ele>2389</ele>
        <time>2021-08-12T09:30:29.462Z</time>
      </trkpt>
      <trkpt lat="46.8574" lon="8.48594">
        <ele>2389</ele>
        <time>2021-08-12T09:30:30.463Z</time>
      </trkpt>
      <trkpt lat="46.85739" lon="8.48594">
        <ele>2389</ele>
        <time>2021-08-12T09:30:31.463Z</time>
      </trkpt>
      <trkpt lat="46.85738" lon="8.48595">
        <ele>2390</ele>
        <time>2021-08-12T09:30:32.462Z</time>
      </trkpt>
      <trkpt lat="46.85738" lon="8.48594">
        <ele>2390</ele>
        <time>2021-08-12T09:30:33.463Z</time>
      </trkpt>
      <trkpt lat="46.85737" lon="8.48594">
        <ele>2390</ele>
        <time>2021-08-12T09:30:34.462Z</time>
      </trkpt>
      <trkpt lat="46.85737" lon="8.48594">
        <ele>2391</ele>
        <time>2021-08-12T09:30:35.462Z</time>
      </trkpt>
      <trkpt lat="46.85736" lon="8.48594">
        <ele>2391</ele>
        <time>2021-08-12T09:30:36.463Z</time>
      </trkpt>
      <trkpt lat="46.85735" lon="8.48595">
        <ele>2392</ele>
        <time>2021-08-12T09:30:37.462Z</time>
      </trkpt>
      <trkpt lat="46.85733" lon="8.48596">
        <ele>2392</ele>
        <time>2021-08-12T09:30:38.463Z</time>
      </trkpt>
      <trkpt lat="46.85731" lon="8.48596">
        <ele>2393</ele>
        <time>2021-08-12T09:30:39.463Z</time>
      </trkpt>
      <trkpt lat="46.8573" lon="8.48597">
        <ele>2394</ele>
        <time>2021-08-12T09:30:40.462Z</time>
      </trkpt>
      <trkpt lat="46.85729" lon="8.48598">
        <ele>2394</ele>
        <time>2021-08-12T09:30:41.462Z</time>
      </trkpt>
      <trkpt lat="46.85728" lon="8.48598">
        <ele>2395</ele>
        <time>2021-08-12T09:30:42.463Z</time>
      </trkpt>
      <trkpt lat="46.85727" lon="8.48599">
        <ele>2396</ele>
        <time>2021-08-12T09:30:43.462Z</time>
      </trkpt>
      <trkpt lat="46.85727" lon="8.486">
        <ele>2396</ele>
        <time>2021-08-12T09:30:44.462Z</time>
      </trkpt>
      <trkpt lat="46.85726" lon="8.486">
        <ele>2396</ele>
        <time>2021-08-12T09:30:45.462Z</time>
      </trkpt>
      <trkpt lat="46.85726" lon="8.48601">
        <ele>2396</ele>
        <time>2021-08-12T09:30:46.462Z</time>
      </trkpt>
      <trkpt lat="46.85726" lon="8.48602">
        <ele>2395</ele>
        <time>2021-08-12T09:30:47.462Z</time>
      </trkpt>
      <trkpt lat="46.85725" lon="8.48603">
        <ele>2395</ele>
        <time>2021-08-12T09:30:48.463Z</time>
      </trkpt>
      <trkpt lat="46.85724" lon="8.48603">
        <ele>2394</ele>
        <time>2021-08-12T09:30:49.462Z</time>
      </trkpt>
      <trkpt lat="46.85723" lon="8.48603">
        <ele>2394</ele>
        <time>2021-08-12T09:30:50.462Z</time>
      </trkpt>
      <trkpt lat="46.85723" lon="8.48604">
        <ele>2394</ele>
        <time>2021-08-12T09:30:51.462Z</time>
      </trkpt>
      <trkpt lat="46.85722" lon="8.48604">
        <ele>2394</ele>
        <time>2021-08-12T09:30:52.462Z</time>
      </trkpt>
      <trkpt lat="46.85721" lon="8.48606">
        <ele>2394</ele>
        <time>2021-08-12T09:30:53.462Z</time>
      </trkpt>
      <trkpt lat="46.8572" lon="8.48607">
        <ele>2394</ele>
        <time>2021-08-12T09:30:54.462Z</time>
      </trkpt>
      <trkpt lat="46.8572" lon="8.48608">
        <ele>2394</ele>
        <time>2021-08-12T09:30:55.462Z</time>
      </trkpt>
      <trkpt lat="46.85719" lon="8.48609">
        <ele>2395</ele>
        <time>2021-08-12T09:30:56.462Z</time>
      </trkpt>
      <trkpt lat="46.85718" lon="8.4861">
        <ele>2395</ele>
        <time>2021-08-12T09:30:57.462Z</time>
      </trkpt>
      <trkpt lat="46.85716" lon="8.4861">
        <ele>2396</ele>
        <time>2021-08-12T09:30:58.462Z</time>
      </trkpt>
      <trkpt lat="46.85715" lon="8.4861">
        <ele>2396</ele>
        <time>2021-08-12T09:30:59.462Z</time>
      </trkpt>
      <trkpt lat="46.85714" lon="8.4861">
        <ele>2396</ele>
        <time>2021-08-12T09:31:00.462Z</time>
      </trkpt>
      <trkpt lat="46.85714" lon="8.48612">
        <ele>2396</ele>
        <time>2021-08-12T09:31:01.462Z</time>
      </trkpt>
      <trkpt lat="46.85714" lon="8.48613">
        <ele>2396</ele>
        <time>2021-08-12T09:31:02.462Z</time>
      </trkpt>
      <trkpt lat="46.85714" lon="8.48615">
        <ele>2396</ele>
        <time>2021-08-12T09:31:03.462Z</time>
      </trkpt>
      <trkpt lat="46.85713" lon="8.48617">
        <ele>2396</ele>
        <time>2021-08-12T09:31:04.462Z</time>
      </trkpt>
      <trkpt lat="46.85712" lon="8.48618">
        <ele>2396</ele>
        <time>2021-08-12T09:31:05.462Z</time>
      </trkpt>
      <trkpt lat="46.85711" lon="8.48619">
        <ele>2396</ele>
        <time>2021-08-12T09:31:06.463Z</time>
      </trkpt>
      <trkpt lat="46.85711" lon="8.4862">
        <ele>2397</ele>
        <time>2021-08-12T09:31:07.463Z</time>
      </trkpt>
      <trkpt lat="46.8571" lon="8.48621">
        <ele>2397</ele>
        <time>2021-08-12T09:31:08.462Z</time>
      </trkpt>
      <trkpt lat="46.85709" lon="8.48623">
        <ele>2398</ele>
        <time>2021-08-12T09:31:09.463Z</time>
      </trkpt>
      <trkpt lat="46.85709" lon="8.48624">
        <ele>2398</ele>
        <time>2021-08-12T09:31:10.462Z</time>
      </trkpt>
      <trkpt lat="46.85709" lon="8.48625">
        <ele>2398</ele>
        <time>2021-08-12T09:31:11.463Z</time>
      </trkpt>
      <trkpt lat="46.85709" lon="8.48626">
        <ele>2398</ele>
        <time>2021-08-12T09:31:12.463Z</time>
      </trkpt>
      <trkpt lat="46.85708" lon="8.48626">
        <ele>2398</ele>
        <time>2021-08-12T09:31:13.463Z</time>
      </trkpt>
      <trkpt lat="46.85707" lon="8.48627">
        <ele>2397</ele>
        <time>2021-08-12T09:31:14.462Z</time>
      </trkpt>
      <trkpt lat="46.85706" lon="8.48628">
        <ele>2397</ele>
        <time>2021-08-12T09:31:15.463Z</time>
      </trkpt>
      <trkpt lat="46.85704" lon="8.48628">
        <ele>2398</ele>
        <time>2021-08-12T09:31:16.463Z</time>
      </trkpt>
      <trkpt lat="46.85704" lon="8.48629">
        <ele>2398</ele>
        <time>2021-08-12T09:31:17.462Z</time>
      </trkpt>
      <trkpt lat="46.85703" lon="8.4863">
        <ele>2398</ele>
        <time>2021-08-12T09:31:18.463Z</time>
      </trkpt>
      <trkpt lat="46.85703" lon="8.48631">
        <ele>2399</ele>
        <time>2021-08-12T09:31:19.462Z</time>
      </trkpt>
      <trkpt lat="46.85703" lon="8.48631">
        <ele>2400</ele>
        <time>2021-08-12T09:31:20.462Z</time>
      </trkpt>
      <trkpt lat="46.85703" lon="8.48631">
        <ele>2400</ele>
        <time>2021-08-12T09:31:21.463Z</time>
      </trkpt>
      <trkpt lat="46.85704" lon="8.48631">
        <ele>2401</ele>
        <time>2021-08-12T09:31:22.463Z</time>
      </trkpt>
      <trkpt lat="46.85703" lon="8.48631">
        <ele>2402</ele>
        <time>2021-08-12T09:31:23.463Z</time>
      </trkpt>
      <trkpt lat="46.85703" lon="8.48631">
        <ele>2402</ele>
        <time>2021-08-12T09:31:24.463Z</time>
      </trkpt>
      <trkpt lat="46.85702" lon="8.48631">
        <ele>2403</ele>
        <time>2021-08-12T09:31:25.463Z</time>
      </trkpt>
      <trkpt lat="46.85702" lon="8.48631">
        <ele>2404</ele>
        <time>2021-08-12T09:31:26.462Z</time>
      </trkpt>
      <trkpt lat="46.85702" lon="8.48632">
        <ele>2405</ele>
        <time>2021-08-12T09:31:27.463Z</time>
      </trkpt>
      <trkpt lat="46.85702" lon="8.48631">
        <ele>2405</ele>
        <time>2021-08-12T09:31:28.462Z</time>
      </trkpt>
      <trkpt lat="46.85702" lon="8.48637">
        <ele>2409</ele>
        <time>2021-08-12T09:31:29.463Z</time>
      </trkpt>
      <trkpt lat="46.85702" lon="8.48639">
        <ele>2410</ele>
        <time>2021-08-12T09:31:30.463Z</time>
      </trkpt>
      <trkpt lat="46.85701" lon="8.48641">
        <ele>2410</ele>
        <time>2021-08-12T09:31:31.462Z</time>
      </trkpt>
      <trkpt lat="46.85705" lon="8.48649">
        <ele>2407</ele>
        <time>2021-08-12T09:31:32.464Z</time>
      </trkpt>
      <trkpt lat="46.85705" lon="8.48649">
        <ele>2407</ele>
        <time>2021-08-12T09:31:33.463Z</time>
      </trkpt>
      <trkpt lat="46.85707" lon="8.4865">
        <ele>2409</ele>
        <time>2021-08-12T09:31:34.463Z</time>
      </trkpt>
      <trkpt lat="46.8571" lon="8.48648">
        <ele>2414</ele>
        <time>2021-08-12T09:31:35.465Z</time>
      </trkpt>
      <trkpt lat="46.8571" lon="8.48648">
        <ele>2414</ele>
        <time>2021-08-12T09:31:36.465Z</time>
      </trkpt>
      <trkpt lat="46.8571" lon="8.48648">
        <ele>2414</ele>
        <time>2021-08-12T09:31:37.464Z</time>
      </trkpt>
      <trkpt lat="46.85711" lon="8.48647">
        <ele>2414</ele>
        <time>2021-08-12T09:31:38.465Z</time>
      </trkpt>
      <trkpt lat="46.8571" lon="8.48646">
        <ele>2413</ele>
        <time>2021-08-12T09:31:39.465Z</time>
      </trkpt>
      <trkpt lat="46.8571" lon="8.48646">
        <ele>2412</ele>
        <time>2021-08-12T09:31:40.465Z</time>
      </trkpt>
      <trkpt lat="46.8571" lon="8.48647">
        <ele>2412</ele>
        <time>2021-08-12T09:31:41.465Z</time>
      </trkpt>
      <trkpt lat="46.8571" lon="8.48647">
        <ele>2412</ele>
        <time>2021-08-12T09:31:42.465Z</time>
      </trkpt>
      <trkpt lat="46.8571" lon="8.48648">
        <ele>2411</ele>
        <time>2021-08-12T09:31:43.464Z</time>
      </trkpt>
      <trkpt lat="46.8571" lon="8.48648">
        <ele>2411</ele>
        <time>2021-08-12T09:31:44.464Z</time>
      </trkpt>
      <trkpt lat="46.85709" lon="8.48649">
        <ele>2410</ele>
        <time>2021-08-12T09:31:45.465Z</time>
      </trkpt>
      <trkpt lat="46.85709" lon="8.4865">
        <ele>2409</ele>
        <time>2021-08-12T09:31:46.465Z</time>
      </trkpt>
      <trkpt lat="46.85708" lon="8.48651">
        <ele>2409</ele>
        <time>2021-08-12T09:31:47.464Z</time>
      </trkpt>
      <trkpt lat="46.85708" lon="8.48651">
        <ele>2408</ele>
        <time>2021-08-12T09:31:48.465Z</time>
      </trkpt>
      <trkpt lat="46.85707" lon="8.48651">
        <ele>2408</ele>
        <time>2021-08-12T09:31:49.464Z</time>
      </trkpt>
      <trkpt lat="46.85706" lon="8.48651">
        <ele>2407</ele>
        <time>2021-08-12T09:31:50.465Z</time>
      </trkpt>
      <trkpt lat="46.85705" lon="8.48651">
        <ele>2407</ele>
        <time>2021-08-12T09:31:51.464Z</time>
      </trkpt>
      <trkpt lat="46.85705" lon="8.48651">
        <ele>2407</ele>
        <time>2021-08-12T09:31:52.465Z</time>
      </trkpt>
      <trkpt lat="46.85706" lon="8.48652">
        <ele>2406</ele>
        <time>2021-08-12T09:31:53.465Z</time>
      </trkpt>
      <trkpt lat="46.85706" lon="8.48652">
        <ele>2405</ele>
        <time>2021-08-12T09:31:54.465Z</time>
      </trkpt>
      <trkpt lat="46.85706" lon="8.48653">
        <ele>2404</ele>
        <time>2021-08-12T09:31:55.464Z</time>
      </trkpt>
      <trkpt lat="46.85706" lon="8.48653">
        <ele>2403</ele>
        <time>2021-08-12T09:31:56.465Z</time>
      </trkpt>
      <trkpt lat="46.85705" lon="8.48654">
        <ele>2403</ele>
        <time>2021-08-12T09:31:57.465Z</time>
      </trkpt>
      <trkpt lat="46.85704" lon="8.48654">
        <ele>2402</ele>
        <time>2021-08-12T09:31:58.464Z</time>
      </trkpt>
      <trkpt lat="46.85703" lon="8.48654">
        <ele>2402</ele>
        <time>2021-08-12T09:31:59.465Z</time>
      </trkpt>
      <trkpt lat="46.85701" lon="8.48654">
        <ele>2401</ele>
        <time>2021-08-12T09:32:00.465Z</time>
      </trkpt>
      <trkpt lat="46.85701" lon="8.48655">
        <ele>2401</ele>
        <time>2021-08-12T09:32:01.465Z</time>
      </trkpt>
      <trkpt lat="46.857" lon="8.48655">
        <ele>2400</ele>
        <time>2021-08-12T09:32:02.464Z</time>
      </trkpt>
      <trkpt lat="46.857" lon="8.48656">
        <ele>2400</ele>
        <time>2021-08-12T09:32:03.464Z</time>
      </trkpt>
      <trkpt lat="46.857" lon="8.48657">
        <ele>2399</ele>
        <time>2021-08-12T09:32:04.464Z</time>
      </trkpt>
      <trkpt lat="46.857" lon="8.48658">
        <ele>2399</ele>
        <time>2021-08-12T09:32:05.465Z</time>
      </trkpt>
      <trkpt lat="46.857" lon="8.48658">
        <ele>2398</ele>
        <time>2021-08-12T09:32:06.465Z</time>
      </trkpt>
      <trkpt lat="46.857" lon="8.48658">
        <ele>2398</ele>
        <time>2021-08-12T09:32:07.464Z</time>
      </trkpt>
      <trkpt lat="46.85699" lon="8.48659">
        <ele>2398</ele>
        <time>2021-08-12T09:32:08.465Z</time>
      </trkpt>
      <trkpt lat="46.85699" lon="8.4866">
        <ele>2398</ele>
        <time>2021-08-12T09:32:09.464Z</time>
      </trkpt>
      <trkpt lat="46.85698" lon="8.4866">
        <ele>2398</ele>
        <time>2021-08-12T09:32:10.465Z</time>
      </trkpt>
      <trkpt lat="46.85697" lon="8.48661">
        <ele>2399</ele>
        <time>2021-08-12T09:32:11.464Z</time>
      </trkpt>
      <trkpt lat="46.85697" lon="8.48661">
        <ele>2399</ele>
        <time>2021-08-12T09:32:12.464Z</time>
      </trkpt>
      <trkpt lat="46.85696" lon="8.48662">
        <ele>2399</ele>
        <time>2021-08-12T09:32:13.464Z</time>
      </trkpt>
      <trkpt lat="46.85696" lon="8.48663">
        <ele>2399</ele>
        <time>2021-08-12T09:32:14.464Z</time>
      </trkpt>
      <trkpt lat="46.85696" lon="8.48664">
        <ele>2400</ele>
        <time>2021-08-12T09:32:15.465Z</time>
      </trkpt>
      <trkpt lat="46.85696" lon="8.48665">
        <ele>2401</ele>
        <time>2021-08-12T09:32:16.465Z</time>
      </trkpt>
      <trkpt lat="46.85696" lon="8.48666">
        <ele>2401</ele>
        <time>2021-08-12T09:32:17.464Z</time>
      </trkpt>
      <trkpt lat="46.85696" lon="8.48665">
        <ele>2402</ele>
        <time>2021-08-12T09:32:18.465Z</time>
      </trkpt>
      <trkpt lat="46.85695" lon="8.48665">
        <ele>2402</ele>
        <time>2021-08-12T09:32:19.465Z</time>
      </trkpt>
      <trkpt lat="46.85695" lon="8.48664">
        <ele>2402</ele>
        <time>2021-08-12T09:32:20.465Z</time>
      </trkpt>
      <trkpt lat="46.85695" lon="8.48664">
        <ele>2403</ele>
        <time>2021-08-12T09:32:21.464Z</time>
      </trkpt>
      <trkpt lat="46.85695" lon="8.48664">
        <ele>2403</ele>
        <time>2021-08-12T09:32:22.465Z</time>
      </trkpt>
      <trkpt lat="46.85695" lon="8.48665">
        <ele>2404</ele>
        <time>2021-08-12T09:32:23.464Z</time>
      </trkpt>
      <trkpt lat="46.85695" lon="8.48666">
        <ele>2406</ele>
        <time>2021-08-12T09:32:24.465Z</time>
      </trkpt>
      <trkpt lat="46.85695" lon="8.48669">
        <ele>2408</ele>
        <time>2021-08-12T09:32:25.466Z</time>
      </trkpt>
      <trkpt lat="46.85695" lon="8.48669">
        <ele>2408</ele>
        <time>2021-08-12T09:32:26.466Z</time>
      </trkpt>
      <trkpt lat="46.85695" lon="8.48671">
        <ele>2408</ele>
        <time>2021-08-12T09:32:27.466Z</time>
      </trkpt>
      <trkpt lat="46.85696" lon="8.48672">
        <ele>2409</ele>
        <time>2021-08-12T09:32:28.466Z</time>
      </trkpt>
      <trkpt lat="46.85696" lon="8.48673">
        <ele>2409</ele>
        <time>2021-08-12T09:32:29.465Z</time>
      </trkpt>
      <trkpt lat="46.85696" lon="8.48674">
        <ele>2409</ele>
        <time>2021-08-12T09:32:30.466Z</time>
      </trkpt>
      <trkpt lat="46.85695" lon="8.48676">
        <ele>2410</ele>
        <time>2021-08-12T09:32:31.465Z</time>
      </trkpt>
      <trkpt lat="46.85696" lon="8.48677">
        <ele>2411</ele>
        <time>2021-08-12T09:32:32.466Z</time>
      </trkpt>
      <trkpt lat="46.85695" lon="8.48678">
        <ele>2411</ele>
        <time>2021-08-12T09:32:33.465Z</time>
      </trkpt>
      <trkpt lat="46.85696" lon="8.48678">
        <ele>2412</ele>
        <time>2021-08-12T09:32:34.466Z</time>
      </trkpt>
      <trkpt lat="46.85696" lon="8.48679">
        <ele>2412</ele>
        <time>2021-08-12T09:32:35.466Z</time>
      </trkpt>
      <trkpt lat="46.85696" lon="8.4868">
        <ele>2412</ele>
        <time>2021-08-12T09:32:36.465Z</time>
      </trkpt>
      <trkpt lat="46.85696" lon="8.48681">
        <ele>2412</ele>
        <time>2021-08-12T09:32:37.465Z</time>
      </trkpt>
      <trkpt lat="46.85696" lon="8.48683">
        <ele>2412</ele>
        <time>2021-08-12T09:32:38.465Z</time>
      </trkpt>
      <trkpt lat="46.85696" lon="8.48685">
        <ele>2412</ele>
        <time>2021-08-12T09:32:39.465Z</time>
      </trkpt>
      <trkpt lat="46.85697" lon="8.48687">
        <ele>2412</ele>
        <time>2021-08-12T09:32:40.465Z</time>
      </trkpt>
      <trkpt lat="46.85696" lon="8.48688">
        <ele>2412</ele>
        <time>2021-08-12T09:32:41.465Z</time>
      </trkpt>
      <trkpt lat="46.85695" lon="8.48688">
        <ele>2412</ele>
        <time>2021-08-12T09:32:42.465Z</time>
      </trkpt>
      <trkpt lat="46.85694" lon="8.48687">
        <ele>2412</ele>
        <time>2021-08-12T09:32:43.465Z</time>
      </trkpt>
      <trkpt lat="46.85693" lon="8.48687">
        <ele>2411</ele>
        <time>2021-08-12T09:32:44.466Z</time>
      </trkpt>
      <trkpt lat="46.85692" lon="8.48687">
        <ele>2411</ele>
        <time>2021-08-12T09:32:45.465Z</time>
      </trkpt>
      <trkpt lat="46.85691" lon="8.48687">
        <ele>2411</ele>
        <time>2021-08-12T09:32:46.465Z</time>
      </trkpt>
      <trkpt lat="46.8569" lon="8.48688">
        <ele>2411</ele>
        <time>2021-08-12T09:32:47.466Z</time>
      </trkpt>
      <trkpt lat="46.8569" lon="8.48689">
        <ele>2410</ele>
        <time>2021-08-12T09:32:48.466Z</time>
      </trkpt>
      <trkpt lat="46.8569" lon="8.48691">
        <ele>2410</ele>
        <time>2021-08-12T09:32:49.465Z</time>
      </trkpt>
      <trkpt lat="46.8569" lon="8.48691">
        <ele>2410</ele>
        <time>2021-08-12T09:32:50.465Z</time>
      </trkpt>
      <trkpt lat="46.85689" lon="8.48692">
        <ele>2410</ele>
        <time>2021-08-12T09:32:51.466Z</time>
      </trkpt>
      <trkpt lat="46.85689" lon="8.48693">
        <ele>2409</ele>
        <time>2021-08-12T09:32:52.466Z</time>
      </trkpt>
      <trkpt lat="46.85689" lon="8.48694">
        <ele>2409</ele>
        <time>2021-08-12T09:32:53.465Z</time>
      </trkpt>
      <trkpt lat="46.85688" lon="8.48695">
        <ele>2409</ele>
        <time>2021-08-12T09:32:54.465Z</time>
      </trkpt>
      <trkpt lat="46.85688" lon="8.48696">
        <ele>2410</ele>
        <time>2021-08-12T09:32:55.465Z</time>
      </trkpt>
      <trkpt lat="46.85688" lon="8.48697">
        <ele>2410</ele>
        <time>2021-08-12T09:32:56.465Z</time>
      </trkpt>
      <trkpt lat="46.85688" lon="8.48698">
        <ele>2410</ele>
        <time>2021-08-12T09:32:57.465Z</time>
      </trkpt>
      <trkpt lat="46.85688" lon="8.48699">
        <ele>2410</ele>
        <time>2021-08-12T09:32:58.465Z</time>
      </trkpt>
      <trkpt lat="46.85687" lon="8.48699">
        <ele>2410</ele>
        <time>2021-08-12T09:32:59.466Z</time>
      </trkpt>
      <trkpt lat="46.85686" lon="8.48699">
        <ele>2410</ele>
        <time>2021-08-12T09:33:00.465Z</time>
      </trkpt>
      <trkpt lat="46.85685" lon="8.487">
        <ele>2411</ele>
        <time>2021-08-12T09:33:01.466Z</time>
      </trkpt>
      <trkpt lat="46.85685" lon="8.48701">
        <ele>2411</ele>
        <time>2021-08-12T09:33:02.465Z</time>
      </trkpt>
      <trkpt lat="46.85684" lon="8.48701">
        <ele>2411</ele>
        <time>2021-08-12T09:33:03.465Z</time>
      </trkpt>
      <trkpt lat="46.85684" lon="8.48702">
        <ele>2411</ele>
        <time>2021-08-12T09:33:04.466Z</time>
      </trkpt>
      <trkpt lat="46.85684" lon="8.48702">
        <ele>2410</ele>
        <time>2021-08-12T09:33:05.465Z</time>
      </trkpt>
      <trkpt lat="46.85683" lon="8.48703">
        <ele>2409</ele>
        <time>2021-08-12T09:33:06.466Z</time>
      </trkpt>
      <trkpt lat="46.85683" lon="8.48703">
        <ele>2408</ele>
        <time>2021-08-12T09:33:07.466Z</time>
      </trkpt>
      <trkpt lat="46.85684" lon="8.48706">
        <ele>2406</ele>
        <time>2021-08-12T09:33:08.466Z</time>
      </trkpt>
      <trkpt lat="46.85684" lon="8.48707">
        <ele>2406</ele>
        <time>2021-08-12T09:33:09.466Z</time>
      </trkpt>
      <trkpt lat="46.85685" lon="8.48707">
        <ele>2407</ele>
        <time>2021-08-12T09:33:10.467Z</time>
      </trkpt>
      <trkpt lat="46.85685" lon="8.48708">
        <ele>2408</ele>
        <time>2021-08-12T09:33:11.466Z</time>
      </trkpt>
      <trkpt lat="46.85688" lon="8.48715">
        <ele>2413</ele>
        <time>2021-08-12T09:33:12.469Z</time>
      </trkpt>
      <trkpt lat="46.85688" lon="8.48715">
        <ele>2413</ele>
        <time>2021-08-12T09:33:13.468Z</time>
      </trkpt>
      <trkpt lat="46.8569" lon="8.48715">
        <ele>2414</ele>
        <time>2021-08-12T09:33:14.469Z</time>
      </trkpt>
      <trkpt lat="46.8569" lon="8.48717">
        <ele>2415</ele>
        <time>2021-08-12T09:33:15.469Z</time>
      </trkpt>
      <trkpt lat="46.85691" lon="8.48717">
        <ele>2416</ele>
        <time>2021-08-12T09:33:16.469Z</time>
      </trkpt>
      <trkpt lat="46.85692" lon="8.48717">
        <ele>2416</ele>
        <time>2021-08-12T09:33:17.469Z</time>
      </trkpt>
      <trkpt lat="46.85692" lon="8.48717">
        <ele>2417</ele>
        <time>2021-08-12T09:33:18.468Z</time>
      </trkpt>
      <trkpt lat="46.85692" lon="8.48717">
        <ele>2417</ele>
        <time>2021-08-12T09:33:19.469Z</time>
      </trkpt>
      <trkpt lat="46.85691" lon="8.48717">
        <ele>2417</ele>
        <time>2021-08-12T09:33:20.469Z</time>
      </trkpt>
      <trkpt lat="46.85692" lon="8.48718">
        <ele>2418</ele>
        <time>2021-08-12T09:33:21.468Z</time>
      </trkpt>
      <trkpt lat="46.85692" lon="8.48718">
        <ele>2418</ele>
        <time>2021-08-12T09:33:22.468Z</time>
      </trkpt>
      <trkpt lat="46.85693" lon="8.48717">
        <ele>2418</ele>
        <time>2021-08-12T09:33:23.469Z</time>
      </trkpt>
      <trkpt lat="46.85693" lon="8.48717">
        <ele>2418</ele>
        <time>2021-08-12T09:33:24.469Z</time>
      </trkpt>
      <trkpt lat="46.85693" lon="8.48717">
        <ele>2418</ele>
        <time>2021-08-12T09:33:25.468Z</time>
      </trkpt>
      <trkpt lat="46.85693" lon="8.48717">
        <ele>2419</ele>
        <time>2021-08-12T09:33:26.469Z</time>
      </trkpt>
      <trkpt lat="46.85693" lon="8.48716">
        <ele>2419</ele>
        <time>2021-08-12T09:33:27.469Z</time>
      </trkpt>
      <trkpt lat="46.85693" lon="8.48716">
        <ele>2419</ele>
        <time>2021-08-12T09:33:28.469Z</time>
      </trkpt>
      <trkpt lat="46.85694" lon="8.48716">
        <ele>2419</ele>
        <time>2021-08-12T09:33:29.469Z</time>
      </trkpt>
      <trkpt lat="46.85694" lon="8.48716">
        <ele>2419</ele>
        <time>2021-08-12T09:33:30.468Z</time>
      </trkpt>
      <trkpt lat="46.85695" lon="8.48715">
        <ele>2419</ele>
        <time>2021-08-12T09:33:31.469Z</time>
      </trkpt>
      <trkpt lat="46.85696" lon="8.48714">
        <ele>2419</ele>
        <time>2021-08-12T09:33:32.469Z</time>
      </trkpt>
      <trkpt lat="46.85697" lon="8.48714">
        <ele>2419</ele>
        <time>2021-08-12T09:33:33.469Z</time>
      </trkpt>
      <trkpt lat="46.85697" lon="8.48713">
        <ele>2418</ele>
        <time>2021-08-12T09:33:34.469Z</time>
      </trkpt>
      <trkpt lat="46.85698" lon="8.48713">
        <ele>2418</ele>
        <time>2021-08-12T09:33:35.468Z</time>
      </trkpt>
      <trkpt lat="46.85698" lon="8.48713">
        <ele>2418</ele>
        <time>2021-08-12T09:33:36.469Z</time>
      </trkpt>
      <trkpt lat="46.85699" lon="8.48712">
        <ele>2417</ele>
        <time>2021-08-12T09:33:37.468Z</time>
      </trkpt>
      <trkpt lat="46.857" lon="8.48711">
        <ele>2418</ele>
        <time>2021-08-12T09:33:38.468Z</time>
      </trkpt>
      <trkpt lat="46.85701" lon="8.48711">
        <ele>2418</ele>
        <time>2021-08-12T09:33:39.468Z</time>
      </trkpt>
      <trkpt lat="46.85701" lon="8.48711">
        <ele>2419</ele>
        <time>2021-08-12T09:33:40.468Z</time>
      </trkpt>
      <trkpt lat="46.85701" lon="8.48711">
        <ele>2421</ele>
        <time>2021-08-12T09:33:41.468Z</time>
      </trkpt>
      <trkpt lat="46.85711" lon="8.48708">
        <ele>2429</ele>
        <time>2021-08-12T09:33:42.469Z</time>
      </trkpt>
      <trkpt lat="46.85711" lon="8.48708">
        <ele>2430</ele>
        <time>2021-08-12T09:33:43.469Z</time>
      </trkpt>
      <trkpt lat="46.85712" lon="8.48707">
        <ele>2430</ele>
        <time>2021-08-12T09:33:44.469Z</time>
      </trkpt>
      <trkpt lat="46.85712" lon="8.48707">
        <ele>2429</ele>
        <time>2021-08-12T09:33:45.469Z</time>
      </trkpt>
      <trkpt lat="46.85712" lon="8.48707">
        <ele>2429</ele>
        <time>2021-08-12T09:33:46.469Z</time>
      </trkpt>
      <trkpt lat="46.85711" lon="8.48707">
        <ele>2429</ele>
        <time>2021-08-12T09:33:47.468Z</time>
      </trkpt>
      <trkpt lat="46.85712" lon="8.48708">
        <ele>2429</ele>
        <time>2021-08-12T09:33:48.469Z</time>
      </trkpt>
      <trkpt lat="46.85712" lon="8.48708">
        <ele>2430</ele>
        <time>2021-08-12T09:33:49.469Z</time>
      </trkpt>
      <trkpt lat="46.85713" lon="8.48708">
        <ele>2430</ele>
        <time>2021-08-12T09:33:50.468Z</time>
      </trkpt>
      <trkpt lat="46.85712" lon="8.48708">
        <ele>2434</ele>
        <time>2021-08-12T09:33:51.470Z</time>
      </trkpt>
      <trkpt lat="46.85708" lon="8.48708">
        <ele>2428</ele>
        <time>2021-08-12T09:33:52.470Z</time>
      </trkpt>
      <trkpt lat="46.85708" lon="8.48707">
        <ele>2428</ele>
        <time>2021-08-12T09:33:53.470Z</time>
      </trkpt>
      <trkpt lat="46.85707" lon="8.48706">
        <ele>2428</ele>
        <time>2021-08-12T09:33:54.469Z</time>
      </trkpt>
      <trkpt lat="46.85706" lon="8.48707">
        <ele>2427</ele>
        <time>2021-08-12T09:33:55.470Z</time>
      </trkpt>
      <trkpt lat="46.85706" lon="8.48707">
        <ele>2427</ele>
        <time>2021-08-12T09:33:56.470Z</time>
      </trkpt>
      <trkpt lat="46.85705" lon="8.48707">
        <ele>2427</ele>
        <time>2021-08-12T09:33:57.470Z</time>
      </trkpt>
      <trkpt lat="46.85705" lon="8.48708">
        <ele>2427</ele>
        <time>2021-08-12T09:33:58.470Z</time>
      </trkpt>
      <trkpt lat="46.85705" lon="8.48708">
        <ele>2426</ele>
        <time>2021-08-12T09:33:59.470Z</time>
      </trkpt>
      <trkpt lat="46.85705" lon="8.48709">
        <ele>2426</ele>
        <time>2021-08-12T09:34:00.469Z</time>
      </trkpt>
      <trkpt lat="46.85707" lon="8.48709">
        <ele>2421</ele>
        <time>2021-08-12T09:34:01.470Z</time>
      </trkpt>
      <trkpt lat="46.85705" lon="8.4871">
        <ele>2421</ele>
        <time>2021-08-12T09:34:02.470Z</time>
      </trkpt>
      <trkpt lat="46.85704" lon="8.4871">
        <ele>2420</ele>
        <time>2021-08-12T09:34:03.469Z</time>
      </trkpt>
      <trkpt lat="46.85704" lon="8.4871">
        <ele>2420</ele>
        <time>2021-08-12T09:34:04.469Z</time>
      </trkpt>
      <trkpt lat="46.85703" lon="8.48707">
        <ele>2420</ele>
        <time>2021-08-12T09:34:05.470Z</time>
      </trkpt>
      <trkpt lat="46.85703" lon="8.48705">
        <ele>2419</ele>
        <time>2021-08-12T09:34:06.470Z</time>
      </trkpt>
      <trkpt lat="46.85702" lon="8.48703">
        <ele>2419</ele>
        <time>2021-08-12T09:34:07.470Z</time>
      </trkpt>
      <trkpt lat="46.85702" lon="8.48702">
        <ele>2419</ele>
        <time>2021-08-12T09:34:08.469Z</time>
      </trkpt>
      <trkpt lat="46.85702" lon="8.48701">
        <ele>2419</ele>
        <time>2021-08-12T09:34:09.470Z</time>
      </trkpt>
      <trkpt lat="46.85703" lon="8.48701">
        <ele>2419</ele>
        <time>2021-08-12T09:34:10.470Z</time>
      </trkpt>
      <trkpt lat="46.85702" lon="8.48702">
        <ele>2418</ele>
        <time>2021-08-12T09:34:11.470Z</time>
      </trkpt>
      <trkpt lat="46.85701" lon="8.48701">
        <ele>2418</ele>
        <time>2021-08-12T09:34:12.470Z</time>
      </trkpt>
      <trkpt lat="46.857" lon="8.48701">
        <ele>2419</ele>
        <time>2021-08-12T09:34:13.470Z</time>
      </trkpt>
      <trkpt lat="46.85698" lon="8.48701">
        <ele>2423</ele>
        <time>2021-08-12T09:34:14.471Z</time>
      </trkpt>
      <trkpt lat="46.85698" lon="8.48702">
        <ele>2424</ele>
        <time>2021-08-12T09:34:15.471Z</time>
      </trkpt>
      <trkpt lat="46.85697" lon="8.48704">
        <ele>2427</ele>
        <time>2021-08-12T09:34:16.470Z</time>
      </trkpt>
      <trkpt lat="46.85696" lon="8.48704">
        <ele>2428</ele>
        <time>2021-08-12T09:34:17.471Z</time>
      </trkpt>
      <trkpt lat="46.85696" lon="8.48703">
        <ele>2428</ele>
        <time>2021-08-12T09:34:18.471Z</time>
      </trkpt>
      <trkpt lat="46.85695" lon="8.48704">
        <ele>2425</ele>
        <time>2021-08-12T09:34:19.471Z</time>
      </trkpt>
      <trkpt lat="46.85695" lon="8.48704">
        <ele>2424</ele>
        <time>2021-08-12T09:34:20.471Z</time>
      </trkpt>
      <trkpt lat="46.85695" lon="8.48705">
        <ele>2423</ele>
        <time>2021-08-12T09:34:21.471Z</time>
      </trkpt>
      <trkpt lat="46.85695" lon="8.48705">
        <ele>2422</ele>
        <time>2021-08-12T09:34:22.471Z</time>
      </trkpt>
      <trkpt lat="46.85695" lon="8.48705">
        <ele>2422</ele>
        <time>2021-08-12T09:34:23.470Z</time>
      </trkpt>
      <trkpt lat="46.85695" lon="8.48705">
        <ele>2421</ele>
        <time>2021-08-12T09:34:24.470Z</time>
      </trkpt>
      <trkpt lat="46.85695" lon="8.48705">
        <ele>2421</ele>
        <time>2021-08-12T09:34:25.470Z</time>
      </trkpt>
      <trkpt lat="46.85695" lon="8.48704">
        <ele>2420</ele>
        <time>2021-08-12T09:34:26.471Z</time>
      </trkpt>
      <trkpt lat="46.85695" lon="8.48703">
        <ele>2420</ele>
        <time>2021-08-12T09:34:27.471Z</time>
      </trkpt>
      <trkpt lat="46.85698" lon="8.487">
        <ele>2428</ele>
        <time>2021-08-12T09:34:28.472Z</time>
      </trkpt>
      <trkpt lat="46.857" lon="8.48701">
        <ele>2429</ele>
        <time>2021-08-12T09:34:29.473Z</time>
      </trkpt>
      <trkpt lat="46.85701" lon="8.48701">
        <ele>2430</ele>
        <time>2021-08-12T09:34:30.473Z</time>
      </trkpt>
      <trkpt lat="46.85702" lon="8.48701">
        <ele>2430</ele>
        <time>2021-08-12T09:34:31.472Z</time>
      </trkpt>
      <trkpt lat="46.85698" lon="8.48698">
        <ele>2432</ele>
        <time>2021-08-12T09:34:32.473Z</time>
      </trkpt>
      <trkpt lat="46.85697" lon="8.48698">
        <ele>2432</ele>
        <time>2021-08-12T09:34:33.473Z</time>
      </trkpt>
      <trkpt lat="46.85696" lon="8.48698">
        <ele>2432</ele>
        <time>2021-08-12T09:34:34.472Z</time>
      </trkpt>
      <trkpt lat="46.85696" lon="8.48697">
        <ele>2432</ele>
        <time>2021-08-12T09:34:35.473Z</time>
      </trkpt>
      <trkpt lat="46.85696" lon="8.48697">
        <ele>2432</ele>
        <time>2021-08-12T09:34:36.473Z</time>
      </trkpt>
      <trkpt lat="46.85696" lon="8.48697">
        <ele>2434</ele>
        <time>2021-08-12T09:34:37.472Z</time>
      </trkpt>
      <trkpt lat="46.85696" lon="8.48698">
        <ele>2434</ele>
        <time>2021-08-12T09:34:38.472Z</time>
      </trkpt>
      <trkpt lat="46.85701" lon="8.48687">
        <ele>2442</ele>
        <time>2021-08-12T09:34:39.474Z</time>
      </trkpt>
      <trkpt lat="46.857" lon="8.48687">
        <ele>2443</ele>
        <time>2021-08-12T09:34:40.473Z</time>
      </trkpt>
      <trkpt lat="46.857" lon="8.48687">
        <ele>2444</ele>
        <time>2021-08-12T09:34:41.473Z</time>
      </trkpt>
      <trkpt lat="46.857" lon="8.48687">
        <ele>2445</ele>
        <time>2021-08-12T09:34:42.473Z</time>
      </trkpt>
      <trkpt lat="46.85701" lon="8.48688">
        <ele>2457</ele>
        <time>2021-08-12T09:34:43.474Z</time>
      </trkpt>
      <trkpt lat="46.85701" lon="8.48688">
        <ele>2459</ele>
        <time>2021-08-12T09:34:44.474Z</time>
      </trkpt>
      <trkpt lat="46.85701" lon="8.48688">
        <ele>2461</ele>
        <time>2021-08-12T09:34:45.473Z</time>
      </trkpt>
      <trkpt lat="46.85706" lon="8.48688">
        <ele>2476</ele>
        <time>2021-08-12T09:34:46.474Z</time>
      </trkpt>
      <trkpt lat="46.85706" lon="8.48688">
        <ele>2476</ele>
        <time>2021-08-12T09:34:47.474Z</time>
      </trkpt>
      <trkpt lat="46.85709" lon="8.48689">
        <ele>2472</ele>
        <time>2021-08-12T09:34:48.475Z</time>
      </trkpt>
      <trkpt lat="46.85709" lon="8.48689">
        <ele>2470</ele>
        <time>2021-08-12T09:34:49.474Z</time>
      </trkpt>
      <trkpt lat="46.8571" lon="8.48689">
        <ele>2469</ele>
        <time>2021-08-12T09:34:50.474Z</time>
      </trkpt>
      <trkpt lat="46.85706" lon="8.4869">
        <ele>2456</ele>
        <time>2021-08-12T09:34:51.475Z</time>
      </trkpt>
      <trkpt lat="46.85706" lon="8.48689">
        <ele>2455</ele>
        <time>2021-08-12T09:34:52.474Z</time>
      </trkpt>
      <trkpt lat="46.85702" lon="8.4869">
        <ele>2452</ele>
        <time>2021-08-12T09:34:53.475Z</time>
      </trkpt>
      <trkpt lat="46.85701" lon="8.4869">
        <ele>2452</ele>
        <time>2021-08-12T09:34:54.475Z</time>
      </trkpt>
      <trkpt lat="46.857" lon="8.48689">
        <ele>2452</ele>
        <time>2021-08-12T09:34:55.475Z</time>
      </trkpt>
      <trkpt lat="46.85697" lon="8.48691">
        <ele>2449</ele>
        <time>2021-08-12T09:34:56.475Z</time>
      </trkpt>
      <trkpt lat="46.85701" lon="8.487">
        <ele>2422</ele>
        <time>2021-08-12T09:34:57.476Z</time>
      </trkpt>
      <trkpt lat="46.857" lon="8.48699">
        <ele>2421</ele>
        <time>2021-08-12T09:34:58.477Z</time>
      </trkpt>
      <trkpt lat="46.857" lon="8.48699">
        <ele>2421</ele>
        <time>2021-08-12T09:34:59.477Z</time>
      </trkpt>
      <trkpt lat="46.85703" lon="8.48704">
        <ele>2418</ele>
        <time>2021-08-12T09:35:00.476Z</time>
      </trkpt>
      <trkpt lat="46.85703" lon="8.48705">
        <ele>2418</ele>
        <time>2021-08-12T09:35:01.477Z</time>
      </trkpt>
      <trkpt lat="46.85704" lon="8.48705">
        <ele>2417</ele>
        <time>2021-08-12T09:35:02.476Z</time>
      </trkpt>
      <trkpt lat="46.85705" lon="8.48705">
        <ele>2417</ele>
        <time>2021-08-12T09:35:03.477Z</time>
      </trkpt>
      <trkpt lat="46.85706" lon="8.48705">
        <ele>2416</ele>
        <time>2021-08-12T09:35:04.477Z</time>
      </trkpt>
      <trkpt lat="46.85706" lon="8.48705">
        <ele>2416</ele>
        <time>2021-08-12T09:35:05.477Z</time>
      </trkpt>
      <trkpt lat="46.85707" lon="8.48706">
        <ele>2416</ele>
        <time>2021-08-12T09:35:06.477Z</time>
      </trkpt>
      <trkpt lat="46.85708" lon="8.48703">
        <ele>2420</ele>
        <time>2021-08-12T09:35:07.476Z</time>
      </trkpt>
      <trkpt lat="46.85708" lon="8.48703">
        <ele>2420</ele>
        <time>2021-08-12T09:35:08.476Z</time>
      </trkpt>
      <trkpt lat="46.85707" lon="8.48702">
        <ele>2421</ele>
        <time>2021-08-12T09:35:09.476Z</time>
      </trkpt>
      <trkpt lat="46.85707" lon="8.48702">
        <ele>2422</ele>
        <time>2021-08-12T09:35:10.477Z</time>
      </trkpt>
      <trkpt lat="46.85708" lon="8.48702">
        <ele>2422</ele>
        <time>2021-08-12T09:35:11.476Z</time>
      </trkpt>
      <trkpt lat="46.85709" lon="8.48702">
        <ele>2422</ele>
        <time>2021-08-12T09:35:12.477Z</time>
      </trkpt>
      <trkpt lat="46.85711" lon="8.48703">
        <ele>2423</ele>
        <time>2021-08-12T09:35:13.476Z</time>
      </trkpt>
      <trkpt lat="46.85711" lon="8.48703">
        <ele>2423</ele>
        <time>2021-08-12T09:35:14.476Z</time>
      </trkpt>
      <trkpt lat="46.85711" lon="8.48703">
        <ele>2423</ele>
        <time>2021-08-12T09:35:15.476Z</time>
      </trkpt>
      <trkpt lat="46.8571" lon="8.48702">
        <ele>2424</ele>
        <time>2021-08-12T09:35:16.476Z</time>
      </trkpt>
      <trkpt lat="46.85707" lon="8.487">
        <ele>2428</ele>
        <time>2021-08-12T09:35:17.478Z</time>
      </trkpt>
      <trkpt lat="46.85707" lon="8.487">
        <ele>2430</ele>
        <time>2021-08-12T09:35:18.478Z</time>
      </trkpt>
      <trkpt lat="46.85706" lon="8.48699">
        <ele>2431</ele>
        <time>2021-08-12T09:35:19.478Z</time>
      </trkpt>
      <trkpt lat="46.85706" lon="8.48699">
        <ele>2432</ele>
        <time>2021-08-12T09:35:20.477Z</time>
      </trkpt>
      <trkpt lat="46.85706" lon="8.48699">
        <ele>2433</ele>
        <time>2021-08-12T09:35:21.477Z</time>
      </trkpt>
      <trkpt lat="46.85706" lon="8.48699">
        <ele>2434</ele>
        <time>2021-08-12T09:35:22.478Z</time>
      </trkpt>
      <trkpt lat="46.85706" lon="8.48698">
        <ele>2436</ele>
        <time>2021-08-12T09:35:23.478Z</time>
      </trkpt>
      <trkpt lat="46.85706" lon="8.48698">
        <ele>2436</ele>
        <time>2021-08-12T09:35:24.478Z</time>
      </trkpt>
      <trkpt lat="46.85706" lon="8.48698">
        <ele>2436</ele>
        <time>2021-08-12T09:35:25.479Z</time>
      </trkpt>
      <trkpt lat="46.85706" lon="8.48699">
        <ele>2435</ele>
        <time>2021-08-12T09:35:26.478Z</time>
      </trkpt>
      <trkpt lat="46.85706" lon="8.48699">
        <ele>2435</ele>
        <time>2021-08-12T09:35:27.479Z</time>
      </trkpt>
      <trkpt lat="46.85705" lon="8.48698">
        <ele>2435</ele>
        <time>2021-08-12T09:35:28.479Z</time>
      </trkpt>
      <trkpt lat="46.85704" lon="8.48698">
        <ele>2434</ele>
        <time>2021-08-12T09:35:29.479Z</time>
      </trkpt>
      <trkpt lat="46.85703" lon="8.48698">
        <ele>2434</ele>
        <time>2021-08-12T09:35:30.479Z</time>
      </trkpt>
      <trkpt lat="46.85701" lon="8.48698">
        <ele>2433</ele>
        <time>2021-08-12T09:35:31.479Z</time>
      </trkpt>
      <trkpt lat="46.85699" lon="8.48697">
        <ele>2433</ele>
        <time>2021-08-12T09:35:32.479Z</time>
      </trkpt>
      <trkpt lat="46.85697" lon="8.48696">
        <ele>2432</ele>
        <time>2021-08-12T09:35:33.478Z</time>
      </trkpt>
      <trkpt lat="46.85666" lon="8.48689">
        <ele>2428</ele>
        <time>2021-08-12T09:35:34.479Z</time>
      </trkpt>
      <trkpt lat="46.85665" lon="8.48688">
        <ele>2428</ele>
        <time>2021-08-12T09:35:35.479Z</time>
      </trkpt>
      <trkpt lat="46.85665" lon="8.48687">
        <ele>2428</ele>
        <time>2021-08-12T09:35:36.478Z</time>
      </trkpt>
      <trkpt lat="46.85665" lon="8.48686">
        <ele>2428</ele>
        <time>2021-08-12T09:35:37.479Z</time>
      </trkpt>
      <trkpt lat="46.85667" lon="8.48686">
        <ele>2432</ele>
        <time>2021-08-12T09:35:38.478Z</time>
      </trkpt>
      <trkpt lat="46.85669" lon="8.48687">
        <ele>2432</ele>
        <time>2021-08-12T09:35:39.479Z</time>
      </trkpt>
      <trkpt lat="46.85676" lon="8.4869">
        <ele>2433</ele>
        <time>2021-08-12T09:35:40.479Z</time>
      </trkpt>
      <trkpt lat="46.85677" lon="8.48691">
        <ele>2433</ele>
        <time>2021-08-12T09:35:41.478Z</time>
      </trkpt>
      <trkpt lat="46.85684" lon="8.48701">
        <ele>2419</ele>
        <time>2021-08-12T09:35:42.479Z</time>
      </trkpt>
      <trkpt lat="46.85685" lon="8.48702">
        <ele>2419</ele>
        <time>2021-08-12T09:35:43.479Z</time>
      </trkpt>
      <trkpt lat="46.85686" lon="8.48703">
        <ele>2419</ele>
        <time>2021-08-12T09:35:44.478Z</time>
      </trkpt>
      <trkpt lat="46.85687" lon="8.48703">
        <ele>2418</ele>
        <time>2021-08-12T09:35:45.479Z</time>
      </trkpt>
      <trkpt lat="46.85688" lon="8.48703">
        <ele>2418</ele>
        <time>2021-08-12T09:35:46.478Z</time>
      </trkpt>
      <trkpt lat="46.85692" lon="8.48705">
        <ele>2415</ele>
        <time>2021-08-12T09:35:47.478Z</time>
      </trkpt>
      <trkpt lat="46.85692" lon="8.48705">
        <ele>2415</ele>
        <time>2021-08-12T09:35:48.479Z</time>
      </trkpt>
      <trkpt lat="46.85692" lon="8.48705">
        <ele>2414</ele>
        <time>2021-08-12T09:35:49.478Z</time>
      </trkpt>
      <trkpt lat="46.85695" lon="8.48707">
        <ele>2412</ele>
        <time>2021-08-12T09:35:50.480Z</time>
      </trkpt>
      <trkpt lat="46.85695" lon="8.48708">
        <ele>2412</ele>
        <time>2021-08-12T09:35:51.479Z</time>
      </trkpt>
      <trkpt lat="46.85695" lon="8.48708">
        <ele>2412</ele>
        <time>2021-08-12T09:35:52.479Z</time>
      </trkpt>
      <trkpt lat="46.85696" lon="8.4871">
        <ele>2416</ele>
        <time>2021-08-12T09:35:53.481Z</time>
      </trkpt>
      <trkpt lat="46.85697" lon="8.48709">
        <ele>2416</ele>
        <time>2021-08-12T09:35:54.481Z</time>
      </trkpt>
      <trkpt lat="46.85697" lon="8.48709">
        <ele>2416</ele>
        <time>2021-08-12T09:35:55.480Z</time>
      </trkpt>
      <trkpt lat="46.85695" lon="8.48711">
        <ele>2418</ele>
        <time>2021-08-12T09:35:56.481Z</time>
      </trkpt>
      <trkpt lat="46.85695" lon="8.48711">
        <ele>2417</ele>
        <time>2021-08-12T09:35:57.482Z</time>
      </trkpt>
      <trkpt lat="46.85695" lon="8.48711">
        <ele>2417</ele>
        <time>2021-08-12T09:35:58.481Z</time>
      </trkpt>
      <trkpt lat="46.85697" lon="8.48712">
        <ele>2413</ele>
        <time>2021-08-12T09:35:59.483Z</time>
      </trkpt>
      <trkpt lat="46.85697" lon="8.48712">
        <ele>2413</ele>
        <time>2021-08-12T09:36:00.483Z</time>
      </trkpt>
      <trkpt lat="46.85693" lon="8.48714">
        <ele>2407</ele>
        <time>2021-08-12T09:36:01.483Z</time>
      </trkpt>
      <trkpt lat="46.85693" lon="8.48714">
        <ele>2408</ele>
        <time>2021-08-12T09:36:02.483Z</time>
      </trkpt>
      <trkpt lat="46.85693" lon="8.48714">
        <ele>2409</ele>
        <time>2021-08-12T09:36:03.483Z</time>
      </trkpt>
      <trkpt lat="46.85693" lon="8.48715">
        <ele>2411</ele>
        <time>2021-08-12T09:36:04.483Z</time>
      </trkpt>
      <trkpt lat="46.85692" lon="8.48715">
        <ele>2411</ele>
        <time>2021-08-12T09:36:05.483Z</time>
      </trkpt>
      <trkpt lat="46.85692" lon="8.48716">
        <ele>2412</ele>
        <time>2021-08-12T09:36:06.483Z</time>
      </trkpt>
      <trkpt lat="46.85691" lon="8.48716">
        <ele>2412</ele>
        <time>2021-08-12T09:36:07.483Z</time>
      </trkpt>
      <trkpt lat="46.8569" lon="8.48715">
        <ele>2412</ele>
        <time>2021-08-12T09:36:08.483Z</time>
      </trkpt>
      <trkpt lat="46.85689" lon="8.48715">
        <ele>2412</ele>
        <time>2021-08-12T09:36:09.483Z</time>
      </trkpt>
      <trkpt lat="46.85688" lon="8.48715">
        <ele>2412</ele>
        <time>2021-08-12T09:36:10.483Z</time>
      </trkpt>
      <trkpt lat="46.85688" lon="8.48716">
        <ele>2412</ele>
        <time>2021-08-12T09:36:11.483Z</time>
      </trkpt>
      <trkpt lat="46.85688" lon="8.48717">
        <ele>2413</ele>
        <time>2021-08-12T09:36:12.483Z</time>
      </trkpt>
      <trkpt lat="46.85689" lon="8.48718">
        <ele>2413</ele>
        <time>2021-08-12T09:36:13.483Z</time>
      </trkpt>
      <trkpt lat="46.85689" lon="8.48719">
        <ele>2413</ele>
        <time>2021-08-12T09:36:14.482Z</time>
      </trkpt>
      <trkpt lat="46.85688" lon="8.48719">
        <ele>2414</ele>
        <time>2021-08-12T09:36:15.483Z</time>
      </trkpt>
      <trkpt lat="46.85688" lon="8.48719">
        <ele>2415</ele>
        <time>2021-08-12T09:36:16.483Z</time>
      </trkpt>
      <trkpt lat="46.85687" lon="8.48718">
        <ele>2415</ele>
        <time>2021-08-12T09:36:17.483Z</time>
      </trkpt>
      <trkpt lat="46.85686" lon="8.48718">
        <ele>2415</ele>
        <time>2021-08-12T09:36:18.483Z</time>
      </trkpt>
      <trkpt lat="46.85685" lon="8.48718">
        <ele>2415</ele>
        <time>2021-08-12T09:36:19.483Z</time>
      </trkpt>
      <trkpt lat="46.85684" lon="8.48718">
        <ele>2416</ele>
        <time>2021-08-12T09:36:20.483Z</time>
      </trkpt>
      <trkpt lat="46.85683" lon="8.48718">
        <ele>2416</ele>
        <time>2021-08-12T09:36:21.483Z</time>
      </trkpt>
      <trkpt lat="46.85683" lon="8.48718">
        <ele>2416</ele>
        <time>2021-08-12T09:36:22.483Z</time>
      </trkpt>
      <trkpt lat="46.85683" lon="8.48719">
        <ele>2416</ele>
        <time>2021-08-12T09:36:23.483Z</time>
      </trkpt>
      <trkpt lat="46.85682" lon="8.48719">
        <ele>2415</ele>
        <time>2021-08-12T09:36:24.482Z</time>
      </trkpt>
      <trkpt lat="46.85681" lon="8.48719">
        <ele>2415</ele>
        <time>2021-08-12T09:36:25.483Z</time>
      </trkpt>
      <trkpt lat="46.85681" lon="8.48719">
        <ele>2415</ele>
        <time>2021-08-12T09:36:26.483Z</time>
      </trkpt>
      <trkpt lat="46.8568" lon="8.4872">
        <ele>2414</ele>
        <time>2021-08-12T09:36:27.483Z</time>
      </trkpt>
      <trkpt lat="46.8568" lon="8.48721">
        <ele>2413</ele>
        <time>2021-08-12T09:36:28.482Z</time>
      </trkpt>
      <trkpt lat="46.8568" lon="8.48722">
        <ele>2413</ele>
        <time>2021-08-12T09:36:29.483Z</time>
      </trkpt>
      <trkpt lat="46.85679" lon="8.48723">
        <ele>2413</ele>
        <time>2021-08-12T09:36:30.483Z</time>
      </trkpt>
      <trkpt lat="46.85679" lon="8.48723">
        <ele>2412</ele>
        <time>2021-08-12T09:36:31.483Z</time>
      </trkpt>
      <trkpt lat="46.85678" lon="8.48723">
        <ele>2412</ele>
        <time>2021-08-12T09:36:32.482Z</time>
      </trkpt>
      <trkpt lat="46.85677" lon="8.48724">
        <ele>2411</ele>
        <time>2021-08-12T09:36:33.482Z</time>
      </trkpt>
      <trkpt lat="46.85675" lon="8.48724">
        <ele>2410</ele>
        <time>2021-08-12T09:36:34.483Z</time>
      </trkpt>
      <trkpt lat="46.85674" lon="8.48724">
        <ele>2410</ele>
        <time>2021-08-12T09:36:35.483Z</time>
      </trkpt>
      <trkpt lat="46.85673" lon="8.48724">
        <ele>2409</ele>
        <time>2021-08-12T09:36:36.483Z</time>
      </trkpt>
      <trkpt lat="46.85672" lon="8.48724">
        <ele>2408</ele>
        <time>2021-08-12T09:36:37.483Z</time>
      </trkpt>
      <trkpt lat="46.85671" lon="8.48723">
        <ele>2407</ele>
        <time>2021-08-12T09:36:38.482Z</time>
      </trkpt>
      <trkpt lat="46.8567" lon="8.48723">
        <ele>2405</ele>
        <time>2021-08-12T09:36:39.483Z</time>
      </trkpt>
      <trkpt lat="46.85668" lon="8.48723">
        <ele>2404</ele>
        <time>2021-08-12T09:36:40.482Z</time>
      </trkpt>
      <trkpt lat="46.85666" lon="8.48724">
        <ele>2403</ele>
        <time>2021-08-12T09:36:41.482Z</time>
      </trkpt>
      <trkpt lat="46.85664" lon="8.48724">
        <ele>2402</ele>
        <time>2021-08-12T09:36:42.482Z</time>
      </trkpt>
      <trkpt lat="46.85662" lon="8.48723">
        <ele>2402</ele>
        <time>2021-08-12T09:36:43.483Z</time>
      </trkpt>
      <trkpt lat="46.85659" lon="8.48723">
        <ele>2401</ele>
        <time>2021-08-12T09:36:44.482Z</time>
      </trkpt>
      <trkpt lat="46.85658" lon="8.48724">
        <ele>2400</ele>
        <time>2021-08-12T09:36:45.482Z</time>
      </trkpt>
      <trkpt lat="46.85657" lon="8.48726">
        <ele>2399</ele>
        <time>2021-08-12T09:36:46.483Z</time>
      </trkpt>
      <trkpt lat="46.85656" lon="8.48726">
        <ele>2399</ele>
        <time>2021-08-12T09:36:47.483Z</time>
      </trkpt>
      <trkpt lat="46.85655" lon="8.48727">
        <ele>2398</ele>
        <time>2021-08-12T09:36:48.482Z</time>
      </trkpt>
      <trkpt lat="46.85654" lon="8.48728">
        <ele>2398</ele>
        <time>2021-08-12T09:36:49.482Z</time>
      </trkpt>
      <trkpt lat="46.85655" lon="8.4873">
        <ele>2397</ele>
        <time>2021-08-12T09:36:50.483Z</time>
      </trkpt>
      <trkpt lat="46.85655" lon="8.48731">
        <ele>2397</ele>
        <time>2021-08-12T09:36:51.483Z</time>
      </trkpt>
      <trkpt lat="46.85654" lon="8.48732">
        <ele>2396</ele>
        <time>2021-08-12T09:36:52.483Z</time>
      </trkpt>
      <trkpt lat="46.85653" lon="8.48732">
        <ele>2395</ele>
        <time>2021-08-12T09:36:53.482Z</time>
      </trkpt>
      <trkpt lat="46.85653" lon="8.48733">
        <ele>2394</ele>
        <time>2021-08-12T09:36:54.482Z</time>
      </trkpt>
      <trkpt lat="46.85653" lon="8.48734">
        <ele>2394</ele>
        <time>2021-08-12T09:36:55.482Z</time>
      </trkpt>
      <trkpt lat="46.85653" lon="8.48735">
        <ele>2395</ele>
        <time>2021-08-12T09:36:56.482Z</time>
      </trkpt>
      <trkpt lat="46.85655" lon="8.48737">
        <ele>2397</ele>
        <time>2021-08-12T09:36:57.482Z</time>
      </trkpt>
      <trkpt lat="46.85658" lon="8.48738">
        <ele>2398</ele>
        <time>2021-08-12T09:36:58.482Z</time>
      </trkpt>
      <trkpt lat="46.85659" lon="8.48739">
        <ele>2404</ele>
        <time>2021-08-12T09:36:59.482Z</time>
      </trkpt>
      <trkpt lat="46.85658" lon="8.4874">
        <ele>2405</ele>
        <time>2021-08-12T09:37:00.483Z</time>
      </trkpt>
      <trkpt lat="46.85658" lon="8.4874">
        <ele>2406</ele>
        <time>2021-08-12T09:37:01.482Z</time>
      </trkpt>
      <trkpt lat="46.85657" lon="8.48741">
        <ele>2407</ele>
        <time>2021-08-12T09:37:02.482Z</time>
      </trkpt>
      <trkpt lat="46.85657" lon="8.48741">
        <ele>2408</ele>
        <time>2021-08-12T09:37:03.482Z</time>
      </trkpt>
      <trkpt lat="46.85656" lon="8.48742">
        <ele>2409</ele>
        <time>2021-08-12T09:37:04.483Z</time>
      </trkpt>
      <trkpt lat="46.85655" lon="8.48742">
        <ele>2409</ele>
        <time>2021-08-12T09:37:05.483Z</time>
      </trkpt>
      <trkpt lat="46.85655" lon="8.48742">
        <ele>2409</ele>
        <time>2021-08-12T09:37:06.483Z</time>
      </trkpt>
      <trkpt lat="46.85654" lon="8.48743">
        <ele>2409</ele>
        <time>2021-08-12T09:37:07.483Z</time>
      </trkpt>
      <trkpt lat="46.85653" lon="8.48743">
        <ele>2409</ele>
        <time>2021-08-12T09:37:08.483Z</time>
      </trkpt>
      <trkpt lat="46.85652" lon="8.48743">
        <ele>2410</ele>
        <time>2021-08-12T09:37:09.483Z</time>
      </trkpt>
      <trkpt lat="46.85651" lon="8.48742">
        <ele>2410</ele>
        <time>2021-08-12T09:37:10.483Z</time>
      </trkpt>
      <trkpt lat="46.8565" lon="8.48743">
        <ele>2410</ele>
        <time>2021-08-12T09:37:11.482Z</time>
      </trkpt>
      <trkpt lat="46.85649" lon="8.48743">
        <ele>2410</ele>
        <time>2021-08-12T09:37:12.483Z</time>
      </trkpt>
      <trkpt lat="46.85648" lon="8.48744">
        <ele>2410</ele>
        <time>2021-08-12T09:37:13.483Z</time>
      </trkpt>
      <trkpt lat="46.85649" lon="8.48745">
        <ele>2410</ele>
        <time>2021-08-12T09:37:14.483Z</time>
      </trkpt>
      <trkpt lat="46.85648" lon="8.48745">
        <ele>2410</ele>
        <time>2021-08-12T09:37:15.483Z</time>
      </trkpt>
      <trkpt lat="46.85647" lon="8.48745">
        <ele>2410</ele>
        <time>2021-08-12T09:37:16.482Z</time>
      </trkpt>
      <trkpt lat="46.85646" lon="8.48746">
        <ele>2409</ele>
        <time>2021-08-12T09:37:17.482Z</time>
      </trkpt>
      <trkpt lat="46.85645" lon="8.48747">
        <ele>2409</ele>
        <time>2021-08-12T09:37:18.483Z</time>
      </trkpt>
      <trkpt lat="46.85645" lon="8.48749">
        <ele>2408</ele>
        <time>2021-08-12T09:37:19.482Z</time>
      </trkpt>
      <trkpt lat="46.85644" lon="8.4875">
        <ele>2408</ele>
        <time>2021-08-12T09:37:20.483Z</time>
      </trkpt>
      <trkpt lat="46.85644" lon="8.4875">
        <ele>2408</ele>
        <time>2021-08-12T09:37:21.483Z</time>
      </trkpt>
      <trkpt lat="46.85643" lon="8.4875">
        <ele>2407</ele>
        <time>2021-08-12T09:37:22.483Z</time>
      </trkpt>
      <trkpt lat="46.85643" lon="8.48751">
        <ele>2406</ele>
        <time>2021-08-12T09:37:23.483Z</time>
      </trkpt>
      <trkpt lat="46.85642" lon="8.48751">
        <ele>2406</ele>
        <time>2021-08-12T09:37:24.482Z</time>
      </trkpt>
      <trkpt lat="46.8564" lon="8.48751">
        <ele>2405</ele>
        <time>2021-08-12T09:37:25.483Z</time>
      </trkpt>
      <trkpt lat="46.85639" lon="8.48751">
        <ele>2405</ele>
        <time>2021-08-12T09:37:26.483Z</time>
      </trkpt>
      <trkpt lat="46.85639" lon="8.48751">
        <ele>2404</ele>
        <time>2021-08-12T09:37:27.483Z</time>
      </trkpt>
      <trkpt lat="46.85638" lon="8.48752">
        <ele>2403</ele>
        <time>2021-08-12T09:37:28.483Z</time>
      </trkpt>
      <trkpt lat="46.85637" lon="8.48752">
        <ele>2402</ele>
        <time>2021-08-12T09:37:29.483Z</time>
      </trkpt>
      <trkpt lat="46.85636" lon="8.48752">
        <ele>2402</ele>
        <time>2021-08-12T09:37:30.483Z</time>
      </trkpt>
      <trkpt lat="46.85635" lon="8.48752">
        <ele>2401</ele>
        <time>2021-08-12T09:37:31.483Z</time>
      </trkpt>
      <trkpt lat="46.85634" lon="8.48752">
        <ele>2401</ele>
        <time>2021-08-12T09:37:32.483Z</time>
      </trkpt>
      <trkpt lat="46.85633" lon="8.48753">
        <ele>2401</ele>
        <time>2021-08-12T09:37:33.483Z</time>
      </trkpt>
      <trkpt lat="46.85632" lon="8.48753">
        <ele>2401</ele>
        <time>2021-08-12T09:37:34.483Z</time>
      </trkpt>
      <trkpt lat="46.85631" lon="8.48753">
        <ele>2400</ele>
        <time>2021-08-12T09:37:35.483Z</time>
      </trkpt>
      <trkpt lat="46.85631" lon="8.48754">
        <ele>2400</ele>
        <time>2021-08-12T09:37:36.483Z</time>
      </trkpt>
      <trkpt lat="46.85629" lon="8.48755">
        <ele>2400</ele>
        <time>2021-08-12T09:37:37.482Z</time>
      </trkpt>
      <trkpt lat="46.85628" lon="8.48754">
        <ele>2400</ele>
        <time>2021-08-12T09:37:38.482Z</time>
      </trkpt>
      <trkpt lat="46.85627" lon="8.48754">
        <ele>2400</ele>
        <time>2021-08-12T09:37:39.483Z</time>
      </trkpt>
      <trkpt lat="46.85625" lon="8.48753">
        <ele>2399</ele>
        <time>2021-08-12T09:37:40.482Z</time>
      </trkpt>
      <trkpt lat="46.85624" lon="8.48753">
        <ele>2399</ele>
        <time>2021-08-12T09:37:41.483Z</time>
      </trkpt>
      <trkpt lat="46.85624" lon="8.48754">
        <ele>2400</ele>
        <time>2021-08-12T09:37:42.482Z</time>
      </trkpt>
      <trkpt lat="46.85624" lon="8.48754">
        <ele>2400</ele>
        <time>2021-08-12T09:37:43.482Z</time>
      </trkpt>
      <trkpt lat="46.85623" lon="8.48754">
        <ele>2400</ele>
        <time>2021-08-12T09:37:44.482Z</time>
      </trkpt>
      <trkpt lat="46.85623" lon="8.48755">
        <ele>2400</ele>
        <time>2021-08-12T09:37:45.482Z</time>
      </trkpt>
      <trkpt lat="46.85622" lon="8.48755">
        <ele>2400</ele>
        <time>2021-08-12T09:37:46.483Z</time>
      </trkpt>
      <trkpt lat="46.85621" lon="8.48755">
        <ele>2400</ele>
        <time>2021-08-12T09:37:47.482Z</time>
      </trkpt>
      <trkpt lat="46.8562" lon="8.48755">
        <ele>2400</ele>
        <time>2021-08-12T09:37:48.483Z</time>
      </trkpt>
      <trkpt lat="46.85619" lon="8.48756">
        <ele>2400</ele>
        <time>2021-08-12T09:37:49.482Z</time>
      </trkpt>
      <trkpt lat="46.85619" lon="8.48756">
        <ele>2401</ele>
        <time>2021-08-12T09:37:50.483Z</time>
      </trkpt>
      <trkpt lat="46.85621" lon="8.48757">
        <ele>2402</ele>
        <time>2021-08-12T09:37:51.482Z</time>
      </trkpt>
      <trkpt lat="46.85622" lon="8.48758">
        <ele>2402</ele>
        <time>2021-08-12T09:37:52.483Z</time>
      </trkpt>
      <trkpt lat="46.85623" lon="8.48759">
        <ele>2403</ele>
        <time>2021-08-12T09:37:53.482Z</time>
      </trkpt>
      <trkpt lat="46.85624" lon="8.4876">
        <ele>2403</ele>
        <time>2021-08-12T09:37:54.482Z</time>
      </trkpt>
      <trkpt lat="46.85623" lon="8.4876">
        <ele>2404</ele>
        <time>2021-08-12T09:37:55.482Z</time>
      </trkpt>
      <trkpt lat="46.85623" lon="8.4876">
        <ele>2404</ele>
        <time>2021-08-12T09:37:56.482Z</time>
      </trkpt>
      <trkpt lat="46.85623" lon="8.4876">
        <ele>2404</ele>
        <time>2021-08-12T09:37:57.482Z</time>
      </trkpt>
      <trkpt lat="46.85623" lon="8.4876">
        <ele>2405</ele>
        <time>2021-08-12T09:37:58.483Z</time>
      </trkpt>
      <trkpt lat="46.85622" lon="8.48761">
        <ele>2405</ele>
        <time>2021-08-12T09:37:59.482Z</time>
      </trkpt>
      <trkpt lat="46.85622" lon="8.48761">
        <ele>2405</ele>
        <time>2021-08-12T09:38:00.483Z</time>
      </trkpt>
      <trkpt lat="46.85621" lon="8.48762">
        <ele>2406</ele>
        <time>2021-08-12T09:38:01.482Z</time>
      </trkpt>
      <trkpt lat="46.85621" lon="8.48762">
        <ele>2407</ele>
        <time>2021-08-12T09:38:02.483Z</time>
      </trkpt>
      <trkpt lat="46.8562" lon="8.48763">
        <ele>2407</ele>
        <time>2021-08-12T09:38:03.482Z</time>
      </trkpt>
      <trkpt lat="46.85619" lon="8.48763">
        <ele>2407</ele>
        <time>2021-08-12T09:38:04.482Z</time>
      </trkpt>
      <trkpt lat="46.85619" lon="8.48764">
        <ele>2408</ele>
        <time>2021-08-12T09:38:05.482Z</time>
      </trkpt>
      <trkpt lat="46.85619" lon="8.48764">
        <ele>2408</ele>
        <time>2021-08-12T09:38:06.482Z</time>
      </trkpt>
      <trkpt lat="46.85619" lon="8.48765">
        <ele>2409</ele>
        <time>2021-08-12T09:38:07.482Z</time>
      </trkpt>
      <trkpt lat="46.85618" lon="8.48766">
        <ele>2409</ele>
        <time>2021-08-12T09:38:08.482Z</time>
      </trkpt>
      <trkpt lat="46.85618" lon="8.48766">
        <ele>2410</ele>
        <time>2021-08-12T09:38:09.482Z</time>
      </trkpt>
      <trkpt lat="46.85619" lon="8.48767">
        <ele>2410</ele>
        <time>2021-08-12T09:38:10.482Z</time>
      </trkpt>
      <trkpt lat="46.85619" lon="8.48768">
        <ele>2410</ele>
        <time>2021-08-12T09:38:11.482Z</time>
      </trkpt>
      <trkpt lat="46.85618" lon="8.48769">
        <ele>2410</ele>
        <time>2021-08-12T09:38:12.482Z</time>
      </trkpt>
      <trkpt lat="46.85617" lon="8.4877">
        <ele>2411</ele>
        <time>2021-08-12T09:38:13.483Z</time>
      </trkpt>
      <trkpt lat="46.85617" lon="8.48771">
        <ele>2411</ele>
        <time>2021-08-12T09:38:14.482Z</time>
      </trkpt>
      <trkpt lat="46.85617" lon="8.48772">
        <ele>2412</ele>
        <time>2021-08-12T09:38:15.482Z</time>
      </trkpt>
      <trkpt lat="46.85617" lon="8.48773">
        <ele>2412</ele>
        <time>2021-08-12T09:38:16.482Z</time>
      </trkpt>
      <trkpt lat="46.85617" lon="8.48774">
        <ele>2412</ele>
        <time>2021-08-12T09:38:17.482Z</time>
      </trkpt>
      <trkpt lat="46.85617" lon="8.48775">
        <ele>2412</ele>
        <time>2021-08-12T09:38:18.482Z</time>
      </trkpt>
      <trkpt lat="46.85616" lon="8.48776">
        <ele>2412</ele>
        <time>2021-08-12T09:38:19.483Z</time>
      </trkpt>
      <trkpt lat="46.85615" lon="8.48776">
        <ele>2412</ele>
        <time>2021-08-12T09:38:20.482Z</time>
      </trkpt>
      <trkpt lat="46.85615" lon="8.48777">
        <ele>2412</ele>
        <time>2021-08-12T09:38:21.483Z</time>
      </trkpt>
      <trkpt lat="46.85614" lon="8.48778">
        <ele>2412</ele>
        <time>2021-08-12T09:38:22.483Z</time>
      </trkpt>
      <trkpt lat="46.85613" lon="8.48778">
        <ele>2412</ele>
        <time>2021-08-12T09:38:23.483Z</time>
      </trkpt>
      <trkpt lat="46.85612" lon="8.48779">
        <ele>2413</ele>
        <time>2021-08-12T09:38:24.483Z</time>
      </trkpt>
      <trkpt lat="46.85611" lon="8.48779">
        <ele>2413</ele>
        <time>2021-08-12T09:38:25.482Z</time>
      </trkpt>
      <trkpt lat="46.8561" lon="8.4878">
        <ele>2413</ele>
        <time>2021-08-12T09:38:26.482Z</time>
      </trkpt>
      <trkpt lat="46.85609" lon="8.4878">
        <ele>2414</ele>
        <time>2021-08-12T09:38:27.483Z</time>
      </trkpt>
      <trkpt lat="46.85608" lon="8.4878">
        <ele>2414</ele>
        <time>2021-08-12T09:38:28.483Z</time>
      </trkpt>
      <trkpt lat="46.85608" lon="8.48781">
        <ele>2414</ele>
        <time>2021-08-12T09:38:29.482Z</time>
      </trkpt>
      <trkpt lat="46.85608" lon="8.48782">
        <ele>2415</ele>
        <time>2021-08-12T09:38:30.482Z</time>
      </trkpt>
      <trkpt lat="46.85608" lon="8.48782">
        <ele>2415</ele>
        <time>2021-08-12T09:38:31.483Z</time>
      </trkpt>
      <trkpt lat="46.85608" lon="8.48784">
        <ele>2415</ele>
        <time>2021-08-12T09:38:32.482Z</time>
      </trkpt>
      <trkpt lat="46.85608" lon="8.48785">
        <ele>2415</ele>
        <time>2021-08-12T09:38:33.483Z</time>
      </trkpt>
      <trkpt lat="46.85609" lon="8.48786">
        <ele>2415</ele>
        <time>2021-08-12T09:38:34.482Z</time>
      </trkpt>
      <trkpt lat="46.85608" lon="8.48788">
        <ele>2415</ele>
        <time>2021-08-12T09:38:35.482Z</time>
      </trkpt>
      <trkpt lat="46.85608" lon="8.48789">
        <ele>2416</ele>
        <time>2021-08-12T09:38:36.483Z</time>
      </trkpt>
      <trkpt lat="46.85609" lon="8.4879">
        <ele>2416</ele>
        <time>2021-08-12T09:38:37.483Z</time>
      </trkpt>
      <trkpt lat="46.85609" lon="8.48791">
        <ele>2416</ele>
        <time>2021-08-12T09:38:38.483Z</time>
      </trkpt>
      <trkpt lat="46.85609" lon="8.48791">
        <ele>2416</ele>
        <time>2021-08-12T09:38:39.482Z</time>
      </trkpt>
      <trkpt lat="46.85608" lon="8.48792">
        <ele>2416</ele>
        <time>2021-08-12T09:38:40.483Z</time>
      </trkpt>
      <trkpt lat="46.85607" lon="8.48792">
        <ele>2416</ele>
        <time>2021-08-12T09:38:41.483Z</time>
      </trkpt>
      <trkpt lat="46.85607" lon="8.48793">
        <ele>2416</ele>
        <time>2021-08-12T09:38:42.482Z</time>
      </trkpt>
      <trkpt lat="46.85607" lon="8.48794">
        <ele>2417</ele>
        <time>2021-08-12T09:38:43.483Z</time>
      </trkpt>
      <trkpt lat="46.85607" lon="8.48795">
        <ele>2417</ele>
        <time>2021-08-12T09:38:44.482Z</time>
      </trkpt>
      <trkpt lat="46.85607" lon="8.48796">
        <ele>2417</ele>
        <time>2021-08-12T09:38:45.482Z</time>
      </trkpt>
      <trkpt lat="46.85606" lon="8.48796">
        <ele>2418</ele>
        <time>2021-08-12T09:38:46.483Z</time>
      </trkpt>
      <trkpt lat="46.85605" lon="8.48795">
        <ele>2418</ele>
        <time>2021-08-12T09:38:47.483Z</time>
      </trkpt>
      <trkpt lat="46.85605" lon="8.48795">
        <ele>2418</ele>
        <time>2021-08-12T09:38:48.482Z</time>
      </trkpt>
      <trkpt lat="46.85605" lon="8.48796">
        <ele>2419</ele>
        <time>2021-08-12T09:38:49.482Z</time>
      </trkpt>
      <trkpt lat="46.85604" lon="8.48796">
        <ele>2419</ele>
        <time>2021-08-12T09:38:50.483Z</time>
      </trkpt>
      <trkpt lat="46.85604" lon="8.48797">
        <ele>2419</ele>
        <time>2021-08-12T09:38:51.482Z</time>
      </trkpt>
      <trkpt lat="46.85603" lon="8.48799">
        <ele>2419</ele>
        <time>2021-08-12T09:38:52.483Z</time>
      </trkpt>
      <trkpt lat="46.85603" lon="8.488">
        <ele>2419</ele>
        <time>2021-08-12T09:38:53.483Z</time>
      </trkpt>
      <trkpt lat="46.85602" lon="8.488">
        <ele>2418</ele>
        <time>2021-08-12T09:38:54.482Z</time>
      </trkpt>
      <trkpt lat="46.85602" lon="8.48801">
        <ele>2418</ele>
        <time>2021-08-12T09:38:55.483Z</time>
      </trkpt>
      <trkpt lat="46.85602" lon="8.48802">
        <ele>2418</ele>
        <time>2021-08-12T09:38:56.483Z</time>
      </trkpt>
      <trkpt lat="46.85602" lon="8.48804">
        <ele>2418</ele>
        <time>2021-08-12T09:38:57.483Z</time>
      </trkpt>
      <trkpt lat="46.85602" lon="8.48805">
        <ele>2418</ele>
        <time>2021-08-12T09:38:58.482Z</time>
      </trkpt>
      <trkpt lat="46.85602" lon="8.48806">
        <ele>2418</ele>
        <time>2021-08-12T09:38:59.483Z</time>
      </trkpt>
      <trkpt lat="46.85602" lon="8.48807">
        <ele>2418</ele>
        <time>2021-08-12T09:39:00.483Z</time>
      </trkpt>
      <trkpt lat="46.85602" lon="8.48807">
        <ele>2418</ele>
        <time>2021-08-12T09:39:01.482Z</time>
      </trkpt>
      <trkpt lat="46.85603" lon="8.48807">
        <ele>2418</ele>
        <time>2021-08-12T09:39:02.482Z</time>
      </trkpt>
      <trkpt lat="46.85602" lon="8.48809">
        <ele>2418</ele>
        <time>2021-08-12T09:39:03.483Z</time>
      </trkpt>
      <trkpt lat="46.85602" lon="8.48809">
        <ele>2418</ele>
        <time>2021-08-12T09:39:04.482Z</time>
      </trkpt>
      <trkpt lat="46.85602" lon="8.4881">
        <ele>2418</ele>
        <time>2021-08-12T09:39:05.483Z</time>
      </trkpt>
      <trkpt lat="46.85601" lon="8.4881">
        <ele>2418</ele>
        <time>2021-08-12T09:39:06.482Z</time>
      </trkpt>
      <trkpt lat="46.856" lon="8.48811">
        <ele>2418</ele>
        <time>2021-08-12T09:39:07.482Z</time>
      </trkpt>
      <trkpt lat="46.85599" lon="8.48812">
        <ele>2419</ele>
        <time>2021-08-12T09:39:08.483Z</time>
      </trkpt>
      <trkpt lat="46.85599" lon="8.48813">
        <ele>2419</ele>
        <time>2021-08-12T09:39:09.483Z</time>
      </trkpt>
      <trkpt lat="46.85599" lon="8.48815">
        <ele>2420</ele>
        <time>2021-08-12T09:39:10.482Z</time>
      </trkpt>
      <trkpt lat="46.85598" lon="8.48816">
        <ele>2420</ele>
        <time>2021-08-12T09:39:11.482Z</time>
      </trkpt>
      <trkpt lat="46.85598" lon="8.48816">
        <ele>2421</ele>
        <time>2021-08-12T09:39:12.482Z</time>
      </trkpt>
      <trkpt lat="46.85598" lon="8.48817">
        <ele>2421</ele>
        <time>2021-08-12T09:39:13.482Z</time>
      </trkpt>
      <trkpt lat="46.85598" lon="8.48818">
        <ele>2422</ele>
        <time>2021-08-12T09:39:14.482Z</time>
      </trkpt>
      <trkpt lat="46.85599" lon="8.48819">
        <ele>2422</ele>
        <time>2021-08-12T09:39:15.483Z</time>
      </trkpt>
      <trkpt lat="46.85599" lon="8.4882">
        <ele>2422</ele>
        <time>2021-08-12T09:39:16.482Z</time>
      </trkpt>
      <trkpt lat="46.85599" lon="8.48821">
        <ele>2422</ele>
        <time>2021-08-12T09:39:17.483Z</time>
      </trkpt>
      <trkpt lat="46.85598" lon="8.48821">
        <ele>2422</ele>
        <time>2021-08-12T09:39:18.483Z</time>
      </trkpt>
      <trkpt lat="46.85598" lon="8.48822">
        <ele>2422</ele>
        <time>2021-08-12T09:39:19.483Z</time>
      </trkpt>
      <trkpt lat="46.85597" lon="8.48823">
        <ele>2422</ele>
        <time>2021-08-12T09:39:20.483Z</time>
      </trkpt>
      <trkpt lat="46.85597" lon="8.48823">
        <ele>2423</ele>
        <time>2021-08-12T09:39:21.482Z</time>
      </trkpt>
      <trkpt lat="46.85597" lon="8.48823">
        <ele>2423</ele>
        <time>2021-08-12T09:39:22.483Z</time>
      </trkpt>
      <trkpt lat="46.85596" lon="8.48822">
        <ele>2423</ele>
        <time>2021-08-12T09:39:23.482Z</time>
      </trkpt>
      <trkpt lat="46.85596" lon="8.48821">
        <ele>2424</ele>
        <time>2021-08-12T09:39:24.483Z</time>
      </trkpt>
      <trkpt lat="46.85595" lon="8.48821">
        <ele>2424</ele>
        <time>2021-08-12T09:39:25.483Z</time>
      </trkpt>
      <trkpt lat="46.85595" lon="8.48821">
        <ele>2425</ele>
        <time>2021-08-12T09:39:26.483Z</time>
      </trkpt>
      <trkpt lat="46.85595" lon="8.48821">
        <ele>2426</ele>
        <time>2021-08-12T09:39:27.483Z</time>
      </trkpt>
      <trkpt lat="46.85595" lon="8.48823">
        <ele>2430</ele>
        <time>2021-08-12T09:39:28.485Z</time>
      </trkpt>
      <trkpt lat="46.85596" lon="8.48825">
        <ele>2430</ele>
        <time>2021-08-12T09:39:29.484Z</time>
      </trkpt>
      <trkpt lat="46.85596" lon="8.48825">
        <ele>2431</ele>
        <time>2021-08-12T09:39:30.485Z</time>
      </trkpt>
      <trkpt lat="46.85595" lon="8.48826">
        <ele>2431</ele>
        <time>2021-08-12T09:39:31.484Z</time>
      </trkpt>
      <trkpt lat="46.85594" lon="8.48826">
        <ele>2432</ele>
        <time>2021-08-12T09:39:32.485Z</time>
      </trkpt>
      <trkpt lat="46.85594" lon="8.48826">
        <ele>2432</ele>
        <time>2021-08-12T09:39:33.484Z</time>
      </trkpt>
      <trkpt lat="46.85594" lon="8.48827">
        <ele>2432</ele>
        <time>2021-08-12T09:39:34.485Z</time>
      </trkpt>
      <trkpt lat="46.85594" lon="8.48827">
        <ele>2432</ele>
        <time>2021-08-12T09:39:35.485Z</time>
      </trkpt>
      <trkpt lat="46.85593" lon="8.48828">
        <ele>2432</ele>
        <time>2021-08-12T09:39:36.485Z</time>
      </trkpt>
      <trkpt lat="46.85593" lon="8.48828">
        <ele>2432</ele>
        <time>2021-08-12T09:39:37.485Z</time>
      </trkpt>
      <trkpt lat="46.85593" lon="8.48829">
        <ele>2432</ele>
        <time>2021-08-12T09:39:38.485Z</time>
      </trkpt>
      <trkpt lat="46.85593" lon="8.48829">
        <ele>2432</ele>
        <time>2021-08-12T09:39:39.485Z</time>
      </trkpt>
      <trkpt lat="46.85593" lon="8.4883">
        <ele>2432</ele>
        <time>2021-08-12T09:39:40.485Z</time>
      </trkpt>
      <trkpt lat="46.85592" lon="8.4883">
        <ele>2432</ele>
        <time>2021-08-12T09:39:41.484Z</time>
      </trkpt>
      <trkpt lat="46.85591" lon="8.4883">
        <ele>2432</ele>
        <time>2021-08-12T09:39:42.484Z</time>
      </trkpt>
      <trkpt lat="46.85591" lon="8.4883">
        <ele>2432</ele>
        <time>2021-08-12T09:39:43.485Z</time>
      </trkpt>
      <trkpt lat="46.85591" lon="8.4883">
        <ele>2432</ele>
        <time>2021-08-12T09:39:44.485Z</time>
      </trkpt>
      <trkpt lat="46.85591" lon="8.4883">
        <ele>2432</ele>
        <time>2021-08-12T09:39:45.484Z</time>
      </trkpt>
      <trkpt lat="46.85591" lon="8.48831">
        <ele>2432</ele>
        <time>2021-08-12T09:39:46.485Z</time>
      </trkpt>
      <trkpt lat="46.85591" lon="8.48831">
        <ele>2432</ele>
        <time>2021-08-12T09:39:47.484Z</time>
      </trkpt>
      <trkpt lat="46.8559" lon="8.48831">
        <ele>2433</ele>
        <time>2021-08-12T09:39:48.485Z</time>
      </trkpt>
      <trkpt lat="46.85589" lon="8.48831">
        <ele>2433</ele>
        <time>2021-08-12T09:39:49.484Z</time>
      </trkpt>
      <trkpt lat="46.85588" lon="8.48831">
        <ele>2434</ele>
        <time>2021-08-12T09:39:50.484Z</time>
      </trkpt>
      <trkpt lat="46.85588" lon="8.4883">
        <ele>2435</ele>
        <time>2021-08-12T09:39:51.484Z</time>
      </trkpt>
      <trkpt lat="46.85587" lon="8.4883">
        <ele>2435</ele>
        <time>2021-08-12T09:39:52.485Z</time>
      </trkpt>
      <trkpt lat="46.85587" lon="8.48831">
        <ele>2436</ele>
        <time>2021-08-12T09:39:53.485Z</time>
      </trkpt>
      <trkpt lat="46.85587" lon="8.48831">
        <ele>2436</ele>
        <time>2021-08-12T09:39:54.485Z</time>
      </trkpt>
      <trkpt lat="46.85586" lon="8.48829">
        <ele>2437</ele>
        <time>2021-08-12T09:39:55.485Z</time>
      </trkpt>
      <trkpt lat="46.85585" lon="8.48829">
        <ele>2437</ele>
        <time>2021-08-12T09:39:56.485Z</time>
      </trkpt>
      <trkpt lat="46.85584" lon="8.48829">
        <ele>2437</ele>
        <time>2021-08-12T09:39:57.484Z</time>
      </trkpt>
      <trkpt lat="46.85583" lon="8.48829">
        <ele>2438</ele>
        <time>2021-08-12T09:39:58.485Z</time>
      </trkpt>
      <trkpt lat="46.85582" lon="8.48829">
        <ele>2438</ele>
        <time>2021-08-12T09:39:59.484Z</time>
      </trkpt>
      <trkpt lat="46.85581" lon="8.48829">
        <ele>2438</ele>
        <time>2021-08-12T09:40:00.484Z</time>
      </trkpt>
      <trkpt lat="46.85581" lon="8.48829">
        <ele>2438</ele>
        <time>2021-08-12T09:40:01.485Z</time>
      </trkpt>
      <trkpt lat="46.8558" lon="8.48829">
        <ele>2438</ele>
        <time>2021-08-12T09:40:02.485Z</time>
      </trkpt>
      <trkpt lat="46.8558" lon="8.48829">
        <ele>2438</ele>
        <time>2021-08-12T09:40:03.484Z</time>
      </trkpt>
      <trkpt lat="46.85579" lon="8.48829">
        <ele>2438</ele>
        <time>2021-08-12T09:40:04.484Z</time>
      </trkpt>
      <trkpt lat="46.85579" lon="8.4883">
        <ele>2438</ele>
        <time>2021-08-12T09:40:05.484Z</time>
      </trkpt>
      <trkpt lat="46.85578" lon="8.48831">
        <ele>2438</ele>
        <time>2021-08-12T09:40:06.484Z</time>
      </trkpt>
      <trkpt lat="46.85578" lon="8.48832">
        <ele>2437</ele>
        <time>2021-08-12T09:40:07.485Z</time>
      </trkpt>
      <trkpt lat="46.85579" lon="8.48834">
        <ele>2437</ele>
        <time>2021-08-12T09:40:08.485Z</time>
      </trkpt>
      <trkpt lat="46.85579" lon="8.48836">
        <ele>2437</ele>
        <time>2021-08-12T09:40:09.484Z</time>
      </trkpt>
      <trkpt lat="46.85579" lon="8.48837">
        <ele>2437</ele>
        <time>2021-08-12T09:40:10.485Z</time>
      </trkpt>
      <trkpt lat="46.85579" lon="8.48838">
        <ele>2437</ele>
        <time>2021-08-12T09:40:11.484Z</time>
      </trkpt>
      <trkpt lat="46.85578" lon="8.48839">
        <ele>2437</ele>
        <time>2021-08-12T09:40:12.485Z</time>
      </trkpt>
      <trkpt lat="46.85578" lon="8.4884">
        <ele>2437</ele>
        <time>2021-08-12T09:40:13.485Z</time>
      </trkpt>
      <trkpt lat="46.85578" lon="8.4884">
        <ele>2437</ele>
        <time>2021-08-12T09:40:14.485Z</time>
      </trkpt>
      <trkpt lat="46.85578" lon="8.48841">
        <ele>2438</ele>
        <time>2021-08-12T09:40:15.485Z</time>
      </trkpt>
      <trkpt lat="46.85578" lon="8.48842">
        <ele>2437</ele>
        <time>2021-08-12T09:40:16.485Z</time>
      </trkpt>
      <trkpt lat="46.85578" lon="8.48842">
        <ele>2437</ele>
        <time>2021-08-12T09:40:17.485Z</time>
      </trkpt>
      <trkpt lat="46.85578" lon="8.48842">
        <ele>2437</ele>
        <time>2021-08-12T09:40:18.484Z</time>
      </trkpt>
      <trkpt lat="46.85577" lon="8.48841">
        <ele>2436</ele>
        <time>2021-08-12T09:40:19.485Z</time>
      </trkpt>
      <trkpt lat="46.85578" lon="8.48842">
        <ele>2436</ele>
        <time>2021-08-12T09:40:20.485Z</time>
      </trkpt>
      <trkpt lat="46.85578" lon="8.48842">
        <ele>2436</ele>
        <time>2021-08-12T09:40:21.485Z</time>
      </trkpt>
      <trkpt lat="46.85578" lon="8.48842">
        <ele>2435</ele>
        <time>2021-08-12T09:40:22.484Z</time>
      </trkpt>
      <trkpt lat="46.85578" lon="8.48842">
        <ele>2435</ele>
        <time>2021-08-12T09:40:23.484Z</time>
      </trkpt>
      <trkpt lat="46.85576" lon="8.48842">
        <ele>2436</ele>
        <time>2021-08-12T09:40:24.484Z</time>
      </trkpt>
      <trkpt lat="46.85576" lon="8.48843">
        <ele>2437</ele>
        <time>2021-08-12T09:40:25.484Z</time>
      </trkpt>
      <trkpt lat="46.85577" lon="8.48843">
        <ele>2438</ele>
        <time>2021-08-12T09:40:26.484Z</time>
      </trkpt>
      <trkpt lat="46.85579" lon="8.48845">
        <ele>2437</ele>
        <time>2021-08-12T09:40:27.485Z</time>
      </trkpt>
      <trkpt lat="46.85579" lon="8.48845">
        <ele>2437</ele>
        <time>2021-08-12T09:40:28.484Z</time>
      </trkpt>
      <trkpt lat="46.85578" lon="8.48844">
        <ele>2438</ele>
        <time>2021-08-12T09:40:29.486Z</time>
      </trkpt>
      <trkpt lat="46.85578" lon="8.48843">
        <ele>2438</ele>
        <time>2021-08-12T09:40:30.486Z</time>
      </trkpt>
      <trkpt lat="46.85578" lon="8.48843">
        <ele>2437</ele>
        <time>2021-08-12T09:40:31.485Z</time>
      </trkpt>
      <trkpt lat="46.85578" lon="8.48843">
        <ele>2437</ele>
        <time>2021-08-12T09:40:32.486Z</time>
      </trkpt>
      <trkpt lat="46.85578" lon="8.48843">
        <ele>2437</ele>
        <time>2021-08-12T09:40:33.486Z</time>
      </trkpt>
      <trkpt lat="46.85578" lon="8.48843">
        <ele>2436</ele>
        <time>2021-08-12T09:40:34.485Z</time>
      </trkpt>
      <trkpt lat="46.85578" lon="8.48843">
        <ele>2436</ele>
        <time>2021-08-12T09:40:35.485Z</time>
      </trkpt>
      <trkpt lat="46.85577" lon="8.48843">
        <ele>2436</ele>
        <time>2021-08-12T09:40:36.486Z</time>
      </trkpt>
      <trkpt lat="46.85577" lon="8.48843">
        <ele>2435</ele>
        <time>2021-08-12T09:40:37.486Z</time>
      </trkpt>
      <trkpt lat="46.85576" lon="8.48844">
        <ele>2435</ele>
        <time>2021-08-12T09:40:38.485Z</time>
      </trkpt>
      <trkpt lat="46.85576" lon="8.48844">
        <ele>2435</ele>
        <time>2021-08-12T09:40:39.486Z</time>
      </trkpt>
      <trkpt lat="46.85575" lon="8.48843">
        <ele>2435</ele>
        <time>2021-08-12T09:40:40.486Z</time>
      </trkpt>
      <trkpt lat="46.85575" lon="8.48843">
        <ele>2435</ele>
        <time>2021-08-12T09:40:41.486Z</time>
      </trkpt>
      <trkpt lat="46.85574" lon="8.48843">
        <ele>2435</ele>
        <time>2021-08-12T09:40:42.486Z</time>
      </trkpt>
      <trkpt lat="46.85574" lon="8.48843">
        <ele>2435</ele>
        <time>2021-08-12T09:40:43.486Z</time>
      </trkpt>
      <trkpt lat="46.85574" lon="8.48843">
        <ele>2435</ele>
        <time>2021-08-12T09:40:44.485Z</time>
      </trkpt>
      <trkpt lat="46.85575" lon="8.48843">
        <ele>2437</ele>
        <time>2021-08-12T09:40:45.486Z</time>
      </trkpt>
      <trkpt lat="46.85576" lon="8.48846">
        <ele>2441</ele>
        <time>2021-08-12T09:40:46.487Z</time>
      </trkpt>
      <trkpt lat="46.85575" lon="8.48846">
        <ele>2441</ele>
        <time>2021-08-12T09:40:47.487Z</time>
      </trkpt>
      <trkpt lat="46.85574" lon="8.48846">
        <ele>2444</ele>
        <time>2021-08-12T09:40:48.487Z</time>
      </trkpt>
      <trkpt lat="46.85576" lon="8.48845">
        <ele>2448</ele>
        <time>2021-08-12T09:40:49.487Z</time>
      </trkpt>
      <trkpt lat="46.85577" lon="8.48844">
        <ele>2448</ele>
        <time>2021-08-12T09:40:50.486Z</time>
      </trkpt>
      <trkpt lat="46.85577" lon="8.48844">
        <ele>2449</ele>
        <time>2021-08-12T09:40:51.486Z</time>
      </trkpt>
      <trkpt lat="46.85577" lon="8.48843">
        <ele>2450</ele>
        <time>2021-08-12T09:40:52.486Z</time>
      </trkpt>
      <trkpt lat="46.85576" lon="8.48843">
        <ele>2450</ele>
        <time>2021-08-12T09:40:53.486Z</time>
      </trkpt>
      <trkpt lat="46.85576" lon="8.48843">
        <ele>2449</ele>
        <time>2021-08-12T09:40:54.486Z</time>
      </trkpt>
      <trkpt lat="46.85574" lon="8.48842">
        <ele>2443</ele>
        <time>2021-08-12T09:40:55.488Z</time>
      </trkpt>
      <trkpt lat="46.85573" lon="8.48841">
        <ele>2442</ele>
        <time>2021-08-12T09:40:56.489Z</time>
      </trkpt>
      <trkpt lat="46.85574" lon="8.48842">
        <ele>2441</ele>
        <time>2021-08-12T09:40:57.489Z</time>
      </trkpt>
      <trkpt lat="46.85574" lon="8.48842">
        <ele>2441</ele>
        <time>2021-08-12T09:40:58.490Z</time>
      </trkpt>
      <trkpt lat="46.85574" lon="8.48842">
        <ele>2441</ele>
        <time>2021-08-12T09:40:59.489Z</time>
      </trkpt>
      <trkpt lat="46.85573" lon="8.48842">
        <ele>2440</ele>
        <time>2021-08-12T09:41:00.491Z</time>
      </trkpt>
      <trkpt lat="46.85573" lon="8.48843">
        <ele>2441</ele>
        <time>2021-08-12T09:41:01.490Z</time>
      </trkpt>
      <trkpt lat="46.85574" lon="8.48844">
        <ele>2441</ele>
        <time>2021-08-12T09:41:02.490Z</time>
      </trkpt>
      <trkpt lat="46.85575" lon="8.48845">
        <ele>2442</ele>
        <time>2021-08-12T09:41:03.491Z</time>
      </trkpt>
      <trkpt lat="46.85576" lon="8.48845">
        <ele>2442</ele>
        <time>2021-08-12T09:41:04.491Z</time>
      </trkpt>
      <trkpt lat="46.85576" lon="8.48846">
        <ele>2443</ele>
        <time>2021-08-12T09:41:05.490Z</time>
      </trkpt>
      <trkpt lat="46.85576" lon="8.48846">
        <ele>2443</ele>
        <time>2021-08-12T09:41:06.490Z</time>
      </trkpt>
      <trkpt lat="46.85576" lon="8.48846">
        <ele>2444</ele>
        <time>2021-08-12T09:41:07.491Z</time>
      </trkpt>
      <trkpt lat="46.85576" lon="8.48846">
        <ele>2444</ele>
        <time>2021-08-12T09:41:08.490Z</time>
      </trkpt>
      <trkpt lat="46.85576" lon="8.48846">
        <ele>2444</ele>
        <time>2021-08-12T09:41:09.491Z</time>
      </trkpt>
      <trkpt lat="46.85576" lon="8.48847">
        <ele>2445</ele>
        <time>2021-08-12T09:41:10.491Z</time>
      </trkpt>
      <trkpt lat="46.85576" lon="8.48847">
        <ele>2445</ele>
        <time>2021-08-12T09:41:11.491Z</time>
      </trkpt>
      <trkpt lat="46.85576" lon="8.48847">
        <ele>2445</ele>
        <time>2021-08-12T09:41:12.491Z</time>
      </trkpt>
      <trkpt lat="46.85575" lon="8.48847">
        <ele>2439</ele>
        <time>2021-08-12T09:41:13.491Z</time>
      </trkpt>
      <trkpt lat="46.85576" lon="8.48847">
        <ele>2438</ele>
        <time>2021-08-12T09:41:14.491Z</time>
      </trkpt>
      <trkpt lat="46.85576" lon="8.48847">
        <ele>2438</ele>
        <time>2021-08-12T09:41:15.490Z</time>
      </trkpt>
      <trkpt lat="46.85576" lon="8.48847">
        <ele>2437</ele>
        <time>2021-08-12T09:41:16.491Z</time>
      </trkpt>
      <trkpt lat="46.85587" lon="8.48849">
        <ele>2429</ele>
        <time>2021-08-12T09:41:17.491Z</time>
      </trkpt>
      <trkpt lat="46.85587" lon="8.48849">
        <ele>2429</ele>
        <time>2021-08-12T09:41:18.491Z</time>
      </trkpt>
      <trkpt lat="46.85586" lon="8.48848">
        <ele>2429</ele>
        <time>2021-08-12T09:41:19.490Z</time>
      </trkpt>
      <trkpt lat="46.85586" lon="8.48848">
        <ele>2428</ele>
        <time>2021-08-12T09:41:20.491Z</time>
      </trkpt>
      <trkpt lat="46.85585" lon="8.48848">
        <ele>2428</ele>
        <time>2021-08-12T09:41:21.491Z</time>
      </trkpt>
      <trkpt lat="46.85584" lon="8.48847">
        <ele>2428</ele>
        <time>2021-08-12T09:41:22.492Z</time>
      </trkpt>
      <trkpt lat="46.85583" lon="8.48847">
        <ele>2428</ele>
        <time>2021-08-12T09:41:23.492Z</time>
      </trkpt>
      <trkpt lat="46.85583" lon="8.48847">
        <ele>2429</ele>
        <time>2021-08-12T09:41:24.492Z</time>
      </trkpt>
      <trkpt lat="46.85583" lon="8.48847">
        <ele>2430</ele>
        <time>2021-08-12T09:41:25.493Z</time>
      </trkpt>
      <trkpt lat="46.85584" lon="8.48852">
        <ele>2433</ele>
        <time>2021-08-12T09:41:26.492Z</time>
      </trkpt>
      <trkpt lat="46.85584" lon="8.48852">
        <ele>2434</ele>
        <time>2021-08-12T09:41:27.493Z</time>
      </trkpt>
      <trkpt lat="46.85584" lon="8.48852">
        <ele>2434</ele>
        <time>2021-08-12T09:41:28.492Z</time>
      </trkpt>
      <trkpt lat="46.85583" lon="8.48852">
        <ele>2435</ele>
        <time>2021-08-12T09:41:29.492Z</time>
      </trkpt>
      <trkpt lat="46.85583" lon="8.48852">
        <ele>2436</ele>
        <time>2021-08-12T09:41:30.493Z</time>
      </trkpt>
      <trkpt lat="46.85582" lon="8.48852">
        <ele>2436</ele>
        <time>2021-08-12T09:41:31.493Z</time>
      </trkpt>
      <trkpt lat="46.85584" lon="8.48853">
        <ele>2437</ele>
        <time>2021-08-12T09:41:32.493Z</time>
      </trkpt>
      <trkpt lat="46.85583" lon="8.48853">
        <ele>2437</ele>
        <time>2021-08-12T09:41:33.492Z</time>
      </trkpt>
      <trkpt lat="46.85583" lon="8.48853">
        <ele>2440</ele>
        <time>2021-08-12T09:41:34.493Z</time>
      </trkpt>
      <trkpt lat="46.85582" lon="8.48852">
        <ele>2441</ele>
        <time>2021-08-12T09:41:35.493Z</time>
      </trkpt>
      <trkpt lat="46.85581" lon="8.48851">
        <ele>2441</ele>
        <time>2021-08-12T09:41:36.493Z</time>
      </trkpt>
      <trkpt lat="46.85581" lon="8.48851">
        <ele>2441</ele>
        <time>2021-08-12T09:41:37.493Z</time>
      </trkpt>
      <trkpt lat="46.85581" lon="8.48851">
        <ele>2441</ele>
        <time>2021-08-12T09:41:38.494Z</time>
      </trkpt>
      <trkpt lat="46.85576" lon="8.4885">
        <ele>2444</ele>
        <time>2021-08-12T09:41:39.496Z</time>
      </trkpt>
      <trkpt lat="46.85576" lon="8.4885">
        <ele>2444</ele>
        <time>2021-08-12T09:41:40.495Z</time>
      </trkpt>
      <trkpt lat="46.85576" lon="8.4885">
        <ele>2444</ele>
        <time>2021-08-12T09:41:41.496Z</time>
      </trkpt>
      <trkpt lat="46.85572" lon="8.4885">
        <ele>2445</ele>
        <time>2021-08-12T09:41:42.495Z</time>
      </trkpt>
      <trkpt lat="46.85572" lon="8.4885">
        <ele>2445</ele>
        <time>2021-08-12T09:41:43.495Z</time>
      </trkpt>
      <trkpt lat="46.85571" lon="8.4885">
        <ele>2446</ele>
        <time>2021-08-12T09:41:44.496Z</time>
      </trkpt>
      <trkpt lat="46.8557" lon="8.4885">
        <ele>2446</ele>
        <time>2021-08-12T09:41:45.495Z</time>
      </trkpt>
      <trkpt lat="46.8557" lon="8.48851">
        <ele>2447</ele>
        <time>2021-08-12T09:41:46.496Z</time>
      </trkpt>
      <trkpt lat="46.8557" lon="8.48851">
        <ele>2447</ele>
        <time>2021-08-12T09:41:47.496Z</time>
      </trkpt>
      <trkpt lat="46.85569" lon="8.48851">
        <ele>2447</ele>
        <time>2021-08-12T09:41:48.496Z</time>
      </trkpt>
      <trkpt lat="46.85568" lon="8.48851">
        <ele>2447</ele>
        <time>2021-08-12T09:41:49.496Z</time>
      </trkpt>
      <trkpt lat="46.85568" lon="8.48851">
        <ele>2447</ele>
        <time>2021-08-12T09:41:50.496Z</time>
      </trkpt>
      <trkpt lat="46.85568" lon="8.48851">
        <ele>2447</ele>
        <time>2021-08-12T09:41:51.496Z</time>
      </trkpt>
      <trkpt lat="46.85566" lon="8.48851">
        <ele>2448</ele>
        <time>2021-08-12T09:41:52.497Z</time>
      </trkpt>
      <trkpt lat="46.85565" lon="8.48851">
        <ele>2449</ele>
        <time>2021-08-12T09:41:53.497Z</time>
      </trkpt>
      <trkpt lat="46.85564" lon="8.48851">
        <ele>2449</ele>
        <time>2021-08-12T09:41:54.497Z</time>
      </trkpt>
      <trkpt lat="46.85563" lon="8.48851">
        <ele>2450</ele>
        <time>2021-08-12T09:41:55.497Z</time>
      </trkpt>
      <trkpt lat="46.85562" lon="8.4885">
        <ele>2450</ele>
        <time>2021-08-12T09:41:56.497Z</time>
      </trkpt>
      <trkpt lat="46.85562" lon="8.48849">
        <ele>2450</ele>
        <time>2021-08-12T09:41:57.497Z</time>
      </trkpt>
      <trkpt lat="46.85563" lon="8.48847">
        <ele>2455</ele>
        <time>2021-08-12T09:41:58.498Z</time>
      </trkpt>
      <trkpt lat="46.85562" lon="8.48844">
        <ele>2450</ele>
        <time>2021-08-12T09:41:59.498Z</time>
      </trkpt>
      <trkpt lat="46.85562" lon="8.48843">
        <ele>2450</ele>
        <time>2021-08-12T09:42:00.498Z</time>
      </trkpt>
      <trkpt lat="46.85562" lon="8.48843">
        <ele>2451</ele>
        <time>2021-08-12T09:42:01.498Z</time>
      </trkpt>
      <trkpt lat="46.85562" lon="8.48841">
        <ele>2454</ele>
        <time>2021-08-12T09:42:02.500Z</time>
      </trkpt>
      <trkpt lat="46.85563" lon="8.48841">
        <ele>2454</ele>
        <time>2021-08-12T09:42:03.499Z</time>
      </trkpt>
      <trkpt lat="46.85564" lon="8.48843">
        <ele>2454</ele>
        <time>2021-08-12T09:42:04.499Z</time>
      </trkpt>
      <trkpt lat="46.85564" lon="8.48843">
        <ele>2455</ele>
        <time>2021-08-12T09:42:05.499Z</time>
      </trkpt>
      <trkpt lat="46.85563" lon="8.48843">
        <ele>2456</ele>
        <time>2021-08-12T09:42:06.500Z</time>
      </trkpt>
      <trkpt lat="46.85565" lon="8.48845">
        <ele>2451</ele>
        <time>2021-08-12T09:42:07.501Z</time>
      </trkpt>
      <trkpt lat="46.85565" lon="8.48845">
        <ele>2450</ele>
        <time>2021-08-12T09:42:08.501Z</time>
      </trkpt>
      <trkpt lat="46.85565" lon="8.48845">
        <ele>2449</ele>
        <time>2021-08-12T09:42:09.501Z</time>
      </trkpt>
      <trkpt lat="46.85566" lon="8.48845">
        <ele>2448</ele>
        <time>2021-08-12T09:42:10.500Z</time>
      </trkpt>
      <trkpt lat="46.85572" lon="8.48849">
        <ele>2448</ele>
        <time>2021-08-12T09:42:11.501Z</time>
      </trkpt>
      <trkpt lat="46.85572" lon="8.48849">
        <ele>2447</ele>
        <time>2021-08-12T09:42:12.500Z</time>
      </trkpt>
      <trkpt lat="46.8557" lon="8.48849">
        <ele>2449</ele>
        <time>2021-08-12T09:42:13.501Z</time>
      </trkpt>
      <trkpt lat="46.8557" lon="8.48849">
        <ele>2450</ele>
        <time>2021-08-12T09:42:14.500Z</time>
      </trkpt>
      <trkpt lat="46.85568" lon="8.48846">
        <ele>2456</ele>
        <time>2021-08-12T09:42:15.502Z</time>
      </trkpt>
      <trkpt lat="46.85568" lon="8.48845">
        <ele>2455</ele>
        <time>2021-08-12T09:42:16.502Z</time>
      </trkpt>
      <trkpt lat="46.85568" lon="8.48845">
        <ele>2455</ele>
        <time>2021-08-12T09:42:17.502Z</time>
      </trkpt>
      <trkpt lat="46.85563" lon="8.48843">
        <ele>2457</ele>
        <time>2021-08-12T09:42:18.501Z</time>
      </trkpt>
      <trkpt lat="46.85562" lon="8.48843">
        <ele>2457</ele>
        <time>2021-08-12T09:42:19.501Z</time>
      </trkpt>
      <trkpt lat="46.85561" lon="8.48843">
        <ele>2458</ele>
        <time>2021-08-12T09:42:20.501Z</time>
      </trkpt>
      <trkpt lat="46.8556" lon="8.48842">
        <ele>2458</ele>
        <time>2021-08-12T09:42:21.501Z</time>
      </trkpt>
      <trkpt lat="46.85559" lon="8.48842">
        <ele>2458</ele>
        <time>2021-08-12T09:42:22.501Z</time>
      </trkpt>
      <trkpt lat="46.85557" lon="8.48842">
        <ele>2459</ele>
        <time>2021-08-12T09:42:23.501Z</time>
      </trkpt>
      <trkpt lat="46.85555" lon="8.48841">
        <ele>2457</ele>
        <time>2021-08-12T09:42:24.502Z</time>
      </trkpt>
      <trkpt lat="46.85555" lon="8.48841">
        <ele>2458</ele>
        <time>2021-08-12T09:42:25.501Z</time>
      </trkpt>
      <trkpt lat="46.85557" lon="8.4884">
        <ele>2460</ele>
        <time>2021-08-12T09:42:26.501Z</time>
      </trkpt>
      <trkpt lat="46.85557" lon="8.4884">
        <ele>2460</ele>
        <time>2021-08-12T09:42:27.502Z</time>
      </trkpt>
      <trkpt lat="46.85557" lon="8.4884">
        <ele>2461</ele>
        <time>2021-08-12T09:42:28.501Z</time>
      </trkpt>
      <trkpt lat="46.85556" lon="8.48839">
        <ele>2462</ele>
        <time>2021-08-12T09:42:29.504Z</time>
      </trkpt>
      <trkpt lat="46.8555" lon="8.48837">
        <ele>2461</ele>
        <time>2021-08-12T09:42:30.505Z</time>
      </trkpt>
      <trkpt lat="46.85549" lon="8.48836">
        <ele>2461</ele>
        <time>2021-08-12T09:42:31.504Z</time>
      </trkpt>
      <trkpt lat="46.85549" lon="8.48836">
        <ele>2461</ele>
        <time>2021-08-12T09:42:32.504Z</time>
      </trkpt>
      <trkpt lat="46.85548" lon="8.48835">
        <ele>2460</ele>
        <time>2021-08-12T09:42:33.505Z</time>
      </trkpt>
      <trkpt lat="46.85547" lon="8.48835">
        <ele>2460</ele>
        <time>2021-08-12T09:42:34.505Z</time>
      </trkpt>
      <trkpt lat="46.85546" lon="8.48836">
        <ele>2460</ele>
        <time>2021-08-12T09:42:35.505Z</time>
      </trkpt>
      <trkpt lat="46.85545" lon="8.48835">
        <ele>2460</ele>
        <time>2021-08-12T09:42:36.505Z</time>
      </trkpt>
      <trkpt lat="46.85543" lon="8.48835">
        <ele>2460</ele>
        <time>2021-08-12T09:42:37.505Z</time>
      </trkpt>
      <trkpt lat="46.85543" lon="8.48835">
        <ele>2459</ele>
        <time>2021-08-12T09:42:38.504Z</time>
      </trkpt>
      <trkpt lat="46.85543" lon="8.48836">
        <ele>2459</ele>
        <time>2021-08-12T09:42:39.504Z</time>
      </trkpt>
      <trkpt lat="46.85543" lon="8.48836">
        <ele>2458</ele>
        <time>2021-08-12T09:42:40.505Z</time>
      </trkpt>
      <trkpt lat="46.85542" lon="8.48837">
        <ele>2458</ele>
        <time>2021-08-12T09:42:41.504Z</time>
      </trkpt>
      <trkpt lat="46.85542" lon="8.48837">
        <ele>2457</ele>
        <time>2021-08-12T09:42:42.504Z</time>
      </trkpt>
      <trkpt lat="46.85541" lon="8.48837">
        <ele>2457</ele>
        <time>2021-08-12T09:42:43.505Z</time>
      </trkpt>
      <trkpt lat="46.8554" lon="8.48837">
        <ele>2457</ele>
        <time>2021-08-12T09:42:44.505Z</time>
      </trkpt>
      <trkpt lat="46.8554" lon="8.48838">
        <ele>2457</ele>
        <time>2021-08-12T09:42:45.505Z</time>
      </trkpt>
      <trkpt lat="46.8554" lon="8.48838">
        <ele>2457</ele>
        <time>2021-08-12T09:42:46.505Z</time>
      </trkpt>
      <trkpt lat="46.85539" lon="8.48838">
        <ele>2457</ele>
        <time>2021-08-12T09:42:47.505Z</time>
      </trkpt>
      <trkpt lat="46.8554" lon="8.48839">
        <ele>2457</ele>
        <time>2021-08-12T09:42:48.504Z</time>
      </trkpt>
      <trkpt lat="46.8554" lon="8.4884">
        <ele>2457</ele>
        <time>2021-08-12T09:42:49.504Z</time>
      </trkpt>
      <trkpt lat="46.8554" lon="8.4884">
        <ele>2457</ele>
        <time>2021-08-12T09:42:50.505Z</time>
      </trkpt>
      <trkpt lat="46.8554" lon="8.48841">
        <ele>2456</ele>
        <time>2021-08-12T09:42:51.504Z</time>
      </trkpt>
      <trkpt lat="46.8554" lon="8.48841">
        <ele>2456</ele>
        <time>2021-08-12T09:42:52.504Z</time>
      </trkpt>
      <trkpt lat="46.8554" lon="8.48842">
        <ele>2455</ele>
        <time>2021-08-12T09:42:53.504Z</time>
      </trkpt>
      <trkpt lat="46.8554" lon="8.48842">
        <ele>2455</ele>
        <time>2021-08-12T09:42:54.504Z</time>
      </trkpt>
      <trkpt lat="46.8554" lon="8.48841">
        <ele>2453</ele>
        <time>2021-08-12T09:42:55.506Z</time>
      </trkpt>
      <trkpt lat="46.8554" lon="8.48841">
        <ele>2453</ele>
        <time>2021-08-12T09:42:56.506Z</time>
      </trkpt>
      <trkpt lat="46.85537" lon="8.48842">
        <ele>2453</ele>
        <time>2021-08-12T09:42:57.507Z</time>
      </trkpt>
      <trkpt lat="46.85537" lon="8.48842">
        <ele>2454</ele>
        <time>2021-08-12T09:42:58.506Z</time>
      </trkpt>
      <trkpt lat="46.85536" lon="8.48842">
        <ele>2454</ele>
        <time>2021-08-12T09:42:59.507Z</time>
      </trkpt>
      <trkpt lat="46.85536" lon="8.48843">
        <ele>2456</ele>
        <time>2021-08-12T09:43:00.507Z</time>
      </trkpt>
      <trkpt lat="46.85537" lon="8.48843">
        <ele>2456</ele>
        <time>2021-08-12T09:43:01.507Z</time>
      </trkpt>
      <trkpt lat="46.85537" lon="8.48843">
        <ele>2456</ele>
        <time>2021-08-12T09:43:02.507Z</time>
      </trkpt>
      <trkpt lat="46.85537" lon="8.48842">
        <ele>2456</ele>
        <time>2021-08-12T09:43:03.507Z</time>
      </trkpt>
      <trkpt lat="46.85537" lon="8.48841">
        <ele>2456</ele>
        <time>2021-08-12T09:43:04.507Z</time>
      </trkpt>
      <trkpt lat="46.85537" lon="8.48841">
        <ele>2456</ele>
        <time>2021-08-12T09:43:05.507Z</time>
      </trkpt>
      <trkpt lat="46.85537" lon="8.4884">
        <ele>2452</ele>
        <time>2021-08-12T09:43:06.508Z</time>
      </trkpt>
      <trkpt lat="46.85536" lon="8.4884">
        <ele>2451</ele>
        <time>2021-08-12T09:43:07.507Z</time>
      </trkpt>
      <trkpt lat="46.85535" lon="8.4884">
        <ele>2450</ele>
        <time>2021-08-12T09:43:08.507Z</time>
      </trkpt>
      <trkpt lat="46.85533" lon="8.4884">
        <ele>2445</ele>
        <time>2021-08-12T09:43:09.507Z</time>
      </trkpt>
      <trkpt lat="46.85532" lon="8.4884">
        <ele>2445</ele>
        <time>2021-08-12T09:43:10.508Z</time>
      </trkpt>
      <trkpt lat="46.85532" lon="8.4884">
        <ele>2444</ele>
        <time>2021-08-12T09:43:11.508Z</time>
      </trkpt>
      <trkpt lat="46.85531" lon="8.48841">
        <ele>2444</ele>
        <time>2021-08-12T09:43:12.507Z</time>
      </trkpt>
      <trkpt lat="46.85531" lon="8.48841">
        <ele>2443</ele>
        <time>2021-08-12T09:43:13.508Z</time>
      </trkpt>
      <trkpt lat="46.8553" lon="8.48841">
        <ele>2442</ele>
        <time>2021-08-12T09:43:14.508Z</time>
      </trkpt>
      <trkpt lat="46.8553" lon="8.48841">
        <ele>2442</ele>
        <time>2021-08-12T09:43:15.508Z</time>
      </trkpt>
      <trkpt lat="46.85529" lon="8.48841">
        <ele>2442</ele>
        <time>2021-08-12T09:43:16.508Z</time>
      </trkpt>
      <trkpt lat="46.85527" lon="8.48841">
        <ele>2443</ele>
        <time>2021-08-12T09:43:17.507Z</time>
      </trkpt>
      <trkpt lat="46.85526" lon="8.48841">
        <ele>2443</ele>
        <time>2021-08-12T09:43:18.509Z</time>
      </trkpt>
      <trkpt lat="46.85525" lon="8.48841">
        <ele>2443</ele>
        <time>2021-08-12T09:43:19.509Z</time>
      </trkpt>
      <trkpt lat="46.85525" lon="8.4884">
        <ele>2445</ele>
        <time>2021-08-12T09:43:20.509Z</time>
      </trkpt>
      <trkpt lat="46.85527" lon="8.48841">
        <ele>2445</ele>
        <time>2021-08-12T09:43:21.510Z</time>
      </trkpt>
      <trkpt lat="46.85529" lon="8.48841">
        <ele>2446</ele>
        <time>2021-08-12T09:43:22.509Z</time>
      </trkpt>
      <trkpt lat="46.85531" lon="8.48843">
        <ele>2446</ele>
        <time>2021-08-12T09:43:23.510Z</time>
      </trkpt>
      <trkpt lat="46.85531" lon="8.48843">
        <ele>2446</ele>
        <time>2021-08-12T09:43:24.510Z</time>
      </trkpt>
      <trkpt lat="46.85531" lon="8.48843">
        <ele>2446</ele>
        <time>2021-08-12T09:43:25.510Z</time>
      </trkpt>
      <trkpt lat="46.85534" lon="8.4884">
        <ele>2454</ele>
        <time>2021-08-12T09:43:26.510Z</time>
      </trkpt>
      <trkpt lat="46.85534" lon="8.48839">
        <ele>2454</ele>
        <time>2021-08-12T09:43:27.511Z</time>
      </trkpt>
      <trkpt lat="46.85535" lon="8.48839">
        <ele>2455</ele>
        <time>2021-08-12T09:43:28.510Z</time>
      </trkpt>
      <trkpt lat="46.85535" lon="8.48838">
        <ele>2455</ele>
        <time>2021-08-12T09:43:29.510Z</time>
      </trkpt>
      <trkpt lat="46.85535" lon="8.48836">
        <ele>2455</ele>
        <time>2021-08-12T09:43:30.511Z</time>
      </trkpt>
      <trkpt lat="46.85535" lon="8.48836">
        <ele>2455</ele>
        <time>2021-08-12T09:43:31.510Z</time>
      </trkpt>
      <trkpt lat="46.85536" lon="8.48836">
        <ele>2455</ele>
        <time>2021-08-12T09:43:32.511Z</time>
      </trkpt>
      <trkpt lat="46.85537" lon="8.48835">
        <ele>2456</ele>
        <time>2021-08-12T09:43:33.511Z</time>
      </trkpt>
      <trkpt lat="46.85538" lon="8.48835">
        <ele>2456</ele>
        <time>2021-08-12T09:43:34.511Z</time>
      </trkpt>
      <trkpt lat="46.85537" lon="8.48834">
        <ele>2456</ele>
        <time>2021-08-12T09:43:35.511Z</time>
      </trkpt>
      <trkpt lat="46.85536" lon="8.48834">
        <ele>2456</ele>
        <time>2021-08-12T09:43:36.511Z</time>
      </trkpt>
      <trkpt lat="46.85534" lon="8.48832">
        <ele>2457</ele>
        <time>2021-08-12T09:43:37.510Z</time>
      </trkpt>
      <trkpt lat="46.85533" lon="8.48831">
        <ele>2457</ele>
        <time>2021-08-12T09:43:38.511Z</time>
      </trkpt>
      <trkpt lat="46.85532" lon="8.48831">
        <ele>2457</ele>
        <time>2021-08-12T09:43:39.511Z</time>
      </trkpt>
      <trkpt lat="46.85532" lon="8.48831">
        <ele>2457</ele>
        <time>2021-08-12T09:43:40.511Z</time>
      </trkpt>
      <trkpt lat="46.85531" lon="8.4883">
        <ele>2457</ele>
        <time>2021-08-12T09:43:41.511Z</time>
      </trkpt>
      <trkpt lat="46.8553" lon="8.4883">
        <ele>2457</ele>
        <time>2021-08-12T09:43:42.510Z</time>
      </trkpt>
      <trkpt lat="46.85529" lon="8.48829">
        <ele>2457</ele>
        <time>2021-08-12T09:43:43.511Z</time>
      </trkpt>
      <trkpt lat="46.85529" lon="8.48829">
        <ele>2457</ele>
        <time>2021-08-12T09:43:44.510Z</time>
      </trkpt>
      <trkpt lat="46.85529" lon="8.48828">
        <ele>2457</ele>
        <time>2021-08-12T09:43:45.511Z</time>
      </trkpt>
      <trkpt lat="46.85529" lon="8.48828">
        <ele>2457</ele>
        <time>2021-08-12T09:43:46.510Z</time>
      </trkpt>
      <trkpt lat="46.85529" lon="8.48828">
        <ele>2457</ele>
        <time>2021-08-12T09:43:47.510Z</time>
      </trkpt>
      <trkpt lat="46.85529" lon="8.48827">
        <ele>2457</ele>
        <time>2021-08-12T09:43:48.510Z</time>
      </trkpt>
      <trkpt lat="46.85528" lon="8.48827">
        <ele>2457</ele>
        <time>2021-08-12T09:43:49.510Z</time>
      </trkpt>
      <trkpt lat="46.85528" lon="8.48826">
        <ele>2457</ele>
        <time>2021-08-12T09:43:50.510Z</time>
      </trkpt>
      <trkpt lat="46.85527" lon="8.48826">
        <ele>2457</ele>
        <time>2021-08-12T09:43:51.511Z</time>
      </trkpt>
      <trkpt lat="46.85527" lon="8.48826">
        <ele>2457</ele>
        <time>2021-08-12T09:43:52.510Z</time>
      </trkpt>
      <trkpt lat="46.85526" lon="8.48825">
        <ele>2457</ele>
        <time>2021-08-12T09:43:53.511Z</time>
      </trkpt>
      <trkpt lat="46.85527" lon="8.48825">
        <ele>2458</ele>
        <time>2021-08-12T09:43:54.511Z</time>
      </trkpt>
      <trkpt lat="46.85526" lon="8.48825">
        <ele>2458</ele>
        <time>2021-08-12T09:43:55.511Z</time>
      </trkpt>
      <trkpt lat="46.85526" lon="8.48824">
        <ele>2459</ele>
        <time>2021-08-12T09:43:56.511Z</time>
      </trkpt>
      <trkpt lat="46.85526" lon="8.48824">
        <ele>2459</ele>
        <time>2021-08-12T09:43:57.510Z</time>
      </trkpt>
      <trkpt lat="46.85526" lon="8.48823">
        <ele>2460</ele>
        <time>2021-08-12T09:43:58.510Z</time>
      </trkpt>
      <trkpt lat="46.85527" lon="8.48823">
        <ele>2460</ele>
        <time>2021-08-12T09:43:59.511Z</time>
      </trkpt>
      <trkpt lat="46.85527" lon="8.48823">
        <ele>2460</ele>
        <time>2021-08-12T09:44:00.512Z</time>
      </trkpt>
      <trkpt lat="46.85527" lon="8.48821">
        <ele>2463</ele>
        <time>2021-08-12T09:44:01.512Z</time>
      </trkpt>
      <trkpt lat="46.85527" lon="8.48821">
        <ele>2464</ele>
        <time>2021-08-12T09:44:02.512Z</time>
      </trkpt>
      <trkpt lat="46.85526" lon="8.4882">
        <ele>2464</ele>
        <time>2021-08-12T09:44:03.511Z</time>
      </trkpt>
      <trkpt lat="46.85526" lon="8.4882">
        <ele>2464</ele>
        <time>2021-08-12T09:44:04.512Z</time>
      </trkpt>
      <trkpt lat="46.85526" lon="8.48819">
        <ele>2464</ele>
        <time>2021-08-12T09:44:05.512Z</time>
      </trkpt>
      <trkpt lat="46.85526" lon="8.48819">
        <ele>2465</ele>
        <time>2021-08-12T09:44:06.511Z</time>
      </trkpt>
      <trkpt lat="46.85525" lon="8.48819">
        <ele>2465</ele>
        <time>2021-08-12T09:44:07.512Z</time>
      </trkpt>
      <trkpt lat="46.85525" lon="8.48818">
        <ele>2465</ele>
        <time>2021-08-12T09:44:08.512Z</time>
      </trkpt>
      <trkpt lat="46.85525" lon="8.48818">
        <ele>2465</ele>
        <time>2021-08-12T09:44:09.512Z</time>
      </trkpt>
      <trkpt lat="46.85525" lon="8.48818">
        <ele>2465</ele>
        <time>2021-08-12T09:44:10.512Z</time>
      </trkpt>
      <trkpt lat="46.85524" lon="8.48818">
        <ele>2465</ele>
        <time>2021-08-12T09:44:11.512Z</time>
      </trkpt>
      <trkpt lat="46.85524" lon="8.4882">
        <ele>2466</ele>
        <time>2021-08-12T09:44:12.513Z</time>
      </trkpt>
      <trkpt lat="46.85524" lon="8.48821">
        <ele>2467</ele>
        <time>2021-08-12T09:44:13.513Z</time>
      </trkpt>
      <trkpt lat="46.85524" lon="8.4882">
        <ele>2467</ele>
        <time>2021-08-12T09:44:14.512Z</time>
      </trkpt>
      <trkpt lat="46.85524" lon="8.48819">
        <ele>2467</ele>
        <time>2021-08-12T09:44:15.513Z</time>
      </trkpt>
      <trkpt lat="46.85523" lon="8.48818">
        <ele>2467</ele>
        <time>2021-08-12T09:44:16.513Z</time>
      </trkpt>
      <trkpt lat="46.85523" lon="8.48817">
        <ele>2467</ele>
        <time>2021-08-12T09:44:17.513Z</time>
      </trkpt>
      <trkpt lat="46.85522" lon="8.48816">
        <ele>2467</ele>
        <time>2021-08-12T09:44:18.513Z</time>
      </trkpt>
      <trkpt lat="46.85522" lon="8.48816">
        <ele>2467</ele>
        <time>2021-08-12T09:44:19.513Z</time>
      </trkpt>
      <trkpt lat="46.85521" lon="8.48817">
        <ele>2467</ele>
        <time>2021-08-12T09:44:20.512Z</time>
      </trkpt>
      <trkpt lat="46.85521" lon="8.48817">
        <ele>2467</ele>
        <time>2021-08-12T09:44:21.513Z</time>
      </trkpt>
      <trkpt lat="46.8552" lon="8.48817">
        <ele>2467</ele>
        <time>2021-08-12T09:44:22.512Z</time>
      </trkpt>
      <trkpt lat="46.85519" lon="8.48818">
        <ele>2467</ele>
        <time>2021-08-12T09:44:23.513Z</time>
      </trkpt>
      <trkpt lat="46.85519" lon="8.48818">
        <ele>2467</ele>
        <time>2021-08-12T09:44:24.513Z</time>
      </trkpt>
      <trkpt lat="46.85519" lon="8.48818">
        <ele>2467</ele>
        <time>2021-08-12T09:44:25.513Z</time>
      </trkpt>
      <trkpt lat="46.85514" lon="8.48814">
        <ele>2466</ele>
        <time>2021-08-12T09:44:26.390Z</time>
      </trkpt>
      <trkpt lat="46.85513" lon="8.48814">
        <ele>2465</ele>
        <time>2021-08-12T09:44:27.390Z</time>
      </trkpt>
      <trkpt lat="46.85513" lon="8.48813">
        <ele>2465</ele>
        <time>2021-08-12T09:44:28.389Z</time>
      </trkpt>
      <trkpt lat="46.85514" lon="8.48814">
        <ele>2463</ele>
        <time>2021-08-12T09:44:29.390Z</time>
      </trkpt>
      <trkpt lat="46.85513" lon="8.48814">
        <ele>2462</ele>
        <time>2021-08-12T09:44:30.390Z</time>
      </trkpt>
      <trkpt lat="46.85512" lon="8.48812">
        <ele>2457</ele>
        <time>2021-08-12T09:44:31.389Z</time>
      </trkpt>
      <trkpt lat="46.85511" lon="8.48811">
        <ele>2457</ele>
        <time>2021-08-12T09:44:32.390Z</time>
      </trkpt>
      <trkpt lat="46.85509" lon="8.48809">
        <ele>2456</ele>
        <time>2021-08-12T09:44:33.390Z</time>
      </trkpt>
      <trkpt lat="46.85507" lon="8.48808">
        <ele>2455</ele>
        <time>2021-08-12T09:44:34.389Z</time>
      </trkpt>
      <trkpt lat="46.85506" lon="8.48808">
        <ele>2455</ele>
        <time>2021-08-12T09:44:35.389Z</time>
      </trkpt>
      <trkpt lat="46.85505" lon="8.48808">
        <ele>2454</ele>
        <time>2021-08-12T09:44:36.389Z</time>
      </trkpt>
      <trkpt lat="46.85505" lon="8.48808">
        <ele>2454</ele>
        <time>2021-08-12T09:44:37.389Z</time>
      </trkpt>
      <trkpt lat="46.85505" lon="8.48808">
        <ele>2454</ele>
        <time>2021-08-12T09:44:38.390Z</time>
      </trkpt>
      <trkpt lat="46.85504" lon="8.48807">
        <ele>2452</ele>
        <time>2021-08-12T09:44:39.391Z</time>
      </trkpt>
      <trkpt lat="46.85504" lon="8.48807">
        <ele>2451</ele>
        <time>2021-08-12T09:44:40.391Z</time>
      </trkpt>
      <trkpt lat="46.85504" lon="8.48807">
        <ele>2450</ele>
        <time>2021-08-12T09:44:41.391Z</time>
      </trkpt>
      <trkpt lat="46.85505" lon="8.48808">
        <ele>2450</ele>
        <time>2021-08-12T09:44:42.391Z</time>
      </trkpt>
      <trkpt lat="46.85504" lon="8.48809">
        <ele>2450</ele>
        <time>2021-08-12T09:44:43.391Z</time>
      </trkpt>
      <trkpt lat="46.85504" lon="8.4881">
        <ele>2450</ele>
        <time>2021-08-12T09:44:44.390Z</time>
      </trkpt>
      <trkpt lat="46.85504" lon="8.48811">
        <ele>2450</ele>
        <time>2021-08-12T09:44:45.390Z</time>
      </trkpt>
      <trkpt lat="46.85504" lon="8.48811">
        <ele>2451</ele>
        <time>2021-08-12T09:44:46.390Z</time>
      </trkpt>
      <trkpt lat="46.85503" lon="8.48812">
        <ele>2451</ele>
        <time>2021-08-12T09:44:47.391Z</time>
      </trkpt>
      <trkpt lat="46.85503" lon="8.48813">
        <ele>2453</ele>
        <time>2021-08-12T09:44:48.390Z</time>
      </trkpt>
      <trkpt lat="46.85504" lon="8.48814">
        <ele>2453</ele>
        <time>2021-08-12T09:44:49.391Z</time>
      </trkpt>
      <trkpt lat="46.85504" lon="8.48815">
        <ele>2454</ele>
        <time>2021-08-12T09:44:50.390Z</time>
      </trkpt>
      <trkpt lat="46.85511" lon="8.48824">
        <ele>2473</ele>
        <time>2021-08-12T09:44:51.391Z</time>
      </trkpt>
      <trkpt lat="46.8551" lon="8.48823">
        <ele>2473</ele>
        <time>2021-08-12T09:44:52.390Z</time>
      </trkpt>
      <trkpt lat="46.85509" lon="8.48824">
        <ele>2473</ele>
        <time>2021-08-12T09:44:53.390Z</time>
      </trkpt>
      <trkpt lat="46.85509" lon="8.48824">
        <ele>2472</ele>
        <time>2021-08-12T09:44:54.390Z</time>
      </trkpt>
      <trkpt lat="46.85509" lon="8.48825">
        <ele>2472</ele>
        <time>2021-08-12T09:44:55.390Z</time>
      </trkpt>
      <trkpt lat="46.85508" lon="8.48825">
        <ele>2471</ele>
        <time>2021-08-12T09:44:56.391Z</time>
      </trkpt>
      <trkpt lat="46.85508" lon="8.48825">
        <ele>2471</ele>
        <time>2021-08-12T09:44:57.391Z</time>
      </trkpt>
      <trkpt lat="46.85506" lon="8.48825">
        <ele>2468</ele>
        <time>2021-08-12T09:44:58.392Z</time>
      </trkpt>
      <trkpt lat="46.85506" lon="8.48826">
        <ele>2469</ele>
        <time>2021-08-12T09:44:59.391Z</time>
      </trkpt>
      <trkpt lat="46.85507" lon="8.48827">
        <ele>2472</ele>
        <time>2021-08-12T09:45:00.393Z</time>
      </trkpt>
      <trkpt lat="46.85507" lon="8.48827">
        <ele>2473</ele>
        <time>2021-08-12T09:45:01.393Z</time>
      </trkpt>
      <trkpt lat="46.85507" lon="8.48827">
        <ele>2473</ele>
        <time>2021-08-12T09:45:02.393Z</time>
      </trkpt>
      <trkpt lat="46.85509" lon="8.48827">
        <ele>2478</ele>
        <time>2021-08-12T09:45:03.394Z</time>
      </trkpt>
      <trkpt lat="46.85509" lon="8.48828">
        <ele>2479</ele>
        <time>2021-08-12T09:45:04.394Z</time>
      </trkpt>
      <trkpt lat="46.85509" lon="8.48828">
        <ele>2479</ele>
        <time>2021-08-12T09:45:05.394Z</time>
      </trkpt>
      <trkpt lat="46.8551" lon="8.48825">
        <ele>2474</ele>
        <time>2021-08-12T09:45:06.394Z</time>
      </trkpt>
      <trkpt lat="46.85511" lon="8.48824">
        <ele>2473</ele>
        <time>2021-08-12T09:45:07.394Z</time>
      </trkpt>
      <trkpt lat="46.85511" lon="8.48823">
        <ele>2473</ele>
        <time>2021-08-12T09:45:08.394Z</time>
      </trkpt>
      <trkpt lat="46.85512" lon="8.48823">
        <ele>2472</ele>
        <time>2021-08-12T09:45:09.395Z</time>
      </trkpt>
      <trkpt lat="46.85512" lon="8.48822">
        <ele>2472</ele>
        <time>2021-08-12T09:45:10.394Z</time>
      </trkpt>
      <trkpt lat="46.85513" lon="8.48821">
        <ele>2472</ele>
        <time>2021-08-12T09:45:11.395Z</time>
      </trkpt>
      <trkpt lat="46.85514" lon="8.48821">
        <ele>2472</ele>
        <time>2021-08-12T09:45:12.394Z</time>
      </trkpt>
      <trkpt lat="46.85514" lon="8.48821">
        <ele>2471</ele>
        <time>2021-08-12T09:45:13.394Z</time>
      </trkpt>
      <trkpt lat="46.85515" lon="8.4882">
        <ele>2471</ele>
        <time>2021-08-12T09:45:14.395Z</time>
      </trkpt>
      <trkpt lat="46.85515" lon="8.48818">
        <ele>2471</ele>
        <time>2021-08-12T09:45:15.394Z</time>
      </trkpt>
      <trkpt lat="46.85516" lon="8.48817">
        <ele>2471</ele>
        <time>2021-08-12T09:45:16.395Z</time>
      </trkpt>
      <trkpt lat="46.85516" lon="8.48816">
        <ele>2470</ele>
        <time>2021-08-12T09:45:17.395Z</time>
      </trkpt>
      <trkpt lat="46.85515" lon="8.48816">
        <ele>2470</ele>
        <time>2021-08-12T09:45:18.395Z</time>
      </trkpt>
      <trkpt lat="46.85515" lon="8.48815">
        <ele>2470</ele>
        <time>2021-08-12T09:45:19.394Z</time>
      </trkpt>
      <trkpt lat="46.85515" lon="8.48814">
        <ele>2471</ele>
        <time>2021-08-12T09:45:20.394Z</time>
      </trkpt>
      <trkpt lat="46.85515" lon="8.48814">
        <ele>2471</ele>
        <time>2021-08-12T09:45:21.395Z</time>
      </trkpt>
      <trkpt lat="46.85515" lon="8.48813">
        <ele>2471</ele>
        <time>2021-08-12T09:45:22.395Z</time>
      </trkpt>
      <trkpt lat="46.85515" lon="8.48812">
        <ele>2471</ele>
        <time>2021-08-12T09:45:23.395Z</time>
      </trkpt>
      <trkpt lat="46.85515" lon="8.48812">
        <ele>2471</ele>
        <time>2021-08-12T09:45:24.395Z</time>
      </trkpt>
      <trkpt lat="46.85515" lon="8.48812">
        <ele>2471</ele>
        <time>2021-08-12T09:45:25.395Z</time>
      </trkpt>
      <trkpt lat="46.85514" lon="8.48811">
        <ele>2471</ele>
        <time>2021-08-12T09:45:26.395Z</time>
      </trkpt>
      <trkpt lat="46.85514" lon="8.48811">
        <ele>2471</ele>
        <time>2021-08-12T09:45:27.394Z</time>
      </trkpt>
      <trkpt lat="46.85514" lon="8.4881">
        <ele>2471</ele>
        <time>2021-08-12T09:45:28.394Z</time>
      </trkpt>
      <trkpt lat="46.85514" lon="8.4881">
        <ele>2471</ele>
        <time>2021-08-12T09:45:29.394Z</time>
      </trkpt>
      <trkpt lat="46.85514" lon="8.48809">
        <ele>2472</ele>
        <time>2021-08-12T09:45:30.394Z</time>
      </trkpt>
      <trkpt lat="46.85514" lon="8.48809">
        <ele>2472</ele>
        <time>2021-08-12T09:45:31.394Z</time>
      </trkpt>
      <trkpt lat="46.85514" lon="8.48808">
        <ele>2473</ele>
        <time>2021-08-12T09:45:32.394Z</time>
      </trkpt>
      <trkpt lat="46.85515" lon="8.48806">
        <ele>2476</ele>
        <time>2021-08-12T09:45:33.395Z</time>
      </trkpt>
      <trkpt lat="46.85511" lon="8.48805">
        <ele>2478</ele>
        <time>2021-08-12T09:45:34.395Z</time>
      </trkpt>
      <trkpt lat="46.85511" lon="8.48805">
        <ele>2479</ele>
        <time>2021-08-12T09:45:35.394Z</time>
      </trkpt>
      <trkpt lat="46.85511" lon="8.48805">
        <ele>2480</ele>
        <time>2021-08-12T09:45:36.394Z</time>
      </trkpt>
      <trkpt lat="46.8551" lon="8.48804">
        <ele>2482</ele>
        <time>2021-08-12T09:45:37.395Z</time>
      </trkpt>
      <trkpt lat="46.85509" lon="8.48804">
        <ele>2482</ele>
        <time>2021-08-12T09:45:38.396Z</time>
      </trkpt>
      <trkpt lat="46.85509" lon="8.48804">
        <ele>2482</ele>
        <time>2021-08-12T09:45:39.395Z</time>
      </trkpt>
      <trkpt lat="46.85508" lon="8.48805">
        <ele>2482</ele>
        <time>2021-08-12T09:45:40.395Z</time>
      </trkpt>
      <trkpt lat="46.85507" lon="8.48805">
        <ele>2482</ele>
        <time>2021-08-12T09:45:41.396Z</time>
      </trkpt>
      <trkpt lat="46.85506" lon="8.48805">
        <ele>2481</ele>
        <time>2021-08-12T09:45:42.396Z</time>
      </trkpt>
      <trkpt lat="46.85506" lon="8.48805">
        <ele>2481</ele>
        <time>2021-08-12T09:45:43.396Z</time>
      </trkpt>
      <trkpt lat="46.85506" lon="8.48806">
        <ele>2480</ele>
        <time>2021-08-12T09:45:44.396Z</time>
      </trkpt>
      <trkpt lat="46.85505" lon="8.48806">
        <ele>2480</ele>
        <time>2021-08-12T09:45:45.396Z</time>
      </trkpt>
      <trkpt lat="46.85506" lon="8.48808">
        <ele>2479</ele>
        <time>2021-08-12T09:45:46.395Z</time>
      </trkpt>
      <trkpt lat="46.85506" lon="8.48808">
        <ele>2479</ele>
        <time>2021-08-12T09:45:47.396Z</time>
      </trkpt>
      <trkpt lat="46.85505" lon="8.48808">
        <ele>2478</ele>
        <time>2021-08-12T09:45:48.396Z</time>
      </trkpt>
      <trkpt lat="46.85505" lon="8.48807">
        <ele>2477</ele>
        <time>2021-08-12T09:45:49.396Z</time>
      </trkpt>
      <trkpt lat="46.85504" lon="8.48807">
        <ele>2476</ele>
        <time>2021-08-12T09:45:50.395Z</time>
      </trkpt>
      <trkpt lat="46.85504" lon="8.48807">
        <ele>2475</ele>
        <time>2021-08-12T09:45:51.395Z</time>
      </trkpt>
      <trkpt lat="46.85503" lon="8.48807">
        <ele>2474</ele>
        <time>2021-08-12T09:45:52.395Z</time>
      </trkpt>
      <trkpt lat="46.85503" lon="8.48807">
        <ele>2473</ele>
        <time>2021-08-12T09:45:53.396Z</time>
      </trkpt>
      <trkpt lat="46.85502" lon="8.48807">
        <ele>2472</ele>
        <time>2021-08-12T09:45:54.396Z</time>
      </trkpt>
      <trkpt lat="46.85502" lon="8.48807">
        <ele>2472</ele>
        <time>2021-08-12T09:45:55.396Z</time>
      </trkpt>
      <trkpt lat="46.85501" lon="8.48807">
        <ele>2471</ele>
        <time>2021-08-12T09:45:56.396Z</time>
      </trkpt>
      <trkpt lat="46.855" lon="8.48805">
        <ele>2465</ele>
        <time>2021-08-12T09:45:57.396Z</time>
      </trkpt>
      <trkpt lat="46.85499" lon="8.48805">
        <ele>2463</ele>
        <time>2021-08-12T09:45:58.396Z</time>
      </trkpt>
      <trkpt lat="46.85499" lon="8.48805">
        <ele>2464</ele>
        <time>2021-08-12T09:45:59.395Z</time>
      </trkpt>
      <trkpt lat="46.85499" lon="8.48805">
        <ele>2464</ele>
        <time>2021-08-12T09:46:00.396Z</time>
      </trkpt>
      <trkpt lat="46.85499" lon="8.48807">
        <ele>2468</ele>
        <time>2021-08-12T09:46:01.395Z</time>
      </trkpt>
      <trkpt lat="46.85502" lon="8.48811">
        <ele>2474</ele>
        <time>2021-08-12T09:46:02.395Z</time>
      </trkpt>
      <trkpt lat="46.85502" lon="8.48811">
        <ele>2475</ele>
        <time>2021-08-12T09:46:03.396Z</time>
      </trkpt>
      <trkpt lat="46.85501" lon="8.48811">
        <ele>2475</ele>
        <time>2021-08-12T09:46:04.395Z</time>
      </trkpt>
      <trkpt lat="46.85501" lon="8.48812">
        <ele>2475</ele>
        <time>2021-08-12T09:46:05.396Z</time>
      </trkpt>
      <trkpt lat="46.85501" lon="8.48812">
        <ele>2476</ele>
        <time>2021-08-12T09:46:06.395Z</time>
      </trkpt>
      <trkpt lat="46.85501" lon="8.48813">
        <ele>2476</ele>
        <time>2021-08-12T09:46:07.395Z</time>
      </trkpt>
      <trkpt lat="46.855" lon="8.48814">
        <ele>2477</ele>
        <time>2021-08-12T09:46:08.396Z</time>
      </trkpt>
      <trkpt lat="46.855" lon="8.48814">
        <ele>2477</ele>
        <time>2021-08-12T09:46:09.396Z</time>
      </trkpt>
      <trkpt lat="46.855" lon="8.48815">
        <ele>2477</ele>
        <time>2021-08-12T09:46:10.395Z</time>
      </trkpt>
      <trkpt lat="46.85499" lon="8.48815">
        <ele>2477</ele>
        <time>2021-08-12T09:46:11.396Z</time>
      </trkpt>
      <trkpt lat="46.85499" lon="8.48815">
        <ele>2477</ele>
        <time>2021-08-12T09:46:12.396Z</time>
      </trkpt>
      <trkpt lat="46.85498" lon="8.48815">
        <ele>2477</ele>
        <time>2021-08-12T09:46:13.396Z</time>
      </trkpt>
      <trkpt lat="46.85497" lon="8.48815">
        <ele>2476</ele>
        <time>2021-08-12T09:46:14.396Z</time>
      </trkpt>
      <trkpt lat="46.85497" lon="8.48816">
        <ele>2475</ele>
        <time>2021-08-12T09:46:15.395Z</time>
      </trkpt>
      <trkpt lat="46.85497" lon="8.48817">
        <ele>2475</ele>
        <time>2021-08-12T09:46:16.396Z</time>
      </trkpt>
      <trkpt lat="46.85497" lon="8.48817">
        <ele>2475</ele>
        <time>2021-08-12T09:46:17.396Z</time>
      </trkpt>
      <trkpt lat="46.85498" lon="8.48818">
        <ele>2474</ele>
        <time>2021-08-12T09:46:18.396Z</time>
      </trkpt>
      <trkpt lat="46.85498" lon="8.48819">
        <ele>2474</ele>
        <time>2021-08-12T09:46:19.396Z</time>
      </trkpt>
      <trkpt lat="46.85498" lon="8.4882">
        <ele>2473</ele>
        <time>2021-08-12T09:46:20.396Z</time>
      </trkpt>
      <trkpt lat="46.85498" lon="8.4882">
        <ele>2473</ele>
        <time>2021-08-12T09:46:21.396Z</time>
      </trkpt>
      <trkpt lat="46.85497" lon="8.4882">
        <ele>2472</ele>
        <time>2021-08-12T09:46:22.395Z</time>
      </trkpt>
      <trkpt lat="46.85497" lon="8.4882">
        <ele>2471</ele>
        <time>2021-08-12T09:46:23.395Z</time>
      </trkpt>
      <trkpt lat="46.85496" lon="8.4882">
        <ele>2471</ele>
        <time>2021-08-12T09:46:24.395Z</time>
      </trkpt>
      <trkpt lat="46.85496" lon="8.4882">
        <ele>2470</ele>
        <time>2021-08-12T09:46:25.396Z</time>
      </trkpt>
      <trkpt lat="46.85495" lon="8.48819">
        <ele>2469</ele>
        <time>2021-08-12T09:46:26.396Z</time>
      </trkpt>
      <trkpt lat="46.85497" lon="8.48821">
        <ele>2478</ele>
        <time>2021-08-12T09:46:27.397Z</time>
      </trkpt>
      <trkpt lat="46.85497" lon="8.48821">
        <ele>2477</ele>
        <time>2021-08-12T09:46:28.396Z</time>
      </trkpt>
      <trkpt lat="46.85497" lon="8.48821">
        <ele>2477</ele>
        <time>2021-08-12T09:46:29.397Z</time>
      </trkpt>
      <trkpt lat="46.85496" lon="8.48822">
        <ele>2477</ele>
        <time>2021-08-12T09:46:30.396Z</time>
      </trkpt>
      <trkpt lat="46.85496" lon="8.48821">
        <ele>2473</ele>
        <time>2021-08-12T09:46:31.397Z</time>
      </trkpt>
      <trkpt lat="46.85496" lon="8.48821">
        <ele>2472</ele>
        <time>2021-08-12T09:46:32.397Z</time>
      </trkpt>
      <trkpt lat="46.85496" lon="8.48821">
        <ele>2471</ele>
        <time>2021-08-12T09:46:33.396Z</time>
      </trkpt>
      <trkpt lat="46.85506" lon="8.48822">
        <ele>2485</ele>
        <time>2021-08-12T09:46:34.397Z</time>
      </trkpt>
      <trkpt lat="46.85505" lon="8.48822">
        <ele>2486</ele>
        <time>2021-08-12T09:46:35.398Z</time>
      </trkpt>
      <trkpt lat="46.85505" lon="8.48822">
        <ele>2488</ele>
        <time>2021-08-12T09:46:36.397Z</time>
      </trkpt>
      <trkpt lat="46.8551" lon="8.48818">
        <ele>2493</ele>
        <time>2021-08-12T09:46:37.399Z</time>
      </trkpt>
      <trkpt lat="46.8551" lon="8.48818">
        <ele>2493</ele>
        <time>2021-08-12T09:46:38.398Z</time>
      </trkpt>
      <trkpt lat="46.8551" lon="8.48818">
        <ele>2493</ele>
        <time>2021-08-12T09:46:39.398Z</time>
      </trkpt>
      <trkpt lat="46.85508" lon="8.48825">
        <ele>2490</ele>
        <time>2021-08-12T09:46:40.400Z</time>
      </trkpt>
      <trkpt lat="46.85507" lon="8.48825">
        <ele>2490</ele>
        <time>2021-08-12T09:46:41.399Z</time>
      </trkpt>
      <trkpt lat="46.85507" lon="8.48825">
        <ele>2490</ele>
        <time>2021-08-12T09:46:42.400Z</time>
      </trkpt>
      <trkpt lat="46.85509" lon="8.48826">
        <ele>2489</ele>
        <time>2021-08-12T09:46:43.400Z</time>
      </trkpt>
      <trkpt lat="46.85509" lon="8.48825">
        <ele>2488</ele>
        <time>2021-08-12T09:46:44.400Z</time>
      </trkpt>
      <trkpt lat="46.85503" lon="8.48825">
        <ele>2484</ele>
        <time>2021-08-12T09:46:45.401Z</time>
      </trkpt>
      <trkpt lat="46.85502" lon="8.48826">
        <ele>2485</ele>
        <time>2021-08-12T09:46:46.401Z</time>
      </trkpt>
      <trkpt lat="46.85501" lon="8.48829">
        <ele>2482</ele>
        <time>2021-08-12T09:46:47.401Z</time>
      </trkpt>
      <trkpt lat="46.85501" lon="8.48829">
        <ele>2481</ele>
        <time>2021-08-12T09:46:48.401Z</time>
      </trkpt>
      <trkpt lat="46.85501" lon="8.4883">
        <ele>2481</ele>
        <time>2021-08-12T09:46:49.402Z</time>
      </trkpt>
      <trkpt lat="46.85502" lon="8.48831">
        <ele>2480</ele>
        <time>2021-08-12T09:46:50.402Z</time>
      </trkpt>
      <trkpt lat="46.855" lon="8.48831">
        <ele>2479</ele>
        <time>2021-08-12T09:46:51.402Z</time>
      </trkpt>
      <trkpt lat="46.85499" lon="8.48831">
        <ele>2478</ele>
        <time>2021-08-12T09:46:52.402Z</time>
      </trkpt>
      <trkpt lat="46.85498" lon="8.48832">
        <ele>2478</ele>
        <time>2021-08-12T09:46:53.401Z</time>
      </trkpt>
      <trkpt lat="46.85498" lon="8.48832">
        <ele>2477</ele>
        <time>2021-08-12T09:46:54.402Z</time>
      </trkpt>
      <trkpt lat="46.85498" lon="8.48832">
        <ele>2477</ele>
        <time>2021-08-12T09:46:55.401Z</time>
      </trkpt>
      <trkpt lat="46.85496" lon="8.48832">
        <ele>2475</ele>
        <time>2021-08-12T09:46:56.401Z</time>
      </trkpt>
      <trkpt lat="46.85495" lon="8.48831">
        <ele>2475</ele>
        <time>2021-08-12T09:46:57.402Z</time>
      </trkpt>
      <trkpt lat="46.85494" lon="8.4883">
        <ele>2475</ele>
        <time>2021-08-12T09:46:58.401Z</time>
      </trkpt>
      <trkpt lat="46.85494" lon="8.48829">
        <ele>2471</ele>
        <time>2021-08-12T09:46:59.404Z</time>
      </trkpt>
      <trkpt lat="46.85493" lon="8.48829">
        <ele>2471</ele>
        <time>2021-08-12T09:47:00.403Z</time>
      </trkpt>
      <trkpt lat="46.85492" lon="8.48829">
        <ele>2470</ele>
        <time>2021-08-12T09:47:01.403Z</time>
      </trkpt>
      <trkpt lat="46.85492" lon="8.48829">
        <ele>2469</ele>
        <time>2021-08-12T09:47:02.404Z</time>
      </trkpt>
      <trkpt lat="46.8549" lon="8.48829">
        <ele>2468</ele>
        <time>2021-08-12T09:47:03.404Z</time>
      </trkpt>
      <trkpt lat="46.85489" lon="8.48829">
        <ele>2468</ele>
        <time>2021-08-12T09:47:04.404Z</time>
      </trkpt>
      <trkpt lat="46.85489" lon="8.4883">
        <ele>2467</ele>
        <time>2021-08-12T09:47:05.404Z</time>
      </trkpt>
      <trkpt lat="46.85489" lon="8.48831">
        <ele>2467</ele>
        <time>2021-08-12T09:47:06.404Z</time>
      </trkpt>
      <trkpt lat="46.85489" lon="8.48832">
        <ele>2468</ele>
        <time>2021-08-12T09:47:07.403Z</time>
      </trkpt>
      <trkpt lat="46.85489" lon="8.48833">
        <ele>2468</ele>
        <time>2021-08-12T09:47:08.403Z</time>
      </trkpt>
      <trkpt lat="46.85489" lon="8.48834">
        <ele>2468</ele>
        <time>2021-08-12T09:47:09.404Z</time>
      </trkpt>
      <trkpt lat="46.85489" lon="8.48835">
        <ele>2468</ele>
        <time>2021-08-12T09:47:10.404Z</time>
      </trkpt>
      <trkpt lat="46.85489" lon="8.48836">
        <ele>2469</ele>
        <time>2021-08-12T09:47:11.404Z</time>
      </trkpt>
      <trkpt lat="46.8549" lon="8.48838">
        <ele>2470</ele>
        <time>2021-08-12T09:47:12.403Z</time>
      </trkpt>
      <trkpt lat="46.8549" lon="8.48839">
        <ele>2472</ele>
        <time>2021-08-12T09:47:13.404Z</time>
      </trkpt>
      <trkpt lat="46.8549" lon="8.48841">
        <ele>2473</ele>
        <time>2021-08-12T09:47:14.404Z</time>
      </trkpt>
      <trkpt lat="46.8549" lon="8.48842">
        <ele>2474</ele>
        <time>2021-08-12T09:47:15.403Z</time>
      </trkpt>
      <trkpt lat="46.8549" lon="8.48844">
        <ele>2476</ele>
        <time>2021-08-12T09:47:16.403Z</time>
      </trkpt>
      <trkpt lat="46.85491" lon="8.48845">
        <ele>2477</ele>
        <time>2021-08-12T09:47:17.404Z</time>
      </trkpt>
      <trkpt lat="46.85492" lon="8.48845">
        <ele>2478</ele>
        <time>2021-08-12T09:47:18.404Z</time>
      </trkpt>
      <trkpt lat="46.85491" lon="8.48845">
        <ele>2479</ele>
        <time>2021-08-12T09:47:19.404Z</time>
      </trkpt>
      <trkpt lat="46.85492" lon="8.48847">
        <ele>2480</ele>
        <time>2021-08-12T09:47:20.403Z</time>
      </trkpt>
      <trkpt lat="46.85491" lon="8.48846">
        <ele>2480</ele>
        <time>2021-08-12T09:47:21.403Z</time>
      </trkpt>
      <trkpt lat="46.85491" lon="8.48847">
        <ele>2481</ele>
        <time>2021-08-12T09:47:22.404Z</time>
      </trkpt>
      <trkpt lat="46.8549" lon="8.48847">
        <ele>2482</ele>
        <time>2021-08-12T09:47:23.403Z</time>
      </trkpt>
      <trkpt lat="46.8549" lon="8.48847">
        <ele>2483</ele>
        <time>2021-08-12T09:47:24.404Z</time>
      </trkpt>
      <trkpt lat="46.8549" lon="8.48847">
        <ele>2483</ele>
        <time>2021-08-12T09:47:25.403Z</time>
      </trkpt>
      <trkpt lat="46.85489" lon="8.48848">
        <ele>2484</ele>
        <time>2021-08-12T09:47:26.403Z</time>
      </trkpt>
      <trkpt lat="46.85489" lon="8.48848">
        <ele>2484</ele>
        <time>2021-08-12T09:47:27.403Z</time>
      </trkpt>
      <trkpt lat="46.85488" lon="8.48848">
        <ele>2485</ele>
        <time>2021-08-12T09:47:28.403Z</time>
      </trkpt>
      <trkpt lat="46.85488" lon="8.48848">
        <ele>2485</ele>
        <time>2021-08-12T09:47:29.403Z</time>
      </trkpt>
      <trkpt lat="46.85488" lon="8.48847">
        <ele>2485</ele>
        <time>2021-08-12T09:47:30.405Z</time>
      </trkpt>
      <trkpt lat="46.85488" lon="8.48848">
        <ele>2482</ele>
        <time>2021-08-12T09:47:31.405Z</time>
      </trkpt>
      <trkpt lat="46.85487" lon="8.48849">
        <ele>2483</ele>
        <time>2021-08-12T09:47:32.405Z</time>
      </trkpt>
      <trkpt lat="46.85487" lon="8.4885">
        <ele>2483</ele>
        <time>2021-08-12T09:47:33.404Z</time>
      </trkpt>
      <trkpt lat="46.85487" lon="8.48851">
        <ele>2484</ele>
        <time>2021-08-12T09:47:34.405Z</time>
      </trkpt>
      <trkpt lat="46.85487" lon="8.48852">
        <ele>2484</ele>
        <time>2021-08-12T09:47:35.404Z</time>
      </trkpt>
      <trkpt lat="46.85487" lon="8.48852">
        <ele>2484</ele>
        <time>2021-08-12T09:47:36.405Z</time>
      </trkpt>
      <trkpt lat="46.85487" lon="8.48851">
        <ele>2483</ele>
        <time>2021-08-12T09:47:37.406Z</time>
      </trkpt>
      <trkpt lat="46.85487" lon="8.48852">
        <ele>2483</ele>
        <time>2021-08-12T09:47:38.405Z</time>
      </trkpt>
      <trkpt lat="46.85487" lon="8.48853">
        <ele>2483</ele>
        <time>2021-08-12T09:47:39.405Z</time>
      </trkpt>
      <trkpt lat="46.85487" lon="8.48854">
        <ele>2482</ele>
        <time>2021-08-12T09:47:40.406Z</time>
      </trkpt>
      <trkpt lat="46.85487" lon="8.48855">
        <ele>2482</ele>
        <time>2021-08-12T09:47:41.406Z</time>
      </trkpt>
      <trkpt lat="46.85487" lon="8.48856">
        <ele>2482</ele>
        <time>2021-08-12T09:47:42.406Z</time>
      </trkpt>
      <trkpt lat="46.85487" lon="8.48857">
        <ele>2482</ele>
        <time>2021-08-12T09:47:43.405Z</time>
      </trkpt>
      <trkpt lat="46.85486" lon="8.48858">
        <ele>2482</ele>
        <time>2021-08-12T09:47:44.406Z</time>
      </trkpt>
      <trkpt lat="46.85486" lon="8.48858">
        <ele>2482</ele>
        <time>2021-08-12T09:47:45.405Z</time>
      </trkpt>
      <trkpt lat="46.85486" lon="8.48859">
        <ele>2483</ele>
        <time>2021-08-12T09:47:46.406Z</time>
      </trkpt>
      <trkpt lat="46.85487" lon="8.4886">
        <ele>2483</ele>
        <time>2021-08-12T09:47:47.405Z</time>
      </trkpt>
      <trkpt lat="46.85487" lon="8.48861">
        <ele>2483</ele>
        <time>2021-08-12T09:47:48.406Z</time>
      </trkpt>
      <trkpt lat="46.85487" lon="8.48862">
        <ele>2483</ele>
        <time>2021-08-12T09:47:49.406Z</time>
      </trkpt>
      <trkpt lat="46.85486" lon="8.48863">
        <ele>2483</ele>
        <time>2021-08-12T09:47:50.406Z</time>
      </trkpt>
      <trkpt lat="46.85486" lon="8.48864">
        <ele>2483</ele>
        <time>2021-08-12T09:47:51.406Z</time>
      </trkpt>
      <trkpt lat="46.85486" lon="8.48864">
        <ele>2482</ele>
        <time>2021-08-12T09:47:52.405Z</time>
      </trkpt>
      <trkpt lat="46.85486" lon="8.48865">
        <ele>2482</ele>
        <time>2021-08-12T09:47:53.406Z</time>
      </trkpt>
      <trkpt lat="46.85486" lon="8.48865">
        <ele>2482</ele>
        <time>2021-08-12T09:47:54.406Z</time>
      </trkpt>
      <trkpt lat="46.85486" lon="8.48866">
        <ele>2481</ele>
        <time>2021-08-12T09:47:55.406Z</time>
      </trkpt>
      <trkpt lat="46.85486" lon="8.48867">
        <ele>2479</ele>
        <time>2021-08-12T09:47:56.406Z</time>
      </trkpt>
      <trkpt lat="46.85486" lon="8.48867">
        <ele>2479</ele>
        <time>2021-08-12T09:47:57.406Z</time>
      </trkpt>
      <trkpt lat="46.85486" lon="8.48867">
        <ele>2478</ele>
        <time>2021-08-12T09:47:58.406Z</time>
      </trkpt>
      <trkpt lat="46.85486" lon="8.48867">
        <ele>2478</ele>
        <time>2021-08-12T09:47:59.406Z</time>
      </trkpt>
      <trkpt lat="46.85487" lon="8.48867">
        <ele>2478</ele>
        <time>2021-08-12T09:48:00.406Z</time>
      </trkpt>
      <trkpt lat="46.85488" lon="8.48866">
        <ele>2477</ele>
        <time>2021-08-12T09:48:01.406Z</time>
      </trkpt>
      <trkpt lat="46.85489" lon="8.48866">
        <ele>2477</ele>
        <time>2021-08-12T09:48:02.406Z</time>
      </trkpt>
      <trkpt lat="46.8549" lon="8.48867">
        <ele>2477</ele>
        <time>2021-08-12T09:48:03.406Z</time>
      </trkpt>
      <trkpt lat="46.8549" lon="8.48866">
        <ele>2477</ele>
        <time>2021-08-12T09:48:04.406Z</time>
      </trkpt>
      <trkpt lat="46.8549" lon="8.48866">
        <ele>2477</ele>
        <time>2021-08-12T09:48:05.405Z</time>
      </trkpt>
      <trkpt lat="46.85489" lon="8.48866">
        <ele>2477</ele>
        <time>2021-08-12T09:48:06.405Z</time>
      </trkpt>
      <trkpt lat="46.8549" lon="8.48863">
        <ele>2464</ele>
        <time>2021-08-12T09:48:07.406Z</time>
      </trkpt>
      <trkpt lat="46.85489" lon="8.48863">
        <ele>2463</ele>
        <time>2021-08-12T09:48:08.406Z</time>
      </trkpt>
      <trkpt lat="46.85489" lon="8.48863">
        <ele>2463</ele>
        <time>2021-08-12T09:48:09.405Z</time>
      </trkpt>
      <trkpt lat="46.85489" lon="8.48863">
        <ele>2463</ele>
        <time>2021-08-12T09:48:10.406Z</time>
      </trkpt>
      <trkpt lat="46.85489" lon="8.48863">
        <ele>2463</ele>
        <time>2021-08-12T09:48:11.405Z</time>
      </trkpt>
      <trkpt lat="46.85489" lon="8.48863">
        <ele>2463</ele>
        <time>2021-08-12T09:48:12.406Z</time>
      </trkpt>
      <trkpt lat="46.85489" lon="8.48864">
        <ele>2464</ele>
        <time>2021-08-12T09:48:13.406Z</time>
      </trkpt>
      <trkpt lat="46.85489" lon="8.48864">
        <ele>2465</ele>
        <time>2021-08-12T09:48:14.406Z</time>
      </trkpt>
      <trkpt lat="46.85489" lon="8.48865">
        <ele>2465</ele>
        <time>2021-08-12T09:48:15.406Z</time>
      </trkpt>
      <trkpt lat="46.85489" lon="8.48864">
        <ele>2465</ele>
        <time>2021-08-12T09:48:16.406Z</time>
      </trkpt>
      <trkpt lat="46.85486" lon="8.48862">
        <ele>2466</ele>
        <time>2021-08-12T09:48:17.407Z</time>
      </trkpt>
      <trkpt lat="46.85485" lon="8.48862">
        <ele>2465</ele>
        <time>2021-08-12T09:48:18.407Z</time>
      </trkpt>
      <trkpt lat="46.85485" lon="8.48862">
        <ele>2465</ele>
        <time>2021-08-12T09:48:19.406Z</time>
      </trkpt>
      <trkpt lat="46.85487" lon="8.48858">
        <ele>2463</ele>
        <time>2021-08-12T09:48:20.407Z</time>
      </trkpt>
      <trkpt lat="46.85487" lon="8.48858">
        <ele>2463</ele>
        <time>2021-08-12T09:48:21.408Z</time>
      </trkpt>
      <trkpt lat="46.85487" lon="8.48859">
        <ele>2463</ele>
        <time>2021-08-12T09:48:22.408Z</time>
      </trkpt>
      <trkpt lat="46.85486" lon="8.48859">
        <ele>2463</ele>
        <time>2021-08-12T09:48:23.408Z</time>
      </trkpt>
      <trkpt lat="46.85485" lon="8.4886">
        <ele>2463</ele>
        <time>2021-08-12T09:48:24.408Z</time>
      </trkpt>
      <trkpt lat="46.85484" lon="8.48859">
        <ele>2463</ele>
        <time>2021-08-12T09:48:25.408Z</time>
      </trkpt>
      <trkpt lat="46.85483" lon="8.48858">
        <ele>2463</ele>
        <time>2021-08-12T09:48:26.407Z</time>
      </trkpt>
      <trkpt lat="46.85483" lon="8.48858">
        <ele>2463</ele>
        <time>2021-08-12T09:48:27.407Z</time>
      </trkpt>
      <trkpt lat="46.85483" lon="8.48858">
        <ele>2463</ele>
        <time>2021-08-12T09:48:28.408Z</time>
      </trkpt>
      <trkpt lat="46.85488" lon="8.48857">
        <ele>2473</ele>
        <time>2021-08-12T09:48:29.408Z</time>
      </trkpt>
      <trkpt lat="46.85489" lon="8.48858">
        <ele>2475</ele>
        <time>2021-08-12T09:48:30.408Z</time>
      </trkpt>
      <trkpt lat="46.85489" lon="8.48858">
        <ele>2476</ele>
        <time>2021-08-12T09:48:31.409Z</time>
      </trkpt>
      <trkpt lat="46.85489" lon="8.48858">
        <ele>2478</ele>
        <time>2021-08-12T09:48:32.409Z</time>
      </trkpt>
      <trkpt lat="46.8549" lon="8.48859">
        <ele>2486</ele>
        <time>2021-08-12T09:48:33.410Z</time>
      </trkpt>
      <trkpt lat="46.8549" lon="8.48859">
        <ele>2486</ele>
        <time>2021-08-12T09:48:34.409Z</time>
      </trkpt>
      <trkpt lat="46.85489" lon="8.4886">
        <ele>2488</ele>
        <time>2021-08-12T09:48:35.411Z</time>
      </trkpt>
      <trkpt lat="46.85488" lon="8.4886">
        <ele>2490</ele>
        <time>2021-08-12T09:48:36.410Z</time>
      </trkpt>
      <trkpt lat="46.85488" lon="8.48861">
        <ele>2491</ele>
        <time>2021-08-12T09:48:37.410Z</time>
      </trkpt>
      <trkpt lat="46.85486" lon="8.48864">
        <ele>2496</ele>
        <time>2021-08-12T09:48:38.410Z</time>
      </trkpt>
      <trkpt lat="46.85482" lon="8.48861">
        <ele>2498</ele>
        <time>2021-08-12T09:48:39.411Z</time>
      </trkpt>
      <trkpt lat="46.85481" lon="8.48862">
        <ele>2497</ele>
        <time>2021-08-12T09:48:40.411Z</time>
      </trkpt>
      <trkpt lat="46.85481" lon="8.48863">
        <ele>2497</ele>
        <time>2021-08-12T09:48:41.411Z</time>
      </trkpt>
      <trkpt lat="46.85482" lon="8.48864">
        <ele>2496</ele>
        <time>2021-08-12T09:48:42.411Z</time>
      </trkpt>
      <trkpt lat="46.85482" lon="8.48866">
        <ele>2496</ele>
        <time>2021-08-12T09:48:43.410Z</time>
      </trkpt>
      <trkpt lat="46.85481" lon="8.48867">
        <ele>2496</ele>
        <time>2021-08-12T09:48:44.410Z</time>
      </trkpt>
      <trkpt lat="46.85481" lon="8.48868">
        <ele>2495</ele>
        <time>2021-08-12T09:48:45.410Z</time>
      </trkpt>
      <trkpt lat="46.85481" lon="8.48869">
        <ele>2495</ele>
        <time>2021-08-12T09:48:46.410Z</time>
      </trkpt>
      <trkpt lat="46.85481" lon="8.4887">
        <ele>2495</ele>
        <time>2021-08-12T09:48:47.410Z</time>
      </trkpt>
      <trkpt lat="46.85481" lon="8.4887">
        <ele>2494</ele>
        <time>2021-08-12T09:48:48.410Z</time>
      </trkpt>
      <trkpt lat="46.85481" lon="8.48871">
        <ele>2493</ele>
        <time>2021-08-12T09:48:49.410Z</time>
      </trkpt>
      <trkpt lat="46.8548" lon="8.48872">
        <ele>2493</ele>
        <time>2021-08-12T09:48:50.411Z</time>
      </trkpt>
      <trkpt lat="46.8548" lon="8.48873">
        <ele>2492</ele>
        <time>2021-08-12T09:48:51.411Z</time>
      </trkpt>
      <trkpt lat="46.8548" lon="8.48875">
        <ele>2493</ele>
        <time>2021-08-12T09:48:52.410Z</time>
      </trkpt>
      <trkpt lat="46.8548" lon="8.48877">
        <ele>2493</ele>
        <time>2021-08-12T09:48:53.411Z</time>
      </trkpt>
      <trkpt lat="46.85479" lon="8.48878">
        <ele>2493</ele>
        <time>2021-08-12T09:48:54.411Z</time>
      </trkpt>
      <trkpt lat="46.85478" lon="8.48878">
        <ele>2493</ele>
        <time>2021-08-12T09:48:55.411Z</time>
      </trkpt>
      <trkpt lat="46.85478" lon="8.48879">
        <ele>2493</ele>
        <time>2021-08-12T09:48:56.411Z</time>
      </trkpt>
      <trkpt lat="46.85477" lon="8.4888">
        <ele>2493</ele>
        <time>2021-08-12T09:48:57.411Z</time>
      </trkpt>
      <trkpt lat="46.85476" lon="8.48882">
        <ele>2493</ele>
        <time>2021-08-12T09:48:58.410Z</time>
      </trkpt>
      <trkpt lat="46.85476" lon="8.48883">
        <ele>2493</ele>
        <time>2021-08-12T09:48:59.411Z</time>
      </trkpt>
      <trkpt lat="46.85476" lon="8.48884">
        <ele>2493</ele>
        <time>2021-08-12T09:49:00.411Z</time>
      </trkpt>
      <trkpt lat="46.85475" lon="8.48883">
        <ele>2492</ele>
        <time>2021-08-12T09:49:01.411Z</time>
      </trkpt>
      <trkpt lat="46.85475" lon="8.48884">
        <ele>2492</ele>
        <time>2021-08-12T09:49:02.411Z</time>
      </trkpt>
      <trkpt lat="46.85475" lon="8.48885">
        <ele>2492</ele>
        <time>2021-08-12T09:49:03.411Z</time>
      </trkpt>
      <trkpt lat="46.85475" lon="8.48886">
        <ele>2492</ele>
        <time>2021-08-12T09:49:04.411Z</time>
      </trkpt>
      <trkpt lat="46.85475" lon="8.48887">
        <ele>2492</ele>
        <time>2021-08-12T09:49:05.411Z</time>
      </trkpt>
      <trkpt lat="46.85477" lon="8.48888">
        <ele>2491</ele>
        <time>2021-08-12T09:49:06.411Z</time>
      </trkpt>
      <trkpt lat="46.85476" lon="8.48889">
        <ele>2491</ele>
        <time>2021-08-12T09:49:07.411Z</time>
      </trkpt>
      <trkpt lat="46.85475" lon="8.48889">
        <ele>2491</ele>
        <time>2021-08-12T09:49:08.411Z</time>
      </trkpt>
      <trkpt lat="46.85475" lon="8.48889">
        <ele>2491</ele>
        <time>2021-08-12T09:49:09.410Z</time>
      </trkpt>
      <trkpt lat="46.85473" lon="8.48888">
        <ele>2490</ele>
        <time>2021-08-12T09:49:10.411Z</time>
      </trkpt>
      <trkpt lat="46.85472" lon="8.48889">
        <ele>2489</ele>
        <time>2021-08-12T09:49:11.411Z</time>
      </trkpt>
      <trkpt lat="46.85471" lon="8.48889">
        <ele>2489</ele>
        <time>2021-08-12T09:49:12.410Z</time>
      </trkpt>
      <trkpt lat="46.85471" lon="8.48889">
        <ele>2488</ele>
        <time>2021-08-12T09:49:13.411Z</time>
      </trkpt>
      <trkpt lat="46.8547" lon="8.48889">
        <ele>2488</ele>
        <time>2021-08-12T09:49:14.411Z</time>
      </trkpt>
      <trkpt lat="46.85469" lon="8.4889">
        <ele>2488</ele>
        <time>2021-08-12T09:49:15.411Z</time>
      </trkpt>
      <trkpt lat="46.85468" lon="8.48891">
        <ele>2488</ele>
        <time>2021-08-12T09:49:16.411Z</time>
      </trkpt>
      <trkpt lat="46.85468" lon="8.48891">
        <ele>2487</ele>
        <time>2021-08-12T09:49:17.411Z</time>
      </trkpt>
      <trkpt lat="46.85467" lon="8.48892">
        <ele>2487</ele>
        <time>2021-08-12T09:49:18.410Z</time>
      </trkpt>
      <trkpt lat="46.85467" lon="8.48892">
        <ele>2486</ele>
        <time>2021-08-12T09:49:19.410Z</time>
      </trkpt>
      <trkpt lat="46.85466" lon="8.48893">
        <ele>2486</ele>
        <time>2021-08-12T09:49:20.411Z</time>
      </trkpt>
      <trkpt lat="46.85466" lon="8.48894">
        <ele>2486</ele>
        <time>2021-08-12T09:49:21.411Z</time>
      </trkpt>
      <trkpt lat="46.85465" lon="8.48894">
        <ele>2485</ele>
        <time>2021-08-12T09:49:22.411Z</time>
      </trkpt>
      <trkpt lat="46.85465" lon="8.48894">
        <ele>2485</ele>
        <time>2021-08-12T09:49:23.411Z</time>
      </trkpt>
      <trkpt lat="46.85464" lon="8.48894">
        <ele>2484</ele>
        <time>2021-08-12T09:49:24.411Z</time>
      </trkpt>
      <trkpt lat="46.85464" lon="8.48894">
        <ele>2483</ele>
        <time>2021-08-12T09:49:25.410Z</time>
      </trkpt>
      <trkpt lat="46.85464" lon="8.48895">
        <ele>2483</ele>
        <time>2021-08-12T09:49:26.411Z</time>
      </trkpt>
      <trkpt lat="46.85465" lon="8.48895">
        <ele>2482</ele>
        <time>2021-08-12T09:49:27.411Z</time>
      </trkpt>
      <trkpt lat="46.85466" lon="8.48896">
        <ele>2481</ele>
        <time>2021-08-12T09:49:28.412Z</time>
      </trkpt>
      <trkpt lat="46.85467" lon="8.48897">
        <ele>2481</ele>
        <time>2021-08-12T09:49:29.411Z</time>
      </trkpt>
      <trkpt lat="46.85467" lon="8.48897">
        <ele>2481</ele>
        <time>2021-08-12T09:49:30.412Z</time>
      </trkpt>
      <trkpt lat="46.85469" lon="8.48897">
        <ele>2482</ele>
        <time>2021-08-12T09:49:31.411Z</time>
      </trkpt>
      <trkpt lat="46.8547" lon="8.48897">
        <ele>2484</ele>
        <time>2021-08-12T09:49:32.412Z</time>
      </trkpt>
      <trkpt lat="46.85471" lon="8.48897">
        <ele>2485</ele>
        <time>2021-08-12T09:49:33.411Z</time>
      </trkpt>
      <trkpt lat="46.85477" lon="8.489">
        <ele>2494</ele>
        <time>2021-08-12T09:49:34.412Z</time>
      </trkpt>
      <trkpt lat="46.85477" lon="8.489">
        <ele>2494</ele>
        <time>2021-08-12T09:49:35.411Z</time>
      </trkpt>
      <trkpt lat="46.85477" lon="8.48901">
        <ele>2495</ele>
        <time>2021-08-12T09:49:36.411Z</time>
      </trkpt>
      <trkpt lat="46.85477" lon="8.48903">
        <ele>2495</ele>
        <time>2021-08-12T09:49:37.412Z</time>
      </trkpt>
      <trkpt lat="46.85477" lon="8.48904">
        <ele>2495</ele>
        <time>2021-08-12T09:49:38.412Z</time>
      </trkpt>
      <trkpt lat="46.85477" lon="8.48905">
        <ele>2496</ele>
        <time>2021-08-12T09:49:39.411Z</time>
      </trkpt>
      <trkpt lat="46.85477" lon="8.48905">
        <ele>2496</ele>
        <time>2021-08-12T09:49:40.411Z</time>
      </trkpt>
      <trkpt lat="46.85477" lon="8.48904">
        <ele>2497</ele>
        <time>2021-08-12T09:49:41.412Z</time>
      </trkpt>
      <trkpt lat="46.85477" lon="8.48904">
        <ele>2497</ele>
        <time>2021-08-12T09:49:42.412Z</time>
      </trkpt>
      <trkpt lat="46.85477" lon="8.48904">
        <ele>2497</ele>
        <time>2021-08-12T09:49:43.411Z</time>
      </trkpt>
      <trkpt lat="46.85477" lon="8.48904">
        <ele>2496</ele>
        <time>2021-08-12T09:49:44.412Z</time>
      </trkpt>
      <trkpt lat="46.85478" lon="8.48905">
        <ele>2496</ele>
        <time>2021-08-12T09:49:45.412Z</time>
      </trkpt>
      <trkpt lat="46.85479" lon="8.48906">
        <ele>2495</ele>
        <time>2021-08-12T09:49:46.412Z</time>
      </trkpt>
      <trkpt lat="46.85475" lon="8.48904">
        <ele>2496</ele>
        <time>2021-08-12T09:49:47.411Z</time>
      </trkpt>
      <trkpt lat="46.85473" lon="8.48901">
        <ele>2496</ele>
        <time>2021-08-12T09:49:48.411Z</time>
      </trkpt>
      <trkpt lat="46.85473" lon="8.48902">
        <ele>2496</ele>
        <time>2021-08-12T09:49:49.411Z</time>
      </trkpt>
      <trkpt lat="46.85475" lon="8.48903">
        <ele>2497</ele>
        <time>2021-08-12T09:49:50.411Z</time>
      </trkpt>
      <trkpt lat="46.85475" lon="8.48903">
        <ele>2498</ele>
        <time>2021-08-12T09:49:51.411Z</time>
      </trkpt>
      <trkpt lat="46.85476" lon="8.48904">
        <ele>2499</ele>
        <time>2021-08-12T09:49:52.412Z</time>
      </trkpt>
      <trkpt lat="46.85476" lon="8.48905">
        <ele>2499</ele>
        <time>2021-08-12T09:49:53.412Z</time>
      </trkpt>
      <trkpt lat="46.85478" lon="8.48908">
        <ele>2499</ele>
        <time>2021-08-12T09:49:54.413Z</time>
      </trkpt>
      <trkpt lat="46.85477" lon="8.48907">
        <ele>2499</ele>
        <time>2021-08-12T09:49:55.413Z</time>
      </trkpt>
      <trkpt lat="46.85476" lon="8.48907">
        <ele>2499</ele>
        <time>2021-08-12T09:49:56.412Z</time>
      </trkpt>
      <trkpt lat="46.85476" lon="8.48906">
        <ele>2499</ele>
        <time>2021-08-12T09:49:57.413Z</time>
      </trkpt>
      <trkpt lat="46.85474" lon="8.48906">
        <ele>2499</ele>
        <time>2021-08-12T09:49:58.412Z</time>
      </trkpt>
      <trkpt lat="46.85474" lon="8.48906">
        <ele>2498</ele>
        <time>2021-08-12T09:49:59.413Z</time>
      </trkpt>
      <trkpt lat="46.85474" lon="8.48906">
        <ele>2498</ele>
        <time>2021-08-12T09:50:00.412Z</time>
      </trkpt>
      <trkpt lat="46.85473" lon="8.48907">
        <ele>2497</ele>
        <time>2021-08-12T09:50:01.413Z</time>
      </trkpt>
      <trkpt lat="46.85473" lon="8.48907">
        <ele>2497</ele>
        <time>2021-08-12T09:50:02.413Z</time>
      </trkpt>
      <trkpt lat="46.85473" lon="8.48907">
        <ele>2497</ele>
        <time>2021-08-12T09:50:03.413Z</time>
      </trkpt>
      <trkpt lat="46.85473" lon="8.48907">
        <ele>2497</ele>
        <time>2021-08-12T09:50:04.413Z</time>
      </trkpt>
      <trkpt lat="46.85472" lon="8.48908">
        <ele>2496</ele>
        <time>2021-08-12T09:50:05.412Z</time>
      </trkpt>
      <trkpt lat="46.85471" lon="8.48908">
        <ele>2496</ele>
        <time>2021-08-12T09:50:06.413Z</time>
      </trkpt>
      <trkpt lat="46.85471" lon="8.48907">
        <ele>2495</ele>
        <time>2021-08-12T09:50:07.413Z</time>
      </trkpt>
      <trkpt lat="46.8547" lon="8.48907">
        <ele>2495</ele>
        <time>2021-08-12T09:50:08.412Z</time>
      </trkpt>
      <trkpt lat="46.8547" lon="8.48908">
        <ele>2495</ele>
        <time>2021-08-12T09:50:09.413Z</time>
      </trkpt>
      <trkpt lat="46.85469" lon="8.48908">
        <ele>2495</ele>
        <time>2021-08-12T09:50:10.412Z</time>
      </trkpt>
      <trkpt lat="46.85469" lon="8.48908">
        <ele>2495</ele>
        <time>2021-08-12T09:50:11.412Z</time>
      </trkpt>
      <trkpt lat="46.8547" lon="8.48908">
        <ele>2495</ele>
        <time>2021-08-12T09:50:12.413Z</time>
      </trkpt>
      <trkpt lat="46.8547" lon="8.48908">
        <ele>2495</ele>
        <time>2021-08-12T09:50:13.413Z</time>
      </trkpt>
      <trkpt lat="46.85469" lon="8.48906">
        <ele>2495</ele>
        <time>2021-08-12T09:50:14.413Z</time>
      </trkpt>
      <trkpt lat="46.8547" lon="8.48901">
        <ele>2495</ele>
        <time>2021-08-12T09:50:15.415Z</time>
      </trkpt>
      <trkpt lat="46.8547" lon="8.489">
        <ele>2495</ele>
        <time>2021-08-12T09:50:16.415Z</time>
      </trkpt>
      <trkpt lat="46.8547" lon="8.489">
        <ele>2495</ele>
        <time>2021-08-12T09:50:17.415Z</time>
      </trkpt>
      <trkpt lat="46.85471" lon="8.48899">
        <ele>2495</ele>
        <time>2021-08-12T09:50:18.415Z</time>
      </trkpt>
      <trkpt lat="46.85471" lon="8.48898">
        <ele>2495</ele>
        <time>2021-08-12T09:50:19.415Z</time>
      </trkpt>
      <trkpt lat="46.85471" lon="8.48897">
        <ele>2494</ele>
        <time>2021-08-12T09:50:20.415Z</time>
      </trkpt>
      <trkpt lat="46.85471" lon="8.48896">
        <ele>2495</ele>
        <time>2021-08-12T09:50:21.415Z</time>
      </trkpt>
      <trkpt lat="46.85471" lon="8.48895">
        <ele>2495</ele>
        <time>2021-08-12T09:50:22.415Z</time>
      </trkpt>
      <trkpt lat="46.85471" lon="8.48894">
        <ele>2495</ele>
        <time>2021-08-12T09:50:23.415Z</time>
      </trkpt>
      <trkpt lat="46.85471" lon="8.48893">
        <ele>2495</ele>
        <time>2021-08-12T09:50:24.415Z</time>
      </trkpt>
      <trkpt lat="46.85471" lon="8.48892">
        <ele>2496</ele>
        <time>2021-08-12T09:50:25.415Z</time>
      </trkpt>
      <trkpt lat="46.85471" lon="8.48891">
        <ele>2496</ele>
        <time>2021-08-12T09:50:26.415Z</time>
      </trkpt>
      <trkpt lat="46.85471" lon="8.48891">
        <ele>2496</ele>
        <time>2021-08-12T09:50:27.415Z</time>
      </trkpt>
      <trkpt lat="46.85471" lon="8.48891">
        <ele>2497</ele>
        <time>2021-08-12T09:50:28.415Z</time>
      </trkpt>
      <trkpt lat="46.85474" lon="8.48892">
        <ele>2498</ele>
        <time>2021-08-12T09:50:29.415Z</time>
      </trkpt>
      <trkpt lat="46.85474" lon="8.48893">
        <ele>2498</ele>
        <time>2021-08-12T09:50:30.416Z</time>
      </trkpt>
      <trkpt lat="46.85473" lon="8.48893">
        <ele>2498</ele>
        <time>2021-08-12T09:50:31.415Z</time>
      </trkpt>
      <trkpt lat="46.85473" lon="8.48892">
        <ele>2498</ele>
        <time>2021-08-12T09:50:32.415Z</time>
      </trkpt>
      <trkpt lat="46.85472" lon="8.48892">
        <ele>2498</ele>
        <time>2021-08-12T09:50:33.416Z</time>
      </trkpt>
      <trkpt lat="46.85472" lon="8.48892">
        <ele>2498</ele>
        <time>2021-08-12T09:50:34.416Z</time>
      </trkpt>
      <trkpt lat="46.85471" lon="8.48891">
        <ele>2498</ele>
        <time>2021-08-12T09:50:35.415Z</time>
      </trkpt>
      <trkpt lat="46.8547" lon="8.4889">
        <ele>2498</ele>
        <time>2021-08-12T09:50:36.416Z</time>
      </trkpt>
      <trkpt lat="46.8547" lon="8.48891">
        <ele>2497</ele>
        <time>2021-08-12T09:50:37.415Z</time>
      </trkpt>
      <trkpt lat="46.8547" lon="8.4889">
        <ele>2497</ele>
        <time>2021-08-12T09:50:38.415Z</time>
      </trkpt>
      <trkpt lat="46.8547" lon="8.4889">
        <ele>2497</ele>
        <time>2021-08-12T09:50:39.415Z</time>
      </trkpt>
      <trkpt lat="46.8547" lon="8.48889">
        <ele>2496</ele>
        <time>2021-08-12T09:50:40.415Z</time>
      </trkpt>
      <trkpt lat="46.8547" lon="8.48888">
        <ele>2496</ele>
        <time>2021-08-12T09:50:41.415Z</time>
      </trkpt>
      <trkpt lat="46.8547" lon="8.48887">
        <ele>2495</ele>
        <time>2021-08-12T09:50:42.416Z</time>
      </trkpt>
      <trkpt lat="46.8547" lon="8.48886">
        <ele>2495</ele>
        <time>2021-08-12T09:50:43.415Z</time>
      </trkpt>
      <trkpt lat="46.85469" lon="8.48884">
        <ele>2494</ele>
        <time>2021-08-12T09:50:44.415Z</time>
      </trkpt>
      <trkpt lat="46.85469" lon="8.48884">
        <ele>2494</ele>
        <time>2021-08-12T09:50:45.415Z</time>
      </trkpt>
      <trkpt lat="46.85469" lon="8.48883">
        <ele>2493</ele>
        <time>2021-08-12T09:50:46.416Z</time>
      </trkpt>
      <trkpt lat="46.85468" lon="8.48882">
        <ele>2493</ele>
        <time>2021-08-12T09:50:47.415Z</time>
      </trkpt>
      <trkpt lat="46.85467" lon="8.48881">
        <ele>2492</ele>
        <time>2021-08-12T09:50:48.415Z</time>
      </trkpt>
      <trkpt lat="46.85466" lon="8.48881">
        <ele>2492</ele>
        <time>2021-08-12T09:50:49.415Z</time>
      </trkpt>
      <trkpt lat="46.85465" lon="8.48881">
        <ele>2491</ele>
        <time>2021-08-12T09:50:50.416Z</time>
      </trkpt>
      <trkpt lat="46.85464" lon="8.4888">
        <ele>2491</ele>
        <time>2021-08-12T09:50:51.415Z</time>
      </trkpt>
      <trkpt lat="46.85463" lon="8.48879">
        <ele>2491</ele>
        <time>2021-08-12T09:50:52.415Z</time>
      </trkpt>
      <trkpt lat="46.85463" lon="8.48879">
        <ele>2490</ele>
        <time>2021-08-12T09:50:53.416Z</time>
      </trkpt>
      <trkpt lat="46.85463" lon="8.4888">
        <ele>2490</ele>
        <time>2021-08-12T09:50:54.415Z</time>
      </trkpt>
      <trkpt lat="46.85463" lon="8.48881">
        <ele>2490</ele>
        <time>2021-08-12T09:50:55.415Z</time>
      </trkpt>
      <trkpt lat="46.85463" lon="8.48881">
        <ele>2490</ele>
        <time>2021-08-12T09:50:56.415Z</time>
      </trkpt>
      <trkpt lat="46.85463" lon="8.48882">
        <ele>2490</ele>
        <time>2021-08-12T09:50:57.415Z</time>
      </trkpt>
      <trkpt lat="46.85462" lon="8.48881">
        <ele>2490</ele>
        <time>2021-08-12T09:50:58.415Z</time>
      </trkpt>
      <trkpt lat="46.85461" lon="8.4888">
        <ele>2490</ele>
        <time>2021-08-12T09:50:59.415Z</time>
      </trkpt>
      <trkpt lat="46.85461" lon="8.48879">
        <ele>2490</ele>
        <time>2021-08-12T09:51:00.416Z</time>
      </trkpt>
      <trkpt lat="46.8546" lon="8.48879">
        <ele>2490</ele>
        <time>2021-08-12T09:51:01.415Z</time>
      </trkpt>
      <trkpt lat="46.8546" lon="8.48879">
        <ele>2489</ele>
        <time>2021-08-12T09:51:02.416Z</time>
      </trkpt>
      <trkpt lat="46.85459" lon="8.48879">
        <ele>2489</ele>
        <time>2021-08-12T09:51:03.416Z</time>
      </trkpt>
      <trkpt lat="46.85459" lon="8.48879">
        <ele>2489</ele>
        <time>2021-08-12T09:51:04.415Z</time>
      </trkpt>
      <trkpt lat="46.85459" lon="8.48879">
        <ele>2489</ele>
        <time>2021-08-12T09:51:05.415Z</time>
      </trkpt>
      <trkpt lat="46.85457" lon="8.48884">
        <ele>2488</ele>
        <time>2021-08-12T09:51:06.416Z</time>
      </trkpt>
      <trkpt lat="46.85457" lon="8.48885">
        <ele>2488</ele>
        <time>2021-08-12T09:51:07.416Z</time>
      </trkpt>
      <trkpt lat="46.85458" lon="8.48885">
        <ele>2488</ele>
        <time>2021-08-12T09:51:08.417Z</time>
      </trkpt>
      <trkpt lat="46.85458" lon="8.48885">
        <ele>2488</ele>
        <time>2021-08-12T09:51:09.417Z</time>
      </trkpt>
      <trkpt lat="46.85458" lon="8.48885">
        <ele>2488</ele>
        <time>2021-08-12T09:51:10.416Z</time>
      </trkpt>
      <trkpt lat="46.85458" lon="8.48891">
        <ele>2504</ele>
        <time>2021-08-12T09:51:11.416Z</time>
      </trkpt>
      <trkpt lat="46.85459" lon="8.48892">
        <ele>2504</ele>
        <time>2021-08-12T09:51:12.417Z</time>
      </trkpt>
      <trkpt lat="46.85459" lon="8.48892">
        <ele>2504</ele>
        <time>2021-08-12T09:51:13.416Z</time>
      </trkpt>
      <trkpt lat="46.85458" lon="8.48893">
        <ele>2503</ele>
        <time>2021-08-12T09:51:14.417Z</time>
      </trkpt>
      <trkpt lat="46.85458" lon="8.48893">
        <ele>2503</ele>
        <time>2021-08-12T09:51:15.416Z</time>
      </trkpt>
      <trkpt lat="46.85458" lon="8.48894">
        <ele>2503</ele>
        <time>2021-08-12T09:51:16.416Z</time>
      </trkpt>
      <trkpt lat="46.85457" lon="8.48894">
        <ele>2503</ele>
        <time>2021-08-12T09:51:17.417Z</time>
      </trkpt>
      <trkpt lat="46.85457" lon="8.48895">
        <ele>2503</ele>
        <time>2021-08-12T09:51:18.417Z</time>
      </trkpt>
      <trkpt lat="46.85458" lon="8.48895">
        <ele>2504</ele>
        <time>2021-08-12T09:51:19.416Z</time>
      </trkpt>
      <trkpt lat="46.85458" lon="8.48896">
        <ele>2504</ele>
        <time>2021-08-12T09:51:20.416Z</time>
      </trkpt>
      <trkpt lat="46.85458" lon="8.48896">
        <ele>2504</ele>
        <time>2021-08-12T09:51:21.417Z</time>
      </trkpt>
      <trkpt lat="46.85459" lon="8.48894">
        <ele>2504</ele>
        <time>2021-08-12T09:51:22.417Z</time>
      </trkpt>
      <trkpt lat="46.85459" lon="8.48893">
        <ele>2504</ele>
        <time>2021-08-12T09:51:23.417Z</time>
      </trkpt>
      <trkpt lat="46.8546" lon="8.48892">
        <ele>2504</ele>
        <time>2021-08-12T09:51:24.417Z</time>
      </trkpt>
      <trkpt lat="46.8546" lon="8.48891">
        <ele>2504</ele>
        <time>2021-08-12T09:51:25.418Z</time>
      </trkpt>
      <trkpt lat="46.85459" lon="8.48891">
        <ele>2504</ele>
        <time>2021-08-12T09:51:26.417Z</time>
      </trkpt>
      <trkpt lat="46.85459" lon="8.4889">
        <ele>2504</ele>
        <time>2021-08-12T09:51:27.417Z</time>
      </trkpt>
      <trkpt lat="46.85461" lon="8.48888">
        <ele>2510</ele>
        <time>2021-08-12T09:51:28.417Z</time>
      </trkpt>
      <trkpt lat="46.85462" lon="8.48888">
        <ele>2511</ele>
        <time>2021-08-12T09:51:29.417Z</time>
      </trkpt>
      <trkpt lat="46.85464" lon="8.48889">
        <ele>2511</ele>
        <time>2021-08-12T09:51:30.417Z</time>
      </trkpt>
      <trkpt lat="46.85464" lon="8.48889">
        <ele>2512</ele>
        <time>2021-08-12T09:51:31.417Z</time>
      </trkpt>
      <trkpt lat="46.85465" lon="8.48889">
        <ele>2515</ele>
        <time>2021-08-12T09:51:32.419Z</time>
      </trkpt>
      <trkpt lat="46.85465" lon="8.48889">
        <ele>2515</ele>
        <time>2021-08-12T09:51:33.419Z</time>
      </trkpt>
      <trkpt lat="46.85463" lon="8.48888">
        <ele>2514</ele>
        <time>2021-08-12T09:51:34.419Z</time>
      </trkpt>
      <trkpt lat="46.85463" lon="8.48888">
        <ele>2514</ele>
        <time>2021-08-12T09:51:35.420Z</time>
      </trkpt>
      <trkpt lat="46.85463" lon="8.48888">
        <ele>2513</ele>
        <time>2021-08-12T09:51:36.419Z</time>
      </trkpt>
      <trkpt lat="46.85463" lon="8.48887">
        <ele>2513</ele>
        <time>2021-08-12T09:51:37.420Z</time>
      </trkpt>
      <trkpt lat="46.85453" lon="8.4888">
        <ele>2500</ele>
        <time>2021-08-12T09:51:38.421Z</time>
      </trkpt>
      <trkpt lat="46.85454" lon="8.4888">
        <ele>2500</ele>
        <time>2021-08-12T09:51:39.421Z</time>
      </trkpt>
      <trkpt lat="46.85455" lon="8.48881">
        <ele>2500</ele>
        <time>2021-08-12T09:51:40.420Z</time>
      </trkpt>
      <trkpt lat="46.85454" lon="8.48881">
        <ele>2492</ele>
        <time>2021-08-12T09:51:41.421Z</time>
      </trkpt>
      <trkpt lat="46.85459" lon="8.48884">
        <ele>2498</ele>
        <time>2021-08-12T09:51:42.423Z</time>
      </trkpt>
      <trkpt lat="46.8546" lon="8.48884">
        <ele>2499</ele>
        <time>2021-08-12T09:51:43.423Z</time>
      </trkpt>
      <trkpt lat="46.85461" lon="8.48884">
        <ele>2499</ele>
        <time>2021-08-12T09:51:44.422Z</time>
      </trkpt>
      <trkpt lat="46.85461" lon="8.48884">
        <ele>2500</ele>
        <time>2021-08-12T09:51:45.423Z</time>
      </trkpt>
      <trkpt lat="46.85459" lon="8.48884">
        <ele>2504</ele>
        <time>2021-08-12T09:51:46.422Z</time>
      </trkpt>
      <trkpt lat="46.8546" lon="8.4888">
        <ele>2502</ele>
        <time>2021-08-12T09:51:47.423Z</time>
      </trkpt>
      <trkpt lat="46.8546" lon="8.4888">
        <ele>2502</ele>
        <time>2021-08-12T09:51:48.423Z</time>
      </trkpt>
      <trkpt lat="46.8546" lon="8.48879">
        <ele>2502</ele>
        <time>2021-08-12T09:51:49.422Z</time>
      </trkpt>
      <trkpt lat="46.85458" lon="8.4888">
        <ele>2503</ele>
        <time>2021-08-12T09:51:50.423Z</time>
      </trkpt>
      <trkpt lat="46.85458" lon="8.48879">
        <ele>2503</ele>
        <time>2021-08-12T09:51:51.423Z</time>
      </trkpt>
      <trkpt lat="46.85457" lon="8.48878">
        <ele>2502</ele>
        <time>2021-08-12T09:51:52.424Z</time>
      </trkpt>
      <trkpt lat="46.85455" lon="8.48878">
        <ele>2501</ele>
        <time>2021-08-12T09:51:53.423Z</time>
      </trkpt>
      <trkpt lat="46.85455" lon="8.48878">
        <ele>2501</ele>
        <time>2021-08-12T09:51:54.424Z</time>
      </trkpt>
      <trkpt lat="46.85453" lon="8.48879">
        <ele>2494</ele>
        <time>2021-08-12T09:51:55.425Z</time>
      </trkpt>
      <trkpt lat="46.85453" lon="8.48878">
        <ele>2494</ele>
        <time>2021-08-12T09:51:56.424Z</time>
      </trkpt>
      <trkpt lat="46.85453" lon="8.48878">
        <ele>2494</ele>
        <time>2021-08-12T09:51:57.424Z</time>
      </trkpt>
      <trkpt lat="46.85454" lon="8.48877">
        <ele>2497</ele>
        <time>2021-08-12T09:51:58.424Z</time>
      </trkpt>
      <trkpt lat="46.85455" lon="8.48878">
        <ele>2498</ele>
        <time>2021-08-12T09:51:59.424Z</time>
      </trkpt>
      <trkpt lat="46.85455" lon="8.48878">
        <ele>2498</ele>
        <time>2021-08-12T09:52:00.424Z</time>
      </trkpt>
      <trkpt lat="46.85455" lon="8.48878">
        <ele>2500</ele>
        <time>2021-08-12T09:52:01.426Z</time>
      </trkpt>
      <trkpt lat="46.85455" lon="8.48878">
        <ele>2501</ele>
        <time>2021-08-12T09:52:02.427Z</time>
      </trkpt>
      <trkpt lat="46.85455" lon="8.48879">
        <ele>2501</ele>
        <time>2021-08-12T09:52:03.427Z</time>
      </trkpt>
      <trkpt lat="46.85455" lon="8.48879">
        <ele>2501</ele>
        <time>2021-08-12T09:52:04.426Z</time>
      </trkpt>
      <trkpt lat="46.85452" lon="8.4888">
        <ele>2501</ele>
        <time>2021-08-12T09:52:05.427Z</time>
      </trkpt>
      <trkpt lat="46.85451" lon="8.4888">
        <ele>2501</ele>
        <time>2021-08-12T09:52:06.428Z</time>
      </trkpt>
      <trkpt lat="46.8545" lon="8.4888">
        <ele>2501</ele>
        <time>2021-08-12T09:52:07.427Z</time>
      </trkpt>
      <trkpt lat="46.85449" lon="8.4888">
        <ele>2501</ele>
        <time>2021-08-12T09:52:08.428Z</time>
      </trkpt>
      <trkpt lat="46.85448" lon="8.4888">
        <ele>2501</ele>
        <time>2021-08-12T09:52:09.428Z</time>
      </trkpt>
      <trkpt lat="46.85448" lon="8.4888">
        <ele>2501</ele>
        <time>2021-08-12T09:52:10.428Z</time>
      </trkpt>
      <trkpt lat="46.85448" lon="8.4888">
        <ele>2501</ele>
        <time>2021-08-12T09:52:11.427Z</time>
      </trkpt>
      <trkpt lat="46.85448" lon="8.4888">
        <ele>2501</ele>
        <time>2021-08-12T09:52:12.428Z</time>
      </trkpt>
      <trkpt lat="46.85447" lon="8.4888">
        <ele>2501</ele>
        <time>2021-08-12T09:52:13.427Z</time>
      </trkpt>
      <trkpt lat="46.85446" lon="8.4888">
        <ele>2501</ele>
        <time>2021-08-12T09:52:14.428Z</time>
      </trkpt>
      <trkpt lat="46.85445" lon="8.4888">
        <ele>2501</ele>
        <time>2021-08-12T09:52:15.427Z</time>
      </trkpt>
      <trkpt lat="46.85444" lon="8.4888">
        <ele>2501</ele>
        <time>2021-08-12T09:52:16.428Z</time>
      </trkpt>
      <trkpt lat="46.85444" lon="8.4888">
        <ele>2502</ele>
        <time>2021-08-12T09:52:17.427Z</time>
      </trkpt>
      <trkpt lat="46.85444" lon="8.48881">
        <ele>2502</ele>
        <time>2021-08-12T09:52:18.428Z</time>
      </trkpt>
      <trkpt lat="46.85443" lon="8.48884">
        <ele>2503</ele>
        <time>2021-08-12T09:52:19.428Z</time>
      </trkpt>
      <trkpt lat="46.85443" lon="8.48885">
        <ele>2503</ele>
        <time>2021-08-12T09:52:20.429Z</time>
      </trkpt>
      <trkpt lat="46.85442" lon="8.48886">
        <ele>2503</ele>
        <time>2021-08-12T09:52:21.428Z</time>
      </trkpt>
      <trkpt lat="46.85442" lon="8.48887">
        <ele>2503</ele>
        <time>2021-08-12T09:52:22.428Z</time>
      </trkpt>
      <trkpt lat="46.85442" lon="8.48887">
        <ele>2503</ele>
        <time>2021-08-12T09:52:23.428Z</time>
      </trkpt>
      <trkpt lat="46.85442" lon="8.48888">
        <ele>2504</ele>
        <time>2021-08-12T09:52:24.429Z</time>
      </trkpt>
      <trkpt lat="46.85441" lon="8.48888">
        <ele>2504</ele>
        <time>2021-08-12T09:52:25.428Z</time>
      </trkpt>
      <trkpt lat="46.85441" lon="8.48889">
        <ele>2503</ele>
        <time>2021-08-12T09:52:26.429Z</time>
      </trkpt>
      <trkpt lat="46.85441" lon="8.48889">
        <ele>2503</ele>
        <time>2021-08-12T09:52:27.429Z</time>
      </trkpt>
      <trkpt lat="46.85441" lon="8.48889">
        <ele>2503</ele>
        <time>2021-08-12T09:52:28.428Z</time>
      </trkpt>
      <trkpt lat="46.8544" lon="8.48887">
        <ele>2503</ele>
        <time>2021-08-12T09:52:29.429Z</time>
      </trkpt>
      <trkpt lat="46.85441" lon="8.48888">
        <ele>2503</ele>
        <time>2021-08-12T09:52:30.430Z</time>
      </trkpt>
      <trkpt lat="46.8544" lon="8.48887">
        <ele>2503</ele>
        <time>2021-08-12T09:52:31.429Z</time>
      </trkpt>
      <trkpt lat="46.85441" lon="8.48887">
        <ele>2503</ele>
        <time>2021-08-12T09:52:32.429Z</time>
      </trkpt>
      <trkpt lat="46.8544" lon="8.48886">
        <ele>2503</ele>
        <time>2021-08-12T09:52:33.430Z</time>
      </trkpt>
      <trkpt lat="46.8544" lon="8.48886">
        <ele>2503</ele>
        <time>2021-08-12T09:52:34.430Z</time>
      </trkpt>
      <trkpt lat="46.8544" lon="8.48886">
        <ele>2503</ele>
        <time>2021-08-12T09:52:35.429Z</time>
      </trkpt>
      <trkpt lat="46.85439" lon="8.48887">
        <ele>2503</ele>
        <time>2021-08-12T09:52:36.429Z</time>
      </trkpt>
      <trkpt lat="46.85438" lon="8.48887">
        <ele>2503</ele>
        <time>2021-08-12T09:52:37.429Z</time>
      </trkpt>
      <trkpt lat="46.85438" lon="8.48887">
        <ele>2503</ele>
        <time>2021-08-12T09:52:38.430Z</time>
      </trkpt>
      <trkpt lat="46.85438" lon="8.48888">
        <ele>2504</ele>
        <time>2021-08-12T09:52:39.429Z</time>
      </trkpt>
      <trkpt lat="46.85438" lon="8.48889">
        <ele>2504</ele>
        <time>2021-08-12T09:52:40.430Z</time>
      </trkpt>
      <trkpt lat="46.85438" lon="8.4889">
        <ele>2505</ele>
        <time>2021-08-12T09:52:41.430Z</time>
      </trkpt>
      <trkpt lat="46.85437" lon="8.48891">
        <ele>2506</ele>
        <time>2021-08-12T09:52:42.429Z</time>
      </trkpt>
      <trkpt lat="46.85436" lon="8.48892">
        <ele>2506</ele>
        <time>2021-08-12T09:52:43.429Z</time>
      </trkpt>
      <trkpt lat="46.85436" lon="8.48892">
        <ele>2507</ele>
        <time>2021-08-12T09:52:44.429Z</time>
      </trkpt>
      <trkpt lat="46.85435" lon="8.48893">
        <ele>2507</ele>
        <time>2021-08-12T09:52:45.430Z</time>
      </trkpt>
      <trkpt lat="46.85435" lon="8.48893">
        <ele>2508</ele>
        <time>2021-08-12T09:52:46.429Z</time>
      </trkpt>
      <trkpt lat="46.85435" lon="8.48893">
        <ele>2508</ele>
        <time>2021-08-12T09:52:47.429Z</time>
      </trkpt>
      <trkpt lat="46.85435" lon="8.48894">
        <ele>2508</ele>
        <time>2021-08-12T09:52:48.430Z</time>
      </trkpt>
      <trkpt lat="46.85434" lon="8.48894">
        <ele>2508</ele>
        <time>2021-08-12T09:52:49.430Z</time>
      </trkpt>
      <trkpt lat="46.85434" lon="8.48895">
        <ele>2508</ele>
        <time>2021-08-12T09:52:50.429Z</time>
      </trkpt>
      <trkpt lat="46.85433" lon="8.48895">
        <ele>2509</ele>
        <time>2021-08-12T09:52:51.429Z</time>
      </trkpt>
      <trkpt lat="46.85432" lon="8.48895">
        <ele>2509</ele>
        <time>2021-08-12T09:52:52.430Z</time>
      </trkpt>
      <trkpt lat="46.85432" lon="8.48895">
        <ele>2509</ele>
        <time>2021-08-12T09:52:53.430Z</time>
      </trkpt>
      <trkpt lat="46.85431" lon="8.48894">
        <ele>2509</ele>
        <time>2021-08-12T09:52:54.430Z</time>
      </trkpt>
      <trkpt lat="46.85431" lon="8.48894">
        <ele>2508</ele>
        <time>2021-08-12T09:52:55.429Z</time>
      </trkpt>
      <trkpt lat="46.85431" lon="8.48893">
        <ele>2509</ele>
        <time>2021-08-12T09:52:56.430Z</time>
      </trkpt>
      <trkpt lat="46.8543" lon="8.48893">
        <ele>2509</ele>
        <time>2021-08-12T09:52:57.430Z</time>
      </trkpt>
      <trkpt lat="46.8543" lon="8.48893">
        <ele>2510</ele>
        <time>2021-08-12T09:52:58.429Z</time>
      </trkpt>
      <trkpt lat="46.85429" lon="8.48893">
        <ele>2510</ele>
        <time>2021-08-12T09:52:59.430Z</time>
      </trkpt>
      <trkpt lat="46.85429" lon="8.48893">
        <ele>2510</ele>
        <time>2021-08-12T09:53:00.429Z</time>
      </trkpt>
      <trkpt lat="46.85429" lon="8.48893">
        <ele>2510</ele>
        <time>2021-08-12T09:53:01.430Z</time>
      </trkpt>
      <trkpt lat="46.85428" lon="8.48894">
        <ele>2510</ele>
        <time>2021-08-12T09:53:02.429Z</time>
      </trkpt>
      <trkpt lat="46.85428" lon="8.48894">
        <ele>2510</ele>
        <time>2021-08-12T09:53:03.430Z</time>
      </trkpt>
      <trkpt lat="46.85428" lon="8.48895">
        <ele>2510</ele>
        <time>2021-08-12T09:53:04.430Z</time>
      </trkpt>
      <trkpt lat="46.85427" lon="8.48895">
        <ele>2510</ele>
        <time>2021-08-12T09:53:05.429Z</time>
      </trkpt>
      <trkpt lat="46.85427" lon="8.48895">
        <ele>2510</ele>
        <time>2021-08-12T09:53:06.430Z</time>
      </trkpt>
      <trkpt lat="46.85427" lon="8.48895">
        <ele>2510</ele>
        <time>2021-08-12T09:53:07.430Z</time>
      </trkpt>
      <trkpt lat="46.85426" lon="8.48895">
        <ele>2510</ele>
        <time>2021-08-12T09:53:08.430Z</time>
      </trkpt>
      <trkpt lat="46.85426" lon="8.48895">
        <ele>2510</ele>
        <time>2021-08-12T09:53:09.430Z</time>
      </trkpt>
      <trkpt lat="46.85426" lon="8.48895">
        <ele>2511</ele>
        <time>2021-08-12T09:53:10.429Z</time>
      </trkpt>
      <trkpt lat="46.85425" lon="8.48893">
        <ele>2513</ele>
        <time>2021-08-12T09:53:11.430Z</time>
      </trkpt>
      <trkpt lat="46.85424" lon="8.48893">
        <ele>2514</ele>
        <time>2021-08-12T09:53:12.431Z</time>
      </trkpt>
      <trkpt lat="46.85424" lon="8.48892">
        <ele>2514</ele>
        <time>2021-08-12T09:53:13.430Z</time>
      </trkpt>
      <trkpt lat="46.85423" lon="8.48892">
        <ele>2515</ele>
        <time>2021-08-12T09:53:14.431Z</time>
      </trkpt>
      <trkpt lat="46.85423" lon="8.48892">
        <ele>2515</ele>
        <time>2021-08-12T09:53:15.430Z</time>
      </trkpt>
      <trkpt lat="46.85422" lon="8.48892">
        <ele>2515</ele>
        <time>2021-08-12T09:53:16.430Z</time>
      </trkpt>
      <trkpt lat="46.85422" lon="8.48893">
        <ele>2515</ele>
        <time>2021-08-12T09:53:17.430Z</time>
      </trkpt>
      <trkpt lat="46.85423" lon="8.48893">
        <ele>2515</ele>
        <time>2021-08-12T09:53:18.430Z</time>
      </trkpt>
      <trkpt lat="46.85423" lon="8.48892">
        <ele>2515</ele>
        <time>2021-08-12T09:53:19.431Z</time>
      </trkpt>
      <trkpt lat="46.85423" lon="8.48892">
        <ele>2515</ele>
        <time>2021-08-12T09:53:20.431Z</time>
      </trkpt>
      <trkpt lat="46.85424" lon="8.48892">
        <ele>2515</ele>
        <time>2021-08-12T09:53:21.431Z</time>
      </trkpt>
      <trkpt lat="46.85424" lon="8.48892">
        <ele>2515</ele>
        <time>2021-08-12T09:53:22.430Z</time>
      </trkpt>
      <trkpt lat="46.85424" lon="8.48892">
        <ele>2515</ele>
        <time>2021-08-12T09:53:23.431Z</time>
      </trkpt>
      <trkpt lat="46.85423" lon="8.48895">
        <ele>2516</ele>
        <time>2021-08-12T09:53:24.431Z</time>
      </trkpt>
      <trkpt lat="46.85423" lon="8.48894">
        <ele>2516</ele>
        <time>2021-08-12T09:53:25.432Z</time>
      </trkpt>
      <trkpt lat="46.85425" lon="8.48894">
        <ele>2512</ele>
        <time>2021-08-12T09:53:26.431Z</time>
      </trkpt>
      <trkpt lat="46.85425" lon="8.48894">
        <ele>2512</ele>
        <time>2021-08-12T09:53:27.432Z</time>
      </trkpt>
      <trkpt lat="46.85425" lon="8.48894">
        <ele>2511</ele>
        <time>2021-08-12T09:53:28.432Z</time>
      </trkpt>
      <trkpt lat="46.85424" lon="8.48896">
        <ele>2515</ele>
        <time>2021-08-12T09:53:29.431Z</time>
      </trkpt>
      <trkpt lat="46.85423" lon="8.48895">
        <ele>2514</ele>
        <time>2021-08-12T09:53:30.432Z</time>
      </trkpt>
      <trkpt lat="46.85423" lon="8.48895">
        <ele>2514</ele>
        <time>2021-08-12T09:53:31.433Z</time>
      </trkpt>
      <trkpt lat="46.85424" lon="8.48894">
        <ele>2517</ele>
        <time>2021-08-12T09:53:32.433Z</time>
      </trkpt>
      <trkpt lat="46.85425" lon="8.48893">
        <ele>2519</ele>
        <time>2021-08-12T09:53:33.433Z</time>
      </trkpt>
      <trkpt lat="46.85424" lon="8.48892">
        <ele>2519</ele>
        <time>2021-08-12T09:53:34.433Z</time>
      </trkpt>
      <trkpt lat="46.85424" lon="8.48893">
        <ele>2519</ele>
        <time>2021-08-12T09:53:35.432Z</time>
      </trkpt>
      <trkpt lat="46.85425" lon="8.48892">
        <ele>2519</ele>
        <time>2021-08-12T09:53:36.433Z</time>
      </trkpt>
      <trkpt lat="46.85425" lon="8.48891">
        <ele>2520</ele>
        <time>2021-08-12T09:53:37.433Z</time>
      </trkpt>
      <trkpt lat="46.85425" lon="8.48891">
        <ele>2521</ele>
        <time>2021-08-12T09:53:38.434Z</time>
      </trkpt>
      <trkpt lat="46.85425" lon="8.48891">
        <ele>2521</ele>
        <time>2021-08-12T09:53:39.433Z</time>
      </trkpt>
      <trkpt lat="46.85425" lon="8.48891">
        <ele>2520</ele>
        <time>2021-08-12T09:53:40.433Z</time>
      </trkpt>
      <trkpt lat="46.85425" lon="8.48891">
        <ele>2520</ele>
        <time>2021-08-12T09:53:41.434Z</time>
      </trkpt>
      <trkpt lat="46.85425" lon="8.48891">
        <ele>2520</ele>
        <time>2021-08-12T09:53:42.434Z</time>
      </trkpt>
      <trkpt lat="46.85425" lon="8.4889">
        <ele>2520</ele>
        <time>2021-08-12T09:53:43.434Z</time>
      </trkpt>
      <trkpt lat="46.85426" lon="8.4889">
        <ele>2520</ele>
        <time>2021-08-12T09:53:44.433Z</time>
      </trkpt>
      <trkpt lat="46.85424" lon="8.48885">
        <ele>2519</ele>
        <time>2021-08-12T09:53:45.434Z</time>
      </trkpt>
      <trkpt lat="46.85424" lon="8.48885">
        <ele>2519</ele>
        <time>2021-08-12T09:53:46.434Z</time>
      </trkpt>
      <trkpt lat="46.85424" lon="8.48885">
        <ele>2519</ele>
        <time>2021-08-12T09:53:47.433Z</time>
      </trkpt>
      <trkpt lat="46.85424" lon="8.48885">
        <ele>2519</ele>
        <time>2021-08-12T09:53:48.434Z</time>
      </trkpt>
      <trkpt lat="46.85424" lon="8.48885">
        <ele>2518</ele>
        <time>2021-08-12T09:53:49.434Z</time>
      </trkpt>
      <trkpt lat="46.85424" lon="8.48885">
        <ele>2518</ele>
        <time>2021-08-12T09:53:50.434Z</time>
      </trkpt>
      <trkpt lat="46.85424" lon="8.48885">
        <ele>2518</ele>
        <time>2021-08-12T09:53:51.433Z</time>
      </trkpt>
      <trkpt lat="46.85427" lon="8.48883">
        <ele>2516</ele>
        <time>2021-08-12T09:53:52.434Z</time>
      </trkpt>
      <trkpt lat="46.85427" lon="8.48883">
        <ele>2514</ele>
        <time>2021-08-12T09:53:53.434Z</time>
      </trkpt>
      <trkpt lat="46.85427" lon="8.48883">
        <ele>2514</ele>
        <time>2021-08-12T09:53:54.434Z</time>
      </trkpt>
      <trkpt lat="46.85427" lon="8.48883">
        <ele>2513</ele>
        <time>2021-08-12T09:53:55.433Z</time>
      </trkpt>
      <trkpt lat="46.85427" lon="8.48882">
        <ele>2513</ele>
        <time>2021-08-12T09:53:56.434Z</time>
      </trkpt>
      <trkpt lat="46.85426" lon="8.48882">
        <ele>2513</ele>
        <time>2021-08-12T09:53:57.433Z</time>
      </trkpt>
      <trkpt lat="46.85426" lon="8.48882">
        <ele>2513</ele>
        <time>2021-08-12T09:53:58.434Z</time>
      </trkpt>
      <trkpt lat="46.85424" lon="8.48881">
        <ele>2513</ele>
        <time>2021-08-12T09:53:59.435Z</time>
      </trkpt>
      <trkpt lat="46.85424" lon="8.48878">
        <ele>2514</ele>
        <time>2021-08-12T09:54:00.435Z</time>
      </trkpt>
      <trkpt lat="46.85424" lon="8.48878">
        <ele>2514</ele>
        <time>2021-08-12T09:54:01.434Z</time>
      </trkpt>
      <trkpt lat="46.85424" lon="8.48877">
        <ele>2514</ele>
        <time>2021-08-12T09:54:02.435Z</time>
      </trkpt>
      <trkpt lat="46.85424" lon="8.48876">
        <ele>2514</ele>
        <time>2021-08-12T09:54:03.435Z</time>
      </trkpt>
      <trkpt lat="46.85424" lon="8.48876">
        <ele>2514</ele>
        <time>2021-08-12T09:54:04.435Z</time>
      </trkpt>
      <trkpt lat="46.85423" lon="8.48875">
        <ele>2515</ele>
        <time>2021-08-12T09:54:05.435Z</time>
      </trkpt>
      <trkpt lat="46.85423" lon="8.48875">
        <ele>2515</ele>
        <time>2021-08-12T09:54:06.435Z</time>
      </trkpt>
      <trkpt lat="46.85421" lon="8.48874">
        <ele>2510</ele>
        <time>2021-08-12T09:54:07.436Z</time>
      </trkpt>
      <trkpt lat="46.85421" lon="8.48873">
        <ele>2510</ele>
        <time>2021-08-12T09:54:08.436Z</time>
      </trkpt>
      <trkpt lat="46.85419" lon="8.4887">
        <ele>2513</ele>
        <time>2021-08-12T09:54:09.436Z</time>
      </trkpt>
      <trkpt lat="46.85418" lon="8.4887">
        <ele>2514</ele>
        <time>2021-08-12T09:54:10.436Z</time>
      </trkpt>
      <trkpt lat="46.85418" lon="8.4887">
        <ele>2515</ele>
        <time>2021-08-12T09:54:11.435Z</time>
      </trkpt>
      <trkpt lat="46.85417" lon="8.48871">
        <ele>2516</ele>
        <time>2021-08-12T09:54:12.436Z</time>
      </trkpt>
      <trkpt lat="46.85417" lon="8.48872">
        <ele>2516</ele>
        <time>2021-08-12T09:54:13.435Z</time>
      </trkpt>
      <trkpt lat="46.85417" lon="8.48873">
        <ele>2516</ele>
        <time>2021-08-12T09:54:14.436Z</time>
      </trkpt>
      <trkpt lat="46.85417" lon="8.48874">
        <ele>2517</ele>
        <time>2021-08-12T09:54:15.435Z</time>
      </trkpt>
      <trkpt lat="46.85416" lon="8.48875">
        <ele>2517</ele>
        <time>2021-08-12T09:54:16.435Z</time>
      </trkpt>
      <trkpt lat="46.85416" lon="8.48876">
        <ele>2518</ele>
        <time>2021-08-12T09:54:17.436Z</time>
      </trkpt>
      <trkpt lat="46.85416" lon="8.48877">
        <ele>2518</ele>
        <time>2021-08-12T09:54:18.435Z</time>
      </trkpt>
      <trkpt lat="46.85415" lon="8.48878">
        <ele>2519</ele>
        <time>2021-08-12T09:54:19.436Z</time>
      </trkpt>
      <trkpt lat="46.85415" lon="8.48878">
        <ele>2519</ele>
        <time>2021-08-12T09:54:20.435Z</time>
      </trkpt>
      <trkpt lat="46.85414" lon="8.48878">
        <ele>2519</ele>
        <time>2021-08-12T09:54:21.436Z</time>
      </trkpt>
      <trkpt lat="46.85414" lon="8.48878">
        <ele>2519</ele>
        <time>2021-08-12T09:54:22.436Z</time>
      </trkpt>
      <trkpt lat="46.85413" lon="8.48879">
        <ele>2519</ele>
        <time>2021-08-12T09:54:23.435Z</time>
      </trkpt>
      <trkpt lat="46.85413" lon="8.48879">
        <ele>2519</ele>
        <time>2021-08-12T09:54:24.436Z</time>
      </trkpt>
      <trkpt lat="46.85413" lon="8.48879">
        <ele>2519</ele>
        <time>2021-08-12T09:54:25.436Z</time>
      </trkpt>
      <trkpt lat="46.85412" lon="8.48879">
        <ele>2518</ele>
        <time>2021-08-12T09:54:26.435Z</time>
      </trkpt>
      <trkpt lat="46.85414" lon="8.48879">
        <ele>2517</ele>
        <time>2021-08-12T09:54:27.436Z</time>
      </trkpt>
      <trkpt lat="46.85414" lon="8.48878">
        <ele>2517</ele>
        <time>2021-08-12T09:54:28.435Z</time>
      </trkpt>
      <trkpt lat="46.85414" lon="8.48878">
        <ele>2517</ele>
        <time>2021-08-12T09:54:29.435Z</time>
      </trkpt>
      <trkpt lat="46.85414" lon="8.48877">
        <ele>2517</ele>
        <time>2021-08-12T09:54:30.436Z</time>
      </trkpt>
      <trkpt lat="46.85414" lon="8.48876">
        <ele>2518</ele>
        <time>2021-08-12T09:54:31.436Z</time>
      </trkpt>
      <trkpt lat="46.85414" lon="8.48876">
        <ele>2517</ele>
        <time>2021-08-12T09:54:32.436Z</time>
      </trkpt>
      <trkpt lat="46.85411" lon="8.48875">
        <ele>2520</ele>
        <time>2021-08-12T09:54:33.437Z</time>
      </trkpt>
      <trkpt lat="46.85411" lon="8.48875">
        <ele>2520</ele>
        <time>2021-08-12T09:54:34.436Z</time>
      </trkpt>
      <trkpt lat="46.85411" lon="8.48875">
        <ele>2520</ele>
        <time>2021-08-12T09:54:35.436Z</time>
      </trkpt>
      <trkpt lat="46.8541" lon="8.48874">
        <ele>2519</ele>
        <time>2021-08-12T09:54:36.436Z</time>
      </trkpt>
      <trkpt lat="46.8541" lon="8.48873">
        <ele>2518</ele>
        <time>2021-08-12T09:54:37.436Z</time>
      </trkpt>
      <trkpt lat="46.8541" lon="8.48873">
        <ele>2518</ele>
        <time>2021-08-12T09:54:38.436Z</time>
      </trkpt>
      <trkpt lat="46.85408" lon="8.48869">
        <ele>2515</ele>
        <time>2021-08-12T09:54:39.437Z</time>
      </trkpt>
      <trkpt lat="46.85408" lon="8.48869">
        <ele>2515</ele>
        <time>2021-08-12T09:54:40.437Z</time>
      </trkpt>
      <trkpt lat="46.85407" lon="8.48869">
        <ele>2516</ele>
        <time>2021-08-12T09:54:41.437Z</time>
      </trkpt>
      <trkpt lat="46.85406" lon="8.48869">
        <ele>2516</ele>
        <time>2021-08-12T09:54:42.437Z</time>
      </trkpt>
      <trkpt lat="46.85406" lon="8.4887">
        <ele>2517</ele>
        <time>2021-08-12T09:54:43.436Z</time>
      </trkpt>
      <trkpt lat="46.85406" lon="8.4887">
        <ele>2518</ele>
        <time>2021-08-12T09:54:44.437Z</time>
      </trkpt>
      <trkpt lat="46.85405" lon="8.4887">
        <ele>2518</ele>
        <time>2021-08-12T09:54:45.437Z</time>
      </trkpt>
      <trkpt lat="46.85404" lon="8.48872">
        <ele>2517</ele>
        <time>2021-08-12T09:54:46.439Z</time>
      </trkpt>
      <trkpt lat="46.85403" lon="8.48874">
        <ele>2517</ele>
        <time>2021-08-12T09:54:47.439Z</time>
      </trkpt>
      <trkpt lat="46.85403" lon="8.48874">
        <ele>2517</ele>
        <time>2021-08-12T09:54:48.439Z</time>
      </trkpt>
      <trkpt lat="46.85402" lon="8.48874">
        <ele>2518</ele>
        <time>2021-08-12T09:54:49.439Z</time>
      </trkpt>
      <trkpt lat="46.85402" lon="8.48875">
        <ele>2518</ele>
        <time>2021-08-12T09:54:50.439Z</time>
      </trkpt>
      <trkpt lat="46.85402" lon="8.48874">
        <ele>2518</ele>
        <time>2021-08-12T09:54:51.439Z</time>
      </trkpt>
      <trkpt lat="46.85402" lon="8.48874">
        <ele>2519</ele>
        <time>2021-08-12T09:54:52.438Z</time>
      </trkpt>
      <trkpt lat="46.85406" lon="8.48878">
        <ele>2520</ele>
        <time>2021-08-12T09:54:53.440Z</time>
      </trkpt>
      <trkpt lat="46.85406" lon="8.48878">
        <ele>2520</ele>
        <time>2021-08-12T09:54:54.441Z</time>
      </trkpt>
      <trkpt lat="46.85403" lon="8.48879">
        <ele>2523</ele>
        <time>2021-08-12T09:54:55.440Z</time>
      </trkpt>
      <trkpt lat="46.85403" lon="8.48879">
        <ele>2524</ele>
        <time>2021-08-12T09:54:56.441Z</time>
      </trkpt>
      <trkpt lat="46.85403" lon="8.48878">
        <ele>2527</ele>
        <time>2021-08-12T09:54:57.440Z</time>
      </trkpt>
      <trkpt lat="46.85402" lon="8.48878">
        <ele>2528</ele>
        <time>2021-08-12T09:54:58.441Z</time>
      </trkpt>
      <trkpt lat="46.85401" lon="8.48877">
        <ele>2528</ele>
        <time>2021-08-12T09:54:59.440Z</time>
      </trkpt>
      <trkpt lat="46.85401" lon="8.48878">
        <ele>2529</ele>
        <time>2021-08-12T09:55:00.440Z</time>
      </trkpt>
      <trkpt lat="46.85401" lon="8.48878">
        <ele>2529</ele>
        <time>2021-08-12T09:55:01.440Z</time>
      </trkpt>
      <trkpt lat="46.854" lon="8.48879">
        <ele>2530</ele>
        <time>2021-08-12T09:55:02.441Z</time>
      </trkpt>
      <trkpt lat="46.854" lon="8.48879">
        <ele>2530</ele>
        <time>2021-08-12T09:55:03.441Z</time>
      </trkpt>
      <trkpt lat="46.854" lon="8.4888">
        <ele>2530</ele>
        <time>2021-08-12T09:55:04.441Z</time>
      </trkpt>
      <trkpt lat="46.85399" lon="8.4888">
        <ele>2529</ele>
        <time>2021-08-12T09:55:05.440Z</time>
      </trkpt>
      <trkpt lat="46.85399" lon="8.4888">
        <ele>2529</ele>
        <time>2021-08-12T09:55:06.441Z</time>
      </trkpt>
      <trkpt lat="46.85399" lon="8.4888">
        <ele>2530</ele>
        <time>2021-08-12T09:55:07.440Z</time>
      </trkpt>
      <trkpt lat="46.85398" lon="8.48881">
        <ele>2531</ele>
        <time>2021-08-12T09:55:08.441Z</time>
      </trkpt>
      <trkpt lat="46.85398" lon="8.48881">
        <ele>2531</ele>
        <time>2021-08-12T09:55:09.441Z</time>
      </trkpt>
      <trkpt lat="46.85398" lon="8.48881">
        <ele>2531</ele>
        <time>2021-08-12T09:55:10.440Z</time>
      </trkpt>
      <trkpt lat="46.85398" lon="8.48882">
        <ele>2531</ele>
        <time>2021-08-12T09:55:11.440Z</time>
      </trkpt>
      <trkpt lat="46.85399" lon="8.48881">
        <ele>2532</ele>
        <time>2021-08-12T09:55:12.441Z</time>
      </trkpt>
      <trkpt lat="46.85399" lon="8.4888">
        <ele>2532</ele>
        <time>2021-08-12T09:55:13.440Z</time>
      </trkpt>
      <trkpt lat="46.85399" lon="8.4888">
        <ele>2532</ele>
        <time>2021-08-12T09:55:14.440Z</time>
      </trkpt>
      <trkpt lat="46.854" lon="8.48882">
        <ele>2528</ele>
        <time>2021-08-12T09:55:15.442Z</time>
      </trkpt>
      <trkpt lat="46.854" lon="8.48881">
        <ele>2528</ele>
        <time>2021-08-12T09:55:16.441Z</time>
      </trkpt>
      <trkpt lat="46.854" lon="8.48881">
        <ele>2529</ele>
        <time>2021-08-12T09:55:17.442Z</time>
      </trkpt>
      <trkpt lat="46.854" lon="8.48881">
        <ele>2529</ele>
        <time>2021-08-12T09:55:18.442Z</time>
      </trkpt>
      <trkpt lat="46.854" lon="8.48881">
        <ele>2529</ele>
        <time>2021-08-12T09:55:19.441Z</time>
      </trkpt>
      <trkpt lat="46.854" lon="8.48881">
        <ele>2527</ele>
        <time>2021-08-12T09:55:20.442Z</time>
      </trkpt>
      <trkpt lat="46.85401" lon="8.4888">
        <ele>2527</ele>
        <time>2021-08-12T09:55:21.442Z</time>
      </trkpt>
      <trkpt lat="46.85401" lon="8.48879">
        <ele>2526</ele>
        <time>2021-08-12T09:55:22.442Z</time>
      </trkpt>
      <trkpt lat="46.85401" lon="8.48878">
        <ele>2525</ele>
        <time>2021-08-12T09:55:23.441Z</time>
      </trkpt>
      <trkpt lat="46.854" lon="8.48877">
        <ele>2525</ele>
        <time>2021-08-12T09:55:24.442Z</time>
      </trkpt>
      <trkpt lat="46.854" lon="8.48877">
        <ele>2525</ele>
        <time>2021-08-12T09:55:25.441Z</time>
      </trkpt>
      <trkpt lat="46.854" lon="8.48876">
        <ele>2524</ele>
        <time>2021-08-12T09:55:26.442Z</time>
      </trkpt>
      <trkpt lat="46.854" lon="8.48875">
        <ele>2524</ele>
        <time>2021-08-12T09:55:27.441Z</time>
      </trkpt>
      <trkpt lat="46.85399" lon="8.48875">
        <ele>2524</ele>
        <time>2021-08-12T09:55:28.442Z</time>
      </trkpt>
      <trkpt lat="46.85399" lon="8.48874">
        <ele>2524</ele>
        <time>2021-08-12T09:55:29.442Z</time>
      </trkpt>
      <trkpt lat="46.85398" lon="8.48873">
        <ele>2524</ele>
        <time>2021-08-12T09:55:30.441Z</time>
      </trkpt>
      <trkpt lat="46.85398" lon="8.48873">
        <ele>2524</ele>
        <time>2021-08-12T09:55:31.442Z</time>
      </trkpt>
      <trkpt lat="46.85398" lon="8.48873">
        <ele>2524</ele>
        <time>2021-08-12T09:55:32.442Z</time>
      </trkpt>
      <trkpt lat="46.85397" lon="8.48873">
        <ele>2523</ele>
        <time>2021-08-12T09:55:33.441Z</time>
      </trkpt>
      <trkpt lat="46.85395" lon="8.48869">
        <ele>2533</ele>
        <time>2021-08-12T09:55:34.441Z</time>
      </trkpt>
      <trkpt lat="46.85395" lon="8.48867">
        <ele>2533</ele>
        <time>2021-08-12T09:55:35.441Z</time>
      </trkpt>
      <trkpt lat="46.85395" lon="8.48866">
        <ele>2533</ele>
        <time>2021-08-12T09:55:36.442Z</time>
      </trkpt>
      <trkpt lat="46.85394" lon="8.48861">
        <ele>2533</ele>
        <time>2021-08-12T09:55:37.443Z</time>
      </trkpt>
      <trkpt lat="46.85393" lon="8.48861">
        <ele>2533</ele>
        <time>2021-08-12T09:55:38.442Z</time>
      </trkpt>
      <trkpt lat="46.85393" lon="8.48861">
        <ele>2533</ele>
        <time>2021-08-12T09:55:39.443Z</time>
      </trkpt>
      <trkpt lat="46.85394" lon="8.48862">
        <ele>2532</ele>
        <time>2021-08-12T09:55:40.443Z</time>
      </trkpt>
      <trkpt lat="46.85393" lon="8.48864">
        <ele>2531</ele>
        <time>2021-08-12T09:55:41.444Z</time>
      </trkpt>
      <trkpt lat="46.85393" lon="8.48864">
        <ele>2530</ele>
        <time>2021-08-12T09:55:42.444Z</time>
      </trkpt>
      <trkpt lat="46.85394" lon="8.48863">
        <ele>2527</ele>
        <time>2021-08-12T09:55:43.445Z</time>
      </trkpt>
      <trkpt lat="46.85394" lon="8.48862">
        <ele>2526</ele>
        <time>2021-08-12T09:55:44.444Z</time>
      </trkpt>
      <trkpt lat="46.85394" lon="8.48862">
        <ele>2526</ele>
        <time>2021-08-12T09:55:45.445Z</time>
      </trkpt>
      <trkpt lat="46.85393" lon="8.48861">
        <ele>2526</ele>
        <time>2021-08-12T09:55:46.445Z</time>
      </trkpt>
      <trkpt lat="46.85393" lon="8.48861">
        <ele>2526</ele>
        <time>2021-08-12T09:55:47.445Z</time>
      </trkpt>
      <trkpt lat="46.85393" lon="8.4886">
        <ele>2527</ele>
        <time>2021-08-12T09:55:48.444Z</time>
      </trkpt>
      <trkpt lat="46.85393" lon="8.48859">
        <ele>2527</ele>
        <time>2021-08-12T09:55:49.445Z</time>
      </trkpt>
      <trkpt lat="46.85393" lon="8.48859">
        <ele>2527</ele>
        <time>2021-08-12T09:55:50.445Z</time>
      </trkpt>
      <trkpt lat="46.85393" lon="8.4886">
        <ele>2527</ele>
        <time>2021-08-12T09:55:51.445Z</time>
      </trkpt>
      <trkpt lat="46.85392" lon="8.4886">
        <ele>2527</ele>
        <time>2021-08-12T09:55:52.444Z</time>
      </trkpt>
      <trkpt lat="46.85392" lon="8.4886">
        <ele>2527</ele>
        <time>2021-08-12T09:55:53.445Z</time>
      </trkpt>
      <trkpt lat="46.85392" lon="8.4886">
        <ele>2527</ele>
        <time>2021-08-12T09:55:54.445Z</time>
      </trkpt>
      <trkpt lat="46.85392" lon="8.48861">
        <ele>2528</ele>
        <time>2021-08-12T09:55:55.445Z</time>
      </trkpt>
      <trkpt lat="46.85392" lon="8.48861">
        <ele>2528</ele>
        <time>2021-08-12T09:55:56.445Z</time>
      </trkpt>
      <trkpt lat="46.85392" lon="8.48861">
        <ele>2528</ele>
        <time>2021-08-12T09:55:57.444Z</time>
      </trkpt>
      <trkpt lat="46.85391" lon="8.48861">
        <ele>2528</ele>
        <time>2021-08-12T09:55:58.445Z</time>
      </trkpt>
      <trkpt lat="46.85389" lon="8.48861">
        <ele>2528</ele>
        <time>2021-08-12T09:55:59.445Z</time>
      </trkpt>
      <trkpt lat="46.85388" lon="8.4886">
        <ele>2528</ele>
        <time>2021-08-12T09:56:00.445Z</time>
      </trkpt>
      <trkpt lat="46.85389" lon="8.4886">
        <ele>2528</ele>
        <time>2021-08-12T09:56:01.445Z</time>
      </trkpt>
      <trkpt lat="46.85389" lon="8.4886">
        <ele>2528</ele>
        <time>2021-08-12T09:56:02.445Z</time>
      </trkpt>
      <trkpt lat="46.8539" lon="8.48857">
        <ele>2528</ele>
        <time>2021-08-12T09:56:03.446Z</time>
      </trkpt>
      <trkpt lat="46.85391" lon="8.48856">
        <ele>2528</ele>
        <time>2021-08-12T09:56:04.445Z</time>
      </trkpt>
      <trkpt lat="46.85391" lon="8.48856">
        <ele>2527</ele>
        <time>2021-08-12T09:56:05.445Z</time>
      </trkpt>
      <trkpt lat="46.8539" lon="8.48856">
        <ele>2527</ele>
        <time>2021-08-12T09:56:06.445Z</time>
      </trkpt>
      <trkpt lat="46.85389" lon="8.48856">
        <ele>2527</ele>
        <time>2021-08-12T09:56:07.446Z</time>
      </trkpt>
      <trkpt lat="46.85389" lon="8.48856">
        <ele>2527</ele>
        <time>2021-08-12T09:56:08.445Z</time>
      </trkpt>
      <trkpt lat="46.85388" lon="8.48856">
        <ele>2527</ele>
        <time>2021-08-12T09:56:09.446Z</time>
      </trkpt>
      <trkpt lat="46.85388" lon="8.48856">
        <ele>2528</ele>
        <time>2021-08-12T09:56:10.445Z</time>
      </trkpt>
      <trkpt lat="46.85388" lon="8.48856">
        <ele>2528</ele>
        <time>2021-08-12T09:56:11.446Z</time>
      </trkpt>
      <trkpt lat="46.85388" lon="8.48857">
        <ele>2529</ele>
        <time>2021-08-12T09:56:12.446Z</time>
      </trkpt>
      <trkpt lat="46.85387" lon="8.48858">
        <ele>2530</ele>
        <time>2021-08-12T09:56:13.446Z</time>
      </trkpt>
      <trkpt lat="46.85387" lon="8.48858">
        <ele>2530</ele>
        <time>2021-08-12T09:56:14.447Z</time>
      </trkpt>
      <trkpt lat="46.85386" lon="8.48858">
        <ele>2531</ele>
        <time>2021-08-12T09:56:15.447Z</time>
      </trkpt>
      <trkpt lat="46.85386" lon="8.48858">
        <ele>2531</ele>
        <time>2021-08-12T09:56:16.447Z</time>
      </trkpt>
      <trkpt lat="46.85386" lon="8.48858">
        <ele>2531</ele>
        <time>2021-08-12T09:56:17.447Z</time>
      </trkpt>
      <trkpt lat="46.85386" lon="8.48858">
        <ele>2532</ele>
        <time>2021-08-12T09:56:18.447Z</time>
      </trkpt>
      <trkpt lat="46.85387" lon="8.48858">
        <ele>2532</ele>
        <time>2021-08-12T09:56:19.447Z</time>
      </trkpt>
      <trkpt lat="46.85386" lon="8.48858">
        <ele>2532</ele>
        <time>2021-08-12T09:56:20.447Z</time>
      </trkpt>
      <trkpt lat="46.85386" lon="8.48857">
        <ele>2532</ele>
        <time>2021-08-12T09:56:21.447Z</time>
      </trkpt>
      <trkpt lat="46.85386" lon="8.48857">
        <ele>2532</ele>
        <time>2021-08-12T09:56:22.446Z</time>
      </trkpt>
      <trkpt lat="46.85386" lon="8.48856">
        <ele>2531</ele>
        <time>2021-08-12T09:56:23.447Z</time>
      </trkpt>
      <trkpt lat="46.85385" lon="8.48856">
        <ele>2531</ele>
        <time>2021-08-12T09:56:24.447Z</time>
      </trkpt>
      <trkpt lat="46.85385" lon="8.48855">
        <ele>2532</ele>
        <time>2021-08-12T09:56:25.447Z</time>
      </trkpt>
      <trkpt lat="46.85385" lon="8.48856">
        <ele>2532</ele>
        <time>2021-08-12T09:56:26.447Z</time>
      </trkpt>
      <trkpt lat="46.85384" lon="8.48856">
        <ele>2533</ele>
        <time>2021-08-12T09:56:27.447Z</time>
      </trkpt>
      <trkpt lat="46.85384" lon="8.48856">
        <ele>2534</ele>
        <time>2021-08-12T09:56:28.447Z</time>
      </trkpt>
      <trkpt lat="46.85384" lon="8.48856">
        <ele>2535</ele>
        <time>2021-08-12T09:56:29.447Z</time>
      </trkpt>
      <trkpt lat="46.85384" lon="8.48857">
        <ele>2536</ele>
        <time>2021-08-12T09:56:30.447Z</time>
      </trkpt>
      <trkpt lat="46.85383" lon="8.48857">
        <ele>2537</ele>
        <time>2021-08-12T09:56:31.447Z</time>
      </trkpt>
      <trkpt lat="46.85383" lon="8.48857">
        <ele>2537</ele>
        <time>2021-08-12T09:56:32.446Z</time>
      </trkpt>
      <trkpt lat="46.85383" lon="8.48857">
        <ele>2537</ele>
        <time>2021-08-12T09:56:33.446Z</time>
      </trkpt>
      <trkpt lat="46.85383" lon="8.48855">
        <ele>2537</ele>
        <time>2021-08-12T09:56:34.448Z</time>
      </trkpt>
      <trkpt lat="46.85383" lon="8.48855">
        <ele>2537</ele>
        <time>2021-08-12T09:56:35.448Z</time>
      </trkpt>
      <trkpt lat="46.85383" lon="8.48854">
        <ele>2537</ele>
        <time>2021-08-12T09:56:36.447Z</time>
      </trkpt>
      <trkpt lat="46.85383" lon="8.48853">
        <ele>2536</ele>
        <time>2021-08-12T09:56:37.448Z</time>
      </trkpt>
      <trkpt lat="46.85383" lon="8.48853">
        <ele>2536</ele>
        <time>2021-08-12T09:56:38.448Z</time>
      </trkpt>
      <trkpt lat="46.85383" lon="8.48852">
        <ele>2536</ele>
        <time>2021-08-12T09:56:39.448Z</time>
      </trkpt>
      <trkpt lat="46.85384" lon="8.48851">
        <ele>2536</ele>
        <time>2021-08-12T09:56:40.447Z</time>
      </trkpt>
      <trkpt lat="46.85384" lon="8.48851">
        <ele>2536</ele>
        <time>2021-08-12T09:56:41.447Z</time>
      </trkpt>
      <trkpt lat="46.85383" lon="8.4885">
        <ele>2536</ele>
        <time>2021-08-12T09:56:42.448Z</time>
      </trkpt>
      <trkpt lat="46.85383" lon="8.4885">
        <ele>2536</ele>
        <time>2021-08-12T09:56:43.448Z</time>
      </trkpt>
      <trkpt lat="46.85383" lon="8.4885">
        <ele>2537</ele>
        <time>2021-08-12T09:56:44.448Z</time>
      </trkpt>
      <trkpt lat="46.85384" lon="8.48851">
        <ele>2537</ele>
        <time>2021-08-12T09:56:45.448Z</time>
      </trkpt>
      <trkpt lat="46.85384" lon="8.48851">
        <ele>2537</ele>
        <time>2021-08-12T09:56:46.447Z</time>
      </trkpt>
      <trkpt lat="46.85383" lon="8.4885">
        <ele>2537</ele>
        <time>2021-08-12T09:56:47.447Z</time>
      </trkpt>
      <trkpt lat="46.85383" lon="8.4885">
        <ele>2537</ele>
        <time>2021-08-12T09:56:48.447Z</time>
      </trkpt>
      <trkpt lat="46.85383" lon="8.48851">
        <ele>2537</ele>
        <time>2021-08-12T09:56:49.448Z</time>
      </trkpt>
      <trkpt lat="46.85383" lon="8.4885">
        <ele>2538</ele>
        <time>2021-08-12T09:56:50.449Z</time>
      </trkpt>
      <trkpt lat="46.85383" lon="8.4885">
        <ele>2539</ele>
        <time>2021-08-12T09:56:51.449Z</time>
      </trkpt>
      <trkpt lat="46.85381" lon="8.48851">
        <ele>2541</ele>
        <time>2021-08-12T09:56:52.449Z</time>
      </trkpt>
      <trkpt lat="46.8538" lon="8.48852">
        <ele>2541</ele>
        <time>2021-08-12T09:56:53.450Z</time>
      </trkpt>
      <trkpt lat="46.8538" lon="8.48852">
        <ele>2541</ele>
        <time>2021-08-12T09:56:54.449Z</time>
      </trkpt>
      <trkpt lat="46.85379" lon="8.48853">
        <ele>2541</ele>
        <time>2021-08-12T09:56:55.450Z</time>
      </trkpt>
      <trkpt lat="46.85379" lon="8.48853">
        <ele>2541</ele>
        <time>2021-08-12T09:56:56.449Z</time>
      </trkpt>
      <trkpt lat="46.85378" lon="8.48854">
        <ele>2542</ele>
        <time>2021-08-12T09:56:57.449Z</time>
      </trkpt>
      <trkpt lat="46.85378" lon="8.48854">
        <ele>2542</ele>
        <time>2021-08-12T09:56:58.449Z</time>
      </trkpt>
      <trkpt lat="46.85377" lon="8.48855">
        <ele>2542</ele>
        <time>2021-08-12T09:56:59.449Z</time>
      </trkpt>
      <trkpt lat="46.85377" lon="8.48855">
        <ele>2543</ele>
        <time>2021-08-12T09:57:00.450Z</time>
      </trkpt>
      <trkpt lat="46.85377" lon="8.48855">
        <ele>2543</ele>
        <time>2021-08-12T09:57:01.450Z</time>
      </trkpt>
      <trkpt lat="46.85376" lon="8.48856">
        <ele>2543</ele>
        <time>2021-08-12T09:57:02.450Z</time>
      </trkpt>
      <trkpt lat="46.85376" lon="8.48856">
        <ele>2543</ele>
        <time>2021-08-12T09:57:03.450Z</time>
      </trkpt>
      <trkpt lat="46.85375" lon="8.48856">
        <ele>2543</ele>
        <time>2021-08-12T09:57:04.450Z</time>
      </trkpt>
      <trkpt lat="46.85375" lon="8.48856">
        <ele>2543</ele>
        <time>2021-08-12T09:57:05.450Z</time>
      </trkpt>
      <trkpt lat="46.85375" lon="8.48856">
        <ele>2543</ele>
        <time>2021-08-12T09:57:06.450Z</time>
      </trkpt>
      <trkpt lat="46.85374" lon="8.48855">
        <ele>2543</ele>
        <time>2021-08-12T09:57:07.449Z</time>
      </trkpt>
      <trkpt lat="46.85374" lon="8.48855">
        <ele>2543</ele>
        <time>2021-08-12T09:57:08.450Z</time>
      </trkpt>
      <trkpt lat="46.85373" lon="8.48855">
        <ele>2543</ele>
        <time>2021-08-12T09:57:09.449Z</time>
      </trkpt>
      <trkpt lat="46.85373" lon="8.48856">
        <ele>2543</ele>
        <time>2021-08-12T09:57:10.450Z</time>
      </trkpt>
      <trkpt lat="46.85372" lon="8.48856">
        <ele>2543</ele>
        <time>2021-08-12T09:57:11.449Z</time>
      </trkpt>
      <trkpt lat="46.85372" lon="8.48856">
        <ele>2543</ele>
        <time>2021-08-12T09:57:12.449Z</time>
      </trkpt>
      <trkpt lat="46.85371" lon="8.48856">
        <ele>2542</ele>
        <time>2021-08-12T09:57:13.450Z</time>
      </trkpt>
      <trkpt lat="46.8537" lon="8.48856">
        <ele>2542</ele>
        <time>2021-08-12T09:57:14.449Z</time>
      </trkpt>
      <trkpt lat="46.8537" lon="8.48855">
        <ele>2542</ele>
        <time>2021-08-12T09:57:15.449Z</time>
      </trkpt>
      <trkpt lat="46.85369" lon="8.48855">
        <ele>2543</ele>
        <time>2021-08-12T09:57:16.450Z</time>
      </trkpt>
      <trkpt lat="46.85369" lon="8.48855">
        <ele>2543</ele>
        <time>2021-08-12T09:57:17.450Z</time>
      </trkpt>
      <trkpt lat="46.85368" lon="8.48855">
        <ele>2543</ele>
        <time>2021-08-12T09:57:18.450Z</time>
      </trkpt>
      <trkpt lat="46.85368" lon="8.48855">
        <ele>2543</ele>
        <time>2021-08-12T09:57:19.450Z</time>
      </trkpt>
      <trkpt lat="46.85367" lon="8.48855">
        <ele>2544</ele>
        <time>2021-08-12T09:57:20.450Z</time>
      </trkpt>
      <trkpt lat="46.85367" lon="8.48855">
        <ele>2544</ele>
        <time>2021-08-12T09:57:21.450Z</time>
      </trkpt>
      <trkpt lat="46.85366" lon="8.48855">
        <ele>2544</ele>
        <time>2021-08-12T09:57:22.450Z</time>
      </trkpt>
      <trkpt lat="46.85366" lon="8.48854">
        <ele>2544</ele>
        <time>2021-08-12T09:57:23.450Z</time>
      </trkpt>
      <trkpt lat="46.85366" lon="8.48854">
        <ele>2544</ele>
        <time>2021-08-12T09:57:24.449Z</time>
      </trkpt>
      <trkpt lat="46.85365" lon="8.48854">
        <ele>2544</ele>
        <time>2021-08-12T09:57:25.449Z</time>
      </trkpt>
      <trkpt lat="46.85365" lon="8.48853">
        <ele>2544</ele>
        <time>2021-08-12T09:57:26.450Z</time>
      </trkpt>
      <trkpt lat="46.85365" lon="8.48853">
        <ele>2544</ele>
        <time>2021-08-12T09:57:27.449Z</time>
      </trkpt>
      <trkpt lat="46.85365" lon="8.48853">
        <ele>2545</ele>
        <time>2021-08-12T09:57:28.450Z</time>
      </trkpt>
      <trkpt lat="46.85365" lon="8.48853">
        <ele>2545</ele>
        <time>2021-08-12T09:57:29.450Z</time>
      </trkpt>
      <trkpt lat="46.85365" lon="8.48853">
        <ele>2545</ele>
        <time>2021-08-12T09:57:30.449Z</time>
      </trkpt>
      <trkpt lat="46.85365" lon="8.48852">
        <ele>2545</ele>
        <time>2021-08-12T09:57:31.450Z</time>
      </trkpt>
      <trkpt lat="46.85361" lon="8.4885">
        <ele>2552</ele>
        <time>2021-08-12T09:57:32.449Z</time>
      </trkpt>
      <trkpt lat="46.85361" lon="8.4885">
        <ele>2552</ele>
        <time>2021-08-12T09:57:33.450Z</time>
      </trkpt>
      <trkpt lat="46.85359" lon="8.48851">
        <ele>2551</ele>
        <time>2021-08-12T09:57:34.449Z</time>
      </trkpt>
      <trkpt lat="46.85358" lon="8.48851">
        <ele>2551</ele>
        <time>2021-08-12T09:57:35.450Z</time>
      </trkpt>
      <trkpt lat="46.85358" lon="8.48851">
        <ele>2550</ele>
        <time>2021-08-12T09:57:36.449Z</time>
      </trkpt>
      <trkpt lat="46.85358" lon="8.48851">
        <ele>2550</ele>
        <time>2021-08-12T09:57:37.449Z</time>
      </trkpt>
      <trkpt lat="46.85357" lon="8.48852">
        <ele>2551</ele>
        <time>2021-08-12T09:57:38.450Z</time>
      </trkpt>
      <trkpt lat="46.85357" lon="8.48852">
        <ele>2551</ele>
        <time>2021-08-12T09:57:39.450Z</time>
      </trkpt>
      <trkpt lat="46.85356" lon="8.48852">
        <ele>2551</ele>
        <time>2021-08-12T09:57:40.450Z</time>
      </trkpt>
      <trkpt lat="46.85355" lon="8.48852">
        <ele>2551</ele>
        <time>2021-08-12T09:57:41.450Z</time>
      </trkpt>
      <trkpt lat="46.85355" lon="8.48852">
        <ele>2551</ele>
        <time>2021-08-12T09:57:42.449Z</time>
      </trkpt>
      <trkpt lat="46.85355" lon="8.48853">
        <ele>2551</ele>
        <time>2021-08-12T09:57:43.449Z</time>
      </trkpt>
      <trkpt lat="46.85355" lon="8.48854">
        <ele>2551</ele>
        <time>2021-08-12T09:57:44.450Z</time>
      </trkpt>
      <trkpt lat="46.85354" lon="8.48854">
        <ele>2552</ele>
        <time>2021-08-12T09:57:45.450Z</time>
      </trkpt>
      <trkpt lat="46.85354" lon="8.48854">
        <ele>2551</ele>
        <time>2021-08-12T09:57:46.449Z</time>
      </trkpt>
      <trkpt lat="46.85354" lon="8.48854">
        <ele>2551</ele>
        <time>2021-08-12T09:57:47.449Z</time>
      </trkpt>
      <trkpt lat="46.85353" lon="8.48855">
        <ele>2551</ele>
        <time>2021-08-12T09:57:48.450Z</time>
      </trkpt>
      <trkpt lat="46.85353" lon="8.48855">
        <ele>2551</ele>
        <time>2021-08-12T09:57:49.449Z</time>
      </trkpt>
      <trkpt lat="46.85353" lon="8.48856">
        <ele>2552</ele>
        <time>2021-08-12T09:57:50.450Z</time>
      </trkpt>
      <trkpt lat="46.85352" lon="8.48856">
        <ele>2552</ele>
        <time>2021-08-12T09:57:51.449Z</time>
      </trkpt>
      <trkpt lat="46.85352" lon="8.48856">
        <ele>2552</ele>
        <time>2021-08-12T09:57:52.449Z</time>
      </trkpt>
      <trkpt lat="46.85351" lon="8.48856">
        <ele>2553</ele>
        <time>2021-08-12T09:57:53.450Z</time>
      </trkpt>
      <trkpt lat="46.85351" lon="8.48857">
        <ele>2553</ele>
        <time>2021-08-12T09:57:54.449Z</time>
      </trkpt>
      <trkpt lat="46.85351" lon="8.48857">
        <ele>2553</ele>
        <time>2021-08-12T09:57:55.450Z</time>
      </trkpt>
      <trkpt lat="46.8535" lon="8.48858">
        <ele>2553</ele>
        <time>2021-08-12T09:57:56.449Z</time>
      </trkpt>
      <trkpt lat="46.8535" lon="8.48858">
        <ele>2553</ele>
        <time>2021-08-12T09:57:57.450Z</time>
      </trkpt>
      <trkpt lat="46.85349" lon="8.48858">
        <ele>2553</ele>
        <time>2021-08-12T09:57:58.450Z</time>
      </trkpt>
      <trkpt lat="46.85349" lon="8.48858">
        <ele>2553</ele>
        <time>2021-08-12T09:57:59.450Z</time>
      </trkpt>
      <trkpt lat="46.85348" lon="8.48859">
        <ele>2553</ele>
        <time>2021-08-12T09:58:00.450Z</time>
      </trkpt>
      <trkpt lat="46.85348" lon="8.48859">
        <ele>2553</ele>
        <time>2021-08-12T09:58:01.449Z</time>
      </trkpt>
      <trkpt lat="46.85348" lon="8.4886">
        <ele>2554</ele>
        <time>2021-08-12T09:58:02.450Z</time>
      </trkpt>
      <trkpt lat="46.85348" lon="8.4886">
        <ele>2554</ele>
        <time>2021-08-12T09:58:03.449Z</time>
      </trkpt>
      <trkpt lat="46.85347" lon="8.4886">
        <ele>2555</ele>
        <time>2021-08-12T09:58:04.449Z</time>
      </trkpt>
      <trkpt lat="46.85347" lon="8.4886">
        <ele>2555</ele>
        <time>2021-08-12T09:58:05.450Z</time>
      </trkpt>
      <trkpt lat="46.85347" lon="8.4886">
        <ele>2555</ele>
        <time>2021-08-12T09:58:06.450Z</time>
      </trkpt>
      <trkpt lat="46.85346" lon="8.48861">
        <ele>2555</ele>
        <time>2021-08-12T09:58:07.450Z</time>
      </trkpt>
      <trkpt lat="46.85347" lon="8.48861">
        <ele>2556</ele>
        <time>2021-08-12T09:58:08.450Z</time>
      </trkpt>
      <trkpt lat="46.85346" lon="8.48862">
        <ele>2556</ele>
        <time>2021-08-12T09:58:09.450Z</time>
      </trkpt>
      <trkpt lat="46.85346" lon="8.48862">
        <ele>2557</ele>
        <time>2021-08-12T09:58:10.450Z</time>
      </trkpt>
      <trkpt lat="46.85345" lon="8.48862">
        <ele>2557</ele>
        <time>2021-08-12T09:58:11.450Z</time>
      </trkpt>
      <trkpt lat="46.85345" lon="8.48862">
        <ele>2557</ele>
        <time>2021-08-12T09:58:12.449Z</time>
      </trkpt>
      <trkpt lat="46.85344" lon="8.48863">
        <ele>2557</ele>
        <time>2021-08-12T09:58:13.449Z</time>
      </trkpt>
      <trkpt lat="46.85344" lon="8.48863">
        <ele>2557</ele>
        <time>2021-08-12T09:58:14.450Z</time>
      </trkpt>
      <trkpt lat="46.85343" lon="8.48863">
        <ele>2557</ele>
        <time>2021-08-12T09:58:15.450Z</time>
      </trkpt>
      <trkpt lat="46.85343" lon="8.48863">
        <ele>2557</ele>
        <time>2021-08-12T09:58:16.450Z</time>
      </trkpt>
      <trkpt lat="46.85343" lon="8.48863">
        <ele>2557</ele>
        <time>2021-08-12T09:58:17.449Z</time>
      </trkpt>
      <trkpt lat="46.85343" lon="8.48863">
        <ele>2557</ele>
        <time>2021-08-12T09:58:18.450Z</time>
      </trkpt>
      <trkpt lat="46.85342" lon="8.48864">
        <ele>2558</ele>
        <time>2021-08-12T09:58:19.449Z</time>
      </trkpt>
      <trkpt lat="46.85342" lon="8.48864">
        <ele>2558</ele>
        <time>2021-08-12T09:58:20.450Z</time>
      </trkpt>
      <trkpt lat="46.85341" lon="8.48864">
        <ele>2558</ele>
        <time>2021-08-12T09:58:21.450Z</time>
      </trkpt>
      <trkpt lat="46.85341" lon="8.48865">
        <ele>2558</ele>
        <time>2021-08-12T09:58:22.450Z</time>
      </trkpt>
      <trkpt lat="46.85341" lon="8.48866">
        <ele>2558</ele>
        <time>2021-08-12T09:58:23.449Z</time>
      </trkpt>
      <trkpt lat="46.8534" lon="8.48866">
        <ele>2558</ele>
        <time>2021-08-12T09:58:24.450Z</time>
      </trkpt>
      <trkpt lat="46.8534" lon="8.48867">
        <ele>2559</ele>
        <time>2021-08-12T09:58:25.449Z</time>
      </trkpt>
      <trkpt lat="46.8534" lon="8.48867">
        <ele>2559</ele>
        <time>2021-08-12T09:58:26.449Z</time>
      </trkpt>
      <trkpt lat="46.85339" lon="8.48868">
        <ele>2559</ele>
        <time>2021-08-12T09:58:27.450Z</time>
      </trkpt>
      <trkpt lat="46.85339" lon="8.48868">
        <ele>2560</ele>
        <time>2021-08-12T09:58:28.449Z</time>
      </trkpt>
      <trkpt lat="46.85339" lon="8.48869">
        <ele>2560</ele>
        <time>2021-08-12T09:58:29.450Z</time>
      </trkpt>
      <trkpt lat="46.85338" lon="8.48869">
        <ele>2561</ele>
        <time>2021-08-12T09:58:30.450Z</time>
      </trkpt>
      <trkpt lat="46.85338" lon="8.4887">
        <ele>2561</ele>
        <time>2021-08-12T09:58:31.449Z</time>
      </trkpt>
      <trkpt lat="46.85337" lon="8.4887">
        <ele>2561</ele>
        <time>2021-08-12T09:58:32.450Z</time>
      </trkpt>
      <trkpt lat="46.85337" lon="8.4887">
        <ele>2561</ele>
        <time>2021-08-12T09:58:33.450Z</time>
      </trkpt>
      <trkpt lat="46.85337" lon="8.4887">
        <ele>2561</ele>
        <time>2021-08-12T09:58:34.449Z</time>
      </trkpt>
      <trkpt lat="46.85336" lon="8.4887">
        <ele>2561</ele>
        <time>2021-08-12T09:58:35.449Z</time>
      </trkpt>
      <trkpt lat="46.85336" lon="8.48869">
        <ele>2561</ele>
        <time>2021-08-12T09:58:36.450Z</time>
      </trkpt>
      <trkpt lat="46.85336" lon="8.48869">
        <ele>2561</ele>
        <time>2021-08-12T09:58:37.449Z</time>
      </trkpt>
      <trkpt lat="46.85336" lon="8.48868">
        <ele>2561</ele>
        <time>2021-08-12T09:58:38.450Z</time>
      </trkpt>
      <trkpt lat="46.85335" lon="8.48868">
        <ele>2561</ele>
        <time>2021-08-12T09:58:39.450Z</time>
      </trkpt>
      <trkpt lat="46.85335" lon="8.48868">
        <ele>2561</ele>
        <time>2021-08-12T09:58:40.449Z</time>
      </trkpt>
      <trkpt lat="46.85334" lon="8.48868">
        <ele>2561</ele>
        <time>2021-08-12T09:58:41.450Z</time>
      </trkpt>
      <trkpt lat="46.85335" lon="8.48868">
        <ele>2560</ele>
        <time>2021-08-12T09:58:42.451Z</time>
      </trkpt>
      <trkpt lat="46.85334" lon="8.48867">
        <ele>2560</ele>
        <time>2021-08-12T09:58:43.450Z</time>
      </trkpt>
      <trkpt lat="46.85334" lon="8.48867">
        <ele>2560</ele>
        <time>2021-08-12T09:58:44.450Z</time>
      </trkpt>
      <trkpt lat="46.85334" lon="8.48867">
        <ele>2560</ele>
        <time>2021-08-12T09:58:45.450Z</time>
      </trkpt>
      <trkpt lat="46.85334" lon="8.48869">
        <ele>2560</ele>
        <time>2021-08-12T09:58:46.451Z</time>
      </trkpt>
      <trkpt lat="46.85334" lon="8.48869">
        <ele>2560</ele>
        <time>2021-08-12T09:58:47.451Z</time>
      </trkpt>
      <trkpt lat="46.85334" lon="8.48869">
        <ele>2561</ele>
        <time>2021-08-12T09:58:48.450Z</time>
      </trkpt>
      <trkpt lat="46.85333" lon="8.48869">
        <ele>2558</ele>
        <time>2021-08-12T09:58:49.451Z</time>
      </trkpt>
      <trkpt lat="46.85333" lon="8.4887">
        <ele>2558</ele>
        <time>2021-08-12T09:58:50.451Z</time>
      </trkpt>
      <trkpt lat="46.85333" lon="8.4887">
        <ele>2557</ele>
        <time>2021-08-12T09:58:51.450Z</time>
      </trkpt>
      <trkpt lat="46.85333" lon="8.48871">
        <ele>2557</ele>
        <time>2021-08-12T09:58:52.451Z</time>
      </trkpt>
      <trkpt lat="46.85333" lon="8.48872">
        <ele>2557</ele>
        <time>2021-08-12T09:58:53.451Z</time>
      </trkpt>
      <trkpt lat="46.85333" lon="8.48873">
        <ele>2557</ele>
        <time>2021-08-12T09:58:54.450Z</time>
      </trkpt>
      <trkpt lat="46.85334" lon="8.48873">
        <ele>2557</ele>
        <time>2021-08-12T09:58:55.450Z</time>
      </trkpt>
      <trkpt lat="46.85335" lon="8.48873">
        <ele>2559</ele>
        <time>2021-08-12T09:58:56.452Z</time>
      </trkpt>
      <trkpt lat="46.85335" lon="8.48874">
        <ele>2559</ele>
        <time>2021-08-12T09:58:57.452Z</time>
      </trkpt>
      <trkpt lat="46.85335" lon="8.48877">
        <ele>2562</ele>
        <time>2021-08-12T09:58:58.452Z</time>
      </trkpt>
      <trkpt lat="46.85335" lon="8.48877">
        <ele>2562</ele>
        <time>2021-08-12T09:58:59.452Z</time>
      </trkpt>
      <trkpt lat="46.85335" lon="8.48877">
        <ele>2561</ele>
        <time>2021-08-12T09:59:00.452Z</time>
      </trkpt>
      <trkpt lat="46.85335" lon="8.48877">
        <ele>2561</ele>
        <time>2021-08-12T09:59:01.451Z</time>
      </trkpt>
      <trkpt lat="46.85335" lon="8.48877">
        <ele>2561</ele>
        <time>2021-08-12T09:59:02.451Z</time>
      </trkpt>
      <trkpt lat="46.85335" lon="8.48876">
        <ele>2559</ele>
        <time>2021-08-12T09:59:03.451Z</time>
      </trkpt>
      <trkpt lat="46.85335" lon="8.48876">
        <ele>2558</ele>
        <time>2021-08-12T09:59:04.451Z</time>
      </trkpt>
      <trkpt lat="46.85335" lon="8.48876">
        <ele>2558</ele>
        <time>2021-08-12T09:59:05.452Z</time>
      </trkpt>
      <trkpt lat="46.85335" lon="8.48876">
        <ele>2558</ele>
        <time>2021-08-12T09:59:06.452Z</time>
      </trkpt>
      <trkpt lat="46.85334" lon="8.48877">
        <ele>2559</ele>
        <time>2021-08-12T09:59:07.452Z</time>
      </trkpt>
      <trkpt lat="46.85334" lon="8.48877">
        <ele>2559</ele>
        <time>2021-08-12T09:59:08.452Z</time>
      </trkpt>
      <trkpt lat="46.85333" lon="8.48876">
        <ele>2560</ele>
        <time>2021-08-12T09:59:09.453Z</time>
      </trkpt>
      <trkpt lat="46.85333" lon="8.48876">
        <ele>2560</ele>
        <time>2021-08-12T09:59:10.452Z</time>
      </trkpt>
      <trkpt lat="46.85333" lon="8.48875">
        <ele>2564</ele>
        <time>2021-08-12T09:59:11.453Z</time>
      </trkpt>
      <trkpt lat="46.85333" lon="8.48875">
        <ele>2564</ele>
        <time>2021-08-12T09:59:12.453Z</time>
      </trkpt>
      <trkpt lat="46.85333" lon="8.48875">
        <ele>2563</ele>
        <time>2021-08-12T09:59:13.452Z</time>
      </trkpt>
      <trkpt lat="46.85333" lon="8.48875">
        <ele>2562</ele>
        <time>2021-08-12T09:59:14.453Z</time>
      </trkpt>
      <trkpt lat="46.85334" lon="8.48875">
        <ele>2562</ele>
        <time>2021-08-12T09:59:15.453Z</time>
      </trkpt>
      <trkpt lat="46.85337" lon="8.48875">
        <ele>2562</ele>
        <time>2021-08-12T09:59:16.455Z</time>
      </trkpt>
      <trkpt lat="46.85336" lon="8.48875">
        <ele>2562</ele>
        <time>2021-08-12T09:59:17.455Z</time>
      </trkpt>
      <trkpt lat="46.85336" lon="8.48875">
        <ele>2562</ele>
        <time>2021-08-12T09:59:18.455Z</time>
      </trkpt>
      <trkpt lat="46.85336" lon="8.48876">
        <ele>2561</ele>
        <time>2021-08-12T09:59:19.455Z</time>
      </trkpt>
      <trkpt lat="46.85336" lon="8.48876">
        <ele>2561</ele>
        <time>2021-08-12T09:59:20.455Z</time>
      </trkpt>
      <trkpt lat="46.85336" lon="8.48876">
        <ele>2561</ele>
        <time>2021-08-12T09:59:21.455Z</time>
      </trkpt>
      <trkpt lat="46.85335" lon="8.48875">
        <ele>2565</ele>
        <time>2021-08-12T09:59:22.455Z</time>
      </trkpt>
      <trkpt lat="46.85335" lon="8.48875">
        <ele>2566</ele>
        <time>2021-08-12T09:59:23.456Z</time>
      </trkpt>
      <trkpt lat="46.85335" lon="8.48875">
        <ele>2565</ele>
        <time>2021-08-12T09:59:24.456Z</time>
      </trkpt>
      <trkpt lat="46.85335" lon="8.48875">
        <ele>2565</ele>
        <time>2021-08-12T09:59:25.455Z</time>
      </trkpt>
      <trkpt lat="46.85335" lon="8.48875">
        <ele>2565</ele>
        <time>2021-08-12T09:59:26.456Z</time>
      </trkpt>
      <trkpt lat="46.85335" lon="8.48875">
        <ele>2564</ele>
        <time>2021-08-12T09:59:27.456Z</time>
      </trkpt>
      <trkpt lat="46.85335" lon="8.48875">
        <ele>2564</ele>
        <time>2021-08-12T09:59:28.456Z</time>
      </trkpt>
      <trkpt lat="46.85335" lon="8.48876">
        <ele>2561</ele>
        <time>2021-08-12T09:59:29.456Z</time>
      </trkpt>
      <trkpt lat="46.85335" lon="8.48876">
        <ele>2561</ele>
        <time>2021-08-12T09:59:30.457Z</time>
      </trkpt>
      <trkpt lat="46.85335" lon="8.48876">
        <ele>2562</ele>
        <time>2021-08-12T09:59:31.456Z</time>
      </trkpt>
      <trkpt lat="46.85334" lon="8.48876">
        <ele>2562</ele>
        <time>2021-08-12T09:59:32.457Z</time>
      </trkpt>
      <trkpt lat="46.85334" lon="8.48876">
        <ele>2561</ele>
        <time>2021-08-12T09:59:33.456Z</time>
      </trkpt>
      <trkpt lat="46.85335" lon="8.48878">
        <ele>2555</ele>
        <time>2021-08-12T09:59:34.457Z</time>
      </trkpt>
      <trkpt lat="46.85336" lon="8.48877">
        <ele>2555</ele>
        <time>2021-08-12T09:59:35.457Z</time>
      </trkpt>
      <trkpt lat="46.85336" lon="8.48877">
        <ele>2555</ele>
        <time>2021-08-12T09:59:36.456Z</time>
      </trkpt>
      <trkpt lat="46.85336" lon="8.48877">
        <ele>2555</ele>
        <time>2021-08-12T09:59:37.456Z</time>
      </trkpt>
      <trkpt lat="46.85333" lon="8.4888">
        <ele>2560</ele>
        <time>2021-08-12T09:59:38.456Z</time>
      </trkpt>
      <trkpt lat="46.85333" lon="8.48881">
        <ele>2560</ele>
        <time>2021-08-12T09:59:39.456Z</time>
      </trkpt>
      <trkpt lat="46.85333" lon="8.48876">
        <ele>2559</ele>
        <time>2021-08-12T09:59:40.458Z</time>
      </trkpt>
      <trkpt lat="46.85333" lon="8.48876">
        <ele>2559</ele>
        <time>2021-08-12T09:59:41.457Z</time>
      </trkpt>
      <trkpt lat="46.85334" lon="8.48876">
        <ele>2560</ele>
        <time>2021-08-12T09:59:42.457Z</time>
      </trkpt>
      <trkpt lat="46.85334" lon="8.48876">
        <ele>2560</ele>
        <time>2021-08-12T09:59:43.457Z</time>
      </trkpt>
      <trkpt lat="46.85334" lon="8.48876">
        <ele>2558</ele>
        <time>2021-08-12T09:59:44.457Z</time>
      </trkpt>
      <trkpt lat="46.85334" lon="8.48875">
        <ele>2559</ele>
        <time>2021-08-12T09:59:45.458Z</time>
      </trkpt>
      <trkpt lat="46.85334" lon="8.48875">
        <ele>2560</ele>
        <time>2021-08-12T09:59:46.458Z</time>
      </trkpt>
      <trkpt lat="46.85334" lon="8.48875">
        <ele>2561</ele>
        <time>2021-08-12T09:59:47.458Z</time>
      </trkpt>
      <trkpt lat="46.85336" lon="8.48875">
        <ele>2560</ele>
        <time>2021-08-12T09:59:48.458Z</time>
      </trkpt>
      <trkpt lat="46.85336" lon="8.48875">
        <ele>2559</ele>
        <time>2021-08-12T09:59:49.458Z</time>
      </trkpt>
      <trkpt lat="46.85333" lon="8.48865">
        <ele>2568</ele>
        <time>2021-08-12T09:59:50.458Z</time>
      </trkpt>
      <trkpt lat="46.85333" lon="8.48865">
        <ele>2568</ele>
        <time>2021-08-12T09:59:51.459Z</time>
      </trkpt>
      <trkpt lat="46.85337" lon="8.48881">
        <ele>2558</ele>
        <time>2021-08-12T09:59:52.458Z</time>
      </trkpt>
      <trkpt lat="46.85336" lon="8.48879">
        <ele>2556</ele>
        <time>2021-08-12T09:59:53.460Z</time>
      </trkpt>
      <trkpt lat="46.85336" lon="8.48879">
        <ele>2556</ele>
        <time>2021-08-12T09:59:54.459Z</time>
      </trkpt>
      <trkpt lat="46.85336" lon="8.4888">
        <ele>2557</ele>
        <time>2021-08-12T09:59:55.459Z</time>
      </trkpt>
      <trkpt lat="46.85338" lon="8.48879">
        <ele>2561</ele>
        <time>2021-08-12T09:59:56.460Z</time>
      </trkpt>
      <trkpt lat="46.85335" lon="8.48877">
        <ele>2560</ele>
        <time>2021-08-12T09:59:57.462Z</time>
      </trkpt>
      <trkpt lat="46.85335" lon="8.48877">
        <ele>2560</ele>
        <time>2021-08-12T09:59:58.461Z</time>
      </trkpt>
      <trkpt lat="46.85336" lon="8.48879">
        <ele>2559</ele>
        <time>2021-08-12T09:59:59.462Z</time>
      </trkpt>
      <trkpt lat="46.85334" lon="8.48877">
        <ele>2559</ele>
        <time>2021-08-12T10:00:00.461Z</time>
      </trkpt>
      <trkpt lat="46.85335" lon="8.48877">
        <ele>2559</ele>
        <time>2021-08-12T10:00:01.462Z</time>
      </trkpt>
      <trkpt lat="46.85335" lon="8.48877">
        <ele>2559</ele>
        <time>2021-08-12T10:00:02.461Z</time>
      </trkpt>
      <trkpt lat="46.85335" lon="8.48877">
        <ele>2558</ele>
        <time>2021-08-12T10:00:03.462Z</time>
      </trkpt>
      <trkpt lat="46.85335" lon="8.48877">
        <ele>2558</ele>
        <time>2021-08-12T10:00:04.462Z</time>
      </trkpt>
      <trkpt lat="46.85335" lon="8.48876">
        <ele>2558</ele>
        <time>2021-08-12T10:00:05.461Z</time>
      </trkpt>
      <trkpt lat="46.85335" lon="8.48882">
        <ele>2555</ele>
        <time>2021-08-12T10:00:06.462Z</time>
      </trkpt>
      <trkpt lat="46.85335" lon="8.4888">
        <ele>2558</ele>
        <time>2021-08-12T10:00:07.462Z</time>
      </trkpt>
      <trkpt lat="46.85335" lon="8.48881">
        <ele>2558</ele>
        <time>2021-08-12T10:00:08.462Z</time>
      </trkpt>
      <trkpt lat="46.85335" lon="8.48881">
        <ele>2558</ele>
        <time>2021-08-12T10:00:09.461Z</time>
      </trkpt>
      <trkpt lat="46.85335" lon="8.48882">
        <ele>2559</ele>
        <time>2021-08-12T10:00:10.462Z</time>
      </trkpt>
      <trkpt lat="46.85335" lon="8.48882">
        <ele>2559</ele>
        <time>2021-08-12T10:00:11.461Z</time>
      </trkpt>
      <trkpt lat="46.85335" lon="8.48883">
        <ele>2558</ele>
        <time>2021-08-12T10:00:12.461Z</time>
      </trkpt>
      <trkpt lat="46.85335" lon="8.48884">
        <ele>2558</ele>
        <time>2021-08-12T10:00:13.461Z</time>
      </trkpt>
      <trkpt lat="46.85335" lon="8.48885">
        <ele>2558</ele>
        <time>2021-08-12T10:00:14.462Z</time>
      </trkpt>
      <trkpt lat="46.85334" lon="8.48885">
        <ele>2557</ele>
        <time>2021-08-12T10:00:15.462Z</time>
      </trkpt>
      <trkpt lat="46.85334" lon="8.48886">
        <ele>2558</ele>
        <time>2021-08-12T10:00:16.461Z</time>
      </trkpt>
      <trkpt lat="46.85334" lon="8.48887">
        <ele>2558</ele>
        <time>2021-08-12T10:00:17.461Z</time>
      </trkpt>
      <trkpt lat="46.85334" lon="8.48888">
        <ele>2558</ele>
        <time>2021-08-12T10:00:18.461Z</time>
      </trkpt>
      <trkpt lat="46.85335" lon="8.48888">
        <ele>2558</ele>
        <time>2021-08-12T10:00:19.462Z</time>
      </trkpt>
      <trkpt lat="46.85335" lon="8.48889">
        <ele>2558</ele>
        <time>2021-08-12T10:00:20.462Z</time>
      </trkpt>
      <trkpt lat="46.85335" lon="8.48889">
        <ele>2558</ele>
        <time>2021-08-12T10:00:21.461Z</time>
      </trkpt>
      <trkpt lat="46.85336" lon="8.4889">
        <ele>2558</ele>
        <time>2021-08-12T10:00:22.462Z</time>
      </trkpt>
      <trkpt lat="46.85336" lon="8.48891">
        <ele>2557</ele>
        <time>2021-08-12T10:00:23.461Z</time>
      </trkpt>
      <trkpt lat="46.85336" lon="8.48891">
        <ele>2557</ele>
        <time>2021-08-12T10:00:24.461Z</time>
      </trkpt>
      <trkpt lat="46.85336" lon="8.48892">
        <ele>2558</ele>
        <time>2021-08-12T10:00:25.462Z</time>
      </trkpt>
      <trkpt lat="46.85336" lon="8.48892">
        <ele>2558</ele>
        <time>2021-08-12T10:00:26.462Z</time>
      </trkpt>
      <trkpt lat="46.85336" lon="8.48892">
        <ele>2558</ele>
        <time>2021-08-12T10:00:27.461Z</time>
      </trkpt>
      <trkpt lat="46.85335" lon="8.48892">
        <ele>2558</ele>
        <time>2021-08-12T10:00:28.462Z</time>
      </trkpt>
      <trkpt lat="46.85335" lon="8.48892">
        <ele>2559</ele>
        <time>2021-08-12T10:00:29.461Z</time>
      </trkpt>
      <trkpt lat="46.85334" lon="8.48892">
        <ele>2559</ele>
        <time>2021-08-12T10:00:30.461Z</time>
      </trkpt>
      <trkpt lat="46.85334" lon="8.48893">
        <ele>2560</ele>
        <time>2021-08-12T10:00:31.461Z</time>
      </trkpt>
      <trkpt lat="46.85334" lon="8.48893">
        <ele>2560</ele>
        <time>2021-08-12T10:00:32.462Z</time>
      </trkpt>
      <trkpt lat="46.85334" lon="8.48894">
        <ele>2560</ele>
        <time>2021-08-12T10:00:33.462Z</time>
      </trkpt>
      <trkpt lat="46.85334" lon="8.48895">
        <ele>2560</ele>
        <time>2021-08-12T10:00:34.462Z</time>
      </trkpt>
      <trkpt lat="46.85334" lon="8.48896">
        <ele>2560</ele>
        <time>2021-08-12T10:00:35.462Z</time>
      </trkpt>
      <trkpt lat="46.85334" lon="8.48897">
        <ele>2561</ele>
        <time>2021-08-12T10:00:36.462Z</time>
      </trkpt>
      <trkpt lat="46.85334" lon="8.48897">
        <ele>2561</ele>
        <time>2021-08-12T10:00:37.461Z</time>
      </trkpt>
      <trkpt lat="46.85334" lon="8.48898">
        <ele>2561</ele>
        <time>2021-08-12T10:00:38.462Z</time>
      </trkpt>
      <trkpt lat="46.85334" lon="8.48899">
        <ele>2561</ele>
        <time>2021-08-12T10:00:39.461Z</time>
      </trkpt>
      <trkpt lat="46.85334" lon="8.48899">
        <ele>2561</ele>
        <time>2021-08-12T10:00:40.461Z</time>
      </trkpt>
      <trkpt lat="46.85333" lon="8.489">
        <ele>2561</ele>
        <time>2021-08-12T10:00:41.462Z</time>
      </trkpt>
      <trkpt lat="46.85333" lon="8.489">
        <ele>2561</ele>
        <time>2021-08-12T10:00:42.462Z</time>
      </trkpt>
      <trkpt lat="46.85333" lon="8.48901">
        <ele>2561</ele>
        <time>2021-08-12T10:00:43.462Z</time>
      </trkpt>
      <trkpt lat="46.85333" lon="8.48901">
        <ele>2561</ele>
        <time>2021-08-12T10:00:44.462Z</time>
      </trkpt>
      <trkpt lat="46.85332" lon="8.48901">
        <ele>2561</ele>
        <time>2021-08-12T10:00:45.462Z</time>
      </trkpt>
      <trkpt lat="46.85332" lon="8.48902">
        <ele>2561</ele>
        <time>2021-08-12T10:00:46.462Z</time>
      </trkpt>
      <trkpt lat="46.85331" lon="8.48902">
        <ele>2561</ele>
        <time>2021-08-12T10:00:47.461Z</time>
      </trkpt>
      <trkpt lat="46.8533" lon="8.48903">
        <ele>2561</ele>
        <time>2021-08-12T10:00:48.462Z</time>
      </trkpt>
      <trkpt lat="46.8533" lon="8.48904">
        <ele>2561</ele>
        <time>2021-08-12T10:00:49.461Z</time>
      </trkpt>
      <trkpt lat="46.85331" lon="8.48904">
        <ele>2561</ele>
        <time>2021-08-12T10:00:50.462Z</time>
      </trkpt>
      <trkpt lat="46.85331" lon="8.48905">
        <ele>2561</ele>
        <time>2021-08-12T10:00:51.462Z</time>
      </trkpt>
      <trkpt lat="46.85332" lon="8.48906">
        <ele>2561</ele>
        <time>2021-08-12T10:00:52.462Z</time>
      </trkpt>
      <trkpt lat="46.85332" lon="8.48906">
        <ele>2562</ele>
        <time>2021-08-12T10:00:53.462Z</time>
      </trkpt>
      <trkpt lat="46.85332" lon="8.48907">
        <ele>2562</ele>
        <time>2021-08-12T10:00:54.462Z</time>
      </trkpt>
      <trkpt lat="46.85332" lon="8.48907">
        <ele>2562</ele>
        <time>2021-08-12T10:00:55.462Z</time>
      </trkpt>
      <trkpt lat="46.85333" lon="8.48908">
        <ele>2562</ele>
        <time>2021-08-12T10:00:56.461Z</time>
      </trkpt>
      <trkpt lat="46.85333" lon="8.48909">
        <ele>2563</ele>
        <time>2021-08-12T10:00:57.462Z</time>
      </trkpt>
      <trkpt lat="46.85333" lon="8.48909">
        <ele>2563</ele>
        <time>2021-08-12T10:00:58.462Z</time>
      </trkpt>
      <trkpt lat="46.85333" lon="8.4891">
        <ele>2564</ele>
        <time>2021-08-12T10:00:59.462Z</time>
      </trkpt>
      <trkpt lat="46.85333" lon="8.4891">
        <ele>2563</ele>
        <time>2021-08-12T10:01:00.462Z</time>
      </trkpt>
      <trkpt lat="46.85333" lon="8.4891">
        <ele>2563</ele>
        <time>2021-08-12T10:01:01.461Z</time>
      </trkpt>
      <trkpt lat="46.85333" lon="8.48911">
        <ele>2563</ele>
        <time>2021-08-12T10:01:02.462Z</time>
      </trkpt>
      <trkpt lat="46.85333" lon="8.48911">
        <ele>2563</ele>
        <time>2021-08-12T10:01:03.462Z</time>
      </trkpt>
      <trkpt lat="46.85332" lon="8.48911">
        <ele>2563</ele>
        <time>2021-08-12T10:01:04.461Z</time>
      </trkpt>
      <trkpt lat="46.85331" lon="8.48912">
        <ele>2563</ele>
        <time>2021-08-12T10:01:05.461Z</time>
      </trkpt>
      <trkpt lat="46.85331" lon="8.48912">
        <ele>2562</ele>
        <time>2021-08-12T10:01:06.462Z</time>
      </trkpt>
      <trkpt lat="46.85331" lon="8.48912">
        <ele>2562</ele>
        <time>2021-08-12T10:01:07.461Z</time>
      </trkpt>
      <trkpt lat="46.8533" lon="8.48913">
        <ele>2563</ele>
        <time>2021-08-12T10:01:08.461Z</time>
      </trkpt>
      <trkpt lat="46.85331" lon="8.48914">
        <ele>2563</ele>
        <time>2021-08-12T10:01:09.462Z</time>
      </trkpt>
      <trkpt lat="46.85331" lon="8.48915">
        <ele>2563</ele>
        <time>2021-08-12T10:01:10.461Z</time>
      </trkpt>
      <trkpt lat="46.85331" lon="8.48915">
        <ele>2564</ele>
        <time>2021-08-12T10:01:11.462Z</time>
      </trkpt>
      <trkpt lat="46.85331" lon="8.48916">
        <ele>2565</ele>
        <time>2021-08-12T10:01:12.462Z</time>
      </trkpt>
      <trkpt lat="46.85331" lon="8.48916">
        <ele>2565</ele>
        <time>2021-08-12T10:01:13.462Z</time>
      </trkpt>
      <trkpt lat="46.85331" lon="8.48917">
        <ele>2566</ele>
        <time>2021-08-12T10:01:14.462Z</time>
      </trkpt>
      <trkpt lat="46.85331" lon="8.48917">
        <ele>2566</ele>
        <time>2021-08-12T10:01:15.461Z</time>
      </trkpt>
      <trkpt lat="46.85331" lon="8.48918">
        <ele>2567</ele>
        <time>2021-08-12T10:01:16.461Z</time>
      </trkpt>
      <trkpt lat="46.85331" lon="8.48918">
        <ele>2567</ele>
        <time>2021-08-12T10:01:17.461Z</time>
      </trkpt>
      <trkpt lat="46.85331" lon="8.48919">
        <ele>2567</ele>
        <time>2021-08-12T10:01:18.461Z</time>
      </trkpt>
      <trkpt lat="46.85331" lon="8.4892">
        <ele>2568</ele>
        <time>2021-08-12T10:01:19.461Z</time>
      </trkpt>
      <trkpt lat="46.85331" lon="8.48921">
        <ele>2568</ele>
        <time>2021-08-12T10:01:20.462Z</time>
      </trkpt>
      <trkpt lat="46.85331" lon="8.48922">
        <ele>2568</ele>
        <time>2021-08-12T10:01:21.461Z</time>
      </trkpt>
      <trkpt lat="46.85332" lon="8.48922">
        <ele>2568</ele>
        <time>2021-08-12T10:01:22.461Z</time>
      </trkpt>
      <trkpt lat="46.85332" lon="8.48923">
        <ele>2568</ele>
        <time>2021-08-12T10:01:23.461Z</time>
      </trkpt>
      <trkpt lat="46.85332" lon="8.48923">
        <ele>2568</ele>
        <time>2021-08-12T10:01:24.461Z</time>
      </trkpt>
      <trkpt lat="46.85332" lon="8.48924">
        <ele>2568</ele>
        <time>2021-08-12T10:01:25.461Z</time>
      </trkpt>
      <trkpt lat="46.85332" lon="8.48924">
        <ele>2568</ele>
        <time>2021-08-12T10:01:26.462Z</time>
      </trkpt>
      <trkpt lat="46.85332" lon="8.48925">
        <ele>2569</ele>
        <time>2021-08-12T10:01:27.462Z</time>
      </trkpt>
      <trkpt lat="46.85332" lon="8.48926">
        <ele>2569</ele>
        <time>2021-08-12T10:01:28.462Z</time>
      </trkpt>
      <trkpt lat="46.85331" lon="8.48926">
        <ele>2569</ele>
        <time>2021-08-12T10:01:29.462Z</time>
      </trkpt>
      <trkpt lat="46.85331" lon="8.48927">
        <ele>2569</ele>
        <time>2021-08-12T10:01:30.462Z</time>
      </trkpt>
      <trkpt lat="46.85331" lon="8.48927">
        <ele>2570</ele>
        <time>2021-08-12T10:01:31.462Z</time>
      </trkpt>
      <trkpt lat="46.8533" lon="8.48927">
        <ele>2570</ele>
        <time>2021-08-12T10:01:32.462Z</time>
      </trkpt>
      <trkpt lat="46.85329" lon="8.48928">
        <ele>2570</ele>
        <time>2021-08-12T10:01:33.462Z</time>
      </trkpt>
      <trkpt lat="46.85329" lon="8.48928">
        <ele>2570</ele>
        <time>2021-08-12T10:01:34.461Z</time>
      </trkpt>
      <trkpt lat="46.85328" lon="8.48928">
        <ele>2570</ele>
        <time>2021-08-12T10:01:35.461Z</time>
      </trkpt>
      <trkpt lat="46.85327" lon="8.48929">
        <ele>2570</ele>
        <time>2021-08-12T10:01:36.461Z</time>
      </trkpt>
      <trkpt lat="46.85327" lon="8.48929">
        <ele>2570</ele>
        <time>2021-08-12T10:01:37.461Z</time>
      </trkpt>
      <trkpt lat="46.85326" lon="8.4893">
        <ele>2570</ele>
        <time>2021-08-12T10:01:38.462Z</time>
      </trkpt>
      <trkpt lat="46.85326" lon="8.48931">
        <ele>2570</ele>
        <time>2021-08-12T10:01:39.462Z</time>
      </trkpt>
      <trkpt lat="46.85327" lon="8.48933">
        <ele>2570</ele>
        <time>2021-08-12T10:01:40.461Z</time>
      </trkpt>
      <trkpt lat="46.85327" lon="8.48934">
        <ele>2570</ele>
        <time>2021-08-12T10:01:41.461Z</time>
      </trkpt>
      <trkpt lat="46.85327" lon="8.48934">
        <ele>2570</ele>
        <time>2021-08-12T10:01:42.462Z</time>
      </trkpt>
      <trkpt lat="46.85328" lon="8.48935">
        <ele>2570</ele>
        <time>2021-08-12T10:01:43.461Z</time>
      </trkpt>
      <trkpt lat="46.85328" lon="8.48935">
        <ele>2571</ele>
        <time>2021-08-12T10:01:44.462Z</time>
      </trkpt>
      <trkpt lat="46.85328" lon="8.48936">
        <ele>2571</ele>
        <time>2021-08-12T10:01:45.461Z</time>
      </trkpt>
      <trkpt lat="46.85328" lon="8.48937">
        <ele>2571</ele>
        <time>2021-08-12T10:01:46.462Z</time>
      </trkpt>
      <trkpt lat="46.85328" lon="8.48937">
        <ele>2571</ele>
        <time>2021-08-12T10:01:47.461Z</time>
      </trkpt>
      <trkpt lat="46.85328" lon="8.48938">
        <ele>2571</ele>
        <time>2021-08-12T10:01:48.461Z</time>
      </trkpt>
      <trkpt lat="46.85327" lon="8.48938">
        <ele>2571</ele>
        <time>2021-08-12T10:01:49.461Z</time>
      </trkpt>
      <trkpt lat="46.85327" lon="8.48938">
        <ele>2572</ele>
        <time>2021-08-12T10:01:50.461Z</time>
      </trkpt>
      <trkpt lat="46.85326" lon="8.48938">
        <ele>2572</ele>
        <time>2021-08-12T10:01:51.462Z</time>
      </trkpt>
      <trkpt lat="46.85325" lon="8.48938">
        <ele>2572</ele>
        <time>2021-08-12T10:01:52.462Z</time>
      </trkpt>
      <trkpt lat="46.85325" lon="8.48939">
        <ele>2572</ele>
        <time>2021-08-12T10:01:53.461Z</time>
      </trkpt>
      <trkpt lat="46.85325" lon="8.4894">
        <ele>2572</ele>
        <time>2021-08-12T10:01:54.461Z</time>
      </trkpt>
      <trkpt lat="46.85325" lon="8.48941">
        <ele>2573</ele>
        <time>2021-08-12T10:01:55.461Z</time>
      </trkpt>
      <trkpt lat="46.85325" lon="8.48941">
        <ele>2573</ele>
        <time>2021-08-12T10:01:56.461Z</time>
      </trkpt>
      <trkpt lat="46.85326" lon="8.48942">
        <ele>2573</ele>
        <time>2021-08-12T10:01:57.462Z</time>
      </trkpt>
      <trkpt lat="46.85326" lon="8.48942">
        <ele>2573</ele>
        <time>2021-08-12T10:01:58.462Z</time>
      </trkpt>
      <trkpt lat="46.85326" lon="8.48943">
        <ele>2573</ele>
        <time>2021-08-12T10:01:59.462Z</time>
      </trkpt>
      <trkpt lat="46.85326" lon="8.48944">
        <ele>2574</ele>
        <time>2021-08-12T10:02:00.462Z</time>
      </trkpt>
      <trkpt lat="46.85326" lon="8.48945">
        <ele>2574</ele>
        <time>2021-08-12T10:02:01.462Z</time>
      </trkpt>
      <trkpt lat="46.85326" lon="8.48946">
        <ele>2575</ele>
        <time>2021-08-12T10:02:02.462Z</time>
      </trkpt>
      <trkpt lat="46.85325" lon="8.48947">
        <ele>2575</ele>
        <time>2021-08-12T10:02:03.462Z</time>
      </trkpt>
      <trkpt lat="46.85325" lon="8.48948">
        <ele>2575</ele>
        <time>2021-08-12T10:02:04.462Z</time>
      </trkpt>
      <trkpt lat="46.85325" lon="8.48949">
        <ele>2576</ele>
        <time>2021-08-12T10:02:05.462Z</time>
      </trkpt>
      <trkpt lat="46.85324" lon="8.48949">
        <ele>2576</ele>
        <time>2021-08-12T10:02:06.461Z</time>
      </trkpt>
      <trkpt lat="46.85324" lon="8.4895">
        <ele>2577</ele>
        <time>2021-08-12T10:02:07.462Z</time>
      </trkpt>
      <trkpt lat="46.85323" lon="8.48951">
        <ele>2577</ele>
        <time>2021-08-12T10:02:08.462Z</time>
      </trkpt>
      <trkpt lat="46.85323" lon="8.48952">
        <ele>2577</ele>
        <time>2021-08-12T10:02:09.461Z</time>
      </trkpt>
      <trkpt lat="46.85323" lon="8.48952">
        <ele>2577</ele>
        <time>2021-08-12T10:02:10.462Z</time>
      </trkpt>
      <trkpt lat="46.85323" lon="8.48953">
        <ele>2577</ele>
        <time>2021-08-12T10:02:11.462Z</time>
      </trkpt>
      <trkpt lat="46.85323" lon="8.48954">
        <ele>2578</ele>
        <time>2021-08-12T10:02:12.462Z</time>
      </trkpt>
      <trkpt lat="46.85323" lon="8.48955">
        <ele>2579</ele>
        <time>2021-08-12T10:02:13.462Z</time>
      </trkpt>
      <trkpt lat="46.85323" lon="8.48956">
        <ele>2579</ele>
        <time>2021-08-12T10:02:14.462Z</time>
      </trkpt>
      <trkpt lat="46.85323" lon="8.48957">
        <ele>2580</ele>
        <time>2021-08-12T10:02:15.461Z</time>
      </trkpt>
      <trkpt lat="46.85323" lon="8.48958">
        <ele>2580</ele>
        <time>2021-08-12T10:02:16.462Z</time>
      </trkpt>
      <trkpt lat="46.85323" lon="8.48959">
        <ele>2581</ele>
        <time>2021-08-12T10:02:17.461Z</time>
      </trkpt>
      <trkpt lat="46.85323" lon="8.4896">
        <ele>2581</ele>
        <time>2021-08-12T10:02:18.462Z</time>
      </trkpt>
      <trkpt lat="46.85323" lon="8.48961">
        <ele>2581</ele>
        <time>2021-08-12T10:02:19.461Z</time>
      </trkpt>
      <trkpt lat="46.85323" lon="8.48962">
        <ele>2582</ele>
        <time>2021-08-12T10:02:20.462Z</time>
      </trkpt>
      <trkpt lat="46.85323" lon="8.48963">
        <ele>2582</ele>
        <time>2021-08-12T10:02:21.461Z</time>
      </trkpt>
      <trkpt lat="46.85323" lon="8.48964">
        <ele>2582</ele>
        <time>2021-08-12T10:02:22.462Z</time>
      </trkpt>
      <trkpt lat="46.85323" lon="8.48965">
        <ele>2582</ele>
        <time>2021-08-12T10:02:23.462Z</time>
      </trkpt>
      <trkpt lat="46.85323" lon="8.48966">
        <ele>2582</ele>
        <time>2021-08-12T10:02:24.462Z</time>
      </trkpt>
      <trkpt lat="46.85323" lon="8.48967">
        <ele>2582</ele>
        <time>2021-08-12T10:02:25.462Z</time>
      </trkpt>
      <trkpt lat="46.85323" lon="8.48968">
        <ele>2582</ele>
        <time>2021-08-12T10:02:26.462Z</time>
      </trkpt>
      <trkpt lat="46.85323" lon="8.48969">
        <ele>2582</ele>
        <time>2021-08-12T10:02:27.462Z</time>
      </trkpt>
      <trkpt lat="46.85324" lon="8.4897">
        <ele>2582</ele>
        <time>2021-08-12T10:02:28.462Z</time>
      </trkpt>
      <trkpt lat="46.85324" lon="8.48971">
        <ele>2582</ele>
        <time>2021-08-12T10:02:29.461Z</time>
      </trkpt>
      <trkpt lat="46.85324" lon="8.48971">
        <ele>2582</ele>
        <time>2021-08-12T10:02:30.462Z</time>
      </trkpt>
      <trkpt lat="46.85324" lon="8.48971">
        <ele>2582</ele>
        <time>2021-08-12T10:02:31.462Z</time>
      </trkpt>
      <trkpt lat="46.85324" lon="8.4897">
        <ele>2584</ele>
        <time>2021-08-12T10:02:32.462Z</time>
      </trkpt>
      <trkpt lat="46.85325" lon="8.4897">
        <ele>2583</ele>
        <time>2021-08-12T10:02:33.463Z</time>
      </trkpt>
      <trkpt lat="46.85325" lon="8.4897">
        <ele>2583</ele>
        <time>2021-08-12T10:02:34.464Z</time>
      </trkpt>
      <trkpt lat="46.85325" lon="8.4897">
        <ele>2583</ele>
        <time>2021-08-12T10:02:35.463Z</time>
      </trkpt>
      <trkpt lat="46.85325" lon="8.4897">
        <ele>2583</ele>
        <time>2021-08-12T10:02:36.464Z</time>
      </trkpt>
      <trkpt lat="46.85325" lon="8.4897">
        <ele>2582</ele>
        <time>2021-08-12T10:02:37.463Z</time>
      </trkpt>
      <trkpt lat="46.85324" lon="8.48972">
        <ele>2578</ele>
        <time>2021-08-12T10:02:38.465Z</time>
      </trkpt>
      <trkpt lat="46.85323" lon="8.48971">
        <ele>2579</ele>
        <time>2021-08-12T10:02:39.466Z</time>
      </trkpt>
      <trkpt lat="46.85323" lon="8.48971">
        <ele>2578</ele>
        <time>2021-08-12T10:02:40.466Z</time>
      </trkpt>
      <trkpt lat="46.85324" lon="8.48971">
        <ele>2578</ele>
        <time>2021-08-12T10:02:41.465Z</time>
      </trkpt>
      <trkpt lat="46.85324" lon="8.48971">
        <ele>2578</ele>
        <time>2021-08-12T10:02:42.466Z</time>
      </trkpt>
      <trkpt lat="46.85325" lon="8.48971">
        <ele>2575</ele>
        <time>2021-08-12T10:02:43.466Z</time>
      </trkpt>
      <trkpt lat="46.85325" lon="8.48971">
        <ele>2575</ele>
        <time>2021-08-12T10:02:44.466Z</time>
      </trkpt>
      <trkpt lat="46.85325" lon="8.48969">
        <ele>2576</ele>
        <time>2021-08-12T10:02:45.465Z</time>
      </trkpt>
      <trkpt lat="46.85325" lon="8.48969">
        <ele>2576</ele>
        <time>2021-08-12T10:02:46.466Z</time>
      </trkpt>
      <trkpt lat="46.85324" lon="8.48967">
        <ele>2577</ele>
        <time>2021-08-12T10:02:47.465Z</time>
      </trkpt>
      <trkpt lat="46.85324" lon="8.48966">
        <ele>2577</ele>
        <time>2021-08-12T10:02:48.466Z</time>
      </trkpt>
      <trkpt lat="46.85324" lon="8.48965">
        <ele>2577</ele>
        <time>2021-08-12T10:02:49.466Z</time>
      </trkpt>
      <trkpt lat="46.85324" lon="8.48964">
        <ele>2577</ele>
        <time>2021-08-12T10:02:50.465Z</time>
      </trkpt>
      <trkpt lat="46.85324" lon="8.48963">
        <ele>2577</ele>
        <time>2021-08-12T10:02:51.466Z</time>
      </trkpt>
      <trkpt lat="46.85324" lon="8.48961">
        <ele>2578</ele>
        <time>2021-08-12T10:02:52.465Z</time>
      </trkpt>
      <trkpt lat="46.85323" lon="8.4896">
        <ele>2578</ele>
        <time>2021-08-12T10:02:53.466Z</time>
      </trkpt>
      <trkpt lat="46.85323" lon="8.48959">
        <ele>2578</ele>
        <time>2021-08-12T10:02:54.466Z</time>
      </trkpt>
      <trkpt lat="46.85323" lon="8.48958">
        <ele>2578</ele>
        <time>2021-08-12T10:02:55.465Z</time>
      </trkpt>
      <trkpt lat="46.85323" lon="8.48957">
        <ele>2579</ele>
        <time>2021-08-12T10:02:56.465Z</time>
      </trkpt>
      <trkpt lat="46.85323" lon="8.48956">
        <ele>2579</ele>
        <time>2021-08-12T10:02:57.465Z</time>
      </trkpt>
      <trkpt lat="46.85323" lon="8.48955">
        <ele>2579</ele>
        <time>2021-08-12T10:02:58.466Z</time>
      </trkpt>
      <trkpt lat="46.85323" lon="8.48955">
        <ele>2579</ele>
        <time>2021-08-12T10:02:59.465Z</time>
      </trkpt>
      <trkpt lat="46.85323" lon="8.48954">
        <ele>2579</ele>
        <time>2021-08-12T10:03:00.465Z</time>
      </trkpt>
      <trkpt lat="46.85323" lon="8.48953">
        <ele>2579</ele>
        <time>2021-08-12T10:03:01.466Z</time>
      </trkpt>
      <trkpt lat="46.85324" lon="8.48952">
        <ele>2579</ele>
        <time>2021-08-12T10:03:02.466Z</time>
      </trkpt>
      <trkpt lat="46.85324" lon="8.48951">
        <ele>2579</ele>
        <time>2021-08-12T10:03:03.465Z</time>
      </trkpt>
      <trkpt lat="46.85324" lon="8.48951">
        <ele>2580</ele>
        <time>2021-08-12T10:03:04.465Z</time>
      </trkpt>
      <trkpt lat="46.85325" lon="8.4895">
        <ele>2580</ele>
        <time>2021-08-12T10:03:05.465Z</time>
      </trkpt>
      <trkpt lat="46.85325" lon="8.48949">
        <ele>2581</ele>
        <time>2021-08-12T10:03:06.466Z</time>
      </trkpt>
      <trkpt lat="46.85326" lon="8.48949">
        <ele>2581</ele>
        <time>2021-08-12T10:03:07.466Z</time>
      </trkpt>
      <trkpt lat="46.85326" lon="8.48948">
        <ele>2582</ele>
        <time>2021-08-12T10:03:08.465Z</time>
      </trkpt>
      <trkpt lat="46.85326" lon="8.48948">
        <ele>2582</ele>
        <time>2021-08-12T10:03:09.466Z</time>
      </trkpt>
      <trkpt lat="46.85326" lon="8.48947">
        <ele>2582</ele>
        <time>2021-08-12T10:03:10.465Z</time>
      </trkpt>
      <trkpt lat="46.85326" lon="8.48947">
        <ele>2581</ele>
        <time>2021-08-12T10:03:11.465Z</time>
      </trkpt>
      <trkpt lat="46.85326" lon="8.48945">
        <ele>2580</ele>
        <time>2021-08-12T10:03:12.467Z</time>
      </trkpt>
      <trkpt lat="46.85327" lon="8.48945">
        <ele>2579</ele>
        <time>2021-08-12T10:03:13.467Z</time>
      </trkpt>
      <trkpt lat="46.85327" lon="8.48944">
        <ele>2579</ele>
        <time>2021-08-12T10:03:14.467Z</time>
      </trkpt>
      <trkpt lat="46.85328" lon="8.48943">
        <ele>2579</ele>
        <time>2021-08-12T10:03:15.467Z</time>
      </trkpt>
      <trkpt lat="46.85328" lon="8.48942">
        <ele>2578</ele>
        <time>2021-08-12T10:03:16.467Z</time>
      </trkpt>
      <trkpt lat="46.85328" lon="8.48941">
        <ele>2578</ele>
        <time>2021-08-12T10:03:17.466Z</time>
      </trkpt>
      <trkpt lat="46.85328" lon="8.48941">
        <ele>2577</ele>
        <time>2021-08-12T10:03:18.467Z</time>
      </trkpt>
      <trkpt lat="46.85327" lon="8.48942">
        <ele>2574</ele>
        <time>2021-08-12T10:03:19.469Z</time>
      </trkpt>
      <trkpt lat="46.85327" lon="8.48942">
        <ele>2574</ele>
        <time>2021-08-12T10:03:20.469Z</time>
      </trkpt>
      <trkpt lat="46.85326" lon="8.48942">
        <ele>2575</ele>
        <time>2021-08-12T10:03:21.469Z</time>
      </trkpt>
      <trkpt lat="46.85326" lon="8.48941">
        <ele>2575</ele>
        <time>2021-08-12T10:03:22.469Z</time>
      </trkpt>
      <trkpt lat="46.85325" lon="8.4894">
        <ele>2575</ele>
        <time>2021-08-12T10:03:23.469Z</time>
      </trkpt>
      <trkpt lat="46.85325" lon="8.4894">
        <ele>2575</ele>
        <time>2021-08-12T10:03:24.468Z</time>
      </trkpt>
      <trkpt lat="46.85325" lon="8.48939">
        <ele>2575</ele>
        <time>2021-08-12T10:03:25.468Z</time>
      </trkpt>
      <trkpt lat="46.85325" lon="8.48939">
        <ele>2575</ele>
        <time>2021-08-12T10:03:26.468Z</time>
      </trkpt>
      <trkpt lat="46.85326" lon="8.48939">
        <ele>2575</ele>
        <time>2021-08-12T10:03:27.469Z</time>
      </trkpt>
      <trkpt lat="46.85326" lon="8.48939">
        <ele>2575</ele>
        <time>2021-08-12T10:03:28.469Z</time>
      </trkpt>
      <trkpt lat="46.85327" lon="8.48939">
        <ele>2575</ele>
        <time>2021-08-12T10:03:29.469Z</time>
      </trkpt>
      <trkpt lat="46.85327" lon="8.48939">
        <ele>2575</ele>
        <time>2021-08-12T10:03:30.469Z</time>
      </trkpt>
      <trkpt lat="46.85328" lon="8.48938">
        <ele>2575</ele>
        <time>2021-08-12T10:03:31.469Z</time>
      </trkpt>
      <trkpt lat="46.85328" lon="8.48937">
        <ele>2576</ele>
        <time>2021-08-12T10:03:32.469Z</time>
      </trkpt>
      <trkpt lat="46.85328" lon="8.48936">
        <ele>2576</ele>
        <time>2021-08-12T10:03:33.468Z</time>
      </trkpt>
      <trkpt lat="46.85328" lon="8.48935">
        <ele>2576</ele>
        <time>2021-08-12T10:03:34.469Z</time>
      </trkpt>
      <trkpt lat="46.85328" lon="8.48934">
        <ele>2576</ele>
        <time>2021-08-12T10:03:35.469Z</time>
      </trkpt>
      <trkpt lat="46.85327" lon="8.48933">
        <ele>2576</ele>
        <time>2021-08-12T10:03:36.469Z</time>
      </trkpt>
      <trkpt lat="46.85326" lon="8.48933">
        <ele>2576</ele>
        <time>2021-08-12T10:03:37.468Z</time>
      </trkpt>
      <trkpt lat="46.85326" lon="8.48932">
        <ele>2576</ele>
        <time>2021-08-12T10:03:38.469Z</time>
      </trkpt>
      <trkpt lat="46.85326" lon="8.48932">
        <ele>2576</ele>
        <time>2021-08-12T10:03:39.469Z</time>
      </trkpt>
      <trkpt lat="46.85326" lon="8.48931">
        <ele>2577</ele>
        <time>2021-08-12T10:03:40.469Z</time>
      </trkpt>
      <trkpt lat="46.85326" lon="8.4893">
        <ele>2577</ele>
        <time>2021-08-12T10:03:41.468Z</time>
      </trkpt>
      <trkpt lat="46.85327" lon="8.4893">
        <ele>2576</ele>
        <time>2021-08-12T10:03:42.468Z</time>
      </trkpt>
      <trkpt lat="46.85327" lon="8.4893">
        <ele>2576</ele>
        <time>2021-08-12T10:03:43.469Z</time>
      </trkpt>
      <trkpt lat="46.85328" lon="8.48929">
        <ele>2575</ele>
        <time>2021-08-12T10:03:44.468Z</time>
      </trkpt>
      <trkpt lat="46.85328" lon="8.48928">
        <ele>2575</ele>
        <time>2021-08-12T10:03:45.469Z</time>
      </trkpt>
      <trkpt lat="46.85329" lon="8.48928">
        <ele>2575</ele>
        <time>2021-08-12T10:03:46.469Z</time>
      </trkpt>
      <trkpt lat="46.8533" lon="8.48927">
        <ele>2574</ele>
        <time>2021-08-12T10:03:47.469Z</time>
      </trkpt>
      <trkpt lat="46.8533" lon="8.48927">
        <ele>2574</ele>
        <time>2021-08-12T10:03:48.469Z</time>
      </trkpt>
      <trkpt lat="46.85331" lon="8.48925">
        <ele>2574</ele>
        <time>2021-08-12T10:03:49.468Z</time>
      </trkpt>
      <trkpt lat="46.85331" lon="8.48924">
        <ele>2574</ele>
        <time>2021-08-12T10:03:50.469Z</time>
      </trkpt>
      <trkpt lat="46.85331" lon="8.48924">
        <ele>2573</ele>
        <time>2021-08-12T10:03:51.468Z</time>
      </trkpt>
      <trkpt lat="46.8533" lon="8.48923">
        <ele>2573</ele>
        <time>2021-08-12T10:03:52.468Z</time>
      </trkpt>
      <trkpt lat="46.8533" lon="8.48922">
        <ele>2573</ele>
        <time>2021-08-12T10:03:53.469Z</time>
      </trkpt>
      <trkpt lat="46.85331" lon="8.48922">
        <ele>2572</ele>
        <time>2021-08-12T10:03:54.469Z</time>
      </trkpt>
      <trkpt lat="46.85331" lon="8.48921">
        <ele>2572</ele>
        <time>2021-08-12T10:03:55.468Z</time>
      </trkpt>
      <trkpt lat="46.85332" lon="8.4892">
        <ele>2572</ele>
        <time>2021-08-12T10:03:56.469Z</time>
      </trkpt>
      <trkpt lat="46.85333" lon="8.48919">
        <ele>2573</ele>
        <time>2021-08-12T10:03:57.468Z</time>
      </trkpt>
      <trkpt lat="46.85333" lon="8.48918">
        <ele>2574</ele>
        <time>2021-08-12T10:03:58.469Z</time>
      </trkpt>
      <trkpt lat="46.85332" lon="8.48916">
        <ele>2574</ele>
        <time>2021-08-12T10:03:59.469Z</time>
      </trkpt>
      <trkpt lat="46.85332" lon="8.48915">
        <ele>2574</ele>
        <time>2021-08-12T10:04:00.468Z</time>
      </trkpt>
      <trkpt lat="46.85332" lon="8.48914">
        <ele>2574</ele>
        <time>2021-08-12T10:04:01.469Z</time>
      </trkpt>
      <trkpt lat="46.85331" lon="8.48913">
        <ele>2574</ele>
        <time>2021-08-12T10:04:02.468Z</time>
      </trkpt>
      <trkpt lat="46.85332" lon="8.48912">
        <ele>2573</ele>
        <time>2021-08-12T10:04:03.469Z</time>
      </trkpt>
      <trkpt lat="46.85332" lon="8.48912">
        <ele>2573</ele>
        <time>2021-08-12T10:04:04.469Z</time>
      </trkpt>
      <trkpt lat="46.85332" lon="8.48912">
        <ele>2572</ele>
        <time>2021-08-12T10:04:05.469Z</time>
      </trkpt>
      <trkpt lat="46.85333" lon="8.48912">
        <ele>2572</ele>
        <time>2021-08-12T10:04:06.469Z</time>
      </trkpt>
      <trkpt lat="46.85334" lon="8.48911">
        <ele>2571</ele>
        <time>2021-08-12T10:04:07.469Z</time>
      </trkpt>
      <trkpt lat="46.85335" lon="8.48911">
        <ele>2571</ele>
        <time>2021-08-12T10:04:08.468Z</time>
      </trkpt>
      <trkpt lat="46.85335" lon="8.48909">
        <ele>2571</ele>
        <time>2021-08-12T10:04:09.468Z</time>
      </trkpt>
      <trkpt lat="46.85334" lon="8.48908">
        <ele>2571</ele>
        <time>2021-08-12T10:04:10.469Z</time>
      </trkpt>
      <trkpt lat="46.85334" lon="8.48907">
        <ele>2571</ele>
        <time>2021-08-12T10:04:11.469Z</time>
      </trkpt>
      <trkpt lat="46.85334" lon="8.48907">
        <ele>2570</ele>
        <time>2021-08-12T10:04:12.468Z</time>
      </trkpt>
      <trkpt lat="46.85334" lon="8.48905">
        <ele>2570</ele>
        <time>2021-08-12T10:04:13.469Z</time>
      </trkpt>
      <trkpt lat="46.85334" lon="8.48904">
        <ele>2569</ele>
        <time>2021-08-12T10:04:14.469Z</time>
      </trkpt>
      <trkpt lat="46.85334" lon="8.48903">
        <ele>2569</ele>
        <time>2021-08-12T10:04:15.468Z</time>
      </trkpt>
      <trkpt lat="46.85334" lon="8.48902">
        <ele>2569</ele>
        <time>2021-08-12T10:04:16.468Z</time>
      </trkpt>
      <trkpt lat="46.85334" lon="8.48901">
        <ele>2568</ele>
        <time>2021-08-12T10:04:17.469Z</time>
      </trkpt>
      <trkpt lat="46.85334" lon="8.489">
        <ele>2568</ele>
        <time>2021-08-12T10:04:18.468Z</time>
      </trkpt>
      <trkpt lat="46.85334" lon="8.48899">
        <ele>2568</ele>
        <time>2021-08-12T10:04:19.469Z</time>
      </trkpt>
      <trkpt lat="46.85335" lon="8.48897">
        <ele>2568</ele>
        <time>2021-08-12T10:04:20.469Z</time>
      </trkpt>
      <trkpt lat="46.85335" lon="8.48896">
        <ele>2568</ele>
        <time>2021-08-12T10:04:21.469Z</time>
      </trkpt>
      <trkpt lat="46.85335" lon="8.48895">
        <ele>2568</ele>
        <time>2021-08-12T10:04:22.469Z</time>
      </trkpt>
      <trkpt lat="46.85335" lon="8.48893">
        <ele>2568</ele>
        <time>2021-08-12T10:04:23.468Z</time>
      </trkpt>
      <trkpt lat="46.85336" lon="8.48893">
        <ele>2567</ele>
        <time>2021-08-12T10:04:24.469Z</time>
      </trkpt>
      <trkpt lat="46.85336" lon="8.48892">
        <ele>2566</ele>
        <time>2021-08-12T10:04:25.469Z</time>
      </trkpt>
      <trkpt lat="46.85337" lon="8.48892">
        <ele>2566</ele>
        <time>2021-08-12T10:04:26.469Z</time>
      </trkpt>
      <trkpt lat="46.85337" lon="8.48891">
        <ele>2565</ele>
        <time>2021-08-12T10:04:27.468Z</time>
      </trkpt>
      <trkpt lat="46.85337" lon="8.48889">
        <ele>2565</ele>
        <time>2021-08-12T10:04:28.469Z</time>
      </trkpt>
      <trkpt lat="46.85337" lon="8.48888">
        <ele>2565</ele>
        <time>2021-08-12T10:04:29.468Z</time>
      </trkpt>
      <trkpt lat="46.85336" lon="8.48887">
        <ele>2565</ele>
        <time>2021-08-12T10:04:30.469Z</time>
      </trkpt>
      <trkpt lat="46.85335" lon="8.48886">
        <ele>2564</ele>
        <time>2021-08-12T10:04:31.469Z</time>
      </trkpt>
      <trkpt lat="46.85335" lon="8.48885">
        <ele>2563</ele>
        <time>2021-08-12T10:04:32.469Z</time>
      </trkpt>
      <trkpt lat="46.85334" lon="8.48884">
        <ele>2562</ele>
        <time>2021-08-12T10:04:33.468Z</time>
      </trkpt>
      <trkpt lat="46.85334" lon="8.48883">
        <ele>2561</ele>
        <time>2021-08-12T10:04:34.469Z</time>
      </trkpt>
      <trkpt lat="46.85334" lon="8.48882">
        <ele>2561</ele>
        <time>2021-08-12T10:04:35.469Z</time>
      </trkpt>
      <trkpt lat="46.85334" lon="8.48881">
        <ele>2560</ele>
        <time>2021-08-12T10:04:36.469Z</time>
      </trkpt>
      <trkpt lat="46.85334" lon="8.4888">
        <ele>2560</ele>
        <time>2021-08-12T10:04:37.469Z</time>
      </trkpt>
      <trkpt lat="46.85334" lon="8.48879">
        <ele>2560</ele>
        <time>2021-08-12T10:04:38.469Z</time>
      </trkpt>
      <trkpt lat="46.85335" lon="8.48878">
        <ele>2559</ele>
        <time>2021-08-12T10:04:39.469Z</time>
      </trkpt>
      <trkpt lat="46.85335" lon="8.48877">
        <ele>2559</ele>
        <time>2021-08-12T10:04:40.468Z</time>
      </trkpt>
      <trkpt lat="46.85335" lon="8.48877">
        <ele>2560</ele>
        <time>2021-08-12T10:04:41.469Z</time>
      </trkpt>
      <trkpt lat="46.85333" lon="8.48877">
        <ele>2557</ele>
        <time>2021-08-12T10:04:42.470Z</time>
      </trkpt>
      <trkpt lat="46.85333" lon="8.48877">
        <ele>2558</ele>
        <time>2021-08-12T10:04:43.470Z</time>
      </trkpt>
      <trkpt lat="46.85334" lon="8.4888">
        <ele>2560</ele>
        <time>2021-08-12T10:04:44.471Z</time>
      </trkpt>
      <trkpt lat="46.85334" lon="8.4888">
        <ele>2560</ele>
        <time>2021-08-12T10:04:45.471Z</time>
      </trkpt>
      <trkpt lat="46.85335" lon="8.4888">
        <ele>2561</ele>
        <time>2021-08-12T10:04:46.471Z</time>
      </trkpt>
      <trkpt lat="46.85336" lon="8.48876">
        <ele>2560</ele>
        <time>2021-08-12T10:04:47.472Z</time>
      </trkpt>
      <trkpt lat="46.85336" lon="8.48876">
        <ele>2560</ele>
        <time>2021-08-12T10:04:48.472Z</time>
      </trkpt>
      <trkpt lat="46.85336" lon="8.48876">
        <ele>2561</ele>
        <time>2021-08-12T10:04:49.471Z</time>
      </trkpt>
      <trkpt lat="46.85337" lon="8.48878">
        <ele>2563</ele>
        <time>2021-08-12T10:04:50.472Z</time>
      </trkpt>
      <trkpt lat="46.85337" lon="8.48879">
        <ele>2562</ele>
        <time>2021-08-12T10:04:51.472Z</time>
      </trkpt>
      <trkpt lat="46.85337" lon="8.48879">
        <ele>2562</ele>
        <time>2021-08-12T10:04:52.471Z</time>
      </trkpt>
      <trkpt lat="46.85338" lon="8.48879">
        <ele>2562</ele>
        <time>2021-08-12T10:04:53.472Z</time>
      </trkpt>
      <trkpt lat="46.85338" lon="8.48879">
        <ele>2562</ele>
        <time>2021-08-12T10:04:54.471Z</time>
      </trkpt>
      <trkpt lat="46.85338" lon="8.48879">
        <ele>2561</ele>
        <time>2021-08-12T10:04:55.472Z</time>
      </trkpt>
      <trkpt lat="46.85338" lon="8.48878">
        <ele>2561</ele>
        <time>2021-08-12T10:04:56.471Z</time>
      </trkpt>
      <trkpt lat="46.85338" lon="8.48878">
        <ele>2561</ele>
        <time>2021-08-12T10:04:57.472Z</time>
      </trkpt>
      <trkpt lat="46.85338" lon="8.48877">
        <ele>2561</ele>
        <time>2021-08-12T10:04:58.472Z</time>
      </trkpt>
      <trkpt lat="46.85337" lon="8.48876">
        <ele>2557</ele>
        <time>2021-08-12T10:04:59.473Z</time>
      </trkpt>
      <trkpt lat="46.85337" lon="8.48876">
        <ele>2557</ele>
        <time>2021-08-12T10:05:00.473Z</time>
      </trkpt>
      <trkpt lat="46.85337" lon="8.48876">
        <ele>2557</ele>
        <time>2021-08-12T10:05:01.473Z</time>
      </trkpt>
      <trkpt lat="46.85338" lon="8.48876">
        <ele>2557</ele>
        <time>2021-08-12T10:05:02.473Z</time>
      </trkpt>
      <trkpt lat="46.8534" lon="8.48876">
        <ele>2561</ele>
        <time>2021-08-12T10:05:03.473Z</time>
      </trkpt>
      <trkpt lat="46.8534" lon="8.48876">
        <ele>2562</ele>
        <time>2021-08-12T10:05:04.473Z</time>
      </trkpt>
      <trkpt lat="46.8534" lon="8.48875">
        <ele>2563</ele>
        <time>2021-08-12T10:05:05.472Z</time>
      </trkpt>
      <trkpt lat="46.8534" lon="8.48875">
        <ele>2563</ele>
        <time>2021-08-12T10:05:06.472Z</time>
      </trkpt>
      <trkpt lat="46.85337" lon="8.48877">
        <ele>2556</ele>
        <time>2021-08-12T10:05:07.473Z</time>
      </trkpt>
      <trkpt lat="46.85335" lon="8.48878">
        <ele>2560</ele>
        <time>2021-08-12T10:05:08.474Z</time>
      </trkpt>
      <trkpt lat="46.85333" lon="8.48877">
        <ele>2564</ele>
        <time>2021-08-12T10:05:09.474Z</time>
      </trkpt>
      <trkpt lat="46.85333" lon="8.48876">
        <ele>2565</ele>
        <time>2021-08-12T10:05:10.474Z</time>
      </trkpt>
      <trkpt lat="46.85333" lon="8.48879">
        <ele>2568</ele>
        <time>2021-08-12T10:05:11.474Z</time>
      </trkpt>
      <trkpt lat="46.85333" lon="8.48879">
        <ele>2567</ele>
        <time>2021-08-12T10:05:12.475Z</time>
      </trkpt>
      <trkpt lat="46.85332" lon="8.48877">
        <ele>2567</ele>
        <time>2021-08-12T10:05:13.476Z</time>
      </trkpt>
      <trkpt lat="46.85332" lon="8.48877">
        <ele>2567</ele>
        <time>2021-08-12T10:05:14.475Z</time>
      </trkpt>
      <trkpt lat="46.85332" lon="8.48877">
        <ele>2566</ele>
        <time>2021-08-12T10:05:15.476Z</time>
      </trkpt>
      <trkpt lat="46.85332" lon="8.48877">
        <ele>2566</ele>
        <time>2021-08-12T10:05:16.475Z</time>
      </trkpt>
      <trkpt lat="46.85335" lon="8.48877">
        <ele>2560</ele>
        <time>2021-08-12T10:05:17.476Z</time>
      </trkpt>
      <trkpt lat="46.85335" lon="8.48877">
        <ele>2560</ele>
        <time>2021-08-12T10:05:18.475Z</time>
      </trkpt>
      <trkpt lat="46.85335" lon="8.48879">
        <ele>2561</ele>
        <time>2021-08-12T10:05:19.475Z</time>
      </trkpt>
      <trkpt lat="46.85335" lon="8.48879">
        <ele>2561</ele>
        <time>2021-08-12T10:05:20.476Z</time>
      </trkpt>
      <trkpt lat="46.85335" lon="8.48879">
        <ele>2561</ele>
        <time>2021-08-12T10:05:21.476Z</time>
      </trkpt>
      <trkpt lat="46.85335" lon="8.4888">
        <ele>2561</ele>
        <time>2021-08-12T10:05:22.476Z</time>
      </trkpt>
      <trkpt lat="46.85337" lon="8.48882">
        <ele>2562</ele>
        <time>2021-08-12T10:05:23.477Z</time>
      </trkpt>
      <trkpt lat="46.85337" lon="8.48882">
        <ele>2562</ele>
        <time>2021-08-12T10:05:24.477Z</time>
      </trkpt>
      <trkpt lat="46.85338" lon="8.48883">
        <ele>2562</ele>
        <time>2021-08-12T10:05:25.477Z</time>
      </trkpt>
      <trkpt lat="46.85338" lon="8.48884">
        <ele>2562</ele>
        <time>2021-08-12T10:05:26.478Z</time>
      </trkpt>
      <trkpt lat="46.85339" lon="8.48884">
        <ele>2562</ele>
        <time>2021-08-12T10:05:27.478Z</time>
      </trkpt>
      <trkpt lat="46.85339" lon="8.48885">
        <ele>2562</ele>
        <time>2021-08-12T10:05:28.478Z</time>
      </trkpt>
      <trkpt lat="46.8534" lon="8.48885">
        <ele>2563</ele>
        <time>2021-08-12T10:05:29.477Z</time>
      </trkpt>
      <trkpt lat="46.8534" lon="8.48886">
        <ele>2562</ele>
        <time>2021-08-12T10:05:30.477Z</time>
      </trkpt>
      <trkpt lat="46.8534" lon="8.48886">
        <ele>2562</ele>
        <time>2021-08-12T10:05:31.478Z</time>
      </trkpt>
      <trkpt lat="46.85337" lon="8.48883">
        <ele>2561</ele>
        <time>2021-08-12T10:05:32.479Z</time>
      </trkpt>
      <trkpt lat="46.85337" lon="8.48883">
        <ele>2562</ele>
        <time>2021-08-12T10:05:33.479Z</time>
      </trkpt>
      <trkpt lat="46.85338" lon="8.48882">
        <ele>2561</ele>
        <time>2021-08-12T10:05:34.478Z</time>
      </trkpt>
      <trkpt lat="46.85338" lon="8.48882">
        <ele>2561</ele>
        <time>2021-08-12T10:05:35.479Z</time>
      </trkpt>
      <trkpt lat="46.85338" lon="8.48882">
        <ele>2561</ele>
        <time>2021-08-12T10:05:36.479Z</time>
      </trkpt>
      <trkpt lat="46.85339" lon="8.48883">
        <ele>2562</ele>
        <time>2021-08-12T10:05:37.479Z</time>
      </trkpt>
      <trkpt lat="46.85339" lon="8.48882">
        <ele>2562</ele>
        <time>2021-08-12T10:05:38.480Z</time>
      </trkpt>
      <trkpt lat="46.85338" lon="8.48881">
        <ele>2562</ele>
        <time>2021-08-12T10:05:39.479Z</time>
      </trkpt>
      <trkpt lat="46.85338" lon="8.4888">
        <ele>2561</ele>
        <time>2021-08-12T10:05:40.480Z</time>
      </trkpt>
      <trkpt lat="46.85337" lon="8.48879">
        <ele>2561</ele>
        <time>2021-08-12T10:05:41.479Z</time>
      </trkpt>
      <trkpt lat="46.85337" lon="8.48879">
        <ele>2561</ele>
        <time>2021-08-12T10:05:42.480Z</time>
      </trkpt>
      <trkpt lat="46.85336" lon="8.48878">
        <ele>2560</ele>
        <time>2021-08-12T10:05:43.480Z</time>
      </trkpt>
      <trkpt lat="46.85336" lon="8.48878">
        <ele>2560</ele>
        <time>2021-08-12T10:05:44.480Z</time>
      </trkpt>
      <trkpt lat="46.85336" lon="8.48877">
        <ele>2559</ele>
        <time>2021-08-12T10:05:45.479Z</time>
      </trkpt>
      <trkpt lat="46.85335" lon="8.48877">
        <ele>2559</ele>
        <time>2021-08-12T10:05:46.480Z</time>
      </trkpt>
      <trkpt lat="46.85335" lon="8.48877">
        <ele>2558</ele>
        <time>2021-08-12T10:05:47.480Z</time>
      </trkpt>
      <trkpt lat="46.85335" lon="8.48876">
        <ele>2558</ele>
        <time>2021-08-12T10:05:48.479Z</time>
      </trkpt>
      <trkpt lat="46.85334" lon="8.48876">
        <ele>2558</ele>
        <time>2021-08-12T10:05:49.481Z</time>
      </trkpt>
      <trkpt lat="46.85334" lon="8.48875">
        <ele>2557</ele>
        <time>2021-08-12T10:05:50.480Z</time>
      </trkpt>
      <trkpt lat="46.85334" lon="8.48876">
        <ele>2557</ele>
        <time>2021-08-12T10:05:51.480Z</time>
      </trkpt>
      <trkpt lat="46.85333" lon="8.48875">
        <ele>2557</ele>
        <time>2021-08-12T10:05:52.480Z</time>
      </trkpt>
      <trkpt lat="46.85333" lon="8.48875">
        <ele>2556</ele>
        <time>2021-08-12T10:05:53.483Z</time>
      </trkpt>
      <trkpt lat="46.85334" lon="8.48875">
        <ele>2556</ele>
        <time>2021-08-12T10:05:54.483Z</time>
      </trkpt>
      <trkpt lat="46.85334" lon="8.48875">
        <ele>2556</ele>
        <time>2021-08-12T10:05:55.482Z</time>
      </trkpt>
      <trkpt lat="46.85333" lon="8.48876">
        <ele>2561</ele>
        <time>2021-08-12T10:05:56.484Z</time>
      </trkpt>
      <trkpt lat="46.85334" lon="8.48876">
        <ele>2560</ele>
        <time>2021-08-12T10:05:57.484Z</time>
      </trkpt>
      <trkpt lat="46.85334" lon="8.48875">
        <ele>2560</ele>
        <time>2021-08-12T10:05:58.483Z</time>
      </trkpt>
      <trkpt lat="46.85334" lon="8.48876">
        <ele>2559</ele>
        <time>2021-08-12T10:05:59.484Z</time>
      </trkpt>
      <trkpt lat="46.85335" lon="8.48874">
        <ele>2556</ele>
        <time>2021-08-12T10:06:00.485Z</time>
      </trkpt>
      <trkpt lat="46.85335" lon="8.48874">
        <ele>2557</ele>
        <time>2021-08-12T10:06:01.485Z</time>
      </trkpt>
      <trkpt lat="46.85334" lon="8.48874">
        <ele>2557</ele>
        <time>2021-08-12T10:06:02.485Z</time>
      </trkpt>
      <trkpt lat="46.85334" lon="8.48875">
        <ele>2557</ele>
        <time>2021-08-12T10:06:03.486Z</time>
      </trkpt>
      <trkpt lat="46.85335" lon="8.48875">
        <ele>2556</ele>
        <time>2021-08-12T10:06:04.485Z</time>
      </trkpt>
      <trkpt lat="46.85335" lon="8.48875">
        <ele>2556</ele>
        <time>2021-08-12T10:06:05.485Z</time>
      </trkpt>
      <trkpt lat="46.85335" lon="8.48875">
        <ele>2555</ele>
        <time>2021-08-12T10:06:06.487Z</time>
      </trkpt>
      <trkpt lat="46.85335" lon="8.48875">
        <ele>2556</ele>
        <time>2021-08-12T10:06:07.487Z</time>
      </trkpt>
      <trkpt lat="46.85335" lon="8.48875">
        <ele>2556</ele>
        <time>2021-08-12T10:06:08.487Z</time>
      </trkpt>
      <trkpt lat="46.85334" lon="8.48876">
        <ele>2556</ele>
        <time>2021-08-12T10:06:09.487Z</time>
      </trkpt>
      <trkpt lat="46.85334" lon="8.48876">
        <ele>2556</ele>
        <time>2021-08-12T10:06:10.487Z</time>
      </trkpt>
      <trkpt lat="46.85334" lon="8.48875">
        <ele>2556</ele>
        <time>2021-08-12T10:06:11.487Z</time>
      </trkpt>
      <trkpt lat="46.85334" lon="8.48875">
        <ele>2555</ele>
        <time>2021-08-12T10:06:12.487Z</time>
      </trkpt>
      <trkpt lat="46.85334" lon="8.48875">
        <ele>2555</ele>
        <time>2021-08-12T10:06:13.487Z</time>
      </trkpt>
      <trkpt lat="46.85334" lon="8.48875">
        <ele>2554</ele>
        <time>2021-08-12T10:06:14.487Z</time>
      </trkpt>
      <trkpt lat="46.85334" lon="8.48875">
        <ele>2553</ele>
        <time>2021-08-12T10:06:15.487Z</time>
      </trkpt>
      <trkpt lat="46.85335" lon="8.48875">
        <ele>2554</ele>
        <time>2021-08-12T10:06:16.487Z</time>
      </trkpt>
      <trkpt lat="46.85335" lon="8.48875">
        <ele>2554</ele>
        <time>2021-08-12T10:06:17.487Z</time>
      </trkpt>
      <trkpt lat="46.85334" lon="8.48875">
        <ele>2555</ele>
        <time>2021-08-12T10:06:18.487Z</time>
      </trkpt>
      <trkpt lat="46.85333" lon="8.48875">
        <ele>2558</ele>
        <time>2021-08-12T10:06:19.488Z</time>
      </trkpt>
      <trkpt lat="46.85332" lon="8.48875">
        <ele>2558</ele>
        <time>2021-08-12T10:06:20.487Z</time>
      </trkpt>
      <trkpt lat="46.85332" lon="8.48875">
        <ele>2559</ele>
        <time>2021-08-12T10:06:21.489Z</time>
      </trkpt>
      <trkpt lat="46.85331" lon="8.48874">
        <ele>2560</ele>
        <time>2021-08-12T10:06:22.488Z</time>
      </trkpt>
      <trkpt lat="46.85332" lon="8.48875">
        <ele>2559</ele>
        <time>2021-08-12T10:06:23.489Z</time>
      </trkpt>
      <trkpt lat="46.85333" lon="8.48875">
        <ele>2556</ele>
        <time>2021-08-12T10:06:24.489Z</time>
      </trkpt>
      <trkpt lat="46.85333" lon="8.48875">
        <ele>2556</ele>
        <time>2021-08-12T10:06:25.489Z</time>
      </trkpt>
      <trkpt lat="46.85333" lon="8.48876">
        <ele>2557</ele>
        <time>2021-08-12T10:06:26.488Z</time>
      </trkpt>
      <trkpt lat="46.85333" lon="8.48876">
        <ele>2558</ele>
        <time>2021-08-12T10:06:27.488Z</time>
      </trkpt>
      <trkpt lat="46.85333" lon="8.48875">
        <ele>2558</ele>
        <time>2021-08-12T10:06:28.489Z</time>
      </trkpt>
      <trkpt lat="46.85333" lon="8.48875">
        <ele>2560</ele>
        <time>2021-08-12T10:06:29.489Z</time>
      </trkpt>
      <trkpt lat="46.85334" lon="8.48875">
        <ele>2560</ele>
        <time>2021-08-12T10:06:30.490Z</time>
      </trkpt>
      <trkpt lat="46.85334" lon="8.48875">
        <ele>2561</ele>
        <time>2021-08-12T10:06:31.489Z</time>
      </trkpt>
      <trkpt lat="46.85334" lon="8.48875">
        <ele>2562</ele>
        <time>2021-08-12T10:06:32.489Z</time>
      </trkpt>
      <trkpt lat="46.85334" lon="8.48876">
        <ele>2562</ele>
        <time>2021-08-12T10:06:33.490Z</time>
      </trkpt>
      <trkpt lat="46.85334" lon="8.48874">
        <ele>2565</ele>
        <time>2021-08-12T10:06:34.491Z</time>
      </trkpt>
      <trkpt lat="46.85334" lon="8.48874">
        <ele>2565</ele>
        <time>2021-08-12T10:06:35.491Z</time>
      </trkpt>
      <trkpt lat="46.85334" lon="8.48874">
        <ele>2565</ele>
        <time>2021-08-12T10:06:36.490Z</time>
      </trkpt>
      <trkpt lat="46.85333" lon="8.48873">
        <ele>2565</ele>
        <time>2021-08-12T10:06:37.490Z</time>
      </trkpt>
      <trkpt lat="46.85334" lon="8.48874">
        <ele>2557</ele>
        <time>2021-08-12T10:06:38.492Z</time>
      </trkpt>
      <trkpt lat="46.85333" lon="8.48873">
        <ele>2555</ele>
        <time>2021-08-12T10:06:39.493Z</time>
      </trkpt>
      <trkpt lat="46.85333" lon="8.48872">
        <ele>2554</ele>
        <time>2021-08-12T10:06:40.493Z</time>
      </trkpt>
      <trkpt lat="46.85333" lon="8.48871">
        <ele>2554</ele>
        <time>2021-08-12T10:06:41.492Z</time>
      </trkpt>
      <trkpt lat="46.85333" lon="8.48872">
        <ele>2553</ele>
        <time>2021-08-12T10:06:42.492Z</time>
      </trkpt>
      <trkpt lat="46.85332" lon="8.4887">
        <ele>2555</ele>
        <time>2021-08-12T10:06:43.493Z</time>
      </trkpt>
      <trkpt lat="46.85332" lon="8.4887">
        <ele>2555</ele>
        <time>2021-08-12T10:06:44.493Z</time>
      </trkpt>
      <trkpt lat="46.85332" lon="8.4887">
        <ele>2555</ele>
        <time>2021-08-12T10:06:45.493Z</time>
      </trkpt>
      <trkpt lat="46.85332" lon="8.4887">
        <ele>2555</ele>
        <time>2021-08-12T10:06:46.493Z</time>
      </trkpt>
      <trkpt lat="46.85331" lon="8.48871">
        <ele>2554</ele>
        <time>2021-08-12T10:06:47.493Z</time>
      </trkpt>
      <trkpt lat="46.85329" lon="8.4887">
        <ele>2554</ele>
        <time>2021-08-12T10:06:48.493Z</time>
      </trkpt>
      <trkpt lat="46.85329" lon="8.4887">
        <ele>2554</ele>
        <time>2021-08-12T10:06:49.493Z</time>
      </trkpt>
      <trkpt lat="46.85329" lon="8.48869">
        <ele>2554</ele>
        <time>2021-08-12T10:06:50.493Z</time>
      </trkpt>
      <trkpt lat="46.85329" lon="8.48868">
        <ele>2554</ele>
        <time>2021-08-12T10:06:51.494Z</time>
      </trkpt>
      <trkpt lat="46.85329" lon="8.48867">
        <ele>2554</ele>
        <time>2021-08-12T10:06:52.493Z</time>
      </trkpt>
      <trkpt lat="46.85329" lon="8.48867">
        <ele>2553</ele>
        <time>2021-08-12T10:06:53.495Z</time>
      </trkpt>
      <trkpt lat="46.85329" lon="8.48866">
        <ele>2552</ele>
        <time>2021-08-12T10:06:54.495Z</time>
      </trkpt>
      <trkpt lat="46.8533" lon="8.48866">
        <ele>2552</ele>
        <time>2021-08-12T10:06:55.495Z</time>
      </trkpt>
      <trkpt lat="46.8533" lon="8.48865">
        <ele>2551</ele>
        <time>2021-08-12T10:06:56.495Z</time>
      </trkpt>
      <trkpt lat="46.85329" lon="8.48864">
        <ele>2551</ele>
        <time>2021-08-12T10:06:57.496Z</time>
      </trkpt>
      <trkpt lat="46.85329" lon="8.48863">
        <ele>2551</ele>
        <time>2021-08-12T10:06:58.495Z</time>
      </trkpt>
      <trkpt lat="46.85329" lon="8.48863">
        <ele>2551</ele>
        <time>2021-08-12T10:06:59.495Z</time>
      </trkpt>
      <trkpt lat="46.85329" lon="8.48861">
        <ele>2552</ele>
        <time>2021-08-12T10:07:00.497Z</time>
      </trkpt>
      <trkpt lat="46.85329" lon="8.48861">
        <ele>2552</ele>
        <time>2021-08-12T10:07:01.497Z</time>
      </trkpt>
      <trkpt lat="46.85329" lon="8.4886">
        <ele>2552</ele>
        <time>2021-08-12T10:07:02.497Z</time>
      </trkpt>
      <trkpt lat="46.85328" lon="8.4886">
        <ele>2552</ele>
        <time>2021-08-12T10:07:03.497Z</time>
      </trkpt>
      <trkpt lat="46.85328" lon="8.48859">
        <ele>2552</ele>
        <time>2021-08-12T10:07:04.497Z</time>
      </trkpt>
      <trkpt lat="46.85328" lon="8.48859">
        <ele>2551</ele>
        <time>2021-08-12T10:07:05.497Z</time>
      </trkpt>
      <trkpt lat="46.85327" lon="8.4886">
        <ele>2551</ele>
        <time>2021-08-12T10:07:06.496Z</time>
      </trkpt>
      <trkpt lat="46.85326" lon="8.48859">
        <ele>2551</ele>
        <time>2021-08-12T10:07:07.497Z</time>
      </trkpt>
      <trkpt lat="46.85325" lon="8.4886">
        <ele>2551</ele>
        <time>2021-08-12T10:07:08.497Z</time>
      </trkpt>
      <trkpt lat="46.85325" lon="8.48861">
        <ele>2551</ele>
        <time>2021-08-12T10:07:09.497Z</time>
      </trkpt>
      <trkpt lat="46.85324" lon="8.48861">
        <ele>2551</ele>
        <time>2021-08-12T10:07:10.496Z</time>
      </trkpt>
      <trkpt lat="46.85324" lon="8.48862">
        <ele>2550</ele>
        <time>2021-08-12T10:07:11.497Z</time>
      </trkpt>
      <trkpt lat="46.85324" lon="8.48862">
        <ele>2550</ele>
        <time>2021-08-12T10:07:12.497Z</time>
      </trkpt>
      <trkpt lat="46.85323" lon="8.48863">
        <ele>2550</ele>
        <time>2021-08-12T10:07:13.497Z</time>
      </trkpt>
      <trkpt lat="46.85323" lon="8.48863">
        <ele>2549</ele>
        <time>2021-08-12T10:07:14.497Z</time>
      </trkpt>
      <trkpt lat="46.85322" lon="8.48863">
        <ele>2549</ele>
        <time>2021-08-12T10:07:15.497Z</time>
      </trkpt>
      <trkpt lat="46.85323" lon="8.48863">
        <ele>2548</ele>
        <time>2021-08-12T10:07:16.497Z</time>
      </trkpt>
      <trkpt lat="46.85324" lon="8.48863">
        <ele>2548</ele>
        <time>2021-08-12T10:07:17.496Z</time>
      </trkpt>
      <trkpt lat="46.85324" lon="8.48863">
        <ele>2548</ele>
        <time>2021-08-12T10:07:18.497Z</time>
      </trkpt>
      <trkpt lat="46.85324" lon="8.48863">
        <ele>2548</ele>
        <time>2021-08-12T10:07:19.497Z</time>
      </trkpt>
      <trkpt lat="46.85324" lon="8.48862">
        <ele>2548</ele>
        <time>2021-08-12T10:07:20.497Z</time>
      </trkpt>
      <trkpt lat="46.85324" lon="8.48861">
        <ele>2548</ele>
        <time>2021-08-12T10:07:21.497Z</time>
      </trkpt>
      <trkpt lat="46.85324" lon="8.4886">
        <ele>2548</ele>
        <time>2021-08-12T10:07:22.497Z</time>
      </trkpt>
      <trkpt lat="46.85324" lon="8.4886">
        <ele>2547</ele>
        <time>2021-08-12T10:07:23.496Z</time>
      </trkpt>
      <trkpt lat="46.85323" lon="8.48861">
        <ele>2547</ele>
        <time>2021-08-12T10:07:24.497Z</time>
      </trkpt>
      <trkpt lat="46.85323" lon="8.48861">
        <ele>2547</ele>
        <time>2021-08-12T10:07:25.497Z</time>
      </trkpt>
      <trkpt lat="46.85322" lon="8.48861">
        <ele>2547</ele>
        <time>2021-08-12T10:07:26.496Z</time>
      </trkpt>
      <trkpt lat="46.85322" lon="8.48861">
        <ele>2547</ele>
        <time>2021-08-12T10:07:27.496Z</time>
      </trkpt>
      <trkpt lat="46.85321" lon="8.48861">
        <ele>2546</ele>
        <time>2021-08-12T10:07:28.496Z</time>
      </trkpt>
      <trkpt lat="46.85321" lon="8.48861">
        <ele>2545</ele>
        <time>2021-08-12T10:07:29.497Z</time>
      </trkpt>
      <trkpt lat="46.85322" lon="8.4886">
        <ele>2545</ele>
        <time>2021-08-12T10:07:30.496Z</time>
      </trkpt>
      <trkpt lat="46.85322" lon="8.4886">
        <ele>2545</ele>
        <time>2021-08-12T10:07:31.497Z</time>
      </trkpt>
      <trkpt lat="46.85322" lon="8.48859">
        <ele>2545</ele>
        <time>2021-08-12T10:07:32.496Z</time>
      </trkpt>
      <trkpt lat="46.85322" lon="8.48858">
        <ele>2544</ele>
        <time>2021-08-12T10:07:33.497Z</time>
      </trkpt>
      <trkpt lat="46.8532" lon="8.48856">
        <ele>2544</ele>
        <time>2021-08-12T10:07:34.497Z</time>
      </trkpt>
      <trkpt lat="46.8532" lon="8.48854">
        <ele>2544</ele>
        <time>2021-08-12T10:07:35.496Z</time>
      </trkpt>
      <trkpt lat="46.85321" lon="8.48853">
        <ele>2543</ele>
        <time>2021-08-12T10:07:36.497Z</time>
      </trkpt>
      <trkpt lat="46.85322" lon="8.48853">
        <ele>2542</ele>
        <time>2021-08-12T10:07:37.496Z</time>
      </trkpt>
      <trkpt lat="46.85323" lon="8.48852">
        <ele>2542</ele>
        <time>2021-08-12T10:07:38.497Z</time>
      </trkpt>
      <trkpt lat="46.85323" lon="8.48851">
        <ele>2542</ele>
        <time>2021-08-12T10:07:39.496Z</time>
      </trkpt>
      <trkpt lat="46.85323" lon="8.4885">
        <ele>2542</ele>
        <time>2021-08-12T10:07:40.497Z</time>
      </trkpt>
      <trkpt lat="46.85321" lon="8.48849">
        <ele>2543</ele>
        <time>2021-08-12T10:07:41.497Z</time>
      </trkpt>
      <trkpt lat="46.8532" lon="8.48849">
        <ele>2544</ele>
        <time>2021-08-12T10:07:42.497Z</time>
      </trkpt>
      <trkpt lat="46.8532" lon="8.48849">
        <ele>2544</ele>
        <time>2021-08-12T10:07:43.497Z</time>
      </trkpt>
      <trkpt lat="46.85319" lon="8.48849">
        <ele>2544</ele>
        <time>2021-08-12T10:07:44.496Z</time>
      </trkpt>
      <trkpt lat="46.85318" lon="8.48848">
        <ele>2544</ele>
        <time>2021-08-12T10:07:45.497Z</time>
      </trkpt>
      <trkpt lat="46.85318" lon="8.48848">
        <ele>2545</ele>
        <time>2021-08-12T10:07:46.497Z</time>
      </trkpt>
      <trkpt lat="46.85317" lon="8.48847">
        <ele>2545</ele>
        <time>2021-08-12T10:07:47.496Z</time>
      </trkpt>
      <trkpt lat="46.85317" lon="8.48847">
        <ele>2545</ele>
        <time>2021-08-12T10:07:48.496Z</time>
      </trkpt>
      <trkpt lat="46.85318" lon="8.48847">
        <ele>2544</ele>
        <time>2021-08-12T10:07:49.497Z</time>
      </trkpt>
      <trkpt lat="46.85318" lon="8.48847">
        <ele>2544</ele>
        <time>2021-08-12T10:07:50.497Z</time>
      </trkpt>
      <trkpt lat="46.85319" lon="8.48846">
        <ele>2544</ele>
        <time>2021-08-12T10:07:51.497Z</time>
      </trkpt>
      <trkpt lat="46.85319" lon="8.48846">
        <ele>2544</ele>
        <time>2021-08-12T10:07:52.497Z</time>
      </trkpt>
      <trkpt lat="46.85319" lon="8.48846">
        <ele>2544</ele>
        <time>2021-08-12T10:07:53.497Z</time>
      </trkpt>
      <trkpt lat="46.85318" lon="8.48845">
        <ele>2544</ele>
        <time>2021-08-12T10:07:54.497Z</time>
      </trkpt>
      <trkpt lat="46.85318" lon="8.48844">
        <ele>2544</ele>
        <time>2021-08-12T10:07:55.496Z</time>
      </trkpt>
      <trkpt lat="46.85317" lon="8.48843">
        <ele>2544</ele>
        <time>2021-08-12T10:07:56.496Z</time>
      </trkpt>
      <trkpt lat="46.85317" lon="8.48843">
        <ele>2544</ele>
        <time>2021-08-12T10:07:57.496Z</time>
      </trkpt>
      <trkpt lat="46.85316" lon="8.48844">
        <ele>2544</ele>
        <time>2021-08-12T10:07:58.496Z</time>
      </trkpt>
      <trkpt lat="46.85315" lon="8.48844">
        <ele>2544</ele>
        <time>2021-08-12T10:07:59.496Z</time>
      </trkpt>
      <trkpt lat="46.85315" lon="8.48843">
        <ele>2543</ele>
        <time>2021-08-12T10:08:00.496Z</time>
      </trkpt>
      <trkpt lat="46.85314" lon="8.48844">
        <ele>2543</ele>
        <time>2021-08-12T10:08:01.496Z</time>
      </trkpt>
      <trkpt lat="46.85315" lon="8.48844">
        <ele>2543</ele>
        <time>2021-08-12T10:08:02.496Z</time>
      </trkpt>
      <trkpt lat="46.85315" lon="8.48843">
        <ele>2543</ele>
        <time>2021-08-12T10:08:03.496Z</time>
      </trkpt>
      <trkpt lat="46.85315" lon="8.48842">
        <ele>2543</ele>
        <time>2021-08-12T10:08:04.497Z</time>
      </trkpt>
      <trkpt lat="46.85314" lon="8.48842">
        <ele>2543</ele>
        <time>2021-08-12T10:08:05.497Z</time>
      </trkpt>
      <trkpt lat="46.85314" lon="8.48841">
        <ele>2543</ele>
        <time>2021-08-12T10:08:06.497Z</time>
      </trkpt>
      <trkpt lat="46.85315" lon="8.48841">
        <ele>2543</ele>
        <time>2021-08-12T10:08:07.496Z</time>
      </trkpt>
      <trkpt lat="46.85315" lon="8.4884">
        <ele>2542</ele>
        <time>2021-08-12T10:08:08.497Z</time>
      </trkpt>
      <trkpt lat="46.85315" lon="8.48839">
        <ele>2543</ele>
        <time>2021-08-12T10:08:09.497Z</time>
      </trkpt>
      <trkpt lat="46.85315" lon="8.48838">
        <ele>2543</ele>
        <time>2021-08-12T10:08:10.496Z</time>
      </trkpt>
      <trkpt lat="46.85314" lon="8.48837">
        <ele>2543</ele>
        <time>2021-08-12T10:08:11.496Z</time>
      </trkpt>
      <trkpt lat="46.85314" lon="8.48837">
        <ele>2543</ele>
        <time>2021-08-12T10:08:12.496Z</time>
      </trkpt>
      <trkpt lat="46.85313" lon="8.48836">
        <ele>2543</ele>
        <time>2021-08-12T10:08:13.497Z</time>
      </trkpt>
      <trkpt lat="46.85313" lon="8.48836">
        <ele>2543</ele>
        <time>2021-08-12T10:08:14.496Z</time>
      </trkpt>
      <trkpt lat="46.85312" lon="8.48836">
        <ele>2543</ele>
        <time>2021-08-12T10:08:15.496Z</time>
      </trkpt>
      <trkpt lat="46.85312" lon="8.48836">
        <ele>2543</ele>
        <time>2021-08-12T10:08:16.496Z</time>
      </trkpt>
      <trkpt lat="46.85311" lon="8.48836">
        <ele>2543</ele>
        <time>2021-08-12T10:08:17.496Z</time>
      </trkpt>
      <trkpt lat="46.85312" lon="8.48836">
        <ele>2543</ele>
        <time>2021-08-12T10:08:18.496Z</time>
      </trkpt>
      <trkpt lat="46.85312" lon="8.48836">
        <ele>2543</ele>
        <time>2021-08-12T10:08:19.497Z</time>
      </trkpt>
      <trkpt lat="46.85313" lon="8.48836">
        <ele>2543</ele>
        <time>2021-08-12T10:08:20.497Z</time>
      </trkpt>
      <trkpt lat="46.85313" lon="8.48835">
        <ele>2544</ele>
        <time>2021-08-12T10:08:21.496Z</time>
      </trkpt>
      <trkpt lat="46.85313" lon="8.48834">
        <ele>2544</ele>
        <time>2021-08-12T10:08:22.497Z</time>
      </trkpt>
      <trkpt lat="46.85313" lon="8.48834">
        <ele>2544</ele>
        <time>2021-08-12T10:08:23.497Z</time>
      </trkpt>
      <trkpt lat="46.85312" lon="8.48834">
        <ele>2544</ele>
        <time>2021-08-12T10:08:24.496Z</time>
      </trkpt>
      <trkpt lat="46.85312" lon="8.48834">
        <ele>2544</ele>
        <time>2021-08-12T10:08:25.497Z</time>
      </trkpt>
      <trkpt lat="46.85311" lon="8.48834">
        <ele>2544</ele>
        <time>2021-08-12T10:08:26.497Z</time>
      </trkpt>
      <trkpt lat="46.8531" lon="8.48834">
        <ele>2544</ele>
        <time>2021-08-12T10:08:27.497Z</time>
      </trkpt>
      <trkpt lat="46.85309" lon="8.48834">
        <ele>2544</ele>
        <time>2021-08-12T10:08:28.497Z</time>
      </trkpt>
      <trkpt lat="46.85309" lon="8.48833">
        <ele>2543</ele>
        <time>2021-08-12T10:08:29.496Z</time>
      </trkpt>
      <trkpt lat="46.85308" lon="8.48834">
        <ele>2543</ele>
        <time>2021-08-12T10:08:30.497Z</time>
      </trkpt>
      <trkpt lat="46.85307" lon="8.48833">
        <ele>2542</ele>
        <time>2021-08-12T10:08:31.497Z</time>
      </trkpt>
      <trkpt lat="46.85307" lon="8.48834">
        <ele>2542</ele>
        <time>2021-08-12T10:08:32.497Z</time>
      </trkpt>
      <trkpt lat="46.8531" lon="8.48835">
        <ele>2540</ele>
        <time>2021-08-12T10:08:33.496Z</time>
      </trkpt>
      <trkpt lat="46.85311" lon="8.48834">
        <ele>2540</ele>
        <time>2021-08-12T10:08:34.497Z</time>
      </trkpt>
      <trkpt lat="46.85311" lon="8.48834">
        <ele>2540</ele>
        <time>2021-08-12T10:08:35.496Z</time>
      </trkpt>
      <trkpt lat="46.85311" lon="8.48833">
        <ele>2541</ele>
        <time>2021-08-12T10:08:36.497Z</time>
      </trkpt>
      <trkpt lat="46.85311" lon="8.48832">
        <ele>2541</ele>
        <time>2021-08-12T10:08:37.497Z</time>
      </trkpt>
      <trkpt lat="46.85311" lon="8.48831">
        <ele>2540</ele>
        <time>2021-08-12T10:08:38.496Z</time>
      </trkpt>
      <trkpt lat="46.85311" lon="8.4883">
        <ele>2540</ele>
        <time>2021-08-12T10:08:39.497Z</time>
      </trkpt>
      <trkpt lat="46.85312" lon="8.48829">
        <ele>2540</ele>
        <time>2021-08-12T10:08:40.496Z</time>
      </trkpt>
      <trkpt lat="46.85311" lon="8.48828">
        <ele>2540</ele>
        <time>2021-08-12T10:08:41.496Z</time>
      </trkpt>
      <trkpt lat="46.85311" lon="8.48826">
        <ele>2539</ele>
        <time>2021-08-12T10:08:42.496Z</time>
      </trkpt>
      <trkpt lat="46.8531" lon="8.48825">
        <ele>2539</ele>
        <time>2021-08-12T10:08:43.497Z</time>
      </trkpt>
      <trkpt lat="46.85309" lon="8.48824">
        <ele>2538</ele>
        <time>2021-08-12T10:08:44.496Z</time>
      </trkpt>
      <trkpt lat="46.85309" lon="8.48823">
        <ele>2538</ele>
        <time>2021-08-12T10:08:45.496Z</time>
      </trkpt>
      <trkpt lat="46.85308" lon="8.48823">
        <ele>2537</ele>
        <time>2021-08-12T10:08:46.496Z</time>
      </trkpt>
      <trkpt lat="46.85308" lon="8.48823">
        <ele>2537</ele>
        <time>2021-08-12T10:08:47.497Z</time>
      </trkpt>
      <trkpt lat="46.85307" lon="8.48823">
        <ele>2537</ele>
        <time>2021-08-12T10:08:48.497Z</time>
      </trkpt>
      <trkpt lat="46.85306" lon="8.48823">
        <ele>2537</ele>
        <time>2021-08-12T10:08:49.496Z</time>
      </trkpt>
      <trkpt lat="46.85306" lon="8.48823">
        <ele>2537</ele>
        <time>2021-08-12T10:08:50.496Z</time>
      </trkpt>
      <trkpt lat="46.85306" lon="8.48823">
        <ele>2536</ele>
        <time>2021-08-12T10:08:51.496Z</time>
      </trkpt>
      <trkpt lat="46.85306" lon="8.48823">
        <ele>2536</ele>
        <time>2021-08-12T10:08:52.496Z</time>
      </trkpt>
      <trkpt lat="46.85306" lon="8.48823">
        <ele>2536</ele>
        <time>2021-08-12T10:08:53.496Z</time>
      </trkpt>
      <trkpt lat="46.85306" lon="8.48822">
        <ele>2536</ele>
        <time>2021-08-12T10:08:54.497Z</time>
      </trkpt>
      <trkpt lat="46.85306" lon="8.48822">
        <ele>2536</ele>
        <time>2021-08-12T10:08:55.497Z</time>
      </trkpt>
      <trkpt lat="46.85307" lon="8.48822">
        <ele>2536</ele>
        <time>2021-08-12T10:08:56.496Z</time>
      </trkpt>
      <trkpt lat="46.85307" lon="8.48821">
        <ele>2536</ele>
        <time>2021-08-12T10:08:57.496Z</time>
      </trkpt>
      <trkpt lat="46.85308" lon="8.48821">
        <ele>2535</ele>
        <time>2021-08-12T10:08:58.497Z</time>
      </trkpt>
      <trkpt lat="46.85308" lon="8.4882">
        <ele>2535</ele>
        <time>2021-08-12T10:08:59.496Z</time>
      </trkpt>
      <trkpt lat="46.85308" lon="8.48819">
        <ele>2535</ele>
        <time>2021-08-12T10:09:00.497Z</time>
      </trkpt>
      <trkpt lat="46.85308" lon="8.48819">
        <ele>2535</ele>
        <time>2021-08-12T10:09:01.496Z</time>
      </trkpt>
      <trkpt lat="46.85309" lon="8.48818">
        <ele>2535</ele>
        <time>2021-08-12T10:09:02.497Z</time>
      </trkpt>
      <trkpt lat="46.8531" lon="8.48818">
        <ele>2535</ele>
        <time>2021-08-12T10:09:03.497Z</time>
      </trkpt>
      <trkpt lat="46.85308" lon="8.48816">
        <ele>2535</ele>
        <time>2021-08-12T10:09:04.496Z</time>
      </trkpt>
      <trkpt lat="46.85307" lon="8.48815">
        <ele>2534</ele>
        <time>2021-08-12T10:09:05.497Z</time>
      </trkpt>
      <trkpt lat="46.85306" lon="8.48814">
        <ele>2534</ele>
        <time>2021-08-12T10:09:06.496Z</time>
      </trkpt>
      <trkpt lat="46.85305" lon="8.48814">
        <ele>2534</ele>
        <time>2021-08-12T10:09:07.496Z</time>
      </trkpt>
      <trkpt lat="46.85304" lon="8.48814">
        <ele>2533</ele>
        <time>2021-08-12T10:09:08.496Z</time>
      </trkpt>
      <trkpt lat="46.85304" lon="8.48815">
        <ele>2533</ele>
        <time>2021-08-12T10:09:09.497Z</time>
      </trkpt>
      <trkpt lat="46.85303" lon="8.48815">
        <ele>2533</ele>
        <time>2021-08-12T10:09:10.496Z</time>
      </trkpt>
      <trkpt lat="46.85303" lon="8.48815">
        <ele>2533</ele>
        <time>2021-08-12T10:09:11.497Z</time>
      </trkpt>
      <trkpt lat="46.85302" lon="8.48815">
        <ele>2533</ele>
        <time>2021-08-12T10:09:12.496Z</time>
      </trkpt>
      <trkpt lat="46.85302" lon="8.48815">
        <ele>2533</ele>
        <time>2021-08-12T10:09:13.496Z</time>
      </trkpt>
      <trkpt lat="46.85303" lon="8.48815">
        <ele>2533</ele>
        <time>2021-08-12T10:09:14.496Z</time>
      </trkpt>
      <trkpt lat="46.85304" lon="8.48814">
        <ele>2533</ele>
        <time>2021-08-12T10:09:15.497Z</time>
      </trkpt>
      <trkpt lat="46.85304" lon="8.48814">
        <ele>2533</ele>
        <time>2021-08-12T10:09:16.496Z</time>
      </trkpt>
      <trkpt lat="46.85304" lon="8.48813">
        <ele>2533</ele>
        <time>2021-08-12T10:09:17.496Z</time>
      </trkpt>
      <trkpt lat="46.85304" lon="8.48812">
        <ele>2533</ele>
        <time>2021-08-12T10:09:18.496Z</time>
      </trkpt>
      <trkpt lat="46.85305" lon="8.48812">
        <ele>2532</ele>
        <time>2021-08-12T10:09:19.496Z</time>
      </trkpt>
      <trkpt lat="46.85305" lon="8.48811">
        <ele>2532</ele>
        <time>2021-08-12T10:09:20.496Z</time>
      </trkpt>
      <trkpt lat="46.85306" lon="8.4881">
        <ele>2532</ele>
        <time>2021-08-12T10:09:21.497Z</time>
      </trkpt>
      <trkpt lat="46.85306" lon="8.4881">
        <ele>2532</ele>
        <time>2021-08-12T10:09:22.496Z</time>
      </trkpt>
      <trkpt lat="46.85307" lon="8.4881">
        <ele>2532</ele>
        <time>2021-08-12T10:09:23.496Z</time>
      </trkpt>
      <trkpt lat="46.85307" lon="8.48809">
        <ele>2532</ele>
        <time>2021-08-12T10:09:24.496Z</time>
      </trkpt>
      <trkpt lat="46.85308" lon="8.48808">
        <ele>2532</ele>
        <time>2021-08-12T10:09:25.496Z</time>
      </trkpt>
      <trkpt lat="46.85308" lon="8.48808">
        <ele>2532</ele>
        <time>2021-08-12T10:09:26.496Z</time>
      </trkpt>
      <trkpt lat="46.85307" lon="8.48806">
        <ele>2532</ele>
        <time>2021-08-12T10:09:27.496Z</time>
      </trkpt>
      <trkpt lat="46.85306" lon="8.48805">
        <ele>2533</ele>
        <time>2021-08-12T10:09:28.496Z</time>
      </trkpt>
      <trkpt lat="46.85305" lon="8.48805">
        <ele>2532</ele>
        <time>2021-08-12T10:09:29.496Z</time>
      </trkpt>
      <trkpt lat="46.85304" lon="8.48805">
        <ele>2532</ele>
        <time>2021-08-12T10:09:30.496Z</time>
      </trkpt>
      <trkpt lat="46.85303" lon="8.48805">
        <ele>2531</ele>
        <time>2021-08-12T10:09:31.497Z</time>
      </trkpt>
      <trkpt lat="46.85303" lon="8.48805">
        <ele>2530</ele>
        <time>2021-08-12T10:09:32.496Z</time>
      </trkpt>
      <trkpt lat="46.85302" lon="8.48805">
        <ele>2530</ele>
        <time>2021-08-12T10:09:33.497Z</time>
      </trkpt>
      <trkpt lat="46.85301" lon="8.48805">
        <ele>2530</ele>
        <time>2021-08-12T10:09:34.496Z</time>
      </trkpt>
      <trkpt lat="46.85301" lon="8.48805">
        <ele>2530</ele>
        <time>2021-08-12T10:09:35.497Z</time>
      </trkpt>
      <trkpt lat="46.853" lon="8.48805">
        <ele>2529</ele>
        <time>2021-08-12T10:09:36.496Z</time>
      </trkpt>
      <trkpt lat="46.853" lon="8.48805">
        <ele>2529</ele>
        <time>2021-08-12T10:09:37.496Z</time>
      </trkpt>
      <trkpt lat="46.853" lon="8.48805">
        <ele>2529</ele>
        <time>2021-08-12T10:09:38.497Z</time>
      </trkpt>
      <trkpt lat="46.853" lon="8.48805">
        <ele>2529</ele>
        <time>2021-08-12T10:09:39.497Z</time>
      </trkpt>
      <trkpt lat="46.853" lon="8.48804">
        <ele>2529</ele>
        <time>2021-08-12T10:09:40.496Z</time>
      </trkpt>
      <trkpt lat="46.85301" lon="8.48804">
        <ele>2529</ele>
        <time>2021-08-12T10:09:41.497Z</time>
      </trkpt>
      <trkpt lat="46.85302" lon="8.48804">
        <ele>2529</ele>
        <time>2021-08-12T10:09:42.496Z</time>
      </trkpt>
      <trkpt lat="46.85302" lon="8.48803">
        <ele>2528</ele>
        <time>2021-08-12T10:09:43.496Z</time>
      </trkpt>
      <trkpt lat="46.85302" lon="8.48802">
        <ele>2528</ele>
        <time>2021-08-12T10:09:44.496Z</time>
      </trkpt>
      <trkpt lat="46.85303" lon="8.48802">
        <ele>2528</ele>
        <time>2021-08-12T10:09:45.496Z</time>
      </trkpt>
      <trkpt lat="46.85303" lon="8.48801">
        <ele>2527</ele>
        <time>2021-08-12T10:09:46.496Z</time>
      </trkpt>
      <trkpt lat="46.85304" lon="8.48801">
        <ele>2527</ele>
        <time>2021-08-12T10:09:47.496Z</time>
      </trkpt>
      <trkpt lat="46.85305" lon="8.488">
        <ele>2527</ele>
        <time>2021-08-12T10:09:48.496Z</time>
      </trkpt>
      <trkpt lat="46.85304" lon="8.48798">
        <ele>2527</ele>
        <time>2021-08-12T10:09:49.496Z</time>
      </trkpt>
      <trkpt lat="46.85302" lon="8.48797">
        <ele>2527</ele>
        <time>2021-08-12T10:09:50.496Z</time>
      </trkpt>
      <trkpt lat="46.85301" lon="8.48795">
        <ele>2527</ele>
        <time>2021-08-12T10:09:51.497Z</time>
      </trkpt>
      <trkpt lat="46.85301" lon="8.48795">
        <ele>2527</ele>
        <time>2021-08-12T10:09:52.497Z</time>
      </trkpt>
      <trkpt lat="46.853" lon="8.48796">
        <ele>2527</ele>
        <time>2021-08-12T10:09:53.496Z</time>
      </trkpt>
      <trkpt lat="46.85299" lon="8.48796">
        <ele>2526</ele>
        <time>2021-08-12T10:09:54.496Z</time>
      </trkpt>
      <trkpt lat="46.85299" lon="8.48796">
        <ele>2526</ele>
        <time>2021-08-12T10:09:55.496Z</time>
      </trkpt>
      <trkpt lat="46.85299" lon="8.48796">
        <ele>2525</ele>
        <time>2021-08-12T10:09:56.496Z</time>
      </trkpt>
      <trkpt lat="46.85299" lon="8.48796">
        <ele>2525</ele>
        <time>2021-08-12T10:09:57.496Z</time>
      </trkpt>
      <trkpt lat="46.853" lon="8.48795">
        <ele>2524</ele>
        <time>2021-08-12T10:09:58.496Z</time>
      </trkpt>
      <trkpt lat="46.85301" lon="8.48795">
        <ele>2523</ele>
        <time>2021-08-12T10:09:59.496Z</time>
      </trkpt>
      <trkpt lat="46.85301" lon="8.48794">
        <ele>2523</ele>
        <time>2021-08-12T10:10:00.496Z</time>
      </trkpt>
      <trkpt lat="46.85301" lon="8.48794">
        <ele>2522</ele>
        <time>2021-08-12T10:10:01.496Z</time>
      </trkpt>
      <trkpt lat="46.85302" lon="8.48793">
        <ele>2521</ele>
        <time>2021-08-12T10:10:02.497Z</time>
      </trkpt>
      <trkpt lat="46.85302" lon="8.48793">
        <ele>2521</ele>
        <time>2021-08-12T10:10:03.497Z</time>
      </trkpt>
      <trkpt lat="46.85302" lon="8.48792">
        <ele>2521</ele>
        <time>2021-08-12T10:10:04.496Z</time>
      </trkpt>
      <trkpt lat="46.85302" lon="8.48791">
        <ele>2520</ele>
        <time>2021-08-12T10:10:05.496Z</time>
      </trkpt>
      <trkpt lat="46.85302" lon="8.4879">
        <ele>2520</ele>
        <time>2021-08-12T10:10:06.496Z</time>
      </trkpt>
      <trkpt lat="46.85302" lon="8.4879">
        <ele>2520</ele>
        <time>2021-08-12T10:10:07.496Z</time>
      </trkpt>
      <trkpt lat="46.85301" lon="8.48789">
        <ele>2521</ele>
        <time>2021-08-12T10:10:08.497Z</time>
      </trkpt>
      <trkpt lat="46.85301" lon="8.48788">
        <ele>2521</ele>
        <time>2021-08-12T10:10:09.496Z</time>
      </trkpt>
      <trkpt lat="46.85301" lon="8.48788">
        <ele>2521</ele>
        <time>2021-08-12T10:10:10.497Z</time>
      </trkpt>
      <trkpt lat="46.85301" lon="8.48788">
        <ele>2520</ele>
        <time>2021-08-12T10:10:11.496Z</time>
      </trkpt>
      <trkpt lat="46.85301" lon="8.48788">
        <ele>2520</ele>
        <time>2021-08-12T10:10:12.496Z</time>
      </trkpt>
      <trkpt lat="46.85302" lon="8.48787">
        <ele>2520</ele>
        <time>2021-08-12T10:10:13.496Z</time>
      </trkpt>
      <trkpt lat="46.85302" lon="8.48786">
        <ele>2521</ele>
        <time>2021-08-12T10:10:14.497Z</time>
      </trkpt>
      <trkpt lat="46.85303" lon="8.48787">
        <ele>2521</ele>
        <time>2021-08-12T10:10:15.496Z</time>
      </trkpt>
      <trkpt lat="46.85303" lon="8.48786">
        <ele>2521</ele>
        <time>2021-08-12T10:10:16.496Z</time>
      </trkpt>
      <trkpt lat="46.85304" lon="8.48785">
        <ele>2521</ele>
        <time>2021-08-12T10:10:17.496Z</time>
      </trkpt>
      <trkpt lat="46.85304" lon="8.48785">
        <ele>2521</ele>
        <time>2021-08-12T10:10:18.496Z</time>
      </trkpt>
      <trkpt lat="46.85304" lon="8.48784">
        <ele>2521</ele>
        <time>2021-08-12T10:10:19.496Z</time>
      </trkpt>
      <trkpt lat="46.85303" lon="8.48783">
        <ele>2521</ele>
        <time>2021-08-12T10:10:20.496Z</time>
      </trkpt>
      <trkpt lat="46.85303" lon="8.48782">
        <ele>2521</ele>
        <time>2021-08-12T10:10:21.496Z</time>
      </trkpt>
      <trkpt lat="46.85304" lon="8.48781">
        <ele>2521</ele>
        <time>2021-08-12T10:10:22.496Z</time>
      </trkpt>
      <trkpt lat="46.85304" lon="8.48781">
        <ele>2521</ele>
        <time>2021-08-12T10:10:23.496Z</time>
      </trkpt>
      <trkpt lat="46.85304" lon="8.4878">
        <ele>2521</ele>
        <time>2021-08-12T10:10:24.497Z</time>
      </trkpt>
      <trkpt lat="46.85304" lon="8.4878">
        <ele>2521</ele>
        <time>2021-08-12T10:10:25.496Z</time>
      </trkpt>
      <trkpt lat="46.85304" lon="8.48779">
        <ele>2520</ele>
        <time>2021-08-12T10:10:26.496Z</time>
      </trkpt>
      <trkpt lat="46.85305" lon="8.48779">
        <ele>2520</ele>
        <time>2021-08-12T10:10:27.496Z</time>
      </trkpt>
      <trkpt lat="46.85306" lon="8.48779">
        <ele>2520</ele>
        <time>2021-08-12T10:10:28.496Z</time>
      </trkpt>
      <trkpt lat="46.85307" lon="8.48778">
        <ele>2520</ele>
        <time>2021-08-12T10:10:29.496Z</time>
      </trkpt>
      <trkpt lat="46.85307" lon="8.48778">
        <ele>2520</ele>
        <time>2021-08-12T10:10:30.496Z</time>
      </trkpt>
      <trkpt lat="46.85307" lon="8.48777">
        <ele>2520</ele>
        <time>2021-08-12T10:10:31.496Z</time>
      </trkpt>
      <trkpt lat="46.85306" lon="8.48776">
        <ele>2520</ele>
        <time>2021-08-12T10:10:32.496Z</time>
      </trkpt>
      <trkpt lat="46.85305" lon="8.48775">
        <ele>2519</ele>
        <time>2021-08-12T10:10:33.496Z</time>
      </trkpt>
      <trkpt lat="46.85304" lon="8.48774">
        <ele>2519</ele>
        <time>2021-08-12T10:10:34.497Z</time>
      </trkpt>
      <trkpt lat="46.85303" lon="8.48773">
        <ele>2518</ele>
        <time>2021-08-12T10:10:35.496Z</time>
      </trkpt>
      <trkpt lat="46.85302" lon="8.48773">
        <ele>2518</ele>
        <time>2021-08-12T10:10:36.497Z</time>
      </trkpt>
      <trkpt lat="46.85301" lon="8.48772">
        <ele>2518</ele>
        <time>2021-08-12T10:10:37.496Z</time>
      </trkpt>
      <trkpt lat="46.853" lon="8.48772">
        <ele>2518</ele>
        <time>2021-08-12T10:10:38.496Z</time>
      </trkpt>
      <trkpt lat="46.853" lon="8.48772">
        <ele>2518</ele>
        <time>2021-08-12T10:10:39.496Z</time>
      </trkpt>
      <trkpt lat="46.853" lon="8.48772">
        <ele>2517</ele>
        <time>2021-08-12T10:10:40.497Z</time>
      </trkpt>
      <trkpt lat="46.853" lon="8.48771">
        <ele>2517</ele>
        <time>2021-08-12T10:10:41.496Z</time>
      </trkpt>
      <trkpt lat="46.853" lon="8.48771">
        <ele>2517</ele>
        <time>2021-08-12T10:10:42.496Z</time>
      </trkpt>
      <trkpt lat="46.85301" lon="8.48771">
        <ele>2516</ele>
        <time>2021-08-12T10:10:43.497Z</time>
      </trkpt>
      <trkpt lat="46.85302" lon="8.4877">
        <ele>2516</ele>
        <time>2021-08-12T10:10:44.496Z</time>
      </trkpt>
      <trkpt lat="46.85302" lon="8.4877">
        <ele>2515</ele>
        <time>2021-08-12T10:10:45.496Z</time>
      </trkpt>
      <trkpt lat="46.85302" lon="8.48769">
        <ele>2514</ele>
        <time>2021-08-12T10:10:46.496Z</time>
      </trkpt>
      <trkpt lat="46.85302" lon="8.48768">
        <ele>2514</ele>
        <time>2021-08-12T10:10:47.496Z</time>
      </trkpt>
      <trkpt lat="46.85303" lon="8.48768">
        <ele>2514</ele>
        <time>2021-08-12T10:10:48.496Z</time>
      </trkpt>
      <trkpt lat="46.85303" lon="8.48767">
        <ele>2514</ele>
        <time>2021-08-12T10:10:49.496Z</time>
      </trkpt>
      <trkpt lat="46.85303" lon="8.48767">
        <ele>2514</ele>
        <time>2021-08-12T10:10:50.496Z</time>
      </trkpt>
      <trkpt lat="46.85303" lon="8.48766">
        <ele>2513</ele>
        <time>2021-08-12T10:10:51.497Z</time>
      </trkpt>
      <trkpt lat="46.85303" lon="8.48765">
        <ele>2513</ele>
        <time>2021-08-12T10:10:52.496Z</time>
      </trkpt>
      <trkpt lat="46.85304" lon="8.48764">
        <ele>2513</ele>
        <time>2021-08-12T10:10:53.496Z</time>
      </trkpt>
      <trkpt lat="46.85304" lon="8.48763">
        <ele>2513</ele>
        <time>2021-08-12T10:10:54.496Z</time>
      </trkpt>
      <trkpt lat="46.85304" lon="8.48762">
        <ele>2512</ele>
        <time>2021-08-12T10:10:55.496Z</time>
      </trkpt>
      <trkpt lat="46.85304" lon="8.48761">
        <ele>2512</ele>
        <time>2021-08-12T10:10:56.496Z</time>
      </trkpt>
      <trkpt lat="46.85303" lon="8.48761">
        <ele>2512</ele>
        <time>2021-08-12T10:10:57.497Z</time>
      </trkpt>
      <trkpt lat="46.85304" lon="8.4876">
        <ele>2512</ele>
        <time>2021-08-12T10:10:58.496Z</time>
      </trkpt>
      <trkpt lat="46.85304" lon="8.48759">
        <ele>2513</ele>
        <time>2021-08-12T10:10:59.497Z</time>
      </trkpt>
      <trkpt lat="46.85304" lon="8.48757">
        <ele>2513</ele>
        <time>2021-08-12T10:11:00.496Z</time>
      </trkpt>
      <trkpt lat="46.85304" lon="8.48756">
        <ele>2513</ele>
        <time>2021-08-12T10:11:01.496Z</time>
      </trkpt>
      <trkpt lat="46.85305" lon="8.48755">
        <ele>2513</ele>
        <time>2021-08-12T10:11:02.496Z</time>
      </trkpt>
      <trkpt lat="46.85304" lon="8.48754">
        <ele>2513</ele>
        <time>2021-08-12T10:11:03.496Z</time>
      </trkpt>
      <trkpt lat="46.85303" lon="8.48753">
        <ele>2513</ele>
        <time>2021-08-12T10:11:04.496Z</time>
      </trkpt>
      <trkpt lat="46.85303" lon="8.48752">
        <ele>2513</ele>
        <time>2021-08-12T10:11:05.496Z</time>
      </trkpt>
      <trkpt lat="46.85302" lon="8.4875">
        <ele>2513</ele>
        <time>2021-08-12T10:11:06.496Z</time>
      </trkpt>
      <trkpt lat="46.85302" lon="8.4875">
        <ele>2512</ele>
        <time>2021-08-12T10:11:07.497Z</time>
      </trkpt>
      <trkpt lat="46.85302" lon="8.48748">
        <ele>2512</ele>
        <time>2021-08-12T10:11:08.496Z</time>
      </trkpt>
      <trkpt lat="46.85301" lon="8.48747">
        <ele>2512</ele>
        <time>2021-08-12T10:11:09.496Z</time>
      </trkpt>
      <trkpt lat="46.85301" lon="8.48747">
        <ele>2512</ele>
        <time>2021-08-12T10:11:10.497Z</time>
      </trkpt>
      <trkpt lat="46.85301" lon="8.48746">
        <ele>2512</ele>
        <time>2021-08-12T10:11:11.496Z</time>
      </trkpt>
      <trkpt lat="46.853" lon="8.48746">
        <ele>2512</ele>
        <time>2021-08-12T10:11:12.496Z</time>
      </trkpt>
      <trkpt lat="46.85301" lon="8.48745">
        <ele>2511</ele>
        <time>2021-08-12T10:11:13.496Z</time>
      </trkpt>
      <trkpt lat="46.85301" lon="8.48745">
        <ele>2511</ele>
        <time>2021-08-12T10:11:14.496Z</time>
      </trkpt>
      <trkpt lat="46.85302" lon="8.48744">
        <ele>2511</ele>
        <time>2021-08-12T10:11:15.496Z</time>
      </trkpt>
      <trkpt lat="46.85302" lon="8.48744">
        <ele>2511</ele>
        <time>2021-08-12T10:11:16.496Z</time>
      </trkpt>
      <trkpt lat="46.85302" lon="8.48743">
        <ele>2511</ele>
        <time>2021-08-12T10:11:17.496Z</time>
      </trkpt>
      <trkpt lat="46.85302" lon="8.48742">
        <ele>2511</ele>
        <time>2021-08-12T10:11:18.496Z</time>
      </trkpt>
      <trkpt lat="46.85302" lon="8.48742">
        <ele>2511</ele>
        <time>2021-08-12T10:11:19.496Z</time>
      </trkpt>
      <trkpt lat="46.85302" lon="8.48741">
        <ele>2511</ele>
        <time>2021-08-12T10:11:20.496Z</time>
      </trkpt>
      <trkpt lat="46.85303" lon="8.48741">
        <ele>2511</ele>
        <time>2021-08-12T10:11:21.496Z</time>
      </trkpt>
      <trkpt lat="46.85303" lon="8.48741">
        <ele>2511</ele>
        <time>2021-08-12T10:11:22.497Z</time>
      </trkpt>
      <trkpt lat="46.85302" lon="8.4874">
        <ele>2511</ele>
        <time>2021-08-12T10:11:23.496Z</time>
      </trkpt>
      <trkpt lat="46.85302" lon="8.4874">
        <ele>2511</ele>
        <time>2021-08-12T10:11:24.496Z</time>
      </trkpt>
      <trkpt lat="46.85302" lon="8.48739">
        <ele>2512</ele>
        <time>2021-08-12T10:11:25.496Z</time>
      </trkpt>
      <trkpt lat="46.85298" lon="8.48733">
        <ele>2516</ele>
        <time>2021-08-12T10:11:26.497Z</time>
      </trkpt>
      <trkpt lat="46.85297" lon="8.48733">
        <ele>2516</ele>
        <time>2021-08-12T10:11:27.496Z</time>
      </trkpt>
      <trkpt lat="46.85297" lon="8.48732">
        <ele>2517</ele>
        <time>2021-08-12T10:11:28.497Z</time>
      </trkpt>
      <trkpt lat="46.85298" lon="8.48732">
        <ele>2516</ele>
        <time>2021-08-12T10:11:29.498Z</time>
      </trkpt>
      <trkpt lat="46.85297" lon="8.48731">
        <ele>2515</ele>
        <time>2021-08-12T10:11:30.497Z</time>
      </trkpt>
      <trkpt lat="46.85297" lon="8.48732">
        <ele>2515</ele>
        <time>2021-08-12T10:11:31.497Z</time>
      </trkpt>
      <trkpt lat="46.85296" lon="8.48732">
        <ele>2514</ele>
        <time>2021-08-12T10:11:32.498Z</time>
      </trkpt>
      <trkpt lat="46.85296" lon="8.48733">
        <ele>2513</ele>
        <time>2021-08-12T10:11:33.498Z</time>
      </trkpt>
      <trkpt lat="46.85297" lon="8.48732">
        <ele>2512</ele>
        <time>2021-08-12T10:11:34.498Z</time>
      </trkpt>
      <trkpt lat="46.85297" lon="8.48731">
        <ele>2512</ele>
        <time>2021-08-12T10:11:35.497Z</time>
      </trkpt>
      <trkpt lat="46.85298" lon="8.48731">
        <ele>2511</ele>
        <time>2021-08-12T10:11:36.498Z</time>
      </trkpt>
      <trkpt lat="46.85298" lon="8.48731">
        <ele>2511</ele>
        <time>2021-08-12T10:11:37.497Z</time>
      </trkpt>
      <trkpt lat="46.85298" lon="8.4873">
        <ele>2510</ele>
        <time>2021-08-12T10:11:38.498Z</time>
      </trkpt>
      <trkpt lat="46.85298" lon="8.48728">
        <ele>2510</ele>
        <time>2021-08-12T10:11:39.497Z</time>
      </trkpt>
      <trkpt lat="46.85298" lon="8.48728">
        <ele>2510</ele>
        <time>2021-08-12T10:11:40.498Z</time>
      </trkpt>
      <trkpt lat="46.85298" lon="8.48727">
        <ele>2510</ele>
        <time>2021-08-12T10:11:41.498Z</time>
      </trkpt>
      <trkpt lat="46.85298" lon="8.48726">
        <ele>2509</ele>
        <time>2021-08-12T10:11:42.498Z</time>
      </trkpt>
      <trkpt lat="46.85298" lon="8.48725">
        <ele>2509</ele>
        <time>2021-08-12T10:11:43.497Z</time>
      </trkpt>
      <trkpt lat="46.85298" lon="8.48725">
        <ele>2508</ele>
        <time>2021-08-12T10:11:44.498Z</time>
      </trkpt>
      <trkpt lat="46.85299" lon="8.48725">
        <ele>2507</ele>
        <time>2021-08-12T10:11:45.497Z</time>
      </trkpt>
      <trkpt lat="46.85299" lon="8.48724">
        <ele>2506</ele>
        <time>2021-08-12T10:11:46.498Z</time>
      </trkpt>
      <trkpt lat="46.85299" lon="8.48724">
        <ele>2505</ele>
        <time>2021-08-12T10:11:47.498Z</time>
      </trkpt>
      <trkpt lat="46.85299" lon="8.48723">
        <ele>2504</ele>
        <time>2021-08-12T10:11:48.498Z</time>
      </trkpt>
      <trkpt lat="46.85299" lon="8.48722">
        <ele>2504</ele>
        <time>2021-08-12T10:11:49.498Z</time>
      </trkpt>
      <trkpt lat="46.85299" lon="8.48721">
        <ele>2504</ele>
        <time>2021-08-12T10:11:50.498Z</time>
      </trkpt>
      <trkpt lat="46.85299" lon="8.4872">
        <ele>2504</ele>
        <time>2021-08-12T10:11:51.498Z</time>
      </trkpt>
      <trkpt lat="46.85298" lon="8.48719">
        <ele>2504</ele>
        <time>2021-08-12T10:11:52.498Z</time>
      </trkpt>
      <trkpt lat="46.85297" lon="8.48718">
        <ele>2504</ele>
        <time>2021-08-12T10:11:53.498Z</time>
      </trkpt>
      <trkpt lat="46.85297" lon="8.48718">
        <ele>2505</ele>
        <time>2021-08-12T10:11:54.497Z</time>
      </trkpt>
      <trkpt lat="46.85297" lon="8.48718">
        <ele>2505</ele>
        <time>2021-08-12T10:11:55.498Z</time>
      </trkpt>
      <trkpt lat="46.85297" lon="8.48718">
        <ele>2505</ele>
        <time>2021-08-12T10:11:56.498Z</time>
      </trkpt>
      <trkpt lat="46.85297" lon="8.48717">
        <ele>2505</ele>
        <time>2021-08-12T10:11:57.498Z</time>
      </trkpt>
      <trkpt lat="46.85298" lon="8.48718">
        <ele>2505</ele>
        <time>2021-08-12T10:11:58.498Z</time>
      </trkpt>
      <trkpt lat="46.85298" lon="8.48718">
        <ele>2505</ele>
        <time>2021-08-12T10:11:59.498Z</time>
      </trkpt>
      <trkpt lat="46.85299" lon="8.48717">
        <ele>2505</ele>
        <time>2021-08-12T10:12:00.498Z</time>
      </trkpt>
      <trkpt lat="46.85299" lon="8.48717">
        <ele>2505</ele>
        <time>2021-08-12T10:12:01.498Z</time>
      </trkpt>
      <trkpt lat="46.85299" lon="8.48716">
        <ele>2505</ele>
        <time>2021-08-12T10:12:02.497Z</time>
      </trkpt>
      <trkpt lat="46.85299" lon="8.48716">
        <ele>2505</ele>
        <time>2021-08-12T10:12:03.498Z</time>
      </trkpt>
      <trkpt lat="46.85299" lon="8.48715">
        <ele>2504</ele>
        <time>2021-08-12T10:12:04.498Z</time>
      </trkpt>
      <trkpt lat="46.85298" lon="8.48715">
        <ele>2503</ele>
        <time>2021-08-12T10:12:05.498Z</time>
      </trkpt>
      <trkpt lat="46.85298" lon="8.48713">
        <ele>2499</ele>
        <time>2021-08-12T10:12:06.499Z</time>
      </trkpt>
      <trkpt lat="46.85297" lon="8.48712">
        <ele>2499</ele>
        <time>2021-08-12T10:12:07.500Z</time>
      </trkpt>
      <trkpt lat="46.85297" lon="8.48712">
        <ele>2500</ele>
        <time>2021-08-12T10:12:08.499Z</time>
      </trkpt>
      <trkpt lat="46.85297" lon="8.48712">
        <ele>2500</ele>
        <time>2021-08-12T10:12:09.500Z</time>
      </trkpt>
      <trkpt lat="46.85297" lon="8.48712">
        <ele>2499</ele>
        <time>2021-08-12T10:12:10.500Z</time>
      </trkpt>
      <trkpt lat="46.85296" lon="8.48712">
        <ele>2499</ele>
        <time>2021-08-12T10:12:11.500Z</time>
      </trkpt>
      <trkpt lat="46.85296" lon="8.48711">
        <ele>2498</ele>
        <time>2021-08-12T10:12:12.500Z</time>
      </trkpt>
      <trkpt lat="46.85296" lon="8.48711">
        <ele>2498</ele>
        <time>2021-08-12T10:12:13.500Z</time>
      </trkpt>
      <trkpt lat="46.85296" lon="8.4871">
        <ele>2497</ele>
        <time>2021-08-12T10:12:14.499Z</time>
      </trkpt>
      <trkpt lat="46.85296" lon="8.4871">
        <ele>2497</ele>
        <time>2021-08-12T10:12:15.499Z</time>
      </trkpt>
      <trkpt lat="46.85296" lon="8.48709">
        <ele>2497</ele>
        <time>2021-08-12T10:12:16.499Z</time>
      </trkpt>
      <trkpt lat="46.85295" lon="8.48708">
        <ele>2497</ele>
        <time>2021-08-12T10:12:17.500Z</time>
      </trkpt>
      <trkpt lat="46.85295" lon="8.48707">
        <ele>2497</ele>
        <time>2021-08-12T10:12:18.499Z</time>
      </trkpt>
      <trkpt lat="46.85294" lon="8.48706">
        <ele>2498</ele>
        <time>2021-08-12T10:12:19.500Z</time>
      </trkpt>
      <trkpt lat="46.85294" lon="8.48705">
        <ele>2498</ele>
        <time>2021-08-12T10:12:20.500Z</time>
      </trkpt>
      <trkpt lat="46.85294" lon="8.48705">
        <ele>2498</ele>
        <time>2021-08-12T10:12:21.500Z</time>
      </trkpt>
      <trkpt lat="46.85295" lon="8.48705">
        <ele>2498</ele>
        <time>2021-08-12T10:12:22.500Z</time>
      </trkpt>
      <trkpt lat="46.85296" lon="8.48706">
        <ele>2498</ele>
        <time>2021-08-12T10:12:23.500Z</time>
      </trkpt>
      <trkpt lat="46.85296" lon="8.48705">
        <ele>2498</ele>
        <time>2021-08-12T10:12:24.500Z</time>
      </trkpt>
      <trkpt lat="46.85296" lon="8.48705">
        <ele>2498</ele>
        <time>2021-08-12T10:12:25.500Z</time>
      </trkpt>
      <trkpt lat="46.85295" lon="8.48704">
        <ele>2498</ele>
        <time>2021-08-12T10:12:26.499Z</time>
      </trkpt>
      <trkpt lat="46.85294" lon="8.48703">
        <ele>2498</ele>
        <time>2021-08-12T10:12:27.500Z</time>
      </trkpt>
      <trkpt lat="46.85293" lon="8.48702">
        <ele>2498</ele>
        <time>2021-08-12T10:12:28.500Z</time>
      </trkpt>
      <trkpt lat="46.85293" lon="8.48702">
        <ele>2497</ele>
        <time>2021-08-12T10:12:29.499Z</time>
      </trkpt>
      <trkpt lat="46.85292" lon="8.48702">
        <ele>2497</ele>
        <time>2021-08-12T10:12:30.500Z</time>
      </trkpt>
      <trkpt lat="46.85292" lon="8.48702">
        <ele>2497</ele>
        <time>2021-08-12T10:12:31.500Z</time>
      </trkpt>
      <trkpt lat="46.85292" lon="8.48701">
        <ele>2497</ele>
        <time>2021-08-12T10:12:32.500Z</time>
      </trkpt>
      <trkpt lat="46.85292" lon="8.487">
        <ele>2496</ele>
        <time>2021-08-12T10:12:33.500Z</time>
      </trkpt>
      <trkpt lat="46.85292" lon="8.487">
        <ele>2496</ele>
        <time>2021-08-12T10:12:34.499Z</time>
      </trkpt>
      <trkpt lat="46.85292" lon="8.48699">
        <ele>2496</ele>
        <time>2021-08-12T10:12:35.500Z</time>
      </trkpt>
      <trkpt lat="46.85292" lon="8.48697">
        <ele>2496</ele>
        <time>2021-08-12T10:12:36.500Z</time>
      </trkpt>
      <trkpt lat="46.85293" lon="8.48697">
        <ele>2496</ele>
        <time>2021-08-12T10:12:37.500Z</time>
      </trkpt>
      <trkpt lat="46.85293" lon="8.48696">
        <ele>2496</ele>
        <time>2021-08-12T10:12:38.499Z</time>
      </trkpt>
      <trkpt lat="46.85293" lon="8.48696">
        <ele>2495</ele>
        <time>2021-08-12T10:12:39.500Z</time>
      </trkpt>
      <trkpt lat="46.85293" lon="8.48695">
        <ele>2495</ele>
        <time>2021-08-12T10:12:40.500Z</time>
      </trkpt>
      <trkpt lat="46.85293" lon="8.48695">
        <ele>2495</ele>
        <time>2021-08-12T10:12:41.500Z</time>
      </trkpt>
      <trkpt lat="46.85292" lon="8.48694">
        <ele>2495</ele>
        <time>2021-08-12T10:12:42.500Z</time>
      </trkpt>
      <trkpt lat="46.85291" lon="8.48693">
        <ele>2495</ele>
        <time>2021-08-12T10:12:43.499Z</time>
      </trkpt>
      <trkpt lat="46.85291" lon="8.48693">
        <ele>2495</ele>
        <time>2021-08-12T10:12:44.500Z</time>
      </trkpt>
      <trkpt lat="46.85291" lon="8.48692">
        <ele>2495</ele>
        <time>2021-08-12T10:12:45.500Z</time>
      </trkpt>
      <trkpt lat="46.85289" lon="8.48691">
        <ele>2494</ele>
        <time>2021-08-12T10:12:46.499Z</time>
      </trkpt>
      <trkpt lat="46.85289" lon="8.4869">
        <ele>2494</ele>
        <time>2021-08-12T10:12:47.500Z</time>
      </trkpt>
      <trkpt lat="46.85289" lon="8.4869">
        <ele>2493</ele>
        <time>2021-08-12T10:12:48.499Z</time>
      </trkpt>
      <trkpt lat="46.85289" lon="8.48689">
        <ele>2493</ele>
        <time>2021-08-12T10:12:49.500Z</time>
      </trkpt>
      <trkpt lat="46.8529" lon="8.48688">
        <ele>2492</ele>
        <time>2021-08-12T10:12:50.499Z</time>
      </trkpt>
      <trkpt lat="46.8529" lon="8.48686">
        <ele>2492</ele>
        <time>2021-08-12T10:12:51.500Z</time>
      </trkpt>
      <trkpt lat="46.8529" lon="8.48686">
        <ele>2492</ele>
        <time>2021-08-12T10:12:52.499Z</time>
      </trkpt>
      <trkpt lat="46.8529" lon="8.48685">
        <ele>2492</ele>
        <time>2021-08-12T10:12:53.500Z</time>
      </trkpt>
      <trkpt lat="46.85289" lon="8.48684">
        <ele>2492</ele>
        <time>2021-08-12T10:12:54.499Z</time>
      </trkpt>
      <trkpt lat="46.85289" lon="8.48684">
        <ele>2492</ele>
        <time>2021-08-12T10:12:55.499Z</time>
      </trkpt>
      <trkpt lat="46.85289" lon="8.48683">
        <ele>2492</ele>
        <time>2021-08-12T10:12:56.499Z</time>
      </trkpt>
      <trkpt lat="46.85289" lon="8.48683">
        <ele>2492</ele>
        <time>2021-08-12T10:12:57.500Z</time>
      </trkpt>
      <trkpt lat="46.85288" lon="8.4868">
        <ele>2494</ele>
        <time>2021-08-12T10:12:58.500Z</time>
      </trkpt>
      <trkpt lat="46.85289" lon="8.4868">
        <ele>2494</ele>
        <time>2021-08-12T10:12:59.501Z</time>
      </trkpt>
      <trkpt lat="46.8529" lon="8.48678">
        <ele>2494</ele>
        <time>2021-08-12T10:13:00.501Z</time>
      </trkpt>
      <trkpt lat="46.85289" lon="8.48677">
        <ele>2493</ele>
        <time>2021-08-12T10:13:01.501Z</time>
      </trkpt>
      <trkpt lat="46.85289" lon="8.48676">
        <ele>2493</ele>
        <time>2021-08-12T10:13:02.500Z</time>
      </trkpt>
      <trkpt lat="46.85289" lon="8.48676">
        <ele>2493</ele>
        <time>2021-08-12T10:13:03.501Z</time>
      </trkpt>
      <trkpt lat="46.85289" lon="8.48676">
        <ele>2492</ele>
        <time>2021-08-12T10:13:04.501Z</time>
      </trkpt>
      <trkpt lat="46.85289" lon="8.48676">
        <ele>2492</ele>
        <time>2021-08-12T10:13:05.500Z</time>
      </trkpt>
      <trkpt lat="46.85289" lon="8.48675">
        <ele>2492</ele>
        <time>2021-08-12T10:13:06.501Z</time>
      </trkpt>
      <trkpt lat="46.85289" lon="8.48674">
        <ele>2492</ele>
        <time>2021-08-12T10:13:07.500Z</time>
      </trkpt>
      <trkpt lat="46.85288" lon="8.48673">
        <ele>2492</ele>
        <time>2021-08-12T10:13:08.501Z</time>
      </trkpt>
      <trkpt lat="46.85288" lon="8.48673">
        <ele>2492</ele>
        <time>2021-08-12T10:13:09.500Z</time>
      </trkpt>
      <trkpt lat="46.85287" lon="8.48673">
        <ele>2492</ele>
        <time>2021-08-12T10:13:10.500Z</time>
      </trkpt>
      <trkpt lat="46.85287" lon="8.48672">
        <ele>2491</ele>
        <time>2021-08-12T10:13:11.501Z</time>
      </trkpt>
      <trkpt lat="46.85286" lon="8.48672">
        <ele>2491</ele>
        <time>2021-08-12T10:13:12.501Z</time>
      </trkpt>
      <trkpt lat="46.85286" lon="8.48672">
        <ele>2490</ele>
        <time>2021-08-12T10:13:13.500Z</time>
      </trkpt>
      <trkpt lat="46.85286" lon="8.48671">
        <ele>2488</ele>
        <time>2021-08-12T10:13:14.501Z</time>
      </trkpt>
      <trkpt lat="46.85286" lon="8.48671">
        <ele>2487</ele>
        <time>2021-08-12T10:13:15.501Z</time>
      </trkpt>
      <trkpt lat="46.85286" lon="8.4867">
        <ele>2486</ele>
        <time>2021-08-12T10:13:16.501Z</time>
      </trkpt>
      <trkpt lat="46.85286" lon="8.48668">
        <ele>2486</ele>
        <time>2021-08-12T10:13:17.500Z</time>
      </trkpt>
      <trkpt lat="46.85286" lon="8.48667">
        <ele>2485</ele>
        <time>2021-08-12T10:13:18.500Z</time>
      </trkpt>
      <trkpt lat="46.85286" lon="8.48666">
        <ele>2485</ele>
        <time>2021-08-12T10:13:19.501Z</time>
      </trkpt>
      <trkpt lat="46.85286" lon="8.48665">
        <ele>2485</ele>
        <time>2021-08-12T10:13:20.501Z</time>
      </trkpt>
      <trkpt lat="46.85286" lon="8.48664">
        <ele>2484</ele>
        <time>2021-08-12T10:13:21.501Z</time>
      </trkpt>
      <trkpt lat="46.85285" lon="8.48663">
        <ele>2484</ele>
        <time>2021-08-12T10:13:22.501Z</time>
      </trkpt>
      <trkpt lat="46.85285" lon="8.48662">
        <ele>2483</ele>
        <time>2021-08-12T10:13:23.501Z</time>
      </trkpt>
      <trkpt lat="46.85285" lon="8.48661">
        <ele>2483</ele>
        <time>2021-08-12T10:13:24.500Z</time>
      </trkpt>
      <trkpt lat="46.85285" lon="8.4866">
        <ele>2483</ele>
        <time>2021-08-12T10:13:25.501Z</time>
      </trkpt>
      <trkpt lat="46.85285" lon="8.48659">
        <ele>2483</ele>
        <time>2021-08-12T10:13:26.501Z</time>
      </trkpt>
      <trkpt lat="46.85285" lon="8.48658">
        <ele>2483</ele>
        <time>2021-08-12T10:13:27.500Z</time>
      </trkpt>
      <trkpt lat="46.85285" lon="8.48657">
        <ele>2483</ele>
        <time>2021-08-12T10:13:28.500Z</time>
      </trkpt>
      <trkpt lat="46.85284" lon="8.48656">
        <ele>2484</ele>
        <time>2021-08-12T10:13:29.501Z</time>
      </trkpt>
      <trkpt lat="46.85284" lon="8.48655">
        <ele>2484</ele>
        <time>2021-08-12T10:13:30.501Z</time>
      </trkpt>
      <trkpt lat="46.85284" lon="8.48654">
        <ele>2484</ele>
        <time>2021-08-12T10:13:31.501Z</time>
      </trkpt>
      <trkpt lat="46.85283" lon="8.48653">
        <ele>2484</ele>
        <time>2021-08-12T10:13:32.501Z</time>
      </trkpt>
      <trkpt lat="46.85283" lon="8.48652">
        <ele>2484</ele>
        <time>2021-08-12T10:13:33.500Z</time>
      </trkpt>
      <trkpt lat="46.85283" lon="8.48651">
        <ele>2484</ele>
        <time>2021-08-12T10:13:34.501Z</time>
      </trkpt>
      <trkpt lat="46.85283" lon="8.4865">
        <ele>2484</ele>
        <time>2021-08-12T10:13:35.500Z</time>
      </trkpt>
      <trkpt lat="46.85282" lon="8.4865">
        <ele>2484</ele>
        <time>2021-08-12T10:13:36.501Z</time>
      </trkpt>
      <trkpt lat="46.85282" lon="8.48649">
        <ele>2484</ele>
        <time>2021-08-12T10:13:37.501Z</time>
      </trkpt>
      <trkpt lat="46.85281" lon="8.48649">
        <ele>2484</ele>
        <time>2021-08-12T10:13:38.501Z</time>
      </trkpt>
      <trkpt lat="46.85281" lon="8.48648">
        <ele>2484</ele>
        <time>2021-08-12T10:13:39.500Z</time>
      </trkpt>
      <trkpt lat="46.85281" lon="8.48648">
        <ele>2484</ele>
        <time>2021-08-12T10:13:40.501Z</time>
      </trkpt>
      <trkpt lat="46.85281" lon="8.48648">
        <ele>2484</ele>
        <time>2021-08-12T10:13:41.501Z</time>
      </trkpt>
      <trkpt lat="46.85281" lon="8.48646">
        <ele>2484</ele>
        <time>2021-08-12T10:13:42.501Z</time>
      </trkpt>
      <trkpt lat="46.85281" lon="8.48646">
        <ele>2484</ele>
        <time>2021-08-12T10:13:43.502Z</time>
      </trkpt>
      <trkpt lat="46.85281" lon="8.48645">
        <ele>2485</ele>
        <time>2021-08-12T10:13:44.502Z</time>
      </trkpt>
      <trkpt lat="46.85282" lon="8.48644">
        <ele>2485</ele>
        <time>2021-08-12T10:13:45.501Z</time>
      </trkpt>
      <trkpt lat="46.85282" lon="8.48644">
        <ele>2485</ele>
        <time>2021-08-12T10:13:46.502Z</time>
      </trkpt>
      <trkpt lat="46.85282" lon="8.48642">
        <ele>2485</ele>
        <time>2021-08-12T10:13:47.502Z</time>
      </trkpt>
      <trkpt lat="46.85281" lon="8.48641">
        <ele>2485</ele>
        <time>2021-08-12T10:13:48.502Z</time>
      </trkpt>
      <trkpt lat="46.85281" lon="8.4864">
        <ele>2484</ele>
        <time>2021-08-12T10:13:49.502Z</time>
      </trkpt>
      <trkpt lat="46.8528" lon="8.4864">
        <ele>2484</ele>
        <time>2021-08-12T10:13:50.502Z</time>
      </trkpt>
      <trkpt lat="46.85279" lon="8.48639">
        <ele>2483</ele>
        <time>2021-08-12T10:13:51.501Z</time>
      </trkpt>
      <trkpt lat="46.85279" lon="8.48638">
        <ele>2483</ele>
        <time>2021-08-12T10:13:52.501Z</time>
      </trkpt>
      <trkpt lat="46.85278" lon="8.48638">
        <ele>2483</ele>
        <time>2021-08-12T10:13:53.501Z</time>
      </trkpt>
      <trkpt lat="46.85277" lon="8.48639">
        <ele>2483</ele>
        <time>2021-08-12T10:13:54.502Z</time>
      </trkpt>
      <trkpt lat="46.85277" lon="8.48639">
        <ele>2482</ele>
        <time>2021-08-12T10:13:55.501Z</time>
      </trkpt>
      <trkpt lat="46.85276" lon="8.48639">
        <ele>2482</ele>
        <time>2021-08-12T10:13:56.501Z</time>
      </trkpt>
      <trkpt lat="46.85276" lon="8.4864">
        <ele>2482</ele>
        <time>2021-08-12T10:13:57.502Z</time>
      </trkpt>
      <trkpt lat="46.85275" lon="8.4864">
        <ele>2482</ele>
        <time>2021-08-12T10:13:58.502Z</time>
      </trkpt>
      <trkpt lat="46.85274" lon="8.4864">
        <ele>2481</ele>
        <time>2021-08-12T10:13:59.501Z</time>
      </trkpt>
      <trkpt lat="46.85274" lon="8.4864">
        <ele>2481</ele>
        <time>2021-08-12T10:14:00.502Z</time>
      </trkpt>
      <trkpt lat="46.85274" lon="8.4864">
        <ele>2481</ele>
        <time>2021-08-12T10:14:01.502Z</time>
      </trkpt>
      <trkpt lat="46.85274" lon="8.48639">
        <ele>2480</ele>
        <time>2021-08-12T10:14:02.501Z</time>
      </trkpt>
      <trkpt lat="46.85273" lon="8.48639">
        <ele>2480</ele>
        <time>2021-08-12T10:14:03.501Z</time>
      </trkpt>
      <trkpt lat="46.85273" lon="8.48639">
        <ele>2479</ele>
        <time>2021-08-12T10:14:04.501Z</time>
      </trkpt>
      <trkpt lat="46.85272" lon="8.48639">
        <ele>2479</ele>
        <time>2021-08-12T10:14:05.502Z</time>
      </trkpt>
      <trkpt lat="46.85272" lon="8.48639">
        <ele>2479</ele>
        <time>2021-08-12T10:14:06.502Z</time>
      </trkpt>
      <trkpt lat="46.85272" lon="8.48639">
        <ele>2479</ele>
        <time>2021-08-12T10:14:07.502Z</time>
      </trkpt>
      <trkpt lat="46.85272" lon="8.48638">
        <ele>2478</ele>
        <time>2021-08-12T10:14:08.501Z</time>
      </trkpt>
      <trkpt lat="46.85272" lon="8.48638">
        <ele>2478</ele>
        <time>2021-08-12T10:14:09.501Z</time>
      </trkpt>
      <trkpt lat="46.85273" lon="8.48637">
        <ele>2475</ele>
        <time>2021-08-12T10:14:10.501Z</time>
      </trkpt>
      <trkpt lat="46.85273" lon="8.48637">
        <ele>2474</ele>
        <time>2021-08-12T10:14:11.502Z</time>
      </trkpt>
      <trkpt lat="46.85273" lon="8.48636">
        <ele>2473</ele>
        <time>2021-08-12T10:14:12.501Z</time>
      </trkpt>
      <trkpt lat="46.85273" lon="8.48634">
        <ele>2473</ele>
        <time>2021-08-12T10:14:13.502Z</time>
      </trkpt>
      <trkpt lat="46.85273" lon="8.48633">
        <ele>2472</ele>
        <time>2021-08-12T10:14:14.502Z</time>
      </trkpt>
      <trkpt lat="46.85272" lon="8.48632">
        <ele>2472</ele>
        <time>2021-08-12T10:14:15.502Z</time>
      </trkpt>
      <trkpt lat="46.85272" lon="8.48631">
        <ele>2472</ele>
        <time>2021-08-12T10:14:16.502Z</time>
      </trkpt>
      <trkpt lat="46.85271" lon="8.48631">
        <ele>2472</ele>
        <time>2021-08-12T10:14:17.501Z</time>
      </trkpt>
      <trkpt lat="46.85271" lon="8.48631">
        <ele>2472</ele>
        <time>2021-08-12T10:14:18.502Z</time>
      </trkpt>
      <trkpt lat="46.8527" lon="8.48631">
        <ele>2472</ele>
        <time>2021-08-12T10:14:19.501Z</time>
      </trkpt>
      <trkpt lat="46.85269" lon="8.4863">
        <ele>2472</ele>
        <time>2021-08-12T10:14:20.502Z</time>
      </trkpt>
      <trkpt lat="46.85269" lon="8.4863">
        <ele>2473</ele>
        <time>2021-08-12T10:14:21.501Z</time>
      </trkpt>
      <trkpt lat="46.85268" lon="8.48629">
        <ele>2473</ele>
        <time>2021-08-12T10:14:22.501Z</time>
      </trkpt>
      <trkpt lat="46.85267" lon="8.48628">
        <ele>2474</ele>
        <time>2021-08-12T10:14:23.501Z</time>
      </trkpt>
      <trkpt lat="46.85267" lon="8.48628">
        <ele>2474</ele>
        <time>2021-08-12T10:14:24.502Z</time>
      </trkpt>
      <trkpt lat="46.85266" lon="8.48629">
        <ele>2475</ele>
        <time>2021-08-12T10:14:25.502Z</time>
      </trkpt>
      <trkpt lat="46.85265" lon="8.48629">
        <ele>2475</ele>
        <time>2021-08-12T10:14:26.502Z</time>
      </trkpt>
      <trkpt lat="46.85265" lon="8.48629">
        <ele>2475</ele>
        <time>2021-08-12T10:14:27.501Z</time>
      </trkpt>
      <trkpt lat="46.85265" lon="8.4863">
        <ele>2475</ele>
        <time>2021-08-12T10:14:28.502Z</time>
      </trkpt>
      <trkpt lat="46.85265" lon="8.4863">
        <ele>2475</ele>
        <time>2021-08-12T10:14:29.502Z</time>
      </trkpt>
      <trkpt lat="46.85266" lon="8.48629">
        <ele>2474</ele>
        <time>2021-08-12T10:14:30.501Z</time>
      </trkpt>
      <trkpt lat="46.85267" lon="8.48629">
        <ele>2473</ele>
        <time>2021-08-12T10:14:31.501Z</time>
      </trkpt>
      <trkpt lat="46.85267" lon="8.48628">
        <ele>2473</ele>
        <time>2021-08-12T10:14:32.502Z</time>
      </trkpt>
      <trkpt lat="46.85267" lon="8.48627">
        <ele>2473</ele>
        <time>2021-08-12T10:14:33.502Z</time>
      </trkpt>
      <trkpt lat="46.85268" lon="8.48625">
        <ele>2473</ele>
        <time>2021-08-12T10:14:34.502Z</time>
      </trkpt>
      <trkpt lat="46.85268" lon="8.48624">
        <ele>2472</ele>
        <time>2021-08-12T10:14:35.502Z</time>
      </trkpt>
      <trkpt lat="46.85269" lon="8.48623">
        <ele>2472</ele>
        <time>2021-08-12T10:14:36.502Z</time>
      </trkpt>
      <trkpt lat="46.85269" lon="8.48621">
        <ele>2473</ele>
        <time>2021-08-12T10:14:37.502Z</time>
      </trkpt>
      <trkpt lat="46.85269" lon="8.4862">
        <ele>2473</ele>
        <time>2021-08-12T10:14:38.502Z</time>
      </trkpt>
      <trkpt lat="46.85269" lon="8.48619">
        <ele>2474</ele>
        <time>2021-08-12T10:14:39.502Z</time>
      </trkpt>
      <trkpt lat="46.85269" lon="8.48619">
        <ele>2474</ele>
        <time>2021-08-12T10:14:40.501Z</time>
      </trkpt>
      <trkpt lat="46.85269" lon="8.48619">
        <ele>2474</ele>
        <time>2021-08-12T10:14:41.501Z</time>
      </trkpt>
      <trkpt lat="46.85268" lon="8.48618">
        <ele>2473</ele>
        <time>2021-08-12T10:14:42.502Z</time>
      </trkpt>
      <trkpt lat="46.85267" lon="8.48617">
        <ele>2473</ele>
        <time>2021-08-12T10:14:43.502Z</time>
      </trkpt>
      <trkpt lat="46.85267" lon="8.48617">
        <ele>2473</ele>
        <time>2021-08-12T10:14:44.501Z</time>
      </trkpt>
      <trkpt lat="46.85267" lon="8.48616">
        <ele>2473</ele>
        <time>2021-08-12T10:14:45.502Z</time>
      </trkpt>
      <trkpt lat="46.85268" lon="8.48615">
        <ele>2473</ele>
        <time>2021-08-12T10:14:46.501Z</time>
      </trkpt>
      <trkpt lat="46.85269" lon="8.48614">
        <ele>2473</ele>
        <time>2021-08-12T10:14:47.502Z</time>
      </trkpt>
      <trkpt lat="46.8527" lon="8.48613">
        <ele>2473</ele>
        <time>2021-08-12T10:14:48.501Z</time>
      </trkpt>
      <trkpt lat="46.8527" lon="8.48613">
        <ele>2473</ele>
        <time>2021-08-12T10:14:49.502Z</time>
      </trkpt>
      <trkpt lat="46.8527" lon="8.48612">
        <ele>2472</ele>
        <time>2021-08-12T10:14:50.502Z</time>
      </trkpt>
      <trkpt lat="46.85269" lon="8.48611">
        <ele>2472</ele>
        <time>2021-08-12T10:14:51.501Z</time>
      </trkpt>
      <trkpt lat="46.85269" lon="8.4861">
        <ele>2471</ele>
        <time>2021-08-12T10:14:52.502Z</time>
      </trkpt>
      <trkpt lat="46.85268" lon="8.4861">
        <ele>2471</ele>
        <time>2021-08-12T10:14:53.502Z</time>
      </trkpt>
      <trkpt lat="46.85267" lon="8.4861">
        <ele>2471</ele>
        <time>2021-08-12T10:14:54.501Z</time>
      </trkpt>
      <trkpt lat="46.85267" lon="8.4861">
        <ele>2470</ele>
        <time>2021-08-12T10:14:55.502Z</time>
      </trkpt>
      <trkpt lat="46.85266" lon="8.4861">
        <ele>2470</ele>
        <time>2021-08-12T10:14:56.502Z</time>
      </trkpt>
      <trkpt lat="46.85266" lon="8.4861">
        <ele>2470</ele>
        <time>2021-08-12T10:14:57.501Z</time>
      </trkpt>
      <trkpt lat="46.85265" lon="8.4861">
        <ele>2470</ele>
        <time>2021-08-12T10:14:58.502Z</time>
      </trkpt>
      <trkpt lat="46.85265" lon="8.4861">
        <ele>2470</ele>
        <time>2021-08-12T10:14:59.502Z</time>
      </trkpt>
      <trkpt lat="46.85265" lon="8.48609">
        <ele>2470</ele>
        <time>2021-08-12T10:15:00.502Z</time>
      </trkpt>
      <trkpt lat="46.85264" lon="8.48609">
        <ele>2469</ele>
        <time>2021-08-12T10:15:01.502Z</time>
      </trkpt>
      <trkpt lat="46.85263" lon="8.48608">
        <ele>2469</ele>
        <time>2021-08-12T10:15:02.501Z</time>
      </trkpt>
      <trkpt lat="46.85263" lon="8.48606">
        <ele>2468</ele>
        <time>2021-08-12T10:15:03.502Z</time>
      </trkpt>
      <trkpt lat="46.85263" lon="8.48605">
        <ele>2468</ele>
        <time>2021-08-12T10:15:04.502Z</time>
      </trkpt>
      <trkpt lat="46.85262" lon="8.48604">
        <ele>2468</ele>
        <time>2021-08-12T10:15:05.502Z</time>
      </trkpt>
      <trkpt lat="46.85261" lon="8.48603">
        <ele>2467</ele>
        <time>2021-08-12T10:15:06.502Z</time>
      </trkpt>
      <trkpt lat="46.85261" lon="8.48602">
        <ele>2467</ele>
        <time>2021-08-12T10:15:07.502Z</time>
      </trkpt>
      <trkpt lat="46.8526" lon="8.48601">
        <ele>2467</ele>
        <time>2021-08-12T10:15:08.502Z</time>
      </trkpt>
      <trkpt lat="46.8526" lon="8.486">
        <ele>2467</ele>
        <time>2021-08-12T10:15:09.502Z</time>
      </trkpt>
      <trkpt lat="46.85259" lon="8.48599">
        <ele>2466</ele>
        <time>2021-08-12T10:15:10.501Z</time>
      </trkpt>
      <trkpt lat="46.85259" lon="8.48598">
        <ele>2466</ele>
        <time>2021-08-12T10:15:11.502Z</time>
      </trkpt>
      <trkpt lat="46.85258" lon="8.48597">
        <ele>2466</ele>
        <time>2021-08-12T10:15:12.502Z</time>
      </trkpt>
      <trkpt lat="46.85257" lon="8.48596">
        <ele>2466</ele>
        <time>2021-08-12T10:15:13.501Z</time>
      </trkpt>
      <trkpt lat="46.85257" lon="8.48596">
        <ele>2466</ele>
        <time>2021-08-12T10:15:14.502Z</time>
      </trkpt>
      <trkpt lat="46.85256" lon="8.48596">
        <ele>2466</ele>
        <time>2021-08-12T10:15:15.501Z</time>
      </trkpt>
      <trkpt lat="46.85255" lon="8.48597">
        <ele>2465</ele>
        <time>2021-08-12T10:15:16.502Z</time>
      </trkpt>
      <trkpt lat="46.85254" lon="8.48597">
        <ele>2465</ele>
        <time>2021-08-12T10:15:17.502Z</time>
      </trkpt>
      <trkpt lat="46.85254" lon="8.48598">
        <ele>2465</ele>
        <time>2021-08-12T10:15:18.502Z</time>
      </trkpt>
      <trkpt lat="46.85253" lon="8.48599">
        <ele>2464</ele>
        <time>2021-08-12T10:15:19.502Z</time>
      </trkpt>
      <trkpt lat="46.85253" lon="8.48599">
        <ele>2464</ele>
        <time>2021-08-12T10:15:20.502Z</time>
      </trkpt>
      <trkpt lat="46.85252" lon="8.48599">
        <ele>2464</ele>
        <time>2021-08-12T10:15:21.502Z</time>
      </trkpt>
      <trkpt lat="46.85252" lon="8.48599">
        <ele>2464</ele>
        <time>2021-08-12T10:15:22.502Z</time>
      </trkpt>
      <trkpt lat="46.85252" lon="8.48598">
        <ele>2463</ele>
        <time>2021-08-12T10:15:23.501Z</time>
      </trkpt>
      <trkpt lat="46.85252" lon="8.48597">
        <ele>2463</ele>
        <time>2021-08-12T10:15:24.501Z</time>
      </trkpt>
      <trkpt lat="46.85252" lon="8.48596">
        <ele>2463</ele>
        <time>2021-08-12T10:15:25.502Z</time>
      </trkpt>
      <trkpt lat="46.85252" lon="8.48595">
        <ele>2463</ele>
        <time>2021-08-12T10:15:26.501Z</time>
      </trkpt>
      <trkpt lat="46.85252" lon="8.48594">
        <ele>2463</ele>
        <time>2021-08-12T10:15:27.502Z</time>
      </trkpt>
      <trkpt lat="46.85252" lon="8.48592">
        <ele>2463</ele>
        <time>2021-08-12T10:15:28.502Z</time>
      </trkpt>
      <trkpt lat="46.85251" lon="8.48591">
        <ele>2463</ele>
        <time>2021-08-12T10:15:29.502Z</time>
      </trkpt>
      <trkpt lat="46.85251" lon="8.48589">
        <ele>2464</ele>
        <time>2021-08-12T10:15:30.502Z</time>
      </trkpt>
      <trkpt lat="46.85251" lon="8.48587">
        <ele>2464</ele>
        <time>2021-08-12T10:15:31.502Z</time>
      </trkpt>
      <trkpt lat="46.8525" lon="8.48585">
        <ele>2464</ele>
        <time>2021-08-12T10:15:32.502Z</time>
      </trkpt>
      <trkpt lat="46.85249" lon="8.48584">
        <ele>2464</ele>
        <time>2021-08-12T10:15:33.501Z</time>
      </trkpt>
      <trkpt lat="46.85249" lon="8.48582">
        <ele>2464</ele>
        <time>2021-08-12T10:15:34.502Z</time>
      </trkpt>
      <trkpt lat="46.85248" lon="8.48581">
        <ele>2464</ele>
        <time>2021-08-12T10:15:35.501Z</time>
      </trkpt>
      <trkpt lat="46.85248" lon="8.4858">
        <ele>2464</ele>
        <time>2021-08-12T10:15:36.502Z</time>
      </trkpt>
      <trkpt lat="46.85247" lon="8.48579">
        <ele>2463</ele>
        <time>2021-08-12T10:15:37.502Z</time>
      </trkpt>
      <trkpt lat="46.85247" lon="8.48577">
        <ele>2462</ele>
        <time>2021-08-12T10:15:38.502Z</time>
      </trkpt>
      <trkpt lat="46.85246" lon="8.48575">
        <ele>2462</ele>
        <time>2021-08-12T10:15:39.502Z</time>
      </trkpt>
      <trkpt lat="46.85247" lon="8.48574">
        <ele>2461</ele>
        <time>2021-08-12T10:15:40.502Z</time>
      </trkpt>
      <trkpt lat="46.85247" lon="8.48572">
        <ele>2461</ele>
        <time>2021-08-12T10:15:41.502Z</time>
      </trkpt>
      <trkpt lat="46.85247" lon="8.4857">
        <ele>2461</ele>
        <time>2021-08-12T10:15:42.502Z</time>
      </trkpt>
      <trkpt lat="46.85247" lon="8.48569">
        <ele>2462</ele>
        <time>2021-08-12T10:15:43.501Z</time>
      </trkpt>
      <trkpt lat="46.85248" lon="8.48566">
        <ele>2463</ele>
        <time>2021-08-12T10:15:44.501Z</time>
      </trkpt>
      <trkpt lat="46.85248" lon="8.48564">
        <ele>2463</ele>
        <time>2021-08-12T10:15:45.502Z</time>
      </trkpt>
      <trkpt lat="46.85247" lon="8.48562">
        <ele>2464</ele>
        <time>2021-08-12T10:15:46.501Z</time>
      </trkpt>
      <trkpt lat="46.85247" lon="8.48561">
        <ele>2464</ele>
        <time>2021-08-12T10:15:47.502Z</time>
      </trkpt>
      <trkpt lat="46.85246" lon="8.4856">
        <ele>2464</ele>
        <time>2021-08-12T10:15:48.502Z</time>
      </trkpt>
      <trkpt lat="46.85246" lon="8.48559">
        <ele>2464</ele>
        <time>2021-08-12T10:15:49.501Z</time>
      </trkpt>
      <trkpt lat="46.85246" lon="8.48557">
        <ele>2464</ele>
        <time>2021-08-12T10:15:50.502Z</time>
      </trkpt>
      <trkpt lat="46.85246" lon="8.48556">
        <ele>2464</ele>
        <time>2021-08-12T10:15:51.501Z</time>
      </trkpt>
      <trkpt lat="46.85245" lon="8.48555">
        <ele>2464</ele>
        <time>2021-08-12T10:15:52.501Z</time>
      </trkpt>
      <trkpt lat="46.85244" lon="8.48554">
        <ele>2464</ele>
        <time>2021-08-12T10:15:53.501Z</time>
      </trkpt>
      <trkpt lat="46.85244" lon="8.48554">
        <ele>2464</ele>
        <time>2021-08-12T10:15:54.502Z</time>
      </trkpt>
      <trkpt lat="46.85243" lon="8.48554">
        <ele>2463</ele>
        <time>2021-08-12T10:15:55.502Z</time>
      </trkpt>
      <trkpt lat="46.85243" lon="8.48553">
        <ele>2462</ele>
        <time>2021-08-12T10:15:56.501Z</time>
      </trkpt>
      <trkpt lat="46.85243" lon="8.48552">
        <ele>2461</ele>
        <time>2021-08-12T10:15:57.502Z</time>
      </trkpt>
      <trkpt lat="46.85243" lon="8.48552">
        <ele>2460</ele>
        <time>2021-08-12T10:15:58.502Z</time>
      </trkpt>
      <trkpt lat="46.85244" lon="8.48552">
        <ele>2460</ele>
        <time>2021-08-12T10:15:59.502Z</time>
      </trkpt>
      <trkpt lat="46.85244" lon="8.4855">
        <ele>2460</ele>
        <time>2021-08-12T10:16:00.501Z</time>
      </trkpt>
      <trkpt lat="46.85244" lon="8.48548">
        <ele>2460</ele>
        <time>2021-08-12T10:16:01.502Z</time>
      </trkpt>
      <trkpt lat="46.85243" lon="8.48547">
        <ele>2460</ele>
        <time>2021-08-12T10:16:02.501Z</time>
      </trkpt>
      <trkpt lat="46.85242" lon="8.48547">
        <ele>2461</ele>
        <time>2021-08-12T10:16:03.502Z</time>
      </trkpt>
      <trkpt lat="46.85242" lon="8.48546">
        <ele>2461</ele>
        <time>2021-08-12T10:16:04.502Z</time>
      </trkpt>
      <trkpt lat="46.85242" lon="8.48545">
        <ele>2461</ele>
        <time>2021-08-12T10:16:05.501Z</time>
      </trkpt>
      <trkpt lat="46.85241" lon="8.48544">
        <ele>2461</ele>
        <time>2021-08-12T10:16:06.501Z</time>
      </trkpt>
      <trkpt lat="46.8524" lon="8.48544">
        <ele>2462</ele>
        <time>2021-08-12T10:16:07.502Z</time>
      </trkpt>
      <trkpt lat="46.85239" lon="8.48544">
        <ele>2462</ele>
        <time>2021-08-12T10:16:08.501Z</time>
      </trkpt>
      <trkpt lat="46.85239" lon="8.48544">
        <ele>2461</ele>
        <time>2021-08-12T10:16:09.502Z</time>
      </trkpt>
      <trkpt lat="46.85239" lon="8.48544">
        <ele>2461</ele>
        <time>2021-08-12T10:16:10.502Z</time>
      </trkpt>
      <trkpt lat="46.85238" lon="8.48543">
        <ele>2457</ele>
        <time>2021-08-12T10:16:11.501Z</time>
      </trkpt>
      <trkpt lat="46.85238" lon="8.48543">
        <ele>2456</ele>
        <time>2021-08-12T10:16:12.501Z</time>
      </trkpt>
      <trkpt lat="46.85238" lon="8.48542">
        <ele>2455</ele>
        <time>2021-08-12T10:16:13.501Z</time>
      </trkpt>
      <trkpt lat="46.85238" lon="8.48541">
        <ele>2455</ele>
        <time>2021-08-12T10:16:14.502Z</time>
      </trkpt>
      <trkpt lat="46.85238" lon="8.4854">
        <ele>2455</ele>
        <time>2021-08-12T10:16:15.502Z</time>
      </trkpt>
      <trkpt lat="46.85238" lon="8.48538">
        <ele>2455</ele>
        <time>2021-08-12T10:16:16.502Z</time>
      </trkpt>
      <trkpt lat="46.85238" lon="8.48536">
        <ele>2455</ele>
        <time>2021-08-12T10:16:17.502Z</time>
      </trkpt>
      <trkpt lat="46.85238" lon="8.48535">
        <ele>2454</ele>
        <time>2021-08-12T10:16:18.501Z</time>
      </trkpt>
      <trkpt lat="46.85237" lon="8.48533">
        <ele>2454</ele>
        <time>2021-08-12T10:16:19.502Z</time>
      </trkpt>
      <trkpt lat="46.85237" lon="8.48531">
        <ele>2454</ele>
        <time>2021-08-12T10:16:20.502Z</time>
      </trkpt>
      <trkpt lat="46.85237" lon="8.4853">
        <ele>2455</ele>
        <time>2021-08-12T10:16:21.502Z</time>
      </trkpt>
      <trkpt lat="46.85237" lon="8.48529">
        <ele>2454</ele>
        <time>2021-08-12T10:16:22.502Z</time>
      </trkpt>
      <trkpt lat="46.85237" lon="8.48527">
        <ele>2454</ele>
        <time>2021-08-12T10:16:23.502Z</time>
      </trkpt>
      <trkpt lat="46.85237" lon="8.48526">
        <ele>2455</ele>
        <time>2021-08-12T10:16:24.502Z</time>
      </trkpt>
      <trkpt lat="46.85236" lon="8.48524">
        <ele>2455</ele>
        <time>2021-08-12T10:16:25.502Z</time>
      </trkpt>
      <trkpt lat="46.85236" lon="8.48523">
        <ele>2455</ele>
        <time>2021-08-12T10:16:26.502Z</time>
      </trkpt>
      <trkpt lat="46.85236" lon="8.48521">
        <ele>2456</ele>
        <time>2021-08-12T10:16:27.501Z</time>
      </trkpt>
      <trkpt lat="46.85236" lon="8.4852">
        <ele>2456</ele>
        <time>2021-08-12T10:16:28.502Z</time>
      </trkpt>
      <trkpt lat="46.85235" lon="8.48518">
        <ele>2456</ele>
        <time>2021-08-12T10:16:29.502Z</time>
      </trkpt>
      <trkpt lat="46.85235" lon="8.48516">
        <ele>2456</ele>
        <time>2021-08-12T10:16:30.501Z</time>
      </trkpt>
      <trkpt lat="46.85235" lon="8.48515">
        <ele>2457</ele>
        <time>2021-08-12T10:16:31.501Z</time>
      </trkpt>
      <trkpt lat="46.85234" lon="8.48513">
        <ele>2456</ele>
        <time>2021-08-12T10:16:32.502Z</time>
      </trkpt>
      <trkpt lat="46.85233" lon="8.48512">
        <ele>2456</ele>
        <time>2021-08-12T10:16:33.501Z</time>
      </trkpt>
      <trkpt lat="46.85232" lon="8.4851">
        <ele>2456</ele>
        <time>2021-08-12T10:16:34.501Z</time>
      </trkpt>
      <trkpt lat="46.85232" lon="8.48509">
        <ele>2456</ele>
        <time>2021-08-12T10:16:35.501Z</time>
      </trkpt>
      <trkpt lat="46.85231" lon="8.48508">
        <ele>2455</ele>
        <time>2021-08-12T10:16:36.501Z</time>
      </trkpt>
      <trkpt lat="46.8523" lon="8.48506">
        <ele>2455</ele>
        <time>2021-08-12T10:16:37.501Z</time>
      </trkpt>
      <trkpt lat="46.8523" lon="8.48505">
        <ele>2455</ele>
        <time>2021-08-12T10:16:38.502Z</time>
      </trkpt>
      <trkpt lat="46.85229" lon="8.48504">
        <ele>2455</ele>
        <time>2021-08-12T10:16:39.501Z</time>
      </trkpt>
      <trkpt lat="46.85228" lon="8.48503">
        <ele>2455</ele>
        <time>2021-08-12T10:16:40.501Z</time>
      </trkpt>
      <trkpt lat="46.85228" lon="8.48503">
        <ele>2455</ele>
        <time>2021-08-12T10:16:41.502Z</time>
      </trkpt>
      <trkpt lat="46.85227" lon="8.48502">
        <ele>2455</ele>
        <time>2021-08-12T10:16:42.502Z</time>
      </trkpt>
      <trkpt lat="46.85227" lon="8.48501">
        <ele>2455</ele>
        <time>2021-08-12T10:16:43.501Z</time>
      </trkpt>
      <trkpt lat="46.85226" lon="8.48499">
        <ele>2455</ele>
        <time>2021-08-12T10:16:44.501Z</time>
      </trkpt>
      <trkpt lat="46.85225" lon="8.48498">
        <ele>2454</ele>
        <time>2021-08-12T10:16:45.502Z</time>
      </trkpt>
      <trkpt lat="46.85225" lon="8.48496">
        <ele>2454</ele>
        <time>2021-08-12T10:16:46.501Z</time>
      </trkpt>
      <trkpt lat="46.85225" lon="8.48495">
        <ele>2454</ele>
        <time>2021-08-12T10:16:47.501Z</time>
      </trkpt>
      <trkpt lat="46.85225" lon="8.48493">
        <ele>2454</ele>
        <time>2021-08-12T10:16:48.502Z</time>
      </trkpt>
      <trkpt lat="46.85224" lon="8.48491">
        <ele>2454</ele>
        <time>2021-08-12T10:16:49.502Z</time>
      </trkpt>
      <trkpt lat="46.85224" lon="8.4849">
        <ele>2454</ele>
        <time>2021-08-12T10:16:50.502Z</time>
      </trkpt>
      <trkpt lat="46.85224" lon="8.48489">
        <ele>2454</ele>
        <time>2021-08-12T10:16:51.502Z</time>
      </trkpt>
      <trkpt lat="46.85224" lon="8.48488">
        <ele>2454</ele>
        <time>2021-08-12T10:16:52.501Z</time>
      </trkpt>
      <trkpt lat="46.85224" lon="8.48487">
        <ele>2453</ele>
        <time>2021-08-12T10:16:53.502Z</time>
      </trkpt>
      <trkpt lat="46.85223" lon="8.48485">
        <ele>2453</ele>
        <time>2021-08-12T10:16:54.502Z</time>
      </trkpt>
      <trkpt lat="46.85223" lon="8.48484">
        <ele>2452</ele>
        <time>2021-08-12T10:16:55.502Z</time>
      </trkpt>
      <trkpt lat="46.85223" lon="8.48483">
        <ele>2452</ele>
        <time>2021-08-12T10:16:56.502Z</time>
      </trkpt>
      <trkpt lat="46.85223" lon="8.48482">
        <ele>2452</ele>
        <time>2021-08-12T10:16:57.501Z</time>
      </trkpt>
      <trkpt lat="46.85223" lon="8.48482">
        <ele>2451</ele>
        <time>2021-08-12T10:16:58.502Z</time>
      </trkpt>
      <trkpt lat="46.85223" lon="8.48482">
        <ele>2451</ele>
        <time>2021-08-12T10:16:59.502Z</time>
      </trkpt>
      <trkpt lat="46.85223" lon="8.48483">
        <ele>2447</ele>
        <time>2021-08-12T10:17:00.503Z</time>
      </trkpt>
      <trkpt lat="46.85223" lon="8.48482">
        <ele>2448</ele>
        <time>2021-08-12T10:17:01.502Z</time>
      </trkpt>
      <trkpt lat="46.85223" lon="8.48481">
        <ele>2448</ele>
        <time>2021-08-12T10:17:02.503Z</time>
      </trkpt>
      <trkpt lat="46.85222" lon="8.4848">
        <ele>2448</ele>
        <time>2021-08-12T10:17:03.502Z</time>
      </trkpt>
      <trkpt lat="46.85223" lon="8.48478">
        <ele>2448</ele>
        <time>2021-08-12T10:17:04.503Z</time>
      </trkpt>
      <trkpt lat="46.85223" lon="8.48477">
        <ele>2448</ele>
        <time>2021-08-12T10:17:05.503Z</time>
      </trkpt>
      <trkpt lat="46.85223" lon="8.48476">
        <ele>2448</ele>
        <time>2021-08-12T10:17:06.503Z</time>
      </trkpt>
      <trkpt lat="46.85224" lon="8.48475">
        <ele>2448</ele>
        <time>2021-08-12T10:17:07.503Z</time>
      </trkpt>
      <trkpt lat="46.85224" lon="8.48473">
        <ele>2448</ele>
        <time>2021-08-12T10:17:08.502Z</time>
      </trkpt>
      <trkpt lat="46.85224" lon="8.48472">
        <ele>2448</ele>
        <time>2021-08-12T10:17:09.502Z</time>
      </trkpt>
      <trkpt lat="46.85225" lon="8.48471">
        <ele>2448</ele>
        <time>2021-08-12T10:17:10.502Z</time>
      </trkpt>
      <trkpt lat="46.85226" lon="8.4847">
        <ele>2448</ele>
        <time>2021-08-12T10:17:11.503Z</time>
      </trkpt>
      <trkpt lat="46.85226" lon="8.48469">
        <ele>2447</ele>
        <time>2021-08-12T10:17:12.502Z</time>
      </trkpt>
      <trkpt lat="46.85227" lon="8.48468">
        <ele>2447</ele>
        <time>2021-08-12T10:17:13.502Z</time>
      </trkpt>
      <trkpt lat="46.85227" lon="8.48467">
        <ele>2448</ele>
        <time>2021-08-12T10:17:14.502Z</time>
      </trkpt>
      <trkpt lat="46.85227" lon="8.48466">
        <ele>2448</ele>
        <time>2021-08-12T10:17:15.503Z</time>
      </trkpt>
      <trkpt lat="46.85228" lon="8.48465">
        <ele>2449</ele>
        <time>2021-08-12T10:17:16.503Z</time>
      </trkpt>
      <trkpt lat="46.85228" lon="8.48464">
        <ele>2449</ele>
        <time>2021-08-12T10:17:17.503Z</time>
      </trkpt>
      <trkpt lat="46.85228" lon="8.48463">
        <ele>2449</ele>
        <time>2021-08-12T10:17:18.502Z</time>
      </trkpt>
      <trkpt lat="46.85228" lon="8.48462">
        <ele>2449</ele>
        <time>2021-08-12T10:17:19.502Z</time>
      </trkpt>
      <trkpt lat="46.85229" lon="8.4846">
        <ele>2449</ele>
        <time>2021-08-12T10:17:20.503Z</time>
      </trkpt>
      <trkpt lat="46.85229" lon="8.48459">
        <ele>2449</ele>
        <time>2021-08-12T10:17:21.502Z</time>
      </trkpt>
      <trkpt lat="46.85229" lon="8.48458">
        <ele>2448</ele>
        <time>2021-08-12T10:17:22.502Z</time>
      </trkpt>
      <trkpt lat="46.85229" lon="8.48457">
        <ele>2448</ele>
        <time>2021-08-12T10:17:23.502Z</time>
      </trkpt>
      <trkpt lat="46.8523" lon="8.48456">
        <ele>2448</ele>
        <time>2021-08-12T10:17:24.502Z</time>
      </trkpt>
      <trkpt lat="46.8523" lon="8.48456">
        <ele>2448</ele>
        <time>2021-08-12T10:17:25.502Z</time>
      </trkpt>
      <trkpt lat="46.8523" lon="8.48455">
        <ele>2447</ele>
        <time>2021-08-12T10:17:26.502Z</time>
      </trkpt>
      <trkpt lat="46.8523" lon="8.48454">
        <ele>2447</ele>
        <time>2021-08-12T10:17:27.502Z</time>
      </trkpt>
      <trkpt lat="46.8523" lon="8.48454">
        <ele>2448</ele>
        <time>2021-08-12T10:17:28.502Z</time>
      </trkpt>
      <trkpt lat="46.8523" lon="8.48453">
        <ele>2448</ele>
        <time>2021-08-12T10:17:29.502Z</time>
      </trkpt>
      <trkpt lat="46.8523" lon="8.48453">
        <ele>2448</ele>
        <time>2021-08-12T10:17:30.502Z</time>
      </trkpt>
      <trkpt lat="46.85229" lon="8.48452">
        <ele>2448</ele>
        <time>2021-08-12T10:17:31.502Z</time>
      </trkpt>
      <trkpt lat="46.8523" lon="8.48451">
        <ele>2447</ele>
        <time>2021-08-12T10:17:32.503Z</time>
      </trkpt>
      <trkpt lat="46.8523" lon="8.4845">
        <ele>2447</ele>
        <time>2021-08-12T10:17:33.502Z</time>
      </trkpt>
      <trkpt lat="46.8523" lon="8.48449">
        <ele>2447</ele>
        <time>2021-08-12T10:17:34.502Z</time>
      </trkpt>
      <trkpt lat="46.8523" lon="8.48448">
        <ele>2446</ele>
        <time>2021-08-12T10:17:35.502Z</time>
      </trkpt>
      <trkpt lat="46.8523" lon="8.48447">
        <ele>2446</ele>
        <time>2021-08-12T10:17:36.502Z</time>
      </trkpt>
      <trkpt lat="46.8523" lon="8.48447">
        <ele>2446</ele>
        <time>2021-08-12T10:17:37.502Z</time>
      </trkpt>
      <trkpt lat="46.8523" lon="8.48446">
        <ele>2447</ele>
        <time>2021-08-12T10:17:38.502Z</time>
      </trkpt>
      <trkpt lat="46.8523" lon="8.48445">
        <ele>2447</ele>
        <time>2021-08-12T10:17:39.502Z</time>
      </trkpt>
      <trkpt lat="46.8523" lon="8.48445">
        <ele>2447</ele>
        <time>2021-08-12T10:17:40.502Z</time>
      </trkpt>
      <trkpt lat="46.85229" lon="8.48445">
        <ele>2447</ele>
        <time>2021-08-12T10:17:41.502Z</time>
      </trkpt>
      <trkpt lat="46.85228" lon="8.48447">
        <ele>2445</ele>
        <time>2021-08-12T10:17:42.504Z</time>
      </trkpt>
      <trkpt lat="46.85227" lon="8.48447">
        <ele>2444</ele>
        <time>2021-08-12T10:17:43.504Z</time>
      </trkpt>
      <trkpt lat="46.85227" lon="8.48448">
        <ele>2444</ele>
        <time>2021-08-12T10:17:44.504Z</time>
      </trkpt>
      <trkpt lat="46.85227" lon="8.48449">
        <ele>2444</ele>
        <time>2021-08-12T10:17:45.504Z</time>
      </trkpt>
      <trkpt lat="46.85227" lon="8.4845">
        <ele>2444</ele>
        <time>2021-08-12T10:17:46.504Z</time>
      </trkpt>
      <trkpt lat="46.85227" lon="8.4845">
        <ele>2448</ele>
        <time>2021-08-12T10:17:47.505Z</time>
      </trkpt>
      <trkpt lat="46.85225" lon="8.48449">
        <ele>2446</ele>
        <time>2021-08-12T10:17:48.506Z</time>
      </trkpt>
      <trkpt lat="46.85224" lon="8.48448">
        <ele>2446</ele>
        <time>2021-08-12T10:17:49.506Z</time>
      </trkpt>
      <trkpt lat="46.85227" lon="8.48447">
        <ele>2446</ele>
        <time>2021-08-12T10:17:50.505Z</time>
      </trkpt>
      <trkpt lat="46.85227" lon="8.48447">
        <ele>2446</ele>
        <time>2021-08-12T10:17:51.506Z</time>
      </trkpt>
      <trkpt lat="46.85228" lon="8.48447">
        <ele>2446</ele>
        <time>2021-08-12T10:17:52.506Z</time>
      </trkpt>
      <trkpt lat="46.85228" lon="8.48447">
        <ele>2446</ele>
        <time>2021-08-12T10:17:53.505Z</time>
      </trkpt>
      <trkpt lat="46.85229" lon="8.48447">
        <ele>2446</ele>
        <time>2021-08-12T10:17:54.506Z</time>
      </trkpt>
      <trkpt lat="46.8523" lon="8.48446">
        <ele>2446</ele>
        <time>2021-08-12T10:17:55.505Z</time>
      </trkpt>
      <trkpt lat="46.8523" lon="8.48446">
        <ele>2446</ele>
        <time>2021-08-12T10:17:56.506Z</time>
      </trkpt>
      <trkpt lat="46.8523" lon="8.48446">
        <ele>2446</ele>
        <time>2021-08-12T10:17:57.505Z</time>
      </trkpt>
      <trkpt lat="46.8523" lon="8.48446">
        <ele>2446</ele>
        <time>2021-08-12T10:17:58.506Z</time>
      </trkpt>
      <trkpt lat="46.85229" lon="8.48445">
        <ele>2445</ele>
        <time>2021-08-12T10:17:59.507Z</time>
      </trkpt>
      <trkpt lat="46.85229" lon="8.48446">
        <ele>2446</ele>
        <time>2021-08-12T10:18:00.506Z</time>
      </trkpt>
      <trkpt lat="46.85228" lon="8.48446">
        <ele>2445</ele>
        <time>2021-08-12T10:18:01.507Z</time>
      </trkpt>
      <trkpt lat="46.85228" lon="8.48446">
        <ele>2445</ele>
        <time>2021-08-12T10:18:02.506Z</time>
      </trkpt>
      <trkpt lat="46.85228" lon="8.48446">
        <ele>2445</ele>
        <time>2021-08-12T10:18:03.506Z</time>
      </trkpt>
      <trkpt lat="46.85227" lon="8.48446">
        <ele>2439</ele>
        <time>2021-08-12T10:18:04.507Z</time>
      </trkpt>
      <trkpt lat="46.85227" lon="8.48446">
        <ele>2438</ele>
        <time>2021-08-12T10:18:05.507Z</time>
      </trkpt>
      <trkpt lat="46.85228" lon="8.48445">
        <ele>2438</ele>
        <time>2021-08-12T10:18:06.507Z</time>
      </trkpt>
      <trkpt lat="46.85228" lon="8.48444">
        <ele>2438</ele>
        <time>2021-08-12T10:18:07.507Z</time>
      </trkpt>
      <trkpt lat="46.85228" lon="8.48443">
        <ele>2439</ele>
        <time>2021-08-12T10:18:08.507Z</time>
      </trkpt>
      <trkpt lat="46.85229" lon="8.48442">
        <ele>2439</ele>
        <time>2021-08-12T10:18:09.507Z</time>
      </trkpt>
      <trkpt lat="46.85229" lon="8.48441">
        <ele>2440</ele>
        <time>2021-08-12T10:18:10.507Z</time>
      </trkpt>
      <trkpt lat="46.8523" lon="8.4844">
        <ele>2440</ele>
        <time>2021-08-12T10:18:11.507Z</time>
      </trkpt>
      <trkpt lat="46.8523" lon="8.48439">
        <ele>2441</ele>
        <time>2021-08-12T10:18:12.507Z</time>
      </trkpt>
      <trkpt lat="46.8523" lon="8.48438">
        <ele>2442</ele>
        <time>2021-08-12T10:18:13.507Z</time>
      </trkpt>
      <trkpt lat="46.8523" lon="8.48437">
        <ele>2442</ele>
        <time>2021-08-12T10:18:14.507Z</time>
      </trkpt>
      <trkpt lat="46.8523" lon="8.48436">
        <ele>2442</ele>
        <time>2021-08-12T10:18:15.507Z</time>
      </trkpt>
      <trkpt lat="46.8523" lon="8.48436">
        <ele>2442</ele>
        <time>2021-08-12T10:18:16.506Z</time>
      </trkpt>
      <trkpt lat="46.8523" lon="8.48434">
        <ele>2442</ele>
        <time>2021-08-12T10:18:17.507Z</time>
      </trkpt>
      <trkpt lat="46.8523" lon="8.48432">
        <ele>2442</ele>
        <time>2021-08-12T10:18:18.507Z</time>
      </trkpt>
      <trkpt lat="46.8523" lon="8.48431">
        <ele>2442</ele>
        <time>2021-08-12T10:18:19.507Z</time>
      </trkpt>
      <trkpt lat="46.8523" lon="8.48429">
        <ele>2442</ele>
        <time>2021-08-12T10:18:20.506Z</time>
      </trkpt>
      <trkpt lat="46.8523" lon="8.48428">
        <ele>2442</ele>
        <time>2021-08-12T10:18:21.506Z</time>
      </trkpt>
      <trkpt lat="46.8523" lon="8.48427">
        <ele>2442</ele>
        <time>2021-08-12T10:18:22.507Z</time>
      </trkpt>
      <trkpt lat="46.8523" lon="8.48426">
        <ele>2442</ele>
        <time>2021-08-12T10:18:23.506Z</time>
      </trkpt>
      <trkpt lat="46.8523" lon="8.48425">
        <ele>2442</ele>
        <time>2021-08-12T10:18:24.507Z</time>
      </trkpt>
      <trkpt lat="46.8523" lon="8.48423">
        <ele>2442</ele>
        <time>2021-08-12T10:18:25.507Z</time>
      </trkpt>
      <trkpt lat="46.8523" lon="8.48422">
        <ele>2443</ele>
        <time>2021-08-12T10:18:26.507Z</time>
      </trkpt>
      <trkpt lat="46.85229" lon="8.48421">
        <ele>2443</ele>
        <time>2021-08-12T10:18:27.506Z</time>
      </trkpt>
      <trkpt lat="46.85229" lon="8.4842">
        <ele>2443</ele>
        <time>2021-08-12T10:18:28.507Z</time>
      </trkpt>
      <trkpt lat="46.85229" lon="8.48419">
        <ele>2443</ele>
        <time>2021-08-12T10:18:29.507Z</time>
      </trkpt>
      <trkpt lat="46.8523" lon="8.48417">
        <ele>2443</ele>
        <time>2021-08-12T10:18:30.507Z</time>
      </trkpt>
      <trkpt lat="46.8523" lon="8.48416">
        <ele>2443</ele>
        <time>2021-08-12T10:18:31.506Z</time>
      </trkpt>
      <trkpt lat="46.8523" lon="8.48415">
        <ele>2444</ele>
        <time>2021-08-12T10:18:32.507Z</time>
      </trkpt>
      <trkpt lat="46.8523" lon="8.48413">
        <ele>2444</ele>
        <time>2021-08-12T10:18:33.507Z</time>
      </trkpt>
      <trkpt lat="46.8523" lon="8.48412">
        <ele>2444</ele>
        <time>2021-08-12T10:18:34.506Z</time>
      </trkpt>
      <trkpt lat="46.8523" lon="8.48411">
        <ele>2444</ele>
        <time>2021-08-12T10:18:35.507Z</time>
      </trkpt>
      <trkpt lat="46.8523" lon="8.48409">
        <ele>2445</ele>
        <time>2021-08-12T10:18:36.507Z</time>
      </trkpt>
      <trkpt lat="46.85231" lon="8.48408">
        <ele>2445</ele>
        <time>2021-08-12T10:18:37.507Z</time>
      </trkpt>
      <trkpt lat="46.85231" lon="8.48406">
        <ele>2445</ele>
        <time>2021-08-12T10:18:38.506Z</time>
      </trkpt>
      <trkpt lat="46.85231" lon="8.48404">
        <ele>2444</ele>
        <time>2021-08-12T10:18:39.507Z</time>
      </trkpt>
      <trkpt lat="46.85231" lon="8.48402">
        <ele>2444</ele>
        <time>2021-08-12T10:18:40.506Z</time>
      </trkpt>
      <trkpt lat="46.85231" lon="8.484">
        <ele>2444</ele>
        <time>2021-08-12T10:18:41.506Z</time>
      </trkpt>
      <trkpt lat="46.85231" lon="8.48399">
        <ele>2444</ele>
        <time>2021-08-12T10:18:42.507Z</time>
      </trkpt>
      <trkpt lat="46.85231" lon="8.48397">
        <ele>2444</ele>
        <time>2021-08-12T10:18:43.507Z</time>
      </trkpt>
      <trkpt lat="46.8523" lon="8.48396">
        <ele>2444</ele>
        <time>2021-08-12T10:18:44.507Z</time>
      </trkpt>
      <trkpt lat="46.8523" lon="8.48395">
        <ele>2443</ele>
        <time>2021-08-12T10:18:45.507Z</time>
      </trkpt>
      <trkpt lat="46.8523" lon="8.48393">
        <ele>2443</ele>
        <time>2021-08-12T10:18:46.507Z</time>
      </trkpt>
      <trkpt lat="46.8523" lon="8.48392">
        <ele>2443</ele>
        <time>2021-08-12T10:18:47.507Z</time>
      </trkpt>
      <trkpt lat="46.8523" lon="8.48391">
        <ele>2443</ele>
        <time>2021-08-12T10:18:48.507Z</time>
      </trkpt>
      <trkpt lat="46.85231" lon="8.4839">
        <ele>2443</ele>
        <time>2021-08-12T10:18:49.507Z</time>
      </trkpt>
      <trkpt lat="46.85231" lon="8.48388">
        <ele>2442</ele>
        <time>2021-08-12T10:18:50.507Z</time>
      </trkpt>
      <trkpt lat="46.85232" lon="8.48388">
        <ele>2442</ele>
        <time>2021-08-12T10:18:51.507Z</time>
      </trkpt>
      <trkpt lat="46.85232" lon="8.48387">
        <ele>2442</ele>
        <time>2021-08-12T10:18:52.507Z</time>
      </trkpt>
      <trkpt lat="46.85232" lon="8.48386">
        <ele>2442</ele>
        <time>2021-08-12T10:18:53.507Z</time>
      </trkpt>
      <trkpt lat="46.85232" lon="8.48385">
        <ele>2441</ele>
        <time>2021-08-12T10:18:54.507Z</time>
      </trkpt>
      <trkpt lat="46.85232" lon="8.48384">
        <ele>2440</ele>
        <time>2021-08-12T10:18:55.506Z</time>
      </trkpt>
      <trkpt lat="46.85231" lon="8.48382">
        <ele>2439</ele>
        <time>2021-08-12T10:18:56.507Z</time>
      </trkpt>
      <trkpt lat="46.8523" lon="8.48381">
        <ele>2439</ele>
        <time>2021-08-12T10:18:57.507Z</time>
      </trkpt>
      <trkpt lat="46.8523" lon="8.48379">
        <ele>2438</ele>
        <time>2021-08-12T10:18:58.507Z</time>
      </trkpt>
      <trkpt lat="46.8523" lon="8.48378">
        <ele>2438</ele>
        <time>2021-08-12T10:18:59.506Z</time>
      </trkpt>
      <trkpt lat="46.85229" lon="8.48377">
        <ele>2438</ele>
        <time>2021-08-12T10:19:00.507Z</time>
      </trkpt>
      <trkpt lat="46.85228" lon="8.48376">
        <ele>2438</ele>
        <time>2021-08-12T10:19:01.507Z</time>
      </trkpt>
      <trkpt lat="46.85227" lon="8.48374">
        <ele>2438</ele>
        <time>2021-08-12T10:19:02.507Z</time>
      </trkpt>
      <trkpt lat="46.85226" lon="8.48373">
        <ele>2438</ele>
        <time>2021-08-12T10:19:03.507Z</time>
      </trkpt>
      <trkpt lat="46.85226" lon="8.48371">
        <ele>2437</ele>
        <time>2021-08-12T10:19:04.507Z</time>
      </trkpt>
      <trkpt lat="46.85226" lon="8.4837">
        <ele>2437</ele>
        <time>2021-08-12T10:19:05.507Z</time>
      </trkpt>
      <trkpt lat="46.85225" lon="8.48368">
        <ele>2437</ele>
        <time>2021-08-12T10:19:06.507Z</time>
      </trkpt>
      <trkpt lat="46.85224" lon="8.48367">
        <ele>2437</ele>
        <time>2021-08-12T10:19:07.506Z</time>
      </trkpt>
      <trkpt lat="46.85223" lon="8.48365">
        <ele>2437</ele>
        <time>2021-08-12T10:19:08.507Z</time>
      </trkpt>
      <trkpt lat="46.85222" lon="8.48364">
        <ele>2436</ele>
        <time>2021-08-12T10:19:09.507Z</time>
      </trkpt>
      <trkpt lat="46.85222" lon="8.48364">
        <ele>2436</ele>
        <time>2021-08-12T10:19:10.506Z</time>
      </trkpt>
      <trkpt lat="46.85221" lon="8.48363">
        <ele>2436</ele>
        <time>2021-08-12T10:19:11.507Z</time>
      </trkpt>
      <trkpt lat="46.85221" lon="8.48362">
        <ele>2436</ele>
        <time>2021-08-12T10:19:12.507Z</time>
      </trkpt>
      <trkpt lat="46.8522" lon="8.48361">
        <ele>2436</ele>
        <time>2021-08-12T10:19:13.507Z</time>
      </trkpt>
      <trkpt lat="46.8522" lon="8.4836">
        <ele>2436</ele>
        <time>2021-08-12T10:19:14.507Z</time>
      </trkpt>
      <trkpt lat="46.85219" lon="8.4836">
        <ele>2436</ele>
        <time>2021-08-12T10:19:15.507Z</time>
      </trkpt>
      <trkpt lat="46.85219" lon="8.48359">
        <ele>2436</ele>
        <time>2021-08-12T10:19:16.507Z</time>
      </trkpt>
      <trkpt lat="46.85219" lon="8.48358">
        <ele>2435</ele>
        <time>2021-08-12T10:19:17.507Z</time>
      </trkpt>
      <trkpt lat="46.85218" lon="8.48356">
        <ele>2435</ele>
        <time>2021-08-12T10:19:18.506Z</time>
      </trkpt>
      <trkpt lat="46.85217" lon="8.48354">
        <ele>2435</ele>
        <time>2021-08-12T10:19:19.507Z</time>
      </trkpt>
      <trkpt lat="46.85217" lon="8.48353">
        <ele>2436</ele>
        <time>2021-08-12T10:19:20.506Z</time>
      </trkpt>
      <trkpt lat="46.85217" lon="8.48351">
        <ele>2436</ele>
        <time>2021-08-12T10:19:21.506Z</time>
      </trkpt>
      <trkpt lat="46.85217" lon="8.48349">
        <ele>2436</ele>
        <time>2021-08-12T10:19:22.506Z</time>
      </trkpt>
      <trkpt lat="46.85217" lon="8.48347">
        <ele>2437</ele>
        <time>2021-08-12T10:19:23.507Z</time>
      </trkpt>
      <trkpt lat="46.85217" lon="8.48346">
        <ele>2438</ele>
        <time>2021-08-12T10:19:24.507Z</time>
      </trkpt>
      <trkpt lat="46.85217" lon="8.48344">
        <ele>2439</ele>
        <time>2021-08-12T10:19:25.507Z</time>
      </trkpt>
      <trkpt lat="46.85216" lon="8.48342">
        <ele>2440</ele>
        <time>2021-08-12T10:19:26.506Z</time>
      </trkpt>
      <trkpt lat="46.85216" lon="8.48341">
        <ele>2441</ele>
        <time>2021-08-12T10:19:27.507Z</time>
      </trkpt>
      <trkpt lat="46.85216" lon="8.4834">
        <ele>2441</ele>
        <time>2021-08-12T10:19:28.507Z</time>
      </trkpt>
      <trkpt lat="46.85216" lon="8.48338">
        <ele>2442</ele>
        <time>2021-08-12T10:19:29.507Z</time>
      </trkpt>
      <trkpt lat="46.85216" lon="8.48337">
        <ele>2443</ele>
        <time>2021-08-12T10:19:30.506Z</time>
      </trkpt>
      <trkpt lat="46.85215" lon="8.48335">
        <ele>2443</ele>
        <time>2021-08-12T10:19:31.507Z</time>
      </trkpt>
      <trkpt lat="46.85215" lon="8.48334">
        <ele>2443</ele>
        <time>2021-08-12T10:19:32.507Z</time>
      </trkpt>
      <trkpt lat="46.85215" lon="8.48332">
        <ele>2443</ele>
        <time>2021-08-12T10:19:33.507Z</time>
      </trkpt>
      <trkpt lat="46.85215" lon="8.48331">
        <ele>2442</ele>
        <time>2021-08-12T10:19:34.507Z</time>
      </trkpt>
      <trkpt lat="46.85214" lon="8.4833">
        <ele>2442</ele>
        <time>2021-08-12T10:19:35.507Z</time>
      </trkpt>
      <trkpt lat="46.85214" lon="8.48328">
        <ele>2441</ele>
        <time>2021-08-12T10:19:36.507Z</time>
      </trkpt>
      <trkpt lat="46.85213" lon="8.48328">
        <ele>2441</ele>
        <time>2021-08-12T10:19:37.506Z</time>
      </trkpt>
      <trkpt lat="46.85213" lon="8.48325">
        <ele>2440</ele>
        <time>2021-08-12T10:19:38.507Z</time>
      </trkpt>
      <trkpt lat="46.85213" lon="8.48324">
        <ele>2439</ele>
        <time>2021-08-12T10:19:39.507Z</time>
      </trkpt>
      <trkpt lat="46.85212" lon="8.48322">
        <ele>2439</ele>
        <time>2021-08-12T10:19:40.506Z</time>
      </trkpt>
      <trkpt lat="46.85211" lon="8.4832">
        <ele>2439</ele>
        <time>2021-08-12T10:19:41.506Z</time>
      </trkpt>
      <trkpt lat="46.85211" lon="8.48319">
        <ele>2439</ele>
        <time>2021-08-12T10:19:42.506Z</time>
      </trkpt>
      <trkpt lat="46.8521" lon="8.48318">
        <ele>2439</ele>
        <time>2021-08-12T10:19:43.506Z</time>
      </trkpt>
      <trkpt lat="46.85209" lon="8.48317">
        <ele>2439</ele>
        <time>2021-08-12T10:19:44.506Z</time>
      </trkpt>
      <trkpt lat="46.85209" lon="8.48315">
        <ele>2438</ele>
        <time>2021-08-12T10:19:45.506Z</time>
      </trkpt>
      <trkpt lat="46.85209" lon="8.48313">
        <ele>2438</ele>
        <time>2021-08-12T10:19:46.506Z</time>
      </trkpt>
      <trkpt lat="46.85208" lon="8.48312">
        <ele>2438</ele>
        <time>2021-08-12T10:19:47.507Z</time>
      </trkpt>
      <trkpt lat="46.85207" lon="8.4831">
        <ele>2437</ele>
        <time>2021-08-12T10:19:48.507Z</time>
      </trkpt>
      <trkpt lat="46.85206" lon="8.48309">
        <ele>2437</ele>
        <time>2021-08-12T10:19:49.506Z</time>
      </trkpt>
      <trkpt lat="46.85206" lon="8.48308">
        <ele>2437</ele>
        <time>2021-08-12T10:19:50.507Z</time>
      </trkpt>
      <trkpt lat="46.85205" lon="8.48306">
        <ele>2437</ele>
        <time>2021-08-12T10:19:51.507Z</time>
      </trkpt>
      <trkpt lat="46.85205" lon="8.48305">
        <ele>2437</ele>
        <time>2021-08-12T10:19:52.506Z</time>
      </trkpt>
      <trkpt lat="46.85205" lon="8.48304">
        <ele>2437</ele>
        <time>2021-08-12T10:19:53.507Z</time>
      </trkpt>
      <trkpt lat="46.85205" lon="8.48303">
        <ele>2438</ele>
        <time>2021-08-12T10:19:54.507Z</time>
      </trkpt>
      <trkpt lat="46.85204" lon="8.48302">
        <ele>2438</ele>
        <time>2021-08-12T10:19:55.507Z</time>
      </trkpt>
      <trkpt lat="46.85203" lon="8.48301">
        <ele>2439</ele>
        <time>2021-08-12T10:19:56.506Z</time>
      </trkpt>
      <trkpt lat="46.85202" lon="8.483">
        <ele>2439</ele>
        <time>2021-08-12T10:19:57.507Z</time>
      </trkpt>
      <trkpt lat="46.85202" lon="8.48299">
        <ele>2440</ele>
        <time>2021-08-12T10:19:58.507Z</time>
      </trkpt>
      <trkpt lat="46.85201" lon="8.48298">
        <ele>2440</ele>
        <time>2021-08-12T10:19:59.507Z</time>
      </trkpt>
      <trkpt lat="46.852" lon="8.48297">
        <ele>2440</ele>
        <time>2021-08-12T10:20:00.507Z</time>
      </trkpt>
      <trkpt lat="46.85199" lon="8.48295">
        <ele>2440</ele>
        <time>2021-08-12T10:20:01.507Z</time>
      </trkpt>
      <trkpt lat="46.85199" lon="8.48294">
        <ele>2440</ele>
        <time>2021-08-12T10:20:02.507Z</time>
      </trkpt>
      <trkpt lat="46.85198" lon="8.48294">
        <ele>2439</ele>
        <time>2021-08-12T10:20:03.507Z</time>
      </trkpt>
      <trkpt lat="46.85198" lon="8.48293">
        <ele>2439</ele>
        <time>2021-08-12T10:20:04.507Z</time>
      </trkpt>
      <trkpt lat="46.85197" lon="8.48291">
        <ele>2439</ele>
        <time>2021-08-12T10:20:05.507Z</time>
      </trkpt>
      <trkpt lat="46.85197" lon="8.4829">
        <ele>2438</ele>
        <time>2021-08-12T10:20:06.507Z</time>
      </trkpt>
      <trkpt lat="46.85197" lon="8.48289">
        <ele>2438</ele>
        <time>2021-08-12T10:20:07.507Z</time>
      </trkpt>
      <trkpt lat="46.85196" lon="8.48288">
        <ele>2438</ele>
        <time>2021-08-12T10:20:08.507Z</time>
      </trkpt>
      <trkpt lat="46.85196" lon="8.48286">
        <ele>2438</ele>
        <time>2021-08-12T10:20:09.507Z</time>
      </trkpt>
      <trkpt lat="46.85196" lon="8.48286">
        <ele>2437</ele>
        <time>2021-08-12T10:20:10.507Z</time>
      </trkpt>
      <trkpt lat="46.85195" lon="8.48285">
        <ele>2437</ele>
        <time>2021-08-12T10:20:11.506Z</time>
      </trkpt>
      <trkpt lat="46.85195" lon="8.48284">
        <ele>2437</ele>
        <time>2021-08-12T10:20:12.507Z</time>
      </trkpt>
      <trkpt lat="46.85194" lon="8.48283">
        <ele>2437</ele>
        <time>2021-08-12T10:20:13.507Z</time>
      </trkpt>
      <trkpt lat="46.85194" lon="8.48282">
        <ele>2437</ele>
        <time>2021-08-12T10:20:14.506Z</time>
      </trkpt>
      <trkpt lat="46.85194" lon="8.48281">
        <ele>2437</ele>
        <time>2021-08-12T10:20:15.507Z</time>
      </trkpt>
      <trkpt lat="46.85194" lon="8.4828">
        <ele>2437</ele>
        <time>2021-08-12T10:20:16.507Z</time>
      </trkpt>
      <trkpt lat="46.85194" lon="8.48279">
        <ele>2437</ele>
        <time>2021-08-12T10:20:17.506Z</time>
      </trkpt>
      <trkpt lat="46.85193" lon="8.48278">
        <ele>2437</ele>
        <time>2021-08-12T10:20:18.506Z</time>
      </trkpt>
      <trkpt lat="46.85193" lon="8.48276">
        <ele>2437</ele>
        <time>2021-08-12T10:20:19.506Z</time>
      </trkpt>
      <trkpt lat="46.85194" lon="8.48276">
        <ele>2437</ele>
        <time>2021-08-12T10:20:20.507Z</time>
      </trkpt>
      <trkpt lat="46.85193" lon="8.48275">
        <ele>2437</ele>
        <time>2021-08-12T10:20:21.507Z</time>
      </trkpt>
      <trkpt lat="46.85193" lon="8.48274">
        <ele>2436</ele>
        <time>2021-08-12T10:20:22.506Z</time>
      </trkpt>
      <trkpt lat="46.85193" lon="8.48273">
        <ele>2435</ele>
        <time>2021-08-12T10:20:23.506Z</time>
      </trkpt>
      <trkpt lat="46.85193" lon="8.48272">
        <ele>2434</ele>
        <time>2021-08-12T10:20:24.507Z</time>
      </trkpt>
      <trkpt lat="46.85193" lon="8.48271">
        <ele>2433</ele>
        <time>2021-08-12T10:20:25.507Z</time>
      </trkpt>
      <trkpt lat="46.85193" lon="8.48271">
        <ele>2432</ele>
        <time>2021-08-12T10:20:26.507Z</time>
      </trkpt>
      <trkpt lat="46.85192" lon="8.4827">
        <ele>2432</ele>
        <time>2021-08-12T10:20:27.507Z</time>
      </trkpt>
      <trkpt lat="46.85191" lon="8.48268">
        <ele>2431</ele>
        <time>2021-08-12T10:20:28.506Z</time>
      </trkpt>
      <trkpt lat="46.85191" lon="8.48267">
        <ele>2430</ele>
        <time>2021-08-12T10:20:29.506Z</time>
      </trkpt>
      <trkpt lat="46.85191" lon="8.48265">
        <ele>2429</ele>
        <time>2021-08-12T10:20:30.507Z</time>
      </trkpt>
      <trkpt lat="46.85191" lon="8.48264">
        <ele>2428</ele>
        <time>2021-08-12T10:20:31.506Z</time>
      </trkpt>
      <trkpt lat="46.85191" lon="8.48263">
        <ele>2427</ele>
        <time>2021-08-12T10:20:32.507Z</time>
      </trkpt>
      <trkpt lat="46.85191" lon="8.48262">
        <ele>2426</ele>
        <time>2021-08-12T10:20:33.507Z</time>
      </trkpt>
      <trkpt lat="46.8519" lon="8.48261">
        <ele>2426</ele>
        <time>2021-08-12T10:20:34.507Z</time>
      </trkpt>
      <trkpt lat="46.8519" lon="8.48259">
        <ele>2425</ele>
        <time>2021-08-12T10:20:35.506Z</time>
      </trkpt>
      <trkpt lat="46.85189" lon="8.48258">
        <ele>2425</ele>
        <time>2021-08-12T10:20:36.507Z</time>
      </trkpt>
      <trkpt lat="46.85189" lon="8.48257">
        <ele>2425</ele>
        <time>2021-08-12T10:20:37.506Z</time>
      </trkpt>
      <trkpt lat="46.85189" lon="8.48255">
        <ele>2424</ele>
        <time>2021-08-12T10:20:38.506Z</time>
      </trkpt>
      <trkpt lat="46.85189" lon="8.48254">
        <ele>2423</ele>
        <time>2021-08-12T10:20:39.507Z</time>
      </trkpt>
      <trkpt lat="46.85188" lon="8.48252">
        <ele>2423</ele>
        <time>2021-08-12T10:20:40.507Z</time>
      </trkpt>
      <trkpt lat="46.85187" lon="8.48251">
        <ele>2423</ele>
        <time>2021-08-12T10:20:41.507Z</time>
      </trkpt>
      <trkpt lat="46.85186" lon="8.4825">
        <ele>2424</ele>
        <time>2021-08-12T10:20:42.507Z</time>
      </trkpt>
      <trkpt lat="46.85186" lon="8.48249">
        <ele>2424</ele>
        <time>2021-08-12T10:20:43.507Z</time>
      </trkpt>
      <trkpt lat="46.85185" lon="8.48248">
        <ele>2425</ele>
        <time>2021-08-12T10:20:44.507Z</time>
      </trkpt>
      <trkpt lat="46.85185" lon="8.48247">
        <ele>2425</ele>
        <time>2021-08-12T10:20:45.507Z</time>
      </trkpt>
      <trkpt lat="46.85185" lon="8.48246">
        <ele>2425</ele>
        <time>2021-08-12T10:20:46.506Z</time>
      </trkpt>
      <trkpt lat="46.85184" lon="8.48245">
        <ele>2424</ele>
        <time>2021-08-12T10:20:47.506Z</time>
      </trkpt>
      <trkpt lat="46.85184" lon="8.48242">
        <ele>2424</ele>
        <time>2021-08-12T10:20:48.507Z</time>
      </trkpt>
      <trkpt lat="46.85184" lon="8.4824">
        <ele>2424</ele>
        <time>2021-08-12T10:20:49.507Z</time>
      </trkpt>
      <trkpt lat="46.85184" lon="8.48238">
        <ele>2424</ele>
        <time>2021-08-12T10:20:50.507Z</time>
      </trkpt>
      <trkpt lat="46.85182" lon="8.48236">
        <ele>2425</ele>
        <time>2021-08-12T10:20:51.507Z</time>
      </trkpt>
      <trkpt lat="46.85182" lon="8.48235">
        <ele>2425</ele>
        <time>2021-08-12T10:20:52.507Z</time>
      </trkpt>
      <trkpt lat="46.85181" lon="8.48234">
        <ele>2425</ele>
        <time>2021-08-12T10:20:53.507Z</time>
      </trkpt>
      <trkpt lat="46.85181" lon="8.48233">
        <ele>2426</ele>
        <time>2021-08-12T10:20:54.506Z</time>
      </trkpt>
      <trkpt lat="46.85181" lon="8.48232">
        <ele>2427</ele>
        <time>2021-08-12T10:20:55.507Z</time>
      </trkpt>
      <trkpt lat="46.8518" lon="8.48231">
        <ele>2427</ele>
        <time>2021-08-12T10:20:56.506Z</time>
      </trkpt>
      <trkpt lat="46.8518" lon="8.4823">
        <ele>2427</ele>
        <time>2021-08-12T10:20:57.506Z</time>
      </trkpt>
      <trkpt lat="46.8518" lon="8.48228">
        <ele>2427</ele>
        <time>2021-08-12T10:20:58.506Z</time>
      </trkpt>
      <trkpt lat="46.8518" lon="8.48227">
        <ele>2427</ele>
        <time>2021-08-12T10:20:59.507Z</time>
      </trkpt>
      <trkpt lat="46.85179" lon="8.48226">
        <ele>2427</ele>
        <time>2021-08-12T10:21:00.507Z</time>
      </trkpt>
      <trkpt lat="46.85179" lon="8.48225">
        <ele>2427</ele>
        <time>2021-08-12T10:21:01.507Z</time>
      </trkpt>
      <trkpt lat="46.85178" lon="8.48225">
        <ele>2428</ele>
        <time>2021-08-12T10:21:02.507Z</time>
      </trkpt>
      <trkpt lat="46.85178" lon="8.48225">
        <ele>2428</ele>
        <time>2021-08-12T10:21:03.507Z</time>
      </trkpt>
      <trkpt lat="46.85178" lon="8.48224">
        <ele>2429</ele>
        <time>2021-08-12T10:21:04.506Z</time>
      </trkpt>
      <trkpt lat="46.85178" lon="8.48223">
        <ele>2429</ele>
        <time>2021-08-12T10:21:05.507Z</time>
      </trkpt>
      <trkpt lat="46.85178" lon="8.48222">
        <ele>2429</ele>
        <time>2021-08-12T10:21:06.507Z</time>
      </trkpt>
      <trkpt lat="46.85177" lon="8.48221">
        <ele>2429</ele>
        <time>2021-08-12T10:21:07.507Z</time>
      </trkpt>
      <trkpt lat="46.85177" lon="8.4822">
        <ele>2430</ele>
        <time>2021-08-12T10:21:08.506Z</time>
      </trkpt>
      <trkpt lat="46.85177" lon="8.48219">
        <ele>2430</ele>
        <time>2021-08-12T10:21:09.506Z</time>
      </trkpt>
      <trkpt lat="46.85176" lon="8.48218">
        <ele>2431</ele>
        <time>2021-08-12T10:21:10.507Z</time>
      </trkpt>
      <trkpt lat="46.85175" lon="8.48217">
        <ele>2432</ele>
        <time>2021-08-12T10:21:11.507Z</time>
      </trkpt>
      <trkpt lat="46.85175" lon="8.48216">
        <ele>2433</ele>
        <time>2021-08-12T10:21:12.507Z</time>
      </trkpt>
      <trkpt lat="46.85174" lon="8.48215">
        <ele>2433</ele>
        <time>2021-08-12T10:21:13.506Z</time>
      </trkpt>
      <trkpt lat="46.85174" lon="8.48213">
        <ele>2434</ele>
        <time>2021-08-12T10:21:14.507Z</time>
      </trkpt>
      <trkpt lat="46.85173" lon="8.48213">
        <ele>2434</ele>
        <time>2021-08-12T10:21:15.506Z</time>
      </trkpt>
      <trkpt lat="46.85173" lon="8.48212">
        <ele>2435</ele>
        <time>2021-08-12T10:21:16.507Z</time>
      </trkpt>
      <trkpt lat="46.85173" lon="8.4821">
        <ele>2436</ele>
        <time>2021-08-12T10:21:17.507Z</time>
      </trkpt>
      <trkpt lat="46.85172" lon="8.48209">
        <ele>2436</ele>
        <time>2021-08-12T10:21:18.507Z</time>
      </trkpt>
      <trkpt lat="46.85171" lon="8.48209">
        <ele>2437</ele>
        <time>2021-08-12T10:21:19.507Z</time>
      </trkpt>
      <trkpt lat="46.8517" lon="8.48208">
        <ele>2437</ele>
        <time>2021-08-12T10:21:20.507Z</time>
      </trkpt>
      <trkpt lat="46.8517" lon="8.48208">
        <ele>2437</ele>
        <time>2021-08-12T10:21:21.507Z</time>
      </trkpt>
      <trkpt lat="46.85169" lon="8.48207">
        <ele>2437</ele>
        <time>2021-08-12T10:21:22.506Z</time>
      </trkpt>
      <trkpt lat="46.85169" lon="8.48206">
        <ele>2437</ele>
        <time>2021-08-12T10:21:23.507Z</time>
      </trkpt>
      <trkpt lat="46.85169" lon="8.48205">
        <ele>2437</ele>
        <time>2021-08-12T10:21:24.507Z</time>
      </trkpt>
      <trkpt lat="46.85168" lon="8.48204">
        <ele>2437</ele>
        <time>2021-08-12T10:21:25.507Z</time>
      </trkpt>
      <trkpt lat="46.85168" lon="8.48204">
        <ele>2437</ele>
        <time>2021-08-12T10:21:26.506Z</time>
      </trkpt>
      <trkpt lat="46.85168" lon="8.48204">
        <ele>2437</ele>
        <time>2021-08-12T10:21:27.507Z</time>
      </trkpt>
      <trkpt lat="46.85168" lon="8.48205">
        <ele>2437</ele>
        <time>2021-08-12T10:21:28.506Z</time>
      </trkpt>
      <trkpt lat="46.85168" lon="8.48205">
        <ele>2436</ele>
        <time>2021-08-12T10:21:29.507Z</time>
      </trkpt>
      <trkpt lat="46.85167" lon="8.48206">
        <ele>2436</ele>
        <time>2021-08-12T10:21:30.506Z</time>
      </trkpt>
      <trkpt lat="46.85167" lon="8.48205">
        <ele>2435</ele>
        <time>2021-08-12T10:21:31.506Z</time>
      </trkpt>
      <trkpt lat="46.85166" lon="8.48203">
        <ele>2435</ele>
        <time>2021-08-12T10:21:32.506Z</time>
      </trkpt>
      <trkpt lat="46.85165" lon="8.48204">
        <ele>2435</ele>
        <time>2021-08-12T10:21:33.507Z</time>
      </trkpt>
      <trkpt lat="46.85164" lon="8.48204">
        <ele>2435</ele>
        <time>2021-08-12T10:21:34.507Z</time>
      </trkpt>
      <trkpt lat="46.85163" lon="8.48205">
        <ele>2435</ele>
        <time>2021-08-12T10:21:35.507Z</time>
      </trkpt>
      <trkpt lat="46.85163" lon="8.48205">
        <ele>2435</ele>
        <time>2021-08-12T10:21:36.507Z</time>
      </trkpt>
      <trkpt lat="46.85162" lon="8.48205">
        <ele>2435</ele>
        <time>2021-08-12T10:21:37.507Z</time>
      </trkpt>
      <trkpt lat="46.85161" lon="8.48205">
        <ele>2434</ele>
        <time>2021-08-12T10:21:38.507Z</time>
      </trkpt>
      <trkpt lat="46.8516" lon="8.48205">
        <ele>2434</ele>
        <time>2021-08-12T10:21:39.507Z</time>
      </trkpt>
      <trkpt lat="46.85159" lon="8.48205">
        <ele>2433</ele>
        <time>2021-08-12T10:21:40.507Z</time>
      </trkpt>
      <trkpt lat="46.85159" lon="8.48204">
        <ele>2433</ele>
        <time>2021-08-12T10:21:41.507Z</time>
      </trkpt>
      <trkpt lat="46.85159" lon="8.48204">
        <ele>2432</ele>
        <time>2021-08-12T10:21:42.507Z</time>
      </trkpt>
      <trkpt lat="46.85159" lon="8.48203">
        <ele>2431</ele>
        <time>2021-08-12T10:21:43.507Z</time>
      </trkpt>
      <trkpt lat="46.85159" lon="8.48202">
        <ele>2430</ele>
        <time>2021-08-12T10:21:44.507Z</time>
      </trkpt>
      <trkpt lat="46.85158" lon="8.48201">
        <ele>2430</ele>
        <time>2021-08-12T10:21:45.507Z</time>
      </trkpt>
      <trkpt lat="46.85158" lon="8.482">
        <ele>2430</ele>
        <time>2021-08-12T10:21:46.507Z</time>
      </trkpt>
      <trkpt lat="46.85158" lon="8.48199">
        <ele>2430</ele>
        <time>2021-08-12T10:21:47.507Z</time>
      </trkpt>
      <trkpt lat="46.85158" lon="8.48198">
        <ele>2429</ele>
        <time>2021-08-12T10:21:48.506Z</time>
      </trkpt>
      <trkpt lat="46.85158" lon="8.48196">
        <ele>2429</ele>
        <time>2021-08-12T10:21:49.506Z</time>
      </trkpt>
      <trkpt lat="46.85159" lon="8.48195">
        <ele>2428</ele>
        <time>2021-08-12T10:21:50.506Z</time>
      </trkpt>
      <trkpt lat="46.8516" lon="8.48194">
        <ele>2428</ele>
        <time>2021-08-12T10:21:51.506Z</time>
      </trkpt>
      <trkpt lat="46.85161" lon="8.48192">
        <ele>2428</ele>
        <time>2021-08-12T10:21:52.507Z</time>
      </trkpt>
      <trkpt lat="46.85162" lon="8.48192">
        <ele>2427</ele>
        <time>2021-08-12T10:21:53.507Z</time>
      </trkpt>
      <trkpt lat="46.85162" lon="8.4819">
        <ele>2427</ele>
        <time>2021-08-12T10:21:54.507Z</time>
      </trkpt>
      <trkpt lat="46.85162" lon="8.48189">
        <ele>2427</ele>
        <time>2021-08-12T10:21:55.506Z</time>
      </trkpt>
      <trkpt lat="46.85161" lon="8.48187">
        <ele>2426</ele>
        <time>2021-08-12T10:21:56.507Z</time>
      </trkpt>
      <trkpt lat="46.85161" lon="8.48187">
        <ele>2426</ele>
        <time>2021-08-12T10:21:57.507Z</time>
      </trkpt>
      <trkpt lat="46.85161" lon="8.48186">
        <ele>2427</ele>
        <time>2021-08-12T10:21:58.506Z</time>
      </trkpt>
      <trkpt lat="46.85161" lon="8.48186">
        <ele>2427</ele>
        <time>2021-08-12T10:21:59.507Z</time>
      </trkpt>
      <trkpt lat="46.8516" lon="8.48186">
        <ele>2427</ele>
        <time>2021-08-12T10:22:00.507Z</time>
      </trkpt>
      <trkpt lat="46.85159" lon="8.48186">
        <ele>2427</ele>
        <time>2021-08-12T10:22:01.506Z</time>
      </trkpt>
      <trkpt lat="46.85159" lon="8.48186">
        <ele>2428</ele>
        <time>2021-08-12T10:22:02.507Z</time>
      </trkpt>
      <trkpt lat="46.85161" lon="8.48187">
        <ele>2429</ele>
        <time>2021-08-12T10:22:03.507Z</time>
      </trkpt>
      <trkpt lat="46.85162" lon="8.48185">
        <ele>2429</ele>
        <time>2021-08-12T10:22:04.508Z</time>
      </trkpt>
      <trkpt lat="46.85162" lon="8.48183">
        <ele>2430</ele>
        <time>2021-08-12T10:22:05.508Z</time>
      </trkpt>
      <trkpt lat="46.85161" lon="8.48183">
        <ele>2430</ele>
        <time>2021-08-12T10:22:06.507Z</time>
      </trkpt>
      <trkpt lat="46.8516" lon="8.48183">
        <ele>2431</ele>
        <time>2021-08-12T10:22:07.508Z</time>
      </trkpt>
      <trkpt lat="46.85159" lon="8.48184">
        <ele>2431</ele>
        <time>2021-08-12T10:22:08.508Z</time>
      </trkpt>
      <trkpt lat="46.85159" lon="8.48184">
        <ele>2432</ele>
        <time>2021-08-12T10:22:09.508Z</time>
      </trkpt>
      <trkpt lat="46.85158" lon="8.48185">
        <ele>2432</ele>
        <time>2021-08-12T10:22:10.507Z</time>
      </trkpt>
      <trkpt lat="46.85158" lon="8.48185">
        <ele>2432</ele>
        <time>2021-08-12T10:22:11.507Z</time>
      </trkpt>
      <trkpt lat="46.85157" lon="8.48185">
        <ele>2431</ele>
        <time>2021-08-12T10:22:12.508Z</time>
      </trkpt>
      <trkpt lat="46.85156" lon="8.48186">
        <ele>2431</ele>
        <time>2021-08-12T10:22:13.508Z</time>
      </trkpt>
      <trkpt lat="46.85155" lon="8.48186">
        <ele>2431</ele>
        <time>2021-08-12T10:22:14.507Z</time>
      </trkpt>
      <trkpt lat="46.85155" lon="8.48186">
        <ele>2431</ele>
        <time>2021-08-12T10:22:15.507Z</time>
      </trkpt>
      <trkpt lat="46.85154" lon="8.48186">
        <ele>2430</ele>
        <time>2021-08-12T10:22:16.508Z</time>
      </trkpt>
      <trkpt lat="46.85153" lon="8.48186">
        <ele>2430</ele>
        <time>2021-08-12T10:22:17.507Z</time>
      </trkpt>
      <trkpt lat="46.85153" lon="8.48186">
        <ele>2430</ele>
        <time>2021-08-12T10:22:18.507Z</time>
      </trkpt>
      <trkpt lat="46.85152" lon="8.48185">
        <ele>2429</ele>
        <time>2021-08-12T10:22:19.508Z</time>
      </trkpt>
      <trkpt lat="46.85152" lon="8.48185">
        <ele>2429</ele>
        <time>2021-08-12T10:22:20.508Z</time>
      </trkpt>
      <trkpt lat="46.85152" lon="8.48185">
        <ele>2429</ele>
        <time>2021-08-12T10:22:21.508Z</time>
      </trkpt>
      <trkpt lat="46.85152" lon="8.48185">
        <ele>2429</ele>
        <time>2021-08-12T10:22:22.508Z</time>
      </trkpt>
      <trkpt lat="46.85152" lon="8.48185">
        <ele>2429</ele>
        <time>2021-08-12T10:22:23.508Z</time>
      </trkpt>
      <trkpt lat="46.85152" lon="8.48186">
        <ele>2429</ele>
        <time>2021-08-12T10:22:24.508Z</time>
      </trkpt>
      <trkpt lat="46.85155" lon="8.48186">
        <ele>2430</ele>
        <time>2021-08-12T10:22:25.507Z</time>
      </trkpt>
      <trkpt lat="46.85155" lon="8.48186">
        <ele>2430</ele>
        <time>2021-08-12T10:22:26.507Z</time>
      </trkpt>
      <trkpt lat="46.85155" lon="8.48185">
        <ele>2430</ele>
        <time>2021-08-12T10:22:27.508Z</time>
      </trkpt>
      <trkpt lat="46.85155" lon="8.48184">
        <ele>2429</ele>
        <time>2021-08-12T10:22:28.507Z</time>
      </trkpt>
      <trkpt lat="46.85155" lon="8.48183">
        <ele>2429</ele>
        <time>2021-08-12T10:22:29.507Z</time>
      </trkpt>
      <trkpt lat="46.85156" lon="8.48183">
        <ele>2428</ele>
        <time>2021-08-12T10:22:30.507Z</time>
      </trkpt>
      <trkpt lat="46.85156" lon="8.48182">
        <ele>2426</ele>
        <time>2021-08-12T10:22:31.507Z</time>
      </trkpt>
      <trkpt lat="46.85156" lon="8.48181">
        <ele>2426</ele>
        <time>2021-08-12T10:22:32.507Z</time>
      </trkpt>
      <trkpt lat="46.85156" lon="8.48181">
        <ele>2426</ele>
        <time>2021-08-12T10:22:33.508Z</time>
      </trkpt>
      <trkpt lat="46.85156" lon="8.48181">
        <ele>2426</ele>
        <time>2021-08-12T10:22:34.508Z</time>
      </trkpt>
      <trkpt lat="46.85151" lon="8.48184">
        <ele>2430</ele>
        <time>2021-08-12T10:22:35.509Z</time>
      </trkpt>
      <trkpt lat="46.85151" lon="8.48185">
        <ele>2430</ele>
        <time>2021-08-12T10:22:36.508Z</time>
      </trkpt>
      <trkpt lat="46.8515" lon="8.48191">
        <ele>2430</ele>
        <time>2021-08-12T10:22:37.508Z</time>
      </trkpt>
      <trkpt lat="46.8515" lon="8.48191">
        <ele>2430</ele>
        <time>2021-08-12T10:22:38.509Z</time>
      </trkpt>
      <trkpt lat="46.85151" lon="8.48191">
        <ele>2430</ele>
        <time>2021-08-12T10:22:39.508Z</time>
      </trkpt>
      <trkpt lat="46.85151" lon="8.48191">
        <ele>2430</ele>
        <time>2021-08-12T10:22:40.509Z</time>
      </trkpt>
      <trkpt lat="46.85153" lon="8.48179">
        <ele>2427</ele>
        <time>2021-08-12T10:22:41.510Z</time>
      </trkpt>
      <trkpt lat="46.85153" lon="8.48178">
        <ele>2427</ele>
        <time>2021-08-12T10:22:42.509Z</time>
      </trkpt>
      <trkpt lat="46.85153" lon="8.48177">
        <ele>2427</ele>
        <time>2021-08-12T10:22:43.509Z</time>
      </trkpt>
      <trkpt lat="46.85152" lon="8.48176">
        <ele>2427</ele>
        <time>2021-08-12T10:22:44.509Z</time>
      </trkpt>
      <trkpt lat="46.85152" lon="8.48174">
        <ele>2427</ele>
        <time>2021-08-12T10:22:45.509Z</time>
      </trkpt>
      <trkpt lat="46.85152" lon="8.48172">
        <ele>2427</ele>
        <time>2021-08-12T10:22:46.510Z</time>
      </trkpt>
      <trkpt lat="46.85152" lon="8.48171">
        <ele>2427</ele>
        <time>2021-08-12T10:22:47.510Z</time>
      </trkpt>
      <trkpt lat="46.85152" lon="8.48171">
        <ele>2427</ele>
        <time>2021-08-12T10:22:48.510Z</time>
      </trkpt>
      <trkpt lat="46.85153" lon="8.4817">
        <ele>2427</ele>
        <time>2021-08-12T10:22:49.510Z</time>
      </trkpt>
      <trkpt lat="46.85153" lon="8.48168">
        <ele>2427</ele>
        <time>2021-08-12T10:22:50.509Z</time>
      </trkpt>
      <trkpt lat="46.85155" lon="8.48167">
        <ele>2427</ele>
        <time>2021-08-12T10:22:51.510Z</time>
      </trkpt>
      <trkpt lat="46.85155" lon="8.48165">
        <ele>2427</ele>
        <time>2021-08-12T10:22:52.509Z</time>
      </trkpt>
      <trkpt lat="46.85155" lon="8.48163">
        <ele>2426</ele>
        <time>2021-08-12T10:22:53.510Z</time>
      </trkpt>
      <trkpt lat="46.85155" lon="8.48162">
        <ele>2426</ele>
        <time>2021-08-12T10:22:54.509Z</time>
      </trkpt>
      <trkpt lat="46.85155" lon="8.48161">
        <ele>2426</ele>
        <time>2021-08-12T10:22:55.509Z</time>
      </trkpt>
      <trkpt lat="46.85155" lon="8.4816">
        <ele>2425</ele>
        <time>2021-08-12T10:22:56.510Z</time>
      </trkpt>
      <trkpt lat="46.85155" lon="8.48159">
        <ele>2425</ele>
        <time>2021-08-12T10:22:57.510Z</time>
      </trkpt>
      <trkpt lat="46.85155" lon="8.48159">
        <ele>2425</ele>
        <time>2021-08-12T10:22:58.510Z</time>
      </trkpt>
      <trkpt lat="46.85155" lon="8.48158">
        <ele>2425</ele>
        <time>2021-08-12T10:22:59.509Z</time>
      </trkpt>
      <trkpt lat="46.85154" lon="8.48157">
        <ele>2425</ele>
        <time>2021-08-12T10:23:00.510Z</time>
      </trkpt>
      <trkpt lat="46.85154" lon="8.48156">
        <ele>2426</ele>
        <time>2021-08-12T10:23:01.510Z</time>
      </trkpt>
      <trkpt lat="46.85154" lon="8.48155">
        <ele>2426</ele>
        <time>2021-08-12T10:23:02.509Z</time>
      </trkpt>
      <trkpt lat="46.85154" lon="8.48154">
        <ele>2426</ele>
        <time>2021-08-12T10:23:03.509Z</time>
      </trkpt>
      <trkpt lat="46.85154" lon="8.48153">
        <ele>2427</ele>
        <time>2021-08-12T10:23:04.510Z</time>
      </trkpt>
      <trkpt lat="46.85153" lon="8.48151">
        <ele>2428</ele>
        <time>2021-08-12T10:23:05.509Z</time>
      </trkpt>
      <trkpt lat="46.85153" lon="8.48151">
        <ele>2428</ele>
        <time>2021-08-12T10:23:06.509Z</time>
      </trkpt>
      <trkpt lat="46.85152" lon="8.48151">
        <ele>2429</ele>
        <time>2021-08-12T10:23:07.510Z</time>
      </trkpt>
      <trkpt lat="46.85151" lon="8.48151">
        <ele>2430</ele>
        <time>2021-08-12T10:23:08.510Z</time>
      </trkpt>
      <trkpt lat="46.85151" lon="8.4815">
        <ele>2430</ele>
        <time>2021-08-12T10:23:09.510Z</time>
      </trkpt>
      <trkpt lat="46.85151" lon="8.48149">
        <ele>2431</ele>
        <time>2021-08-12T10:23:10.509Z</time>
      </trkpt>
      <trkpt lat="46.85151" lon="8.48148">
        <ele>2431</ele>
        <time>2021-08-12T10:23:11.510Z</time>
      </trkpt>
      <trkpt lat="46.85151" lon="8.48147">
        <ele>2432</ele>
        <time>2021-08-12T10:23:12.510Z</time>
      </trkpt>
      <trkpt lat="46.8515" lon="8.48147">
        <ele>2432</ele>
        <time>2021-08-12T10:23:13.510Z</time>
      </trkpt>
      <trkpt lat="46.8515" lon="8.48146">
        <ele>2433</ele>
        <time>2021-08-12T10:23:14.509Z</time>
      </trkpt>
      <trkpt lat="46.8515" lon="8.48146">
        <ele>2433</ele>
        <time>2021-08-12T10:23:15.509Z</time>
      </trkpt>
      <trkpt lat="46.85151" lon="8.48145">
        <ele>2433</ele>
        <time>2021-08-12T10:23:16.509Z</time>
      </trkpt>
      <trkpt lat="46.85151" lon="8.48144">
        <ele>2433</ele>
        <time>2021-08-12T10:23:17.510Z</time>
      </trkpt>
      <trkpt lat="46.8515" lon="8.48143">
        <ele>2433</ele>
        <time>2021-08-12T10:23:18.510Z</time>
      </trkpt>
      <trkpt lat="46.8515" lon="8.48142">
        <ele>2434</ele>
        <time>2021-08-12T10:23:19.510Z</time>
      </trkpt>
      <trkpt lat="46.8515" lon="8.48141">
        <ele>2434</ele>
        <time>2021-08-12T10:23:20.510Z</time>
      </trkpt>
      <trkpt lat="46.8515" lon="8.4814">
        <ele>2433</ele>
        <time>2021-08-12T10:23:21.510Z</time>
      </trkpt>
      <trkpt lat="46.8515" lon="8.48139">
        <ele>2433</ele>
        <time>2021-08-12T10:23:22.510Z</time>
      </trkpt>
      <trkpt lat="46.8515" lon="8.48138">
        <ele>2433</ele>
        <time>2021-08-12T10:23:23.509Z</time>
      </trkpt>
      <trkpt lat="46.8515" lon="8.48136">
        <ele>2433</ele>
        <time>2021-08-12T10:23:24.509Z</time>
      </trkpt>
      <trkpt lat="46.8515" lon="8.48134">
        <ele>2433</ele>
        <time>2021-08-12T10:23:25.509Z</time>
      </trkpt>
      <trkpt lat="46.85151" lon="8.48133">
        <ele>2434</ele>
        <time>2021-08-12T10:23:26.509Z</time>
      </trkpt>
      <trkpt lat="46.8515" lon="8.48132">
        <ele>2434</ele>
        <time>2021-08-12T10:23:27.509Z</time>
      </trkpt>
      <trkpt lat="46.8515" lon="8.4813">
        <ele>2435</ele>
        <time>2021-08-12T10:23:28.510Z</time>
      </trkpt>
      <trkpt lat="46.85149" lon="8.48129">
        <ele>2435</ele>
        <time>2021-08-12T10:23:29.510Z</time>
      </trkpt>
      <trkpt lat="46.85149" lon="8.48128">
        <ele>2436</ele>
        <time>2021-08-12T10:23:30.509Z</time>
      </trkpt>
      <trkpt lat="46.85148" lon="8.48126">
        <ele>2437</ele>
        <time>2021-08-12T10:23:31.509Z</time>
      </trkpt>
      <trkpt lat="46.85148" lon="8.48125">
        <ele>2438</ele>
        <time>2021-08-12T10:23:32.509Z</time>
      </trkpt>
      <trkpt lat="46.85148" lon="8.48123">
        <ele>2438</ele>
        <time>2021-08-12T10:23:33.510Z</time>
      </trkpt>
      <trkpt lat="46.85148" lon="8.48121">
        <ele>2438</ele>
        <time>2021-08-12T10:23:34.509Z</time>
      </trkpt>
      <trkpt lat="46.85148" lon="8.48119">
        <ele>2438</ele>
        <time>2021-08-12T10:23:35.510Z</time>
      </trkpt>
      <trkpt lat="46.85147" lon="8.48116">
        <ele>2438</ele>
        <time>2021-08-12T10:23:36.509Z</time>
      </trkpt>
      <trkpt lat="46.85147" lon="8.48115">
        <ele>2438</ele>
        <time>2021-08-12T10:23:37.510Z</time>
      </trkpt>
      <trkpt lat="46.85146" lon="8.48113">
        <ele>2438</ele>
        <time>2021-08-12T10:23:38.510Z</time>
      </trkpt>
      <trkpt lat="46.85146" lon="8.48111">
        <ele>2438</ele>
        <time>2021-08-12T10:23:39.509Z</time>
      </trkpt>
      <trkpt lat="46.85146" lon="8.4811">
        <ele>2438</ele>
        <time>2021-08-12T10:23:40.510Z</time>
      </trkpt>
      <trkpt lat="46.85146" lon="8.48108">
        <ele>2438</ele>
        <time>2021-08-12T10:23:41.509Z</time>
      </trkpt>
      <trkpt lat="46.85146" lon="8.48107">
        <ele>2438</ele>
        <time>2021-08-12T10:23:42.509Z</time>
      </trkpt>
      <trkpt lat="46.85146" lon="8.48106">
        <ele>2438</ele>
        <time>2021-08-12T10:23:43.510Z</time>
      </trkpt>
      <trkpt lat="46.85147" lon="8.48104">
        <ele>2438</ele>
        <time>2021-08-12T10:23:44.509Z</time>
      </trkpt>
      <trkpt lat="46.85147" lon="8.48104">
        <ele>2438</ele>
        <time>2021-08-12T10:23:45.509Z</time>
      </trkpt>
      <trkpt lat="46.85147" lon="8.48103">
        <ele>2438</ele>
        <time>2021-08-12T10:23:46.509Z</time>
      </trkpt>
      <trkpt lat="46.85147" lon="8.48103">
        <ele>2438</ele>
        <time>2021-08-12T10:23:47.510Z</time>
      </trkpt>
      <trkpt lat="46.85147" lon="8.48102">
        <ele>2438</ele>
        <time>2021-08-12T10:23:48.510Z</time>
      </trkpt>
      <trkpt lat="46.85147" lon="8.48101">
        <ele>2438</ele>
        <time>2021-08-12T10:23:49.510Z</time>
      </trkpt>
      <trkpt lat="46.85147" lon="8.481">
        <ele>2438</ele>
        <time>2021-08-12T10:23:50.509Z</time>
      </trkpt>
      <trkpt lat="46.85147" lon="8.48099">
        <ele>2438</ele>
        <time>2021-08-12T10:23:51.509Z</time>
      </trkpt>
      <trkpt lat="46.85148" lon="8.48098">
        <ele>2438</ele>
        <time>2021-08-12T10:23:52.509Z</time>
      </trkpt>
      <trkpt lat="46.85148" lon="8.48097">
        <ele>2438</ele>
        <time>2021-08-12T10:23:53.510Z</time>
      </trkpt>
      <trkpt lat="46.85148" lon="8.48095">
        <ele>2438</ele>
        <time>2021-08-12T10:23:54.510Z</time>
      </trkpt>
      <trkpt lat="46.85148" lon="8.48093">
        <ele>2437</ele>
        <time>2021-08-12T10:23:55.509Z</time>
      </trkpt>
      <trkpt lat="46.85149" lon="8.48091">
        <ele>2437</ele>
        <time>2021-08-12T10:23:56.510Z</time>
      </trkpt>
      <trkpt lat="46.85149" lon="8.48089">
        <ele>2437</ele>
        <time>2021-08-12T10:23:57.509Z</time>
      </trkpt>
      <trkpt lat="46.85149" lon="8.48088">
        <ele>2436</ele>
        <time>2021-08-12T10:23:58.509Z</time>
      </trkpt>
      <trkpt lat="46.85148" lon="8.48087">
        <ele>2436</ele>
        <time>2021-08-12T10:23:59.510Z</time>
      </trkpt>
      <trkpt lat="46.85148" lon="8.48086">
        <ele>2435</ele>
        <time>2021-08-12T10:24:00.510Z</time>
      </trkpt>
      <trkpt lat="46.85147" lon="8.48085">
        <ele>2435</ele>
        <time>2021-08-12T10:24:01.509Z</time>
      </trkpt>
      <trkpt lat="46.85147" lon="8.48084">
        <ele>2435</ele>
        <time>2021-08-12T10:24:02.509Z</time>
      </trkpt>
      <trkpt lat="46.85147" lon="8.48082">
        <ele>2435</ele>
        <time>2021-08-12T10:24:03.510Z</time>
      </trkpt>
      <trkpt lat="46.85146" lon="8.4808">
        <ele>2435</ele>
        <time>2021-08-12T10:24:04.510Z</time>
      </trkpt>
      <trkpt lat="46.85146" lon="8.48079">
        <ele>2435</ele>
        <time>2021-08-12T10:24:05.509Z</time>
      </trkpt>
      <trkpt lat="46.85146" lon="8.48079">
        <ele>2435</ele>
        <time>2021-08-12T10:24:06.510Z</time>
      </trkpt>
      <trkpt lat="46.85145" lon="8.48078">
        <ele>2435</ele>
        <time>2021-08-12T10:24:07.509Z</time>
      </trkpt>
      <trkpt lat="46.85145" lon="8.48076">
        <ele>2435</ele>
        <time>2021-08-12T10:24:08.509Z</time>
      </trkpt>
      <trkpt lat="46.85144" lon="8.48074">
        <ele>2435</ele>
        <time>2021-08-12T10:24:09.510Z</time>
      </trkpt>
      <trkpt lat="46.85144" lon="8.48072">
        <ele>2434</ele>
        <time>2021-08-12T10:24:10.509Z</time>
      </trkpt>
      <trkpt lat="46.85144" lon="8.48071">
        <ele>2434</ele>
        <time>2021-08-12T10:24:11.509Z</time>
      </trkpt>
      <trkpt lat="46.85144" lon="8.4807">
        <ele>2433</ele>
        <time>2021-08-12T10:24:12.509Z</time>
      </trkpt>
      <trkpt lat="46.85144" lon="8.48068">
        <ele>2433</ele>
        <time>2021-08-12T10:24:13.509Z</time>
      </trkpt>
      <trkpt lat="46.85145" lon="8.48066">
        <ele>2432</ele>
        <time>2021-08-12T10:24:14.509Z</time>
      </trkpt>
      <trkpt lat="46.85145" lon="8.48065">
        <ele>2432</ele>
        <time>2021-08-12T10:24:15.510Z</time>
      </trkpt>
      <trkpt lat="46.85145" lon="8.48063">
        <ele>2432</ele>
        <time>2021-08-12T10:24:16.509Z</time>
      </trkpt>
      <trkpt lat="46.85144" lon="8.48062">
        <ele>2432</ele>
        <time>2021-08-12T10:24:17.509Z</time>
      </trkpt>
      <trkpt lat="46.85144" lon="8.4806">
        <ele>2432</ele>
        <time>2021-08-12T10:24:18.510Z</time>
      </trkpt>
      <trkpt lat="46.85145" lon="8.48059">
        <ele>2433</ele>
        <time>2021-08-12T10:24:19.510Z</time>
      </trkpt>
      <trkpt lat="46.85145" lon="8.48057">
        <ele>2433</ele>
        <time>2021-08-12T10:24:20.509Z</time>
      </trkpt>
      <trkpt lat="46.85146" lon="8.48056">
        <ele>2433</ele>
        <time>2021-08-12T10:24:21.509Z</time>
      </trkpt>
      <trkpt lat="46.85146" lon="8.48055">
        <ele>2433</ele>
        <time>2021-08-12T10:24:22.510Z</time>
      </trkpt>
      <trkpt lat="46.85146" lon="8.48054">
        <ele>2432</ele>
        <time>2021-08-12T10:24:23.510Z</time>
      </trkpt>
      <trkpt lat="46.85147" lon="8.48054">
        <ele>2432</ele>
        <time>2021-08-12T10:24:24.509Z</time>
      </trkpt>
      <trkpt lat="46.85146" lon="8.48053">
        <ele>2432</ele>
        <time>2021-08-12T10:24:25.509Z</time>
      </trkpt>
      <trkpt lat="46.85146" lon="8.48052">
        <ele>2432</ele>
        <time>2021-08-12T10:24:26.509Z</time>
      </trkpt>
      <trkpt lat="46.85146" lon="8.48051">
        <ele>2432</ele>
        <time>2021-08-12T10:24:27.509Z</time>
      </trkpt>
      <trkpt lat="46.85145" lon="8.4805">
        <ele>2432</ele>
        <time>2021-08-12T10:24:28.509Z</time>
      </trkpt>
      <trkpt lat="46.85145" lon="8.48048">
        <ele>2432</ele>
        <time>2021-08-12T10:24:29.509Z</time>
      </trkpt>
      <trkpt lat="46.85144" lon="8.48047">
        <ele>2431</ele>
        <time>2021-08-12T10:24:30.509Z</time>
      </trkpt>
      <trkpt lat="46.85143" lon="8.48044">
        <ele>2431</ele>
        <time>2021-08-12T10:24:31.509Z</time>
      </trkpt>
      <trkpt lat="46.85143" lon="8.48043">
        <ele>2431</ele>
        <time>2021-08-12T10:24:32.509Z</time>
      </trkpt>
      <trkpt lat="46.85142" lon="8.48041">
        <ele>2431</ele>
        <time>2021-08-12T10:24:33.509Z</time>
      </trkpt>
      <trkpt lat="46.85141" lon="8.48039">
        <ele>2430</ele>
        <time>2021-08-12T10:24:34.509Z</time>
      </trkpt>
      <trkpt lat="46.85141" lon="8.48037">
        <ele>2430</ele>
        <time>2021-08-12T10:24:35.510Z</time>
      </trkpt>
      <trkpt lat="46.85141" lon="8.48036">
        <ele>2430</ele>
        <time>2021-08-12T10:24:36.510Z</time>
      </trkpt>
      <trkpt lat="46.8514" lon="8.48035">
        <ele>2429</ele>
        <time>2021-08-12T10:24:37.509Z</time>
      </trkpt>
      <trkpt lat="46.8514" lon="8.48034">
        <ele>2429</ele>
        <time>2021-08-12T10:24:38.509Z</time>
      </trkpt>
      <trkpt lat="46.85141" lon="8.48033">
        <ele>2428</ele>
        <time>2021-08-12T10:24:39.509Z</time>
      </trkpt>
      <trkpt lat="46.8514" lon="8.48031">
        <ele>2428</ele>
        <time>2021-08-12T10:24:40.510Z</time>
      </trkpt>
      <trkpt lat="46.8514" lon="8.4803">
        <ele>2428</ele>
        <time>2021-08-12T10:24:41.510Z</time>
      </trkpt>
      <trkpt lat="46.85139" lon="8.48029">
        <ele>2428</ele>
        <time>2021-08-12T10:24:42.509Z</time>
      </trkpt>
      <trkpt lat="46.85139" lon="8.48028">
        <ele>2428</ele>
        <time>2021-08-12T10:24:43.509Z</time>
      </trkpt>
      <trkpt lat="46.85138" lon="8.48027">
        <ele>2428</ele>
        <time>2021-08-12T10:24:44.510Z</time>
      </trkpt>
      <trkpt lat="46.85138" lon="8.48025">
        <ele>2427</ele>
        <time>2021-08-12T10:24:45.510Z</time>
      </trkpt>
      <trkpt lat="46.85139" lon="8.48024">
        <ele>2427</ele>
        <time>2021-08-12T10:24:46.510Z</time>
      </trkpt>
      <trkpt lat="46.85138" lon="8.48023">
        <ele>2427</ele>
        <time>2021-08-12T10:24:47.510Z</time>
      </trkpt>
      <trkpt lat="46.85138" lon="8.48021">
        <ele>2427</ele>
        <time>2021-08-12T10:24:48.510Z</time>
      </trkpt>
      <trkpt lat="46.85139" lon="8.4802">
        <ele>2427</ele>
        <time>2021-08-12T10:24:49.509Z</time>
      </trkpt>
      <trkpt lat="46.85139" lon="8.48019">
        <ele>2428</ele>
        <time>2021-08-12T10:24:50.510Z</time>
      </trkpt>
      <trkpt lat="46.85139" lon="8.48018">
        <ele>2428</ele>
        <time>2021-08-12T10:24:51.510Z</time>
      </trkpt>
      <trkpt lat="46.85139" lon="8.48016">
        <ele>2428</ele>
        <time>2021-08-12T10:24:52.510Z</time>
      </trkpt>
      <trkpt lat="46.8514" lon="8.48014">
        <ele>2428</ele>
        <time>2021-08-12T10:24:53.510Z</time>
      </trkpt>
      <trkpt lat="46.8514" lon="8.48013">
        <ele>2428</ele>
        <time>2021-08-12T10:24:54.509Z</time>
      </trkpt>
      <trkpt lat="46.8514" lon="8.48012">
        <ele>2428</ele>
        <time>2021-08-12T10:24:55.509Z</time>
      </trkpt>
      <trkpt lat="46.8514" lon="8.48011">
        <ele>2427</ele>
        <time>2021-08-12T10:24:56.510Z</time>
      </trkpt>
      <trkpt lat="46.8514" lon="8.4801">
        <ele>2427</ele>
        <time>2021-08-12T10:24:57.509Z</time>
      </trkpt>
      <trkpt lat="46.8514" lon="8.48008">
        <ele>2427</ele>
        <time>2021-08-12T10:24:58.510Z</time>
      </trkpt>
      <trkpt lat="46.8514" lon="8.48007">
        <ele>2427</ele>
        <time>2021-08-12T10:24:59.510Z</time>
      </trkpt>
      <trkpt lat="46.8514" lon="8.48006">
        <ele>2426</ele>
        <time>2021-08-12T10:25:00.509Z</time>
      </trkpt>
      <trkpt lat="46.8514" lon="8.48004">
        <ele>2426</ele>
        <time>2021-08-12T10:25:01.509Z</time>
      </trkpt>
      <trkpt lat="46.85139" lon="8.48003">
        <ele>2425</ele>
        <time>2021-08-12T10:25:02.510Z</time>
      </trkpt>
      <trkpt lat="46.85138" lon="8.48001">
        <ele>2425</ele>
        <time>2021-08-12T10:25:03.510Z</time>
      </trkpt>
      <trkpt lat="46.85138" lon="8.48">
        <ele>2425</ele>
        <time>2021-08-12T10:25:04.509Z</time>
      </trkpt>
      <trkpt lat="46.85137" lon="8.47998">
        <ele>2425</ele>
        <time>2021-08-12T10:25:05.510Z</time>
      </trkpt>
      <trkpt lat="46.85137" lon="8.47997">
        <ele>2425</ele>
        <time>2021-08-12T10:25:06.510Z</time>
      </trkpt>
      <trkpt lat="46.85137" lon="8.47995">
        <ele>2425</ele>
        <time>2021-08-12T10:25:07.509Z</time>
      </trkpt>
      <trkpt lat="46.85136" lon="8.47994">
        <ele>2425</ele>
        <time>2021-08-12T10:25:08.510Z</time>
      </trkpt>
      <trkpt lat="46.85136" lon="8.47992">
        <ele>2426</ele>
        <time>2021-08-12T10:25:09.510Z</time>
      </trkpt>
      <trkpt lat="46.85136" lon="8.47991">
        <ele>2425</ele>
        <time>2021-08-12T10:25:10.509Z</time>
      </trkpt>
      <trkpt lat="46.85136" lon="8.4799">
        <ele>2425</ele>
        <time>2021-08-12T10:25:11.509Z</time>
      </trkpt>
      <trkpt lat="46.85136" lon="8.47989">
        <ele>2426</ele>
        <time>2021-08-12T10:25:12.509Z</time>
      </trkpt>
      <trkpt lat="46.85136" lon="8.47988">
        <ele>2426</ele>
        <time>2021-08-12T10:25:13.510Z</time>
      </trkpt>
      <trkpt lat="46.85136" lon="8.47989">
        <ele>2426</ele>
        <time>2021-08-12T10:25:14.510Z</time>
      </trkpt>
      <trkpt lat="46.85135" lon="8.47992">
        <ele>2427</ele>
        <time>2021-08-12T10:25:15.511Z</time>
      </trkpt>
      <trkpt lat="46.85135" lon="8.47992">
        <ele>2426</ele>
        <time>2021-08-12T10:25:16.510Z</time>
      </trkpt>
      <trkpt lat="46.85135" lon="8.47991">
        <ele>2425</ele>
        <time>2021-08-12T10:25:17.510Z</time>
      </trkpt>
      <trkpt lat="46.85134" lon="8.4799">
        <ele>2421</ele>
        <time>2021-08-12T10:25:18.510Z</time>
      </trkpt>
      <trkpt lat="46.85134" lon="8.47989">
        <ele>2420</ele>
        <time>2021-08-12T10:25:19.512Z</time>
      </trkpt>
      <trkpt lat="46.85133" lon="8.47989">
        <ele>2419</ele>
        <time>2021-08-12T10:25:20.512Z</time>
      </trkpt>
      <trkpt lat="46.85133" lon="8.47989">
        <ele>2418</ele>
        <time>2021-08-12T10:25:21.512Z</time>
      </trkpt>
      <trkpt lat="46.85133" lon="8.47988">
        <ele>2418</ele>
        <time>2021-08-12T10:25:22.512Z</time>
      </trkpt>
      <trkpt lat="46.85133" lon="8.47988">
        <ele>2418</ele>
        <time>2021-08-12T10:25:23.512Z</time>
      </trkpt>
      <trkpt lat="46.85133" lon="8.47987">
        <ele>2418</ele>
        <time>2021-08-12T10:25:24.511Z</time>
      </trkpt>
      <trkpt lat="46.85132" lon="8.47986">
        <ele>2418</ele>
        <time>2021-08-12T10:25:25.511Z</time>
      </trkpt>
      <trkpt lat="46.85132" lon="8.47985">
        <ele>2418</ele>
        <time>2021-08-12T10:25:26.512Z</time>
      </trkpt>
      <trkpt lat="46.85132" lon="8.47983">
        <ele>2417</ele>
        <time>2021-08-12T10:25:27.512Z</time>
      </trkpt>
      <trkpt lat="46.85131" lon="8.47983">
        <ele>2417</ele>
        <time>2021-08-12T10:25:28.511Z</time>
      </trkpt>
      <trkpt lat="46.85131" lon="8.47982">
        <ele>2417</ele>
        <time>2021-08-12T10:25:29.512Z</time>
      </trkpt>
      <trkpt lat="46.85131" lon="8.47982">
        <ele>2417</ele>
        <time>2021-08-12T10:25:30.511Z</time>
      </trkpt>
      <trkpt lat="46.85131" lon="8.47982">
        <ele>2417</ele>
        <time>2021-08-12T10:25:31.512Z</time>
      </trkpt>
      <trkpt lat="46.85131" lon="8.47981">
        <ele>2417</ele>
        <time>2021-08-12T10:25:32.512Z</time>
      </trkpt>
      <trkpt lat="46.85132" lon="8.47981">
        <ele>2417</ele>
        <time>2021-08-12T10:25:33.513Z</time>
      </trkpt>
      <trkpt lat="46.85132" lon="8.4798">
        <ele>2416</ele>
        <time>2021-08-12T10:25:34.512Z</time>
      </trkpt>
      <trkpt lat="46.85133" lon="8.4798">
        <ele>2416</ele>
        <time>2021-08-12T10:25:35.513Z</time>
      </trkpt>
      <trkpt lat="46.85134" lon="8.47979">
        <ele>2416</ele>
        <time>2021-08-12T10:25:36.512Z</time>
      </trkpt>
      <trkpt lat="46.85135" lon="8.47978">
        <ele>2416</ele>
        <time>2021-08-12T10:25:37.512Z</time>
      </trkpt>
      <trkpt lat="46.85134" lon="8.47977">
        <ele>2415</ele>
        <time>2021-08-12T10:25:38.512Z</time>
      </trkpt>
      <trkpt lat="46.85134" lon="8.47976">
        <ele>2415</ele>
        <time>2021-08-12T10:25:39.512Z</time>
      </trkpt>
      <trkpt lat="46.85134" lon="8.47975">
        <ele>2415</ele>
        <time>2021-08-12T10:25:40.512Z</time>
      </trkpt>
      <trkpt lat="46.85133" lon="8.47975">
        <ele>2415</ele>
        <time>2021-08-12T10:25:41.512Z</time>
      </trkpt>
      <trkpt lat="46.85133" lon="8.47974">
        <ele>2415</ele>
        <time>2021-08-12T10:25:42.512Z</time>
      </trkpt>
      <trkpt lat="46.85133" lon="8.47973">
        <ele>2415</ele>
        <time>2021-08-12T10:25:43.512Z</time>
      </trkpt>
      <trkpt lat="46.85132" lon="8.47973">
        <ele>2415</ele>
        <time>2021-08-12T10:25:44.512Z</time>
      </trkpt>
      <trkpt lat="46.85132" lon="8.47971">
        <ele>2415</ele>
        <time>2021-08-12T10:25:45.512Z</time>
      </trkpt>
      <trkpt lat="46.85132" lon="8.4797">
        <ele>2415</ele>
        <time>2021-08-12T10:25:46.512Z</time>
      </trkpt>
      <trkpt lat="46.85132" lon="8.47969">
        <ele>2415</ele>
        <time>2021-08-12T10:25:47.512Z</time>
      </trkpt>
      <trkpt lat="46.85131" lon="8.47968">
        <ele>2415</ele>
        <time>2021-08-12T10:25:48.512Z</time>
      </trkpt>
      <trkpt lat="46.85131" lon="8.47968">
        <ele>2415</ele>
        <time>2021-08-12T10:25:49.512Z</time>
      </trkpt>
      <trkpt lat="46.85131" lon="8.47967">
        <ele>2414</ele>
        <time>2021-08-12T10:25:50.512Z</time>
      </trkpt>
      <trkpt lat="46.85131" lon="8.47966">
        <ele>2415</ele>
        <time>2021-08-12T10:25:51.512Z</time>
      </trkpt>
      <trkpt lat="46.85131" lon="8.47964">
        <ele>2414</ele>
        <time>2021-08-12T10:25:52.512Z</time>
      </trkpt>
      <trkpt lat="46.85131" lon="8.47963">
        <ele>2414</ele>
        <time>2021-08-12T10:25:53.512Z</time>
      </trkpt>
      <trkpt lat="46.85131" lon="8.47962">
        <ele>2414</ele>
        <time>2021-08-12T10:25:54.513Z</time>
      </trkpt>
      <trkpt lat="46.85131" lon="8.47961">
        <ele>2414</ele>
        <time>2021-08-12T10:25:55.513Z</time>
      </trkpt>
      <trkpt lat="46.8513" lon="8.47959">
        <ele>2414</ele>
        <time>2021-08-12T10:25:56.512Z</time>
      </trkpt>
      <trkpt lat="46.8513" lon="8.47958">
        <ele>2414</ele>
        <time>2021-08-12T10:25:57.512Z</time>
      </trkpt>
      <trkpt lat="46.8513" lon="8.47957">
        <ele>2414</ele>
        <time>2021-08-12T10:25:58.512Z</time>
      </trkpt>
      <trkpt lat="46.8513" lon="8.47956">
        <ele>2413</ele>
        <time>2021-08-12T10:25:59.512Z</time>
      </trkpt>
      <trkpt lat="46.8513" lon="8.47955">
        <ele>2413</ele>
        <time>2021-08-12T10:26:00.512Z</time>
      </trkpt>
      <trkpt lat="46.8513" lon="8.47954">
        <ele>2414</ele>
        <time>2021-08-12T10:26:01.512Z</time>
      </trkpt>
      <trkpt lat="46.8513" lon="8.47952">
        <ele>2415</ele>
        <time>2021-08-12T10:26:02.512Z</time>
      </trkpt>
      <trkpt lat="46.8513" lon="8.47951">
        <ele>2414</ele>
        <time>2021-08-12T10:26:03.512Z</time>
      </trkpt>
      <trkpt lat="46.8513" lon="8.4795">
        <ele>2414</ele>
        <time>2021-08-12T10:26:04.513Z</time>
      </trkpt>
      <trkpt lat="46.8513" lon="8.47948">
        <ele>2414</ele>
        <time>2021-08-12T10:26:05.512Z</time>
      </trkpt>
      <trkpt lat="46.8513" lon="8.47947">
        <ele>2414</ele>
        <time>2021-08-12T10:26:06.512Z</time>
      </trkpt>
      <trkpt lat="46.85129" lon="8.47946">
        <ele>2414</ele>
        <time>2021-08-12T10:26:07.512Z</time>
      </trkpt>
      <trkpt lat="46.85129" lon="8.47945">
        <ele>2414</ele>
        <time>2021-08-12T10:26:08.512Z</time>
      </trkpt>
      <trkpt lat="46.85128" lon="8.47944">
        <ele>2414</ele>
        <time>2021-08-12T10:26:09.512Z</time>
      </trkpt>
      <trkpt lat="46.85127" lon="8.47942">
        <ele>2414</ele>
        <time>2021-08-12T10:26:10.513Z</time>
      </trkpt>
      <trkpt lat="46.85126" lon="8.47941">
        <ele>2413</ele>
        <time>2021-08-12T10:26:11.512Z</time>
      </trkpt>
      <trkpt lat="46.85126" lon="8.47939">
        <ele>2413</ele>
        <time>2021-08-12T10:26:12.512Z</time>
      </trkpt>
      <trkpt lat="46.85125" lon="8.47938">
        <ele>2413</ele>
        <time>2021-08-12T10:26:13.512Z</time>
      </trkpt>
      <trkpt lat="46.85124" lon="8.47936">
        <ele>2413</ele>
        <time>2021-08-12T10:26:14.513Z</time>
      </trkpt>
      <trkpt lat="46.85123" lon="8.47935">
        <ele>2413</ele>
        <time>2021-08-12T10:26:15.513Z</time>
      </trkpt>
      <trkpt lat="46.85123" lon="8.47935">
        <ele>2413</ele>
        <time>2021-08-12T10:26:16.513Z</time>
      </trkpt>
      <trkpt lat="46.85122" lon="8.47934">
        <ele>2413</ele>
        <time>2021-08-12T10:26:17.513Z</time>
      </trkpt>
      <trkpt lat="46.85122" lon="8.47933">
        <ele>2413</ele>
        <time>2021-08-12T10:26:18.512Z</time>
      </trkpt>
      <trkpt lat="46.85121" lon="8.47932">
        <ele>2412</ele>
        <time>2021-08-12T10:26:19.512Z</time>
      </trkpt>
      <trkpt lat="46.85121" lon="8.47931">
        <ele>2412</ele>
        <time>2021-08-12T10:26:20.512Z</time>
      </trkpt>
      <trkpt lat="46.8512" lon="8.4793">
        <ele>2412</ele>
        <time>2021-08-12T10:26:21.512Z</time>
      </trkpt>
      <trkpt lat="46.8512" lon="8.47928">
        <ele>2413</ele>
        <time>2021-08-12T10:26:22.513Z</time>
      </trkpt>
      <trkpt lat="46.8512" lon="8.47927">
        <ele>2413</ele>
        <time>2021-08-12T10:26:23.512Z</time>
      </trkpt>
      <trkpt lat="46.8512" lon="8.47926">
        <ele>2413</ele>
        <time>2021-08-12T10:26:24.513Z</time>
      </trkpt>
      <trkpt lat="46.85119" lon="8.47924">
        <ele>2413</ele>
        <time>2021-08-12T10:26:25.512Z</time>
      </trkpt>
      <trkpt lat="46.85119" lon="8.47922">
        <ele>2413</ele>
        <time>2021-08-12T10:26:26.513Z</time>
      </trkpt>
      <trkpt lat="46.85119" lon="8.47921">
        <ele>2413</ele>
        <time>2021-08-12T10:26:27.512Z</time>
      </trkpt>
      <trkpt lat="46.85119" lon="8.47919">
        <ele>2413</ele>
        <time>2021-08-12T10:26:28.512Z</time>
      </trkpt>
      <trkpt lat="46.85119" lon="8.47917">
        <ele>2413</ele>
        <time>2021-08-12T10:26:29.512Z</time>
      </trkpt>
      <trkpt lat="46.85118" lon="8.47916">
        <ele>2412</ele>
        <time>2021-08-12T10:26:30.513Z</time>
      </trkpt>
      <trkpt lat="46.85118" lon="8.47914">
        <ele>2412</ele>
        <time>2021-08-12T10:26:31.512Z</time>
      </trkpt>
      <trkpt lat="46.85117" lon="8.47912">
        <ele>2412</ele>
        <time>2021-08-12T10:26:32.513Z</time>
      </trkpt>
      <trkpt lat="46.85117" lon="8.47911">
        <ele>2412</ele>
        <time>2021-08-12T10:26:33.513Z</time>
      </trkpt>
      <trkpt lat="46.85116" lon="8.4791">
        <ele>2412</ele>
        <time>2021-08-12T10:26:34.512Z</time>
      </trkpt>
      <trkpt lat="46.85116" lon="8.47909">
        <ele>2412</ele>
        <time>2021-08-12T10:26:35.512Z</time>
      </trkpt>
      <trkpt lat="46.85116" lon="8.47907">
        <ele>2413</ele>
        <time>2021-08-12T10:26:36.512Z</time>
      </trkpt>
      <trkpt lat="46.85116" lon="8.47906">
        <ele>2413</ele>
        <time>2021-08-12T10:26:37.512Z</time>
      </trkpt>
      <trkpt lat="46.85116" lon="8.47904">
        <ele>2413</ele>
        <time>2021-08-12T10:26:38.513Z</time>
      </trkpt>
      <trkpt lat="46.85115" lon="8.47903">
        <ele>2413</ele>
        <time>2021-08-12T10:26:39.513Z</time>
      </trkpt>
      <trkpt lat="46.85115" lon="8.47902">
        <ele>2413</ele>
        <time>2021-08-12T10:26:40.513Z</time>
      </trkpt>
      <trkpt lat="46.85115" lon="8.479">
        <ele>2413</ele>
        <time>2021-08-12T10:26:41.512Z</time>
      </trkpt>
      <trkpt lat="46.85114" lon="8.47899">
        <ele>2412</ele>
        <time>2021-08-12T10:26:42.512Z</time>
      </trkpt>
      <trkpt lat="46.85114" lon="8.47897">
        <ele>2412</ele>
        <time>2021-08-12T10:26:43.513Z</time>
      </trkpt>
      <trkpt lat="46.85114" lon="8.47895">
        <ele>2411</ele>
        <time>2021-08-12T10:26:44.512Z</time>
      </trkpt>
      <trkpt lat="46.85114" lon="8.47894">
        <ele>2411</ele>
        <time>2021-08-12T10:26:45.512Z</time>
      </trkpt>
      <trkpt lat="46.85114" lon="8.47892">
        <ele>2411</ele>
        <time>2021-08-12T10:26:46.512Z</time>
      </trkpt>
      <trkpt lat="46.85114" lon="8.47891">
        <ele>2410</ele>
        <time>2021-08-12T10:26:47.512Z</time>
      </trkpt>
      <trkpt lat="46.85114" lon="8.4789">
        <ele>2409</ele>
        <time>2021-08-12T10:26:48.512Z</time>
      </trkpt>
      <trkpt lat="46.85114" lon="8.47888">
        <ele>2408</ele>
        <time>2021-08-12T10:26:49.512Z</time>
      </trkpt>
      <trkpt lat="46.85115" lon="8.47887">
        <ele>2407</ele>
        <time>2021-08-12T10:26:50.512Z</time>
      </trkpt>
      <trkpt lat="46.85116" lon="8.47886">
        <ele>2406</ele>
        <time>2021-08-12T10:26:51.512Z</time>
      </trkpt>
      <trkpt lat="46.85116" lon="8.47884">
        <ele>2406</ele>
        <time>2021-08-12T10:26:52.513Z</time>
      </trkpt>
      <trkpt lat="46.85115" lon="8.47883">
        <ele>2405</ele>
        <time>2021-08-12T10:26:53.512Z</time>
      </trkpt>
      <trkpt lat="46.85115" lon="8.47881">
        <ele>2405</ele>
        <time>2021-08-12T10:26:54.513Z</time>
      </trkpt>
      <trkpt lat="46.85115" lon="8.4788">
        <ele>2405</ele>
        <time>2021-08-12T10:26:55.512Z</time>
      </trkpt>
      <trkpt lat="46.85114" lon="8.47878">
        <ele>2405</ele>
        <time>2021-08-12T10:26:56.512Z</time>
      </trkpt>
      <trkpt lat="46.85114" lon="8.47877">
        <ele>2405</ele>
        <time>2021-08-12T10:26:57.513Z</time>
      </trkpt>
      <trkpt lat="46.85113" lon="8.47875">
        <ele>2405</ele>
        <time>2021-08-12T10:26:58.513Z</time>
      </trkpt>
      <trkpt lat="46.85113" lon="8.47874">
        <ele>2406</ele>
        <time>2021-08-12T10:26:59.513Z</time>
      </trkpt>
      <trkpt lat="46.85112" lon="8.47873">
        <ele>2405</ele>
        <time>2021-08-12T10:27:00.512Z</time>
      </trkpt>
      <trkpt lat="46.85112" lon="8.47871">
        <ele>2405</ele>
        <time>2021-08-12T10:27:01.512Z</time>
      </trkpt>
      <trkpt lat="46.85112" lon="8.47869">
        <ele>2404</ele>
        <time>2021-08-12T10:27:02.513Z</time>
      </trkpt>
      <trkpt lat="46.85112" lon="8.47867">
        <ele>2404</ele>
        <time>2021-08-12T10:27:03.512Z</time>
      </trkpt>
      <trkpt lat="46.85112" lon="8.47865">
        <ele>2404</ele>
        <time>2021-08-12T10:27:04.513Z</time>
      </trkpt>
      <trkpt lat="46.85112" lon="8.47863">
        <ele>2404</ele>
        <time>2021-08-12T10:27:05.513Z</time>
      </trkpt>
      <trkpt lat="46.85112" lon="8.47861">
        <ele>2403</ele>
        <time>2021-08-12T10:27:06.513Z</time>
      </trkpt>
      <trkpt lat="46.85112" lon="8.47859">
        <ele>2403</ele>
        <time>2021-08-12T10:27:07.512Z</time>
      </trkpt>
      <trkpt lat="46.85112" lon="8.47858">
        <ele>2403</ele>
        <time>2021-08-12T10:27:08.513Z</time>
      </trkpt>
      <trkpt lat="46.85111" lon="8.47857">
        <ele>2402</ele>
        <time>2021-08-12T10:27:09.512Z</time>
      </trkpt>
      <trkpt lat="46.85111" lon="8.47856">
        <ele>2402</ele>
        <time>2021-08-12T10:27:10.512Z</time>
      </trkpt>
      <trkpt lat="46.85111" lon="8.47855">
        <ele>2402</ele>
        <time>2021-08-12T10:27:11.513Z</time>
      </trkpt>
      <trkpt lat="46.8511" lon="8.47853">
        <ele>2402</ele>
        <time>2021-08-12T10:27:12.512Z</time>
      </trkpt>
      <trkpt lat="46.8511" lon="8.47853">
        <ele>2402</ele>
        <time>2021-08-12T10:27:13.512Z</time>
      </trkpt>
      <trkpt lat="46.85109" lon="8.47851">
        <ele>2402</ele>
        <time>2021-08-12T10:27:14.513Z</time>
      </trkpt>
      <trkpt lat="46.85108" lon="8.4785">
        <ele>2402</ele>
        <time>2021-08-12T10:27:15.512Z</time>
      </trkpt>
      <trkpt lat="46.85108" lon="8.47848">
        <ele>2402</ele>
        <time>2021-08-12T10:27:16.512Z</time>
      </trkpt>
      <trkpt lat="46.85107" lon="8.47847">
        <ele>2402</ele>
        <time>2021-08-12T10:27:17.512Z</time>
      </trkpt>
      <trkpt lat="46.85107" lon="8.47846">
        <ele>2402</ele>
        <time>2021-08-12T10:27:18.512Z</time>
      </trkpt>
      <trkpt lat="46.85106" lon="8.47844">
        <ele>2402</ele>
        <time>2021-08-12T10:27:19.512Z</time>
      </trkpt>
      <trkpt lat="46.85106" lon="8.47842">
        <ele>2402</ele>
        <time>2021-08-12T10:27:20.512Z</time>
      </trkpt>
      <trkpt lat="46.85106" lon="8.47841">
        <ele>2401</ele>
        <time>2021-08-12T10:27:21.513Z</time>
      </trkpt>
      <trkpt lat="46.85106" lon="8.47839">
        <ele>2401</ele>
        <time>2021-08-12T10:27:22.512Z</time>
      </trkpt>
      <trkpt lat="46.85106" lon="8.47838">
        <ele>2401</ele>
        <time>2021-08-12T10:27:23.513Z</time>
      </trkpt>
      <trkpt lat="46.85106" lon="8.47837">
        <ele>2401</ele>
        <time>2021-08-12T10:27:24.512Z</time>
      </trkpt>
      <trkpt lat="46.85106" lon="8.47836">
        <ele>2400</ele>
        <time>2021-08-12T10:27:25.512Z</time>
      </trkpt>
      <trkpt lat="46.85107" lon="8.47834">
        <ele>2400</ele>
        <time>2021-08-12T10:27:26.513Z</time>
      </trkpt>
      <trkpt lat="46.85107" lon="8.47833">
        <ele>2400</ele>
        <time>2021-08-12T10:27:27.512Z</time>
      </trkpt>
      <trkpt lat="46.85107" lon="8.47832">
        <ele>2401</ele>
        <time>2021-08-12T10:27:28.512Z</time>
      </trkpt>
      <trkpt lat="46.85107" lon="8.4783">
        <ele>2401</ele>
        <time>2021-08-12T10:27:29.513Z</time>
      </trkpt>
      <trkpt lat="46.85107" lon="8.47829">
        <ele>2400</ele>
        <time>2021-08-12T10:27:30.512Z</time>
      </trkpt>
      <trkpt lat="46.85108" lon="8.47827">
        <ele>2400</ele>
        <time>2021-08-12T10:27:31.512Z</time>
      </trkpt>
      <trkpt lat="46.85108" lon="8.47826">
        <ele>2400</ele>
        <time>2021-08-12T10:27:32.512Z</time>
      </trkpt>
      <trkpt lat="46.85108" lon="8.47825">
        <ele>2400</ele>
        <time>2021-08-12T10:27:33.512Z</time>
      </trkpt>
      <trkpt lat="46.85108" lon="8.47824">
        <ele>2399</ele>
        <time>2021-08-12T10:27:34.512Z</time>
      </trkpt>
      <trkpt lat="46.85108" lon="8.47822">
        <ele>2399</ele>
        <time>2021-08-12T10:27:35.512Z</time>
      </trkpt>
      <trkpt lat="46.85108" lon="8.47821">
        <ele>2399</ele>
        <time>2021-08-12T10:27:36.512Z</time>
      </trkpt>
      <trkpt lat="46.85108" lon="8.4782">
        <ele>2400</ele>
        <time>2021-08-12T10:27:37.512Z</time>
      </trkpt>
      <trkpt lat="46.85108" lon="8.47818">
        <ele>2399</ele>
        <time>2021-08-12T10:27:38.512Z</time>
      </trkpt>
      <trkpt lat="46.85109" lon="8.47817">
        <ele>2399</ele>
        <time>2021-08-12T10:27:39.512Z</time>
      </trkpt>
      <trkpt lat="46.8511" lon="8.47816">
        <ele>2399</ele>
        <time>2021-08-12T10:27:40.513Z</time>
      </trkpt>
      <trkpt lat="46.8511" lon="8.47814">
        <ele>2399</ele>
        <time>2021-08-12T10:27:41.513Z</time>
      </trkpt>
      <trkpt lat="46.8511" lon="8.47814">
        <ele>2398</ele>
        <time>2021-08-12T10:27:42.512Z</time>
      </trkpt>
      <trkpt lat="46.8511" lon="8.47813">
        <ele>2398</ele>
        <time>2021-08-12T10:27:43.512Z</time>
      </trkpt>
      <trkpt lat="46.85109" lon="8.47812">
        <ele>2397</ele>
        <time>2021-08-12T10:27:44.512Z</time>
      </trkpt>
      <trkpt lat="46.85109" lon="8.47811">
        <ele>2396</ele>
        <time>2021-08-12T10:27:45.512Z</time>
      </trkpt>
      <trkpt lat="46.85108" lon="8.4781">
        <ele>2396</ele>
        <time>2021-08-12T10:27:46.512Z</time>
      </trkpt>
      <trkpt lat="46.85108" lon="8.47809">
        <ele>2395</ele>
        <time>2021-08-12T10:27:47.512Z</time>
      </trkpt>
      <trkpt lat="46.85107" lon="8.47808">
        <ele>2395</ele>
        <time>2021-08-12T10:27:48.512Z</time>
      </trkpt>
      <trkpt lat="46.85107" lon="8.47806">
        <ele>2394</ele>
        <time>2021-08-12T10:27:49.512Z</time>
      </trkpt>
      <trkpt lat="46.85106" lon="8.47805">
        <ele>2394</ele>
        <time>2021-08-12T10:27:50.513Z</time>
      </trkpt>
      <trkpt lat="46.85106" lon="8.47803">
        <ele>2394</ele>
        <time>2021-08-12T10:27:51.513Z</time>
      </trkpt>
      <trkpt lat="46.85106" lon="8.47802">
        <ele>2394</ele>
        <time>2021-08-12T10:27:52.512Z</time>
      </trkpt>
      <trkpt lat="46.85107" lon="8.478">
        <ele>2394</ele>
        <time>2021-08-12T10:27:53.512Z</time>
      </trkpt>
      <trkpt lat="46.85107" lon="8.47799">
        <ele>2393</ele>
        <time>2021-08-12T10:27:54.512Z</time>
      </trkpt>
      <trkpt lat="46.85107" lon="8.47797">
        <ele>2393</ele>
        <time>2021-08-12T10:27:55.512Z</time>
      </trkpt>
      <trkpt lat="46.85107" lon="8.47796">
        <ele>2393</ele>
        <time>2021-08-12T10:27:56.512Z</time>
      </trkpt>
      <trkpt lat="46.85106" lon="8.47795">
        <ele>2393</ele>
        <time>2021-08-12T10:27:57.513Z</time>
      </trkpt>
      <trkpt lat="46.85107" lon="8.47794">
        <ele>2393</ele>
        <time>2021-08-12T10:27:58.512Z</time>
      </trkpt>
      <trkpt lat="46.85107" lon="8.47793">
        <ele>2394</ele>
        <time>2021-08-12T10:27:59.512Z</time>
      </trkpt>
      <trkpt lat="46.85107" lon="8.47792">
        <ele>2394</ele>
        <time>2021-08-12T10:28:00.512Z</time>
      </trkpt>
      <trkpt lat="46.85108" lon="8.4779">
        <ele>2393</ele>
        <time>2021-08-12T10:28:01.512Z</time>
      </trkpt>
      <trkpt lat="46.85109" lon="8.47788">
        <ele>2393</ele>
        <time>2021-08-12T10:28:02.513Z</time>
      </trkpt>
      <trkpt lat="46.85109" lon="8.47787">
        <ele>2393</ele>
        <time>2021-08-12T10:28:03.512Z</time>
      </trkpt>
      <trkpt lat="46.8511" lon="8.47786">
        <ele>2393</ele>
        <time>2021-08-12T10:28:04.512Z</time>
      </trkpt>
      <trkpt lat="46.8511" lon="8.47784">
        <ele>2394</ele>
        <time>2021-08-12T10:28:05.512Z</time>
      </trkpt>
      <trkpt lat="46.8511" lon="8.47783">
        <ele>2393</ele>
        <time>2021-08-12T10:28:06.512Z</time>
      </trkpt>
      <trkpt lat="46.85111" lon="8.47781">
        <ele>2393</ele>
        <time>2021-08-12T10:28:07.512Z</time>
      </trkpt>
      <trkpt lat="46.85111" lon="8.4778">
        <ele>2393</ele>
        <time>2021-08-12T10:28:08.512Z</time>
      </trkpt>
      <trkpt lat="46.85111" lon="8.47778">
        <ele>2392</ele>
        <time>2021-08-12T10:28:09.512Z</time>
      </trkpt>
      <trkpt lat="46.85111" lon="8.47777">
        <ele>2393</ele>
        <time>2021-08-12T10:28:10.512Z</time>
      </trkpt>
      <trkpt lat="46.85111" lon="8.47776">
        <ele>2393</ele>
        <time>2021-08-12T10:28:11.512Z</time>
      </trkpt>
      <trkpt lat="46.85111" lon="8.47774">
        <ele>2393</ele>
        <time>2021-08-12T10:28:12.512Z</time>
      </trkpt>
      <trkpt lat="46.8511" lon="8.47773">
        <ele>2393</ele>
        <time>2021-08-12T10:28:13.512Z</time>
      </trkpt>
      <trkpt lat="46.85109" lon="8.47772">
        <ele>2393</ele>
        <time>2021-08-12T10:28:14.512Z</time>
      </trkpt>
      <trkpt lat="46.85108" lon="8.47772">
        <ele>2393</ele>
        <time>2021-08-12T10:28:15.512Z</time>
      </trkpt>
      <trkpt lat="46.85106" lon="8.47772">
        <ele>2393</ele>
        <time>2021-08-12T10:28:16.513Z</time>
      </trkpt>
      <trkpt lat="46.85106" lon="8.47772">
        <ele>2393</ele>
        <time>2021-08-12T10:28:17.512Z</time>
      </trkpt>
      <trkpt lat="46.85105" lon="8.47771">
        <ele>2392</ele>
        <time>2021-08-12T10:28:18.512Z</time>
      </trkpt>
      <trkpt lat="46.85105" lon="8.4777">
        <ele>2392</ele>
        <time>2021-08-12T10:28:19.512Z</time>
      </trkpt>
      <trkpt lat="46.85105" lon="8.47769">
        <ele>2392</ele>
        <time>2021-08-12T10:28:20.513Z</time>
      </trkpt>
      <trkpt lat="46.85105" lon="8.47768">
        <ele>2391</ele>
        <time>2021-08-12T10:28:21.512Z</time>
      </trkpt>
      <trkpt lat="46.85104" lon="8.47766">
        <ele>2391</ele>
        <time>2021-08-12T10:28:22.512Z</time>
      </trkpt>
      <trkpt lat="46.85104" lon="8.47765">
        <ele>2392</ele>
        <time>2021-08-12T10:28:23.512Z</time>
      </trkpt>
      <trkpt lat="46.85104" lon="8.47764">
        <ele>2392</ele>
        <time>2021-08-12T10:28:24.513Z</time>
      </trkpt>
      <trkpt lat="46.85103" lon="8.47763">
        <ele>2393</ele>
        <time>2021-08-12T10:28:25.513Z</time>
      </trkpt>
      <trkpt lat="46.85103" lon="8.47761">
        <ele>2393</ele>
        <time>2021-08-12T10:28:26.512Z</time>
      </trkpt>
      <trkpt lat="46.85102" lon="8.4776">
        <ele>2393</ele>
        <time>2021-08-12T10:28:27.512Z</time>
      </trkpt>
      <trkpt lat="46.85102" lon="8.47758">
        <ele>2394</ele>
        <time>2021-08-12T10:28:28.513Z</time>
      </trkpt>
      <trkpt lat="46.851" lon="8.47757">
        <ele>2394</ele>
        <time>2021-08-12T10:28:29.513Z</time>
      </trkpt>
      <trkpt lat="46.85099" lon="8.47756">
        <ele>2394</ele>
        <time>2021-08-12T10:28:30.512Z</time>
      </trkpt>
      <trkpt lat="46.85099" lon="8.47754">
        <ele>2394</ele>
        <time>2021-08-12T10:28:31.513Z</time>
      </trkpt>
      <trkpt lat="46.85099" lon="8.47752">
        <ele>2393</ele>
        <time>2021-08-12T10:28:32.512Z</time>
      </trkpt>
      <trkpt lat="46.85099" lon="8.47751">
        <ele>2393</ele>
        <time>2021-08-12T10:28:33.512Z</time>
      </trkpt>
      <trkpt lat="46.85099" lon="8.47748">
        <ele>2393</ele>
        <time>2021-08-12T10:28:34.512Z</time>
      </trkpt>
      <trkpt lat="46.85098" lon="8.47746">
        <ele>2392</ele>
        <time>2021-08-12T10:28:35.512Z</time>
      </trkpt>
      <trkpt lat="46.85098" lon="8.47746">
        <ele>2392</ele>
        <time>2021-08-12T10:28:36.512Z</time>
      </trkpt>
      <trkpt lat="46.85098" lon="8.47744">
        <ele>2391</ele>
        <time>2021-08-12T10:28:37.513Z</time>
      </trkpt>
      <trkpt lat="46.85097" lon="8.47743">
        <ele>2391</ele>
        <time>2021-08-12T10:28:38.512Z</time>
      </trkpt>
      <trkpt lat="46.85097" lon="8.47741">
        <ele>2391</ele>
        <time>2021-08-12T10:28:39.513Z</time>
      </trkpt>
      <trkpt lat="46.85096" lon="8.4774">
        <ele>2390</ele>
        <time>2021-08-12T10:28:40.513Z</time>
      </trkpt>
      <trkpt lat="46.85096" lon="8.47738">
        <ele>2390</ele>
        <time>2021-08-12T10:28:41.512Z</time>
      </trkpt>
      <trkpt lat="46.85096" lon="8.47736">
        <ele>2390</ele>
        <time>2021-08-12T10:28:42.512Z</time>
      </trkpt>
      <trkpt lat="46.85095" lon="8.47735">
        <ele>2390</ele>
        <time>2021-08-12T10:28:43.513Z</time>
      </trkpt>
      <trkpt lat="46.85095" lon="8.47733">
        <ele>2390</ele>
        <time>2021-08-12T10:28:44.512Z</time>
      </trkpt>
      <trkpt lat="46.85095" lon="8.47732">
        <ele>2390</ele>
        <time>2021-08-12T10:28:45.513Z</time>
      </trkpt>
      <trkpt lat="46.85094" lon="8.4773">
        <ele>2390</ele>
        <time>2021-08-12T10:28:46.513Z</time>
      </trkpt>
      <trkpt lat="46.85094" lon="8.47728">
        <ele>2390</ele>
        <time>2021-08-12T10:28:47.512Z</time>
      </trkpt>
      <trkpt lat="46.85094" lon="8.47726">
        <ele>2390</ele>
        <time>2021-08-12T10:28:48.512Z</time>
      </trkpt>
      <trkpt lat="46.85094" lon="8.47725">
        <ele>2390</ele>
        <time>2021-08-12T10:28:49.512Z</time>
      </trkpt>
      <trkpt lat="46.85093" lon="8.47723">
        <ele>2391</ele>
        <time>2021-08-12T10:28:50.512Z</time>
      </trkpt>
      <trkpt lat="46.85093" lon="8.47722">
        <ele>2391</ele>
        <time>2021-08-12T10:28:51.512Z</time>
      </trkpt>
      <trkpt lat="46.85092" lon="8.4772">
        <ele>2391</ele>
        <time>2021-08-12T10:28:52.512Z</time>
      </trkpt>
      <trkpt lat="46.85092" lon="8.47719">
        <ele>2391</ele>
        <time>2021-08-12T10:28:53.513Z</time>
      </trkpt>
      <trkpt lat="46.85091" lon="8.47718">
        <ele>2391</ele>
        <time>2021-08-12T10:28:54.512Z</time>
      </trkpt>
      <trkpt lat="46.85091" lon="8.47716">
        <ele>2391</ele>
        <time>2021-08-12T10:28:55.512Z</time>
      </trkpt>
      <trkpt lat="46.8509" lon="8.47715">
        <ele>2391</ele>
        <time>2021-08-12T10:28:56.513Z</time>
      </trkpt>
      <trkpt lat="46.8509" lon="8.47714">
        <ele>2391</ele>
        <time>2021-08-12T10:28:57.512Z</time>
      </trkpt>
      <trkpt lat="46.85089" lon="8.47713">
        <ele>2391</ele>
        <time>2021-08-12T10:28:58.512Z</time>
      </trkpt>
      <trkpt lat="46.85089" lon="8.47712">
        <ele>2391</ele>
        <time>2021-08-12T10:28:59.512Z</time>
      </trkpt>
      <trkpt lat="46.85089" lon="8.4771">
        <ele>2391</ele>
        <time>2021-08-12T10:29:00.512Z</time>
      </trkpt>
      <trkpt lat="46.85089" lon="8.47709">
        <ele>2390</ele>
        <time>2021-08-12T10:29:01.512Z</time>
      </trkpt>
      <trkpt lat="46.85089" lon="8.47708">
        <ele>2390</ele>
        <time>2021-08-12T10:29:02.512Z</time>
      </trkpt>
      <trkpt lat="46.85089" lon="8.47706">
        <ele>2390</ele>
        <time>2021-08-12T10:29:03.513Z</time>
      </trkpt>
      <trkpt lat="46.85089" lon="8.47705">
        <ele>2390</ele>
        <time>2021-08-12T10:29:04.513Z</time>
      </trkpt>
      <trkpt lat="46.85089" lon="8.47703">
        <ele>2390</ele>
        <time>2021-08-12T10:29:05.513Z</time>
      </trkpt>
      <trkpt lat="46.85088" lon="8.47702">
        <ele>2390</ele>
        <time>2021-08-12T10:29:06.512Z</time>
      </trkpt>
      <trkpt lat="46.85087" lon="8.47701">
        <ele>2390</ele>
        <time>2021-08-12T10:29:07.513Z</time>
      </trkpt>
      <trkpt lat="46.85086" lon="8.47699">
        <ele>2390</ele>
        <time>2021-08-12T10:29:08.512Z</time>
      </trkpt>
      <trkpt lat="46.85085" lon="8.47698">
        <ele>2390</ele>
        <time>2021-08-12T10:29:09.512Z</time>
      </trkpt>
      <trkpt lat="46.85084" lon="8.47696">
        <ele>2389</ele>
        <time>2021-08-12T10:29:10.512Z</time>
      </trkpt>
      <trkpt lat="46.85083" lon="8.47694">
        <ele>2389</ele>
        <time>2021-08-12T10:29:11.513Z</time>
      </trkpt>
      <trkpt lat="46.85083" lon="8.47692">
        <ele>2389</ele>
        <time>2021-08-12T10:29:12.512Z</time>
      </trkpt>
      <trkpt lat="46.85083" lon="8.4769">
        <ele>2389</ele>
        <time>2021-08-12T10:29:13.512Z</time>
      </trkpt>
      <trkpt lat="46.85082" lon="8.47689">
        <ele>2389</ele>
        <time>2021-08-12T10:29:14.512Z</time>
      </trkpt>
      <trkpt lat="46.85082" lon="8.47688">
        <ele>2388</ele>
        <time>2021-08-12T10:29:15.512Z</time>
      </trkpt>
      <trkpt lat="46.85081" lon="8.47687">
        <ele>2388</ele>
        <time>2021-08-12T10:29:16.512Z</time>
      </trkpt>
      <trkpt lat="46.8508" lon="8.47686">
        <ele>2388</ele>
        <time>2021-08-12T10:29:17.512Z</time>
      </trkpt>
      <trkpt lat="46.8508" lon="8.47684">
        <ele>2388</ele>
        <time>2021-08-12T10:29:18.512Z</time>
      </trkpt>
      <trkpt lat="46.85079" lon="8.47682">
        <ele>2388</ele>
        <time>2021-08-12T10:29:19.512Z</time>
      </trkpt>
      <trkpt lat="46.85079" lon="8.47681">
        <ele>2389</ele>
        <time>2021-08-12T10:29:20.512Z</time>
      </trkpt>
      <trkpt lat="46.85078" lon="8.4768">
        <ele>2389</ele>
        <time>2021-08-12T10:29:21.512Z</time>
      </trkpt>
      <trkpt lat="46.85078" lon="8.47678">
        <ele>2390</ele>
        <time>2021-08-12T10:29:22.512Z</time>
      </trkpt>
      <trkpt lat="46.85077" lon="8.47677">
        <ele>2391</ele>
        <time>2021-08-12T10:29:23.512Z</time>
      </trkpt>
      <trkpt lat="46.85075" lon="8.47675">
        <ele>2391</ele>
        <time>2021-08-12T10:29:24.512Z</time>
      </trkpt>
      <trkpt lat="46.85074" lon="8.47674">
        <ele>2391</ele>
        <time>2021-08-12T10:29:25.512Z</time>
      </trkpt>
      <trkpt lat="46.85073" lon="8.47673">
        <ele>2391</ele>
        <time>2021-08-12T10:29:26.513Z</time>
      </trkpt>
      <trkpt lat="46.85071" lon="8.47672">
        <ele>2392</ele>
        <time>2021-08-12T10:29:27.513Z</time>
      </trkpt>
      <trkpt lat="46.8507" lon="8.47671">
        <ele>2392</ele>
        <time>2021-08-12T10:29:28.512Z</time>
      </trkpt>
      <trkpt lat="46.85069" lon="8.4767">
        <ele>2392</ele>
        <time>2021-08-12T10:29:29.512Z</time>
      </trkpt>
      <trkpt lat="46.85069" lon="8.47669">
        <ele>2392</ele>
        <time>2021-08-12T10:29:30.512Z</time>
      </trkpt>
      <trkpt lat="46.85068" lon="8.47667">
        <ele>2391</ele>
        <time>2021-08-12T10:29:31.512Z</time>
      </trkpt>
      <trkpt lat="46.85068" lon="8.47666">
        <ele>2391</ele>
        <time>2021-08-12T10:29:32.512Z</time>
      </trkpt>
      <trkpt lat="46.85067" lon="8.47664">
        <ele>2390</ele>
        <time>2021-08-12T10:29:33.513Z</time>
      </trkpt>
      <trkpt lat="46.85066" lon="8.47662">
        <ele>2390</ele>
        <time>2021-08-12T10:29:34.512Z</time>
      </trkpt>
      <trkpt lat="46.85066" lon="8.4766">
        <ele>2390</ele>
        <time>2021-08-12T10:29:35.512Z</time>
      </trkpt>
      <trkpt lat="46.85066" lon="8.47658">
        <ele>2390</ele>
        <time>2021-08-12T10:29:36.512Z</time>
      </trkpt>
      <trkpt lat="46.85066" lon="8.47656">
        <ele>2390</ele>
        <time>2021-08-12T10:29:37.513Z</time>
      </trkpt>
      <trkpt lat="46.85066" lon="8.47655">
        <ele>2389</ele>
        <time>2021-08-12T10:29:38.513Z</time>
      </trkpt>
      <trkpt lat="46.85066" lon="8.47653">
        <ele>2389</ele>
        <time>2021-08-12T10:29:39.513Z</time>
      </trkpt>
      <trkpt lat="46.85065" lon="8.47651">
        <ele>2389</ele>
        <time>2021-08-12T10:29:40.512Z</time>
      </trkpt>
      <trkpt lat="46.85065" lon="8.47649">
        <ele>2388</ele>
        <time>2021-08-12T10:29:41.513Z</time>
      </trkpt>
      <trkpt lat="46.85065" lon="8.47647">
        <ele>2388</ele>
        <time>2021-08-12T10:29:42.512Z</time>
      </trkpt>
      <trkpt lat="46.85064" lon="8.47645">
        <ele>2387</ele>
        <time>2021-08-12T10:29:43.512Z</time>
      </trkpt>
      <trkpt lat="46.85064" lon="8.47643">
        <ele>2387</ele>
        <time>2021-08-12T10:29:44.512Z</time>
      </trkpt>
      <trkpt lat="46.85063" lon="8.47641">
        <ele>2386</ele>
        <time>2021-08-12T10:29:45.512Z</time>
      </trkpt>
      <trkpt lat="46.85062" lon="8.4764">
        <ele>2386</ele>
        <time>2021-08-12T10:29:46.512Z</time>
      </trkpt>
      <trkpt lat="46.85062" lon="8.47638">
        <ele>2386</ele>
        <time>2021-08-12T10:29:47.512Z</time>
      </trkpt>
      <trkpt lat="46.85061" lon="8.47636">
        <ele>2386</ele>
        <time>2021-08-12T10:29:48.512Z</time>
      </trkpt>
      <trkpt lat="46.85061" lon="8.47634">
        <ele>2386</ele>
        <time>2021-08-12T10:29:49.513Z</time>
      </trkpt>
      <trkpt lat="46.85061" lon="8.47633">
        <ele>2386</ele>
        <time>2021-08-12T10:29:50.512Z</time>
      </trkpt>
      <trkpt lat="46.8506" lon="8.47632">
        <ele>2386</ele>
        <time>2021-08-12T10:29:51.512Z</time>
      </trkpt>
      <trkpt lat="46.85059" lon="8.4763">
        <ele>2386</ele>
        <time>2021-08-12T10:29:52.512Z</time>
      </trkpt>
      <trkpt lat="46.85059" lon="8.4763">
        <ele>2386</ele>
        <time>2021-08-12T10:29:53.513Z</time>
      </trkpt>
      <trkpt lat="46.85058" lon="8.47629">
        <ele>2386</ele>
        <time>2021-08-12T10:29:54.512Z</time>
      </trkpt>
      <trkpt lat="46.85057" lon="8.47628">
        <ele>2386</ele>
        <time>2021-08-12T10:29:55.512Z</time>
      </trkpt>
      <trkpt lat="46.85056" lon="8.47627">
        <ele>2386</ele>
        <time>2021-08-12T10:29:56.512Z</time>
      </trkpt>
      <trkpt lat="46.85055" lon="8.47625">
        <ele>2387</ele>
        <time>2021-08-12T10:29:57.512Z</time>
      </trkpt>
      <trkpt lat="46.85055" lon="8.47624">
        <ele>2387</ele>
        <time>2021-08-12T10:29:58.512Z</time>
      </trkpt>
      <trkpt lat="46.85054" lon="8.47623">
        <ele>2386</ele>
        <time>2021-08-12T10:29:59.512Z</time>
      </trkpt>
      <trkpt lat="46.85053" lon="8.47621">
        <ele>2386</ele>
        <time>2021-08-12T10:30:00.512Z</time>
      </trkpt>
      <trkpt lat="46.85052" lon="8.4762">
        <ele>2385</ele>
        <time>2021-08-12T10:30:01.512Z</time>
      </trkpt>
      <trkpt lat="46.85051" lon="8.47619">
        <ele>2384</ele>
        <time>2021-08-12T10:30:02.512Z</time>
      </trkpt>
      <trkpt lat="46.8505" lon="8.47617">
        <ele>2384</ele>
        <time>2021-08-12T10:30:03.512Z</time>
      </trkpt>
      <trkpt lat="46.85049" lon="8.47616">
        <ele>2384</ele>
        <time>2021-08-12T10:30:04.513Z</time>
      </trkpt>
      <trkpt lat="46.85049" lon="8.47614">
        <ele>2383</ele>
        <time>2021-08-12T10:30:05.512Z</time>
      </trkpt>
      <trkpt lat="46.85048" lon="8.47612">
        <ele>2383</ele>
        <time>2021-08-12T10:30:06.512Z</time>
      </trkpt>
      <trkpt lat="46.85047" lon="8.47611">
        <ele>2383</ele>
        <time>2021-08-12T10:30:07.512Z</time>
      </trkpt>
      <trkpt lat="46.85046" lon="8.47609">
        <ele>2383</ele>
        <time>2021-08-12T10:30:08.512Z</time>
      </trkpt>
      <trkpt lat="46.85045" lon="8.47607">
        <ele>2383</ele>
        <time>2021-08-12T10:30:09.512Z</time>
      </trkpt>
      <trkpt lat="46.85044" lon="8.47606">
        <ele>2382</ele>
        <time>2021-08-12T10:30:10.512Z</time>
      </trkpt>
      <trkpt lat="46.85043" lon="8.47604">
        <ele>2382</ele>
        <time>2021-08-12T10:30:11.512Z</time>
      </trkpt>
      <trkpt lat="46.85042" lon="8.47603">
        <ele>2382</ele>
        <time>2021-08-12T10:30:12.512Z</time>
      </trkpt>
      <trkpt lat="46.85042" lon="8.47602">
        <ele>2381</ele>
        <time>2021-08-12T10:30:13.513Z</time>
      </trkpt>
      <trkpt lat="46.85041" lon="8.47601">
        <ele>2382</ele>
        <time>2021-08-12T10:30:14.512Z</time>
      </trkpt>
      <trkpt lat="46.8504" lon="8.476">
        <ele>2382</ele>
        <time>2021-08-12T10:30:15.513Z</time>
      </trkpt>
      <trkpt lat="46.85039" lon="8.47599">
        <ele>2382</ele>
        <time>2021-08-12T10:30:16.513Z</time>
      </trkpt>
      <trkpt lat="46.85038" lon="8.47598">
        <ele>2382</ele>
        <time>2021-08-12T10:30:17.513Z</time>
      </trkpt>
      <trkpt lat="46.85037" lon="8.47596">
        <ele>2382</ele>
        <time>2021-08-12T10:30:18.512Z</time>
      </trkpt>
      <trkpt lat="46.85036" lon="8.47594">
        <ele>2382</ele>
        <time>2021-08-12T10:30:19.512Z</time>
      </trkpt>
      <trkpt lat="46.85035" lon="8.47593">
        <ele>2382</ele>
        <time>2021-08-12T10:30:20.512Z</time>
      </trkpt>
      <trkpt lat="46.85035" lon="8.47591">
        <ele>2382</ele>
        <time>2021-08-12T10:30:43.577Z</time>
      </trkpt>
      <trkpt lat="46.85034" lon="8.4759">
        <ele>2382</ele>
        <time>2021-08-12T10:30:44.578Z</time>
      </trkpt>
      <trkpt lat="46.85034" lon="8.47588">
        <ele>2382</ele>
        <time>2021-08-12T10:30:45.578Z</time>
      </trkpt>
      <trkpt lat="46.85034" lon="8.47586">
        <ele>2382</ele>
        <time>2021-08-12T10:30:46.577Z</time>
      </trkpt>
      <trkpt lat="46.85034" lon="8.47584">
        <ele>2382</ele>
        <time>2021-08-12T10:30:47.577Z</time>
      </trkpt>
      <trkpt lat="46.85034" lon="8.47582">
        <ele>2382</ele>
        <time>2021-08-12T10:30:48.577Z</time>
      </trkpt>
      <trkpt lat="46.85035" lon="8.47581">
        <ele>2382</ele>
        <time>2021-08-12T10:30:49.577Z</time>
      </trkpt>
      <trkpt lat="46.85035" lon="8.4758">
        <ele>2382</ele>
        <time>2021-08-12T10:30:50.577Z</time>
      </trkpt>
      <trkpt lat="46.85036" lon="8.4758">
        <ele>2383</ele>
        <time>2021-08-12T10:30:51.578Z</time>
      </trkpt>
      <trkpt lat="46.85037" lon="8.47579">
        <ele>2383</ele>
        <time>2021-08-12T10:30:52.577Z</time>
      </trkpt>
      <trkpt lat="46.85037" lon="8.47578">
        <ele>2383</ele>
        <time>2021-08-12T10:30:53.577Z</time>
      </trkpt>
      <trkpt lat="46.85038" lon="8.47577">
        <ele>2384</ele>
        <time>2021-08-12T10:30:54.578Z</time>
      </trkpt>
      <trkpt lat="46.85039" lon="8.47576">
        <ele>2384</ele>
        <time>2021-08-12T10:30:55.577Z</time>
      </trkpt>
      <trkpt lat="46.8504" lon="8.47576">
        <ele>2384</ele>
        <time>2021-08-12T10:30:56.578Z</time>
      </trkpt>
      <trkpt lat="46.8504" lon="8.47575">
        <ele>2385</ele>
        <time>2021-08-12T10:30:57.577Z</time>
      </trkpt>
      <trkpt lat="46.85042" lon="8.47574">
        <ele>2385</ele>
        <time>2021-08-12T10:30:58.577Z</time>
      </trkpt>
      <trkpt lat="46.85043" lon="8.47573">
        <ele>2385</ele>
        <time>2021-08-12T10:30:59.577Z</time>
      </trkpt>
      <trkpt lat="46.85043" lon="8.47571">
        <ele>2385</ele>
        <time>2021-08-12T10:31:00.577Z</time>
      </trkpt>
      <trkpt lat="46.85044" lon="8.47569">
        <ele>2384</ele>
        <time>2021-08-12T10:31:01.577Z</time>
      </trkpt>
      <trkpt lat="46.85044" lon="8.47568">
        <ele>2384</ele>
        <time>2021-08-12T10:31:02.577Z</time>
      </trkpt>
      <trkpt lat="46.85043" lon="8.47566">
        <ele>2384</ele>
        <time>2021-08-12T10:31:03.578Z</time>
      </trkpt>
      <trkpt lat="46.85043" lon="8.47565">
        <ele>2383</ele>
        <time>2021-08-12T10:31:04.578Z</time>
      </trkpt>
      <trkpt lat="46.85042" lon="8.47563">
        <ele>2383</ele>
        <time>2021-08-12T10:31:05.578Z</time>
      </trkpt>
      <trkpt lat="46.85042" lon="8.47561">
        <ele>2382</ele>
        <time>2021-08-12T10:31:06.577Z</time>
      </trkpt>
      <trkpt lat="46.85042" lon="8.47558">
        <ele>2382</ele>
        <time>2021-08-12T10:31:07.577Z</time>
      </trkpt>
      <trkpt lat="46.85041" lon="8.47556">
        <ele>2382</ele>
        <time>2021-08-12T10:31:08.577Z</time>
      </trkpt>
      <trkpt lat="46.85041" lon="8.47554">
        <ele>2381</ele>
        <time>2021-08-12T10:31:09.577Z</time>
      </trkpt>
      <trkpt lat="46.8504" lon="8.47553">
        <ele>2381</ele>
        <time>2021-08-12T10:31:10.577Z</time>
      </trkpt>
      <trkpt lat="46.85041" lon="8.4755">
        <ele>2380</ele>
        <time>2021-08-12T10:31:11.577Z</time>
      </trkpt>
      <trkpt lat="46.85041" lon="8.47549">
        <ele>2380</ele>
        <time>2021-08-12T10:31:12.578Z</time>
      </trkpt>
      <trkpt lat="46.8504" lon="8.47547">
        <ele>2380</ele>
        <time>2021-08-12T10:31:13.577Z</time>
      </trkpt>
      <trkpt lat="46.8504" lon="8.47546">
        <ele>2380</ele>
        <time>2021-08-12T10:31:14.577Z</time>
      </trkpt>
      <trkpt lat="46.85039" lon="8.47544">
        <ele>2380</ele>
        <time>2021-08-12T10:31:15.577Z</time>
      </trkpt>
      <trkpt lat="46.85039" lon="8.47543">
        <ele>2380</ele>
        <time>2021-08-12T10:31:16.577Z</time>
      </trkpt>
      <trkpt lat="46.85038" lon="8.47542">
        <ele>2380</ele>
        <time>2021-08-12T10:31:17.577Z</time>
      </trkpt>
      <trkpt lat="46.85037" lon="8.47541">
        <ele>2380</ele>
        <time>2021-08-12T10:31:18.577Z</time>
      </trkpt>
      <trkpt lat="46.85036" lon="8.4754">
        <ele>2380</ele>
        <time>2021-08-12T10:31:19.577Z</time>
      </trkpt>
      <trkpt lat="46.85035" lon="8.47538">
        <ele>2380</ele>
        <time>2021-08-12T10:31:20.577Z</time>
      </trkpt>
      <trkpt lat="46.85034" lon="8.47538">
        <ele>2380</ele>
        <time>2021-08-12T10:31:21.577Z</time>
      </trkpt>
      <trkpt lat="46.85033" lon="8.47536">
        <ele>2380</ele>
        <time>2021-08-12T10:31:22.577Z</time>
      </trkpt>
      <trkpt lat="46.85033" lon="8.47534">
        <ele>2380</ele>
        <time>2021-08-12T10:31:23.577Z</time>
      </trkpt>
      <trkpt lat="46.85033" lon="8.47532">
        <ele>2380</ele>
        <time>2021-08-12T10:31:24.577Z</time>
      </trkpt>
      <trkpt lat="46.85032" lon="8.47531">
        <ele>2379</ele>
        <time>2021-08-12T10:31:25.577Z</time>
      </trkpt>
      <trkpt lat="46.85032" lon="8.47529">
        <ele>2379</ele>
        <time>2021-08-12T10:31:26.577Z</time>
      </trkpt>
      <trkpt lat="46.85033" lon="8.47527">
        <ele>2378</ele>
        <time>2021-08-12T10:31:27.577Z</time>
      </trkpt>
      <trkpt lat="46.85032" lon="8.47524">
        <ele>2378</ele>
        <time>2021-08-12T10:31:28.577Z</time>
      </trkpt>
      <trkpt lat="46.85032" lon="8.47523">
        <ele>2378</ele>
        <time>2021-08-12T10:31:29.578Z</time>
      </trkpt>
      <trkpt lat="46.85031" lon="8.47521">
        <ele>2378</ele>
        <time>2021-08-12T10:31:30.577Z</time>
      </trkpt>
      <trkpt lat="46.85031" lon="8.4752">
        <ele>2377</ele>
        <time>2021-08-12T10:31:31.578Z</time>
      </trkpt>
      <trkpt lat="46.8503" lon="8.47519">
        <ele>2377</ele>
        <time>2021-08-12T10:31:32.577Z</time>
      </trkpt>
      <trkpt lat="46.85029" lon="8.47517">
        <ele>2377</ele>
        <time>2021-08-12T10:31:33.577Z</time>
      </trkpt>
      <trkpt lat="46.85028" lon="8.47516">
        <ele>2377</ele>
        <time>2021-08-12T10:31:34.578Z</time>
      </trkpt>
      <trkpt lat="46.85028" lon="8.47515">
        <ele>2376</ele>
        <time>2021-08-12T10:31:35.577Z</time>
      </trkpt>
      <trkpt lat="46.85027" lon="8.47513">
        <ele>2376</ele>
        <time>2021-08-12T10:31:36.578Z</time>
      </trkpt>
      <trkpt lat="46.85026" lon="8.47512">
        <ele>2376</ele>
        <time>2021-08-12T10:31:37.577Z</time>
      </trkpt>
      <trkpt lat="46.85026" lon="8.4751">
        <ele>2375</ele>
        <time>2021-08-12T10:31:38.577Z</time>
      </trkpt>
      <trkpt lat="46.85025" lon="8.47508">
        <ele>2375</ele>
        <time>2021-08-12T10:31:39.577Z</time>
      </trkpt>
      <trkpt lat="46.85025" lon="8.47506">
        <ele>2375</ele>
        <time>2021-08-12T10:31:40.577Z</time>
      </trkpt>
      <trkpt lat="46.85024" lon="8.47504">
        <ele>2375</ele>
        <time>2021-08-12T10:31:41.577Z</time>
      </trkpt>
      <trkpt lat="46.85025" lon="8.47502">
        <ele>2374</ele>
        <time>2021-08-12T10:31:42.577Z</time>
      </trkpt>
      <trkpt lat="46.85025" lon="8.475">
        <ele>2374</ele>
        <time>2021-08-12T10:31:43.577Z</time>
      </trkpt>
      <trkpt lat="46.85025" lon="8.47497">
        <ele>2373</ele>
        <time>2021-08-12T10:31:44.578Z</time>
      </trkpt>
      <trkpt lat="46.85025" lon="8.47495">
        <ele>2373</ele>
        <time>2021-08-12T10:31:45.577Z</time>
      </trkpt>
      <trkpt lat="46.85025" lon="8.47494">
        <ele>2373</ele>
        <time>2021-08-12T10:31:46.577Z</time>
      </trkpt>
      <trkpt lat="46.85026" lon="8.47492">
        <ele>2373</ele>
        <time>2021-08-12T10:31:47.578Z</time>
      </trkpt>
      <trkpt lat="46.85026" lon="8.47491">
        <ele>2373</ele>
        <time>2021-08-12T10:31:48.577Z</time>
      </trkpt>
      <trkpt lat="46.85026" lon="8.47489">
        <ele>2374</ele>
        <time>2021-08-12T10:31:49.578Z</time>
      </trkpt>
      <trkpt lat="46.85026" lon="8.47487">
        <ele>2374</ele>
        <time>2021-08-12T10:31:50.577Z</time>
      </trkpt>
      <trkpt lat="46.85026" lon="8.47485">
        <ele>2374</ele>
        <time>2021-08-12T10:31:51.577Z</time>
      </trkpt>
      <trkpt lat="46.85026" lon="8.47483">
        <ele>2375</ele>
        <time>2021-08-12T10:31:52.577Z</time>
      </trkpt>
      <trkpt lat="46.85025" lon="8.47481">
        <ele>2375</ele>
        <time>2021-08-12T10:31:53.578Z</time>
      </trkpt>
      <trkpt lat="46.85025" lon="8.47479">
        <ele>2375</ele>
        <time>2021-08-12T10:31:54.577Z</time>
      </trkpt>
      <trkpt lat="46.85025" lon="8.47477">
        <ele>2375</ele>
        <time>2021-08-12T10:31:55.577Z</time>
      </trkpt>
      <trkpt lat="46.85025" lon="8.47475">
        <ele>2374</ele>
        <time>2021-08-12T10:31:56.577Z</time>
      </trkpt>
      <trkpt lat="46.85024" lon="8.47474">
        <ele>2374</ele>
        <time>2021-08-12T10:31:57.577Z</time>
      </trkpt>
      <trkpt lat="46.85024" lon="8.47472">
        <ele>2374</ele>
        <time>2021-08-12T10:31:58.577Z</time>
      </trkpt>
      <trkpt lat="46.85023" lon="8.4747">
        <ele>2374</ele>
        <time>2021-08-12T10:31:59.578Z</time>
      </trkpt>
      <trkpt lat="46.85023" lon="8.47469">
        <ele>2374</ele>
        <time>2021-08-12T10:32:00.578Z</time>
      </trkpt>
      <trkpt lat="46.85022" lon="8.47468">
        <ele>2374</ele>
        <time>2021-08-12T10:32:01.577Z</time>
      </trkpt>
      <trkpt lat="46.85021" lon="8.47467">
        <ele>2374</ele>
        <time>2021-08-12T10:32:02.577Z</time>
      </trkpt>
      <trkpt lat="46.8502" lon="8.47466">
        <ele>2374</ele>
        <time>2021-08-12T10:32:03.577Z</time>
      </trkpt>
      <trkpt lat="46.85019" lon="8.47466">
        <ele>2374</ele>
        <time>2021-08-12T10:32:04.577Z</time>
      </trkpt>
      <trkpt lat="46.85018" lon="8.47466">
        <ele>2374</ele>
        <time>2021-08-12T10:32:05.578Z</time>
      </trkpt>
      <trkpt lat="46.85018" lon="8.47466">
        <ele>2374</ele>
        <time>2021-08-12T10:32:06.577Z</time>
      </trkpt>
      <trkpt lat="46.85017" lon="8.47465">
        <ele>2373</ele>
        <time>2021-08-12T10:32:07.578Z</time>
      </trkpt>
      <trkpt lat="46.85017" lon="8.47464">
        <ele>2373</ele>
        <time>2021-08-12T10:32:08.578Z</time>
      </trkpt>
      <trkpt lat="46.85018" lon="8.47463">
        <ele>2373</ele>
        <time>2021-08-12T10:32:09.577Z</time>
      </trkpt>
      <trkpt lat="46.85019" lon="8.47461">
        <ele>2372</ele>
        <time>2021-08-12T10:32:10.577Z</time>
      </trkpt>
      <trkpt lat="46.8502" lon="8.47459">
        <ele>2372</ele>
        <time>2021-08-12T10:32:11.577Z</time>
      </trkpt>
      <trkpt lat="46.85021" lon="8.47457">
        <ele>2371</ele>
        <time>2021-08-12T10:32:12.577Z</time>
      </trkpt>
      <trkpt lat="46.85022" lon="8.47456">
        <ele>2371</ele>
        <time>2021-08-12T10:32:13.577Z</time>
      </trkpt>
      <trkpt lat="46.85022" lon="8.47454">
        <ele>2371</ele>
        <time>2021-08-12T10:32:14.577Z</time>
      </trkpt>
      <trkpt lat="46.85022" lon="8.47452">
        <ele>2371</ele>
        <time>2021-08-12T10:32:15.578Z</time>
      </trkpt>
      <trkpt lat="46.85022" lon="8.47451">
        <ele>2371</ele>
        <time>2021-08-12T10:32:16.578Z</time>
      </trkpt>
      <trkpt lat="46.85022" lon="8.4745">
        <ele>2371</ele>
        <time>2021-08-12T10:32:17.578Z</time>
      </trkpt>
      <trkpt lat="46.85022" lon="8.47448">
        <ele>2371</ele>
        <time>2021-08-12T10:32:18.577Z</time>
      </trkpt>
      <trkpt lat="46.85022" lon="8.47446">
        <ele>2370</ele>
        <time>2021-08-12T10:32:24.687Z</time>
      </trkpt>
      <trkpt lat="46.85021" lon="8.47444">
        <ele>2370</ele>
        <time>2021-08-12T10:32:25.688Z</time>
      </trkpt>
      <trkpt lat="46.85021" lon="8.47442">
        <ele>2370</ele>
        <time>2021-08-12T10:32:26.687Z</time>
      </trkpt>
      <trkpt lat="46.85021" lon="8.47441">
        <ele>2369</ele>
        <time>2021-08-12T10:32:27.687Z</time>
      </trkpt>
      <trkpt lat="46.85022" lon="8.47439">
        <ele>2369</ele>
        <time>2021-08-12T10:32:28.688Z</time>
      </trkpt>
      <trkpt lat="46.85023" lon="8.47436">
        <ele>2369</ele>
        <time>2021-08-12T10:32:29.687Z</time>
      </trkpt>
      <trkpt lat="46.85023" lon="8.47434">
        <ele>2368</ele>
        <time>2021-08-12T10:32:30.687Z</time>
      </trkpt>
      <trkpt lat="46.85022" lon="8.47432">
        <ele>2368</ele>
        <time>2021-08-12T10:32:31.687Z</time>
      </trkpt>
      <trkpt lat="46.85021" lon="8.4743">
        <ele>2367</ele>
        <time>2021-08-12T10:32:32.687Z</time>
      </trkpt>
      <trkpt lat="46.8502" lon="8.47429">
        <ele>2367</ele>
        <time>2021-08-12T10:32:33.687Z</time>
      </trkpt>
      <trkpt lat="46.85019" lon="8.47427">
        <ele>2367</ele>
        <time>2021-08-12T10:32:34.687Z</time>
      </trkpt>
      <trkpt lat="46.85019" lon="8.47426">
        <ele>2367</ele>
        <time>2021-08-12T10:32:35.688Z</time>
      </trkpt>
      <trkpt lat="46.85018" lon="8.47425">
        <ele>2366</ele>
        <time>2021-08-12T10:32:36.687Z</time>
      </trkpt>
      <trkpt lat="46.85017" lon="8.47424">
        <ele>2366</ele>
        <time>2021-08-12T10:32:37.687Z</time>
      </trkpt>
      <trkpt lat="46.85017" lon="8.47424">
        <ele>2366</ele>
        <time>2021-08-12T10:32:38.688Z</time>
      </trkpt>
      <trkpt lat="46.85016" lon="8.47422">
        <ele>2366</ele>
        <time>2021-08-12T10:32:39.688Z</time>
      </trkpt>
      <trkpt lat="46.85016" lon="8.47421">
        <ele>2366</ele>
        <time>2021-08-12T10:32:40.687Z</time>
      </trkpt>
      <trkpt lat="46.85017" lon="8.47421">
        <ele>2365</ele>
        <time>2021-08-12T10:32:41.687Z</time>
      </trkpt>
      <trkpt lat="46.85016" lon="8.47422">
        <ele>2367</ele>
        <time>2021-08-12T10:32:42.564Z</time>
      </trkpt>
      <trkpt lat="46.85016" lon="8.47422">
        <ele>2368</ele>
        <time>2021-08-12T10:32:43.564Z</time>
      </trkpt>
      <trkpt lat="46.85016" lon="8.47421">
        <ele>2368</ele>
        <time>2021-08-12T10:32:44.564Z</time>
      </trkpt>
      <trkpt lat="46.85016" lon="8.47421">
        <ele>2368</ele>
        <time>2021-08-12T10:32:45.565Z</time>
      </trkpt>
      <trkpt lat="46.85016" lon="8.47418">
        <ele>2366</ele>
        <time>2021-08-12T10:32:46.564Z</time>
      </trkpt>
      <trkpt lat="46.85016" lon="8.47417">
        <ele>2365</ele>
        <time>2021-08-12T10:32:47.565Z</time>
      </trkpt>
      <trkpt lat="46.85016" lon="8.47416">
        <ele>2365</ele>
        <time>2021-08-12T10:32:48.565Z</time>
      </trkpt>
      <trkpt lat="46.85016" lon="8.47416">
        <ele>2365</ele>
        <time>2021-08-12T10:32:49.565Z</time>
      </trkpt>
      <trkpt lat="46.85015" lon="8.47416">
        <ele>2365</ele>
        <time>2021-08-12T10:32:50.565Z</time>
      </trkpt>
      <trkpt lat="46.85015" lon="8.47415">
        <ele>2365</ele>
        <time>2021-08-12T10:32:51.565Z</time>
      </trkpt>
      <trkpt lat="46.85015" lon="8.47414">
        <ele>2365</ele>
        <time>2021-08-12T10:32:52.565Z</time>
      </trkpt>
      <trkpt lat="46.85014" lon="8.47413">
        <ele>2365</ele>
        <time>2021-08-12T10:32:53.565Z</time>
      </trkpt>
      <trkpt lat="46.85013" lon="8.47412">
        <ele>2365</ele>
        <time>2021-08-12T10:32:54.564Z</time>
      </trkpt>
      <trkpt lat="46.85013" lon="8.47411">
        <ele>2364</ele>
        <time>2021-08-12T10:32:55.564Z</time>
      </trkpt>
      <trkpt lat="46.85013" lon="8.47411">
        <ele>2364</ele>
        <time>2021-08-12T10:32:56.565Z</time>
      </trkpt>
      <trkpt lat="46.85012" lon="8.47411">
        <ele>2365</ele>
        <time>2021-08-12T10:32:57.564Z</time>
      </trkpt>
      <trkpt lat="46.85012" lon="8.47411">
        <ele>2365</ele>
        <time>2021-08-12T10:32:58.564Z</time>
      </trkpt>
      <trkpt lat="46.85011" lon="8.47411">
        <ele>2365</ele>
        <time>2021-08-12T10:32:59.564Z</time>
      </trkpt>
      <trkpt lat="46.85011" lon="8.47411">
        <ele>2365</ele>
        <time>2021-08-12T10:33:00.565Z</time>
      </trkpt>
      <trkpt lat="46.8501" lon="8.47411">
        <ele>2364</ele>
        <time>2021-08-12T10:33:01.565Z</time>
      </trkpt>
      <trkpt lat="46.85009" lon="8.47411">
        <ele>2364</ele>
        <time>2021-08-12T10:33:02.564Z</time>
      </trkpt>
      <trkpt lat="46.85009" lon="8.47411">
        <ele>2363</ele>
        <time>2021-08-12T10:33:03.565Z</time>
      </trkpt>
      <trkpt lat="46.85009" lon="8.4741">
        <ele>2363</ele>
        <time>2021-08-12T10:33:04.564Z</time>
      </trkpt>
      <trkpt lat="46.85008" lon="8.4741">
        <ele>2363</ele>
        <time>2021-08-12T10:33:05.565Z</time>
      </trkpt>
      <trkpt lat="46.85008" lon="8.4741">
        <ele>2362</ele>
        <time>2021-08-12T10:33:06.565Z</time>
      </trkpt>
      <trkpt lat="46.85007" lon="8.47409">
        <ele>2362</ele>
        <time>2021-08-12T10:33:07.564Z</time>
      </trkpt>
      <trkpt lat="46.85006" lon="8.47409">
        <ele>2361</ele>
        <time>2021-08-12T10:33:08.565Z</time>
      </trkpt>
      <trkpt lat="46.85006" lon="8.47409">
        <ele>2361</ele>
        <time>2021-08-12T10:33:09.564Z</time>
      </trkpt>
      <trkpt lat="46.85007" lon="8.47408">
        <ele>2361</ele>
        <time>2021-08-12T10:33:10.564Z</time>
      </trkpt>
      <trkpt lat="46.85007" lon="8.47408">
        <ele>2360</ele>
        <time>2021-08-12T10:33:11.565Z</time>
      </trkpt>
      <trkpt lat="46.85007" lon="8.47408">
        <ele>2360</ele>
        <time>2021-08-12T10:33:12.564Z</time>
      </trkpt>
      <trkpt lat="46.85008" lon="8.47409">
        <ele>2361</ele>
        <time>2021-08-12T10:33:13.565Z</time>
      </trkpt>
      <trkpt lat="46.85009" lon="8.47405">
        <ele>2361</ele>
        <time>2021-08-12T10:33:14.564Z</time>
      </trkpt>
      <trkpt lat="46.85009" lon="8.47406">
        <ele>2361</ele>
        <time>2021-08-12T10:33:15.565Z</time>
      </trkpt>
      <trkpt lat="46.85008" lon="8.47407">
        <ele>2361</ele>
        <time>2021-08-12T10:33:16.565Z</time>
      </trkpt>
      <trkpt lat="46.85007" lon="8.47407">
        <ele>2361</ele>
        <time>2021-08-12T10:33:17.564Z</time>
      </trkpt>
      <trkpt lat="46.85007" lon="8.47407">
        <ele>2361</ele>
        <time>2021-08-12T10:33:18.565Z</time>
      </trkpt>
      <trkpt lat="46.85008" lon="8.47409">
        <ele>2361</ele>
        <time>2021-08-12T10:33:19.566Z</time>
      </trkpt>
      <trkpt lat="46.85008" lon="8.47409">
        <ele>2360</ele>
        <time>2021-08-12T10:33:20.566Z</time>
      </trkpt>
      <trkpt lat="46.85008" lon="8.47408">
        <ele>2360</ele>
        <time>2021-08-12T10:33:21.566Z</time>
      </trkpt>
      <trkpt lat="46.85011" lon="8.47406">
        <ele>2355</ele>
        <time>2021-08-12T10:33:22.567Z</time>
      </trkpt>
      <trkpt lat="46.85012" lon="8.47405">
        <ele>2355</ele>
        <time>2021-08-12T10:33:23.567Z</time>
      </trkpt>
      <trkpt lat="46.85013" lon="8.47404">
        <ele>2355</ele>
        <time>2021-08-12T10:33:24.566Z</time>
      </trkpt>
      <trkpt lat="46.85013" lon="8.47404">
        <ele>2355</ele>
        <time>2021-08-12T10:33:25.566Z</time>
      </trkpt>
      <trkpt lat="46.85013" lon="8.47404">
        <ele>2355</ele>
        <time>2021-08-12T10:33:26.567Z</time>
      </trkpt>
      <trkpt lat="46.85013" lon="8.47403">
        <ele>2355</ele>
        <time>2021-08-12T10:33:27.567Z</time>
      </trkpt>
      <trkpt lat="46.85013" lon="8.47403">
        <ele>2355</ele>
        <time>2021-08-12T10:33:28.566Z</time>
      </trkpt>
      <trkpt lat="46.85013" lon="8.47402">
        <ele>2355</ele>
        <time>2021-08-12T10:33:29.567Z</time>
      </trkpt>
      <trkpt lat="46.85013" lon="8.47402">
        <ele>2355</ele>
        <time>2021-08-12T10:33:30.567Z</time>
      </trkpt>
      <trkpt lat="46.85013" lon="8.47401">
        <ele>2355</ele>
        <time>2021-08-12T10:33:31.567Z</time>
      </trkpt>
      <trkpt lat="46.85014" lon="8.47401">
        <ele>2355</ele>
        <time>2021-08-12T10:33:32.567Z</time>
      </trkpt>
      <trkpt lat="46.85014" lon="8.47401">
        <ele>2355</ele>
        <time>2021-08-12T10:33:33.566Z</time>
      </trkpt>
      <trkpt lat="46.85014" lon="8.47401">
        <ele>2355</ele>
        <time>2021-08-12T10:33:34.567Z</time>
      </trkpt>
      <trkpt lat="46.85014" lon="8.47401">
        <ele>2355</ele>
        <time>2021-08-12T10:33:35.566Z</time>
      </trkpt>
      <trkpt lat="46.85013" lon="8.474">
        <ele>2355</ele>
        <time>2021-08-12T10:33:36.567Z</time>
      </trkpt>
      <trkpt lat="46.85013" lon="8.47399">
        <ele>2355</ele>
        <time>2021-08-12T10:33:37.567Z</time>
      </trkpt>
      <trkpt lat="46.85012" lon="8.47398">
        <ele>2356</ele>
        <time>2021-08-12T10:33:38.566Z</time>
      </trkpt>
      <trkpt lat="46.85012" lon="8.47396">
        <ele>2356</ele>
        <time>2021-08-12T10:33:39.567Z</time>
      </trkpt>
      <trkpt lat="46.85012" lon="8.47395">
        <ele>2356</ele>
        <time>2021-08-12T10:33:40.567Z</time>
      </trkpt>
      <trkpt lat="46.85012" lon="8.47394">
        <ele>2356</ele>
        <time>2021-08-12T10:33:41.567Z</time>
      </trkpt>
      <trkpt lat="46.85012" lon="8.47394">
        <ele>2356</ele>
        <time>2021-08-12T10:33:42.567Z</time>
      </trkpt>
      <trkpt lat="46.85012" lon="8.47393">
        <ele>2355</ele>
        <time>2021-08-12T10:33:43.567Z</time>
      </trkpt>
      <trkpt lat="46.85012" lon="8.47393">
        <ele>2354</ele>
        <time>2021-08-12T10:33:44.566Z</time>
      </trkpt>
      <trkpt lat="46.85013" lon="8.47392">
        <ele>2354</ele>
        <time>2021-08-12T10:33:45.567Z</time>
      </trkpt>
      <trkpt lat="46.85013" lon="8.47392">
        <ele>2353</ele>
        <time>2021-08-12T10:33:46.567Z</time>
      </trkpt>
      <trkpt lat="46.85013" lon="8.47392">
        <ele>2352</ele>
        <time>2021-08-12T10:33:47.567Z</time>
      </trkpt>
      <trkpt lat="46.85013" lon="8.47392">
        <ele>2351</ele>
        <time>2021-08-12T10:33:48.566Z</time>
      </trkpt>
      <trkpt lat="46.85012" lon="8.47393">
        <ele>2350</ele>
        <time>2021-08-12T10:33:49.567Z</time>
      </trkpt>
      <trkpt lat="46.85012" lon="8.47393">
        <ele>2349</ele>
        <time>2021-08-12T10:33:50.567Z</time>
      </trkpt>
      <trkpt lat="46.85012" lon="8.47392">
        <ele>2348</ele>
        <time>2021-08-12T10:33:51.567Z</time>
      </trkpt>
      <trkpt lat="46.85012" lon="8.47392">
        <ele>2348</ele>
        <time>2021-08-12T10:33:52.566Z</time>
      </trkpt>
      <trkpt lat="46.85012" lon="8.47391">
        <ele>2347</ele>
        <time>2021-08-12T10:33:53.567Z</time>
      </trkpt>
      <trkpt lat="46.85012" lon="8.47391">
        <ele>2346</ele>
        <time>2021-08-12T10:33:54.567Z</time>
      </trkpt>
      <trkpt lat="46.85012" lon="8.47391">
        <ele>2346</ele>
        <time>2021-08-12T10:33:55.567Z</time>
      </trkpt>
      <trkpt lat="46.85012" lon="8.4739">
        <ele>2345</ele>
        <time>2021-08-12T10:33:56.567Z</time>
      </trkpt>
      <trkpt lat="46.85014" lon="8.47391">
        <ele>2347</ele>
        <time>2021-08-12T10:33:57.568Z</time>
      </trkpt>
      <trkpt lat="46.85015" lon="8.4739">
        <ele>2347</ele>
        <time>2021-08-12T10:33:58.568Z</time>
      </trkpt>
      <trkpt lat="46.85015" lon="8.4739">
        <ele>2347</ele>
        <time>2021-08-12T10:33:59.567Z</time>
      </trkpt>
      <trkpt lat="46.85016" lon="8.47389">
        <ele>2347</ele>
        <time>2021-08-12T10:34:00.569Z</time>
      </trkpt>
      <trkpt lat="46.85017" lon="8.47389">
        <ele>2348</ele>
        <time>2021-08-12T10:34:01.568Z</time>
      </trkpt>
      <trkpt lat="46.85017" lon="8.47388">
        <ele>2348</ele>
        <time>2021-08-12T10:34:02.568Z</time>
      </trkpt>
      <trkpt lat="46.85017" lon="8.47388">
        <ele>2349</ele>
        <time>2021-08-12T10:34:03.569Z</time>
      </trkpt>
      <trkpt lat="46.85018" lon="8.47387">
        <ele>2350</ele>
        <time>2021-08-12T10:34:04.569Z</time>
      </trkpt>
      <trkpt lat="46.85018" lon="8.47387">
        <ele>2351</ele>
        <time>2021-08-12T10:34:05.570Z</time>
      </trkpt>
      <trkpt lat="46.85018" lon="8.47387">
        <ele>2351</ele>
        <time>2021-08-12T10:34:06.569Z</time>
      </trkpt>
      <trkpt lat="46.85019" lon="8.47387">
        <ele>2351</ele>
        <time>2021-08-12T10:34:07.570Z</time>
      </trkpt>
      <trkpt lat="46.85019" lon="8.47387">
        <ele>2351</ele>
        <time>2021-08-12T10:34:08.570Z</time>
      </trkpt>
      <trkpt lat="46.85018" lon="8.47387">
        <ele>2351</ele>
        <time>2021-08-12T10:34:09.570Z</time>
      </trkpt>
      <trkpt lat="46.85017" lon="8.47388">
        <ele>2350</ele>
        <time>2021-08-12T10:34:10.571Z</time>
      </trkpt>
      <trkpt lat="46.85016" lon="8.47387">
        <ele>2350</ele>
        <time>2021-08-12T10:34:11.571Z</time>
      </trkpt>
      <trkpt lat="46.85016" lon="8.47388">
        <ele>2352</ele>
        <time>2021-08-12T10:34:12.572Z</time>
      </trkpt>
      <trkpt lat="46.85017" lon="8.47388">
        <ele>2353</ele>
        <time>2021-08-12T10:34:13.572Z</time>
      </trkpt>
      <trkpt lat="46.85016" lon="8.47387">
        <ele>2353</ele>
        <time>2021-08-12T10:34:14.574Z</time>
      </trkpt>
      <trkpt lat="46.85017" lon="8.47383">
        <ele>2351</ele>
        <time>2021-08-12T10:34:15.574Z</time>
      </trkpt>
      <trkpt lat="46.85017" lon="8.47383">
        <ele>2351</ele>
        <time>2021-08-12T10:34:16.574Z</time>
      </trkpt>
      <trkpt lat="46.85017" lon="8.47381">
        <ele>2351</ele>
        <time>2021-08-12T10:34:17.574Z</time>
      </trkpt>
      <trkpt lat="46.85015" lon="8.47379">
        <ele>2351</ele>
        <time>2021-08-12T10:34:18.574Z</time>
      </trkpt>
      <trkpt lat="46.85014" lon="8.47378">
        <ele>2350</ele>
        <time>2021-08-12T10:34:19.574Z</time>
      </trkpt>
      <trkpt lat="46.85013" lon="8.47378">
        <ele>2351</ele>
        <time>2021-08-12T10:34:20.574Z</time>
      </trkpt>
      <trkpt lat="46.85013" lon="8.47377">
        <ele>2351</ele>
        <time>2021-08-12T10:34:21.574Z</time>
      </trkpt>
      <trkpt lat="46.85012" lon="8.47377">
        <ele>2351</ele>
        <time>2021-08-12T10:34:22.575Z</time>
      </trkpt>
      <trkpt lat="46.85012" lon="8.47376">
        <ele>2352</ele>
        <time>2021-08-12T10:34:23.575Z</time>
      </trkpt>
      <trkpt lat="46.85012" lon="8.47375">
        <ele>2352</ele>
        <time>2021-08-12T10:34:30.704Z</time>
      </trkpt>
      <trkpt lat="46.85011" lon="8.47375">
        <ele>2352</ele>
        <time>2021-08-12T10:34:31.704Z</time>
      </trkpt>
      <trkpt lat="46.8501" lon="8.47374">
        <ele>2352</ele>
        <time>2021-08-12T10:34:33.580Z</time>
      </trkpt>
      <trkpt lat="46.85009" lon="8.47374">
        <ele>2351</ele>
        <time>2021-08-12T10:34:34.580Z</time>
      </trkpt>
      <trkpt lat="46.85008" lon="8.47373">
        <ele>2351</ele>
        <time>2021-08-12T10:34:35.580Z</time>
      </trkpt>
      <trkpt lat="46.85007" lon="8.47372">
        <ele>2351</ele>
        <time>2021-08-12T10:34:36.581Z</time>
      </trkpt>
      <trkpt lat="46.85007" lon="8.47372">
        <ele>2350</ele>
        <time>2021-08-12T10:34:37.580Z</time>
      </trkpt>
      <trkpt lat="46.85007" lon="8.47371">
        <ele>2350</ele>
        <time>2021-08-12T10:34:38.581Z</time>
      </trkpt>
      <trkpt lat="46.85006" lon="8.4737">
        <ele>2350</ele>
        <time>2021-08-12T10:34:45.729Z</time>
      </trkpt>
      <trkpt lat="46.85006" lon="8.47369">
        <ele>2350</ele>
        <time>2021-08-12T10:34:46.728Z</time>
      </trkpt>
      <trkpt lat="46.85006" lon="8.47368">
        <ele>2350</ele>
        <time>2021-08-12T10:34:47.728Z</time>
      </trkpt>
      <trkpt lat="46.85006" lon="8.47367">
        <ele>2349</ele>
        <time>2021-08-12T10:34:48.728Z</time>
      </trkpt>
      <trkpt lat="46.85006" lon="8.47366">
        <ele>2349</ele>
        <time>2021-08-12T10:34:49.729Z</time>
      </trkpt>
      <trkpt lat="46.85006" lon="8.47365">
        <ele>2348</ele>
        <time>2021-08-12T10:34:54.825Z</time>
      </trkpt>
      <trkpt lat="46.85006" lon="8.47364">
        <ele>2348</ele>
        <time>2021-08-12T10:34:55.825Z</time>
      </trkpt>
      <trkpt lat="46.85006" lon="8.47363">
        <ele>2347</ele>
        <time>2021-08-12T10:34:56.826Z</time>
      </trkpt>
      <trkpt lat="46.85006" lon="8.47361">
        <ele>2346</ele>
        <time>2021-08-12T10:34:57.825Z</time>
      </trkpt>
      <trkpt lat="46.85006" lon="8.4736">
        <ele>2346</ele>
        <time>2021-08-12T10:34:58.826Z</time>
      </trkpt>
      <trkpt lat="46.85006" lon="8.47359">
        <ele>2346</ele>
        <time>2021-08-12T10:34:59.826Z</time>
      </trkpt>
      <trkpt lat="46.85007" lon="8.47356">
        <ele>2346</ele>
        <time>2021-08-12T10:35:00.826Z</time>
      </trkpt>
      <trkpt lat="46.85009" lon="8.47352">
        <ele>2346</ele>
        <time>2021-08-12T10:35:01.825Z</time>
      </trkpt>
      <trkpt lat="46.8501" lon="8.4735">
        <ele>2346</ele>
        <time>2021-08-12T10:35:02.825Z</time>
      </trkpt>
      <trkpt lat="46.8501" lon="8.47351">
        <ele>2346</ele>
        <time>2021-08-12T10:35:03.826Z</time>
      </trkpt>
      <trkpt lat="46.8501" lon="8.47353">
        <ele>2346</ele>
        <time>2021-08-12T10:35:04.825Z</time>
      </trkpt>
      <trkpt lat="46.8501" lon="8.47354">
        <ele>2347</ele>
        <time>2021-08-12T10:35:05.826Z</time>
      </trkpt>
      <trkpt lat="46.85011" lon="8.47354">
        <ele>2347</ele>
        <time>2021-08-12T10:35:06.826Z</time>
      </trkpt>
      <trkpt lat="46.85011" lon="8.47353">
        <ele>2348</ele>
        <time>2021-08-12T10:35:07.826Z</time>
      </trkpt>
      <trkpt lat="46.85011" lon="8.47352">
        <ele>2348</ele>
        <time>2021-08-12T10:35:08.826Z</time>
      </trkpt>
      <trkpt lat="46.8501" lon="8.4735">
        <ele>2348</ele>
        <time>2021-08-12T10:35:09.825Z</time>
      </trkpt>
      <trkpt lat="46.8501" lon="8.47349">
        <ele>2347</ele>
        <time>2021-08-12T10:35:10.825Z</time>
      </trkpt>
      <trkpt lat="46.85009" lon="8.47349">
        <ele>2347</ele>
        <time>2021-08-12T10:35:11.825Z</time>
      </trkpt>
      <trkpt lat="46.85009" lon="8.47348">
        <ele>2346</ele>
        <time>2021-08-12T10:35:12.825Z</time>
      </trkpt>
      <trkpt lat="46.85009" lon="8.47348">
        <ele>2346</ele>
        <time>2021-08-12T10:35:13.826Z</time>
      </trkpt>
      <trkpt lat="46.85009" lon="8.47347">
        <ele>2345</ele>
        <time>2021-08-12T10:35:14.825Z</time>
      </trkpt>
      <trkpt lat="46.85009" lon="8.47347">
        <ele>2345</ele>
        <time>2021-08-12T10:35:15.826Z</time>
      </trkpt>
      <trkpt lat="46.85008" lon="8.47346">
        <ele>2345</ele>
        <time>2021-08-12T10:35:16.825Z</time>
      </trkpt>
      <trkpt lat="46.85008" lon="8.47346">
        <ele>2345</ele>
        <time>2021-08-12T10:35:17.825Z</time>
      </trkpt>
      <trkpt lat="46.85007" lon="8.47346">
        <ele>2344</ele>
        <time>2021-08-12T10:35:18.826Z</time>
      </trkpt>
      <trkpt lat="46.85007" lon="8.47345">
        <ele>2344</ele>
        <time>2021-08-12T10:35:19.825Z</time>
      </trkpt>
      <trkpt lat="46.85007" lon="8.47344">
        <ele>2343</ele>
        <time>2021-08-12T10:35:20.826Z</time>
      </trkpt>
      <trkpt lat="46.85006" lon="8.47343">
        <ele>2342</ele>
        <time>2021-08-12T10:35:21.826Z</time>
      </trkpt>
      <trkpt lat="46.85006" lon="8.47342">
        <ele>2342</ele>
        <time>2021-08-12T10:35:22.826Z</time>
      </trkpt>
      <trkpt lat="46.85006" lon="8.47341">
        <ele>2341</ele>
        <time>2021-08-12T10:35:23.825Z</time>
      </trkpt>
      <trkpt lat="46.85006" lon="8.4734">
        <ele>2341</ele>
        <time>2021-08-12T10:35:24.825Z</time>
      </trkpt>
      <trkpt lat="46.85006" lon="8.47339">
        <ele>2341</ele>
        <time>2021-08-12T10:35:25.825Z</time>
      </trkpt>
      <trkpt lat="46.85006" lon="8.47338">
        <ele>2340</ele>
        <time>2021-08-12T10:35:26.826Z</time>
      </trkpt>
      <trkpt lat="46.85006" lon="8.47337">
        <ele>2340</ele>
        <time>2021-08-12T10:35:27.825Z</time>
      </trkpt>
      <trkpt lat="46.85006" lon="8.47336">
        <ele>2339</ele>
        <time>2021-08-12T10:35:28.825Z</time>
      </trkpt>
      <trkpt lat="46.85006" lon="8.47334">
        <ele>2338</ele>
        <time>2021-08-12T10:35:29.826Z</time>
      </trkpt>
      <trkpt lat="46.85005" lon="8.47333">
        <ele>2338</ele>
        <time>2021-08-12T10:35:30.825Z</time>
      </trkpt>
      <trkpt lat="46.85004" lon="8.47331">
        <ele>2337</ele>
        <time>2021-08-12T10:35:31.825Z</time>
      </trkpt>
      <trkpt lat="46.85004" lon="8.47331">
        <ele>2337</ele>
        <time>2021-08-12T10:35:32.825Z</time>
      </trkpt>
      <trkpt lat="46.85003" lon="8.4733">
        <ele>2337</ele>
        <time>2021-08-12T10:35:33.825Z</time>
      </trkpt>
      <trkpt lat="46.85001" lon="8.47329">
        <ele>2337</ele>
        <time>2021-08-12T10:35:34.825Z</time>
      </trkpt>
      <trkpt lat="46.85001" lon="8.47328">
        <ele>2337</ele>
        <time>2021-08-12T10:35:35.825Z</time>
      </trkpt>
      <trkpt lat="46.85001" lon="8.47326">
        <ele>2337</ele>
        <time>2021-08-12T10:35:36.826Z</time>
      </trkpt>
      <trkpt lat="46.85" lon="8.47325">
        <ele>2336</ele>
        <time>2021-08-12T10:36:00.985Z</time>
      </trkpt>
      <trkpt lat="46.85001" lon="8.47323">
        <ele>2336</ele>
        <time>2021-08-12T10:36:01.985Z</time>
      </trkpt>
      <trkpt lat="46.85" lon="8.47323">
        <ele>2336</ele>
        <time>2021-08-12T10:36:02.985Z</time>
      </trkpt>
      <trkpt lat="46.85" lon="8.47323">
        <ele>2337</ele>
        <time>2021-08-12T10:36:03.985Z</time>
      </trkpt>
      <trkpt lat="46.85" lon="8.47323">
        <ele>2337</ele>
        <time>2021-08-12T10:36:04.985Z</time>
      </trkpt>
      <trkpt lat="46.85" lon="8.47323">
        <ele>2337</ele>
        <time>2021-08-12T10:36:05.985Z</time>
      </trkpt>
      <trkpt lat="46.85" lon="8.4732">
        <ele>2337</ele>
        <time>2021-08-12T10:36:06.986Z</time>
      </trkpt>
      <trkpt lat="46.85" lon="8.47319">
        <ele>2337</ele>
        <time>2021-08-12T10:36:07.985Z</time>
      </trkpt>
      <trkpt lat="46.85" lon="8.47318">
        <ele>2337</ele>
        <time>2021-08-12T10:36:08.986Z</time>
      </trkpt>
      <trkpt lat="46.84999" lon="8.47317">
        <ele>2337</ele>
        <time>2021-08-12T10:36:09.985Z</time>
      </trkpt>
      <trkpt lat="46.84999" lon="8.47316">
        <ele>2336</ele>
        <time>2021-08-12T10:36:10.985Z</time>
      </trkpt>
      <trkpt lat="46.84999" lon="8.47315">
        <ele>2336</ele>
        <time>2021-08-12T10:36:11.985Z</time>
      </trkpt>
      <trkpt lat="46.84999" lon="8.47314">
        <ele>2336</ele>
        <time>2021-08-12T10:36:17.106Z</time>
      </trkpt>
      <trkpt lat="46.84999" lon="8.47314">
        <ele>2335</ele>
        <time>2021-08-12T10:36:18.105Z</time>
      </trkpt>
      <trkpt lat="46.84999" lon="8.47313">
        <ele>2335</ele>
        <time>2021-08-12T10:36:19.106Z</time>
      </trkpt>
      <trkpt lat="46.84998" lon="8.47313">
        <ele>2334</ele>
        <time>2021-08-12T10:36:20.106Z</time>
      </trkpt>
      <trkpt lat="46.84998" lon="8.47313">
        <ele>2334</ele>
        <time>2021-08-12T10:36:21.106Z</time>
      </trkpt>
      <trkpt lat="46.84998" lon="8.47314">
        <ele>2333</ele>
        <time>2021-08-12T10:36:22.106Z</time>
      </trkpt>
      <trkpt lat="46.84998" lon="8.47314">
        <ele>2333</ele>
        <time>2021-08-12T10:36:23.106Z</time>
      </trkpt>
      <trkpt lat="46.84998" lon="8.47314">
        <ele>2333</ele>
        <time>2021-08-12T10:36:24.106Z</time>
      </trkpt>
      <trkpt lat="46.84998" lon="8.47313">
        <ele>2333</ele>
        <time>2021-08-12T10:36:25.106Z</time>
      </trkpt>
      <trkpt lat="46.84998" lon="8.47313">
        <ele>2334</ele>
        <time>2021-08-12T10:36:26.105Z</time>
      </trkpt>
      <trkpt lat="46.84998" lon="8.47313">
        <ele>2333</ele>
        <time>2021-08-12T10:37:05.243Z</time>
      </trkpt>
      <trkpt lat="46.84998" lon="8.47313">
        <ele>2332</ele>
        <time>2021-08-12T10:37:27.120Z</time>
      </trkpt>
      <trkpt lat="46.84998" lon="8.47307">
        <ele>2331</ele>
        <time>2021-08-12T10:37:28.121Z</time>
      </trkpt>
      <trkpt lat="46.84997" lon="8.47309">
        <ele>2331</ele>
        <time>2021-08-12T10:37:29.120Z</time>
      </trkpt>
      <trkpt lat="46.84997" lon="8.4731">
        <ele>2331</ele>
        <time>2021-08-12T10:37:43.176Z</time>
      </trkpt>
      <trkpt lat="46.84997" lon="8.47311">
        <ele>2332</ele>
        <time>2021-08-12T10:37:44.175Z</time>
      </trkpt>
      <trkpt lat="46.84996" lon="8.47309">
        <ele>2332</ele>
        <time>2021-08-12T10:37:45.176Z</time>
      </trkpt>
      <trkpt lat="46.84997" lon="8.47308">
        <ele>2332</ele>
        <time>2021-08-12T10:37:46.176Z</time>
      </trkpt>
      <trkpt lat="46.84997" lon="8.47307">
        <ele>2332</ele>
        <time>2021-08-12T10:37:47.176Z</time>
      </trkpt>
      <trkpt lat="46.84997" lon="8.47306">
        <ele>2333</ele>
        <time>2021-08-12T10:38:04.314Z</time>
      </trkpt>
      <trkpt lat="46.84997" lon="8.47305">
        <ele>2333</ele>
        <time>2021-08-12T10:38:05.313Z</time>
      </trkpt>
      <trkpt lat="46.84996" lon="8.47304">
        <ele>2333</ele>
        <time>2021-08-12T10:38:06.314Z</time>
      </trkpt>
      <trkpt lat="46.84996" lon="8.47303">
        <ele>2333</ele>
        <time>2021-08-12T10:38:07.314Z</time>
      </trkpt>
      <trkpt lat="46.84996" lon="8.47302">
        <ele>2333</ele>
        <time>2021-08-12T10:38:08.314Z</time>
      </trkpt>
      <trkpt lat="46.84995" lon="8.47301">
        <ele>2333</ele>
        <time>2021-08-12T10:38:09.314Z</time>
      </trkpt>
      <trkpt lat="46.84995" lon="8.473">
        <ele>2333</ele>
        <time>2021-08-12T10:38:10.313Z</time>
      </trkpt>
      <trkpt lat="46.84994" lon="8.473">
        <ele>2332</ele>
        <time>2021-08-12T10:38:11.313Z</time>
      </trkpt>
      <trkpt lat="46.84994" lon="8.47299">
        <ele>2332</ele>
        <time>2021-08-12T10:38:12.314Z</time>
      </trkpt>
      <trkpt lat="46.84994" lon="8.47297">
        <ele>2332</ele>
        <time>2021-08-12T10:38:13.314Z</time>
      </trkpt>
      <trkpt lat="46.84994" lon="8.47296">
        <ele>2332</ele>
        <time>2021-08-12T10:38:20.436Z</time>
      </trkpt>
      <trkpt lat="46.84993" lon="8.47294">
        <ele>2331</ele>
        <time>2021-08-12T10:38:21.437Z</time>
      </trkpt>
      <trkpt lat="46.84993" lon="8.47293">
        <ele>2331</ele>
        <time>2021-08-12T10:38:22.437Z</time>
      </trkpt>
      <trkpt lat="46.84993" lon="8.47292">
        <ele>2332</ele>
        <time>2021-08-12T10:38:23.437Z</time>
      </trkpt>
      <trkpt lat="46.84993" lon="8.4729">
        <ele>2332</ele>
        <time>2021-08-12T10:38:24.436Z</time>
      </trkpt>
      <trkpt lat="46.84992" lon="8.47289">
        <ele>2332</ele>
        <time>2021-08-12T10:38:25.436Z</time>
      </trkpt>
      <trkpt lat="46.84992" lon="8.47288">
        <ele>2332</ele>
        <time>2021-08-12T10:38:26.437Z</time>
      </trkpt>
      <trkpt lat="46.84992" lon="8.47286">
        <ele>2331</ele>
        <time>2021-08-12T10:38:27.437Z</time>
      </trkpt>
      <trkpt lat="46.84991" lon="8.47285">
        <ele>2331</ele>
        <time>2021-08-12T10:38:28.437Z</time>
      </trkpt>
      <trkpt lat="46.84991" lon="8.47284">
        <ele>2331</ele>
        <time>2021-08-12T10:38:29.436Z</time>
      </trkpt>
      <trkpt lat="46.84991" lon="8.47283">
        <ele>2331</ele>
        <time>2021-08-12T10:38:30.437Z</time>
      </trkpt>
      <trkpt lat="46.8499" lon="8.47282">
        <ele>2331</ele>
        <time>2021-08-12T10:38:31.437Z</time>
      </trkpt>
      <trkpt lat="46.8499" lon="8.47281">
        <ele>2331</ele>
        <time>2021-08-12T10:38:32.437Z</time>
      </trkpt>
      <trkpt lat="46.8499" lon="8.4728">
        <ele>2331</ele>
        <time>2021-08-12T10:38:33.436Z</time>
      </trkpt>
      <trkpt lat="46.84989" lon="8.47279">
        <ele>2331</ele>
        <time>2021-08-12T10:38:34.437Z</time>
      </trkpt>
      <trkpt lat="46.84989" lon="8.47277">
        <ele>2331</ele>
        <time>2021-08-12T10:38:38.550Z</time>
      </trkpt>
      <trkpt lat="46.84989" lon="8.47276">
        <ele>2331</ele>
        <time>2021-08-12T10:38:39.549Z</time>
      </trkpt>
      <trkpt lat="46.84989" lon="8.47274">
        <ele>2330</ele>
        <time>2021-08-12T10:38:40.549Z</time>
      </trkpt>
      <trkpt lat="46.84989" lon="8.47273">
        <ele>2330</ele>
        <time>2021-08-12T10:38:41.550Z</time>
      </trkpt>
      <trkpt lat="46.84989" lon="8.47271">
        <ele>2330</ele>
        <time>2021-08-12T10:38:42.550Z</time>
      </trkpt>
      <trkpt lat="46.84989" lon="8.4727">
        <ele>2330</ele>
        <time>2021-08-12T10:38:43.550Z</time>
      </trkpt>
      <trkpt lat="46.84989" lon="8.47269">
        <ele>2329</ele>
        <time>2021-08-12T10:38:44.550Z</time>
      </trkpt>
      <trkpt lat="46.84989" lon="8.47268">
        <ele>2329</ele>
        <time>2021-08-12T10:38:56.710Z</time>
      </trkpt>
      <trkpt lat="46.84988" lon="8.47268">
        <ele>2329</ele>
        <time>2021-08-12T10:38:57.711Z</time>
      </trkpt>
      <trkpt lat="46.84987" lon="8.47268">
        <ele>2329</ele>
        <time>2021-08-12T10:38:58.711Z</time>
      </trkpt>
      <trkpt lat="46.84987" lon="8.47268">
        <ele>2330</ele>
        <time>2021-08-12T10:38:59.711Z</time>
      </trkpt>
      <trkpt lat="46.84986" lon="8.47269">
        <ele>2330</ele>
        <time>2021-08-12T10:39:10.824Z</time>
      </trkpt>
      <trkpt lat="46.84986" lon="8.47267">
        <ele>2331</ele>
        <time>2021-08-12T10:39:18.679Z</time>
      </trkpt>
      <trkpt lat="46.84985" lon="8.47265">
        <ele>2331</ele>
        <time>2021-08-12T10:39:19.678Z</time>
      </trkpt>
      <trkpt lat="46.84984" lon="8.47264">
        <ele>2331</ele>
        <time>2021-08-12T10:39:21.537Z</time>
      </trkpt>
      <trkpt lat="46.84984" lon="8.47263">
        <ele>2331</ele>
        <time>2021-08-12T10:39:22.537Z</time>
      </trkpt>
      <trkpt lat="46.84983" lon="8.47262">
        <ele>2331</ele>
        <time>2021-08-12T10:39:23.537Z</time>
      </trkpt>
      <trkpt lat="46.84983" lon="8.47261">
        <ele>2331</ele>
        <time>2021-08-12T10:39:24.537Z</time>
      </trkpt>
      <trkpt lat="46.84982" lon="8.47259">
        <ele>2331</ele>
        <time>2021-08-12T10:39:25.537Z</time>
      </trkpt>
      <trkpt lat="46.84982" lon="8.47257">
        <ele>2332</ele>
        <time>2021-08-12T10:39:26.536Z</time>
      </trkpt>
      <trkpt lat="46.84982" lon="8.47255">
        <ele>2332</ele>
        <time>2021-08-12T10:39:27.536Z</time>
      </trkpt>
      <trkpt lat="46.84982" lon="8.47254">
        <ele>2332</ele>
        <time>2021-08-12T10:39:28.537Z</time>
      </trkpt>
      <trkpt lat="46.84981" lon="8.47253">
        <ele>2332</ele>
        <time>2021-08-12T10:39:32.564Z</time>
      </trkpt>
      <trkpt lat="46.84981" lon="8.47252">
        <ele>2332</ele>
        <time>2021-08-12T10:39:41.426Z</time>
      </trkpt>
      <trkpt lat="46.84981" lon="8.47251">
        <ele>2332</ele>
        <time>2021-08-12T10:39:59.357Z</time>
      </trkpt>
      <trkpt lat="46.84981" lon="8.4725">
        <ele>2333</ele>
        <time>2021-08-12T10:40:00.358Z</time>
      </trkpt>
      <trkpt lat="46.84981" lon="8.4725">
        <ele>2333</ele>
        <time>2021-08-12T10:40:01.358Z</time>
      </trkpt>
      <trkpt lat="46.8498" lon="8.47249">
        <ele>2333</ele>
        <time>2021-08-12T10:40:02.358Z</time>
      </trkpt>
      <trkpt lat="46.8498" lon="8.47247">
        <ele>2332</ele>
        <time>2021-08-12T10:40:03.357Z</time>
      </trkpt>
      <trkpt lat="46.8498" lon="8.47246">
        <ele>2332</ele>
        <time>2021-08-12T10:40:04.358Z</time>
      </trkpt>
      <trkpt lat="46.84979" lon="8.47245">
        <ele>2332</ele>
        <time>2021-08-12T10:40:05.358Z</time>
      </trkpt>
      <trkpt lat="46.84979" lon="8.47244">
        <ele>2332</ele>
        <time>2021-08-12T10:40:06.358Z</time>
      </trkpt>
      <trkpt lat="46.84978" lon="8.47243">
        <ele>2332</ele>
        <time>2021-08-12T10:40:07.357Z</time>
      </trkpt>
      <trkpt lat="46.84977" lon="8.47242">
        <ele>2332</ele>
        <time>2021-08-12T10:40:08.358Z</time>
      </trkpt>
      <trkpt lat="46.84977" lon="8.47241">
        <ele>2333</ele>
        <time>2021-08-12T10:40:09.358Z</time>
      </trkpt>
      <trkpt lat="46.84976" lon="8.4724">
        <ele>2333</ele>
        <time>2021-08-12T10:40:10.357Z</time>
      </trkpt>
      <trkpt lat="46.84976" lon="8.47238">
        <ele>2333</ele>
        <time>2021-08-12T10:40:11.357Z</time>
      </trkpt>
      <trkpt lat="46.84976" lon="8.47237">
        <ele>2334</ele>
        <time>2021-08-12T10:40:12.358Z</time>
      </trkpt>
      <trkpt lat="46.84975" lon="8.47235">
        <ele>2334</ele>
        <time>2021-08-12T10:40:13.358Z</time>
      </trkpt>
      <trkpt lat="46.84975" lon="8.47234">
        <ele>2335</ele>
        <time>2021-08-12T10:40:14.357Z</time>
      </trkpt>
      <trkpt lat="46.84974" lon="8.47232">
        <ele>2335</ele>
        <time>2021-08-12T10:40:15.357Z</time>
      </trkpt>
      <trkpt lat="46.84973" lon="8.47231">
        <ele>2336</ele>
        <time>2021-08-12T10:40:16.358Z</time>
      </trkpt>
      <trkpt lat="46.84972" lon="8.4723">
        <ele>2336</ele>
        <time>2021-08-12T10:40:17.357Z</time>
      </trkpt>
      <trkpt lat="46.84971" lon="8.47229">
        <ele>2336</ele>
        <time>2021-08-12T10:40:18.358Z</time>
      </trkpt>
      <trkpt lat="46.84971" lon="8.47228">
        <ele>2336</ele>
        <time>2021-08-12T10:40:19.358Z</time>
      </trkpt>
      <trkpt lat="46.84969" lon="8.47226">
        <ele>2336</ele>
        <time>2021-08-12T10:40:20.358Z</time>
      </trkpt>
      <trkpt lat="46.84969" lon="8.47225">
        <ele>2336</ele>
        <time>2021-08-12T10:40:21.357Z</time>
      </trkpt>
      <trkpt lat="46.84968" lon="8.47224">
        <ele>2335</ele>
        <time>2021-08-12T10:40:22.358Z</time>
      </trkpt>
      <trkpt lat="46.84968" lon="8.47223">
        <ele>2335</ele>
        <time>2021-08-12T10:40:23.358Z</time>
      </trkpt>
      <trkpt lat="46.84967" lon="8.47223">
        <ele>2335</ele>
        <time>2021-08-12T10:40:24.357Z</time>
      </trkpt>
      <trkpt lat="46.84967" lon="8.47223">
        <ele>2335</ele>
        <time>2021-08-12T10:40:25.358Z</time>
      </trkpt>
      <trkpt lat="46.84967" lon="8.47223">
        <ele>2334</ele>
        <time>2021-08-12T10:40:26.358Z</time>
      </trkpt>
      <trkpt lat="46.84966" lon="8.47221">
        <ele>2334</ele>
        <time>2021-08-12T10:40:27.358Z</time>
      </trkpt>
      <trkpt lat="46.84966" lon="8.4722">
        <ele>2334</ele>
        <time>2021-08-12T10:40:28.358Z</time>
      </trkpt>
      <trkpt lat="46.84966" lon="8.47219">
        <ele>2334</ele>
        <time>2021-08-12T10:40:29.358Z</time>
      </trkpt>
      <trkpt lat="46.84965" lon="8.47219">
        <ele>2334</ele>
        <time>2021-08-12T10:40:30.357Z</time>
      </trkpt>
      <trkpt lat="46.84965" lon="8.47217">
        <ele>2334</ele>
        <time>2021-08-12T10:40:31.358Z</time>
      </trkpt>
      <trkpt lat="46.84964" lon="8.47216">
        <ele>2335</ele>
        <time>2021-08-12T10:40:32.358Z</time>
      </trkpt>
      <trkpt lat="46.84964" lon="8.47215">
        <ele>2335</ele>
        <time>2021-08-12T10:40:50.445Z</time>
      </trkpt>
      <trkpt lat="46.84964" lon="8.47214">
        <ele>2335</ele>
        <time>2021-08-12T10:40:51.444Z</time>
      </trkpt>
      <trkpt lat="46.84964" lon="8.47212">
        <ele>2335</ele>
        <time>2021-08-12T10:40:52.445Z</time>
      </trkpt>
      <trkpt lat="46.84964" lon="8.47211">
        <ele>2335</ele>
        <time>2021-08-12T10:40:53.445Z</time>
      </trkpt>
      <trkpt lat="46.84964" lon="8.4721">
        <ele>2335</ele>
        <time>2021-08-12T10:40:54.445Z</time>
      </trkpt>
      <trkpt lat="46.84963" lon="8.47209">
        <ele>2335</ele>
        <time>2021-08-12T10:40:55.444Z</time>
      </trkpt>
      <trkpt lat="46.84963" lon="8.47208">
        <ele>2334</ele>
        <time>2021-08-12T10:40:58.446Z</time>
      </trkpt>
      <trkpt lat="46.84962" lon="8.47206">
        <ele>2334</ele>
        <time>2021-08-12T10:40:59.446Z</time>
      </trkpt>
      <trkpt lat="46.84962" lon="8.47205">
        <ele>2334</ele>
        <time>2021-08-12T10:41:00.445Z</time>
      </trkpt>
      <trkpt lat="46.84962" lon="8.47204">
        <ele>2334</ele>
        <time>2021-08-12T10:41:58.551Z</time>
      </trkpt>
      <trkpt lat="46.84962" lon="8.47203">
        <ele>2334</ele>
        <time>2021-08-12T10:42:07.447Z</time>
      </trkpt>
      <trkpt lat="46.84961" lon="8.47201">
        <ele>2333</ele>
        <time>2021-08-12T10:42:08.446Z</time>
      </trkpt>
      <trkpt lat="46.84961" lon="8.472">
        <ele>2333</ele>
        <time>2021-08-12T10:42:09.447Z</time>
      </trkpt>
      <trkpt lat="46.84961" lon="8.47198">
        <ele>2332</ele>
        <time>2021-08-12T10:42:10.446Z</time>
      </trkpt>
      <trkpt lat="46.8496" lon="8.47196">
        <ele>2330</ele>
        <time>2021-08-12T10:42:11.446Z</time>
      </trkpt>
      <trkpt lat="46.8496" lon="8.47195">
        <ele>2329</ele>
        <time>2021-08-12T10:42:29.462Z</time>
      </trkpt>
      <trkpt lat="46.84959" lon="8.47193">
        <ele>2329</ele>
        <time>2021-08-12T10:42:30.463Z</time>
      </trkpt>
      <trkpt lat="46.84959" lon="8.47192">
        <ele>2328</ele>
        <time>2021-08-12T10:42:31.463Z</time>
      </trkpt>
      <trkpt lat="46.84959" lon="8.4719">
        <ele>2327</ele>
        <time>2021-08-12T10:42:32.463Z</time>
      </trkpt>
      <trkpt lat="46.84958" lon="8.47189">
        <ele>2326</ele>
        <time>2021-08-12T10:42:33.462Z</time>
      </trkpt>
      <trkpt lat="46.84958" lon="8.47187">
        <ele>2326</ele>
        <time>2021-08-12T10:42:34.463Z</time>
      </trkpt>
      <trkpt lat="46.84957" lon="8.47187">
        <ele>2326</ele>
        <time>2021-08-12T10:42:35.463Z</time>
      </trkpt>
      <trkpt lat="46.84957" lon="8.47187">
        <ele>2325</ele>
        <time>2021-08-12T10:42:36.462Z</time>
      </trkpt>
      <trkpt lat="46.84956" lon="8.47185">
        <ele>2325</ele>
        <time>2021-08-12T10:42:42.551Z</time>
      </trkpt>
      <trkpt lat="46.84956" lon="8.47183">
        <ele>2325</ele>
        <time>2021-08-12T10:42:43.551Z</time>
      </trkpt>
      <trkpt lat="46.84955" lon="8.47182">
        <ele>2325</ele>
        <time>2021-08-12T10:42:44.551Z</time>
      </trkpt>
      <trkpt lat="46.84955" lon="8.4718">
        <ele>2326</ele>
        <time>2021-08-12T10:42:45.550Z</time>
      </trkpt>
      <trkpt lat="46.84954" lon="8.47179">
        <ele>2326</ele>
        <time>2021-08-12T10:42:46.550Z</time>
      </trkpt>
      <trkpt lat="46.84954" lon="8.47177">
        <ele>2326</ele>
        <time>2021-08-12T10:42:47.551Z</time>
      </trkpt>
      <trkpt lat="46.84953" lon="8.47175">
        <ele>2326</ele>
        <time>2021-08-12T10:43:08.560Z</time>
      </trkpt>
      <trkpt lat="46.84953" lon="8.47174">
        <ele>2326</ele>
        <time>2021-08-12T10:43:09.561Z</time>
      </trkpt>
      <trkpt lat="46.84953" lon="8.47172">
        <ele>2326</ele>
        <time>2021-08-12T10:43:10.560Z</time>
      </trkpt>
      <trkpt lat="46.84952" lon="8.47171">
        <ele>2325</ele>
        <time>2021-08-12T10:43:11.561Z</time>
      </trkpt>
      <trkpt lat="46.84951" lon="8.47169">
        <ele>2325</ele>
        <time>2021-08-12T10:43:12.560Z</time>
      </trkpt>
      <trkpt lat="46.8495" lon="8.47168">
        <ele>2324</ele>
        <time>2021-08-12T10:43:13.560Z</time>
      </trkpt>
      <trkpt lat="46.84949" lon="8.47167">
        <ele>2324</ele>
        <time>2021-08-12T10:43:14.560Z</time>
      </trkpt>
      <trkpt lat="46.84949" lon="8.47166">
        <ele>2324</ele>
        <time>2021-08-12T10:43:15.561Z</time>
      </trkpt>
      <trkpt lat="46.84948" lon="8.47164">
        <ele>2324</ele>
        <time>2021-08-12T10:43:16.561Z</time>
      </trkpt>
      <trkpt lat="46.84948" lon="8.47163">
        <ele>2324</ele>
        <time>2021-08-12T10:43:17.560Z</time>
      </trkpt>
      <trkpt lat="46.84948" lon="8.47161">
        <ele>2324</ele>
        <time>2021-08-12T10:43:18.560Z</time>
      </trkpt>
      <trkpt lat="46.84947" lon="8.4716">
        <ele>2324</ele>
        <time>2021-08-12T10:43:19.560Z</time>
      </trkpt>
      <trkpt lat="46.84947" lon="8.47159">
        <ele>2324</ele>
        <time>2021-08-12T10:43:20.561Z</time>
      </trkpt>
      <trkpt lat="46.84946" lon="8.47159">
        <ele>2324</ele>
        <time>2021-08-12T10:43:23.585Z</time>
      </trkpt>
      <trkpt lat="46.84945" lon="8.47158">
        <ele>2324</ele>
        <time>2021-08-12T10:43:24.585Z</time>
      </trkpt>
      <trkpt lat="46.84944" lon="8.47157">
        <ele>2324</ele>
        <time>2021-08-12T10:43:38.436Z</time>
      </trkpt>
      <trkpt lat="46.84943" lon="8.47155">
        <ele>2324</ele>
        <time>2021-08-12T10:43:39.436Z</time>
      </trkpt>
      <trkpt lat="46.84943" lon="8.47154">
        <ele>2324</ele>
        <time>2021-08-12T10:43:52.294Z</time>
      </trkpt>
      <trkpt lat="46.84943" lon="8.47153">
        <ele>2324</ele>
        <time>2021-08-12T10:44:14.063Z</time>
      </trkpt>
      <trkpt lat="46.84942" lon="8.47153">
        <ele>2324</ele>
        <time>2021-08-12T10:44:15.063Z</time>
      </trkpt>
      <trkpt lat="46.84942" lon="8.47152">
        <ele>2325</ele>
        <time>2021-08-12T10:44:16.063Z</time>
      </trkpt>
      <trkpt lat="46.84941" lon="8.47151">
        <ele>2325</ele>
        <time>2021-08-12T10:44:37.922Z</time>
      </trkpt>
      <trkpt lat="46.8494" lon="8.47151">
        <ele>2326</ele>
        <time>2021-08-12T10:44:38.922Z</time>
      </trkpt>
      <trkpt lat="46.84939" lon="8.4715">
        <ele>2326</ele>
        <time>2021-08-12T10:44:45.685Z</time>
      </trkpt>
      <trkpt lat="46.84939" lon="8.47149">
        <ele>2327</ele>
        <time>2021-08-12T10:44:46.685Z</time>
      </trkpt>
      <trkpt lat="46.84938" lon="8.47149">
        <ele>2327</ele>
        <time>2021-08-12T10:44:47.685Z</time>
      </trkpt>
      <trkpt lat="46.84938" lon="8.47148">
        <ele>2327</ele>
        <time>2021-08-12T10:44:48.685Z</time>
      </trkpt>
      <trkpt lat="46.84937" lon="8.47148">
        <ele>2327</ele>
        <time>2021-08-12T10:44:49.685Z</time>
      </trkpt>
      <trkpt lat="46.84937" lon="8.47146">
        <ele>2327</ele>
        <time>2021-08-12T10:44:50.684Z</time>
      </trkpt>
      <trkpt lat="46.84937" lon="8.47145">
        <ele>2327</ele>
        <time>2021-08-12T10:44:51.685Z</time>
      </trkpt>
      <trkpt lat="46.84936" lon="8.47144">
        <ele>2327</ele>
        <time>2021-08-12T10:44:52.685Z</time>
      </trkpt>
      <trkpt lat="46.84936" lon="8.47142">
        <ele>2326</ele>
        <time>2021-08-12T10:44:53.685Z</time>
      </trkpt>
      <trkpt lat="46.84936" lon="8.47141">
        <ele>2326</ele>
        <time>2021-08-12T10:44:54.685Z</time>
      </trkpt>
      <trkpt lat="46.84936" lon="8.47139">
        <ele>2326</ele>
        <time>2021-08-12T10:44:55.684Z</time>
      </trkpt>
      <trkpt lat="46.84935" lon="8.47138">
        <ele>2326</ele>
        <time>2021-08-12T10:44:56.684Z</time>
      </trkpt>
      <trkpt lat="46.84934" lon="8.47136">
        <ele>2326</ele>
        <time>2021-08-12T10:44:57.685Z</time>
      </trkpt>
      <trkpt lat="46.84934" lon="8.47135">
        <ele>2326</ele>
        <time>2021-08-12T10:44:58.685Z</time>
      </trkpt>
      <trkpt lat="46.84933" lon="8.47134">
        <ele>2326</ele>
        <time>2021-08-12T10:44:59.685Z</time>
      </trkpt>
      <trkpt lat="46.84931" lon="8.47133">
        <ele>2326</ele>
        <time>2021-08-12T10:45:00.684Z</time>
      </trkpt>
      <trkpt lat="46.84931" lon="8.47132">
        <ele>2326</ele>
        <time>2021-08-12T10:45:01.685Z</time>
      </trkpt>
      <trkpt lat="46.8493" lon="8.47132">
        <ele>2326</ele>
        <time>2021-08-12T10:45:02.684Z</time>
      </trkpt>
      <trkpt lat="46.84929" lon="8.47131">
        <ele>2326</ele>
        <time>2021-08-12T10:45:03.684Z</time>
      </trkpt>
      <trkpt lat="46.84928" lon="8.4713">
        <ele>2325</ele>
        <time>2021-08-12T10:45:04.685Z</time>
      </trkpt>
      <trkpt lat="46.84926" lon="8.4713">
        <ele>2324</ele>
        <time>2021-08-12T10:45:05.685Z</time>
      </trkpt>
      <trkpt lat="46.84925" lon="8.4713">
        <ele>2324</ele>
        <time>2021-08-12T10:45:06.685Z</time>
      </trkpt>
      <trkpt lat="46.84924" lon="8.47128">
        <ele>2324</ele>
        <time>2021-08-12T10:45:07.685Z</time>
      </trkpt>
      <trkpt lat="46.84923" lon="8.47127">
        <ele>2323</ele>
        <time>2021-08-12T10:45:08.685Z</time>
      </trkpt>
      <trkpt lat="46.84922" lon="8.47126">
        <ele>2323</ele>
        <time>2021-08-12T10:45:09.684Z</time>
      </trkpt>
      <trkpt lat="46.84922" lon="8.47124">
        <ele>2323</ele>
        <time>2021-08-12T10:45:10.685Z</time>
      </trkpt>
      <trkpt lat="46.84922" lon="8.47122">
        <ele>2323</ele>
        <time>2021-08-12T10:45:11.684Z</time>
      </trkpt>
      <trkpt lat="46.84921" lon="8.47121">
        <ele>2323</ele>
        <time>2021-08-12T10:45:12.685Z</time>
      </trkpt>
      <trkpt lat="46.84921" lon="8.4712">
        <ele>2322</ele>
        <time>2021-08-12T10:45:13.685Z</time>
      </trkpt>
      <trkpt lat="46.84922" lon="8.47118">
        <ele>2322</ele>
        <time>2021-08-12T10:45:14.684Z</time>
      </trkpt>
      <trkpt lat="46.84922" lon="8.47116">
        <ele>2322</ele>
        <time>2021-08-12T10:45:15.685Z</time>
      </trkpt>
      <trkpt lat="46.84921" lon="8.47115">
        <ele>2322</ele>
        <time>2021-08-12T10:45:16.685Z</time>
      </trkpt>
      <trkpt lat="46.84921" lon="8.47113">
        <ele>2322</ele>
        <time>2021-08-12T10:45:17.684Z</time>
      </trkpt>
      <trkpt lat="46.84921" lon="8.47112">
        <ele>2322</ele>
        <time>2021-08-12T10:45:18.685Z</time>
      </trkpt>
      <trkpt lat="46.84921" lon="8.4711">
        <ele>2322</ele>
        <time>2021-08-12T10:45:19.685Z</time>
      </trkpt>
      <trkpt lat="46.84921" lon="8.47108">
        <ele>2321</ele>
        <time>2021-08-12T10:45:20.685Z</time>
      </trkpt>
      <trkpt lat="46.84921" lon="8.47107">
        <ele>2321</ele>
        <time>2021-08-12T10:45:21.684Z</time>
      </trkpt>
      <trkpt lat="46.84921" lon="8.47105">
        <ele>2321</ele>
        <time>2021-08-12T10:45:22.684Z</time>
      </trkpt>
      <trkpt lat="46.8492" lon="8.47103">
        <ele>2321</ele>
        <time>2021-08-12T10:45:23.684Z</time>
      </trkpt>
      <trkpt lat="46.8492" lon="8.47102">
        <ele>2321</ele>
        <time>2021-08-12T10:45:24.685Z</time>
      </trkpt>
      <trkpt lat="46.8492" lon="8.471">
        <ele>2321</ele>
        <time>2021-08-12T10:45:25.685Z</time>
      </trkpt>
      <trkpt lat="46.8492" lon="8.47099">
        <ele>2321</ele>
        <time>2021-08-12T10:45:26.685Z</time>
      </trkpt>
      <trkpt lat="46.8492" lon="8.47098">
        <ele>2321</ele>
        <time>2021-08-12T10:45:27.685Z</time>
      </trkpt>
      <trkpt lat="46.84919" lon="8.47097">
        <ele>2321</ele>
        <time>2021-08-12T10:45:28.685Z</time>
      </trkpt>
      <trkpt lat="46.84919" lon="8.47096">
        <ele>2321</ele>
        <time>2021-08-12T10:45:29.685Z</time>
      </trkpt>
      <trkpt lat="46.84919" lon="8.47094">
        <ele>2321</ele>
        <time>2021-08-12T10:45:30.684Z</time>
      </trkpt>
      <trkpt lat="46.84918" lon="8.47093">
        <ele>2321</ele>
        <time>2021-08-12T10:45:31.684Z</time>
      </trkpt>
      <trkpt lat="46.84918" lon="8.47092">
        <ele>2321</ele>
        <time>2021-08-12T10:45:32.684Z</time>
      </trkpt>
      <trkpt lat="46.84918" lon="8.47091">
        <ele>2321</ele>
        <time>2021-08-12T10:45:33.684Z</time>
      </trkpt>
      <trkpt lat="46.84917" lon="8.4709">
        <ele>2321</ele>
        <time>2021-08-12T10:45:34.684Z</time>
      </trkpt>
      <trkpt lat="46.84916" lon="8.47089">
        <ele>2321</ele>
        <time>2021-08-12T10:45:35.685Z</time>
      </trkpt>
      <trkpt lat="46.84915" lon="8.47088">
        <ele>2320</ele>
        <time>2021-08-12T10:45:36.684Z</time>
      </trkpt>
      <trkpt lat="46.84914" lon="8.47087">
        <ele>2320</ele>
        <time>2021-08-12T10:45:37.684Z</time>
      </trkpt>
      <trkpt lat="46.84913" lon="8.47086">
        <ele>2321</ele>
        <time>2021-08-12T10:45:38.685Z</time>
      </trkpt>
      <trkpt lat="46.84912" lon="8.47085">
        <ele>2321</ele>
        <time>2021-08-12T10:45:39.684Z</time>
      </trkpt>
      <trkpt lat="46.84912" lon="8.47083">
        <ele>2321</ele>
        <time>2021-08-12T10:45:40.684Z</time>
      </trkpt>
      <trkpt lat="46.84912" lon="8.47082">
        <ele>2322</ele>
        <time>2021-08-12T10:45:41.684Z</time>
      </trkpt>
      <trkpt lat="46.84911" lon="8.47081">
        <ele>2322</ele>
        <time>2021-08-12T10:45:42.684Z</time>
      </trkpt>
      <trkpt lat="46.84911" lon="8.47079">
        <ele>2323</ele>
        <time>2021-08-12T10:45:43.685Z</time>
      </trkpt>
      <trkpt lat="46.8491" lon="8.47078">
        <ele>2323</ele>
        <time>2021-08-12T10:45:44.685Z</time>
      </trkpt>
      <trkpt lat="46.84909" lon="8.47077">
        <ele>2323</ele>
        <time>2021-08-12T10:45:45.685Z</time>
      </trkpt>
      <trkpt lat="46.84908" lon="8.47076">
        <ele>2323</ele>
        <time>2021-08-12T10:45:46.685Z</time>
      </trkpt>
      <trkpt lat="46.84907" lon="8.47075">
        <ele>2323</ele>
        <time>2021-08-12T10:45:47.685Z</time>
      </trkpt>
      <trkpt lat="46.84906" lon="8.47075">
        <ele>2323</ele>
        <time>2021-08-12T10:45:48.685Z</time>
      </trkpt>
      <trkpt lat="46.84905" lon="8.47074">
        <ele>2323</ele>
        <time>2021-08-12T10:45:49.684Z</time>
      </trkpt>
      <trkpt lat="46.84903" lon="8.47073">
        <ele>2323</ele>
        <time>2021-08-12T10:45:50.684Z</time>
      </trkpt>
      <trkpt lat="46.84902" lon="8.47072">
        <ele>2323</ele>
        <time>2021-08-12T10:45:51.685Z</time>
      </trkpt>
      <trkpt lat="46.84901" lon="8.47071">
        <ele>2323</ele>
        <time>2021-08-12T10:45:52.685Z</time>
      </trkpt>
      <trkpt lat="46.849" lon="8.4707">
        <ele>2323</ele>
        <time>2021-08-12T10:45:53.685Z</time>
      </trkpt>
      <trkpt lat="46.84899" lon="8.47068">
        <ele>2322</ele>
        <time>2021-08-12T10:45:54.684Z</time>
      </trkpt>
      <trkpt lat="46.84898" lon="8.47067">
        <ele>2322</ele>
        <time>2021-08-12T10:45:55.685Z</time>
      </trkpt>
      <trkpt lat="46.84898" lon="8.47066">
        <ele>2321</ele>
        <time>2021-08-12T10:45:56.684Z</time>
      </trkpt>
      <trkpt lat="46.84897" lon="8.47064">
        <ele>2321</ele>
        <time>2021-08-12T10:45:57.685Z</time>
      </trkpt>
      <trkpt lat="46.84896" lon="8.47063">
        <ele>2321</ele>
        <time>2021-08-12T10:45:58.684Z</time>
      </trkpt>
      <trkpt lat="46.84896" lon="8.47062">
        <ele>2320</ele>
        <time>2021-08-12T10:45:59.685Z</time>
      </trkpt>
      <trkpt lat="46.84895" lon="8.47061">
        <ele>2320</ele>
        <time>2021-08-12T10:46:00.685Z</time>
      </trkpt>
      <trkpt lat="46.84894" lon="8.4706">
        <ele>2319</ele>
        <time>2021-08-12T10:46:01.685Z</time>
      </trkpt>
      <trkpt lat="46.84893" lon="8.47058">
        <ele>2320</ele>
        <time>2021-08-12T10:46:02.685Z</time>
      </trkpt>
      <trkpt lat="46.84893" lon="8.47057">
        <ele>2320</ele>
        <time>2021-08-12T10:46:03.684Z</time>
      </trkpt>
      <trkpt lat="46.84892" lon="8.47056">
        <ele>2320</ele>
        <time>2021-08-12T10:46:04.685Z</time>
      </trkpt>
      <trkpt lat="46.84891" lon="8.47055">
        <ele>2320</ele>
        <time>2021-08-12T10:46:05.684Z</time>
      </trkpt>
      <trkpt lat="46.8489" lon="8.47054">
        <ele>2320</ele>
        <time>2021-08-12T10:46:06.684Z</time>
      </trkpt>
      <trkpt lat="46.8489" lon="8.47052">
        <ele>2320</ele>
        <time>2021-08-12T10:46:07.685Z</time>
      </trkpt>
      <trkpt lat="46.84889" lon="8.47051">
        <ele>2320</ele>
        <time>2021-08-12T10:46:08.684Z</time>
      </trkpt>
      <trkpt lat="46.84888" lon="8.47051">
        <ele>2320</ele>
        <time>2021-08-12T10:46:09.684Z</time>
      </trkpt>
      <trkpt lat="46.84888" lon="8.47049">
        <ele>2319</ele>
        <time>2021-08-12T10:46:10.684Z</time>
      </trkpt>
      <trkpt lat="46.84887" lon="8.47048">
        <ele>2318</ele>
        <time>2021-08-12T10:46:11.685Z</time>
      </trkpt>
      <trkpt lat="46.84886" lon="8.47047">
        <ele>2318</ele>
        <time>2021-08-12T10:46:12.684Z</time>
      </trkpt>
      <trkpt lat="46.84886" lon="8.47045">
        <ele>2318</ele>
        <time>2021-08-12T10:46:13.684Z</time>
      </trkpt>
      <trkpt lat="46.84885" lon="8.47044">
        <ele>2318</ele>
        <time>2021-08-12T10:46:14.685Z</time>
      </trkpt>
      <trkpt lat="46.84884" lon="8.47042">
        <ele>2318</ele>
        <time>2021-08-12T10:46:15.685Z</time>
      </trkpt>
      <trkpt lat="46.84884" lon="8.47041">
        <ele>2318</ele>
        <time>2021-08-12T10:46:16.685Z</time>
      </trkpt>
      <trkpt lat="46.84883" lon="8.47039">
        <ele>2318</ele>
        <time>2021-08-12T10:46:17.685Z</time>
      </trkpt>
      <trkpt lat="46.84883" lon="8.47038">
        <ele>2317</ele>
        <time>2021-08-12T10:46:18.685Z</time>
      </trkpt>
      <trkpt lat="46.84883" lon="8.47036">
        <ele>2317</ele>
        <time>2021-08-12T10:46:19.685Z</time>
      </trkpt>
      <trkpt lat="46.84883" lon="8.47034">
        <ele>2317</ele>
        <time>2021-08-12T10:46:20.685Z</time>
      </trkpt>
      <trkpt lat="46.84883" lon="8.47032">
        <ele>2317</ele>
        <time>2021-08-12T10:46:21.685Z</time>
      </trkpt>
      <trkpt lat="46.84883" lon="8.4703">
        <ele>2317</ele>
        <time>2021-08-12T10:46:23.833Z</time>
      </trkpt>
      <trkpt lat="46.84883" lon="8.47028">
        <ele>2318</ele>
        <time>2021-08-12T10:46:24.833Z</time>
      </trkpt>
      <trkpt lat="46.84883" lon="8.47027">
        <ele>2318</ele>
        <time>2021-08-12T10:46:25.832Z</time>
      </trkpt>
      <trkpt lat="46.84882" lon="8.47025">
        <ele>2318</ele>
        <time>2021-08-12T10:46:26.833Z</time>
      </trkpt>
      <trkpt lat="46.84882" lon="8.47024">
        <ele>2318</ele>
        <time>2021-08-12T10:46:27.833Z</time>
      </trkpt>
      <trkpt lat="46.84882" lon="8.47022">
        <ele>2318</ele>
        <time>2021-08-12T10:46:28.832Z</time>
      </trkpt>
      <trkpt lat="46.84881" lon="8.4702">
        <ele>2318</ele>
        <time>2021-08-12T10:46:29.833Z</time>
      </trkpt>
      <trkpt lat="46.84881" lon="8.47018">
        <ele>2318</ele>
        <time>2021-08-12T10:46:30.833Z</time>
      </trkpt>
      <trkpt lat="46.84881" lon="8.47016">
        <ele>2318</ele>
        <time>2021-08-12T10:46:31.833Z</time>
      </trkpt>
      <trkpt lat="46.84881" lon="8.47015">
        <ele>2318</ele>
        <time>2021-08-12T10:46:32.832Z</time>
      </trkpt>
      <trkpt lat="46.8488" lon="8.47012">
        <ele>2319</ele>
        <time>2021-08-12T10:46:33.833Z</time>
      </trkpt>
      <trkpt lat="46.84879" lon="8.47011">
        <ele>2319</ele>
        <time>2021-08-12T10:46:34.833Z</time>
      </trkpt>
      <trkpt lat="46.84878" lon="8.47009">
        <ele>2319</ele>
        <time>2021-08-12T10:46:35.832Z</time>
      </trkpt>
      <trkpt lat="46.84878" lon="8.47007">
        <ele>2319</ele>
        <time>2021-08-12T10:46:36.833Z</time>
      </trkpt>
      <trkpt lat="46.84877" lon="8.47005">
        <ele>2318</ele>
        <time>2021-08-12T10:46:37.833Z</time>
      </trkpt>
      <trkpt lat="46.84877" lon="8.47004">
        <ele>2318</ele>
        <time>2021-08-12T10:46:38.833Z</time>
      </trkpt>
      <trkpt lat="46.84876" lon="8.47002">
        <ele>2318</ele>
        <time>2021-08-12T10:46:39.833Z</time>
      </trkpt>
      <trkpt lat="46.84876" lon="8.47">
        <ele>2318</ele>
        <time>2021-08-12T10:46:40.832Z</time>
      </trkpt>
      <trkpt lat="46.84876" lon="8.46998">
        <ele>2319</ele>
        <time>2021-08-12T10:46:41.833Z</time>
      </trkpt>
      <trkpt lat="46.84875" lon="8.46996">
        <ele>2319</ele>
        <time>2021-08-12T10:46:49.941Z</time>
      </trkpt>
      <trkpt lat="46.84875" lon="8.46995">
        <ele>2319</ele>
        <time>2021-08-12T10:46:50.942Z</time>
      </trkpt>
      <trkpt lat="46.84874" lon="8.46993">
        <ele>2319</ele>
        <time>2021-08-12T10:46:51.942Z</time>
      </trkpt>
      <trkpt lat="46.84874" lon="8.46992">
        <ele>2318</ele>
        <time>2021-08-12T10:46:52.941Z</time>
      </trkpt>
      <trkpt lat="46.84873" lon="8.4699">
        <ele>2318</ele>
        <time>2021-08-12T10:46:53.942Z</time>
      </trkpt>
      <trkpt lat="46.84873" lon="8.46989">
        <ele>2317</ele>
        <time>2021-08-12T10:46:54.941Z</time>
      </trkpt>
      <trkpt lat="46.84873" lon="8.46987">
        <ele>2317</ele>
        <time>2021-08-12T10:46:55.942Z</time>
      </trkpt>
      <trkpt lat="46.84873" lon="8.46986">
        <ele>2317</ele>
        <time>2021-08-12T10:46:56.941Z</time>
      </trkpt>
      <trkpt lat="46.84873" lon="8.46984">
        <ele>2317</ele>
        <time>2021-08-12T10:46:57.942Z</time>
      </trkpt>
      <trkpt lat="46.84872" lon="8.46983">
        <ele>2317</ele>
        <time>2021-08-12T10:47:26.077Z</time>
      </trkpt>
      <trkpt lat="46.84872" lon="8.46981">
        <ele>2317</ele>
        <time>2021-08-12T10:47:27.077Z</time>
      </trkpt>
      <trkpt lat="46.84872" lon="8.4698">
        <ele>2317</ele>
        <time>2021-08-12T10:47:28.077Z</time>
      </trkpt>
      <trkpt lat="46.84872" lon="8.46978">
        <ele>2317</ele>
        <time>2021-08-12T10:47:29.078Z</time>
      </trkpt>
      <trkpt lat="46.84872" lon="8.46977">
        <ele>2316</ele>
        <time>2021-08-12T10:47:30.078Z</time>
      </trkpt>
      <trkpt lat="46.84872" lon="8.46975">
        <ele>2316</ele>
        <time>2021-08-12T10:47:31.077Z</time>
      </trkpt>
      <trkpt lat="46.84872" lon="8.46974">
        <ele>2315</ele>
        <time>2021-08-12T10:47:32.077Z</time>
      </trkpt>
      <trkpt lat="46.84872" lon="8.46972">
        <ele>2315</ele>
        <time>2021-08-12T10:47:33.078Z</time>
      </trkpt>
      <trkpt lat="46.84872" lon="8.46971">
        <ele>2314</ele>
        <time>2021-08-12T10:47:34.078Z</time>
      </trkpt>
      <trkpt lat="46.84872" lon="8.46969">
        <ele>2314</ele>
        <time>2021-08-12T10:47:35.078Z</time>
      </trkpt>
      <trkpt lat="46.84872" lon="8.46967">
        <ele>2313</ele>
        <time>2021-08-12T10:47:36.078Z</time>
      </trkpt>
      <trkpt lat="46.84872" lon="8.46965">
        <ele>2313</ele>
        <time>2021-08-12T10:47:37.078Z</time>
      </trkpt>
      <trkpt lat="46.84873" lon="8.46964">
        <ele>2312</ele>
        <time>2021-08-12T10:47:38.078Z</time>
      </trkpt>
      <trkpt lat="46.84873" lon="8.46963">
        <ele>2312</ele>
        <time>2021-08-12T10:47:39.077Z</time>
      </trkpt>
      <trkpt lat="46.84873" lon="8.46962">
        <ele>2312</ele>
        <time>2021-08-12T10:47:40.078Z</time>
      </trkpt>
      <trkpt lat="46.84873" lon="8.46961">
        <ele>2312</ele>
        <time>2021-08-12T10:47:41.078Z</time>
      </trkpt>
      <trkpt lat="46.84873" lon="8.46959">
        <ele>2312</ele>
        <time>2021-08-12T10:47:42.077Z</time>
      </trkpt>
      <trkpt lat="46.84873" lon="8.46958">
        <ele>2312</ele>
        <time>2021-08-12T10:47:44.198Z</time>
      </trkpt>
      <trkpt lat="46.84874" lon="8.46956">
        <ele>2312</ele>
        <time>2021-08-12T10:47:45.198Z</time>
      </trkpt>
      <trkpt lat="46.84874" lon="8.46955">
        <ele>2312</ele>
        <time>2021-08-12T10:47:46.198Z</time>
      </trkpt>
      <trkpt lat="46.84874" lon="8.46953">
        <ele>2312</ele>
        <time>2021-08-12T10:47:47.197Z</time>
      </trkpt>
      <trkpt lat="46.84875" lon="8.46951">
        <ele>2312</ele>
        <time>2021-08-12T10:47:48.198Z</time>
      </trkpt>
      <trkpt lat="46.84875" lon="8.4695">
        <ele>2312</ele>
        <time>2021-08-12T10:47:49.198Z</time>
      </trkpt>
      <trkpt lat="46.84875" lon="8.46949">
        <ele>2312</ele>
        <time>2021-08-12T10:47:53.333Z</time>
      </trkpt>
      <trkpt lat="46.84875" lon="8.46948">
        <ele>2312</ele>
        <time>2021-08-12T10:47:54.333Z</time>
      </trkpt>
      <trkpt lat="46.84875" lon="8.46947">
        <ele>2312</ele>
        <time>2021-08-12T10:47:55.332Z</time>
      </trkpt>
      <trkpt lat="46.84875" lon="8.46945">
        <ele>2313</ele>
        <time>2021-08-12T10:47:56.333Z</time>
      </trkpt>
      <trkpt lat="46.84875" lon="8.46944">
        <ele>2313</ele>
        <time>2021-08-12T10:47:57.332Z</time>
      </trkpt>
      <trkpt lat="46.84876" lon="8.46942">
        <ele>2313</ele>
        <time>2021-08-12T10:47:58.332Z</time>
      </trkpt>
      <trkpt lat="46.84876" lon="8.4694">
        <ele>2313</ele>
        <time>2021-08-12T10:47:59.332Z</time>
      </trkpt>
      <trkpt lat="46.84877" lon="8.46939">
        <ele>2313</ele>
        <time>2021-08-12T10:48:00.333Z</time>
      </trkpt>
      <trkpt lat="46.84877" lon="8.46938">
        <ele>2314</ele>
        <time>2021-08-12T10:48:01.332Z</time>
      </trkpt>
      <trkpt lat="46.84877" lon="8.46936">
        <ele>2315</ele>
        <time>2021-08-12T10:48:02.332Z</time>
      </trkpt>
      <trkpt lat="46.84877" lon="8.46935">
        <ele>2315</ele>
        <time>2021-08-12T10:48:03.333Z</time>
      </trkpt>
      <trkpt lat="46.84878" lon="8.46933">
        <ele>2315</ele>
        <time>2021-08-12T10:48:04.333Z</time>
      </trkpt>
      <trkpt lat="46.84878" lon="8.46932">
        <ele>2315</ele>
        <time>2021-08-12T10:48:05.333Z</time>
      </trkpt>
      <trkpt lat="46.84878" lon="8.4693">
        <ele>2315</ele>
        <time>2021-08-12T10:48:06.333Z</time>
      </trkpt>
      <trkpt lat="46.84878" lon="8.46929">
        <ele>2315</ele>
        <time>2021-08-12T10:48:07.333Z</time>
      </trkpt>
      <trkpt lat="46.84878" lon="8.46927">
        <ele>2315</ele>
        <time>2021-08-12T10:48:08.333Z</time>
      </trkpt>
      <trkpt lat="46.84878" lon="8.46926">
        <ele>2314</ele>
        <time>2021-08-12T10:48:09.333Z</time>
      </trkpt>
      <trkpt lat="46.84878" lon="8.46925">
        <ele>2314</ele>
        <time>2021-08-12T10:48:10.333Z</time>
      </trkpt>
      <trkpt lat="46.84878" lon="8.46923">
        <ele>2313</ele>
        <time>2021-08-12T10:48:11.333Z</time>
      </trkpt>
      <trkpt lat="46.84877" lon="8.46922">
        <ele>2312</ele>
        <time>2021-08-12T10:48:12.333Z</time>
      </trkpt>
      <trkpt lat="46.84877" lon="8.46921">
        <ele>2312</ele>
        <time>2021-08-12T10:48:13.333Z</time>
      </trkpt>
      <trkpt lat="46.84877" lon="8.46919">
        <ele>2312</ele>
        <time>2021-08-12T10:48:14.332Z</time>
      </trkpt>
      <trkpt lat="46.84876" lon="8.46918">
        <ele>2311</ele>
        <time>2021-08-12T10:48:15.332Z</time>
      </trkpt>
      <trkpt lat="46.84875" lon="8.46916">
        <ele>2311</ele>
        <time>2021-08-12T10:48:16.333Z</time>
      </trkpt>
      <trkpt lat="46.84875" lon="8.46914">
        <ele>2311</ele>
        <time>2021-08-12T10:48:17.333Z</time>
      </trkpt>
      <trkpt lat="46.84874" lon="8.46913">
        <ele>2311</ele>
        <time>2021-08-12T10:48:31.420Z</time>
      </trkpt>
      <trkpt lat="46.84874" lon="8.46912">
        <ele>2311</ele>
        <time>2021-08-12T10:48:32.419Z</time>
      </trkpt>
      <trkpt lat="46.84874" lon="8.4691">
        <ele>2311</ele>
        <time>2021-08-12T10:48:37.331Z</time>
      </trkpt>
      <trkpt lat="46.84874" lon="8.46909">
        <ele>2310</ele>
        <time>2021-08-12T10:48:38.331Z</time>
      </trkpt>
      <trkpt lat="46.84874" lon="8.46907">
        <ele>2310</ele>
        <time>2021-08-12T10:48:39.331Z</time>
      </trkpt>
      <trkpt lat="46.84873" lon="8.46906">
        <ele>2310</ele>
        <time>2021-08-12T10:48:40.331Z</time>
      </trkpt>
      <trkpt lat="46.84873" lon="8.46904">
        <ele>2310</ele>
        <time>2021-08-12T10:48:41.331Z</time>
      </trkpt>
      <trkpt lat="46.84872" lon="8.46904">
        <ele>2311</ele>
        <time>2021-08-12T10:48:42.331Z</time>
      </trkpt>
      <trkpt lat="46.84871" lon="8.46903">
        <ele>2311</ele>
        <time>2021-08-12T10:48:43.331Z</time>
      </trkpt>
      <trkpt lat="46.84871" lon="8.46902">
        <ele>2312</ele>
        <time>2021-08-12T10:48:59.469Z</time>
      </trkpt>
      <trkpt lat="46.8487" lon="8.469">
        <ele>2312</ele>
        <time>2021-08-12T10:49:00.469Z</time>
      </trkpt>
      <trkpt lat="46.84869" lon="8.46899">
        <ele>2312</ele>
        <time>2021-08-12T10:49:08.294Z</time>
      </trkpt>
      <trkpt lat="46.84868" lon="8.46898">
        <ele>2313</ele>
        <time>2021-08-12T10:49:09.293Z</time>
      </trkpt>
      <trkpt lat="46.84868" lon="8.46897">
        <ele>2313</ele>
        <time>2021-08-12T10:49:10.293Z</time>
      </trkpt>
      <trkpt lat="46.84868" lon="8.46896">
        <ele>2314</ele>
        <time>2021-08-12T10:49:11.293Z</time>
      </trkpt>
      <trkpt lat="46.84867" lon="8.46894">
        <ele>2314</ele>
        <time>2021-08-12T10:49:12.294Z</time>
      </trkpt>
      <trkpt lat="46.84866" lon="8.46893">
        <ele>2314</ele>
        <time>2021-08-12T10:49:13.294Z</time>
      </trkpt>
      <trkpt lat="46.84866" lon="8.46892">
        <ele>2315</ele>
        <time>2021-08-12T10:49:14.293Z</time>
      </trkpt>
      <trkpt lat="46.84866" lon="8.4689">
        <ele>2315</ele>
        <time>2021-08-12T10:49:15.294Z</time>
      </trkpt>
      <trkpt lat="46.84866" lon="8.46889">
        <ele>2315</ele>
        <time>2021-08-12T10:49:16.294Z</time>
      </trkpt>
      <trkpt lat="46.84866" lon="8.46888">
        <ele>2314</ele>
        <time>2021-08-12T10:49:17.294Z</time>
      </trkpt>
      <trkpt lat="46.84865" lon="8.46887">
        <ele>2314</ele>
        <time>2021-08-12T10:49:18.294Z</time>
      </trkpt>
      <trkpt lat="46.84865" lon="8.46885">
        <ele>2313</ele>
        <time>2021-08-12T10:49:19.294Z</time>
      </trkpt>
      <trkpt lat="46.84865" lon="8.46883">
        <ele>2313</ele>
        <time>2021-08-12T10:49:20.294Z</time>
      </trkpt>
      <trkpt lat="46.84865" lon="8.46881">
        <ele>2313</ele>
        <time>2021-08-12T10:49:21.294Z</time>
      </trkpt>
      <trkpt lat="46.84864" lon="8.4688">
        <ele>2312</ele>
        <time>2021-08-12T10:49:25.454Z</time>
      </trkpt>
      <trkpt lat="46.84864" lon="8.46878">
        <ele>2312</ele>
        <time>2021-08-12T10:49:26.454Z</time>
      </trkpt>
      <trkpt lat="46.84864" lon="8.46876">
        <ele>2312</ele>
        <time>2021-08-12T10:49:27.454Z</time>
      </trkpt>
      <trkpt lat="46.84864" lon="8.46875">
        <ele>2312</ele>
        <time>2021-08-12T10:49:28.454Z</time>
      </trkpt>
      <trkpt lat="46.84864" lon="8.46873">
        <ele>2312</ele>
        <time>2021-08-12T10:49:29.454Z</time>
      </trkpt>
      <trkpt lat="46.84864" lon="8.46871">
        <ele>2313</ele>
        <time>2021-08-12T10:49:30.454Z</time>
      </trkpt>
      <trkpt lat="46.84864" lon="8.4687">
        <ele>2313</ele>
        <time>2021-08-12T10:49:31.453Z</time>
      </trkpt>
      <trkpt lat="46.84864" lon="8.46868">
        <ele>2313</ele>
        <time>2021-08-12T10:49:32.453Z</time>
      </trkpt>
      <trkpt lat="46.84863" lon="8.46866">
        <ele>2312</ele>
        <time>2021-08-12T10:49:33.453Z</time>
      </trkpt>
      <trkpt lat="46.84863" lon="8.46865">
        <ele>2312</ele>
        <time>2021-08-12T10:49:34.454Z</time>
      </trkpt>
      <trkpt lat="46.84862" lon="8.46863">
        <ele>2312</ele>
        <time>2021-08-12T10:49:35.454Z</time>
      </trkpt>
      <trkpt lat="46.84862" lon="8.46862">
        <ele>2311</ele>
        <time>2021-08-12T10:49:36.454Z</time>
      </trkpt>
      <trkpt lat="46.84861" lon="8.4686">
        <ele>2311</ele>
        <time>2021-08-12T10:49:37.453Z</time>
      </trkpt>
      <trkpt lat="46.84861" lon="8.46859">
        <ele>2311</ele>
        <time>2021-08-12T10:49:38.454Z</time>
      </trkpt>
      <trkpt lat="46.84861" lon="8.46858">
        <ele>2310</ele>
        <time>2021-08-12T10:49:39.454Z</time>
      </trkpt>
      <trkpt lat="46.84861" lon="8.46856">
        <ele>2310</ele>
        <time>2021-08-12T10:49:40.454Z</time>
      </trkpt>
      <trkpt lat="46.84861" lon="8.46855">
        <ele>2310</ele>
        <time>2021-08-12T10:49:41.453Z</time>
      </trkpt>
      <trkpt lat="46.84861" lon="8.46854">
        <ele>2309</ele>
        <time>2021-08-12T10:49:42.454Z</time>
      </trkpt>
      <trkpt lat="46.84861" lon="8.46852">
        <ele>2309</ele>
        <time>2021-08-12T10:49:43.453Z</time>
      </trkpt>
      <trkpt lat="46.84861" lon="8.4685">
        <ele>2309</ele>
        <time>2021-08-12T10:49:45.555Z</time>
      </trkpt>
      <trkpt lat="46.84861" lon="8.46848">
        <ele>2309</ele>
        <time>2021-08-12T10:49:46.554Z</time>
      </trkpt>
      <trkpt lat="46.84861" lon="8.46846">
        <ele>2309</ele>
        <time>2021-08-12T10:49:47.555Z</time>
      </trkpt>
      <trkpt lat="46.84861" lon="8.46844">
        <ele>2309</ele>
        <time>2021-08-12T10:49:48.554Z</time>
      </trkpt>
      <trkpt lat="46.84862" lon="8.46842">
        <ele>2310</ele>
        <time>2021-08-12T10:49:49.555Z</time>
      </trkpt>
      <trkpt lat="46.84862" lon="8.4684">
        <ele>2310</ele>
        <time>2021-08-12T10:49:50.555Z</time>
      </trkpt>
      <trkpt lat="46.84862" lon="8.46838">
        <ele>2310</ele>
        <time>2021-08-12T10:49:51.554Z</time>
      </trkpt>
      <trkpt lat="46.84862" lon="8.46836">
        <ele>2310</ele>
        <time>2021-08-12T10:49:52.555Z</time>
      </trkpt>
      <trkpt lat="46.84862" lon="8.46834">
        <ele>2310</ele>
        <time>2021-08-12T10:49:53.555Z</time>
      </trkpt>
      <trkpt lat="46.84862" lon="8.46833">
        <ele>2310</ele>
        <time>2021-08-12T10:49:54.554Z</time>
      </trkpt>
      <trkpt lat="46.84861" lon="8.46831">
        <ele>2310</ele>
        <time>2021-08-12T10:49:55.555Z</time>
      </trkpt>
      <trkpt lat="46.84861" lon="8.46829">
        <ele>2310</ele>
        <time>2021-08-12T10:49:56.554Z</time>
      </trkpt>
      <trkpt lat="46.8486" lon="8.46828">
        <ele>2310</ele>
        <time>2021-08-12T10:49:57.555Z</time>
      </trkpt>
      <trkpt lat="46.8486" lon="8.46826">
        <ele>2310</ele>
        <time>2021-08-12T10:49:58.555Z</time>
      </trkpt>
      <trkpt lat="46.8486" lon="8.46825">
        <ele>2310</ele>
        <time>2021-08-12T10:49:59.555Z</time>
      </trkpt>
      <trkpt lat="46.84859" lon="8.46823">
        <ele>2310</ele>
        <time>2021-08-12T10:50:00.554Z</time>
      </trkpt>
      <trkpt lat="46.84859" lon="8.46822">
        <ele>2310</ele>
        <time>2021-08-12T10:50:01.555Z</time>
      </trkpt>
      <trkpt lat="46.84858" lon="8.46821">
        <ele>2310</ele>
        <time>2021-08-12T10:50:02.554Z</time>
      </trkpt>
      <trkpt lat="46.84858" lon="8.46819">
        <ele>2310</ele>
        <time>2021-08-12T10:50:03.555Z</time>
      </trkpt>
      <trkpt lat="46.84857" lon="8.46817">
        <ele>2309</ele>
        <time>2021-08-12T10:50:04.555Z</time>
      </trkpt>
      <trkpt lat="46.84857" lon="8.46816">
        <ele>2309</ele>
        <time>2021-08-12T10:50:05.555Z</time>
      </trkpt>
      <trkpt lat="46.84857" lon="8.46814">
        <ele>2309</ele>
        <time>2021-08-12T10:50:06.554Z</time>
      </trkpt>
      <trkpt lat="46.84857" lon="8.46813">
        <ele>2308</ele>
        <time>2021-08-12T10:50:07.555Z</time>
      </trkpt>
      <trkpt lat="46.84857" lon="8.46812">
        <ele>2308</ele>
        <time>2021-08-12T10:50:08.555Z</time>
      </trkpt>
      <trkpt lat="46.84857" lon="8.46811">
        <ele>2308</ele>
        <time>2021-08-12T10:50:09.555Z</time>
      </trkpt>
      <trkpt lat="46.84857" lon="8.4681">
        <ele>2308</ele>
        <time>2021-08-12T10:50:10.555Z</time>
      </trkpt>
      <trkpt lat="46.84858" lon="8.46809">
        <ele>2308</ele>
        <time>2021-08-12T10:50:11.555Z</time>
      </trkpt>
      <trkpt lat="46.84858" lon="8.46808">
        <ele>2308</ele>
        <time>2021-08-12T10:50:12.554Z</time>
      </trkpt>
      <trkpt lat="46.84858" lon="8.46807">
        <ele>2308</ele>
        <time>2021-08-12T10:50:13.555Z</time>
      </trkpt>
      <trkpt lat="46.84858" lon="8.46805">
        <ele>2308</ele>
        <time>2021-08-12T10:50:14.555Z</time>
      </trkpt>
      <trkpt lat="46.84858" lon="8.46805">
        <ele>2307</ele>
        <time>2021-08-12T10:50:15.554Z</time>
      </trkpt>
      <trkpt lat="46.84857" lon="8.46804">
        <ele>2307</ele>
        <time>2021-08-12T10:50:16.555Z</time>
      </trkpt>
      <trkpt lat="46.84857" lon="8.46802">
        <ele>2307</ele>
        <time>2021-08-12T10:50:17.555Z</time>
      </trkpt>
      <trkpt lat="46.84856" lon="8.46801">
        <ele>2307</ele>
        <time>2021-08-12T10:50:18.554Z</time>
      </trkpt>
      <trkpt lat="46.84856" lon="8.468">
        <ele>2307</ele>
        <time>2021-08-12T10:50:19.554Z</time>
      </trkpt>
      <trkpt lat="46.84856" lon="8.46799">
        <ele>2306</ele>
        <time>2021-08-12T10:50:20.554Z</time>
      </trkpt>
      <trkpt lat="46.84855" lon="8.46797">
        <ele>2307</ele>
        <time>2021-08-12T10:50:21.554Z</time>
      </trkpt>
      <trkpt lat="46.84855" lon="8.46795">
        <ele>2307</ele>
        <time>2021-08-12T10:50:22.555Z</time>
      </trkpt>
      <trkpt lat="46.84855" lon="8.46793">
        <ele>2307</ele>
        <time>2021-08-12T10:50:23.555Z</time>
      </trkpt>
      <trkpt lat="46.84855" lon="8.46791">
        <ele>2307</ele>
        <time>2021-08-12T10:50:24.555Z</time>
      </trkpt>
      <trkpt lat="46.84854" lon="8.4679">
        <ele>2307</ele>
        <time>2021-08-12T10:50:25.555Z</time>
      </trkpt>
      <trkpt lat="46.84854" lon="8.46788">
        <ele>2307</ele>
        <time>2021-08-12T10:50:26.555Z</time>
      </trkpt>
      <trkpt lat="46.84854" lon="8.46787">
        <ele>2307</ele>
        <time>2021-08-12T10:50:27.555Z</time>
      </trkpt>
      <trkpt lat="46.84854" lon="8.46785">
        <ele>2307</ele>
        <time>2021-08-12T10:50:28.555Z</time>
      </trkpt>
      <trkpt lat="46.84855" lon="8.46784">
        <ele>2307</ele>
        <time>2021-08-12T10:50:29.554Z</time>
      </trkpt>
      <trkpt lat="46.84856" lon="8.46782">
        <ele>2307</ele>
        <time>2021-08-12T10:50:30.554Z</time>
      </trkpt>
      <trkpt lat="46.84856" lon="8.4678">
        <ele>2307</ele>
        <time>2021-08-12T10:50:31.555Z</time>
      </trkpt>
      <trkpt lat="46.84856" lon="8.46778">
        <ele>2307</ele>
        <time>2021-08-12T10:50:32.555Z</time>
      </trkpt>
      <trkpt lat="46.84857" lon="8.46776">
        <ele>2307</ele>
        <time>2021-08-12T10:50:33.555Z</time>
      </trkpt>
      <trkpt lat="46.84857" lon="8.46774">
        <ele>2307</ele>
        <time>2021-08-12T10:50:34.554Z</time>
      </trkpt>
      <trkpt lat="46.84858" lon="8.46772">
        <ele>2307</ele>
        <time>2021-08-12T10:50:35.555Z</time>
      </trkpt>
      <trkpt lat="46.84858" lon="8.4677">
        <ele>2307</ele>
        <time>2021-08-12T10:50:36.555Z</time>
      </trkpt>
      <trkpt lat="46.84857" lon="8.46769">
        <ele>2307</ele>
        <time>2021-08-12T10:50:37.554Z</time>
      </trkpt>
      <trkpt lat="46.84857" lon="8.46767">
        <ele>2306</ele>
        <time>2021-08-12T10:50:38.555Z</time>
      </trkpt>
      <trkpt lat="46.84857" lon="8.46766">
        <ele>2306</ele>
        <time>2021-08-12T10:50:39.555Z</time>
      </trkpt>
      <trkpt lat="46.84858" lon="8.46764">
        <ele>2305</ele>
        <time>2021-08-12T10:50:40.555Z</time>
      </trkpt>
      <trkpt lat="46.84858" lon="8.46762">
        <ele>2305</ele>
        <time>2021-08-12T10:50:41.555Z</time>
      </trkpt>
      <trkpt lat="46.84858" lon="8.4676">
        <ele>2306</ele>
        <time>2021-08-12T10:50:42.555Z</time>
      </trkpt>
      <trkpt lat="46.84858" lon="8.46758">
        <ele>2306</ele>
        <time>2021-08-12T10:50:43.555Z</time>
      </trkpt>
      <trkpt lat="46.84858" lon="8.46756">
        <ele>2306</ele>
        <time>2021-08-12T10:50:44.555Z</time>
      </trkpt>
      <trkpt lat="46.84858" lon="8.46754">
        <ele>2306</ele>
        <time>2021-08-12T10:50:45.554Z</time>
      </trkpt>
      <trkpt lat="46.84857" lon="8.46752">
        <ele>2306</ele>
        <time>2021-08-12T10:50:46.555Z</time>
      </trkpt>
      <trkpt lat="46.84857" lon="8.4675">
        <ele>2306</ele>
        <time>2021-08-12T10:50:47.554Z</time>
      </trkpt>
      <trkpt lat="46.84857" lon="8.46748">
        <ele>2306</ele>
        <time>2021-08-12T10:50:48.555Z</time>
      </trkpt>
      <trkpt lat="46.84857" lon="8.46746">
        <ele>2306</ele>
        <time>2021-08-12T10:50:49.554Z</time>
      </trkpt>
      <trkpt lat="46.84857" lon="8.46744">
        <ele>2305</ele>
        <time>2021-08-12T10:50:50.555Z</time>
      </trkpt>
      <trkpt lat="46.84857" lon="8.46742">
        <ele>2305</ele>
        <time>2021-08-12T10:50:51.555Z</time>
      </trkpt>
      <trkpt lat="46.84856" lon="8.4674">
        <ele>2305</ele>
        <time>2021-08-12T10:50:52.555Z</time>
      </trkpt>
      <trkpt lat="46.84856" lon="8.46738">
        <ele>2304</ele>
        <time>2021-08-12T10:50:53.555Z</time>
      </trkpt>
      <trkpt lat="46.84856" lon="8.46736">
        <ele>2304</ele>
        <time>2021-08-12T10:50:54.555Z</time>
      </trkpt>
      <trkpt lat="46.84856" lon="8.46734">
        <ele>2304</ele>
        <time>2021-08-12T10:50:55.554Z</time>
      </trkpt>
      <trkpt lat="46.84856" lon="8.46733">
        <ele>2304</ele>
        <time>2021-08-12T10:50:56.555Z</time>
      </trkpt>
      <trkpt lat="46.84856" lon="8.46731">
        <ele>2304</ele>
        <time>2021-08-12T10:50:57.555Z</time>
      </trkpt>
      <trkpt lat="46.84856" lon="8.4673">
        <ele>2304</ele>
        <time>2021-08-12T10:50:58.555Z</time>
      </trkpt>
      <trkpt lat="46.84856" lon="8.46728">
        <ele>2305</ele>
        <time>2021-08-12T10:50:59.555Z</time>
      </trkpt>
      <trkpt lat="46.84856" lon="8.46726">
        <ele>2305</ele>
        <time>2021-08-12T10:51:00.555Z</time>
      </trkpt>
      <trkpt lat="46.84856" lon="8.46725">
        <ele>2305</ele>
        <time>2021-08-12T10:51:01.555Z</time>
      </trkpt>
      <trkpt lat="46.84856" lon="8.46723">
        <ele>2305</ele>
        <time>2021-08-12T10:51:02.554Z</time>
      </trkpt>
      <trkpt lat="46.84856" lon="8.46721">
        <ele>2306</ele>
        <time>2021-08-12T10:51:03.555Z</time>
      </trkpt>
      <trkpt lat="46.84855" lon="8.46719">
        <ele>2306</ele>
        <time>2021-08-12T10:51:04.555Z</time>
      </trkpt>
      <trkpt lat="46.84855" lon="8.46718">
        <ele>2306</ele>
        <time>2021-08-12T10:51:05.555Z</time>
      </trkpt>
      <trkpt lat="46.84855" lon="8.46716">
        <ele>2306</ele>
        <time>2021-08-12T10:51:06.555Z</time>
      </trkpt>
      <trkpt lat="46.84855" lon="8.46714">
        <ele>2306</ele>
        <time>2021-08-12T10:51:07.554Z</time>
      </trkpt>
      <trkpt lat="46.84854" lon="8.46713">
        <ele>2306</ele>
        <time>2021-08-12T10:51:08.555Z</time>
      </trkpt>
      <trkpt lat="46.84854" lon="8.46711">
        <ele>2306</ele>
        <time>2021-08-12T10:51:09.554Z</time>
      </trkpt>
      <trkpt lat="46.84854" lon="8.46709">
        <ele>2306</ele>
        <time>2021-08-12T10:51:10.554Z</time>
      </trkpt>
      <trkpt lat="46.84854" lon="8.46707">
        <ele>2306</ele>
        <time>2021-08-12T10:51:11.555Z</time>
      </trkpt>
      <trkpt lat="46.84854" lon="8.46706">
        <ele>2306</ele>
        <time>2021-08-12T10:51:12.555Z</time>
      </trkpt>
      <trkpt lat="46.84854" lon="8.46705">
        <ele>2307</ele>
        <time>2021-08-12T10:51:13.555Z</time>
      </trkpt>
      <trkpt lat="46.84854" lon="8.46705">
        <ele>2308</ele>
        <time>2021-08-12T10:51:14.554Z</time>
      </trkpt>
      <trkpt lat="46.84854" lon="8.46704">
        <ele>2308</ele>
        <time>2021-08-12T10:51:15.554Z</time>
      </trkpt>
      <trkpt lat="46.84854" lon="8.46703">
        <ele>2308</ele>
        <time>2021-08-12T10:51:16.555Z</time>
      </trkpt>
      <trkpt lat="46.84854" lon="8.46702">
        <ele>2309</ele>
        <time>2021-08-12T10:51:17.554Z</time>
      </trkpt>
      <trkpt lat="46.84854" lon="8.46701">
        <ele>2308</ele>
        <time>2021-08-12T10:51:18.555Z</time>
      </trkpt>
      <trkpt lat="46.84854" lon="8.467">
        <ele>2308</ele>
        <time>2021-08-12T10:51:24.699Z</time>
      </trkpt>
      <trkpt lat="46.84854" lon="8.46698">
        <ele>2308</ele>
        <time>2021-08-12T10:51:25.699Z</time>
      </trkpt>
      <trkpt lat="46.84854" lon="8.46696">
        <ele>2308</ele>
        <time>2021-08-12T10:51:26.698Z</time>
      </trkpt>
      <trkpt lat="46.84854" lon="8.46695">
        <ele>2308</ele>
        <time>2021-08-12T10:51:27.698Z</time>
      </trkpt>
      <trkpt lat="46.84854" lon="8.46693">
        <ele>2307</ele>
        <time>2021-08-12T10:51:28.699Z</time>
      </trkpt>
      <trkpt lat="46.84853" lon="8.46691">
        <ele>2307</ele>
        <time>2021-08-12T10:51:29.699Z</time>
      </trkpt>
      <trkpt lat="46.84853" lon="8.4669">
        <ele>2307</ele>
        <time>2021-08-12T10:51:30.698Z</time>
      </trkpt>
      <trkpt lat="46.84852" lon="8.46689">
        <ele>2307</ele>
        <time>2021-08-12T10:51:31.699Z</time>
      </trkpt>
      <trkpt lat="46.84851" lon="8.46688">
        <ele>2307</ele>
        <time>2021-08-12T10:51:32.699Z</time>
      </trkpt>
      <trkpt lat="46.84851" lon="8.46686">
        <ele>2307</ele>
        <time>2021-08-12T10:51:33.698Z</time>
      </trkpt>
      <trkpt lat="46.8485" lon="8.46685">
        <ele>2307</ele>
        <time>2021-08-12T10:51:34.699Z</time>
      </trkpt>
      <trkpt lat="46.8485" lon="8.46683">
        <ele>2306</ele>
        <time>2021-08-12T10:51:35.698Z</time>
      </trkpt>
      <trkpt lat="46.84849" lon="8.46682">
        <ele>2306</ele>
        <time>2021-08-12T10:51:36.699Z</time>
      </trkpt>
      <trkpt lat="46.84849" lon="8.4668">
        <ele>2306</ele>
        <time>2021-08-12T10:51:37.699Z</time>
      </trkpt>
      <trkpt lat="46.84849" lon="8.46679">
        <ele>2306</ele>
        <time>2021-08-12T10:51:38.699Z</time>
      </trkpt>
      <trkpt lat="46.84848" lon="8.46677">
        <ele>2306</ele>
        <time>2021-08-12T10:51:39.699Z</time>
      </trkpt>
      <trkpt lat="46.84848" lon="8.46676">
        <ele>2306</ele>
        <time>2021-08-12T10:51:40.699Z</time>
      </trkpt>
      <trkpt lat="46.84848" lon="8.46675">
        <ele>2306</ele>
        <time>2021-08-12T10:51:41.699Z</time>
      </trkpt>
      <trkpt lat="46.84847" lon="8.46674">
        <ele>2305</ele>
        <time>2021-08-12T10:51:42.699Z</time>
      </trkpt>
      <trkpt lat="46.84847" lon="8.46674">
        <ele>2305</ele>
        <time>2021-08-12T10:51:43.698Z</time>
      </trkpt>
      <trkpt lat="46.84846" lon="8.46673">
        <ele>2305</ele>
        <time>2021-08-12T10:51:44.699Z</time>
      </trkpt>
      <trkpt lat="46.84846" lon="8.46673">
        <ele>2304</ele>
        <time>2021-08-12T10:51:45.699Z</time>
      </trkpt>
      <trkpt lat="46.84846" lon="8.46672">
        <ele>2304</ele>
        <time>2021-08-12T10:51:46.699Z</time>
      </trkpt>
      <trkpt lat="46.84846" lon="8.46672">
        <ele>2303</ele>
        <time>2021-08-12T10:51:47.698Z</time>
      </trkpt>
      <trkpt lat="46.84846" lon="8.46671">
        <ele>2303</ele>
        <time>2021-08-12T10:51:48.698Z</time>
      </trkpt>
      <trkpt lat="46.84846" lon="8.4667">
        <ele>2302</ele>
        <time>2021-08-12T10:51:49.699Z</time>
      </trkpt>
      <trkpt lat="46.84847" lon="8.46669">
        <ele>2302</ele>
        <time>2021-08-12T10:51:50.699Z</time>
      </trkpt>
      <trkpt lat="46.84847" lon="8.46669">
        <ele>2302</ele>
        <time>2021-08-12T10:51:51.698Z</time>
      </trkpt>
      <trkpt lat="46.84847" lon="8.46668">
        <ele>2302</ele>
        <time>2021-08-12T10:51:52.699Z</time>
      </trkpt>
      <trkpt lat="46.84847" lon="8.46668">
        <ele>2302</ele>
        <time>2021-08-12T10:51:53.698Z</time>
      </trkpt>
      <trkpt lat="46.84847" lon="8.46667">
        <ele>2302</ele>
        <time>2021-08-12T10:51:54.699Z</time>
      </trkpt>
      <trkpt lat="46.84847" lon="8.46667">
        <ele>2301</ele>
        <time>2021-08-12T10:51:55.698Z</time>
      </trkpt>
      <trkpt lat="46.84847" lon="8.46666">
        <ele>2300</ele>
        <time>2021-08-12T10:51:56.698Z</time>
      </trkpt>
      <trkpt lat="46.84847" lon="8.46665">
        <ele>2300</ele>
        <time>2021-08-12T10:51:57.698Z</time>
      </trkpt>
      <trkpt lat="46.84847" lon="8.46664">
        <ele>2300</ele>
        <time>2021-08-12T10:51:58.698Z</time>
      </trkpt>
      <trkpt lat="46.84847" lon="8.46663">
        <ele>2300</ele>
        <time>2021-08-12T10:51:59.698Z</time>
      </trkpt>
      <trkpt lat="46.84848" lon="8.46662">
        <ele>2300</ele>
        <time>2021-08-12T10:52:00.698Z</time>
      </trkpt>
      <trkpt lat="46.84848" lon="8.46661">
        <ele>2300</ele>
        <time>2021-08-12T10:52:01.698Z</time>
      </trkpt>
      <trkpt lat="46.84847" lon="8.4666">
        <ele>2299</ele>
        <time>2021-08-12T10:52:02.698Z</time>
      </trkpt>
      <trkpt lat="46.84847" lon="8.46659">
        <ele>2299</ele>
        <time>2021-08-12T10:52:03.698Z</time>
      </trkpt>
      <trkpt lat="46.84847" lon="8.46658">
        <ele>2299</ele>
        <time>2021-08-12T10:52:04.699Z</time>
      </trkpt>
      <trkpt lat="46.84847" lon="8.46658">
        <ele>2299</ele>
        <time>2021-08-12T10:52:05.698Z</time>
      </trkpt>
      <trkpt lat="46.84847" lon="8.46657">
        <ele>2298</ele>
        <time>2021-08-12T10:52:06.699Z</time>
      </trkpt>
      <trkpt lat="46.84847" lon="8.46657">
        <ele>2298</ele>
        <time>2021-08-12T10:52:07.698Z</time>
      </trkpt>
      <trkpt lat="46.84847" lon="8.46656">
        <ele>2298</ele>
        <time>2021-08-12T10:52:08.698Z</time>
      </trkpt>
      <trkpt lat="46.84847" lon="8.46654">
        <ele>2298</ele>
        <time>2021-08-12T10:52:09.698Z</time>
      </trkpt>
      <trkpt lat="46.84848" lon="8.46653">
        <ele>2298</ele>
        <time>2021-08-12T10:52:10.698Z</time>
      </trkpt>
      <trkpt lat="46.84848" lon="8.46652">
        <ele>2298</ele>
        <time>2021-08-12T10:52:11.698Z</time>
      </trkpt>
      <trkpt lat="46.84849" lon="8.46652">
        <ele>2298</ele>
        <time>2021-08-12T10:52:12.698Z</time>
      </trkpt>
      <trkpt lat="46.8485" lon="8.46651">
        <ele>2298</ele>
        <time>2021-08-12T10:52:15.798Z</time>
      </trkpt>
      <trkpt lat="46.8485" lon="8.46651">
        <ele>2297</ele>
        <time>2021-08-12T10:52:16.798Z</time>
      </trkpt>
      <trkpt lat="46.8485" lon="8.4665">
        <ele>2297</ele>
        <time>2021-08-12T10:52:17.798Z</time>
      </trkpt>
      <trkpt lat="46.84849" lon="8.4665">
        <ele>2297</ele>
        <time>2021-08-12T10:52:18.798Z</time>
      </trkpt>
      <trkpt lat="46.84848" lon="8.46649">
        <ele>2296</ele>
        <time>2021-08-12T10:52:19.798Z</time>
      </trkpt>
      <trkpt lat="46.84848" lon="8.46648">
        <ele>2296</ele>
        <time>2021-08-12T10:52:20.798Z</time>
      </trkpt>
      <trkpt lat="46.84847" lon="8.46647">
        <ele>2296</ele>
        <time>2021-08-12T10:52:21.798Z</time>
      </trkpt>
      <trkpt lat="46.84846" lon="8.46647">
        <ele>2296</ele>
        <time>2021-08-12T10:52:22.798Z</time>
      </trkpt>
      <trkpt lat="46.84845" lon="8.46647">
        <ele>2295</ele>
        <time>2021-08-12T10:52:23.798Z</time>
      </trkpt>
      <trkpt lat="46.84844" lon="8.46647">
        <ele>2295</ele>
        <time>2021-08-12T10:52:24.798Z</time>
      </trkpt>
      <trkpt lat="46.84843" lon="8.46647">
        <ele>2295</ele>
        <time>2021-08-12T10:52:25.798Z</time>
      </trkpt>
      <trkpt lat="46.84843" lon="8.46647">
        <ele>2294</ele>
        <time>2021-08-12T10:52:26.798Z</time>
      </trkpt>
      <trkpt lat="46.84842" lon="8.46647">
        <ele>2294</ele>
        <time>2021-08-12T10:52:27.799Z</time>
      </trkpt>
      <trkpt lat="46.84842" lon="8.46647">
        <ele>2293</ele>
        <time>2021-08-12T10:52:28.798Z</time>
      </trkpt>
      <trkpt lat="46.84842" lon="8.46646">
        <ele>2292</ele>
        <time>2021-08-12T10:52:29.798Z</time>
      </trkpt>
      <trkpt lat="46.84842" lon="8.46645">
        <ele>2292</ele>
        <time>2021-08-12T10:52:30.798Z</time>
      </trkpt>
      <trkpt lat="46.84843" lon="8.46644">
        <ele>2292</ele>
        <time>2021-08-12T10:52:31.798Z</time>
      </trkpt>
      <trkpt lat="46.84843" lon="8.46642">
        <ele>2293</ele>
        <time>2021-08-12T10:52:32.798Z</time>
      </trkpt>
      <trkpt lat="46.84842" lon="8.4664">
        <ele>2293</ele>
        <time>2021-08-12T10:52:33.798Z</time>
      </trkpt>
      <trkpt lat="46.84842" lon="8.46638">
        <ele>2293</ele>
        <time>2021-08-12T10:52:34.798Z</time>
      </trkpt>
      <trkpt lat="46.84841" lon="8.46637">
        <ele>2293</ele>
        <time>2021-08-12T10:52:35.799Z</time>
      </trkpt>
      <trkpt lat="46.84841" lon="8.46635">
        <ele>2293</ele>
        <time>2021-08-12T10:52:37.914Z</time>
      </trkpt>
      <trkpt lat="46.84841" lon="8.46633">
        <ele>2293</ele>
        <time>2021-08-12T10:52:38.913Z</time>
      </trkpt>
      <trkpt lat="46.8484" lon="8.46631">
        <ele>2293</ele>
        <time>2021-08-12T10:52:39.913Z</time>
      </trkpt>
      <trkpt lat="46.8484" lon="8.46629">
        <ele>2293</ele>
        <time>2021-08-12T10:52:40.913Z</time>
      </trkpt>
      <trkpt lat="46.84839" lon="8.46628">
        <ele>2293</ele>
        <time>2021-08-12T10:52:41.913Z</time>
      </trkpt>
      <trkpt lat="46.84838" lon="8.46626">
        <ele>2293</ele>
        <time>2021-08-12T10:52:42.913Z</time>
      </trkpt>
      <trkpt lat="46.84838" lon="8.46624">
        <ele>2293</ele>
        <time>2021-08-12T10:52:43.913Z</time>
      </trkpt>
      <trkpt lat="46.84838" lon="8.46622">
        <ele>2293</ele>
        <time>2021-08-12T10:52:44.913Z</time>
      </trkpt>
      <trkpt lat="46.84838" lon="8.4662">
        <ele>2293</ele>
        <time>2021-08-12T10:52:45.913Z</time>
      </trkpt>
      <trkpt lat="46.84837" lon="8.46618">
        <ele>2293</ele>
        <time>2021-08-12T10:52:46.913Z</time>
      </trkpt>
      <trkpt lat="46.84837" lon="8.46617">
        <ele>2293</ele>
        <time>2021-08-12T10:52:47.914Z</time>
      </trkpt>
      <trkpt lat="46.84836" lon="8.46615">
        <ele>2293</ele>
        <time>2021-08-12T10:52:58.942Z</time>
      </trkpt>
      <trkpt lat="46.84836" lon="8.46613">
        <ele>2293</ele>
        <time>2021-08-12T10:52:59.942Z</time>
      </trkpt>
      <trkpt lat="46.84836" lon="8.46612">
        <ele>2293</ele>
        <time>2021-08-12T10:53:16.827Z</time>
      </trkpt>
      <trkpt lat="46.84836" lon="8.4661">
        <ele>2293</ele>
        <time>2021-08-12T10:53:17.826Z</time>
      </trkpt>
      <trkpt lat="46.84835" lon="8.46607">
        <ele>2293</ele>
        <time>2021-08-12T10:53:18.827Z</time>
      </trkpt>
      <trkpt lat="46.84835" lon="8.46605">
        <ele>2293</ele>
        <time>2021-08-12T10:53:19.826Z</time>
      </trkpt>
      <trkpt lat="46.84834" lon="8.46602">
        <ele>2292</ele>
        <time>2021-08-12T10:53:20.827Z</time>
      </trkpt>
      <trkpt lat="46.84834" lon="8.466">
        <ele>2292</ele>
        <time>2021-08-12T10:53:21.827Z</time>
      </trkpt>
      <trkpt lat="46.84833" lon="8.46599">
        <ele>2293</ele>
        <time>2021-08-12T10:53:22.827Z</time>
      </trkpt>
      <trkpt lat="46.84833" lon="8.46598">
        <ele>2293</ele>
        <time>2021-08-12T10:53:23.827Z</time>
      </trkpt>
      <trkpt lat="46.84832" lon="8.46597">
        <ele>2292</ele>
        <time>2021-08-12T10:53:24.827Z</time>
      </trkpt>
      <trkpt lat="46.84831" lon="8.46597">
        <ele>2292</ele>
        <time>2021-08-12T10:53:25.827Z</time>
      </trkpt>
      <trkpt lat="46.84831" lon="8.46596">
        <ele>2292</ele>
        <time>2021-08-12T10:53:26.826Z</time>
      </trkpt>
      <trkpt lat="46.8483" lon="8.46595">
        <ele>2291</ele>
        <time>2021-08-12T10:53:27.827Z</time>
      </trkpt>
      <trkpt lat="46.8483" lon="8.46593">
        <ele>2290</ele>
        <time>2021-08-12T10:53:28.826Z</time>
      </trkpt>
      <trkpt lat="46.84829" lon="8.46592">
        <ele>2290</ele>
        <time>2021-08-12T10:53:29.827Z</time>
      </trkpt>
      <trkpt lat="46.84829" lon="8.46591">
        <ele>2289</ele>
        <time>2021-08-12T10:53:30.827Z</time>
      </trkpt>
      <trkpt lat="46.84828" lon="8.46589">
        <ele>2289</ele>
        <time>2021-08-12T10:53:34.973Z</time>
      </trkpt>
      <trkpt lat="46.84827" lon="8.46587">
        <ele>2289</ele>
        <time>2021-08-12T10:53:35.973Z</time>
      </trkpt>
      <trkpt lat="46.84827" lon="8.46586">
        <ele>2289</ele>
        <time>2021-08-12T10:53:36.973Z</time>
      </trkpt>
      <trkpt lat="46.84827" lon="8.46585">
        <ele>2289</ele>
        <time>2021-08-12T10:53:37.972Z</time>
      </trkpt>
      <trkpt lat="46.84828" lon="8.46584">
        <ele>2289</ele>
        <time>2021-08-12T10:53:38.973Z</time>
      </trkpt>
      <trkpt lat="46.84828" lon="8.46582">
        <ele>2289</ele>
        <time>2021-08-12T10:53:39.972Z</time>
      </trkpt>
      <trkpt lat="46.84828" lon="8.46581">
        <ele>2289</ele>
        <time>2021-08-12T10:53:40.972Z</time>
      </trkpt>
      <trkpt lat="46.84828" lon="8.4658">
        <ele>2289</ele>
        <time>2021-08-12T10:53:41.973Z</time>
      </trkpt>
      <trkpt lat="46.84828" lon="8.46579">
        <ele>2289</ele>
        <time>2021-08-12T10:53:42.973Z</time>
      </trkpt>
      <trkpt lat="46.84828" lon="8.46578">
        <ele>2289</ele>
        <time>2021-08-12T10:53:43.973Z</time>
      </trkpt>
      <trkpt lat="46.84828" lon="8.46576">
        <ele>2289</ele>
        <time>2021-08-12T10:53:44.973Z</time>
      </trkpt>
      <trkpt lat="46.84828" lon="8.46575">
        <ele>2288</ele>
        <time>2021-08-12T10:53:45.973Z</time>
      </trkpt>
      <trkpt lat="46.84828" lon="8.46574">
        <ele>2288</ele>
        <time>2021-08-12T10:53:46.973Z</time>
      </trkpt>
      <trkpt lat="46.84828" lon="8.46573">
        <ele>2288</ele>
        <time>2021-08-12T10:53:47.972Z</time>
      </trkpt>
      <trkpt lat="46.84828" lon="8.46572">
        <ele>2287</ele>
        <time>2021-08-12T10:53:48.972Z</time>
      </trkpt>
      <trkpt lat="46.84828" lon="8.46571">
        <ele>2287</ele>
        <time>2021-08-12T10:53:49.973Z</time>
      </trkpt>
      <trkpt lat="46.84827" lon="8.46571">
        <ele>2287</ele>
        <time>2021-08-12T10:53:55.035Z</time>
      </trkpt>
      <trkpt lat="46.84827" lon="8.4657">
        <ele>2287</ele>
        <time>2021-08-12T10:53:56.035Z</time>
      </trkpt>
      <trkpt lat="46.84827" lon="8.46568">
        <ele>2287</ele>
        <time>2021-08-12T10:53:57.035Z</time>
      </trkpt>
      <trkpt lat="46.84826" lon="8.46567">
        <ele>2287</ele>
        <time>2021-08-12T10:53:58.035Z</time>
      </trkpt>
      <trkpt lat="46.84826" lon="8.46566">
        <ele>2287</ele>
        <time>2021-08-12T10:53:59.035Z</time>
      </trkpt>
      <trkpt lat="46.84825" lon="8.46564">
        <ele>2287</ele>
        <time>2021-08-12T10:54:01.039Z</time>
      </trkpt>
      <trkpt lat="46.84825" lon="8.46563">
        <ele>2287</ele>
        <time>2021-08-12T10:54:02.038Z</time>
      </trkpt>
      <trkpt lat="46.84824" lon="8.46561">
        <ele>2287</ele>
        <time>2021-08-12T10:54:03.038Z</time>
      </trkpt>
      <trkpt lat="46.84823" lon="8.4656">
        <ele>2287</ele>
        <time>2021-08-12T10:54:04.039Z</time>
      </trkpt>
      <trkpt lat="46.84822" lon="8.46558">
        <ele>2287</ele>
        <time>2021-08-12T10:54:05.038Z</time>
      </trkpt>
      <trkpt lat="46.84821" lon="8.46557">
        <ele>2286</ele>
        <time>2021-08-12T10:54:06.039Z</time>
      </trkpt>
      <trkpt lat="46.84821" lon="8.46555">
        <ele>2286</ele>
        <time>2021-08-12T10:54:07.039Z</time>
      </trkpt>
      <trkpt lat="46.84821" lon="8.46554">
        <ele>2286</ele>
        <time>2021-08-12T10:54:08.038Z</time>
      </trkpt>
      <trkpt lat="46.8482" lon="8.46552">
        <ele>2286</ele>
        <time>2021-08-12T10:54:09.039Z</time>
      </trkpt>
      <trkpt lat="46.8482" lon="8.4655">
        <ele>2285</ele>
        <time>2021-08-12T10:54:10.039Z</time>
      </trkpt>
      <trkpt lat="46.8482" lon="8.46548">
        <ele>2285</ele>
        <time>2021-08-12T10:54:18.158Z</time>
      </trkpt>
      <trkpt lat="46.8482" lon="8.46547">
        <ele>2285</ele>
        <time>2021-08-12T10:54:19.158Z</time>
      </trkpt>
      <trkpt lat="46.8482" lon="8.46545">
        <ele>2285</ele>
        <time>2021-08-12T10:54:20.157Z</time>
      </trkpt>
      <trkpt lat="46.8482" lon="8.46544">
        <ele>2285</ele>
        <time>2021-08-12T10:54:22.305Z</time>
      </trkpt>
      <trkpt lat="46.84821" lon="8.46542">
        <ele>2285</ele>
        <time>2021-08-12T10:54:23.304Z</time>
      </trkpt>
      <trkpt lat="46.84821" lon="8.4654">
        <ele>2286</ele>
        <time>2021-08-12T10:54:24.305Z</time>
      </trkpt>
      <trkpt lat="46.8482" lon="8.46539">
        <ele>2286</ele>
        <time>2021-08-12T10:54:25.305Z</time>
      </trkpt>
      <trkpt lat="46.8482" lon="8.46537">
        <ele>2286</ele>
        <time>2021-08-12T10:54:26.305Z</time>
      </trkpt>
      <trkpt lat="46.8482" lon="8.46535">
        <ele>2286</ele>
        <time>2021-08-12T10:54:27.305Z</time>
      </trkpt>
      <trkpt lat="46.8482" lon="8.46534">
        <ele>2286</ele>
        <time>2021-08-12T10:54:28.304Z</time>
      </trkpt>
      <trkpt lat="46.8482" lon="8.46533">
        <ele>2287</ele>
        <time>2021-08-12T10:54:29.304Z</time>
      </trkpt>
      <trkpt lat="46.84819" lon="8.46531">
        <ele>2286</ele>
        <time>2021-08-12T10:54:46.445Z</time>
      </trkpt>
      <trkpt lat="46.84819" lon="8.4653">
        <ele>2286</ele>
        <time>2021-08-12T10:54:47.445Z</time>
      </trkpt>
      <trkpt lat="46.84819" lon="8.46528">
        <ele>2286</ele>
        <time>2021-08-12T10:54:48.444Z</time>
      </trkpt>
      <trkpt lat="46.84818" lon="8.46527">
        <ele>2286</ele>
        <time>2021-08-12T10:54:49.445Z</time>
      </trkpt>
      <trkpt lat="46.84818" lon="8.46525">
        <ele>2286</ele>
        <time>2021-08-12T10:54:50.445Z</time>
      </trkpt>
      <trkpt lat="46.84818" lon="8.46523">
        <ele>2286</ele>
        <time>2021-08-12T10:54:51.445Z</time>
      </trkpt>
      <trkpt lat="46.84818" lon="8.46522">
        <ele>2285</ele>
        <time>2021-08-12T10:54:52.444Z</time>
      </trkpt>
      <trkpt lat="46.84819" lon="8.4652">
        <ele>2285</ele>
        <time>2021-08-12T10:54:53.445Z</time>
      </trkpt>
      <trkpt lat="46.84819" lon="8.46519">
        <ele>2284</ele>
        <time>2021-08-12T10:54:54.445Z</time>
      </trkpt>
      <trkpt lat="46.84819" lon="8.46517">
        <ele>2284</ele>
        <time>2021-08-12T10:54:55.444Z</time>
      </trkpt>
      <trkpt lat="46.84819" lon="8.46516">
        <ele>2284</ele>
        <time>2021-08-12T10:54:56.445Z</time>
      </trkpt>
      <trkpt lat="46.84819" lon="8.46514">
        <ele>2284</ele>
        <time>2021-08-12T10:54:57.445Z</time>
      </trkpt>
      <trkpt lat="46.84819" lon="8.46513">
        <ele>2283</ele>
        <time>2021-08-12T10:54:58.444Z</time>
      </trkpt>
      <trkpt lat="46.84819" lon="8.46513">
        <ele>2282</ele>
        <time>2021-08-12T10:54:59.445Z</time>
      </trkpt>
      <trkpt lat="46.84818" lon="8.46512">
        <ele>2282</ele>
        <time>2021-08-12T10:55:00.445Z</time>
      </trkpt>
      <trkpt lat="46.84818" lon="8.46511">
        <ele>2281</ele>
        <time>2021-08-12T10:55:01.445Z</time>
      </trkpt>
      <trkpt lat="46.84817" lon="8.46509">
        <ele>2281</ele>
        <time>2021-08-12T10:55:02.445Z</time>
      </trkpt>
      <trkpt lat="46.84817" lon="8.46508">
        <ele>2280</ele>
        <time>2021-08-12T10:55:03.445Z</time>
      </trkpt>
      <trkpt lat="46.84816" lon="8.46506">
        <ele>2279</ele>
        <time>2021-08-12T10:55:04.445Z</time>
      </trkpt>
      <trkpt lat="46.84815" lon="8.46504">
        <ele>2278</ele>
        <time>2021-08-12T10:55:05.445Z</time>
      </trkpt>
      <trkpt lat="46.84814" lon="8.46502">
        <ele>2278</ele>
        <time>2021-08-12T10:55:06.445Z</time>
      </trkpt>
      <trkpt lat="46.84813" lon="8.46501">
        <ele>2278</ele>
        <time>2021-08-12T10:55:07.444Z</time>
      </trkpt>
      <trkpt lat="46.84812" lon="8.46499">
        <ele>2278</ele>
        <time>2021-08-12T10:55:08.445Z</time>
      </trkpt>
      <trkpt lat="46.8481" lon="8.46499">
        <ele>2278</ele>
        <time>2021-08-12T10:55:09.445Z</time>
      </trkpt>
      <trkpt lat="46.84809" lon="8.46498">
        <ele>2278</ele>
        <time>2021-08-12T10:55:10.444Z</time>
      </trkpt>
      <trkpt lat="46.84808" lon="8.46498">
        <ele>2278</ele>
        <time>2021-08-12T10:55:11.444Z</time>
      </trkpt>
      <trkpt lat="46.84807" lon="8.46498">
        <ele>2278</ele>
        <time>2021-08-12T10:55:12.445Z</time>
      </trkpt>
      <trkpt lat="46.84806" lon="8.46498">
        <ele>2278</ele>
        <time>2021-08-12T10:55:13.445Z</time>
      </trkpt>
      <trkpt lat="46.84805" lon="8.46498">
        <ele>2278</ele>
        <time>2021-08-12T10:55:14.445Z</time>
      </trkpt>
      <trkpt lat="46.84804" lon="8.46498">
        <ele>2279</ele>
        <time>2021-08-12T10:55:15.444Z</time>
      </trkpt>
      <trkpt lat="46.84804" lon="8.46499">
        <ele>2279</ele>
        <time>2021-08-12T10:55:16.445Z</time>
      </trkpt>
      <trkpt lat="46.84803" lon="8.46498">
        <ele>2279</ele>
        <time>2021-08-12T10:55:40.537Z</time>
      </trkpt>
      <trkpt lat="46.84802" lon="8.46498">
        <ele>2280</ele>
        <time>2021-08-12T10:55:41.536Z</time>
      </trkpt>
      <trkpt lat="46.84801" lon="8.46497">
        <ele>2280</ele>
        <time>2021-08-12T10:55:42.536Z</time>
      </trkpt>
      <trkpt lat="46.84801" lon="8.46496">
        <ele>2280</ele>
        <time>2021-08-12T10:56:18.674Z</time>
      </trkpt>
      <trkpt lat="46.848" lon="8.46495">
        <ele>2281</ele>
        <time>2021-08-12T10:56:19.673Z</time>
      </trkpt>
      <trkpt lat="46.84799" lon="8.46494">
        <ele>2281</ele>
        <time>2021-08-12T10:56:20.674Z</time>
      </trkpt>
      <trkpt lat="46.84798" lon="8.46494">
        <ele>2281</ele>
        <time>2021-08-12T10:56:21.674Z</time>
      </trkpt>
      <trkpt lat="46.84798" lon="8.46493">
        <ele>2281</ele>
        <time>2021-08-12T10:56:22.674Z</time>
      </trkpt>
      <trkpt lat="46.84797" lon="8.46492">
        <ele>2281</ele>
        <time>2021-08-12T10:56:23.674Z</time>
      </trkpt>
      <trkpt lat="46.84796" lon="8.46492">
        <ele>2281</ele>
        <time>2021-08-12T10:56:24.673Z</time>
      </trkpt>
      <trkpt lat="46.84795" lon="8.4649">
        <ele>2282</ele>
        <time>2021-08-12T10:56:25.674Z</time>
      </trkpt>
      <trkpt lat="46.84795" lon="8.46489">
        <ele>2281</ele>
        <time>2021-08-12T10:56:26.674Z</time>
      </trkpt>
      <trkpt lat="46.84794" lon="8.46488">
        <ele>2281</ele>
        <time>2021-08-12T10:56:27.673Z</time>
      </trkpt>
      <trkpt lat="46.84794" lon="8.46487">
        <ele>2281</ele>
        <time>2021-08-12T10:56:28.674Z</time>
      </trkpt>
      <trkpt lat="46.84793" lon="8.46486">
        <ele>2281</ele>
        <time>2021-08-12T10:56:29.673Z</time>
      </trkpt>
      <trkpt lat="46.84793" lon="8.46485">
        <ele>2281</ele>
        <time>2021-08-12T10:56:30.674Z</time>
      </trkpt>
      <trkpt lat="46.84793" lon="8.46484">
        <ele>2281</ele>
        <time>2021-08-12T10:56:31.673Z</time>
      </trkpt>
      <trkpt lat="46.84792" lon="8.46482">
        <ele>2282</ele>
        <time>2021-08-12T10:56:32.674Z</time>
      </trkpt>
      <trkpt lat="46.84792" lon="8.4648">
        <ele>2282</ele>
        <time>2021-08-12T10:56:33.673Z</time>
      </trkpt>
      <trkpt lat="46.84792" lon="8.46478">
        <ele>2283</ele>
        <time>2021-08-12T10:56:38.814Z</time>
      </trkpt>
      <trkpt lat="46.84792" lon="8.46477">
        <ele>2283</ele>
        <time>2021-08-12T10:57:10.656Z</time>
      </trkpt>
      <trkpt lat="46.84792" lon="8.46475">
        <ele>2283</ele>
        <time>2021-08-12T10:57:11.656Z</time>
      </trkpt>
      <trkpt lat="46.84791" lon="8.46473">
        <ele>2284</ele>
        <time>2021-08-12T10:57:12.655Z</time>
      </trkpt>
      <trkpt lat="46.84791" lon="8.46472">
        <ele>2284</ele>
        <time>2021-08-12T10:57:13.655Z</time>
      </trkpt>
      <trkpt lat="46.8479" lon="8.46471">
        <ele>2284</ele>
        <time>2021-08-12T10:57:14.656Z</time>
      </trkpt>
      <trkpt lat="46.84789" lon="8.46469">
        <ele>2284</ele>
        <time>2021-08-12T10:57:15.656Z</time>
      </trkpt>
      <trkpt lat="46.84788" lon="8.46468">
        <ele>2284</ele>
        <time>2021-08-12T10:57:16.656Z</time>
      </trkpt>
      <trkpt lat="46.84787" lon="8.46467">
        <ele>2284</ele>
        <time>2021-08-12T10:57:17.655Z</time>
      </trkpt>
      <trkpt lat="46.84787" lon="8.46466">
        <ele>2284</ele>
        <time>2021-08-12T10:57:18.655Z</time>
      </trkpt>
      <trkpt lat="46.84786" lon="8.46464">
        <ele>2284</ele>
        <time>2021-08-12T10:57:19.656Z</time>
      </trkpt>
      <trkpt lat="46.84785" lon="8.46462">
        <ele>2284</ele>
        <time>2021-08-12T10:57:20.656Z</time>
      </trkpt>
      <trkpt lat="46.84785" lon="8.46461">
        <ele>2284</ele>
        <time>2021-08-12T10:57:21.656Z</time>
      </trkpt>
      <trkpt lat="46.84784" lon="8.4646">
        <ele>2284</ele>
        <time>2021-08-12T10:57:22.656Z</time>
      </trkpt>
      <trkpt lat="46.84783" lon="8.46458">
        <ele>2284</ele>
        <time>2021-08-12T10:57:23.655Z</time>
      </trkpt>
      <trkpt lat="46.84782" lon="8.46457">
        <ele>2284</ele>
        <time>2021-08-12T10:57:24.655Z</time>
      </trkpt>
      <trkpt lat="46.84781" lon="8.46456">
        <ele>2284</ele>
        <time>2021-08-12T10:57:25.656Z</time>
      </trkpt>
      <trkpt lat="46.84781" lon="8.46455">
        <ele>2285</ele>
        <time>2021-08-12T10:57:26.655Z</time>
      </trkpt>
      <trkpt lat="46.8478" lon="8.46454">
        <ele>2285</ele>
        <time>2021-08-12T10:57:27.655Z</time>
      </trkpt>
      <trkpt lat="46.84779" lon="8.46453">
        <ele>2285</ele>
        <time>2021-08-12T10:57:28.655Z</time>
      </trkpt>
      <trkpt lat="46.84778" lon="8.46453">
        <ele>2285</ele>
        <time>2021-08-12T10:57:29.655Z</time>
      </trkpt>
      <trkpt lat="46.84778" lon="8.46452">
        <ele>2285</ele>
        <time>2021-08-12T10:57:30.655Z</time>
      </trkpt>
      <trkpt lat="46.84777" lon="8.46451">
        <ele>2286</ele>
        <time>2021-08-12T10:57:31.656Z</time>
      </trkpt>
      <trkpt lat="46.84776" lon="8.4645">
        <ele>2286</ele>
        <time>2021-08-12T10:57:32.655Z</time>
      </trkpt>
      <trkpt lat="46.84775" lon="8.4645">
        <ele>2286</ele>
        <time>2021-08-12T10:57:33.655Z</time>
      </trkpt>
      <trkpt lat="46.84774" lon="8.46449">
        <ele>2286</ele>
        <time>2021-08-12T10:57:34.656Z</time>
      </trkpt>
      <trkpt lat="46.84773" lon="8.46448">
        <ele>2286</ele>
        <time>2021-08-12T10:57:35.656Z</time>
      </trkpt>
      <trkpt lat="46.84772" lon="8.46447">
        <ele>2286</ele>
        <time>2021-08-12T10:57:36.656Z</time>
      </trkpt>
      <trkpt lat="46.8477" lon="8.46446">
        <ele>2285</ele>
        <time>2021-08-12T10:57:37.655Z</time>
      </trkpt>
      <trkpt lat="46.84769" lon="8.46445">
        <ele>2285</ele>
        <time>2021-08-12T10:57:38.656Z</time>
      </trkpt>
      <trkpt lat="46.84768" lon="8.46444">
        <ele>2285</ele>
        <time>2021-08-12T10:57:39.656Z</time>
      </trkpt>
      <trkpt lat="46.84767" lon="8.46443">
        <ele>2285</ele>
        <time>2021-08-12T10:57:40.656Z</time>
      </trkpt>
      <trkpt lat="46.84766" lon="8.46442">
        <ele>2285</ele>
        <time>2021-08-12T10:57:41.655Z</time>
      </trkpt>
      <trkpt lat="46.84765" lon="8.46441">
        <ele>2285</ele>
        <time>2021-08-12T10:57:42.655Z</time>
      </trkpt>
      <trkpt lat="46.84763" lon="8.4644">
        <ele>2285</ele>
        <time>2021-08-12T10:57:43.655Z</time>
      </trkpt>
      <trkpt lat="46.84763" lon="8.46439">
        <ele>2284</ele>
        <time>2021-08-12T10:57:44.655Z</time>
      </trkpt>
      <trkpt lat="46.84762" lon="8.46437">
        <ele>2285</ele>
        <time>2021-08-12T10:57:45.656Z</time>
      </trkpt>
      <trkpt lat="46.84762" lon="8.46436">
        <ele>2285</ele>
        <time>2021-08-12T10:57:46.656Z</time>
      </trkpt>
      <trkpt lat="46.84762" lon="8.46434">
        <ele>2285</ele>
        <time>2021-08-12T10:57:47.656Z</time>
      </trkpt>
      <trkpt lat="46.84762" lon="8.46433">
        <ele>2285</ele>
        <time>2021-08-12T10:57:48.655Z</time>
      </trkpt>
      <trkpt lat="46.84762" lon="8.46431">
        <ele>2285</ele>
        <time>2021-08-12T10:57:49.655Z</time>
      </trkpt>
      <trkpt lat="46.84762" lon="8.4643">
        <ele>2285</ele>
        <time>2021-08-12T10:57:50.655Z</time>
      </trkpt>
      <trkpt lat="46.84761" lon="8.46428">
        <ele>2285</ele>
        <time>2021-08-12T10:57:51.655Z</time>
      </trkpt>
      <trkpt lat="46.8476" lon="8.46427">
        <ele>2285</ele>
        <time>2021-08-12T10:57:52.656Z</time>
      </trkpt>
      <trkpt lat="46.8476" lon="8.46426">
        <ele>2285</ele>
        <time>2021-08-12T10:57:53.655Z</time>
      </trkpt>
      <trkpt lat="46.84759" lon="8.46424">
        <ele>2285</ele>
        <time>2021-08-12T10:57:54.656Z</time>
      </trkpt>
      <trkpt lat="46.84759" lon="8.46423">
        <ele>2286</ele>
        <time>2021-08-12T10:57:55.656Z</time>
      </trkpt>
      <trkpt lat="46.84758" lon="8.46421">
        <ele>2286</ele>
        <time>2021-08-12T10:57:56.656Z</time>
      </trkpt>
      <trkpt lat="46.84757" lon="8.4642">
        <ele>2286</ele>
        <time>2021-08-12T10:57:57.655Z</time>
      </trkpt>
      <trkpt lat="46.84756" lon="8.4642">
        <ele>2286</ele>
        <time>2021-08-12T10:57:58.655Z</time>
      </trkpt>
      <trkpt lat="46.84755" lon="8.46419">
        <ele>2286</ele>
        <time>2021-08-12T10:57:59.656Z</time>
      </trkpt>
      <trkpt lat="46.84754" lon="8.46418">
        <ele>2286</ele>
        <time>2021-08-12T10:58:00.655Z</time>
      </trkpt>
      <trkpt lat="46.84754" lon="8.46417">
        <ele>2286</ele>
        <time>2021-08-12T10:58:01.656Z</time>
      </trkpt>
      <trkpt lat="46.84753" lon="8.46416">
        <ele>2286</ele>
        <time>2021-08-12T10:58:02.655Z</time>
      </trkpt>
      <trkpt lat="46.84752" lon="8.46415">
        <ele>2286</ele>
        <time>2021-08-12T10:58:03.655Z</time>
      </trkpt>
      <trkpt lat="46.84751" lon="8.46415">
        <ele>2286</ele>
        <time>2021-08-12T10:58:04.656Z</time>
      </trkpt>
      <trkpt lat="46.8475" lon="8.46414">
        <ele>2286</ele>
        <time>2021-08-12T10:58:05.656Z</time>
      </trkpt>
      <trkpt lat="46.84749" lon="8.46414">
        <ele>2286</ele>
        <time>2021-08-12T10:58:06.655Z</time>
      </trkpt>
      <trkpt lat="46.84748" lon="8.46414">
        <ele>2287</ele>
        <time>2021-08-12T10:58:07.656Z</time>
      </trkpt>
      <trkpt lat="46.84747" lon="8.46414">
        <ele>2286</ele>
        <time>2021-08-12T10:58:08.656Z</time>
      </trkpt>
      <trkpt lat="46.84745" lon="8.46413">
        <ele>2286</ele>
        <time>2021-08-12T10:58:09.655Z</time>
      </trkpt>
      <trkpt lat="46.84744" lon="8.46413">
        <ele>2285</ele>
        <time>2021-08-12T10:58:10.656Z</time>
      </trkpt>
      <trkpt lat="46.84743" lon="8.46412">
        <ele>2285</ele>
        <time>2021-08-12T10:58:11.655Z</time>
      </trkpt>
      <trkpt lat="46.84743" lon="8.46412">
        <ele>2285</ele>
        <time>2021-08-12T10:58:12.655Z</time>
      </trkpt>
      <trkpt lat="46.84742" lon="8.46412">
        <ele>2285</ele>
        <time>2021-08-12T10:58:13.655Z</time>
      </trkpt>
      <trkpt lat="46.8474" lon="8.46412">
        <ele>2285</ele>
        <time>2021-08-12T10:58:14.656Z</time>
      </trkpt>
      <trkpt lat="46.84739" lon="8.46411">
        <ele>2285</ele>
        <time>2021-08-12T10:58:15.656Z</time>
      </trkpt>
      <trkpt lat="46.84737" lon="8.46411">
        <ele>2285</ele>
        <time>2021-08-12T10:58:16.656Z</time>
      </trkpt>
      <trkpt lat="46.84736" lon="8.4641">
        <ele>2285</ele>
        <time>2021-08-12T10:58:17.655Z</time>
      </trkpt>
      <trkpt lat="46.84735" lon="8.46408">
        <ele>2285</ele>
        <time>2021-08-12T10:58:18.656Z</time>
      </trkpt>
      <trkpt lat="46.84734" lon="8.46407">
        <ele>2285</ele>
        <time>2021-08-12T10:58:19.656Z</time>
      </trkpt>
      <trkpt lat="46.84733" lon="8.46406">
        <ele>2286</ele>
        <time>2021-08-12T10:58:20.656Z</time>
      </trkpt>
      <trkpt lat="46.84732" lon="8.46405">
        <ele>2286</ele>
        <time>2021-08-12T10:58:21.656Z</time>
      </trkpt>
      <trkpt lat="46.84731" lon="8.46404">
        <ele>2286</ele>
        <time>2021-08-12T10:58:22.656Z</time>
      </trkpt>
      <trkpt lat="46.8473" lon="8.46404">
        <ele>2286</ele>
        <time>2021-08-12T10:58:23.656Z</time>
      </trkpt>
      <trkpt lat="46.84729" lon="8.46403">
        <ele>2286</ele>
        <time>2021-08-12T10:58:24.656Z</time>
      </trkpt>
      <trkpt lat="46.84728" lon="8.46402">
        <ele>2287</ele>
        <time>2021-08-12T10:58:25.656Z</time>
      </trkpt>
      <trkpt lat="46.84727" lon="8.46401">
        <ele>2287</ele>
        <time>2021-08-12T10:58:26.656Z</time>
      </trkpt>
      <trkpt lat="46.84726" lon="8.464">
        <ele>2287</ele>
        <time>2021-08-12T10:58:27.655Z</time>
      </trkpt>
      <trkpt lat="46.84725" lon="8.46399">
        <ele>2287</ele>
        <time>2021-08-12T10:58:28.656Z</time>
      </trkpt>
      <trkpt lat="46.84724" lon="8.464">
        <ele>2287</ele>
        <time>2021-08-12T10:58:29.656Z</time>
      </trkpt>
      <trkpt lat="46.84723" lon="8.46399">
        <ele>2287</ele>
        <time>2021-08-12T10:58:30.655Z</time>
      </trkpt>
      <trkpt lat="46.84721" lon="8.46398">
        <ele>2287</ele>
        <time>2021-08-12T10:58:31.655Z</time>
      </trkpt>
      <trkpt lat="46.8472" lon="8.46398">
        <ele>2287</ele>
        <time>2021-08-12T10:58:32.656Z</time>
      </trkpt>
      <trkpt lat="46.84719" lon="8.46398">
        <ele>2287</ele>
        <time>2021-08-12T10:58:33.655Z</time>
      </trkpt>
      <trkpt lat="46.84717" lon="8.46397">
        <ele>2287</ele>
        <time>2021-08-12T10:58:34.656Z</time>
      </trkpt>
      <trkpt lat="46.84716" lon="8.46396">
        <ele>2286</ele>
        <time>2021-08-12T10:58:35.656Z</time>
      </trkpt>
      <trkpt lat="46.84714" lon="8.46395">
        <ele>2286</ele>
        <time>2021-08-12T10:58:36.656Z</time>
      </trkpt>
      <trkpt lat="46.84713" lon="8.46395">
        <ele>2285</ele>
        <time>2021-08-12T10:58:37.656Z</time>
      </trkpt>
      <trkpt lat="46.84712" lon="8.46394">
        <ele>2285</ele>
        <time>2021-08-12T10:58:38.655Z</time>
      </trkpt>
      <trkpt lat="46.84711" lon="8.46393">
        <ele>2285</ele>
        <time>2021-08-12T10:58:39.655Z</time>
      </trkpt>
      <trkpt lat="46.84709" lon="8.46392">
        <ele>2284</ele>
        <time>2021-08-12T10:58:40.655Z</time>
      </trkpt>
      <trkpt lat="46.84708" lon="8.46391">
        <ele>2285</ele>
        <time>2021-08-12T10:58:41.656Z</time>
      </trkpt>
      <trkpt lat="46.84707" lon="8.46389">
        <ele>2285</ele>
        <time>2021-08-12T10:58:42.656Z</time>
      </trkpt>
      <trkpt lat="46.84706" lon="8.46388">
        <ele>2285</ele>
        <time>2021-08-12T10:58:43.655Z</time>
      </trkpt>
      <trkpt lat="46.84705" lon="8.46387">
        <ele>2285</ele>
        <time>2021-08-12T10:58:44.656Z</time>
      </trkpt>
      <trkpt lat="46.84704" lon="8.46386">
        <ele>2285</ele>
        <time>2021-08-12T10:58:45.656Z</time>
      </trkpt>
      <trkpt lat="46.84703" lon="8.46386">
        <ele>2285</ele>
        <time>2021-08-12T10:58:46.655Z</time>
      </trkpt>
      <trkpt lat="46.84702" lon="8.46384">
        <ele>2285</ele>
        <time>2021-08-12T10:58:47.656Z</time>
      </trkpt>
      <trkpt lat="46.84701" lon="8.46383">
        <ele>2285</ele>
        <time>2021-08-12T10:58:48.655Z</time>
      </trkpt>
      <trkpt lat="46.84701" lon="8.46382">
        <ele>2285</ele>
        <time>2021-08-12T10:58:49.656Z</time>
      </trkpt>
      <trkpt lat="46.847" lon="8.46381">
        <ele>2285</ele>
        <time>2021-08-12T10:58:50.656Z</time>
      </trkpt>
      <trkpt lat="46.84699" lon="8.46379">
        <ele>2285</ele>
        <time>2021-08-12T10:58:51.656Z</time>
      </trkpt>
      <trkpt lat="46.84699" lon="8.46377">
        <ele>2285</ele>
        <time>2021-08-12T10:58:52.655Z</time>
      </trkpt>
      <trkpt lat="46.84698" lon="8.46376">
        <ele>2285</ele>
        <time>2021-08-12T10:58:53.655Z</time>
      </trkpt>
      <trkpt lat="46.84697" lon="8.46374">
        <ele>2284</ele>
        <time>2021-08-12T10:58:54.655Z</time>
      </trkpt>
      <trkpt lat="46.84696" lon="8.46373">
        <ele>2284</ele>
        <time>2021-08-12T10:58:55.656Z</time>
      </trkpt>
      <trkpt lat="46.84696" lon="8.46371">
        <ele>2283</ele>
        <time>2021-08-12T10:58:56.656Z</time>
      </trkpt>
      <trkpt lat="46.84696" lon="8.46369">
        <ele>2283</ele>
        <time>2021-08-12T10:58:57.656Z</time>
      </trkpt>
      <trkpt lat="46.84695" lon="8.46367">
        <ele>2283</ele>
        <time>2021-08-12T10:58:58.656Z</time>
      </trkpt>
      <trkpt lat="46.84695" lon="8.46365">
        <ele>2283</ele>
        <time>2021-08-12T10:58:59.656Z</time>
      </trkpt>
      <trkpt lat="46.84694" lon="8.46363">
        <ele>2283</ele>
        <time>2021-08-12T10:59:00.656Z</time>
      </trkpt>
      <trkpt lat="46.84694" lon="8.46361">
        <ele>2283</ele>
        <time>2021-08-12T10:59:01.656Z</time>
      </trkpt>
      <trkpt lat="46.84693" lon="8.4636">
        <ele>2283</ele>
        <time>2021-08-12T10:59:02.655Z</time>
      </trkpt>
      <trkpt lat="46.84693" lon="8.46358">
        <ele>2283</ele>
        <time>2021-08-12T10:59:03.656Z</time>
      </trkpt>
      <trkpt lat="46.84693" lon="8.46357">
        <ele>2283</ele>
        <time>2021-08-12T10:59:04.656Z</time>
      </trkpt>
      <trkpt lat="46.84693" lon="8.46355">
        <ele>2283</ele>
        <time>2021-08-12T10:59:05.656Z</time>
      </trkpt>
      <trkpt lat="46.84692" lon="8.46353">
        <ele>2283</ele>
        <time>2021-08-12T10:59:06.655Z</time>
      </trkpt>
      <trkpt lat="46.84691" lon="8.46352">
        <ele>2283</ele>
        <time>2021-08-12T10:59:07.655Z</time>
      </trkpt>
      <trkpt lat="46.8469" lon="8.46351">
        <ele>2283</ele>
        <time>2021-08-12T10:59:08.656Z</time>
      </trkpt>
      <trkpt lat="46.84689" lon="8.46349">
        <ele>2283</ele>
        <time>2021-08-12T10:59:09.656Z</time>
      </trkpt>
      <trkpt lat="46.84688" lon="8.46348">
        <ele>2283</ele>
        <time>2021-08-12T10:59:10.656Z</time>
      </trkpt>
      <trkpt lat="46.84687" lon="8.46347">
        <ele>2283</ele>
        <time>2021-08-12T10:59:11.656Z</time>
      </trkpt>
      <trkpt lat="46.84686" lon="8.46347">
        <ele>2283</ele>
        <time>2021-08-12T10:59:12.656Z</time>
      </trkpt>
      <trkpt lat="46.84685" lon="8.46347">
        <ele>2283</ele>
        <time>2021-08-12T10:59:13.655Z</time>
      </trkpt>
      <trkpt lat="46.84683" lon="8.46347">
        <ele>2283</ele>
        <time>2021-08-12T10:59:14.655Z</time>
      </trkpt>
      <trkpt lat="46.84682" lon="8.46348">
        <ele>2283</ele>
        <time>2021-08-12T10:59:15.655Z</time>
      </trkpt>
      <trkpt lat="46.84681" lon="8.46348">
        <ele>2283</ele>
        <time>2021-08-12T10:59:16.656Z</time>
      </trkpt>
      <trkpt lat="46.8468" lon="8.4635">
        <ele>2283</ele>
        <time>2021-08-12T10:59:17.656Z</time>
      </trkpt>
      <trkpt lat="46.84679" lon="8.4635">
        <ele>2283</ele>
        <time>2021-08-12T10:59:18.656Z</time>
      </trkpt>
      <trkpt lat="46.84679" lon="8.46352">
        <ele>2283</ele>
        <time>2021-08-12T10:59:19.656Z</time>
      </trkpt>
      <trkpt lat="46.84677" lon="8.46352">
        <ele>2283</ele>
        <time>2021-08-12T10:59:20.655Z</time>
      </trkpt>
      <trkpt lat="46.84677" lon="8.46353">
        <ele>2284</ele>
        <time>2021-08-12T10:59:21.656Z</time>
      </trkpt>
      <trkpt lat="46.84676" lon="8.46354">
        <ele>2284</ele>
        <time>2021-08-12T10:59:22.656Z</time>
      </trkpt>
      <trkpt lat="46.84675" lon="8.46355">
        <ele>2283</ele>
        <time>2021-08-12T10:59:23.655Z</time>
      </trkpt>
      <trkpt lat="46.84675" lon="8.46356">
        <ele>2283</ele>
        <time>2021-08-12T10:59:24.656Z</time>
      </trkpt>
      <trkpt lat="46.84674" lon="8.46357">
        <ele>2283</ele>
        <time>2021-08-12T10:59:25.656Z</time>
      </trkpt>
      <trkpt lat="46.84673" lon="8.46358">
        <ele>2283</ele>
        <time>2021-08-12T10:59:26.655Z</time>
      </trkpt>
      <trkpt lat="46.84673" lon="8.46359">
        <ele>2283</ele>
        <time>2021-08-12T10:59:27.656Z</time>
      </trkpt>
      <trkpt lat="46.84672" lon="8.4636">
        <ele>2283</ele>
        <time>2021-08-12T10:59:28.655Z</time>
      </trkpt>
      <trkpt lat="46.84671" lon="8.46361">
        <ele>2283</ele>
        <time>2021-08-12T10:59:29.655Z</time>
      </trkpt>
      <trkpt lat="46.8467" lon="8.46362">
        <ele>2283</ele>
        <time>2021-08-12T10:59:30.656Z</time>
      </trkpt>
      <trkpt lat="46.84669" lon="8.46362">
        <ele>2283</ele>
        <time>2021-08-12T10:59:31.656Z</time>
      </trkpt>
      <trkpt lat="46.84668" lon="8.46363">
        <ele>2283</ele>
        <time>2021-08-12T10:59:32.656Z</time>
      </trkpt>
      <trkpt lat="46.84667" lon="8.46363">
        <ele>2283</ele>
        <time>2021-08-12T10:59:33.655Z</time>
      </trkpt>
      <trkpt lat="46.84666" lon="8.46364">
        <ele>2283</ele>
        <time>2021-08-12T10:59:34.655Z</time>
      </trkpt>
      <trkpt lat="46.84665" lon="8.46364">
        <ele>2283</ele>
        <time>2021-08-12T10:59:35.655Z</time>
      </trkpt>
      <trkpt lat="46.84664" lon="8.46363">
        <ele>2283</ele>
        <time>2021-08-12T10:59:36.655Z</time>
      </trkpt>
      <trkpt lat="46.84663" lon="8.46363">
        <ele>2284</ele>
        <time>2021-08-12T10:59:37.656Z</time>
      </trkpt>
      <trkpt lat="46.84662" lon="8.46363">
        <ele>2284</ele>
        <time>2021-08-12T10:59:38.655Z</time>
      </trkpt>
      <trkpt lat="46.84661" lon="8.46364">
        <ele>2285</ele>
        <time>2021-08-12T10:59:39.656Z</time>
      </trkpt>
      <trkpt lat="46.8466" lon="8.46364">
        <ele>2285</ele>
        <time>2021-08-12T10:59:40.655Z</time>
      </trkpt>
      <trkpt lat="46.84659" lon="8.46364">
        <ele>2285</ele>
        <time>2021-08-12T10:59:41.655Z</time>
      </trkpt>
      <trkpt lat="46.84658" lon="8.46364">
        <ele>2286</ele>
        <time>2021-08-12T10:59:42.656Z</time>
      </trkpt>
      <trkpt lat="46.84657" lon="8.46364">
        <ele>2286</ele>
        <time>2021-08-12T10:59:43.656Z</time>
      </trkpt>
      <trkpt lat="46.84656" lon="8.46364">
        <ele>2286</ele>
        <time>2021-08-12T10:59:44.656Z</time>
      </trkpt>
      <trkpt lat="46.84655" lon="8.46363">
        <ele>2286</ele>
        <time>2021-08-12T10:59:45.656Z</time>
      </trkpt>
      <trkpt lat="46.84653" lon="8.46362">
        <ele>2286</ele>
        <time>2021-08-12T10:59:46.656Z</time>
      </trkpt>
      <trkpt lat="46.84652" lon="8.46362">
        <ele>2286</ele>
        <time>2021-08-12T10:59:47.655Z</time>
      </trkpt>
      <trkpt lat="46.84651" lon="8.46361">
        <ele>2286</ele>
        <time>2021-08-12T10:59:48.656Z</time>
      </trkpt>
      <trkpt lat="46.8465" lon="8.46361">
        <ele>2287</ele>
        <time>2021-08-12T10:59:49.656Z</time>
      </trkpt>
      <trkpt lat="46.84649" lon="8.46361">
        <ele>2287</ele>
        <time>2021-08-12T10:59:50.656Z</time>
      </trkpt>
      <trkpt lat="46.84648" lon="8.4636">
        <ele>2287</ele>
        <time>2021-08-12T10:59:51.655Z</time>
      </trkpt>
      <trkpt lat="46.84647" lon="8.46359">
        <ele>2287</ele>
        <time>2021-08-12T10:59:52.656Z</time>
      </trkpt>
      <trkpt lat="46.84646" lon="8.46359">
        <ele>2287</ele>
        <time>2021-08-12T10:59:53.656Z</time>
      </trkpt>
      <trkpt lat="46.84645" lon="8.46358">
        <ele>2287</ele>
        <time>2021-08-12T10:59:54.655Z</time>
      </trkpt>
      <trkpt lat="46.84644" lon="8.46358">
        <ele>2287</ele>
        <time>2021-08-12T10:59:55.656Z</time>
      </trkpt>
      <trkpt lat="46.84643" lon="8.46357">
        <ele>2287</ele>
        <time>2021-08-12T10:59:56.656Z</time>
      </trkpt>
      <trkpt lat="46.84642" lon="8.46357">
        <ele>2287</ele>
        <time>2021-08-12T10:59:57.656Z</time>
      </trkpt>
      <trkpt lat="46.84641" lon="8.46356">
        <ele>2287</ele>
        <time>2021-08-12T10:59:58.656Z</time>
      </trkpt>
      <trkpt lat="46.84641" lon="8.46355">
        <ele>2287</ele>
        <time>2021-08-12T10:59:59.656Z</time>
      </trkpt>
      <trkpt lat="46.8464" lon="8.46353">
        <ele>2287</ele>
        <time>2021-08-12T11:00:00.655Z</time>
      </trkpt>
      <trkpt lat="46.84639" lon="8.46352">
        <ele>2287</ele>
        <time>2021-08-12T11:00:01.656Z</time>
      </trkpt>
      <trkpt lat="46.84639" lon="8.46351">
        <ele>2287</ele>
        <time>2021-08-12T11:00:02.656Z</time>
      </trkpt>
      <trkpt lat="46.84638" lon="8.4635">
        <ele>2287</ele>
        <time>2021-08-12T11:00:03.656Z</time>
      </trkpt>
      <trkpt lat="46.84638" lon="8.46348">
        <ele>2287</ele>
        <time>2021-08-12T11:00:04.656Z</time>
      </trkpt>
      <trkpt lat="46.84638" lon="8.46347">
        <ele>2288</ele>
        <time>2021-08-12T11:00:05.656Z</time>
      </trkpt>
      <trkpt lat="46.84637" lon="8.46345">
        <ele>2288</ele>
        <time>2021-08-12T11:00:06.655Z</time>
      </trkpt>
      <trkpt lat="46.84637" lon="8.46344">
        <ele>2288</ele>
        <time>2021-08-12T11:00:07.656Z</time>
      </trkpt>
      <trkpt lat="46.84637" lon="8.46342">
        <ele>2289</ele>
        <time>2021-08-12T11:00:08.655Z</time>
      </trkpt>
      <trkpt lat="46.84637" lon="8.46341">
        <ele>2289</ele>
        <time>2021-08-12T11:00:09.655Z</time>
      </trkpt>
      <trkpt lat="46.84637" lon="8.46339">
        <ele>2289</ele>
        <time>2021-08-12T11:00:10.656Z</time>
      </trkpt>
      <trkpt lat="46.84637" lon="8.46338">
        <ele>2290</ele>
        <time>2021-08-12T11:00:20.683Z</time>
      </trkpt>
      <trkpt lat="46.84638" lon="8.46336">
        <ele>2290</ele>
        <time>2021-08-12T11:00:21.683Z</time>
      </trkpt>
      <trkpt lat="46.84638" lon="8.46335">
        <ele>2291</ele>
        <time>2021-08-12T11:00:22.683Z</time>
      </trkpt>
      <trkpt lat="46.84637" lon="8.46333">
        <ele>2291</ele>
        <time>2021-08-12T11:00:23.682Z</time>
      </trkpt>
      <trkpt lat="46.84637" lon="8.46332">
        <ele>2291</ele>
        <time>2021-08-12T11:00:24.682Z</time>
      </trkpt>
      <trkpt lat="46.84637" lon="8.46331">
        <ele>2291</ele>
        <time>2021-08-12T11:00:25.683Z</time>
      </trkpt>
      <trkpt lat="46.84637" lon="8.46329">
        <ele>2291</ele>
        <time>2021-08-12T11:00:26.683Z</time>
      </trkpt>
      <trkpt lat="46.84637" lon="8.46327">
        <ele>2291</ele>
        <time>2021-08-12T11:00:27.683Z</time>
      </trkpt>
      <trkpt lat="46.84637" lon="8.46325">
        <ele>2291</ele>
        <time>2021-08-12T11:00:28.683Z</time>
      </trkpt>
      <trkpt lat="46.84637" lon="8.46324">
        <ele>2290</ele>
        <time>2021-08-12T11:00:29.682Z</time>
      </trkpt>
      <trkpt lat="46.84637" lon="8.46322">
        <ele>2290</ele>
        <time>2021-08-12T11:00:30.683Z</time>
      </trkpt>
      <trkpt lat="46.84638" lon="8.4632">
        <ele>2290</ele>
        <time>2021-08-12T11:00:31.682Z</time>
      </trkpt>
      <trkpt lat="46.84638" lon="8.46318">
        <ele>2290</ele>
        <time>2021-08-12T11:00:32.683Z</time>
      </trkpt>
      <trkpt lat="46.84638" lon="8.46317">
        <ele>2291</ele>
        <time>2021-08-12T11:00:33.682Z</time>
      </trkpt>
      <trkpt lat="46.84637" lon="8.46315">
        <ele>2291</ele>
        <time>2021-08-12T11:00:34.683Z</time>
      </trkpt>
      <trkpt lat="46.84637" lon="8.46314">
        <ele>2291</ele>
        <time>2021-08-12T11:00:35.683Z</time>
      </trkpt>
      <trkpt lat="46.84637" lon="8.46312">
        <ele>2291</ele>
        <time>2021-08-12T11:00:36.682Z</time>
      </trkpt>
      <trkpt lat="46.84637" lon="8.46311">
        <ele>2291</ele>
        <time>2021-08-12T11:00:37.683Z</time>
      </trkpt>
      <trkpt lat="46.84637" lon="8.46309">
        <ele>2292</ele>
        <time>2021-08-12T11:00:38.682Z</time>
      </trkpt>
      <trkpt lat="46.84638" lon="8.46307">
        <ele>2292</ele>
        <time>2021-08-12T11:00:39.683Z</time>
      </trkpt>
      <trkpt lat="46.84638" lon="8.46305">
        <ele>2292</ele>
        <time>2021-08-12T11:00:40.683Z</time>
      </trkpt>
      <trkpt lat="46.84638" lon="8.46304">
        <ele>2293</ele>
        <time>2021-08-12T11:00:41.683Z</time>
      </trkpt>
      <trkpt lat="46.84639" lon="8.46302">
        <ele>2292</ele>
        <time>2021-08-12T11:00:42.682Z</time>
      </trkpt>
      <trkpt lat="46.84639" lon="8.46301">
        <ele>2292</ele>
        <time>2021-08-12T11:00:43.683Z</time>
      </trkpt>
      <trkpt lat="46.84639" lon="8.46299">
        <ele>2292</ele>
        <time>2021-08-12T11:00:44.682Z</time>
      </trkpt>
      <trkpt lat="46.8464" lon="8.46297">
        <ele>2291</ele>
        <time>2021-08-12T11:00:45.683Z</time>
      </trkpt>
      <trkpt lat="46.8464" lon="8.46295">
        <ele>2291</ele>
        <time>2021-08-12T11:00:46.682Z</time>
      </trkpt>
      <trkpt lat="46.8464" lon="8.46293">
        <ele>2290</ele>
        <time>2021-08-12T11:00:47.683Z</time>
      </trkpt>
      <trkpt lat="46.8464" lon="8.46291">
        <ele>2290</ele>
        <time>2021-08-12T11:00:48.683Z</time>
      </trkpt>
      <trkpt lat="46.84639" lon="8.46289">
        <ele>2290</ele>
        <time>2021-08-12T11:00:49.683Z</time>
      </trkpt>
      <trkpt lat="46.84639" lon="8.46287">
        <ele>2290</ele>
        <time>2021-08-12T11:00:50.683Z</time>
      </trkpt>
      <trkpt lat="46.84638" lon="8.46286">
        <ele>2289</ele>
        <time>2021-08-12T11:00:51.683Z</time>
      </trkpt>
      <trkpt lat="46.84638" lon="8.46285">
        <ele>2289</ele>
        <time>2021-08-12T11:00:52.683Z</time>
      </trkpt>
      <trkpt lat="46.84638" lon="8.46283">
        <ele>2289</ele>
        <time>2021-08-12T11:00:53.683Z</time>
      </trkpt>
      <trkpt lat="46.84637" lon="8.46282">
        <ele>2289</ele>
        <time>2021-08-12T11:00:54.682Z</time>
      </trkpt>
      <trkpt lat="46.84637" lon="8.46281">
        <ele>2289</ele>
        <time>2021-08-12T11:00:55.682Z</time>
      </trkpt>
      <trkpt lat="46.84636" lon="8.4628">
        <ele>2290</ele>
        <time>2021-08-12T11:00:56.683Z</time>
      </trkpt>
      <trkpt lat="46.84635" lon="8.46279">
        <ele>2290</ele>
        <time>2021-08-12T11:00:57.682Z</time>
      </trkpt>
      <trkpt lat="46.84635" lon="8.46278">
        <ele>2290</ele>
        <time>2021-08-12T11:00:58.682Z</time>
      </trkpt>
      <trkpt lat="46.84634" lon="8.46277">
        <ele>2290</ele>
        <time>2021-08-12T11:00:59.682Z</time>
      </trkpt>
      <trkpt lat="46.84634" lon="8.46276">
        <ele>2290</ele>
        <time>2021-08-12T11:01:00.682Z</time>
      </trkpt>
      <trkpt lat="46.84633" lon="8.46275">
        <ele>2290</ele>
        <time>2021-08-12T11:01:01.682Z</time>
      </trkpt>
      <trkpt lat="46.84633" lon="8.46274">
        <ele>2289</ele>
        <time>2021-08-12T11:01:02.682Z</time>
      </trkpt>
      <trkpt lat="46.84632" lon="8.46273">
        <ele>2289</ele>
        <time>2021-08-12T11:01:03.682Z</time>
      </trkpt>
      <trkpt lat="46.84631" lon="8.46272">
        <ele>2289</ele>
        <time>2021-08-12T11:01:04.682Z</time>
      </trkpt>
      <trkpt lat="46.84631" lon="8.46271">
        <ele>2288</ele>
        <time>2021-08-12T11:01:05.682Z</time>
      </trkpt>
      <trkpt lat="46.8463" lon="8.4627">
        <ele>2288</ele>
        <time>2021-08-12T11:01:06.682Z</time>
      </trkpt>
      <trkpt lat="46.8463" lon="8.46269">
        <ele>2288</ele>
        <time>2021-08-12T11:01:07.682Z</time>
      </trkpt>
      <trkpt lat="46.8463" lon="8.46269">
        <ele>2288</ele>
        <time>2021-08-12T11:01:08.682Z</time>
      </trkpt>
      <trkpt lat="46.84629" lon="8.46269">
        <ele>2288</ele>
        <time>2021-08-12T11:01:09.682Z</time>
      </trkpt>
      <trkpt lat="46.84628" lon="8.46269">
        <ele>2287</ele>
        <time>2021-08-12T11:01:10.682Z</time>
      </trkpt>
      <trkpt lat="46.84627" lon="8.46268">
        <ele>2287</ele>
        <time>2021-08-12T11:01:11.682Z</time>
      </trkpt>
      <trkpt lat="46.84627" lon="8.46267">
        <ele>2287</ele>
        <time>2021-08-12T11:01:12.682Z</time>
      </trkpt>
      <trkpt lat="46.84627" lon="8.46266">
        <ele>2288</ele>
        <time>2021-08-12T11:01:13.682Z</time>
      </trkpt>
      <trkpt lat="46.84626" lon="8.46265">
        <ele>2288</ele>
        <time>2021-08-12T11:01:14.682Z</time>
      </trkpt>
      <trkpt lat="46.84625" lon="8.46265">
        <ele>2288</ele>
        <time>2021-08-12T11:01:15.683Z</time>
      </trkpt>
      <trkpt lat="46.84624" lon="8.46264">
        <ele>2288</ele>
        <time>2021-08-12T11:01:16.683Z</time>
      </trkpt>
      <trkpt lat="46.84624" lon="8.46263">
        <ele>2289</ele>
        <time>2021-08-12T11:01:17.682Z</time>
      </trkpt>
      <trkpt lat="46.84623" lon="8.46263">
        <ele>2289</ele>
        <time>2021-08-12T11:01:18.682Z</time>
      </trkpt>
      <trkpt lat="46.84622" lon="8.46263">
        <ele>2289</ele>
        <time>2021-08-12T11:01:19.683Z</time>
      </trkpt>
    </trkseg>
  </trk>
</gpx>